<?xml version='1.0' encoding='UTF-8'?><gpx version="1.1" creator="JPX - https://github.com/jenetics/jpx" xmlns="http://www.topografix.com/GPX/1/1"><trk><trkseg><trkpt lat="42.1521312" lon="14.6517701"><ele>39.0</ele><time>2026-04-26T06:48:13.286Z</time></trkpt><trkpt lat="42.1521994" lon="14.6516704"><ele>39.0</ele><time>2026-04-26T06:48:16.269Z</time></trkpt><trkpt lat="42.1522923" lon="14.651591"><ele>39.0</ele><time>2026-04-26T06:48:18.264Z</time></trkpt><trkpt lat="42.1523515" lon="14.6515452"><ele>39.0</ele><time>2026-04-26T06:48:19.272Z</time></trkpt><trkpt lat="42.1524043" lon="14.6514846"><ele>39.0</ele><time>2026-04-26T06:48:20.269Z</time></trkpt><trkpt lat="42.1525079" lon="14.6513839"><ele>39.8</ele><time>2026-04-26T06:48:22.28Z</time></trkpt><trkpt lat="42.1525598" lon="14.6513207"><ele>40.599999999999994</ele><time>2026-04-26T06:48:23.26Z</time></trkpt><trkpt lat="42.1526312" lon="14.6512513"><ele>41.4</ele><time>2026-04-26T06:48:24.281Z</time></trkpt><trkpt lat="42.1527409" lon="14.6511452"><ele>42.199999999999996</ele><time>2026-04-26T06:48:25.243Z</time></trkpt><trkpt lat="42.1528384" lon="14.6510364"><ele>43.0</ele><time>2026-04-26T06:48:26.243Z</time></trkpt><trkpt lat="42.1529459" lon="14.6509308"><ele>41.75</ele><time>2026-04-26T06:48:27.241Z</time></trkpt><trkpt lat="42.1530353" lon="14.6508163"><ele>40.5</ele><time>2026-04-26T06:48:28.235Z</time></trkpt><trkpt lat="42.1531252" lon="14.650701"><ele>39.25</ele><time>2026-04-26T06:48:29.268Z</time></trkpt><trkpt lat="42.1532067" lon="14.650596"><ele>38.0</ele><time>2026-04-26T06:48:30.251Z</time></trkpt><trkpt lat="42.1532791" lon="14.6504981"><ele>38.0</ele><time>2026-04-26T06:48:31.262Z</time></trkpt><trkpt lat="42.1533634" lon="14.6504064"><ele>38.0</ele><time>2026-04-26T06:48:32.287Z</time></trkpt><trkpt lat="42.1534378" lon="14.6503059"><ele>38.0</ele><time>2026-04-26T06:48:33.288Z</time></trkpt><trkpt lat="42.1535106" lon="14.6501914"><ele>38.0</ele><time>2026-04-26T06:48:34.273Z</time></trkpt><trkpt lat="42.1535921" lon="14.650075"><ele>38.0</ele><time>2026-04-26T06:48:35.257Z</time></trkpt><trkpt lat="42.1536706" lon="14.6499617"><ele>36.5</ele><time>2026-04-26T06:48:36.271Z</time></trkpt><trkpt lat="42.1537406" lon="14.6498381"><ele>35.0</ele><time>2026-04-26T06:48:37.243Z</time></trkpt><trkpt lat="42.1538172" lon="14.6497175"><ele>33.5</ele><time>2026-04-26T06:48:38.264Z</time></trkpt><trkpt lat="42.153896" lon="14.6495941"><ele>32.0</ele><time>2026-04-26T06:48:39.244Z</time></trkpt><trkpt lat="42.1539596" lon="14.6494776"><ele>31.666666666666664</ele><time>2026-04-26T06:48:40.287Z</time></trkpt><trkpt lat="42.1540301" lon="14.6493642"><ele>31.333333333333332</ele><time>2026-04-26T06:48:41.276Z</time></trkpt><trkpt lat="42.154096" lon="14.649258"><ele>31.0</ele><time>2026-04-26T06:48:42.278Z</time></trkpt><trkpt lat="42.1541518" lon="14.6491609"><ele>30.666666666666664</ele><time>2026-04-26T06:48:43.238Z</time></trkpt><trkpt lat="42.1541991" lon="14.6490842"><ele>30.333333333333332</ele><time>2026-04-26T06:48:44.287Z</time></trkpt><trkpt lat="42.1542437" lon="14.6490136"><ele>30.0</ele><time>2026-04-26T06:48:45.292Z</time></trkpt><trkpt lat="42.1542883" lon="14.6489445"><ele>30.0</ele><time>2026-04-26T06:48:46.283Z</time></trkpt><trkpt lat="42.1543276" lon="14.6488706"><ele>30.0</ele><time>2026-04-26T06:48:47.278Z</time></trkpt><trkpt lat="42.154373" lon="14.6487917"><ele>30.0</ele><time>2026-04-26T06:48:48.3Z</time></trkpt><trkpt lat="42.1544113" lon="14.6487212"><ele>30.0</ele><time>2026-04-26T06:48:49.27Z</time></trkpt><trkpt lat="42.1544878" lon="14.6485949"><ele>30.0</ele><time>2026-04-26T06:48:51.291Z</time></trkpt><trkpt lat="42.1545527" lon="14.6484837"><ele>30.0</ele><time>2026-04-26T06:48:53.294Z</time></trkpt><trkpt lat="42.1545982" lon="14.6484215"><ele>30.0</ele><time>2026-04-26T06:48:55.261Z</time></trkpt><trkpt lat="42.1546093" lon="14.6483228"><ele>30.0</ele><time>2026-04-26T06:48:58.272Z</time></trkpt><trkpt lat="42.1545551" lon="14.648371"><ele>30.0</ele><time>2026-04-26T06:49:04.485Z</time></trkpt><trkpt lat="42.1545251" lon="14.6484714"><ele>30.0</ele><time>2026-04-26T06:49:07.275Z</time></trkpt><trkpt lat="42.1544386" lon="14.6486042"><ele>30.0</ele><time>2026-04-26T06:49:09.28Z</time></trkpt><trkpt lat="42.1543828" lon="14.6486953"><ele>30.0</ele><time>2026-04-26T06:49:10.282Z</time></trkpt><trkpt lat="42.1543264" lon="14.6488"><ele>30.0</ele><time>2026-04-26T06:49:11.31Z</time></trkpt><trkpt lat="42.1542672" lon="14.6488995"><ele>30.0</ele><time>2026-04-26T06:49:12.251Z</time></trkpt><trkpt lat="42.1542135" lon="14.6489898"><ele>30.0</ele><time>2026-04-26T06:49:13.276Z</time></trkpt><trkpt lat="42.1541529" lon="14.6490812"><ele>30.0</ele><time>2026-04-26T06:49:14.282Z</time></trkpt><trkpt lat="42.1540901" lon="14.6491807"><ele>30.0</ele><time>2026-04-26T06:49:15.29Z</time></trkpt><trkpt lat="42.1540252" lon="14.6492872"><ele>29.6</ele><time>2026-04-26T06:49:16.277Z</time></trkpt><trkpt lat="42.1539604" lon="14.6493881"><ele>29.2</ele><time>2026-04-26T06:49:17.293Z</time></trkpt><trkpt lat="42.153899" lon="14.649487"><ele>28.799999999999997</ele><time>2026-04-26T06:49:18.284Z</time></trkpt><trkpt lat="42.1538464" lon="14.6495772"><ele>28.4</ele><time>2026-04-26T06:49:19.274Z</time></trkpt><trkpt lat="42.1537967" lon="14.6496677"><ele>28.0</ele><time>2026-04-26T06:49:20.374Z</time></trkpt><trkpt lat="42.1537399" lon="14.649769"><ele>28.799999999999997</ele><time>2026-04-26T06:49:21.306Z</time></trkpt><trkpt lat="42.1536799" lon="14.6498791"><ele>29.599999999999998</ele><time>2026-04-26T06:49:22.292Z</time></trkpt><trkpt lat="42.1536119" lon="14.6499755"><ele>30.400000000000002</ele><time>2026-04-26T06:49:23.306Z</time></trkpt><trkpt lat="42.1535448" lon="14.6500774"><ele>31.200000000000003</ele><time>2026-04-26T06:49:24.31Z</time></trkpt><trkpt lat="42.1534804" lon="14.6501767"><ele>32.0</ele><time>2026-04-26T06:49:25.316Z</time></trkpt><trkpt lat="42.1534232" lon="14.6502722"><ele>32.166666666666664</ele><time>2026-04-26T06:49:26.293Z</time></trkpt><trkpt lat="42.1533706" lon="14.6503582"><ele>32.33333333333333</ele><time>2026-04-26T06:49:27.289Z</time></trkpt><trkpt lat="42.1533204" lon="14.6504174"><ele>32.5</ele><time>2026-04-26T06:49:28.266Z</time></trkpt><trkpt lat="42.1532378" lon="14.650502"><ele>32.666666666666664</ele><time>2026-04-26T06:49:30.275Z</time></trkpt><trkpt lat="42.153192" lon="14.6505638"><ele>32.833333333333336</ele><time>2026-04-26T06:49:31.3Z</time></trkpt><trkpt lat="42.1531434" lon="14.6506321"><ele>33.0</ele><time>2026-04-26T06:49:32.253Z</time></trkpt><trkpt lat="42.1530823" lon="14.6507293"><ele>33.0</ele><time>2026-04-26T06:49:34.241Z</time></trkpt><trkpt lat="42.1530104" lon="14.6507853"><ele>33.0</ele><time>2026-04-26T06:49:59.276Z</time></trkpt><trkpt lat="42.1529535" lon="14.6508694"><ele>33.0</ele><time>2026-04-26T06:50:01.278Z</time></trkpt><trkpt lat="42.1528526" lon="14.6509824"><ele>33.0</ele><time>2026-04-26T06:50:03.266Z</time></trkpt><trkpt lat="42.1527864" lon="14.6510568"><ele>33.0</ele><time>2026-04-26T06:50:04.296Z</time></trkpt><trkpt lat="42.1527105" lon="14.6511374"><ele>34.199999999999996</ele><time>2026-04-26T06:50:05.283Z</time></trkpt><trkpt lat="42.1526286" lon="14.6512321"><ele>35.4</ele><time>2026-04-26T06:50:06.297Z</time></trkpt><trkpt lat="42.152546" lon="14.6513238"><ele>36.599999999999994</ele><time>2026-04-26T06:50:07.264Z</time></trkpt><trkpt lat="42.152479" lon="14.6513979"><ele>37.8</ele><time>2026-04-26T06:50:08.294Z</time></trkpt><trkpt lat="42.1524293" lon="14.6514553"><ele>39.0</ele><time>2026-04-26T06:50:09.289Z</time></trkpt><trkpt lat="42.1523462" lon="14.651518"><ele>39.0</ele><time>2026-04-26T06:50:11.314Z</time></trkpt><trkpt lat="42.1522659" lon="14.6515808"><ele>39.0</ele><time>2026-04-26T06:50:13.317Z</time></trkpt><trkpt lat="42.1523323" lon="14.6515582"><ele>39.0</ele><time>2026-04-26T06:50:23.286Z</time></trkpt><trkpt lat="42.1523912" lon="14.6515068"><ele>39.0</ele><time>2026-04-26T06:50:24.311Z</time></trkpt><trkpt lat="42.1524718" lon="14.651402"><ele>39.0</ele><time>2026-04-26T06:50:26.301Z</time></trkpt><trkpt lat="42.152488" lon="14.6512103"><ele>37.5</ele><time>2026-04-26T06:50:28.303Z</time></trkpt><trkpt lat="42.1525077" lon="14.6510608"><ele>36.0</ele><time>2026-04-26T06:50:29.257Z</time></trkpt><trkpt lat="42.1525303" lon="14.650884"><ele>34.5</ele><time>2026-04-26T06:50:30.246Z</time></trkpt><trkpt lat="42.1525521" lon="14.6507104"><ele>33.0</ele><time>2026-04-26T06:50:31.311Z</time></trkpt><trkpt lat="42.1525666" lon="14.6505602"><ele>33.0</ele><time>2026-04-26T06:50:32.306Z</time></trkpt><trkpt lat="42.1525738" lon="14.6504109"><ele>33.0</ele><time>2026-04-26T06:50:33.314Z</time></trkpt><trkpt lat="42.1525867" lon="14.6502805"><ele>33.0</ele><time>2026-04-26T06:50:34.287Z</time></trkpt><trkpt lat="42.1526011" lon="14.6501464"><ele>33.0</ele><time>2026-04-26T06:50:35.304Z</time></trkpt><trkpt lat="42.152611" lon="14.6500125"><ele>33.0</ele><time>2026-04-26T06:50:36.322Z</time></trkpt><trkpt lat="42.1526167" lon="14.6498764"><ele>32.4</ele><time>2026-04-26T06:50:37.308Z</time></trkpt><trkpt lat="42.152625" lon="14.6497471"><ele>31.799999999999997</ele><time>2026-04-26T06:50:38.283Z</time></trkpt><trkpt lat="42.1526329" lon="14.6496434"><ele>31.2</ele><time>2026-04-26T06:50:39.296Z</time></trkpt><trkpt lat="42.1526329" lon="14.6495179"><ele>30.6</ele><time>2026-04-26T06:50:41.269Z</time></trkpt><trkpt lat="42.1525742" lon="14.6494568"><ele>30.0</ele><time>2026-04-26T06:50:43.263Z</time></trkpt><trkpt lat="42.152447" lon="14.6494117"><ele>29.2</ele><time>2026-04-26T06:50:45.257Z</time></trkpt><trkpt lat="42.1523657" lon="14.6493885"><ele>28.4</ele><time>2026-04-26T06:50:46.258Z</time></trkpt><trkpt lat="42.152278" lon="14.6493601"><ele>27.6</ele><time>2026-04-26T06:50:47.263Z</time></trkpt><trkpt lat="42.1521892" lon="14.6493253"><ele>26.8</ele><time>2026-04-26T06:50:48.255Z</time></trkpt><trkpt lat="42.1521103" lon="14.6492712"><ele>26.0</ele><time>2026-04-26T06:50:49.261Z</time></trkpt><trkpt lat="42.1520277" lon="14.6491999"><ele>26.0</ele><time>2026-04-26T06:50:50.265Z</time></trkpt><trkpt lat="42.1519554" lon="14.6491233"><ele>26.0</ele><time>2026-04-26T06:50:51.279Z</time></trkpt><trkpt lat="42.1519029" lon="14.6490202"><ele>26.0</ele><time>2026-04-26T06:50:52.272Z</time></trkpt><trkpt lat="42.1518289" lon="14.6488779"><ele>26.0</ele><time>2026-04-26T06:50:53.269Z</time></trkpt><trkpt lat="42.1517631" lon="14.648726"><ele>26.0</ele><time>2026-04-26T06:50:54.303Z</time></trkpt><trkpt lat="42.151705" lon="14.6486064"><ele>25.8</ele><time>2026-04-26T06:50:55.319Z</time></trkpt><trkpt lat="42.1515952" lon="14.6485042"><ele>25.6</ele><time>2026-04-26T06:50:57.308Z</time></trkpt><trkpt lat="42.1515149" lon="14.6484722"><ele>25.4</ele><time>2026-04-26T06:50:58.264Z</time></trkpt><trkpt lat="42.1514312" lon="14.648454"><ele>25.2</ele><time>2026-04-26T06:50:59.288Z</time></trkpt><trkpt lat="42.1513532" lon="14.6484449"><ele>25.0</ele><time>2026-04-26T06:51:00.288Z</time></trkpt><trkpt lat="42.1512725" lon="14.6484615"><ele>25.0</ele><time>2026-04-26T06:51:01.31Z</time></trkpt><trkpt lat="42.1511951" lon="14.6485061"><ele>25.0</ele><time>2026-04-26T06:51:02.294Z</time></trkpt><trkpt lat="42.1511013" lon="14.6485704"><ele>25.0</ele><time>2026-04-26T06:51:03.311Z</time></trkpt><trkpt lat="42.1509942" lon="14.648647"><ele>25.0</ele><time>2026-04-26T06:51:04.31Z</time></trkpt><trkpt lat="42.1508826" lon="14.6487291"><ele>25.0</ele><time>2026-04-26T06:51:05.317Z</time></trkpt><trkpt lat="42.1507614" lon="14.6488277"><ele>25.25</ele><time>2026-04-26T06:51:06.295Z</time></trkpt><trkpt lat="42.1506381" lon="14.6489384"><ele>25.5</ele><time>2026-04-26T06:51:07.302Z</time></trkpt><trkpt lat="42.1505286" lon="14.6490326"><ele>25.75</ele><time>2026-04-26T06:51:08.292Z</time></trkpt><trkpt lat="42.1504227" lon="14.6491187"><ele>26.0</ele><time>2026-04-26T06:51:09.284Z</time></trkpt><trkpt lat="42.1503229" lon="14.6492004"><ele>26.0</ele><time>2026-04-26T06:51:10.299Z</time></trkpt><trkpt lat="42.1502434" lon="14.6492652"><ele>26.0</ele><time>2026-04-26T06:51:11.241Z</time></trkpt><trkpt lat="42.1501858" lon="14.6493168"><ele>26.0</ele><time>2026-04-26T06:51:12.284Z</time></trkpt><trkpt lat="42.1501029" lon="14.6493466"><ele>26.0</ele><time>2026-04-26T06:51:14.281Z</time></trkpt><trkpt lat="42.1500769" lon="14.6492619"><ele>26.0</ele><time>2026-04-26T06:51:18.264Z</time></trkpt><trkpt lat="42.1502002" lon="14.6491815"><ele>26.0</ele><time>2026-04-26T06:51:20.356Z</time></trkpt><trkpt lat="42.1502936" lon="14.6491041"><ele>26.0</ele><time>2026-04-26T06:51:21.325Z</time></trkpt><trkpt lat="42.150397" lon="14.6490161"><ele>26.0</ele><time>2026-04-26T06:51:22.286Z</time></trkpt><trkpt lat="42.1505143" lon="14.6489192"><ele>26.0</ele><time>2026-04-26T06:51:23.265Z</time></trkpt><trkpt lat="42.1506464" lon="14.6488005"><ele>26.0</ele><time>2026-04-26T06:51:24.302Z</time></trkpt><trkpt lat="42.1507768" lon="14.6486762"><ele>26.0</ele><time>2026-04-26T06:51:25.286Z</time></trkpt><trkpt lat="42.1508986" lon="14.6485672"><ele>26.0</ele><time>2026-04-26T06:51:26.293Z</time></trkpt><trkpt lat="42.1510255" lon="14.6484651"><ele>25.75</ele><time>2026-04-26T06:51:27.314Z</time></trkpt><trkpt lat="42.1511479" lon="14.6483673"><ele>25.5</ele><time>2026-04-26T06:51:28.311Z</time></trkpt><trkpt lat="42.1512629" lon="14.6482741"><ele>25.25</ele><time>2026-04-26T06:51:29.288Z</time></trkpt><trkpt lat="42.1513734" lon="14.6481701"><ele>25.0</ele><time>2026-04-26T06:51:30.263Z</time></trkpt><trkpt lat="42.1514978" lon="14.6480504"><ele>24.75</ele><time>2026-04-26T06:51:31.277Z</time></trkpt><trkpt lat="42.1516142" lon="14.6479577"><ele>24.5</ele><time>2026-04-26T06:51:32.296Z</time></trkpt><trkpt lat="42.1517211" lon="14.6478692"><ele>24.25</ele><time>2026-04-26T06:51:33.281Z</time></trkpt><trkpt lat="42.1518282" lon="14.6477815"><ele>24.0</ele><time>2026-04-26T06:51:34.291Z</time></trkpt><trkpt lat="42.1519587" lon="14.6476894"><ele>23.666666666666668</ele><time>2026-04-26T06:51:35.272Z</time></trkpt><trkpt lat="42.1521076" lon="14.6475802"><ele>23.333333333333336</ele><time>2026-04-26T06:51:36.295Z</time></trkpt><trkpt lat="42.1522624" lon="14.6474634"><ele>23.0</ele><time>2026-04-26T06:51:37.288Z</time></trkpt><trkpt lat="42.1524182" lon="14.6473485"><ele>23.0</ele><time>2026-04-26T06:51:38.251Z</time></trkpt><trkpt lat="42.1525638" lon="14.647237"><ele>23.0</ele><time>2026-04-26T06:51:39.281Z</time></trkpt><trkpt lat="42.1526972" lon="14.6471355"><ele>23.0</ele><time>2026-04-26T06:51:40.295Z</time></trkpt><trkpt lat="42.1528224" lon="14.6470492"><ele>23.0</ele><time>2026-04-26T06:51:41.275Z</time></trkpt><trkpt lat="42.1529489" lon="14.6469717"><ele>23.0</ele><time>2026-04-26T06:51:42.271Z</time></trkpt><trkpt lat="42.1530752" lon="14.6468841"><ele>23.0</ele><time>2026-04-26T06:51:43.272Z</time></trkpt><trkpt lat="42.1532055" lon="14.6467869"><ele>23.0</ele><time>2026-04-26T06:51:44.292Z</time></trkpt><trkpt lat="42.1533246" lon="14.6466856"><ele>23.5</ele><time>2026-04-26T06:51:45.264Z</time></trkpt><trkpt lat="42.1534401" lon="14.6465989"><ele>24.0</ele><time>2026-04-26T06:51:46.289Z</time></trkpt><trkpt lat="42.1535542" lon="14.6465241"><ele>24.5</ele><time>2026-04-26T06:51:47.286Z</time></trkpt><trkpt lat="42.1536753" lon="14.6464623"><ele>25.0</ele><time>2026-04-26T06:51:48.308Z</time></trkpt><trkpt lat="42.1537972" lon="14.6464217"><ele>25.0</ele><time>2026-04-26T06:51:49.307Z</time></trkpt><trkpt lat="42.1539172" lon="14.6463957"><ele>25.0</ele><time>2026-04-26T06:51:50.286Z</time></trkpt><trkpt lat="42.1540448" lon="14.6463738"><ele>25.0</ele><time>2026-04-26T06:51:51.315Z</time></trkpt><trkpt lat="42.1541768" lon="14.6463571"><ele>25.0</ele><time>2026-04-26T06:51:52.303Z</time></trkpt><trkpt lat="42.1543098" lon="14.6463604"><ele>24.0</ele><time>2026-04-26T06:51:53.312Z</time></trkpt><trkpt lat="42.1544484" lon="14.6463662"><ele>23.0</ele><time>2026-04-26T06:51:54.294Z</time></trkpt><trkpt lat="42.1545914" lon="14.6463715"><ele>22.0</ele><time>2026-04-26T06:51:55.242Z</time></trkpt><trkpt lat="42.1547281" lon="14.6463716"><ele>21.0</ele><time>2026-04-26T06:51:56.244Z</time></trkpt><trkpt lat="42.1548529" lon="14.6463744"><ele>21.0</ele><time>2026-04-26T06:51:57.293Z</time></trkpt><trkpt lat="42.1549742" lon="14.6463804"><ele>21.0</ele><time>2026-04-26T06:51:58.277Z</time></trkpt><trkpt lat="42.1550969" lon="14.6463971"><ele>21.0</ele><time>2026-04-26T06:51:59.301Z</time></trkpt><trkpt lat="42.1552248" lon="14.6464215"><ele>21.0</ele><time>2026-04-26T06:52:00.298Z</time></trkpt><trkpt lat="42.1553385" lon="14.6464617"><ele>21.0</ele><time>2026-04-26T06:52:01.318Z</time></trkpt><trkpt lat="42.1554542" lon="14.6465078"><ele>21.0</ele><time>2026-04-26T06:52:02.286Z</time></trkpt><trkpt lat="42.1555669" lon="14.6465717"><ele>21.0</ele><time>2026-04-26T06:52:03.314Z</time></trkpt><trkpt lat="42.1556736" lon="14.6466466"><ele>21.0</ele><time>2026-04-26T06:52:04.287Z</time></trkpt><trkpt lat="42.155774" lon="14.6467334"><ele>21.5</ele><time>2026-04-26T06:52:05.294Z</time></trkpt><trkpt lat="42.1558736" lon="14.6468276"><ele>22.0</ele><time>2026-04-26T06:52:06.271Z</time></trkpt><trkpt lat="42.1559749" lon="14.6469401"><ele>22.5</ele><time>2026-04-26T06:52:07.296Z</time></trkpt><trkpt lat="42.156077" lon="14.6470445"><ele>23.0</ele><time>2026-04-26T06:52:08.315Z</time></trkpt><trkpt lat="42.1561859" lon="14.6471436"><ele>23.0</ele><time>2026-04-26T06:52:09.31Z</time></trkpt><trkpt lat="42.1563013" lon="14.6472245"><ele>23.0</ele><time>2026-04-26T06:52:10.295Z</time></trkpt><trkpt lat="42.1564148" lon="14.6473076"><ele>23.0</ele><time>2026-04-26T06:52:11.315Z</time></trkpt><trkpt lat="42.1565183" lon="14.6473844"><ele>23.0</ele><time>2026-04-26T06:52:12.303Z</time></trkpt><trkpt lat="42.156634" lon="14.6474577"><ele>23.0</ele><time>2026-04-26T06:52:13.288Z</time></trkpt><trkpt lat="42.1567513" lon="14.6475199"><ele>23.0</ele><time>2026-04-26T06:52:14.258Z</time></trkpt><trkpt lat="42.1568745" lon="14.6475755"><ele>23.0</ele><time>2026-04-26T06:52:15.311Z</time></trkpt><trkpt lat="42.1569967" lon="14.6476268"><ele>23.0</ele><time>2026-04-26T06:52:16.326Z</time></trkpt><trkpt lat="42.1571221" lon="14.647675"><ele>23.0</ele><time>2026-04-26T06:52:17.309Z</time></trkpt><trkpt lat="42.1572513" lon="14.6477163"><ele>23.0</ele><time>2026-04-26T06:52:18.303Z</time></trkpt><trkpt lat="42.1573875" lon="14.647755"><ele>23.0</ele><time>2026-04-26T06:52:19.245Z</time></trkpt><trkpt lat="42.1575248" lon="14.6477961"><ele>23.0</ele><time>2026-04-26T06:52:20.297Z</time></trkpt><trkpt lat="42.15766" lon="14.6478438"><ele>23.25</ele><time>2026-04-26T06:52:21.318Z</time></trkpt><trkpt lat="42.1577934" lon="14.6478914"><ele>23.5</ele><time>2026-04-26T06:52:22.306Z</time></trkpt><trkpt lat="42.1579211" lon="14.6479344"><ele>23.75</ele><time>2026-04-26T06:52:23.327Z</time></trkpt><trkpt lat="42.1580442" lon="14.6479795"><ele>24.0</ele><time>2026-04-26T06:52:24.298Z</time></trkpt><trkpt lat="42.1581728" lon="14.6480209"><ele>23.25</ele><time>2026-04-26T06:52:25.295Z</time></trkpt><trkpt lat="42.1583022" lon="14.648057"><ele>22.5</ele><time>2026-04-26T06:52:26.243Z</time></trkpt><trkpt lat="42.1584324" lon="14.6480981"><ele>21.75</ele><time>2026-04-26T06:52:27.326Z</time></trkpt><trkpt lat="42.1585557" lon="14.648139"><ele>21.0</ele><time>2026-04-26T06:52:28.324Z</time></trkpt><trkpt lat="42.1586847" lon="14.6481712"><ele>21.0</ele><time>2026-04-26T06:52:29.297Z</time></trkpt><trkpt lat="42.1588145" lon="14.6481938"><ele>21.0</ele><time>2026-04-26T06:52:30.302Z</time></trkpt><trkpt lat="42.1589444" lon="14.6482109"><ele>21.0</ele><time>2026-04-26T06:52:31.307Z</time></trkpt><trkpt lat="42.1590745" lon="14.648216"><ele>21.0</ele><time>2026-04-26T06:52:32.297Z</time></trkpt><trkpt lat="42.1592001" lon="14.6482088"><ele>20.5</ele><time>2026-04-26T06:52:33.281Z</time></trkpt><trkpt lat="42.1593278" lon="14.6481975"><ele>20.0</ele><time>2026-04-26T06:52:34.294Z</time></trkpt><trkpt lat="42.1594519" lon="14.6481868"><ele>19.5</ele><time>2026-04-26T06:52:35.296Z</time></trkpt><trkpt lat="42.15958" lon="14.6481725"><ele>19.0</ele><time>2026-04-26T06:52:36.291Z</time></trkpt><trkpt lat="42.1597113" lon="14.6481605"><ele>19.0</ele><time>2026-04-26T06:52:37.299Z</time></trkpt><trkpt lat="42.1598434" lon="14.64815"><ele>19.0</ele><time>2026-04-26T06:52:38.317Z</time></trkpt><trkpt lat="42.1599739" lon="14.6481387"><ele>19.0</ele><time>2026-04-26T06:52:39.308Z</time></trkpt><trkpt lat="42.1601053" lon="14.6481188"><ele>19.0</ele><time>2026-04-26T06:52:40.323Z</time></trkpt><trkpt lat="42.1602339" lon="14.6481049"><ele>19.25</ele><time>2026-04-26T06:52:41.307Z</time></trkpt><trkpt lat="42.1603629" lon="14.6480893"><ele>19.5</ele><time>2026-04-26T06:52:42.317Z</time></trkpt><trkpt lat="42.1604924" lon="14.6480781"><ele>19.75</ele><time>2026-04-26T06:52:43.244Z</time></trkpt><trkpt lat="42.1606246" lon="14.6480642"><ele>20.0</ele><time>2026-04-26T06:52:44.301Z</time></trkpt><trkpt lat="42.1607539" lon="14.6480524"><ele>19.5</ele><time>2026-04-26T06:52:45.318Z</time></trkpt><trkpt lat="42.1608806" lon="14.648044"><ele>19.0</ele><time>2026-04-26T06:52:46.249Z</time></trkpt><trkpt lat="42.1610069" lon="14.6480345"><ele>18.5</ele><time>2026-04-26T06:52:47.323Z</time></trkpt><trkpt lat="42.1611379" lon="14.6480234"><ele>18.0</ele><time>2026-04-26T06:52:48.303Z</time></trkpt><trkpt lat="42.1612634" lon="14.6480137"><ele>18.0</ele><time>2026-04-26T06:52:49.288Z</time></trkpt><trkpt lat="42.1613884" lon="14.6480032"><ele>18.0</ele><time>2026-04-26T06:52:50.284Z</time></trkpt><trkpt lat="42.1615146" lon="14.6479966"><ele>18.0</ele><time>2026-04-26T06:52:51.302Z</time></trkpt><trkpt lat="42.1616345" lon="14.6479944"><ele>18.0</ele><time>2026-04-26T06:52:52.307Z</time></trkpt><trkpt lat="42.1617422" lon="14.6479922"><ele>18.166666666666668</ele><time>2026-04-26T06:52:53.306Z</time></trkpt><trkpt lat="42.1618407" lon="14.6479819"><ele>18.333333333333332</ele><time>2026-04-26T06:52:54.303Z</time></trkpt><trkpt lat="42.1619265" lon="14.6479776"><ele>18.5</ele><time>2026-04-26T06:52:55.305Z</time></trkpt><trkpt lat="42.1620102" lon="14.6479805"><ele>18.666666666666664</ele><time>2026-04-26T06:52:56.277Z</time></trkpt><trkpt lat="42.1620998" lon="14.6479825"><ele>18.833333333333332</ele><time>2026-04-26T06:52:57.297Z</time></trkpt><trkpt lat="42.162186" lon="14.647994"><ele>19.0</ele><time>2026-04-26T06:52:58.304Z</time></trkpt><trkpt lat="42.1622636" lon="14.648009"><ele>19.0</ele><time>2026-04-26T06:52:59.245Z</time></trkpt><trkpt lat="42.1623356" lon="14.648022"><ele>19.0</ele><time>2026-04-26T06:53:00.305Z</time></trkpt><trkpt lat="42.162436" lon="14.6480054"><ele>19.0</ele><time>2026-04-26T06:53:02.305Z</time></trkpt><trkpt lat="42.1624762" lon="14.6479"><ele>19.0</ele><time>2026-04-26T06:53:04.266Z</time></trkpt><trkpt lat="42.1624878" lon="14.64773"><ele>19.0</ele><time>2026-04-26T06:53:06.251Z</time></trkpt><trkpt lat="42.1625028" lon="14.6476391"><ele>19.2</ele><time>2026-04-26T06:53:07.304Z</time></trkpt><trkpt lat="42.1625218" lon="14.6475563"><ele>19.4</ele><time>2026-04-26T06:53:08.305Z</time></trkpt><trkpt lat="42.1625454" lon="14.6474101"><ele>19.6</ele><time>2026-04-26T06:53:10.288Z</time></trkpt><trkpt lat="42.1625714" lon="14.6472481"><ele>19.8</ele><time>2026-04-26T06:53:12.329Z</time></trkpt><trkpt lat="42.1626037" lon="14.6470932"><ele>20.0</ele><time>2026-04-26T06:53:14.329Z</time></trkpt><trkpt lat="42.1626306" lon="14.6470049"><ele>19.5</ele><time>2026-04-26T06:53:15.254Z</time></trkpt><trkpt lat="42.1626547" lon="14.6469261"><ele>19.0</ele><time>2026-04-26T06:53:16.324Z</time></trkpt><trkpt lat="42.1626732" lon="14.6468215"><ele>18.5</ele><time>2026-04-26T06:53:18.268Z</time></trkpt><trkpt lat="42.1626749" lon="14.6467332"><ele>18.0</ele><time>2026-04-26T06:53:20.294Z</time></trkpt><trkpt lat="42.1626759" lon="14.6466376"><ele>17.5</ele><time>2026-04-26T06:53:22.298Z</time></trkpt><trkpt lat="42.1626734" lon="14.6465178"><ele>17.0</ele><time>2026-04-26T06:53:24.307Z</time></trkpt><trkpt lat="42.1626807" lon="14.6463881"><ele>17.0</ele><time>2026-04-26T06:53:27.272Z</time></trkpt><trkpt lat="42.1627031" lon="14.6462932"><ele>17.0</ele><time>2026-04-26T06:53:30.288Z</time></trkpt><trkpt lat="42.1627877" lon="14.6462808"><ele>17.0</ele><time>2026-04-26T06:53:33.281Z</time></trkpt><trkpt lat="42.1628548" lon="14.6462885"><ele>17.0</ele><time>2026-04-26T06:53:36.305Z</time></trkpt><trkpt lat="42.1629274" lon="14.6462768"><ele>17.0</ele><time>2026-04-26T06:53:38.291Z</time></trkpt><trkpt lat="42.1630064" lon="14.6463095"><ele>17.0</ele><time>2026-04-26T06:53:41.283Z</time></trkpt><trkpt lat="42.1630791" lon="14.6462835"><ele>17.0</ele><time>2026-04-26T06:53:44.302Z</time></trkpt><trkpt lat="42.1631082" lon="14.6461919"><ele>17.0</ele><time>2026-04-26T06:53:46.25Z</time></trkpt><trkpt lat="42.16313" lon="14.6460938"><ele>17.0</ele><time>2026-04-26T06:53:48.277Z</time></trkpt><trkpt lat="42.1631351" lon="14.6459557"><ele>17.0</ele><time>2026-04-26T06:53:50.297Z</time></trkpt><trkpt lat="42.163096" lon="14.6458272"><ele>17.0</ele><time>2026-04-26T06:53:52.319Z</time></trkpt><trkpt lat="42.1630639" lon="14.645689"><ele>17.0</ele><time>2026-04-26T06:53:54.293Z</time></trkpt><trkpt lat="42.1630638" lon="14.6455459"><ele>17.0</ele><time>2026-04-26T06:53:56.307Z</time></trkpt><trkpt lat="42.1630748" lon="14.6454058"><ele>17.0</ele><time>2026-04-26T06:53:58.296Z</time></trkpt><trkpt lat="42.1630797" lon="14.645302"><ele>17.0</ele><time>2026-04-26T06:54:00.266Z</time></trkpt><trkpt lat="42.1631309" lon="14.6451885"><ele>17.0</ele><time>2026-04-26T06:54:03.291Z</time></trkpt><trkpt lat="42.1632146" lon="14.6451539"><ele>17.0</ele><time>2026-04-26T06:54:05.275Z</time></trkpt><trkpt lat="42.1633199" lon="14.6451244"><ele>17.0</ele><time>2026-04-26T06:54:07.25Z</time></trkpt><trkpt lat="42.1633732" lon="14.6450763"><ele>17.0</ele><time>2026-04-26T06:54:08.268Z</time></trkpt><trkpt lat="42.1634289" lon="14.6450231"><ele>17.0</ele><time>2026-04-26T06:54:09.297Z</time></trkpt><trkpt lat="42.1634873" lon="14.6449581"><ele>17.0</ele><time>2026-04-26T06:54:10.301Z</time></trkpt><trkpt lat="42.1635504" lon="14.6449003"><ele>17.0</ele><time>2026-04-26T06:54:11.298Z</time></trkpt><trkpt lat="42.1636166" lon="14.6448564"><ele>17.0</ele><time>2026-04-26T06:54:12.282Z</time></trkpt><trkpt lat="42.1636763" lon="14.6448258"><ele>17.0</ele><time>2026-04-26T06:54:13.298Z</time></trkpt><trkpt lat="42.1637785" lon="14.6447843"><ele>17.0</ele><time>2026-04-26T06:54:15.275Z</time></trkpt><trkpt lat="42.1638736" lon="14.6447541"><ele>17.0</ele><time>2026-04-26T06:54:17.262Z</time></trkpt><trkpt lat="42.1639401" lon="14.6447119"><ele>17.0</ele><time>2026-04-26T06:54:20.257Z</time></trkpt><trkpt lat="42.1639719" lon="14.6445727"><ele>17.0</ele><time>2026-04-26T06:54:22.291Z</time></trkpt><trkpt lat="42.1639751" lon="14.6444569"><ele>17.0</ele><time>2026-04-26T06:54:23.308Z</time></trkpt><trkpt lat="42.1639691" lon="14.6443244"><ele>17.0</ele><time>2026-04-26T06:54:24.286Z</time></trkpt><trkpt lat="42.163968" lon="14.6441734"><ele>17.0</ele><time>2026-04-26T06:54:25.285Z</time></trkpt><trkpt lat="42.1639631" lon="14.6440079"><ele>17.0</ele><time>2026-04-26T06:54:26.238Z</time></trkpt><trkpt lat="42.1639598" lon="14.6438041"><ele>18.0</ele><time>2026-04-26T06:54:27.299Z</time></trkpt><trkpt lat="42.1639521" lon="14.6435908"><ele>19.0</ele><time>2026-04-26T06:54:28.293Z</time></trkpt><trkpt lat="42.1639446" lon="14.6433705"><ele>20.0</ele><time>2026-04-26T06:54:29.273Z</time></trkpt><trkpt lat="42.1639382" lon="14.6431402"><ele>20.0</ele><time>2026-04-26T06:54:30.31Z</time></trkpt><trkpt lat="42.1639326" lon="14.6428982"><ele>20.0</ele><time>2026-04-26T06:54:31.295Z</time></trkpt><trkpt lat="42.1639295" lon="14.6426598"><ele>20.0</ele><time>2026-04-26T06:54:32.289Z</time></trkpt><trkpt lat="42.1639251" lon="14.6424235"><ele>20.0</ele><time>2026-04-26T06:54:33.303Z</time></trkpt><trkpt lat="42.1639244" lon="14.6422057"><ele>20.0</ele><time>2026-04-26T06:54:34.281Z</time></trkpt><trkpt lat="42.1639303" lon="14.6420079"><ele>20.0</ele><time>2026-04-26T06:54:35.294Z</time></trkpt><trkpt lat="42.1639398" lon="14.6418276"><ele>20.0</ele><time>2026-04-26T06:54:36.297Z</time></trkpt><trkpt lat="42.1639572" lon="14.6416564"><ele>20.0</ele><time>2026-04-26T06:54:37.295Z</time></trkpt><trkpt lat="42.1639909" lon="14.64151"><ele>20.0</ele><time>2026-04-26T06:54:38.296Z</time></trkpt><trkpt lat="42.1640454" lon="14.6413775"><ele>20.0</ele><time>2026-04-26T06:54:39.309Z</time></trkpt><trkpt lat="42.1641111" lon="14.6412596"><ele>20.0</ele><time>2026-04-26T06:54:40.299Z</time></trkpt><trkpt lat="42.1641898" lon="14.6411511"><ele>20.0</ele><time>2026-04-26T06:54:41.321Z</time></trkpt><trkpt lat="42.1642609" lon="14.6410472"><ele>20.0</ele><time>2026-04-26T06:54:42.3Z</time></trkpt><trkpt lat="42.1642941" lon="14.6409413"><ele>20.0</ele><time>2026-04-26T06:54:43.309Z</time></trkpt><trkpt lat="42.1643024" lon="14.6408373"><ele>20.0</ele><time>2026-04-26T06:54:44.298Z</time></trkpt><trkpt lat="42.1642743" lon="14.6407524"><ele>20.0</ele><time>2026-04-26T06:54:45.297Z</time></trkpt><trkpt lat="42.1642237" lon="14.6406728"><ele>20.0</ele><time>2026-04-26T06:54:46.279Z</time></trkpt><trkpt lat="42.1641622" lon="14.6406045"><ele>20.0</ele><time>2026-04-26T06:54:47.306Z</time></trkpt><trkpt lat="42.1640873" lon="14.6405626"><ele>19.6</ele><time>2026-04-26T06:54:48.258Z</time></trkpt><trkpt lat="42.1640007" lon="14.6405511"><ele>19.2</ele><time>2026-04-26T06:54:49.448Z</time></trkpt><trkpt lat="42.1638333" lon="14.6405534"><ele>18.8</ele><time>2026-04-26T06:54:51.266Z</time></trkpt><trkpt lat="42.1637651" lon="14.6405355"><ele>18.4</ele><time>2026-04-26T06:54:52.295Z</time></trkpt><trkpt lat="42.1637037" lon="14.6404869"><ele>18.0</ele><time>2026-04-26T06:54:53.311Z</time></trkpt><trkpt lat="42.1636512" lon="14.6404202"><ele>18.0</ele><time>2026-04-26T06:54:54.296Z</time></trkpt><trkpt lat="42.1636054" lon="14.6403392"><ele>18.0</ele><time>2026-04-26T06:54:55.296Z</time></trkpt><trkpt lat="42.1635603" lon="14.6402438"><ele>18.0</ele><time>2026-04-26T06:54:56.294Z</time></trkpt><trkpt lat="42.1635182" lon="14.6401581"><ele>18.0</ele><time>2026-04-26T06:54:57.294Z</time></trkpt><trkpt lat="42.163463" lon="14.6401081"><ele>18.0</ele><time>2026-04-26T06:54:58.294Z</time></trkpt><trkpt lat="42.1633903" lon="14.6400916"><ele>18.0</ele><time>2026-04-26T06:54:59.299Z</time></trkpt><trkpt lat="42.1633151" lon="14.6400994"><ele>18.4</ele><time>2026-04-26T06:55:00.298Z</time></trkpt><trkpt lat="42.16324" lon="14.6401161"><ele>18.8</ele><time>2026-04-26T06:55:01.309Z</time></trkpt><trkpt lat="42.1631569" lon="14.6401429"><ele>19.2</ele><time>2026-04-26T06:55:02.291Z</time></trkpt><trkpt lat="42.1630662" lon="14.6401374"><ele>19.6</ele><time>2026-04-26T06:55:03.269Z</time></trkpt><trkpt lat="42.1629676" lon="14.6400942"><ele>20.0</ele><time>2026-04-26T06:55:04.316Z</time></trkpt><trkpt lat="42.162864" lon="14.6400312"><ele>20.25</ele><time>2026-04-26T06:55:05.282Z</time></trkpt><trkpt lat="42.162744" lon="14.6399659"><ele>20.5</ele><time>2026-04-26T06:55:06.305Z</time></trkpt><trkpt lat="42.1626102" lon="14.6398997"><ele>20.75</ele><time>2026-04-26T06:55:07.311Z</time></trkpt><trkpt lat="42.1624611" lon="14.639836"><ele>21.0</ele><time>2026-04-26T06:55:08.311Z</time></trkpt><trkpt lat="42.1623048" lon="14.6397626"><ele>21.333333333333332</ele><time>2026-04-26T06:55:09.321Z</time></trkpt><trkpt lat="42.162132" lon="14.6396854"><ele>21.666666666666664</ele><time>2026-04-26T06:55:10.3Z</time></trkpt><trkpt lat="42.1619484" lon="14.6395983"><ele>22.0</ele><time>2026-04-26T06:55:11.367Z</time></trkpt><trkpt lat="42.1615554" lon="14.6394185"><ele>24.0</ele><time>2026-04-26T06:55:13.258Z</time></trkpt><trkpt lat="42.1613541" lon="14.6393188"><ele>26.0</ele><time>2026-04-26T06:55:14.256Z</time></trkpt><trkpt lat="42.1611653" lon="14.6392258"><ele>28.0</ele><time>2026-04-26T06:55:15.262Z</time></trkpt><trkpt lat="42.1609898" lon="14.6391397"><ele>28.0</ele><time>2026-04-26T06:55:16.287Z</time></trkpt><trkpt lat="42.1608173" lon="14.639068"><ele>28.0</ele><time>2026-04-26T06:55:17.283Z</time></trkpt><trkpt lat="42.1606685" lon="14.6390101"><ele>28.0</ele><time>2026-04-26T06:55:18.256Z</time></trkpt><trkpt lat="42.1605377" lon="14.6389451"><ele>28.5</ele><time>2026-04-26T06:55:19.277Z</time></trkpt><trkpt lat="42.1604101" lon="14.6388777"><ele>29.0</ele><time>2026-04-26T06:55:20.284Z</time></trkpt><trkpt lat="42.160277" lon="14.6388162"><ele>29.5</ele><time>2026-04-26T06:55:21.303Z</time></trkpt><trkpt lat="42.1601449" lon="14.6387509"><ele>30.0</ele><time>2026-04-26T06:55:22.283Z</time></trkpt><trkpt lat="42.1600258" lon="14.6386908"><ele>30.4</ele><time>2026-04-26T06:55:23.285Z</time></trkpt><trkpt lat="42.1599145" lon="14.6386344"><ele>30.8</ele><time>2026-04-26T06:55:24.279Z</time></trkpt><trkpt lat="42.1598183" lon="14.6385677"><ele>31.200000000000003</ele><time>2026-04-26T06:55:25.291Z</time></trkpt><trkpt lat="42.1597417" lon="14.6384911"><ele>31.6</ele><time>2026-04-26T06:55:26.259Z</time></trkpt><trkpt lat="42.1596224" lon="14.6384684"><ele>32.0</ele><time>2026-04-26T06:55:28.305Z</time></trkpt><trkpt lat="42.1595089" lon="14.6384298"><ele>31.200000000000003</ele><time>2026-04-26T06:55:30.288Z</time></trkpt><trkpt lat="42.1593961" lon="14.6383564"><ele>30.400000000000002</ele><time>2026-04-26T06:55:32.306Z</time></trkpt><trkpt lat="42.1593459" lon="14.6382858"><ele>29.599999999999998</ele><time>2026-04-26T06:55:34.302Z</time></trkpt><trkpt lat="42.1594367" lon="14.6382213"><ele>28.799999999999997</ele><time>2026-04-26T06:55:37.299Z</time></trkpt><trkpt lat="42.1595258" lon="14.6382271"><ele>28.0</ele><time>2026-04-26T06:55:38.277Z</time></trkpt><trkpt lat="42.1596287" lon="14.6382342"><ele>28.0</ele><time>2026-04-26T06:55:39.314Z</time></trkpt><trkpt lat="42.159711" lon="14.6382536"><ele>27.999999999999996</ele><time>2026-04-26T06:55:40.297Z</time></trkpt><trkpt lat="42.1598099" lon="14.6382078"><ele>27.999999999999996</ele><time>2026-04-26T06:55:42.273Z</time></trkpt><trkpt lat="42.159861" lon="14.6381038"><ele>28.0</ele><time>2026-04-26T06:55:43.297Z</time></trkpt><trkpt lat="42.1599185" lon="14.637972"><ele>28.0</ele><time>2026-04-26T06:55:44.252Z</time></trkpt><trkpt lat="42.160006" lon="14.6377981"><ele>29.666666666666668</ele><time>2026-04-26T06:55:45.302Z</time></trkpt><trkpt lat="42.1601293" lon="14.6375722"><ele>31.333333333333336</ele><time>2026-04-26T06:55:46.254Z</time></trkpt><trkpt lat="42.1602509" lon="14.6373276"><ele>33.0</ele><time>2026-04-26T06:55:47.279Z</time></trkpt><trkpt lat="42.1603713" lon="14.6371061"><ele>32.6</ele><time>2026-04-26T06:55:48.253Z</time></trkpt><trkpt lat="42.160458" lon="14.6369387"><ele>32.199999999999996</ele><time>2026-04-26T06:55:49.296Z</time></trkpt><trkpt lat="42.1605337" lon="14.6368021"><ele>31.8</ele><time>2026-04-26T06:55:50.279Z</time></trkpt><trkpt lat="42.160579" lon="14.6367116"><ele>31.4</ele><time>2026-04-26T06:55:51.283Z</time></trkpt><trkpt lat="42.1605903" lon="14.6366278"><ele>31.0</ele><time>2026-04-26T06:55:52.286Z</time></trkpt><trkpt lat="42.1605839" lon="14.6365071"><ele>31.000000000000004</ele><time>2026-04-26T06:55:53.286Z</time></trkpt><trkpt lat="42.1605693" lon="14.6363819"><ele>31.0</ele><time>2026-04-26T06:55:54.268Z</time></trkpt><trkpt lat="42.1605643" lon="14.636286"><ele>31.0</ele><time>2026-04-26T06:55:55.301Z</time></trkpt><trkpt lat="42.1604923" lon="14.6362242"><ele>31.0</ele><time>2026-04-26T06:56:03.252Z</time></trkpt><trkpt lat="42.1604186" lon="14.6362099"><ele>31.000000000000004</ele><time>2026-04-26T06:56:05.307Z</time></trkpt><trkpt lat="42.1603553" lon="14.6361485"><ele>31.0</ele><time>2026-04-26T06:56:06.244Z</time></trkpt><trkpt lat="42.1602715" lon="14.6360623"><ele>31.200000000000003</ele><time>2026-04-26T06:56:07.264Z</time></trkpt><trkpt lat="42.1601957" lon="14.636"><ele>31.400000000000002</ele><time>2026-04-26T06:56:08.276Z</time></trkpt><trkpt lat="42.1601221" lon="14.6359104"><ele>31.6</ele><time>2026-04-26T06:56:09.282Z</time></trkpt><trkpt lat="42.1600494" lon="14.6358016"><ele>31.8</ele><time>2026-04-26T06:56:10.257Z</time></trkpt><trkpt lat="42.1599639" lon="14.6356721"><ele>32.0</ele><time>2026-04-26T06:56:11.281Z</time></trkpt><trkpt lat="42.1598623" lon="14.6355312"><ele>31.25</ele><time>2026-04-26T06:56:12.298Z</time></trkpt><trkpt lat="42.159744" lon="14.635395"><ele>30.5</ele><time>2026-04-26T06:56:13.286Z</time></trkpt><trkpt lat="42.1596364" lon="14.6352626"><ele>29.75</ele><time>2026-04-26T06:56:14.287Z</time></trkpt><trkpt lat="42.1595453" lon="14.6351181"><ele>29.0</ele><time>2026-04-26T06:56:15.261Z</time></trkpt><trkpt lat="42.1594495" lon="14.6349507"><ele>29.0</ele><time>2026-04-26T06:56:16.426Z</time></trkpt><trkpt lat="42.1592526" lon="14.634637"><ele>29.0</ele><time>2026-04-26T06:56:18.26Z</time></trkpt><trkpt lat="42.1591597" lon="14.6345026"><ele>29.0</ele><time>2026-04-26T06:56:19.286Z</time></trkpt><trkpt lat="42.1590697" lon="14.634376"><ele>29.0</ele><time>2026-04-26T06:56:20.351Z</time></trkpt><trkpt lat="42.1589986" lon="14.6342592"><ele>29.0</ele><time>2026-04-26T06:56:21.293Z</time></trkpt><trkpt lat="42.1589334" lon="14.6341486"><ele>29.0</ele><time>2026-04-26T06:56:22.323Z</time></trkpt><trkpt lat="42.1589056" lon="14.6340243"><ele>29.0</ele><time>2026-04-26T06:56:23.251Z</time></trkpt><trkpt lat="42.158918" lon="14.6338751"><ele>29.0</ele><time>2026-04-26T06:56:24.3Z</time></trkpt><trkpt lat="42.1589413" lon="14.6336924"><ele>29.5</ele><time>2026-04-26T06:56:25.273Z</time></trkpt><trkpt lat="42.1589391" lon="14.6335213"><ele>30.0</ele><time>2026-04-26T06:56:26.3Z</time></trkpt><trkpt lat="42.1589176" lon="14.6333612"><ele>30.5</ele><time>2026-04-26T06:56:27.366Z</time></trkpt><trkpt lat="42.1588872" lon="14.6332019"><ele>31.0</ele><time>2026-04-26T06:56:28.295Z</time></trkpt><trkpt lat="42.1588444" lon="14.633036"><ele>31.0</ele><time>2026-04-26T06:56:29.312Z</time></trkpt><trkpt lat="42.1587965" lon="14.6328646"><ele>31.0</ele><time>2026-04-26T06:56:30.264Z</time></trkpt><trkpt lat="42.1587509" lon="14.6326863"><ele>31.0</ele><time>2026-04-26T06:56:31.267Z</time></trkpt><trkpt lat="42.1587111" lon="14.6325108"><ele>31.0</ele><time>2026-04-26T06:56:32.284Z</time></trkpt><trkpt lat="42.1586718" lon="14.6323248"><ele>31.25</ele><time>2026-04-26T06:56:33.287Z</time></trkpt><trkpt lat="42.1586286" lon="14.6321444"><ele>31.5</ele><time>2026-04-26T06:56:34.262Z</time></trkpt><trkpt lat="42.158579" lon="14.6319624"><ele>31.75</ele><time>2026-04-26T06:56:35.303Z</time></trkpt><trkpt lat="42.1585267" lon="14.6317734"><ele>32.0</ele><time>2026-04-26T06:56:36.373Z</time></trkpt><trkpt lat="42.1584844" lon="14.6315831"><ele>33.33333333333333</ele><time>2026-04-26T06:56:37.304Z</time></trkpt><trkpt lat="42.1584421" lon="14.6313916"><ele>34.666666666666664</ele><time>2026-04-26T06:56:38.3Z</time></trkpt><trkpt lat="42.158398" lon="14.6311952"><ele>36.0</ele><time>2026-04-26T06:56:39.3Z</time></trkpt><trkpt lat="42.1583468" lon="14.6309943"><ele>35.75</ele><time>2026-04-26T06:56:40.314Z</time></trkpt><trkpt lat="42.1582965" lon="14.6307961"><ele>35.5</ele><time>2026-04-26T06:56:41.289Z</time></trkpt><trkpt lat="42.1582533" lon="14.6306027"><ele>35.25</ele><time>2026-04-26T06:56:42.291Z</time></trkpt><trkpt lat="42.1582076" lon="14.6304269"><ele>35.0</ele><time>2026-04-26T06:56:43.299Z</time></trkpt><trkpt lat="42.1581568" lon="14.6302644"><ele>35.0</ele><time>2026-04-26T06:56:44.288Z</time></trkpt><trkpt lat="42.1580902" lon="14.6301177"><ele>35.0</ele><time>2026-04-26T06:56:45.303Z</time></trkpt><trkpt lat="42.1580123" lon="14.6299851"><ele>35.0</ele><time>2026-04-26T06:56:46.274Z</time></trkpt><trkpt lat="42.1579221" lon="14.6298582"><ele>35.0</ele><time>2026-04-26T06:56:47.315Z</time></trkpt><trkpt lat="42.1578325" lon="14.6297232"><ele>35.0</ele><time>2026-04-26T06:56:48.27Z</time></trkpt><trkpt lat="42.1577465" lon="14.6295988"><ele>35.0</ele><time>2026-04-26T06:56:49.289Z</time></trkpt><trkpt lat="42.1576676" lon="14.6294895"><ele>35.0</ele><time>2026-04-26T06:56:50.244Z</time></trkpt><trkpt lat="42.1576037" lon="14.6293801"><ele>35.0</ele><time>2026-04-26T06:56:51.291Z</time></trkpt><trkpt lat="42.1575555" lon="14.6292715"><ele>35.0</ele><time>2026-04-26T06:56:52.288Z</time></trkpt><trkpt lat="42.1575072" lon="14.629146"><ele>35.25</ele><time>2026-04-26T06:56:53.253Z</time></trkpt><trkpt lat="42.157463" lon="14.628998"><ele>35.5</ele><time>2026-04-26T06:56:54.313Z</time></trkpt><trkpt lat="42.1574154" lon="14.6288375"><ele>35.75</ele><time>2026-04-26T06:56:55.319Z</time></trkpt><trkpt lat="42.1573612" lon="14.6286581"><ele>36.0</ele><time>2026-04-26T06:56:56.307Z</time></trkpt><trkpt lat="42.1573081" lon="14.6284674"><ele>36.333333333333336</ele><time>2026-04-26T06:56:57.3Z</time></trkpt><trkpt lat="42.1572503" lon="14.628268"><ele>36.66666666666667</ele><time>2026-04-26T06:56:58.25Z</time></trkpt><trkpt lat="42.1571933" lon="14.6280589"><ele>37.0</ele><time>2026-04-26T06:56:59.295Z</time></trkpt><trkpt lat="42.1571345" lon="14.6278467"><ele>37.25</ele><time>2026-04-26T06:57:00.301Z</time></trkpt><trkpt lat="42.1570769" lon="14.6276526"><ele>37.5</ele><time>2026-04-26T06:57:01.288Z</time></trkpt><trkpt lat="42.1570245" lon="14.6274759"><ele>37.75</ele><time>2026-04-26T06:57:02.301Z</time></trkpt><trkpt lat="42.1569779" lon="14.6273204"><ele>38.0</ele><time>2026-04-26T06:57:03.321Z</time></trkpt><trkpt lat="42.1569423" lon="14.6271734"><ele>38.0</ele><time>2026-04-26T06:57:04.288Z</time></trkpt><trkpt lat="42.1569024" lon="14.6270438"><ele>38.0</ele><time>2026-04-26T06:57:05.301Z</time></trkpt><trkpt lat="42.1568543" lon="14.626929"><ele>38.0</ele><time>2026-04-26T06:57:06.311Z</time></trkpt><trkpt lat="42.1567867" lon="14.6268189"><ele>38.0</ele><time>2026-04-26T06:57:07.292Z</time></trkpt><trkpt lat="42.1567181" lon="14.6267028"><ele>38.0</ele><time>2026-04-26T06:57:08.293Z</time></trkpt><trkpt lat="42.1566488" lon="14.6265915"><ele>38.25</ele><time>2026-04-26T06:57:09.245Z</time></trkpt><trkpt lat="42.1565743" lon="14.6264763"><ele>38.5</ele><time>2026-04-26T06:57:10.263Z</time></trkpt><trkpt lat="42.1564925" lon="14.6263637"><ele>38.75</ele><time>2026-04-26T06:57:11.3Z</time></trkpt><trkpt lat="42.1564098" lon="14.6262535"><ele>39.0</ele><time>2026-04-26T06:57:12.281Z</time></trkpt><trkpt lat="42.1563294" lon="14.6261432"><ele>39.0</ele><time>2026-04-26T06:57:13.302Z</time></trkpt><trkpt lat="42.1562589" lon="14.6260254"><ele>39.0</ele><time>2026-04-26T06:57:14.283Z</time></trkpt><trkpt lat="42.1561951" lon="14.625912"><ele>39.0</ele><time>2026-04-26T06:57:15.286Z</time></trkpt><trkpt lat="42.1561424" lon="14.625805"><ele>39.0</ele><time>2026-04-26T06:57:16.291Z</time></trkpt><trkpt lat="42.1560868" lon="14.6257083"><ele>39.0</ele><time>2026-04-26T06:57:17.266Z</time></trkpt><trkpt lat="42.1560181" lon="14.6256402"><ele>39.0</ele><time>2026-04-26T06:57:18.3Z</time></trkpt><trkpt lat="42.1559309" lon="14.6255668"><ele>39.0</ele><time>2026-04-26T06:57:19.304Z</time></trkpt><trkpt lat="42.1558215" lon="14.6254668"><ele>39.0</ele><time>2026-04-26T06:57:20.272Z</time></trkpt><trkpt lat="42.1556987" lon="14.6253579"><ele>39.0</ele><time>2026-04-26T06:57:21.282Z</time></trkpt><trkpt lat="42.1555806" lon="14.6252504"><ele>39.5</ele><time>2026-04-26T06:57:22.308Z</time></trkpt><trkpt lat="42.1554816" lon="14.6251399"><ele>40.0</ele><time>2026-04-26T06:57:23.317Z</time></trkpt><trkpt lat="42.155394" lon="14.6250211"><ele>40.5</ele><time>2026-04-26T06:57:24.294Z</time></trkpt><trkpt lat="42.1553029" lon="14.62489"><ele>41.0</ele><time>2026-04-26T06:57:25.309Z</time></trkpt><trkpt lat="42.1552288" lon="14.624754"><ele>41.0</ele><time>2026-04-26T06:57:26.298Z</time></trkpt><trkpt lat="42.1551691" lon="14.6246255"><ele>41.0</ele><time>2026-04-26T06:57:27.313Z</time></trkpt><trkpt lat="42.1551149" lon="14.6245043"><ele>41.0</ele><time>2026-04-26T06:57:28.248Z</time></trkpt><trkpt lat="42.1550557" lon="14.6243794"><ele>41.0</ele><time>2026-04-26T06:57:29.279Z</time></trkpt><trkpt lat="42.1549929" lon="14.6242545"><ele>41.0</ele><time>2026-04-26T06:57:30.317Z</time></trkpt><trkpt lat="42.1549219" lon="14.6241266"><ele>41.0</ele><time>2026-04-26T06:57:31.248Z</time></trkpt><trkpt lat="42.1548472" lon="14.6239855"><ele>41.0</ele><time>2026-04-26T06:57:32.29Z</time></trkpt><trkpt lat="42.1547679" lon="14.6238331"><ele>41.0</ele><time>2026-04-26T06:57:33.31Z</time></trkpt><trkpt lat="42.1546908" lon="14.6236736"><ele>41.0</ele><time>2026-04-26T06:57:34.252Z</time></trkpt><trkpt lat="42.1546084" lon="14.6235114"><ele>41.5</ele><time>2026-04-26T06:57:35.289Z</time></trkpt><trkpt lat="42.1545328" lon="14.6233497"><ele>42.0</ele><time>2026-04-26T06:57:36.298Z</time></trkpt><trkpt lat="42.1544486" lon="14.6231844"><ele>42.5</ele><time>2026-04-26T06:57:37.287Z</time></trkpt><trkpt lat="42.1543661" lon="14.6230203"><ele>43.0</ele><time>2026-04-26T06:57:38.29Z</time></trkpt><trkpt lat="42.1542816" lon="14.6228539"><ele>43.25</ele><time>2026-04-26T06:57:39.324Z</time></trkpt><trkpt lat="42.1541977" lon="14.6226954"><ele>43.5</ele><time>2026-04-26T06:57:40.305Z</time></trkpt><trkpt lat="42.1541231" lon="14.6225437"><ele>43.75</ele><time>2026-04-26T06:57:41.278Z</time></trkpt><trkpt lat="42.1540477" lon="14.6223867"><ele>44.0</ele><time>2026-04-26T06:57:42.277Z</time></trkpt><trkpt lat="42.1539858" lon="14.6222204"><ele>44.0</ele><time>2026-04-26T06:57:43.323Z</time></trkpt><trkpt lat="42.1539333" lon="14.6220546"><ele>44.0</ele><time>2026-04-26T06:57:44.303Z</time></trkpt><trkpt lat="42.1538846" lon="14.6219044"><ele>44.0</ele><time>2026-04-26T06:57:45.304Z</time></trkpt><trkpt lat="42.1538418" lon="14.6217432"><ele>44.0</ele><time>2026-04-26T06:57:46.24Z</time></trkpt><trkpt lat="42.1537978" lon="14.6215729"><ele>44.25</ele><time>2026-04-26T06:57:47.273Z</time></trkpt><trkpt lat="42.1537567" lon="14.6214081"><ele>44.5</ele><time>2026-04-26T06:57:48.269Z</time></trkpt><trkpt lat="42.1537131" lon="14.6212335"><ele>44.75</ele><time>2026-04-26T06:57:49.278Z</time></trkpt><trkpt lat="42.1536709" lon="14.6210587"><ele>45.0</ele><time>2026-04-26T06:57:50.271Z</time></trkpt><trkpt lat="42.1536276" lon="14.6208774"><ele>45.25</ele><time>2026-04-26T06:57:51.258Z</time></trkpt><trkpt lat="42.1535839" lon="14.6206915"><ele>45.5</ele><time>2026-04-26T06:57:52.275Z</time></trkpt><trkpt lat="42.1535327" lon="14.6205119"><ele>45.75</ele><time>2026-04-26T06:57:53.3Z</time></trkpt><trkpt lat="42.1534834" lon="14.6203314"><ele>46.0</ele><time>2026-04-26T06:57:54.308Z</time></trkpt><trkpt lat="42.1534454" lon="14.6201589"><ele>47.0</ele><time>2026-04-26T06:57:55.316Z</time></trkpt><trkpt lat="42.1534073" lon="14.6199978"><ele>48.0</ele><time>2026-04-26T06:57:56.288Z</time></trkpt><trkpt lat="42.1533587" lon="14.6198306"><ele>49.0</ele><time>2026-04-26T06:57:57.29Z</time></trkpt><trkpt lat="42.1533107" lon="14.6196693"><ele>50.0</ele><time>2026-04-26T06:57:58.278Z</time></trkpt><trkpt lat="42.1532632" lon="14.6195175"><ele>50.0</ele><time>2026-04-26T06:57:59.246Z</time></trkpt><trkpt lat="42.1532297" lon="14.6193892"><ele>50.0</ele><time>2026-04-26T06:58:00.292Z</time></trkpt><trkpt lat="42.1532085" lon="14.6192656"><ele>50.0</ele><time>2026-04-26T06:58:01.311Z</time></trkpt><trkpt lat="42.1531962" lon="14.6191395"><ele>50.0</ele><time>2026-04-26T06:58:02.281Z</time></trkpt><trkpt lat="42.1531934" lon="14.6190175"><ele>50.0</ele><time>2026-04-26T06:58:03.292Z</time></trkpt><trkpt lat="42.1532002" lon="14.6188967"><ele>50.8</ele><time>2026-04-26T06:58:04.26Z</time></trkpt><trkpt lat="42.1532171" lon="14.6187881"><ele>51.6</ele><time>2026-04-26T06:58:05.297Z</time></trkpt><trkpt lat="42.1532443" lon="14.6186791"><ele>52.400000000000006</ele><time>2026-04-26T06:58:06.311Z</time></trkpt><trkpt lat="42.1532729" lon="14.6185561"><ele>53.2</ele><time>2026-04-26T06:58:07.278Z</time></trkpt><trkpt lat="42.1533152" lon="14.6184136"><ele>54.0</ele><time>2026-04-26T06:58:08.284Z</time></trkpt><trkpt lat="42.1533575" lon="14.6182597"><ele>55.0</ele><time>2026-04-26T06:58:09.261Z</time></trkpt><trkpt lat="42.153393" lon="14.6181213"><ele>56.0</ele><time>2026-04-26T06:58:10.3Z</time></trkpt><trkpt lat="42.1534251" lon="14.6179733"><ele>57.0</ele><time>2026-04-26T06:58:11.299Z</time></trkpt><trkpt lat="42.1534567" lon="14.6178052"><ele>58.0</ele><time>2026-04-26T06:58:12.263Z</time></trkpt><trkpt lat="42.1534788" lon="14.6176176"><ele>59.33333333333333</ele><time>2026-04-26T06:58:13.295Z</time></trkpt><trkpt lat="42.1534951" lon="14.6174192"><ele>60.66666666666667</ele><time>2026-04-26T06:58:14.299Z</time></trkpt><trkpt lat="42.1535205" lon="14.6172014"><ele>62.0</ele><time>2026-04-26T06:58:15.309Z</time></trkpt><trkpt lat="42.1535357" lon="14.6169766"><ele>63.0</ele><time>2026-04-26T06:58:16.304Z</time></trkpt><trkpt lat="42.1535493" lon="14.6167707"><ele>64.0</ele><time>2026-04-26T06:58:17.299Z</time></trkpt><trkpt lat="42.1535534" lon="14.6165756"><ele>65.0</ele><time>2026-04-26T06:58:18.263Z</time></trkpt><trkpt lat="42.1535566" lon="14.6163874"><ele>66.0</ele><time>2026-04-26T06:58:19.296Z</time></trkpt><trkpt lat="42.1535645" lon="14.6162089"><ele>68.5</ele><time>2026-04-26T06:58:20.3Z</time></trkpt><trkpt lat="42.1535799" lon="14.616031"><ele>71.0</ele><time>2026-04-26T06:58:21.289Z</time></trkpt><trkpt lat="42.1535962" lon="14.6158688"><ele>73.5</ele><time>2026-04-26T06:58:22.334Z</time></trkpt><trkpt lat="42.1536111" lon="14.6157113"><ele>76.0</ele><time>2026-04-26T06:58:23.243Z</time></trkpt><trkpt lat="42.1536264" lon="14.6155488"><ele>76.0</ele><time>2026-04-26T06:58:24.255Z</time></trkpt><trkpt lat="42.1536331" lon="14.6153936"><ele>76.0</ele><time>2026-04-26T06:58:25.261Z</time></trkpt><trkpt lat="42.1536216" lon="14.6152428"><ele>76.0</ele><time>2026-04-26T06:58:26.278Z</time></trkpt><trkpt lat="42.153601" lon="14.6150943"><ele>76.0</ele><time>2026-04-26T06:58:27.3Z</time></trkpt><trkpt lat="42.1535726" lon="14.6149474"><ele>76.6</ele><time>2026-04-26T06:58:28.285Z</time></trkpt><trkpt lat="42.1535491" lon="14.6148163"><ele>77.19999999999999</ele><time>2026-04-26T06:58:29.283Z</time></trkpt><trkpt lat="42.1535354" lon="14.6146961"><ele>77.80000000000001</ele><time>2026-04-26T06:58:30.273Z</time></trkpt><trkpt lat="42.1535521" lon="14.6145829"><ele>78.4</ele><time>2026-04-26T06:58:31.282Z</time></trkpt><trkpt lat="42.1535971" lon="14.6144638"><ele>79.0</ele><time>2026-04-26T06:58:32.319Z</time></trkpt><trkpt lat="42.1536212" lon="14.6143464"><ele>80.2</ele><time>2026-04-26T06:58:33.267Z</time></trkpt><trkpt lat="42.1536313" lon="14.6142183"><ele>81.4</ele><time>2026-04-26T06:58:34.29Z</time></trkpt><trkpt lat="42.1536208" lon="14.6140637"><ele>82.6</ele><time>2026-04-26T06:58:35.272Z</time></trkpt><trkpt lat="42.1536082" lon="14.6139172"><ele>83.8</ele><time>2026-04-26T06:58:36.302Z</time></trkpt><trkpt lat="42.1535948" lon="14.6137849"><ele>85.0</ele><time>2026-04-26T06:58:37.251Z</time></trkpt><trkpt lat="42.1535956" lon="14.6136632"><ele>86.33333333333333</ele><time>2026-04-26T06:58:38.264Z</time></trkpt><trkpt lat="42.1536019" lon="14.6135594"><ele>87.66666666666666</ele><time>2026-04-26T06:58:39.306Z</time></trkpt><trkpt lat="42.1535965" lon="14.6134573"><ele>89.0</ele><time>2026-04-26T06:58:40.295Z</time></trkpt><trkpt lat="42.1535795" lon="14.6133623"><ele>90.33333333333333</ele><time>2026-04-26T06:58:41.29Z</time></trkpt><trkpt lat="42.1535434" lon="14.6132651"><ele>91.66666666666667</ele><time>2026-04-26T06:58:42.298Z</time></trkpt><trkpt lat="42.1534954" lon="14.6131481"><ele>93.0</ele><time>2026-04-26T06:58:43.28Z</time></trkpt><trkpt lat="42.1534412" lon="14.6129905"><ele>93.0</ele><time>2026-04-26T06:58:44.286Z</time></trkpt><trkpt lat="42.1533905" lon="14.6128301"><ele>93.0</ele><time>2026-04-26T06:58:45.297Z</time></trkpt><trkpt lat="42.1533337" lon="14.61267"><ele>93.0</ele><time>2026-04-26T06:58:46.287Z</time></trkpt><trkpt lat="42.1532696" lon="14.6125087"><ele>93.0</ele><time>2026-04-26T06:58:47.264Z</time></trkpt><trkpt lat="42.1532026" lon="14.6123543"><ele>96.0</ele><time>2026-04-26T06:58:48.277Z</time></trkpt><trkpt lat="42.1531266" lon="14.6122328"><ele>99.0</ele><time>2026-04-26T06:58:49.315Z</time></trkpt><trkpt lat="42.153045" lon="14.6121177"><ele>102.0</ele><time>2026-04-26T06:58:50.298Z</time></trkpt><trkpt lat="42.1529635" lon="14.6120075"><ele>105.0</ele><time>2026-04-26T06:58:51.271Z</time></trkpt><trkpt lat="42.1529044" lon="14.6118975"><ele>106.0</ele><time>2026-04-26T06:58:52.28Z</time></trkpt><trkpt lat="42.1528517" lon="14.6117692"><ele>107.0</ele><time>2026-04-26T06:58:53.31Z</time></trkpt><trkpt lat="42.1528064" lon="14.6116325"><ele>108.0</ele><time>2026-04-26T06:58:54.307Z</time></trkpt><trkpt lat="42.1527608" lon="14.6115318"><ele>109.0</ele><time>2026-04-26T06:58:55.31Z</time></trkpt><trkpt lat="42.1527121" lon="14.6114675"><ele>110.0</ele><time>2026-04-26T06:58:56.298Z</time></trkpt><trkpt lat="42.1526487" lon="14.6114323"><ele>111.0</ele><time>2026-04-26T06:58:57.31Z</time></trkpt><trkpt lat="42.1525569" lon="14.6114383"><ele>111.0</ele><time>2026-04-26T06:58:58.248Z</time></trkpt><trkpt lat="42.1524361" lon="14.6114686"><ele>111.0</ele><time>2026-04-26T06:58:59.289Z</time></trkpt><trkpt lat="42.1522935" lon="14.6114954"><ele>111.0</ele><time>2026-04-26T06:59:00.27Z</time></trkpt><trkpt lat="42.1521494" lon="14.6115231"><ele>111.0</ele><time>2026-04-26T06:59:01.28Z</time></trkpt><trkpt lat="42.1520414" lon="14.6115485"><ele>112.8</ele><time>2026-04-26T06:59:02.285Z</time></trkpt><trkpt lat="42.151958" lon="14.6115598"><ele>114.6</ele><time>2026-04-26T06:59:03.294Z</time></trkpt><trkpt lat="42.1518734" lon="14.6115368"><ele>116.4</ele><time>2026-04-26T06:59:11.28Z</time></trkpt><trkpt lat="42.1518605" lon="14.6113526"><ele>118.2</ele><time>2026-04-26T06:59:13.29Z</time></trkpt><trkpt lat="42.1518868" lon="14.611216"><ele>120.0</ele><time>2026-04-26T06:59:14.268Z</time></trkpt><trkpt lat="42.1519104" lon="14.6110481"><ele>121.75</ele><time>2026-04-26T06:59:15.282Z</time></trkpt><trkpt lat="42.1519438" lon="14.6108778"><ele>123.5</ele><time>2026-04-26T06:59:16.237Z</time></trkpt><trkpt lat="42.1519983" lon="14.6107216"><ele>125.25</ele><time>2026-04-26T06:59:17.292Z</time></trkpt><trkpt lat="42.1520573" lon="14.6105835"><ele>127.0</ele><time>2026-04-26T06:59:18.259Z</time></trkpt><trkpt lat="42.1521086" lon="14.6104459"><ele>128.75</ele><time>2026-04-26T06:59:19.302Z</time></trkpt><trkpt lat="42.1521536" lon="14.6102896"><ele>130.5</ele><time>2026-04-26T06:59:20.279Z</time></trkpt><trkpt lat="42.1521818" lon="14.6101228"><ele>132.25</ele><time>2026-04-26T06:59:21.287Z</time></trkpt><trkpt lat="42.1521979" lon="14.6099427"><ele>134.0</ele><time>2026-04-26T06:59:22.252Z</time></trkpt><trkpt lat="42.1522134" lon="14.6097542"><ele>134.0</ele><time>2026-04-26T06:59:23.263Z</time></trkpt><trkpt lat="42.152225" lon="14.6095584"><ele>134.0</ele><time>2026-04-26T06:59:24.307Z</time></trkpt><trkpt lat="42.152237" lon="14.6093569"><ele>134.0</ele><time>2026-04-26T06:59:25.309Z</time></trkpt><trkpt lat="42.1522453" lon="14.6091666"><ele>134.0</ele><time>2026-04-26T06:59:26.289Z</time></trkpt><trkpt lat="42.1522488" lon="14.6089982"><ele>134.0</ele><time>2026-04-26T06:59:27.295Z</time></trkpt><trkpt lat="42.152251" lon="14.6088704"><ele>134.0</ele><time>2026-04-26T06:59:28.291Z</time></trkpt><trkpt lat="42.1522767" lon="14.6087761"><ele>134.0</ele><time>2026-04-26T06:59:29.29Z</time></trkpt><trkpt lat="42.1523655" lon="14.6087455"><ele>134.0</ele><time>2026-04-26T06:59:31.292Z</time></trkpt><trkpt lat="42.152441" lon="14.6089044"><ele>134.0</ele><time>2026-04-26T06:59:33.303Z</time></trkpt><trkpt lat="42.1524651" lon="14.6090363"><ele>133.0</ele><time>2026-04-26T06:59:34.279Z</time></trkpt><trkpt lat="42.152483" lon="14.6091825"><ele>132.0</ele><time>2026-04-26T06:59:35.317Z</time></trkpt><trkpt lat="42.1525036" lon="14.6093385"><ele>131.0</ele><time>2026-04-26T06:59:36.295Z</time></trkpt><trkpt lat="42.1525287" lon="14.6094948"><ele>130.0</ele><time>2026-04-26T06:59:37.298Z</time></trkpt><trkpt lat="42.152569" lon="14.6096326"><ele>128.5</ele><time>2026-04-26T06:59:38.26Z</time></trkpt><trkpt lat="42.1526153" lon="14.6097641"><ele>127.0</ele><time>2026-04-26T06:59:39.303Z</time></trkpt><trkpt lat="42.1526893" lon="14.6098821"><ele>125.5</ele><time>2026-04-26T06:59:40.288Z</time></trkpt><trkpt lat="42.1527878" lon="14.6099804"><ele>124.0</ele><time>2026-04-26T06:59:41.271Z</time></trkpt><trkpt lat="42.1529045" lon="14.6100496"><ele>124.0</ele><time>2026-04-26T06:59:42.286Z</time></trkpt><trkpt lat="42.1530177" lon="14.6101199"><ele>124.0</ele><time>2026-04-26T06:59:43.299Z</time></trkpt><trkpt lat="42.1531215" lon="14.6101765"><ele>124.0</ele><time>2026-04-26T06:59:44.322Z</time></trkpt><trkpt lat="42.1532168" lon="14.6102041"><ele>124.0</ele><time>2026-04-26T06:59:45.331Z</time></trkpt><trkpt lat="42.1533061" lon="14.6101927"><ele>124.0</ele><time>2026-04-26T06:59:46.27Z</time></trkpt><trkpt lat="42.153375" lon="14.6101424"><ele>125.0</ele><time>2026-04-26T06:59:47.315Z</time></trkpt><trkpt lat="42.1534298" lon="14.6100521"><ele>126.0</ele><time>2026-04-26T06:59:48.272Z</time></trkpt><trkpt lat="42.1534641" lon="14.6099273"><ele>127.0</ele><time>2026-04-26T06:59:49.303Z</time></trkpt><trkpt lat="42.153482" lon="14.6097847"><ele>128.0</ele><time>2026-04-26T06:59:50.298Z</time></trkpt><trkpt lat="42.1534939" lon="14.6096295"><ele>129.0</ele><time>2026-04-26T06:59:51.283Z</time></trkpt><trkpt lat="42.1535106" lon="14.6094717"><ele>130.2</ele><time>2026-04-26T06:59:52.29Z</time></trkpt><trkpt lat="42.1535318" lon="14.6093138"><ele>131.4</ele><time>2026-04-26T06:59:53.303Z</time></trkpt><trkpt lat="42.1535646" lon="14.6091703"><ele>132.6</ele><time>2026-04-26T06:59:54.258Z</time></trkpt><trkpt lat="42.1536045" lon="14.6090443"><ele>133.8</ele><time>2026-04-26T06:59:55.31Z</time></trkpt><trkpt lat="42.1536612" lon="14.6089423"><ele>135.0</ele><time>2026-04-26T06:59:56.313Z</time></trkpt><trkpt lat="42.1537235" lon="14.6088691"><ele>135.0</ele><time>2026-04-26T06:59:57.275Z</time></trkpt><trkpt lat="42.1537843" lon="14.608824"><ele>135.0</ele><time>2026-04-26T06:59:58.257Z</time></trkpt><trkpt lat="42.1538724" lon="14.6088116"><ele>135.0</ele><time>2026-04-26T06:59:59.262Z</time></trkpt><trkpt lat="42.1539721" lon="14.608826"><ele>135.0</ele><time>2026-04-26T07:00:00.291Z</time></trkpt><trkpt lat="42.1540706" lon="14.6088422"><ele>135.0</ele><time>2026-04-26T07:00:01.299Z</time></trkpt><trkpt lat="42.1541643" lon="14.6088577"><ele>135.33333333333334</ele><time>2026-04-26T07:00:02.278Z</time></trkpt><trkpt lat="42.1542466" lon="14.6088719"><ele>135.66666666666666</ele><time>2026-04-26T07:00:03.303Z</time></trkpt><trkpt lat="42.1543126" lon="14.6088806"><ele>136.0</ele><time>2026-04-26T07:00:04.248Z</time></trkpt><trkpt lat="42.1543963" lon="14.6088782"><ele>136.33333333333331</ele><time>2026-04-26T07:00:06.29Z</time></trkpt><trkpt lat="42.1543575" lon="14.608751"><ele>136.66666666666666</ele><time>2026-04-26T07:00:09.293Z</time></trkpt><trkpt lat="42.1542938" lon="14.6087037"><ele>137.0</ele><time>2026-04-26T07:00:10.312Z</time></trkpt><trkpt lat="42.1542104" lon="14.6086516"><ele>137.0</ele><time>2026-04-26T07:00:11.267Z</time></trkpt><trkpt lat="42.1541227" lon="14.6085962"><ele>137.0</ele><time>2026-04-26T07:00:12.296Z</time></trkpt><trkpt lat="42.1540229" lon="14.6085348"><ele>137.0</ele><time>2026-04-26T07:00:13.28Z</time></trkpt><trkpt lat="42.1539213" lon="14.6084749"><ele>137.0</ele><time>2026-04-26T07:00:14.291Z</time></trkpt><trkpt lat="42.1538136" lon="14.6083923"><ele>137.0</ele><time>2026-04-26T07:00:15.309Z</time></trkpt><trkpt lat="42.1537146" lon="14.6082901"><ele>136.79999999999998</ele><time>2026-04-26T07:00:16.295Z</time></trkpt><trkpt lat="42.1536195" lon="14.6081766"><ele>136.6</ele><time>2026-04-26T07:00:17.291Z</time></trkpt><trkpt lat="42.1535351" lon="14.6080582"><ele>136.39999999999998</ele><time>2026-04-26T07:00:18.274Z</time></trkpt><trkpt lat="42.1534657" lon="14.6079458"><ele>136.2</ele><time>2026-04-26T07:00:19.262Z</time></trkpt><trkpt lat="42.1534193" lon="14.6078622"><ele>136.0</ele><time>2026-04-26T07:00:20.287Z</time></trkpt><trkpt lat="42.1533965" lon="14.60771"><ele>136.6</ele><time>2026-04-26T07:00:22.269Z</time></trkpt><trkpt lat="42.1533961" lon="14.6075919"><ele>137.2</ele><time>2026-04-26T07:00:23.248Z</time></trkpt><trkpt lat="42.1533783" lon="14.6074592"><ele>137.8</ele><time>2026-04-26T07:00:24.248Z</time></trkpt><trkpt lat="42.1533448" lon="14.6073189"><ele>138.4</ele><time>2026-04-26T07:00:25.289Z</time></trkpt><trkpt lat="42.1533046" lon="14.6071728"><ele>139.0</ele><time>2026-04-26T07:00:26.302Z</time></trkpt><trkpt lat="42.1532662" lon="14.6070211"><ele>139.25</ele><time>2026-04-26T07:00:27.296Z</time></trkpt><trkpt lat="42.1532326" lon="14.6068584"><ele>139.5</ele><time>2026-04-26T07:00:28.288Z</time></trkpt><trkpt lat="42.1532007" lon="14.6067011"><ele>139.75</ele><time>2026-04-26T07:00:29.256Z</time></trkpt><trkpt lat="42.1531691" lon="14.6065511"><ele>140.0</ele><time>2026-04-26T07:00:30.298Z</time></trkpt><trkpt lat="42.1531387" lon="14.6064149"><ele>140.0</ele><time>2026-04-26T07:00:31.262Z</time></trkpt><trkpt lat="42.1531155" lon="14.6062821"><ele>140.0</ele><time>2026-04-26T07:00:32.272Z</time></trkpt><trkpt lat="42.1530887" lon="14.6061489"><ele>140.0</ele><time>2026-04-26T07:00:33.295Z</time></trkpt><trkpt lat="42.1530613" lon="14.6060038"><ele>140.0</ele><time>2026-04-26T07:00:34.272Z</time></trkpt><trkpt lat="42.1530303" lon="14.6058636"><ele>140.0</ele><time>2026-04-26T07:00:35.292Z</time></trkpt><trkpt lat="42.1529983" lon="14.6057326"><ele>140.0</ele><time>2026-04-26T07:00:36.291Z</time></trkpt><trkpt lat="42.1529706" lon="14.6056169"><ele>140.0</ele><time>2026-04-26T07:00:37.251Z</time></trkpt><trkpt lat="42.152947" lon="14.6054958"><ele>140.0</ele><time>2026-04-26T07:00:38.259Z</time></trkpt><trkpt lat="42.1529228" lon="14.6053673"><ele>140.0</ele><time>2026-04-26T07:00:39.28Z</time></trkpt><trkpt lat="42.1528938" lon="14.6052426"><ele>140.0</ele><time>2026-04-26T07:00:40.293Z</time></trkpt><trkpt lat="42.1528673" lon="14.6051287"><ele>140.83333333333331</ele><time>2026-04-26T07:00:41.241Z</time></trkpt><trkpt lat="42.1528485" lon="14.6050281"><ele>141.66666666666666</ele><time>2026-04-26T07:00:42.259Z</time></trkpt><trkpt lat="42.1528239" lon="14.6049239"><ele>142.5</ele><time>2026-04-26T07:00:43.249Z</time></trkpt><trkpt lat="42.1528217" lon="14.6048179"><ele>143.33333333333334</ele><time>2026-04-26T07:00:45.267Z</time></trkpt><trkpt lat="42.1528942" lon="14.6047108"><ele>144.16666666666669</ele><time>2026-04-26T07:00:47.273Z</time></trkpt><trkpt lat="42.1529536" lon="14.6046721"><ele>145.0</ele><time>2026-04-26T07:00:48.26Z</time></trkpt><trkpt lat="42.1530386" lon="14.6046439"><ele>145.0</ele><time>2026-04-26T07:00:49.26Z</time></trkpt><trkpt lat="42.1531329" lon="14.6046177"><ele>145.0</ele><time>2026-04-26T07:00:50.255Z</time></trkpt><trkpt lat="42.1532343" lon="14.6045862"><ele>145.0</ele><time>2026-04-26T07:00:51.278Z</time></trkpt><trkpt lat="42.1533446" lon="14.6045459"><ele>145.0</ele><time>2026-04-26T07:00:52.261Z</time></trkpt><trkpt lat="42.1534584" lon="14.604496"><ele>145.0</ele><time>2026-04-26T07:00:53.275Z</time></trkpt><trkpt lat="42.1535717" lon="14.6044474"><ele>144.75</ele><time>2026-04-26T07:00:54.266Z</time></trkpt><trkpt lat="42.1536879" lon="14.6044017"><ele>144.5</ele><time>2026-04-26T07:00:55.249Z</time></trkpt><trkpt lat="42.1538056" lon="14.6043588"><ele>144.25</ele><time>2026-04-26T07:00:56.253Z</time></trkpt><trkpt lat="42.1539208" lon="14.604317"><ele>144.0</ele><time>2026-04-26T07:00:57.248Z</time></trkpt><trkpt lat="42.1540274" lon="14.6042672"><ele>143.66666666666666</ele><time>2026-04-26T07:00:58.25Z</time></trkpt><trkpt lat="42.1541216" lon="14.6042296"><ele>143.33333333333334</ele><time>2026-04-26T07:00:59.242Z</time></trkpt><trkpt lat="42.1542105" lon="14.604199"><ele>143.0</ele><time>2026-04-26T07:01:00.245Z</time></trkpt><trkpt lat="42.1542886" lon="14.6041636"><ele>142.66666666666669</ele><time>2026-04-26T07:01:01.269Z</time></trkpt><trkpt lat="42.1543619" lon="14.6041401"><ele>142.33333333333334</ele><time>2026-04-26T07:01:02.248Z</time></trkpt><trkpt lat="42.1544314" lon="14.6041162"><ele>142.0</ele><time>2026-04-26T07:01:03.273Z</time></trkpt><trkpt lat="42.1544994" lon="14.6040942"><ele>142.0</ele><time>2026-04-26T07:01:04.254Z</time></trkpt><trkpt lat="42.1545755" lon="14.6040657"><ele>142.0</ele><time>2026-04-26T07:01:05.244Z</time></trkpt><trkpt lat="42.1546494" lon="14.604041"><ele>142.0</ele><time>2026-04-26T07:01:06.254Z</time></trkpt><trkpt lat="42.1547129" lon="14.60401"><ele>142.0</ele><time>2026-04-26T07:01:07.253Z</time></trkpt><trkpt lat="42.1548272" lon="14.6039702"><ele>142.0</ele><time>2026-04-26T07:01:09.249Z</time></trkpt><trkpt lat="42.1548952" lon="14.6039483"><ele>142.0</ele><time>2026-04-26T07:01:11.261Z</time></trkpt><trkpt lat="42.1549672" lon="14.6038532"><ele>142.0</ele><time>2026-04-26T07:01:16.287Z</time></trkpt><trkpt lat="42.1549426" lon="14.603732"><ele>142.0</ele><time>2026-04-26T07:01:18.269Z</time></trkpt><trkpt lat="42.1549024" lon="14.6035821"><ele>142.0</ele><time>2026-04-26T07:01:20.311Z</time></trkpt><trkpt lat="42.1548782" lon="14.6034781"><ele>142.0</ele><time>2026-04-26T07:01:21.288Z</time></trkpt><trkpt lat="42.1548516" lon="14.6033487"><ele>142.0</ele><time>2026-04-26T07:01:22.312Z</time></trkpt><trkpt lat="42.1548165" lon="14.6032061"><ele>143.0</ele><time>2026-04-26T07:01:23.318Z</time></trkpt><trkpt lat="42.1547773" lon="14.603048"><ele>144.0</ele><time>2026-04-26T07:01:24.292Z</time></trkpt><trkpt lat="42.1547398" lon="14.6028777"><ele>145.0</ele><time>2026-04-26T07:01:25.289Z</time></trkpt><trkpt lat="42.1546988" lon="14.6026942"><ele>146.0</ele><time>2026-04-26T07:01:26.301Z</time></trkpt><trkpt lat="42.1546516" lon="14.6025101"><ele>146.0</ele><time>2026-04-26T07:01:27.302Z</time></trkpt><trkpt lat="42.1546055" lon="14.6023157"><ele>146.0</ele><time>2026-04-26T07:01:28.269Z</time></trkpt><trkpt lat="42.1545613" lon="14.6021136"><ele>146.0</ele><time>2026-04-26T07:01:29.305Z</time></trkpt><trkpt lat="42.1545129" lon="14.6019066"><ele>146.33333333333331</ele><time>2026-04-26T07:01:30.304Z</time></trkpt><trkpt lat="42.1544667" lon="14.6017011"><ele>146.66666666666666</ele><time>2026-04-26T07:01:31.308Z</time></trkpt><trkpt lat="42.1544215" lon="14.6014932"><ele>147.0</ele><time>2026-04-26T07:01:32.26Z</time></trkpt><trkpt lat="42.1543774" lon="14.6013037"><ele>147.25</ele><time>2026-04-26T07:01:33.306Z</time></trkpt><trkpt lat="42.1543406" lon="14.6011333"><ele>147.5</ele><time>2026-04-26T07:01:34.245Z</time></trkpt><trkpt lat="42.1543053" lon="14.6009739"><ele>147.75</ele><time>2026-04-26T07:01:35.327Z</time></trkpt><trkpt lat="42.1542728" lon="14.6008247"><ele>148.0</ele><time>2026-04-26T07:01:36.272Z</time></trkpt><trkpt lat="42.154238" lon="14.6006974"><ele>148.0</ele><time>2026-04-26T07:01:37.298Z</time></trkpt><trkpt lat="42.1542098" lon="14.6005819"><ele>148.0</ele><time>2026-04-26T07:01:38.292Z</time></trkpt><trkpt lat="42.1541894" lon="14.6004682"><ele>148.0</ele><time>2026-04-26T07:01:39.304Z</time></trkpt><trkpt lat="42.1541646" lon="14.6003763"><ele>148.0</ele><time>2026-04-26T07:01:40.285Z</time></trkpt><trkpt lat="42.1541078" lon="14.60024"><ele>148.0</ele><time>2026-04-26T07:01:42.279Z</time></trkpt><trkpt lat="42.1540208" lon="14.6001931"><ele>150.0</ele><time>2026-04-26T07:01:44.307Z</time></trkpt><trkpt lat="42.1539474" lon="14.6002124"><ele>150.0</ele><time>2026-04-26T07:01:47.284Z</time></trkpt><trkpt lat="42.1539461" lon="14.6001251"><ele>150.0</ele><time>2026-04-26T07:03:34.259Z</time></trkpt><trkpt lat="42.1539147" lon="14.6000511"><ele>150.0</ele><time>2026-04-26T07:04:21.267Z</time></trkpt><trkpt lat="42.1539224" lon="14.5999526"><ele>150.0</ele><time>2026-04-26T07:04:55.228Z</time></trkpt></trkseg><trkseg><trkpt lat="42.1685643" lon="14.6043833"><ele>122.0</ele><time>2026-04-26T07:28:57.189Z</time></trkpt><trkpt lat="42.1687324" lon="14.6044629"><ele>121.99999999999999</ele><time>2026-04-26T07:28:58.197Z</time></trkpt><trkpt lat="42.1687864" lon="14.6045103"><ele>121.99999999999999</ele><time>2026-04-26T07:29:01.194Z</time></trkpt><trkpt lat="42.1688586" lon="14.6045264"><ele>122.0</ele><time>2026-04-26T07:32:10.235Z</time></trkpt><trkpt lat="42.1689277" lon="14.6046112"><ele>122.0</ele><time>2026-04-26T07:32:11.213Z</time></trkpt><trkpt lat="42.1690044" lon="14.6047469"><ele>121.39999999999999</ele><time>2026-04-26T07:32:12.196Z</time></trkpt><trkpt lat="42.1690897" lon="14.6048516"><ele>120.79999999999998</ele><time>2026-04-26T07:32:13.193Z</time></trkpt><trkpt lat="42.1691662" lon="14.6049101"><ele>120.2</ele><time>2026-04-26T07:32:14.213Z</time></trkpt><trkpt lat="42.1692223" lon="14.6049543"><ele>119.6</ele><time>2026-04-26T07:32:15.197Z</time></trkpt><trkpt lat="42.1692842" lon="14.6050458"><ele>119.0</ele><time>2026-04-26T07:32:16.213Z</time></trkpt><trkpt lat="42.1693719" lon="14.6051772"><ele>119.0</ele><time>2026-04-26T07:32:17.204Z</time></trkpt><trkpt lat="42.1694904" lon="14.6053248"><ele>119.0</ele><time>2026-04-26T07:32:18.216Z</time></trkpt><trkpt lat="42.1695985" lon="14.605462"><ele>119.0</ele><time>2026-04-26T07:32:19.187Z</time></trkpt><trkpt lat="42.1697019" lon="14.6055803"><ele>119.0</ele><time>2026-04-26T07:32:20.185Z</time></trkpt><trkpt lat="42.1697837" lon="14.6056836"><ele>118.6</ele><time>2026-04-26T07:32:21.2Z</time></trkpt><trkpt lat="42.1698639" lon="14.6057829"><ele>118.2</ele><time>2026-04-26T07:32:22.192Z</time></trkpt><trkpt lat="42.1699602" lon="14.6058909"><ele>117.79999999999998</ele><time>2026-04-26T07:32:23.18Z</time></trkpt><trkpt lat="42.1700362" lon="14.605989"><ele>117.39999999999999</ele><time>2026-04-26T07:32:24.199Z</time></trkpt><trkpt lat="42.1701228" lon="14.6060777"><ele>117.0</ele><time>2026-04-26T07:32:25.202Z</time></trkpt><trkpt lat="42.1702119" lon="14.606208"><ele>117.0</ele><time>2026-04-26T07:32:26.213Z</time></trkpt><trkpt lat="42.1703224" lon="14.6063246"><ele>117.0</ele><time>2026-04-26T07:32:27.19Z</time></trkpt><trkpt lat="42.1704162" lon="14.6064517"><ele>117.0</ele><time>2026-04-26T07:32:28.208Z</time></trkpt><trkpt lat="42.1705127" lon="14.6065566"><ele>117.0</ele><time>2026-04-26T07:32:29.184Z</time></trkpt><trkpt lat="42.1706012" lon="14.6066786"><ele>116.75</ele><time>2026-04-26T07:32:30.187Z</time></trkpt><trkpt lat="42.1706984" lon="14.6067828"><ele>116.5</ele><time>2026-04-26T07:32:31.187Z</time></trkpt><trkpt lat="42.1707881" lon="14.6069023"><ele>116.25</ele><time>2026-04-26T07:32:32.198Z</time></trkpt><trkpt lat="42.1708695" lon="14.6070269"><ele>116.0</ele><time>2026-04-26T07:32:33.192Z</time></trkpt><trkpt lat="42.1709709" lon="14.6071525"><ele>115.75</ele><time>2026-04-26T07:32:34.182Z</time></trkpt><trkpt lat="42.1710751" lon="14.6072797"><ele>115.5</ele><time>2026-04-26T07:32:35.184Z</time></trkpt><trkpt lat="42.1711684" lon="14.6074164"><ele>115.25</ele><time>2026-04-26T07:32:36.207Z</time></trkpt><trkpt lat="42.1712655" lon="14.6075469"><ele>115.0</ele><time>2026-04-26T07:32:37.2Z</time></trkpt><trkpt lat="42.1713451" lon="14.6076755"><ele>115.0</ele><time>2026-04-26T07:32:38.232Z</time></trkpt><trkpt lat="42.1714274" lon="14.6077964"><ele>115.0</ele><time>2026-04-26T07:32:39.199Z</time></trkpt><trkpt lat="42.1715163" lon="14.6079197"><ele>115.0</ele><time>2026-04-26T07:32:40.253Z</time></trkpt><trkpt lat="42.1716031" lon="14.6080393"><ele>115.0</ele><time>2026-04-26T07:32:41.207Z</time></trkpt><trkpt lat="42.1716937" lon="14.6081528"><ele>114.4</ele><time>2026-04-26T07:32:42.203Z</time></trkpt><trkpt lat="42.1717824" lon="14.6082636"><ele>113.8</ele><time>2026-04-26T07:32:43.255Z</time></trkpt><trkpt lat="42.1718581" lon="14.6083632"><ele>113.19999999999999</ele><time>2026-04-26T07:32:44.238Z</time></trkpt><trkpt lat="42.1719382" lon="14.6084667"><ele>112.6</ele><time>2026-04-26T07:32:45.199Z</time></trkpt><trkpt lat="42.1720168" lon="14.6085476"><ele>112.0</ele><time>2026-04-26T07:32:46.241Z</time></trkpt><trkpt lat="42.1720962" lon="14.608638"><ele>111.0</ele><time>2026-04-26T07:32:47.219Z</time></trkpt><trkpt lat="42.1721819" lon="14.6087356"><ele>110.0</ele><time>2026-04-26T07:32:48.231Z</time></trkpt><trkpt lat="42.1722665" lon="14.6088387"><ele>109.0</ele><time>2026-04-26T07:32:49.232Z</time></trkpt><trkpt lat="42.1723524" lon="14.6089587"><ele>108.0</ele><time>2026-04-26T07:32:50.226Z</time></trkpt><trkpt lat="42.1724432" lon="14.6090886"><ele>108.0</ele><time>2026-04-26T07:32:51.21Z</time></trkpt><trkpt lat="42.1725212" lon="14.6092107"><ele>108.00000000000001</ele><time>2026-04-26T07:32:52.224Z</time></trkpt><trkpt lat="42.1725888" lon="14.6093093"><ele>108.00000000000001</ele><time>2026-04-26T07:32:53.253Z</time></trkpt><trkpt lat="42.1726502" lon="14.609394"><ele>108.0</ele><time>2026-04-26T07:32:54.241Z</time></trkpt><trkpt lat="42.1727239" lon="14.609468"><ele>108.0</ele><time>2026-04-26T07:32:55.236Z</time></trkpt><trkpt lat="42.1728099" lon="14.6095383"><ele>106.0</ele><time>2026-04-26T07:32:56.228Z</time></trkpt><trkpt lat="42.1729133" lon="14.6095955"><ele>104.0</ele><time>2026-04-26T07:32:57.229Z</time></trkpt><trkpt lat="42.1730317" lon="14.6096687"><ele>102.0</ele><time>2026-04-26T07:32:58.21Z</time></trkpt><trkpt lat="42.1731529" lon="14.6097659"><ele>100.0</ele><time>2026-04-26T07:32:59.243Z</time></trkpt><trkpt lat="42.1732643" lon="14.6098695"><ele>99.83333333333334</ele><time>2026-04-26T07:33:00.251Z</time></trkpt><trkpt lat="42.173354" lon="14.6099548"><ele>99.66666666666667</ele><time>2026-04-26T07:33:01.253Z</time></trkpt><trkpt lat="42.1734165" lon="14.6100147"><ele>99.5</ele><time>2026-04-26T07:33:02.244Z</time></trkpt><trkpt lat="42.1734738" lon="14.6100581"><ele>99.33333333333334</ele><time>2026-04-26T07:33:03.213Z</time></trkpt><trkpt lat="42.1735366" lon="14.6100724"><ele>99.16666666666667</ele><time>2026-04-26T07:33:04.254Z</time></trkpt><trkpt lat="42.1736178" lon="14.610042"><ele>99.0</ele><time>2026-04-26T07:33:05.248Z</time></trkpt><trkpt lat="42.1736936" lon="14.6100125"><ele>99.0</ele><time>2026-04-26T07:33:06.253Z</time></trkpt><trkpt lat="42.1737759" lon="14.6099932"><ele>99.0</ele><time>2026-04-26T07:33:07.221Z</time></trkpt><trkpt lat="42.1738665" lon="14.6099822"><ele>99.0</ele><time>2026-04-26T07:33:08.211Z</time></trkpt><trkpt lat="42.1739629" lon="14.6099975"><ele>99.0</ele><time>2026-04-26T07:33:09.236Z</time></trkpt><trkpt lat="42.1740791" lon="14.610032"><ele>99.0</ele><time>2026-04-26T07:33:10.249Z</time></trkpt><trkpt lat="42.1742112" lon="14.6100744"><ele>97.5</ele><time>2026-04-26T07:33:11.208Z</time></trkpt><trkpt lat="42.1743556" lon="14.610127"><ele>96.0</ele><time>2026-04-26T07:33:12.268Z</time></trkpt><trkpt lat="42.1744985" lon="14.6101737"><ele>94.5</ele><time>2026-04-26T07:33:13.18Z</time></trkpt><trkpt lat="42.174638" lon="14.6102173"><ele>93.0</ele><time>2026-04-26T07:33:14.203Z</time></trkpt><trkpt lat="42.1747775" lon="14.6102528"><ele>90.5</ele><time>2026-04-26T07:33:15.211Z</time></trkpt><trkpt lat="42.1749081" lon="14.6102818"><ele>88.0</ele><time>2026-04-26T07:33:16.193Z</time></trkpt><trkpt lat="42.1750543" lon="14.6103254"><ele>85.5</ele><time>2026-04-26T07:33:17.212Z</time></trkpt><trkpt lat="42.1751997" lon="14.6103631"><ele>83.0</ele><time>2026-04-26T07:33:18.203Z</time></trkpt><trkpt lat="42.1753416" lon="14.6103943"><ele>81.0</ele><time>2026-04-26T07:33:19.196Z</time></trkpt><trkpt lat="42.1754743" lon="14.6104309"><ele>79.0</ele><time>2026-04-26T07:33:20.209Z</time></trkpt><trkpt lat="42.1755956" lon="14.6104519"><ele>77.0</ele><time>2026-04-26T07:33:21.258Z</time></trkpt><trkpt lat="42.1757085" lon="14.6104688"><ele>75.0</ele><time>2026-04-26T07:33:22.244Z</time></trkpt><trkpt lat="42.175805" lon="14.610495"><ele>72.75</ele><time>2026-04-26T07:33:23.192Z</time></trkpt><trkpt lat="42.1758893" lon="14.6105499"><ele>70.5</ele><time>2026-04-26T07:33:24.244Z</time></trkpt><trkpt lat="42.175975" lon="14.6106371"><ele>68.25</ele><time>2026-04-26T07:33:25.203Z</time></trkpt><trkpt lat="42.1760726" lon="14.6107511"><ele>66.0</ele><time>2026-04-26T07:33:26.244Z</time></trkpt><trkpt lat="42.1761672" lon="14.610876"><ele>66.0</ele><time>2026-04-26T07:33:27.222Z</time></trkpt><trkpt lat="42.1762528" lon="14.6109837"><ele>66.0</ele><time>2026-04-26T07:33:28.248Z</time></trkpt><trkpt lat="42.1763382" lon="14.6110927"><ele>66.0</ele><time>2026-04-26T07:33:29.235Z</time></trkpt><trkpt lat="42.1764183" lon="14.6111903"><ele>66.0</ele><time>2026-04-26T07:33:30.216Z</time></trkpt><trkpt lat="42.1764876" lon="14.6112768"><ele>66.0</ele><time>2026-04-26T07:33:31.254Z</time></trkpt><trkpt lat="42.1765582" lon="14.6113574"><ele>64.83333333333333</ele><time>2026-04-26T07:33:32.244Z</time></trkpt><trkpt lat="42.1766215" lon="14.6114226"><ele>63.66666666666667</ele><time>2026-04-26T07:33:33.242Z</time></trkpt><trkpt lat="42.1766862" lon="14.6114668"><ele>62.5</ele><time>2026-04-26T07:33:34.222Z</time></trkpt><trkpt lat="42.1767483" lon="14.6114893"><ele>61.333333333333336</ele><time>2026-04-26T07:33:35.249Z</time></trkpt><trkpt lat="42.1768229" lon="14.6114805"><ele>60.16666666666667</ele><time>2026-04-26T07:33:36.255Z</time></trkpt><trkpt lat="42.176901" lon="14.6114487"><ele>59.0</ele><time>2026-04-26T07:33:37.258Z</time></trkpt><trkpt lat="42.1769767" lon="14.6113936"><ele>59.0</ele><time>2026-04-26T07:33:38.233Z</time></trkpt><trkpt lat="42.1770481" lon="14.6113441"><ele>59.00000000000001</ele><time>2026-04-26T07:33:39.255Z</time></trkpt><trkpt lat="42.1771336" lon="14.6113135"><ele>59.00000000000001</ele><time>2026-04-26T07:33:40.192Z</time></trkpt><trkpt lat="42.1772525" lon="14.611303"><ele>59.0</ele><time>2026-04-26T07:33:41.249Z</time></trkpt><trkpt lat="42.177391" lon="14.6112928"><ele>59.0</ele><time>2026-04-26T07:33:42.242Z</time></trkpt><trkpt lat="42.17753" lon="14.6112749"><ele>58.400000000000006</ele><time>2026-04-26T07:33:43.236Z</time></trkpt><trkpt lat="42.1776532" lon="14.6112598"><ele>57.800000000000004</ele><time>2026-04-26T07:33:44.233Z</time></trkpt><trkpt lat="42.1777655" lon="14.6112437"><ele>57.199999999999996</ele><time>2026-04-26T07:33:45.199Z</time></trkpt><trkpt lat="42.1778657" lon="14.6112329"><ele>56.599999999999994</ele><time>2026-04-26T07:33:46.224Z</time></trkpt><trkpt lat="42.1779399" lon="14.6112299"><ele>56.0</ele><time>2026-04-26T07:33:47.238Z</time></trkpt><trkpt lat="42.1780005" lon="14.611201"><ele>56.4</ele><time>2026-04-26T07:33:49.242Z</time></trkpt><trkpt lat="42.1779778" lon="14.6110658"><ele>56.8</ele><time>2026-04-26T07:33:51.223Z</time></trkpt><trkpt lat="42.1779534" lon="14.6109636"><ele>57.199999999999996</ele><time>2026-04-26T07:33:52.234Z</time></trkpt><trkpt lat="42.1779194" lon="14.6108382"><ele>57.599999999999994</ele><time>2026-04-26T07:33:53.245Z</time></trkpt><trkpt lat="42.1778834" lon="14.6106876"><ele>58.0</ele><time>2026-04-26T07:33:54.227Z</time></trkpt><trkpt lat="42.1778335" lon="14.6105018"><ele>59.5</ele><time>2026-04-26T07:33:55.25Z</time></trkpt><trkpt lat="42.1777821" lon="14.6103191"><ele>61.0</ele><time>2026-04-26T07:33:56.189Z</time></trkpt><trkpt lat="42.1777359" lon="14.6101441"><ele>62.5</ele><time>2026-04-26T07:33:57.232Z</time></trkpt><trkpt lat="42.1776894" lon="14.6100059"><ele>64.0</ele><time>2026-04-26T07:33:58.238Z</time></trkpt><trkpt lat="42.1776536" lon="14.6098995"><ele>63.99999999999999</ele><time>2026-04-26T07:33:59.25Z</time></trkpt><trkpt lat="42.177609" lon="14.6098158"><ele>64.0</ele><time>2026-04-26T07:34:00.23Z</time></trkpt><trkpt lat="42.1775542" lon="14.6097702"><ele>64.0</ele><time>2026-04-26T07:34:01.222Z</time></trkpt><trkpt lat="42.1774652" lon="14.6096568"><ele>64.0</ele><time>2026-04-26T07:34:03.245Z</time></trkpt><trkpt lat="42.1774383" lon="14.6095752"><ele>63.99999999999999</ele><time>2026-04-26T07:34:04.191Z</time></trkpt><trkpt lat="42.1773897" lon="14.6094649"><ele>64.0</ele><time>2026-04-26T07:34:05.232Z</time></trkpt><trkpt lat="42.1773362" lon="14.6093217"><ele>63.800000000000004</ele><time>2026-04-26T07:34:06.249Z</time></trkpt><trkpt lat="42.1772784" lon="14.6091969"><ele>63.60000000000001</ele><time>2026-04-26T07:34:07.196Z</time></trkpt><trkpt lat="42.1772298" lon="14.6090792"><ele>63.4</ele><time>2026-04-26T07:34:08.193Z</time></trkpt><trkpt lat="42.1771887" lon="14.6089555"><ele>63.2</ele><time>2026-04-26T07:34:09.185Z</time></trkpt><trkpt lat="42.177137" lon="14.608809"><ele>63.0</ele><time>2026-04-26T07:34:10.195Z</time></trkpt><trkpt lat="42.1771061" lon="14.6086698"><ele>64.16666666666667</ele><time>2026-04-26T07:34:11.192Z</time></trkpt><trkpt lat="42.177072" lon="14.6085445"><ele>65.33333333333333</ele><time>2026-04-26T07:34:12.237Z</time></trkpt><trkpt lat="42.1770339" lon="14.608421"><ele>66.5</ele><time>2026-04-26T07:34:13.213Z</time></trkpt><trkpt lat="42.1769997" lon="14.6083124"><ele>67.66666666666666</ele><time>2026-04-26T07:34:14.194Z</time></trkpt><trkpt lat="42.1769697" lon="14.6082193"><ele>68.83333333333333</ele><time>2026-04-26T07:34:15.197Z</time></trkpt><trkpt lat="42.1769414" lon="14.6081063"><ele>70.0</ele><time>2026-04-26T07:34:16.209Z</time></trkpt><trkpt lat="42.1769101" lon="14.6079491"><ele>71.4</ele><time>2026-04-26T07:34:17.223Z</time></trkpt><trkpt lat="42.1768878" lon="14.6077754"><ele>72.8</ele><time>2026-04-26T07:34:18.195Z</time></trkpt><trkpt lat="42.1768748" lon="14.6076182"><ele>74.2</ele><time>2026-04-26T07:34:19.189Z</time></trkpt><trkpt lat="42.1768781" lon="14.6075065"><ele>75.6</ele><time>2026-04-26T07:34:20.188Z</time></trkpt><trkpt lat="42.1768569" lon="14.6074175"><ele>77.0</ele><time>2026-04-26T07:34:21.185Z</time></trkpt><trkpt lat="42.1768081" lon="14.6073137"><ele>77.0</ele><time>2026-04-26T07:34:22.227Z</time></trkpt><trkpt lat="42.1767531" lon="14.6071767"><ele>77.0</ele><time>2026-04-26T07:34:23.226Z</time></trkpt><trkpt lat="42.1766675" lon="14.6070253"><ele>77.0</ele><time>2026-04-26T07:34:24.204Z</time></trkpt><trkpt lat="42.1765776" lon="14.6068809"><ele>77.0</ele><time>2026-04-26T07:34:25.191Z</time></trkpt><trkpt lat="42.1764833" lon="14.6067321"><ele>75.8</ele><time>2026-04-26T07:34:26.21Z</time></trkpt><trkpt lat="42.1764054" lon="14.6066112"><ele>74.6</ele><time>2026-04-26T07:34:27.286Z</time></trkpt><trkpt lat="42.1763301" lon="14.6065114"><ele>73.39999999999999</ele><time>2026-04-26T07:34:28.193Z</time></trkpt><trkpt lat="42.176248" lon="14.6064227"><ele>72.2</ele><time>2026-04-26T07:34:29.182Z</time></trkpt><trkpt lat="42.1761541" lon="14.6063588"><ele>71.0</ele><time>2026-04-26T07:34:30.185Z</time></trkpt><trkpt lat="42.1760446" lon="14.6063121"><ele>71.0</ele><time>2026-04-26T07:34:31.225Z</time></trkpt><trkpt lat="42.1759393" lon="14.6062543"><ele>71.0</ele><time>2026-04-26T07:34:32.242Z</time></trkpt><trkpt lat="42.17585" lon="14.6062218"><ele>71.0</ele><time>2026-04-26T07:34:33.231Z</time></trkpt><trkpt lat="42.175764" lon="14.606222"><ele>71.0</ele><time>2026-04-26T07:34:34.229Z</time></trkpt><trkpt lat="42.1756758" lon="14.606271"><ele>71.0</ele><time>2026-04-26T07:34:35.198Z</time></trkpt><trkpt lat="42.1755978" lon="14.6063215"><ele>71.39999999999999</ele><time>2026-04-26T07:34:36.228Z</time></trkpt><trkpt lat="42.1754982" lon="14.6063535"><ele>71.8</ele><time>2026-04-26T07:34:38.226Z</time></trkpt><trkpt lat="42.175366" lon="14.6063365"><ele>72.19999999999999</ele><time>2026-04-26T07:34:40.246Z</time></trkpt><trkpt lat="42.1752802" lon="14.6063211"><ele>72.6</ele><time>2026-04-26T07:34:41.26Z</time></trkpt><trkpt lat="42.1751938" lon="14.6062929"><ele>73.0</ele><time>2026-04-26T07:34:42.255Z</time></trkpt><trkpt lat="42.1751176" lon="14.6062552"><ele>73.0</ele><time>2026-04-26T07:34:43.21Z</time></trkpt><trkpt lat="42.1750595" lon="14.6062159"><ele>73.0</ele><time>2026-04-26T07:34:44.222Z</time></trkpt><trkpt lat="42.1749805" lon="14.6061423"><ele>73.0</ele><time>2026-04-26T07:34:46.247Z</time></trkpt><trkpt lat="42.1749163" lon="14.6060782"><ele>73.0</ele><time>2026-04-26T07:34:48.242Z</time></trkpt><trkpt lat="42.1748421" lon="14.605983"><ele>73.0</ele><time>2026-04-26T07:34:50.264Z</time></trkpt><trkpt lat="42.1747638" lon="14.6058864"><ele>73.0</ele><time>2026-04-26T07:34:52.196Z</time></trkpt><trkpt lat="42.1746964" lon="14.6058066"><ele>73.0</ele><time>2026-04-26T07:34:54.249Z</time></trkpt><trkpt lat="42.1746135" lon="14.6057354"><ele>73.0</ele><time>2026-04-26T07:34:57.263Z</time></trkpt><trkpt lat="42.1745368" lon="14.6056586"><ele>73.0</ele><time>2026-04-26T07:34:59.235Z</time></trkpt><trkpt lat="42.1744489" lon="14.605588"><ele>73.0</ele><time>2026-04-26T07:35:00.252Z</time></trkpt><trkpt lat="42.174338" lon="14.6054881"><ele>73.0</ele><time>2026-04-26T07:35:01.204Z</time></trkpt><trkpt lat="42.1741992" lon="14.605387"><ele>72.5</ele><time>2026-04-26T07:35:02.241Z</time></trkpt><trkpt lat="42.1740578" lon="14.6052778"><ele>72.0</ele><time>2026-04-26T07:35:03.196Z</time></trkpt><trkpt lat="42.1739362" lon="14.6051968"><ele>71.5</ele><time>2026-04-26T07:35:04.18Z</time></trkpt><trkpt lat="42.173835" lon="14.6051128"><ele>71.0</ele><time>2026-04-26T07:35:05.184Z</time></trkpt><trkpt lat="42.1737139" lon="14.6050473"><ele>72.16666666666667</ele><time>2026-04-26T07:35:06.221Z</time></trkpt><trkpt lat="42.1736231" lon="14.6049848"><ele>73.33333333333334</ele><time>2026-04-26T07:35:07.217Z</time></trkpt><trkpt lat="42.1735557" lon="14.6049319"><ele>74.5</ele><time>2026-04-26T07:35:08.236Z</time></trkpt><trkpt lat="42.1734815" lon="14.6048873"><ele>75.66666666666667</ele><time>2026-04-26T07:35:09.221Z</time></trkpt><trkpt lat="42.1734114" lon="14.6048265"><ele>76.83333333333333</ele><time>2026-04-26T07:35:10.227Z</time></trkpt><trkpt lat="42.1733561" lon="14.6047562"><ele>78.0</ele><time>2026-04-26T07:35:11.191Z</time></trkpt><trkpt lat="42.1733132" lon="14.6046828"><ele>78.0</ele><time>2026-04-26T07:35:12.194Z</time></trkpt><trkpt lat="42.173287" lon="14.6046042"><ele>78.0</ele><time>2026-04-26T07:35:13.209Z</time></trkpt><trkpt lat="42.1732573" lon="14.6044651"><ele>78.0</ele><time>2026-04-26T07:35:15.223Z</time></trkpt><trkpt lat="42.1732413" lon="14.6043728"><ele>78.0</ele><time>2026-04-26T07:35:16.252Z</time></trkpt><trkpt lat="42.1732309" lon="14.6042596"><ele>78.0</ele><time>2026-04-26T07:35:17.235Z</time></trkpt><trkpt lat="42.173224" lon="14.604136"><ele>78.0</ele><time>2026-04-26T07:35:18.251Z</time></trkpt><trkpt lat="42.1732258" lon="14.6040075"><ele>77.66666666666667</ele><time>2026-04-26T07:35:19.239Z</time></trkpt><trkpt lat="42.1732415" lon="14.603887"><ele>77.33333333333333</ele><time>2026-04-26T07:35:20.227Z</time></trkpt><trkpt lat="42.1732687" lon="14.6037829"><ele>77.0</ele><time>2026-04-26T07:35:21.239Z</time></trkpt><trkpt lat="42.1732983" lon="14.6036873"><ele>76.66666666666666</ele><time>2026-04-26T07:35:22.234Z</time></trkpt><trkpt lat="42.173323" lon="14.6035724"><ele>76.33333333333333</ele><time>2026-04-26T07:35:23.252Z</time></trkpt><trkpt lat="42.1733503" lon="14.6034493"><ele>76.0</ele><time>2026-04-26T07:35:24.252Z</time></trkpt><trkpt lat="42.1733687" lon="14.6033311"><ele>76.66666666666666</ele><time>2026-04-26T07:35:25.251Z</time></trkpt><trkpt lat="42.1733866" lon="14.6032068"><ele>77.33333333333333</ele><time>2026-04-26T07:35:26.233Z</time></trkpt><trkpt lat="42.1733969" lon="14.6030856"><ele>78.0</ele><time>2026-04-26T07:35:27.255Z</time></trkpt><trkpt lat="42.1734077" lon="14.6029787"><ele>78.66666666666667</ele><time>2026-04-26T07:35:28.229Z</time></trkpt><trkpt lat="42.1734169" lon="14.6028892"><ele>79.33333333333334</ele><time>2026-04-26T07:35:29.246Z</time></trkpt><trkpt lat="42.1734379" lon="14.6027482"><ele>80.0</ele><time>2026-04-26T07:35:31.248Z</time></trkpt><trkpt lat="42.1734684" lon="14.6025852"><ele>80.5</ele><time>2026-04-26T07:35:33.259Z</time></trkpt><trkpt lat="42.1734649" lon="14.6024366"><ele>81.0</ele><time>2026-04-26T07:35:35.188Z</time></trkpt><trkpt lat="42.1734104" lon="14.6022355"><ele>81.5</ele><time>2026-04-26T07:35:37.185Z</time></trkpt><trkpt lat="42.1733715" lon="14.6021078"><ele>82.0</ele><time>2026-04-26T07:35:38.241Z</time></trkpt><trkpt lat="42.1733114" lon="14.6019947"><ele>82.75</ele><time>2026-04-26T07:35:39.235Z</time></trkpt><trkpt lat="42.1732196" lon="14.601863"><ele>83.5</ele><time>2026-04-26T07:35:40.204Z</time></trkpt><trkpt lat="42.1731488" lon="14.6017177"><ele>84.25</ele><time>2026-04-26T07:35:41.203Z</time></trkpt><trkpt lat="42.1730788" lon="14.601571"><ele>85.0</ele><time>2026-04-26T07:35:42.233Z</time></trkpt><trkpt lat="42.1730155" lon="14.601431"><ele>86.0</ele><time>2026-04-26T07:35:43.194Z</time></trkpt><trkpt lat="42.1729576" lon="14.6012756"><ele>87.0</ele><time>2026-04-26T07:35:44.231Z</time></trkpt><trkpt lat="42.172914" lon="14.6011259"><ele>88.0</ele><time>2026-04-26T07:35:45.324Z</time></trkpt><trkpt lat="42.1728721" lon="14.6009789"><ele>89.0</ele><time>2026-04-26T07:35:46.251Z</time></trkpt><trkpt lat="42.1728298" lon="14.6008233"><ele>89.0</ele><time>2026-04-26T07:35:47.249Z</time></trkpt><trkpt lat="42.1727837" lon="14.600652"><ele>89.0</ele><time>2026-04-26T07:35:48.254Z</time></trkpt><trkpt lat="42.1727348" lon="14.6004929"><ele>89.0</ele><time>2026-04-26T07:35:49.266Z</time></trkpt><trkpt lat="42.1726894" lon="14.6003485"><ele>89.0</ele><time>2026-04-26T07:35:50.267Z</time></trkpt><trkpt lat="42.1726611" lon="14.6002148"><ele>88.6</ele><time>2026-04-26T07:35:51.268Z</time></trkpt><trkpt lat="42.1726336" lon="14.6000896"><ele>88.2</ele><time>2026-04-26T07:35:52.212Z</time></trkpt><trkpt lat="42.1725817" lon="14.5999447"><ele>87.8</ele><time>2026-04-26T07:35:53.191Z</time></trkpt><trkpt lat="42.1725308" lon="14.5997924"><ele>87.39999999999999</ele><time>2026-04-26T07:35:54.251Z</time></trkpt><trkpt lat="42.1724814" lon="14.5996664"><ele>87.0</ele><time>2026-04-26T07:35:55.229Z</time></trkpt><trkpt lat="42.1724596" lon="14.5995469"><ele>87.39999999999999</ele><time>2026-04-26T07:35:56.187Z</time></trkpt><trkpt lat="42.1724548" lon="14.5994092"><ele>87.8</ele><time>2026-04-26T07:35:57.189Z</time></trkpt><trkpt lat="42.1724606" lon="14.5992597"><ele>88.2</ele><time>2026-04-26T07:35:58.187Z</time></trkpt><trkpt lat="42.1724509" lon="14.5991179"><ele>88.6</ele><time>2026-04-26T07:35:59.213Z</time></trkpt><trkpt lat="42.1724619" lon="14.5989979"><ele>89.0</ele><time>2026-04-26T07:36:00.186Z</time></trkpt><trkpt lat="42.1724469" lon="14.5988909"><ele>89.0</ele><time>2026-04-26T07:36:01.186Z</time></trkpt><trkpt lat="42.1724241" lon="14.5987722"><ele>89.0</ele><time>2026-04-26T07:36:02.186Z</time></trkpt><trkpt lat="42.1723916" lon="14.5986617"><ele>89.0</ele><time>2026-04-26T07:36:03.233Z</time></trkpt><trkpt lat="42.1723544" lon="14.5985509"><ele>89.0</ele><time>2026-04-26T07:36:04.232Z</time></trkpt><trkpt lat="42.1723245" lon="14.5984453"><ele>89.0</ele><time>2026-04-26T07:36:05.192Z</time></trkpt><trkpt lat="42.1722924" lon="14.5983556"><ele>89.0</ele><time>2026-04-26T07:36:06.19Z</time></trkpt><trkpt lat="42.1722548" lon="14.5982707"><ele>90.0</ele><time>2026-04-26T07:36:07.226Z</time></trkpt><trkpt lat="42.1722129" lon="14.5981682"><ele>91.0</ele><time>2026-04-26T07:36:09.189Z</time></trkpt><trkpt lat="42.1721656" lon="14.5980774"><ele>92.0</ele><time>2026-04-26T07:36:12.231Z</time></trkpt><trkpt lat="42.1721348" lon="14.5979907"><ele>93.0</ele><time>2026-04-26T07:36:13.218Z</time></trkpt><trkpt lat="42.1721071" lon="14.5978733"><ele>94.0</ele><time>2026-04-26T07:36:15.225Z</time></trkpt><trkpt lat="42.172053" lon="14.5977379"><ele>95.0</ele><time>2026-04-26T07:36:17.191Z</time></trkpt><trkpt lat="42.1720377" lon="14.5976423"><ele>95.0</ele><time>2026-04-26T07:36:18.212Z</time></trkpt><trkpt lat="42.1720151" lon="14.5975405"><ele>95.0</ele><time>2026-04-26T07:36:19.247Z</time></trkpt><trkpt lat="42.1719877" lon="14.5974398"><ele>95.0</ele><time>2026-04-26T07:36:20.225Z</time></trkpt><trkpt lat="42.1719493" lon="14.5973367"><ele>95.0</ele><time>2026-04-26T07:36:21.246Z</time></trkpt><trkpt lat="42.1719068" lon="14.5972264"><ele>95.0</ele><time>2026-04-26T07:36:22.23Z</time></trkpt><trkpt lat="42.1718677" lon="14.5970732"><ele>94.2</ele><time>2026-04-26T07:36:23.243Z</time></trkpt><trkpt lat="42.17182" lon="14.5968955"><ele>93.4</ele><time>2026-04-26T07:36:24.239Z</time></trkpt><trkpt lat="42.1717608" lon="14.5967563"><ele>92.6</ele><time>2026-04-26T07:36:25.185Z</time></trkpt><trkpt lat="42.1717148" lon="14.5966457"><ele>91.8</ele><time>2026-04-26T07:36:26.185Z</time></trkpt><trkpt lat="42.1716838" lon="14.596553"><ele>91.0</ele><time>2026-04-26T07:36:27.226Z</time></trkpt><trkpt lat="42.1716701" lon="14.5964629"><ele>91.0</ele><time>2026-04-26T07:36:29.233Z</time></trkpt><trkpt lat="42.1717938" lon="14.5963709"><ele>91.0</ele><time>2026-04-26T07:36:32.201Z</time></trkpt><trkpt lat="42.1718938" lon="14.596314"><ele>91.0</ele><time>2026-04-26T07:36:33.193Z</time></trkpt><trkpt lat="42.1719938" lon="14.596242"><ele>91.0</ele><time>2026-04-26T07:36:34.182Z</time></trkpt><trkpt lat="42.1720902" lon="14.5961604"><ele>92.0</ele><time>2026-04-26T07:36:35.189Z</time></trkpt><trkpt lat="42.1721897" lon="14.5960722"><ele>93.0</ele><time>2026-04-26T07:36:36.187Z</time></trkpt><trkpt lat="42.1722905" lon="14.59598"><ele>94.0</ele><time>2026-04-26T07:36:37.184Z</time></trkpt><trkpt lat="42.1724003" lon="14.5958604"><ele>95.0</ele><time>2026-04-26T07:36:38.204Z</time></trkpt><trkpt lat="42.172502" lon="14.5957449"><ele>97.2</ele><time>2026-04-26T07:36:39.264Z</time></trkpt><trkpt lat="42.1725784" lon="14.5956515"><ele>99.4</ele><time>2026-04-26T07:36:40.242Z</time></trkpt><trkpt lat="42.1726398" lon="14.5955554"><ele>101.6</ele><time>2026-04-26T07:36:41.193Z</time></trkpt><trkpt lat="42.1726887" lon="14.5954465"><ele>103.8</ele><time>2026-04-26T07:36:42.204Z</time></trkpt><trkpt lat="42.1727335" lon="14.5953327"><ele>106.0</ele><time>2026-04-26T07:36:43.249Z</time></trkpt><trkpt lat="42.1727921" lon="14.5952005"><ele>108.75</ele><time>2026-04-26T07:36:44.261Z</time></trkpt><trkpt lat="42.1728593" lon="14.5950552"><ele>111.5</ele><time>2026-04-26T07:36:45.22Z</time></trkpt><trkpt lat="42.1729142" lon="14.594914"><ele>114.25</ele><time>2026-04-26T07:36:46.184Z</time></trkpt><trkpt lat="42.1729608" lon="14.5947759"><ele>117.0</ele><time>2026-04-26T07:36:47.183Z</time></trkpt><trkpt lat="42.1730045" lon="14.5946373"><ele>117.0</ele><time>2026-04-26T07:36:48.225Z</time></trkpt><trkpt lat="42.1730601" lon="14.5945235"><ele>116.99999999999999</ele><time>2026-04-26T07:36:49.239Z</time></trkpt><trkpt lat="42.1731132" lon="14.5944227"><ele>116.99999999999999</ele><time>2026-04-26T07:36:50.233Z</time></trkpt><trkpt lat="42.1731812" lon="14.5943302"><ele>117.0</ele><time>2026-04-26T07:36:51.189Z</time></trkpt><trkpt lat="42.1732429" lon="14.5942514"><ele>117.0</ele><time>2026-04-26T07:36:52.198Z</time></trkpt><trkpt lat="42.1733197" lon="14.5942056"><ele>118.66666666666667</ele><time>2026-04-26T07:36:53.224Z</time></trkpt><trkpt lat="42.1734175" lon="14.5941668"><ele>120.33333333333334</ele><time>2026-04-26T07:36:54.193Z</time></trkpt><trkpt lat="42.1734844" lon="14.5941437"><ele>122.0</ele><time>2026-04-26T07:36:55.247Z</time></trkpt><trkpt lat="42.1735479" lon="14.594134"><ele>123.66666666666667</ele><time>2026-04-26T07:36:57.189Z</time></trkpt><trkpt lat="42.1735888" lon="14.5942692"><ele>125.33333333333334</ele><time>2026-04-26T07:36:59.211Z</time></trkpt><trkpt lat="42.1736015" lon="14.5943571"><ele>127.0</ele><time>2026-04-26T07:37:00.224Z</time></trkpt><trkpt lat="42.1736032" lon="14.5944727"><ele>126.5</ele><time>2026-04-26T07:37:01.21Z</time></trkpt><trkpt lat="42.1736093" lon="14.5946198"><ele>126.0</ele><time>2026-04-26T07:37:02.223Z</time></trkpt><trkpt lat="42.1736205" lon="14.5947972"><ele>125.5</ele><time>2026-04-26T07:37:03.197Z</time></trkpt><trkpt lat="42.1736386" lon="14.5949746"><ele>125.0</ele><time>2026-04-26T07:37:04.211Z</time></trkpt><trkpt lat="42.1736736" lon="14.5951616"><ele>124.75</ele><time>2026-04-26T07:37:05.198Z</time></trkpt><trkpt lat="42.1737108" lon="14.5953407"><ele>124.5</ele><time>2026-04-26T07:37:06.193Z</time></trkpt><trkpt lat="42.1737568" lon="14.5955303"><ele>124.25</ele><time>2026-04-26T07:37:07.203Z</time></trkpt><trkpt lat="42.1737977" lon="14.5957195"><ele>124.0</ele><time>2026-04-26T07:37:08.204Z</time></trkpt><trkpt lat="42.1738336" lon="14.5959185"><ele>124.0</ele><time>2026-04-26T07:37:09.193Z</time></trkpt><trkpt lat="42.1738596" lon="14.5961055"><ele>124.0</ele><time>2026-04-26T07:37:10.2Z</time></trkpt><trkpt lat="42.1738883" lon="14.5962845"><ele>124.0</ele><time>2026-04-26T07:37:11.212Z</time></trkpt><trkpt lat="42.1739151" lon="14.5964528"><ele>124.0</ele><time>2026-04-26T07:37:12.221Z</time></trkpt><trkpt lat="42.1739364" lon="14.5966129"><ele>123.16666666666667</ele><time>2026-04-26T07:37:13.224Z</time></trkpt><trkpt lat="42.173941" lon="14.5967488"><ele>122.33333333333334</ele><time>2026-04-26T07:37:14.19Z</time></trkpt><trkpt lat="42.1739374" lon="14.5968701"><ele>121.5</ele><time>2026-04-26T07:37:15.202Z</time></trkpt><trkpt lat="42.173924" lon="14.5969861"><ele>120.66666666666666</ele><time>2026-04-26T07:37:16.2Z</time></trkpt><trkpt lat="42.1739154" lon="14.5970917"><ele>119.83333333333333</ele><time>2026-04-26T07:37:17.196Z</time></trkpt><trkpt lat="42.1739154" lon="14.5972103"><ele>119.0</ele><time>2026-04-26T07:37:18.223Z</time></trkpt><trkpt lat="42.1739317" lon="14.5973311"><ele>119.0</ele><time>2026-04-26T07:37:19.202Z</time></trkpt><trkpt lat="42.1739531" lon="14.5974694"><ele>119.0</ele><time>2026-04-26T07:37:20.236Z</time></trkpt><trkpt lat="42.1739763" lon="14.597601"><ele>119.0</ele><time>2026-04-26T07:37:21.238Z</time></trkpt><trkpt lat="42.1740027" lon="14.5977486"><ele>119.0</ele><time>2026-04-26T07:37:22.203Z</time></trkpt><trkpt lat="42.1740232" lon="14.5978969"><ele>119.0</ele><time>2026-04-26T07:37:23.228Z</time></trkpt><trkpt lat="42.1740422" lon="14.598058"><ele>119.0</ele><time>2026-04-26T07:37:24.217Z</time></trkpt><trkpt lat="42.174064" lon="14.5982288"><ele>119.0</ele><time>2026-04-26T07:37:25.221Z</time></trkpt><trkpt lat="42.1740901" lon="14.598404"><ele>119.0</ele><time>2026-04-26T07:37:26.241Z</time></trkpt><trkpt lat="42.1741142" lon="14.5985926"><ele>119.0</ele><time>2026-04-26T07:37:27.243Z</time></trkpt><trkpt lat="42.1741401" lon="14.5987874"><ele>118.33333333333333</ele><time>2026-04-26T07:37:28.235Z</time></trkpt><trkpt lat="42.174166" lon="14.5989913"><ele>117.66666666666666</ele><time>2026-04-26T07:37:29.222Z</time></trkpt><trkpt lat="42.1741886" lon="14.5992017"><ele>117.0</ele><time>2026-04-26T07:37:30.236Z</time></trkpt><trkpt lat="42.1742174" lon="14.5994065"><ele>115.75</ele><time>2026-04-26T07:37:31.206Z</time></trkpt><trkpt lat="42.174251" lon="14.5995984"><ele>114.5</ele><time>2026-04-26T07:37:32.25Z</time></trkpt><trkpt lat="42.1742897" lon="14.5997907"><ele>113.25</ele><time>2026-04-26T07:37:33.192Z</time></trkpt><trkpt lat="42.1743338" lon="14.5999886"><ele>112.0</ele><time>2026-04-26T07:37:34.236Z</time></trkpt><trkpt lat="42.1743837" lon="14.60019"><ele>111.0</ele><time>2026-04-26T07:37:35.25Z</time></trkpt><trkpt lat="42.1744285" lon="14.6003946"><ele>110.0</ele><time>2026-04-26T07:37:36.237Z</time></trkpt><trkpt lat="42.1744683" lon="14.6005883"><ele>109.0</ele><time>2026-04-26T07:37:37.255Z</time></trkpt><trkpt lat="42.1745115" lon="14.6007646"><ele>108.0</ele><time>2026-04-26T07:37:38.191Z</time></trkpt><trkpt lat="42.1745571" lon="14.6009351"><ele>108.0</ele><time>2026-04-26T07:37:39.243Z</time></trkpt><trkpt lat="42.1746178" lon="14.601109"><ele>108.0</ele><time>2026-04-26T07:37:40.238Z</time></trkpt><trkpt lat="42.1746928" lon="14.6012927"><ele>108.0</ele><time>2026-04-26T07:37:41.204Z</time></trkpt><trkpt lat="42.1747789" lon="14.6014887"><ele>109.0</ele><time>2026-04-26T07:37:42.241Z</time></trkpt><trkpt lat="42.1748717" lon="14.6016921"><ele>110.0</ele><time>2026-04-26T07:37:43.24Z</time></trkpt><trkpt lat="42.1749592" lon="14.6018784"><ele>111.0</ele><time>2026-04-26T07:37:44.229Z</time></trkpt><trkpt lat="42.1750264" lon="14.6020443"><ele>111.0</ele><time>2026-04-26T07:37:45.239Z</time></trkpt><trkpt lat="42.1750886" lon="14.6022001"><ele>111.0</ele><time>2026-04-26T07:37:46.225Z</time></trkpt><trkpt lat="42.1751523" lon="14.602348"><ele>111.0</ele><time>2026-04-26T07:37:47.257Z</time></trkpt><trkpt lat="42.1752268" lon="14.6024986"><ele>111.0</ele><time>2026-04-26T07:37:48.228Z</time></trkpt><trkpt lat="42.1753189" lon="14.6026512"><ele>111.0</ele><time>2026-04-26T07:37:49.276Z</time></trkpt><trkpt lat="42.1754265" lon="14.6027961"><ele>111.0</ele><time>2026-04-26T07:37:50.256Z</time></trkpt><trkpt lat="42.1755442" lon="14.602944"><ele>111.0</ele><time>2026-04-26T07:37:51.19Z</time></trkpt><trkpt lat="42.1756704" lon="14.6031059"><ele>111.0</ele><time>2026-04-26T07:37:52.2Z</time></trkpt><trkpt lat="42.1758043" lon="14.6032649"><ele>111.0</ele><time>2026-04-26T07:37:53.202Z</time></trkpt><trkpt lat="42.1759469" lon="14.6034152"><ele>111.0</ele><time>2026-04-26T07:37:54.235Z</time></trkpt><trkpt lat="42.176096" lon="14.6035591"><ele>109.66666666666666</ele><time>2026-04-26T07:37:55.196Z</time></trkpt><trkpt lat="42.1762312" lon="14.603701"><ele>108.33333333333333</ele><time>2026-04-26T07:37:56.206Z</time></trkpt><trkpt lat="42.1763592" lon="14.6038332"><ele>107.0</ele><time>2026-04-26T07:37:57.233Z</time></trkpt><trkpt lat="42.1764851" lon="14.6039688"><ele>108.0</ele><time>2026-04-26T07:37:58.203Z</time></trkpt><trkpt lat="42.1766037" lon="14.6041128"><ele>109.0</ele><time>2026-04-26T07:37:59.239Z</time></trkpt><trkpt lat="42.1767205" lon="14.6042464"><ele>110.0</ele><time>2026-04-26T07:38:00.231Z</time></trkpt><trkpt lat="42.1768347" lon="14.6043874"><ele>108.0</ele><time>2026-04-26T07:38:01.248Z</time></trkpt><trkpt lat="42.176951" lon="14.6045357"><ele>106.0</ele><time>2026-04-26T07:38:02.242Z</time></trkpt><trkpt lat="42.1770637" lon="14.6046842"><ele>104.0</ele><time>2026-04-26T07:38:03.198Z</time></trkpt><trkpt lat="42.1771757" lon="14.6048271"><ele>104.0</ele><time>2026-04-26T07:38:04.247Z</time></trkpt><trkpt lat="42.1772893" lon="14.6049697"><ele>104.0</ele><time>2026-04-26T07:38:05.249Z</time></trkpt><trkpt lat="42.1773888" lon="14.6051277"><ele>104.0</ele><time>2026-04-26T07:38:06.238Z</time></trkpt><trkpt lat="42.1774865" lon="14.6052939"><ele>104.33333333333333</ele><time>2026-04-26T07:38:07.256Z</time></trkpt><trkpt lat="42.1775796" lon="14.6054609"><ele>104.66666666666666</ele><time>2026-04-26T07:38:08.238Z</time></trkpt><trkpt lat="42.177675" lon="14.605631"><ele>105.0</ele><time>2026-04-26T07:38:09.23Z</time></trkpt><trkpt lat="42.1777735" lon="14.6057996"><ele>105.0</ele><time>2026-04-26T07:38:10.189Z</time></trkpt><trkpt lat="42.1778708" lon="14.6059515"><ele>105.0</ele><time>2026-04-26T07:38:11.265Z</time></trkpt><trkpt lat="42.1779627" lon="14.6060822"><ele>105.0</ele><time>2026-04-26T07:38:12.228Z</time></trkpt><trkpt lat="42.1780409" lon="14.6061985"><ele>105.0</ele><time>2026-04-26T07:38:13.206Z</time></trkpt><trkpt lat="42.178103" lon="14.6062944"><ele>104.8</ele><time>2026-04-26T07:38:14.19Z</time></trkpt><trkpt lat="42.1781409" lon="14.6063824"><ele>104.6</ele><time>2026-04-26T07:38:15.223Z</time></trkpt><trkpt lat="42.1781625" lon="14.6064905"><ele>104.4</ele><time>2026-04-26T07:38:16.212Z</time></trkpt><trkpt lat="42.1781709" lon="14.6066224"><ele>104.2</ele><time>2026-04-26T07:38:17.194Z</time></trkpt><trkpt lat="42.1781787" lon="14.6067685"><ele>104.0</ele><time>2026-04-26T07:38:18.252Z</time></trkpt><trkpt lat="42.1782051" lon="14.6069307"><ele>103.6</ele><time>2026-04-26T07:38:19.233Z</time></trkpt><trkpt lat="42.1782381" lon="14.6071033"><ele>103.2</ele><time>2026-04-26T07:38:20.212Z</time></trkpt><trkpt lat="42.1782687" lon="14.6072478"><ele>102.8</ele><time>2026-04-26T07:38:21.247Z</time></trkpt><trkpt lat="42.1782918" lon="14.6073688"><ele>102.39999999999999</ele><time>2026-04-26T07:38:22.242Z</time></trkpt><trkpt lat="42.1783087" lon="14.6074944"><ele>102.0</ele><time>2026-04-26T07:38:23.213Z</time></trkpt><trkpt lat="42.1783211" lon="14.6076378"><ele>102.0</ele><time>2026-04-26T07:38:24.236Z</time></trkpt><trkpt lat="42.1783167" lon="14.6077986"><ele>102.0</ele><time>2026-04-26T07:38:25.244Z</time></trkpt><trkpt lat="42.1783155" lon="14.6079616"><ele>102.0</ele><time>2026-04-26T07:38:26.201Z</time></trkpt><trkpt lat="42.17831" lon="14.6081308"><ele>102.0</ele><time>2026-04-26T07:38:27.189Z</time></trkpt><trkpt lat="42.1782958" lon="14.6082954"><ele>101.5</ele><time>2026-04-26T07:38:28.238Z</time></trkpt><trkpt lat="42.1782871" lon="14.6084362"><ele>101.0</ele><time>2026-04-26T07:38:29.233Z</time></trkpt><trkpt lat="42.178266" lon="14.6085549"><ele>100.5</ele><time>2026-04-26T07:38:30.251Z</time></trkpt><trkpt lat="42.1782499" lon="14.6086631"><ele>100.0</ele><time>2026-04-26T07:38:31.237Z</time></trkpt><trkpt lat="42.1782265" lon="14.6087615"><ele>99.5</ele><time>2026-04-26T07:38:32.216Z</time></trkpt><trkpt lat="42.1782061" lon="14.608853"><ele>99.0</ele><time>2026-04-26T07:38:33.218Z</time></trkpt><trkpt lat="42.1781829" lon="14.609007"><ele>94.60000000000001</ele><time>2026-04-26T07:38:35.243Z</time></trkpt><trkpt lat="42.1781353" lon="14.6091253"><ele>90.2</ele><time>2026-04-26T07:38:37.269Z</time></trkpt><trkpt lat="42.1780394" lon="14.6091836"><ele>85.80000000000001</ele><time>2026-04-26T07:38:39.247Z</time></trkpt><trkpt lat="42.1779743" lon="14.6091667"><ele>81.4</ele><time>2026-04-26T07:38:40.255Z</time></trkpt><trkpt lat="42.1778742" lon="14.6091427"><ele>77.0</ele><time>2026-04-26T07:38:42.251Z</time></trkpt><trkpt lat="42.1777978" lon="14.6092246"><ele>77.0</ele><time>2026-04-26T07:38:44.2Z</time></trkpt><trkpt lat="42.1777699" lon="14.6093737"><ele>77.0</ele><time>2026-04-26T07:38:46.243Z</time></trkpt><trkpt lat="42.1777348" lon="14.6095314"><ele>77.0</ele><time>2026-04-26T07:38:48.25Z</time></trkpt><trkpt lat="42.1777119" lon="14.6096134"><ele>77.0</ele><time>2026-04-26T07:38:49.255Z</time></trkpt><trkpt lat="42.1776725" lon="14.6097715"><ele>77.0</ele><time>2026-04-26T07:38:51.259Z</time></trkpt><trkpt lat="42.1776603" lon="14.6098593"><ele>74.83333333333334</ele><time>2026-04-26T07:38:52.249Z</time></trkpt><trkpt lat="42.1776583" lon="14.6099485"><ele>72.66666666666667</ele><time>2026-04-26T07:38:53.242Z</time></trkpt><trkpt lat="42.1776756" lon="14.6100384"><ele>70.5</ele><time>2026-04-26T07:38:54.24Z</time></trkpt><trkpt lat="42.1777149" lon="14.61014"><ele>68.33333333333333</ele><time>2026-04-26T07:38:55.292Z</time></trkpt><trkpt lat="42.1777608" lon="14.6102425"><ele>66.16666666666666</ele><time>2026-04-26T07:38:56.235Z</time></trkpt><trkpt lat="42.1777987" lon="14.6103538"><ele>64.0</ele><time>2026-04-26T07:38:57.24Z</time></trkpt><trkpt lat="42.177822" lon="14.6104654"><ele>62.99999999999999</ele><time>2026-04-26T07:38:58.2Z</time></trkpt><trkpt lat="42.1778496" lon="14.6105728"><ele>62.0</ele><time>2026-04-26T07:38:59.251Z</time></trkpt><trkpt lat="42.1778772" lon="14.6106954"><ele>61.0</ele><time>2026-04-26T07:39:00.268Z</time></trkpt><trkpt lat="42.1779091" lon="14.6108281"><ele>60.0</ele><time>2026-04-26T07:39:01.246Z</time></trkpt><trkpt lat="42.1779339" lon="14.6109357"><ele>58.99999999999999</ele><time>2026-04-26T07:39:02.247Z</time></trkpt><trkpt lat="42.1779577" lon="14.6110299"><ele>58.0</ele><time>2026-04-26T07:39:03.258Z</time></trkpt><trkpt lat="42.177964" lon="14.6111169"><ele>57.599999999999994</ele><time>2026-04-26T07:39:04.201Z</time></trkpt><trkpt lat="42.178018" lon="14.6112449"><ele>57.199999999999996</ele><time>2026-04-26T07:39:06.186Z</time></trkpt><trkpt lat="42.178089" lon="14.611317"><ele>56.8</ele><time>2026-04-26T07:39:07.198Z</time></trkpt><trkpt lat="42.1781786" lon="14.6113866"><ele>56.4</ele><time>2026-04-26T07:39:08.183Z</time></trkpt><trkpt lat="42.1782724" lon="14.6114458"><ele>56.0</ele><time>2026-04-26T07:39:09.21Z</time></trkpt><trkpt lat="42.1783624" lon="14.6114992"><ele>55.8</ele><time>2026-04-26T07:39:10.216Z</time></trkpt><trkpt lat="42.1784467" lon="14.6115242"><ele>55.599999999999994</ele><time>2026-04-26T07:39:11.242Z</time></trkpt><trkpt lat="42.1785387" lon="14.6115556"><ele>55.4</ele><time>2026-04-26T07:39:12.227Z</time></trkpt><trkpt lat="42.1786341" lon="14.611577"><ele>55.2</ele><time>2026-04-26T07:39:13.199Z</time></trkpt><trkpt lat="42.1787361" lon="14.6115924"><ele>55.0</ele><time>2026-04-26T07:39:14.181Z</time></trkpt><trkpt lat="42.1788415" lon="14.6116147"><ele>55.0</ele><time>2026-04-26T07:39:15.185Z</time></trkpt><trkpt lat="42.178958" lon="14.6116281"><ele>55.0</ele><time>2026-04-26T07:39:16.183Z</time></trkpt><trkpt lat="42.1790647" lon="14.6116286"><ele>55.0</ele><time>2026-04-26T07:39:17.191Z</time></trkpt><trkpt lat="42.1791655" lon="14.6116145"><ele>55.0</ele><time>2026-04-26T07:39:18.185Z</time></trkpt><trkpt lat="42.1792963" lon="14.6116135"><ele>54.75</ele><time>2026-04-26T07:39:19.184Z</time></trkpt><trkpt lat="42.1794349" lon="14.6115897"><ele>54.5</ele><time>2026-04-26T07:39:20.183Z</time></trkpt><trkpt lat="42.1795517" lon="14.6115678"><ele>54.25</ele><time>2026-04-26T07:39:21.183Z</time></trkpt><trkpt lat="42.1796623" lon="14.6115576"><ele>54.0</ele><time>2026-04-26T07:39:22.183Z</time></trkpt><trkpt lat="42.1797744" lon="14.61159"><ele>53.400000000000006</ele><time>2026-04-26T07:39:23.238Z</time></trkpt><trkpt lat="42.179887" lon="14.6116111"><ele>52.800000000000004</ele><time>2026-04-26T07:39:24.223Z</time></trkpt><trkpt lat="42.1799948" lon="14.6116225"><ele>52.2</ele><time>2026-04-26T07:39:25.209Z</time></trkpt><trkpt lat="42.1800989" lon="14.6116136"><ele>51.599999999999994</ele><time>2026-04-26T07:39:26.18Z</time></trkpt><trkpt lat="42.1802112" lon="14.6115703"><ele>51.0</ele><time>2026-04-26T07:39:27.187Z</time></trkpt><trkpt lat="42.1803343" lon="14.611509"><ele>51.0</ele><time>2026-04-26T07:39:28.184Z</time></trkpt><trkpt lat="42.1804685" lon="14.6114001"><ele>51.0</ele><time>2026-04-26T07:39:29.232Z</time></trkpt><trkpt lat="42.1806139" lon="14.6112868"><ele>51.0</ele><time>2026-04-26T07:39:30.177Z</time></trkpt><trkpt lat="42.1807447" lon="14.6112017"><ele>52.5</ele><time>2026-04-26T07:39:31.179Z</time></trkpt><trkpt lat="42.1808686" lon="14.6111235"><ele>54.0</ele><time>2026-04-26T07:39:32.19Z</time></trkpt><trkpt lat="42.1809911" lon="14.6110437"><ele>55.5</ele><time>2026-04-26T07:39:33.188Z</time></trkpt><trkpt lat="42.1811209" lon="14.6109651"><ele>57.0</ele><time>2026-04-26T07:39:34.183Z</time></trkpt><trkpt lat="42.1812586" lon="14.6109225"><ele>57.0</ele><time>2026-04-26T07:39:35.195Z</time></trkpt><trkpt lat="42.1813999" lon="14.6108824"><ele>57.0</ele><time>2026-04-26T07:39:36.187Z</time></trkpt><trkpt lat="42.1815333" lon="14.6108228"><ele>57.0</ele><time>2026-04-26T07:39:37.181Z</time></trkpt><trkpt lat="42.1816503" lon="14.6107625"><ele>57.0</ele><time>2026-04-26T07:39:38.185Z</time></trkpt><trkpt lat="42.1817656" lon="14.610746"><ele>55.5</ele><time>2026-04-26T07:39:39.186Z</time></trkpt><trkpt lat="42.1818781" lon="14.6107481"><ele>54.0</ele><time>2026-04-26T07:39:40.186Z</time></trkpt><trkpt lat="42.182005" lon="14.6107387"><ele>52.5</ele><time>2026-04-26T07:39:41.189Z</time></trkpt><trkpt lat="42.1821443" lon="14.6107309"><ele>51.0</ele><time>2026-04-26T07:39:42.184Z</time></trkpt><trkpt lat="42.1822719" lon="14.6107324"><ele>50.599999999999994</ele><time>2026-04-26T07:39:43.234Z</time></trkpt><trkpt lat="42.1823847" lon="14.6107321"><ele>50.2</ele><time>2026-04-26T07:39:44.233Z</time></trkpt><trkpt lat="42.1824965" lon="14.6107291"><ele>49.8</ele><time>2026-04-26T07:39:45.195Z</time></trkpt><trkpt lat="42.1826066" lon="14.6107237"><ele>49.400000000000006</ele><time>2026-04-26T07:39:46.19Z</time></trkpt><trkpt lat="42.1827162" lon="14.6107291"><ele>49.0</ele><time>2026-04-26T07:39:47.185Z</time></trkpt><trkpt lat="42.1828314" lon="14.6107213"><ele>49.0</ele><time>2026-04-26T07:39:48.182Z</time></trkpt><trkpt lat="42.1829317" lon="14.6107274"><ele>49.0</ele><time>2026-04-26T07:39:49.186Z</time></trkpt><trkpt lat="42.1830416" lon="14.6107356"><ele>49.0</ele><time>2026-04-26T07:39:50.19Z</time></trkpt><trkpt lat="42.1831508" lon="14.610749"><ele>49.0</ele><time>2026-04-26T07:39:51.183Z</time></trkpt><trkpt lat="42.1832535" lon="14.6107706"><ele>49.0</ele><time>2026-04-26T07:39:52.199Z</time></trkpt><trkpt lat="42.1833476" lon="14.6108038"><ele>48.0</ele><time>2026-04-26T07:39:53.186Z</time></trkpt><trkpt lat="42.1834583" lon="14.6108206"><ele>47.0</ele><time>2026-04-26T07:39:54.19Z</time></trkpt><trkpt lat="42.1835739" lon="14.6108228"><ele>46.0</ele><time>2026-04-26T07:39:55.188Z</time></trkpt><trkpt lat="42.1836888" lon="14.6108026"><ele>45.0</ele><time>2026-04-26T07:39:56.188Z</time></trkpt><trkpt lat="42.1838007" lon="14.610771"><ele>45.0</ele><time>2026-04-26T07:39:57.183Z</time></trkpt><trkpt lat="42.1839174" lon="14.6107482"><ele>45.0</ele><time>2026-04-26T07:39:58.236Z</time></trkpt><trkpt lat="42.1840464" lon="14.6107259"><ele>45.0</ele><time>2026-04-26T07:39:59.223Z</time></trkpt><trkpt lat="42.184146" lon="14.6106907"><ele>45.0</ele><time>2026-04-26T07:40:00.228Z</time></trkpt><trkpt lat="42.1842186" lon="14.6106746"><ele>45.0</ele><time>2026-04-26T07:40:01.228Z</time></trkpt><trkpt lat="42.1842822" lon="14.6106496"><ele>44.666666666666664</ele><time>2026-04-26T07:40:02.207Z</time></trkpt><trkpt lat="42.1843628" lon="14.6106022"><ele>44.333333333333336</ele><time>2026-04-26T07:40:04.211Z</time></trkpt><trkpt lat="42.1844325" lon="14.6106232"><ele>44.0</ele><time>2026-04-26T07:40:06.248Z</time></trkpt><trkpt lat="42.184493" lon="14.6106535"><ele>43.66666666666667</ele><time>2026-04-26T07:40:08.214Z</time></trkpt><trkpt lat="42.1845513" lon="14.6107298"><ele>43.333333333333336</ele><time>2026-04-26T07:40:12.192Z</time></trkpt><trkpt lat="42.184618" lon="14.6108516"><ele>43.0</ele><time>2026-04-26T07:40:14.187Z</time></trkpt><trkpt lat="42.1846607" lon="14.6109453"><ele>43.0</ele><time>2026-04-26T07:40:15.185Z</time></trkpt><trkpt lat="42.1847253" lon="14.611036"><ele>43.0</ele><time>2026-04-26T07:40:16.196Z</time></trkpt><trkpt lat="42.184734" lon="14.6112099"><ele>43.0</ele><time>2026-04-26T07:40:18.237Z</time></trkpt><trkpt lat="42.18471" lon="14.6113199"><ele>43.0</ele><time>2026-04-26T07:40:19.225Z</time></trkpt><trkpt lat="42.184662" lon="14.6114435"><ele>43.0</ele><time>2026-04-26T07:40:20.221Z</time></trkpt><trkpt lat="42.1846205" lon="14.6115586"><ele>43.75</ele><time>2026-04-26T07:40:21.23Z</time></trkpt><trkpt lat="42.1845883" lon="14.6116572"><ele>44.5</ele><time>2026-04-26T07:40:22.257Z</time></trkpt><trkpt lat="42.1845464" lon="14.6117985"><ele>45.25</ele><time>2026-04-26T07:40:24.184Z</time></trkpt><trkpt lat="42.1846293" lon="14.6119544"><ele>46.0</ele><time>2026-04-26T07:40:26.189Z</time></trkpt><trkpt lat="42.18474" lon="14.6120643"><ele>48.0</ele><time>2026-04-26T07:40:27.225Z</time></trkpt><trkpt lat="42.1848774" lon="14.612158"><ele>50.0</ele><time>2026-04-26T07:40:28.205Z</time></trkpt><trkpt lat="42.1850156" lon="14.6122508"><ele>52.0</ele><time>2026-04-26T07:40:29.229Z</time></trkpt><trkpt lat="42.1851651" lon="14.6123492"><ele>52.0</ele><time>2026-04-26T07:40:30.225Z</time></trkpt><trkpt lat="42.185315" lon="14.6124608"><ele>52.0</ele><time>2026-04-26T07:40:31.211Z</time></trkpt><trkpt lat="42.1854585" lon="14.6125656"><ele>52.0</ele><time>2026-04-26T07:40:32.187Z</time></trkpt><trkpt lat="42.1856025" lon="14.612658"><ele>54.0</ele><time>2026-04-26T07:40:33.18Z</time></trkpt><trkpt lat="42.1857424" lon="14.6127532"><ele>56.0</ele><time>2026-04-26T07:40:34.179Z</time></trkpt><trkpt lat="42.1858778" lon="14.6128817"><ele>58.0</ele><time>2026-04-26T07:40:35.18Z</time></trkpt><trkpt lat="42.1860037" lon="14.6129945"><ele>58.0</ele><time>2026-04-26T07:40:36.203Z</time></trkpt><trkpt lat="42.1861313" lon="14.6131081"><ele>58.0</ele><time>2026-04-26T07:40:37.197Z</time></trkpt><trkpt lat="42.1862537" lon="14.6131905"><ele>58.0</ele><time>2026-04-26T07:40:38.194Z</time></trkpt><trkpt lat="42.186356" lon="14.6132818"><ele>58.0</ele><time>2026-04-26T07:40:39.214Z</time></trkpt><trkpt lat="42.1864587" lon="14.6133904"><ele>57.666666666666664</ele><time>2026-04-26T07:40:40.214Z</time></trkpt><trkpt lat="42.1865724" lon="14.6135373"><ele>57.33333333333333</ele><time>2026-04-26T07:40:41.18Z</time></trkpt><trkpt lat="42.1867138" lon="14.6136969"><ele>57.0</ele><time>2026-04-26T07:40:42.243Z</time></trkpt><trkpt lat="42.1868658" lon="14.6138676"><ele>57.0</ele><time>2026-04-26T07:40:43.228Z</time></trkpt><trkpt lat="42.1870289" lon="14.614026"><ele>57.0</ele><time>2026-04-26T07:40:44.227Z</time></trkpt><trkpt lat="42.1872006" lon="14.6141589"><ele>57.0</ele><time>2026-04-26T07:40:45.218Z</time></trkpt><trkpt lat="42.1873615" lon="14.6142779"><ele>57.33333333333333</ele><time>2026-04-26T07:40:46.243Z</time></trkpt><trkpt lat="42.1875143" lon="14.6143824"><ele>57.666666666666664</ele><time>2026-04-26T07:40:47.189Z</time></trkpt><trkpt lat="42.1876597" lon="14.6144561"><ele>58.0</ele><time>2026-04-26T07:40:48.231Z</time></trkpt><trkpt lat="42.187779" lon="14.614516"><ele>58.0</ele><time>2026-04-26T07:40:49.227Z</time></trkpt><trkpt lat="42.1878889" lon="14.6145929"><ele>58.0</ele><time>2026-04-26T07:40:50.219Z</time></trkpt><trkpt lat="42.1880021" lon="14.6146986"><ele>58.0</ele><time>2026-04-26T07:40:51.189Z</time></trkpt><trkpt lat="42.1881214" lon="14.6148191"><ele>58.0</ele><time>2026-04-26T07:40:52.186Z</time></trkpt><trkpt lat="42.1882609" lon="14.6149486"><ele>56.666666666666664</ele><time>2026-04-26T07:40:53.186Z</time></trkpt><trkpt lat="42.1884119" lon="14.6150914"><ele>55.33333333333333</ele><time>2026-04-26T07:40:54.179Z</time></trkpt><trkpt lat="42.1885555" lon="14.6152521"><ele>54.0</ele><time>2026-04-26T07:40:55.178Z</time></trkpt><trkpt lat="42.1887078" lon="14.6153909"><ele>54.0</ele><time>2026-04-26T07:40:56.189Z</time></trkpt><trkpt lat="42.1888829" lon="14.6154897"><ele>54.0</ele><time>2026-04-26T07:40:57.179Z</time></trkpt><trkpt lat="42.1890605" lon="14.6155557"><ele>54.0</ele><time>2026-04-26T07:40:58.178Z</time></trkpt><trkpt lat="42.1892072" lon="14.6156282"><ele>49.25</ele><time>2026-04-26T07:40:59.231Z</time></trkpt><trkpt lat="42.1893201" lon="14.6156869"><ele>44.5</ele><time>2026-04-26T07:41:00.186Z</time></trkpt><trkpt lat="42.1894381" lon="14.6157412"><ele>39.75</ele><time>2026-04-26T07:41:01.183Z</time></trkpt><trkpt lat="42.1895689" lon="14.6158012"><ele>35.0</ele><time>2026-04-26T07:41:02.181Z</time></trkpt><trkpt lat="42.1897015" lon="14.6158425"><ele>35.0</ele><time>2026-04-26T07:41:03.2Z</time></trkpt><trkpt lat="42.1898173" lon="14.6158499"><ele>35.0</ele><time>2026-04-26T07:41:04.239Z</time></trkpt><trkpt lat="42.1899427" lon="14.615844"><ele>35.0</ele><time>2026-04-26T07:41:05.191Z</time></trkpt><trkpt lat="42.1900785" lon="14.6158073"><ele>35.0</ele><time>2026-04-26T07:41:06.179Z</time></trkpt><trkpt lat="42.1902278" lon="14.6157632"><ele>33.75</ele><time>2026-04-26T07:41:07.18Z</time></trkpt><trkpt lat="42.1903624" lon="14.6157343"><ele>32.5</ele><time>2026-04-26T07:41:08.252Z</time></trkpt><trkpt lat="42.19047" lon="14.6157429"><ele>31.25</ele><time>2026-04-26T07:41:09.249Z</time></trkpt><trkpt lat="42.1905788" lon="14.615752"><ele>30.0</ele><time>2026-04-26T07:41:10.241Z</time></trkpt><trkpt lat="42.1906764" lon="14.6157776"><ele>28.6</ele><time>2026-04-26T07:41:11.258Z</time></trkpt><trkpt lat="42.1907713" lon="14.61582"><ele>27.2</ele><time>2026-04-26T07:41:12.186Z</time></trkpt><trkpt lat="42.1908585" lon="14.615838"><ele>25.799999999999997</ele><time>2026-04-26T07:41:13.187Z</time></trkpt><trkpt lat="42.1909893" lon="14.6158643"><ele>24.4</ele><time>2026-04-26T07:41:15.239Z</time></trkpt><trkpt lat="42.1910546" lon="14.6158622"><ele>23.0</ele><time>2026-04-26T07:41:16.253Z</time></trkpt><trkpt lat="42.1911302" lon="14.6158442"><ele>23.0</ele><time>2026-04-26T07:41:18.2Z</time></trkpt><trkpt lat="42.1911583" lon="14.6157443"><ele>23.0</ele><time>2026-04-26T07:41:22.189Z</time></trkpt><trkpt lat="42.1910998" lon="14.6155143"><ele>23.0</ele><time>2026-04-26T07:41:24.189Z</time></trkpt><trkpt lat="42.1910611" lon="14.6153476"><ele>23.0</ele><time>2026-04-26T07:41:25.21Z</time></trkpt><trkpt lat="42.1910339" lon="14.6152052"><ele>23.0</ele><time>2026-04-26T07:41:26.241Z</time></trkpt><trkpt lat="42.1910043" lon="14.6150662"><ele>23.0</ele><time>2026-04-26T07:41:28.198Z</time></trkpt><trkpt lat="42.1909458" lon="14.6150252"><ele>23.0</ele><time>2026-04-26T07:41:29.192Z</time></trkpt><trkpt lat="42.1908688" lon="14.6149912"><ele>23.0</ele><time>2026-04-26T07:41:30.195Z</time></trkpt><trkpt lat="42.1908104" lon="14.6149314"><ele>23.0</ele><time>2026-04-26T07:41:31.244Z</time></trkpt><trkpt lat="42.1907693" lon="14.6148455"><ele>23.0</ele><time>2026-04-26T07:41:32.248Z</time></trkpt><trkpt lat="42.1907475" lon="14.6147433"><ele>23.0</ele><time>2026-04-26T07:41:33.258Z</time></trkpt><trkpt lat="42.1907214" lon="14.6146216"><ele>23.0</ele><time>2026-04-26T07:41:34.222Z</time></trkpt><trkpt lat="42.1906886" lon="14.6145128"><ele>23.0</ele><time>2026-04-26T07:41:35.197Z</time></trkpt><trkpt lat="42.1906269" lon="14.6144429"><ele>23.0</ele><time>2026-04-26T07:41:36.195Z</time></trkpt><trkpt lat="42.1905587" lon="14.6144"><ele>23.0</ele><time>2026-04-26T07:41:37.192Z</time></trkpt><trkpt lat="42.1904751" lon="14.6143643"><ele>23.0</ele><time>2026-04-26T07:41:38.235Z</time></trkpt><trkpt lat="42.1903778" lon="14.6143398"><ele>27.799999999999997</ele><time>2026-04-26T07:41:39.196Z</time></trkpt><trkpt lat="42.1902963" lon="14.6143004"><ele>32.6</ele><time>2026-04-26T07:41:40.19Z</time></trkpt><trkpt lat="42.1901908" lon="14.6142441"><ele>37.400000000000006</ele><time>2026-04-26T07:41:42.239Z</time></trkpt><trkpt lat="42.1901167" lon="14.6141323"><ele>42.2</ele><time>2026-04-26T07:41:44.226Z</time></trkpt><trkpt lat="42.1900753" lon="14.6140464"><ele>47.0</ele><time>2026-04-26T07:41:45.238Z</time></trkpt><trkpt lat="42.1900175" lon="14.6139491"><ele>47.0</ele><time>2026-04-26T07:41:46.226Z</time></trkpt><trkpt lat="42.1899636" lon="14.6138643"><ele>47.0</ele><time>2026-04-26T07:41:47.199Z</time></trkpt><trkpt lat="42.1898754" lon="14.6137781"><ele>47.0</ele><time>2026-04-26T07:41:49.187Z</time></trkpt><trkpt lat="42.1897677" lon="14.6137103"><ele>47.0</ele><time>2026-04-26T07:41:51.208Z</time></trkpt><trkpt lat="42.1896836" lon="14.6137112"><ele>47.0</ele><time>2026-04-26T07:41:53.229Z</time></trkpt><trkpt lat="42.1896386" lon="14.6138314"><ele>45.0</ele><time>2026-04-26T07:41:55.198Z</time></trkpt><trkpt lat="42.1894891" lon="14.6138588"><ele>43.0</ele><time>2026-04-26T07:41:57.188Z</time></trkpt><trkpt lat="42.18941" lon="14.6138235"><ele>41.0</ele><time>2026-04-26T07:41:58.245Z</time></trkpt><trkpt lat="42.1893308" lon="14.613795"><ele>39.0</ele><time>2026-04-26T07:41:59.246Z</time></trkpt><trkpt lat="42.1892618" lon="14.6137515"><ele>37.0</ele><time>2026-04-26T07:42:00.21Z</time></trkpt><trkpt lat="42.189194" lon="14.6136966"><ele>37.16666666666667</ele><time>2026-04-26T07:42:01.235Z</time></trkpt><trkpt lat="42.1891242" lon="14.6136464"><ele>37.333333333333336</ele><time>2026-04-26T07:42:02.243Z</time></trkpt><trkpt lat="42.1890525" lon="14.6135988"><ele>37.5</ele><time>2026-04-26T07:42:03.204Z</time></trkpt><trkpt lat="42.1889863" lon="14.6135543"><ele>37.666666666666664</ele><time>2026-04-26T07:42:04.225Z</time></trkpt><trkpt lat="42.188911" lon="14.6135229"><ele>37.83333333333333</ele><time>2026-04-26T07:42:05.202Z</time></trkpt><trkpt lat="42.1888215" lon="14.6135023"><ele>38.0</ele><time>2026-04-26T07:42:06.203Z</time></trkpt><trkpt lat="42.1887274" lon="14.6134811"><ele>38.0</ele><time>2026-04-26T07:42:07.215Z</time></trkpt><trkpt lat="42.188635" lon="14.613437"><ele>38.0</ele><time>2026-04-26T07:42:08.204Z</time></trkpt><trkpt lat="42.1885613" lon="14.6133707"><ele>38.0</ele><time>2026-04-26T07:42:09.209Z</time></trkpt><trkpt lat="42.1884822" lon="14.613307"><ele>38.0</ele><time>2026-04-26T07:42:10.244Z</time></trkpt><trkpt lat="42.1884159" lon="14.6132584"><ele>38.0</ele><time>2026-04-26T07:42:11.214Z</time></trkpt><trkpt lat="42.1883436" lon="14.6131463"><ele>38.0</ele><time>2026-04-26T07:42:13.262Z</time></trkpt><trkpt lat="42.1883371" lon="14.6130527"><ele>38.0</ele><time>2026-04-26T07:42:14.208Z</time></trkpt><trkpt lat="42.188328" lon="14.6129386"><ele>38.0</ele><time>2026-04-26T07:42:15.185Z</time></trkpt><trkpt lat="42.1883222" lon="14.6127988"><ele>38.0</ele><time>2026-04-26T07:42:16.185Z</time></trkpt><trkpt lat="42.1883094" lon="14.6126367"><ele>38.0</ele><time>2026-04-26T07:42:17.204Z</time></trkpt><trkpt lat="42.1882711" lon="14.6125031"><ele>38.0</ele><time>2026-04-26T07:42:18.185Z</time></trkpt><trkpt lat="42.1882201" lon="14.61241"><ele>38.0</ele><time>2026-04-26T07:42:19.186Z</time></trkpt><trkpt lat="42.1881576" lon="14.6123335"><ele>38.0</ele><time>2026-04-26T07:42:20.212Z</time></trkpt><trkpt lat="42.1880986" lon="14.6122317"><ele>38.0</ele><time>2026-04-26T07:42:21.25Z</time></trkpt><trkpt lat="42.1880542" lon="14.6121171"><ele>38.0</ele><time>2026-04-26T07:42:22.198Z</time></trkpt><trkpt lat="42.1880309" lon="14.6119924"><ele>41.599999999999994</ele><time>2026-04-26T07:42:23.21Z</time></trkpt><trkpt lat="42.1880137" lon="14.6118628"><ele>45.199999999999996</ele><time>2026-04-26T07:42:24.195Z</time></trkpt><trkpt lat="42.18799" lon="14.6117771"><ele>48.8</ele><time>2026-04-26T07:42:25.197Z</time></trkpt><trkpt lat="42.1878614" lon="14.6117276"><ele>52.4</ele><time>2026-04-26T07:42:27.211Z</time></trkpt><trkpt lat="42.1877792" lon="14.6116506"><ele>56.0</ele><time>2026-04-26T07:42:28.227Z</time></trkpt><trkpt lat="42.1877058" lon="14.6115595"><ele>56.0</ele><time>2026-04-26T07:42:29.255Z</time></trkpt><trkpt lat="42.1876726" lon="14.61147"><ele>55.99999999999999</ele><time>2026-04-26T07:42:30.234Z</time></trkpt><trkpt lat="42.1876769" lon="14.6113673"><ele>55.99999999999999</ele><time>2026-04-26T07:42:31.198Z</time></trkpt><trkpt lat="42.1877528" lon="14.611211"><ele>56.0</ele><time>2026-04-26T07:42:33.238Z</time></trkpt><trkpt lat="42.1878344" lon="14.6111212"><ele>56.0</ele><time>2026-04-26T07:42:34.246Z</time></trkpt><trkpt lat="42.1879101" lon="14.6110299"><ele>58.50000000000001</ele><time>2026-04-26T07:42:35.25Z</time></trkpt><trkpt lat="42.1879511" lon="14.610961"><ele>61.0</ele><time>2026-04-26T07:42:36.254Z</time></trkpt><trkpt lat="42.1879457" lon="14.6108615"><ele>63.5</ele><time>2026-04-26T07:42:39.242Z</time></trkpt><trkpt lat="42.1878668" lon="14.6107758"><ele>66.0</ele><time>2026-04-26T07:42:41.242Z</time></trkpt><trkpt lat="42.1878213" lon="14.6107155"><ele>68.5</ele><time>2026-04-26T07:42:44.218Z</time></trkpt><trkpt lat="42.1877745" lon="14.6106578"><ele>71.0</ele><time>2026-04-26T07:42:47.247Z</time></trkpt><trkpt lat="42.187702" lon="14.61056"><ele>71.0</ele><time>2026-04-26T07:43:09.222Z</time></trkpt><trkpt lat="42.1876273" lon="14.6104802"><ele>71.0</ele><time>2026-04-26T07:43:10.251Z</time></trkpt><trkpt lat="42.1875129" lon="14.6103593"><ele>71.0</ele><time>2026-04-26T07:43:11.193Z</time></trkpt><trkpt lat="42.187389" lon="14.6102414"><ele>71.0</ele><time>2026-04-26T07:43:12.25Z</time></trkpt><trkpt lat="42.1872676" lon="14.6101527"><ele>71.33333333333334</ele><time>2026-04-26T07:43:13.252Z</time></trkpt><trkpt lat="42.1871305" lon="14.6100776"><ele>71.66666666666667</ele><time>2026-04-26T07:43:14.24Z</time></trkpt><trkpt lat="42.1869848" lon="14.6100053"><ele>72.0</ele><time>2026-04-26T07:43:15.235Z</time></trkpt><trkpt lat="42.1868352" lon="14.6099177"><ele>72.0</ele><time>2026-04-26T07:43:16.249Z</time></trkpt><trkpt lat="42.18669" lon="14.6098202"><ele>72.0</ele><time>2026-04-26T07:43:17.259Z</time></trkpt><trkpt lat="42.186549" lon="14.6097269"><ele>72.0</ele><time>2026-04-26T07:43:18.248Z</time></trkpt><trkpt lat="42.1864049" lon="14.6096309"><ele>74.33333333333333</ele><time>2026-04-26T07:43:19.257Z</time></trkpt><trkpt lat="42.1862555" lon="14.6095354"><ele>76.66666666666666</ele><time>2026-04-26T07:43:20.187Z</time></trkpt><trkpt lat="42.1861071" lon="14.6094544"><ele>79.0</ele><time>2026-04-26T07:43:21.191Z</time></trkpt><trkpt lat="42.1859703" lon="14.6093746"><ele>79.0</ele><time>2026-04-26T07:43:22.188Z</time></trkpt><trkpt lat="42.1858485" lon="14.6092873"><ele>79.0</ele><time>2026-04-26T07:43:23.191Z</time></trkpt><trkpt lat="42.1857278" lon="14.609193"><ele>79.0</ele><time>2026-04-26T07:43:24.188Z</time></trkpt><trkpt lat="42.1855997" lon="14.6090634"><ele>79.0</ele><time>2026-04-26T07:43:25.208Z</time></trkpt><trkpt lat="42.1854862" lon="14.6089578"><ele>80.0</ele><time>2026-04-26T07:43:26.211Z</time></trkpt><trkpt lat="42.1853689" lon="14.6088419"><ele>81.0</ele><time>2026-04-26T07:43:27.185Z</time></trkpt><trkpt lat="42.1852507" lon="14.6087246"><ele>82.0</ele><time>2026-04-26T07:43:28.195Z</time></trkpt><trkpt lat="42.1851334" lon="14.6085966"><ele>83.0</ele><time>2026-04-26T07:43:29.254Z</time></trkpt><trkpt lat="42.1850152" lon="14.6084824"><ele>83.0</ele><time>2026-04-26T07:43:30.195Z</time></trkpt><trkpt lat="42.1849059" lon="14.6083763"><ele>83.0</ele><time>2026-04-26T07:43:31.231Z</time></trkpt><trkpt lat="42.1848201" lon="14.6082749"><ele>83.0</ele><time>2026-04-26T07:43:32.193Z</time></trkpt><trkpt lat="42.1847551" lon="14.6081854"><ele>83.0</ele><time>2026-04-26T07:43:33.246Z</time></trkpt><trkpt lat="42.1847165" lon="14.6081022"><ele>83.0</ele><time>2026-04-26T07:43:34.249Z</time></trkpt><trkpt lat="42.1846862" lon="14.6080009"><ele>82.5</ele><time>2026-04-26T07:43:35.235Z</time></trkpt><trkpt lat="42.1846709" lon="14.6078539"><ele>82.0</ele><time>2026-04-26T07:43:36.237Z</time></trkpt><trkpt lat="42.184666" lon="14.6076609"><ele>81.5</ele><time>2026-04-26T07:43:37.243Z</time></trkpt><trkpt lat="42.1846607" lon="14.6074961"><ele>81.0</ele><time>2026-04-26T07:43:38.231Z</time></trkpt><trkpt lat="42.1846506" lon="14.6073662"><ele>81.0</ele><time>2026-04-26T07:43:39.278Z</time></trkpt><trkpt lat="42.1846095" lon="14.6072549"><ele>81.0</ele><time>2026-04-26T07:43:40.252Z</time></trkpt><trkpt lat="42.1845284" lon="14.6071389"><ele>81.0</ele><time>2026-04-26T07:43:41.244Z</time></trkpt><trkpt lat="42.1844277" lon="14.6069986"><ele>81.0</ele><time>2026-04-26T07:43:42.191Z</time></trkpt><trkpt lat="42.1843062" lon="14.6068235"><ele>82.66666666666667</ele><time>2026-04-26T07:43:43.25Z</time></trkpt><trkpt lat="42.1841811" lon="14.6066241"><ele>84.33333333333334</ele><time>2026-04-26T07:43:44.237Z</time></trkpt><trkpt lat="42.1840599" lon="14.6064335"><ele>86.0</ele><time>2026-04-26T07:43:45.251Z</time></trkpt><trkpt lat="42.1839549" lon="14.6062567"><ele>86.5</ele><time>2026-04-26T07:43:46.269Z</time></trkpt><trkpt lat="42.183858" lon="14.6060892"><ele>87.0</ele><time>2026-04-26T07:43:47.238Z</time></trkpt><trkpt lat="42.1837752" lon="14.6059659"><ele>87.5</ele><time>2026-04-26T07:43:48.247Z</time></trkpt><trkpt lat="42.1837072" lon="14.6058527"><ele>88.0</ele><time>2026-04-26T07:43:49.223Z</time></trkpt><trkpt lat="42.1836574" lon="14.6057483"><ele>88.0</ele><time>2026-04-26T07:43:50.216Z</time></trkpt><trkpt lat="42.1836214" lon="14.6056493"><ele>88.0</ele><time>2026-04-26T07:43:51.213Z</time></trkpt><trkpt lat="42.183598" lon="14.6055617"><ele>88.0</ele><time>2026-04-26T07:43:52.222Z</time></trkpt><trkpt lat="42.1835776" lon="14.605472"><ele>88.0</ele><time>2026-04-26T07:43:53.223Z</time></trkpt><trkpt lat="42.1835585" lon="14.6053768"><ele>88.0</ele><time>2026-04-26T07:43:54.257Z</time></trkpt><trkpt lat="42.1835357" lon="14.6052789"><ele>88.0</ele><time>2026-04-26T07:43:55.255Z</time></trkpt><trkpt lat="42.1835062" lon="14.6051898"><ele>88.0</ele><time>2026-04-26T07:43:56.249Z</time></trkpt><trkpt lat="42.183466" lon="14.6050516"><ele>88.83333333333333</ele><time>2026-04-26T07:43:58.219Z</time></trkpt><trkpt lat="42.1834429" lon="14.6049679"><ele>89.66666666666666</ele><time>2026-04-26T07:44:00.206Z</time></trkpt><trkpt lat="42.1835343" lon="14.6049051"><ele>90.5</ele><time>2026-04-26T07:44:03.234Z</time></trkpt><trkpt lat="42.1836006" lon="14.6049181"><ele>91.33333333333333</ele><time>2026-04-26T07:44:04.229Z</time></trkpt><trkpt lat="42.1836836" lon="14.6049001"><ele>92.16666666666667</ele><time>2026-04-26T07:44:05.256Z</time></trkpt><trkpt lat="42.1837655" lon="14.6048604"><ele>93.0</ele><time>2026-04-26T07:44:06.244Z</time></trkpt><trkpt lat="42.1838306" lon="14.6048116"><ele>93.0</ele><time>2026-04-26T07:44:07.255Z</time></trkpt><trkpt lat="42.1838726" lon="14.6047336"><ele>93.0</ele><time>2026-04-26T07:44:08.259Z</time></trkpt><trkpt lat="42.183903" lon="14.6046288"><ele>93.0</ele><time>2026-04-26T07:44:09.26Z</time></trkpt><trkpt lat="42.1839512" lon="14.6045281"><ele>93.0</ele><time>2026-04-26T07:44:10.273Z</time></trkpt><trkpt lat="42.1840097" lon="14.604412"><ele>93.0</ele><time>2026-04-26T07:44:11.217Z</time></trkpt><trkpt lat="42.1840606" lon="14.604305"><ele>93.0</ele><time>2026-04-26T07:44:12.191Z</time></trkpt><trkpt lat="42.1841055" lon="14.6042016"><ele>93.4</ele><time>2026-04-26T07:44:13.185Z</time></trkpt><trkpt lat="42.1841488" lon="14.6041026"><ele>93.80000000000001</ele><time>2026-04-26T07:44:14.23Z</time></trkpt><trkpt lat="42.1842004" lon="14.604006"><ele>94.2</ele><time>2026-04-26T07:44:15.225Z</time></trkpt><trkpt lat="42.1842477" lon="14.6038929"><ele>94.6</ele><time>2026-04-26T07:44:16.218Z</time></trkpt><trkpt lat="42.1842953" lon="14.6037831"><ele>95.0</ele><time>2026-04-26T07:44:17.204Z</time></trkpt><trkpt lat="42.1843438" lon="14.6036839"><ele>94.5</ele><time>2026-04-26T07:44:18.233Z</time></trkpt><trkpt lat="42.1843856" lon="14.6035858"><ele>94.0</ele><time>2026-04-26T07:44:19.196Z</time></trkpt><trkpt lat="42.1844336" lon="14.6034866"><ele>93.5</ele><time>2026-04-26T07:44:20.191Z</time></trkpt><trkpt lat="42.1844796" lon="14.6033883"><ele>93.0</ele><time>2026-04-26T07:44:21.238Z</time></trkpt><trkpt lat="42.1845145" lon="14.6033013"><ele>92.5</ele><time>2026-04-26T07:44:22.235Z</time></trkpt><trkpt lat="42.1845491" lon="14.6032229"><ele>92.0</ele><time>2026-04-26T07:44:23.19Z</time></trkpt><trkpt lat="42.1845918" lon="14.6031414"><ele>92.0</ele><time>2026-04-26T07:44:24.188Z</time></trkpt><trkpt lat="42.1846359" lon="14.6030587"><ele>92.0</ele><time>2026-04-26T07:44:25.188Z</time></trkpt><trkpt lat="42.1846957" lon="14.6029494"><ele>92.0</ele><time>2026-04-26T07:44:27.238Z</time></trkpt><trkpt lat="42.1847969" lon="14.6029773"><ele>92.0</ele><time>2026-04-26T07:44:30.205Z</time></trkpt><trkpt lat="42.1848571" lon="14.6030342"><ele>92.0</ele><time>2026-04-26T07:44:31.197Z</time></trkpt><trkpt lat="42.1849232" lon="14.6031069"><ele>92.0</ele><time>2026-04-26T07:44:32.216Z</time></trkpt><trkpt lat="42.1850157" lon="14.6031815"><ele>91.33333333333334</ele><time>2026-04-26T07:44:33.258Z</time></trkpt><trkpt lat="42.1851141" lon="14.6032352"><ele>90.66666666666667</ele><time>2026-04-26T07:44:34.251Z</time></trkpt><trkpt lat="42.185192" lon="14.6032858"><ele>90.0</ele><time>2026-04-26T07:44:35.237Z</time></trkpt><trkpt lat="42.1852639" lon="14.6033296"><ele>89.33333333333333</ele><time>2026-04-26T07:44:36.241Z</time></trkpt><trkpt lat="42.1853317" lon="14.6033613"><ele>88.66666666666666</ele><time>2026-04-26T07:44:37.222Z</time></trkpt><trkpt lat="42.1853776" lon="14.6034343"><ele>88.0</ele><time>2026-04-26T07:44:39.247Z</time></trkpt><trkpt lat="42.1854209" lon="14.6035023"><ele>88.0</ele><time>2026-04-26T07:44:41.191Z</time></trkpt><trkpt lat="42.1855148" lon="14.6035645"><ele>88.0</ele><time>2026-04-26T07:44:43.234Z</time></trkpt><trkpt lat="42.1855865" lon="14.6035703"><ele>88.0</ele><time>2026-04-26T07:44:45.228Z</time></trkpt><trkpt lat="42.1855963" lon="14.603461"><ele>88.0</ele><time>2026-04-26T07:44:48.214Z</time></trkpt><trkpt lat="42.185565" lon="14.6033866"><ele>88.0</ele><time>2026-04-26T07:44:49.207Z</time></trkpt><trkpt lat="42.185505" lon="14.603284"><ele>88.0</ele><time>2026-04-26T07:44:51.188Z</time></trkpt><trkpt lat="42.1854683" lon="14.6031631"><ele>88.0</ele><time>2026-04-26T07:44:54.189Z</time></trkpt><trkpt lat="42.1854365" lon="14.6030815"><ele>88.0</ele><time>2026-04-26T07:45:04.227Z</time></trkpt><trkpt lat="42.1853751" lon="14.603025"><ele>88.0</ele><time>2026-04-26T07:45:07.194Z</time></trkpt><trkpt lat="42.1852877" lon="14.6029567"><ele>88.0</ele><time>2026-04-26T07:45:09.223Z</time></trkpt><trkpt lat="42.1852016" lon="14.6028649"><ele>88.0</ele><time>2026-04-26T07:45:11.201Z</time></trkpt><trkpt lat="42.1851183" lon="14.602768"><ele>87.5</ele><time>2026-04-26T07:45:13.206Z</time></trkpt><trkpt lat="42.1851086" lon="14.6026686"><ele>87.0</ele><time>2026-04-26T07:45:17.184Z</time></trkpt><trkpt lat="42.1851131" lon="14.6025794"><ele>86.5</ele><time>2026-04-26T07:45:22.21Z</time></trkpt><trkpt lat="42.1851758" lon="14.6025184"><ele>86.0</ele><time>2026-04-26T07:45:25.247Z</time></trkpt><trkpt lat="42.1852484" lon="14.6024263"><ele>85.5</ele><time>2026-04-26T07:45:27.24Z</time></trkpt><trkpt lat="42.1852922" lon="14.602349"><ele>85.0</ele><time>2026-04-26T07:45:28.237Z</time></trkpt><trkpt lat="42.1853345" lon="14.6022777"><ele>85.0</ele><time>2026-04-26T07:45:29.178Z</time></trkpt><trkpt lat="42.1853917" lon="14.6021366"><ele>85.0</ele><time>2026-04-26T07:45:31.227Z</time></trkpt><trkpt lat="42.1854007" lon="14.602052"><ele>85.0</ele><time>2026-04-26T07:45:32.22Z</time></trkpt><trkpt lat="42.1853723" lon="14.6019496"><ele>85.0</ele><time>2026-04-26T07:45:33.229Z</time></trkpt><trkpt lat="42.1853418" lon="14.6018455"><ele>85.0</ele><time>2026-04-26T07:45:34.213Z</time></trkpt><trkpt lat="42.1852905" lon="14.6017445"><ele>85.0</ele><time>2026-04-26T07:45:35.192Z</time></trkpt><trkpt lat="42.1852324" lon="14.6016104"><ele>85.75</ele><time>2026-04-26T07:45:36.195Z</time></trkpt><trkpt lat="42.1851776" lon="14.6014373"><ele>86.5</ele><time>2026-04-26T07:45:37.229Z</time></trkpt><trkpt lat="42.1851381" lon="14.6012512"><ele>87.25</ele><time>2026-04-26T07:45:38.187Z</time></trkpt><trkpt lat="42.1850968" lon="14.6010903"><ele>88.0</ele><time>2026-04-26T07:45:39.181Z</time></trkpt><trkpt lat="42.1850524" lon="14.6009367"><ele>88.75</ele><time>2026-04-26T07:45:40.183Z</time></trkpt><trkpt lat="42.1849868" lon="14.6007882"><ele>89.5</ele><time>2026-04-26T07:45:41.236Z</time></trkpt><trkpt lat="42.1849193" lon="14.6006403"><ele>90.25</ele><time>2026-04-26T07:45:42.225Z</time></trkpt><trkpt lat="42.184867" lon="14.6005034"><ele>91.0</ele><time>2026-04-26T07:45:43.186Z</time></trkpt><trkpt lat="42.1848394" lon="14.6003728"><ele>92.0</ele><time>2026-04-26T07:45:44.245Z</time></trkpt><trkpt lat="42.1848182" lon="14.6002546"><ele>93.0</ele><time>2026-04-26T07:45:45.199Z</time></trkpt><trkpt lat="42.1847757" lon="14.6001389"><ele>94.0</ele><time>2026-04-26T07:45:47.202Z</time></trkpt><trkpt lat="42.1847104" lon="14.600086"><ele>95.0</ele><time>2026-04-26T07:45:53.223Z</time></trkpt><trkpt lat="42.1846584" lon="14.6000101"><ele>96.00000000000001</ele><time>2026-04-26T07:45:56.242Z</time></trkpt><trkpt lat="42.1845748" lon="14.5999274"><ele>97.0</ele><time>2026-04-26T07:45:59.246Z</time></trkpt><trkpt lat="42.1844839" lon="14.5998813"><ele>97.0</ele><time>2026-04-26T07:46:01.239Z</time></trkpt><trkpt lat="42.1843982" lon="14.5997893"><ele>97.0</ele><time>2026-04-26T07:46:03.244Z</time></trkpt><trkpt lat="42.1843058" lon="14.599681"><ele>97.0</ele><time>2026-04-26T07:46:05.232Z</time></trkpt><trkpt lat="42.1842457" lon="14.5996313"><ele>97.0</ele><time>2026-04-26T07:46:06.245Z</time></trkpt><trkpt lat="42.1841761" lon="14.5995886"><ele>97.0</ele><time>2026-04-26T07:46:07.234Z</time></trkpt><trkpt lat="42.1841002" lon="14.5995263"><ele>97.5</ele><time>2026-04-26T07:46:08.272Z</time></trkpt><trkpt lat="42.183995" lon="14.5994428"><ele>98.0</ele><time>2026-04-26T07:46:09.258Z</time></trkpt><trkpt lat="42.1838788" lon="14.5993409"><ele>98.5</ele><time>2026-04-26T07:46:10.184Z</time></trkpt><trkpt lat="42.1837747" lon="14.5992359"><ele>99.0</ele><time>2026-04-26T07:46:11.26Z</time></trkpt><trkpt lat="42.183672" lon="14.5991445"><ele>99.0</ele><time>2026-04-26T07:46:12.271Z</time></trkpt><trkpt lat="42.1835825" lon="14.5990762"><ele>99.0</ele><time>2026-04-26T07:46:13.239Z</time></trkpt><trkpt lat="42.1835037" lon="14.5990202"><ele>99.0</ele><time>2026-04-26T07:46:14.245Z</time></trkpt><trkpt lat="42.1834284" lon="14.5989515"><ele>99.0</ele><time>2026-04-26T07:46:15.239Z</time></trkpt><trkpt lat="42.1833471" lon="14.5988624"><ele>99.0</ele><time>2026-04-26T07:46:16.243Z</time></trkpt><trkpt lat="42.1832494" lon="14.5987823"><ele>99.6</ele><time>2026-04-26T07:46:17.192Z</time></trkpt><trkpt lat="42.1831651" lon="14.5986978"><ele>100.2</ele><time>2026-04-26T07:46:18.247Z</time></trkpt><trkpt lat="42.1831049" lon="14.5986078"><ele>100.8</ele><time>2026-04-26T07:46:19.202Z</time></trkpt><trkpt lat="42.1830519" lon="14.5984833"><ele>101.39999999999999</ele><time>2026-04-26T07:46:20.203Z</time></trkpt><trkpt lat="42.1830044" lon="14.5983454"><ele>102.0</ele><time>2026-04-26T07:46:21.252Z</time></trkpt><trkpt lat="42.1829529" lon="14.5982427"><ele>102.0</ele><time>2026-04-26T07:46:22.246Z</time></trkpt><trkpt lat="42.1828919" lon="14.5981614"><ele>102.0</ele><time>2026-04-26T07:46:23.228Z</time></trkpt><trkpt lat="42.1828039" lon="14.5980777"><ele>102.0</ele><time>2026-04-26T07:46:24.242Z</time></trkpt><trkpt lat="42.182715" lon="14.5980128"><ele>102.0</ele><time>2026-04-26T07:46:25.241Z</time></trkpt><trkpt lat="42.1826505" lon="14.5979832"><ele>102.0</ele><time>2026-04-26T07:46:26.249Z</time></trkpt><trkpt lat="42.1825555" lon="14.5979846"><ele>102.0</ele><time>2026-04-26T07:46:28.239Z</time></trkpt><trkpt lat="42.1824797" lon="14.5979584"><ele>102.0</ele><time>2026-04-26T07:46:30.22Z</time></trkpt><trkpt lat="42.1824782" lon="14.5978273"><ele>102.0</ele><time>2026-04-26T07:46:32.239Z</time></trkpt><trkpt lat="42.1825167" lon="14.5977232"><ele>102.0</ele><time>2026-04-26T07:46:33.244Z</time></trkpt><trkpt lat="42.1825771" lon="14.5975639"><ele>102.0</ele><time>2026-04-26T07:46:34.25Z</time></trkpt><trkpt lat="42.1826462" lon="14.5973917"><ele>102.33333333333333</ele><time>2026-04-26T07:46:35.234Z</time></trkpt><trkpt lat="42.1827038" lon="14.597229"><ele>102.66666666666666</ele><time>2026-04-26T07:46:36.254Z</time></trkpt><trkpt lat="42.1827283" lon="14.597113"><ele>103.0</ele><time>2026-04-26T07:46:37.233Z</time></trkpt><trkpt lat="42.1827277" lon="14.5970107"><ele>103.33333333333333</ele><time>2026-04-26T07:46:38.241Z</time></trkpt><trkpt lat="42.1827364" lon="14.5969224"><ele>103.66666666666666</ele><time>2026-04-26T07:46:39.198Z</time></trkpt><trkpt lat="42.1827596" lon="14.5968139"><ele>104.0</ele><time>2026-04-26T07:46:41.244Z</time></trkpt><trkpt lat="42.1828102" lon="14.5967336"><ele>104.5</ele><time>2026-04-26T07:46:42.249Z</time></trkpt><trkpt lat="42.1828967" lon="14.5966192"><ele>105.0</ele><time>2026-04-26T07:46:43.256Z</time></trkpt><trkpt lat="42.1829887" lon="14.5965116"><ele>105.5</ele><time>2026-04-26T07:46:44.196Z</time></trkpt><trkpt lat="42.1830774" lon="14.5964285"><ele>106.0</ele><time>2026-04-26T07:46:45.248Z</time></trkpt><trkpt lat="42.1831624" lon="14.5963564"><ele>106.0</ele><time>2026-04-26T07:46:46.25Z</time></trkpt><trkpt lat="42.1832816" lon="14.5962707"><ele>106.0</ele><time>2026-04-26T07:46:47.217Z</time></trkpt><trkpt lat="42.1834133" lon="14.5961888"><ele>106.0</ele><time>2026-04-26T07:46:48.246Z</time></trkpt><trkpt lat="42.1835385" lon="14.59612"><ele>106.0</ele><time>2026-04-26T07:46:49.264Z</time></trkpt><trkpt lat="42.1836523" lon="14.5960686"><ele>105.19999999999999</ele><time>2026-04-26T07:46:50.248Z</time></trkpt><trkpt lat="42.1837517" lon="14.5960259"><ele>104.39999999999999</ele><time>2026-04-26T07:46:51.233Z</time></trkpt><trkpt lat="42.183839" lon="14.5959832"><ele>103.6</ele><time>2026-04-26T07:46:52.237Z</time></trkpt><trkpt lat="42.1839236" lon="14.5959633"><ele>102.8</ele><time>2026-04-26T07:46:53.24Z</time></trkpt><trkpt lat="42.1840193" lon="14.5959754"><ele>102.0</ele><time>2026-04-26T07:46:54.239Z</time></trkpt><trkpt lat="42.1841419" lon="14.5960097"><ele>101.5</ele><time>2026-04-26T07:46:55.256Z</time></trkpt><trkpt lat="42.1842866" lon="14.5960578"><ele>101.0</ele><time>2026-04-26T07:46:56.239Z</time></trkpt><trkpt lat="42.1844231" lon="14.5960774"><ele>100.5</ele><time>2026-04-26T07:46:57.222Z</time></trkpt><trkpt lat="42.184552" lon="14.5960943"><ele>100.0</ele><time>2026-04-26T07:46:58.24Z</time></trkpt><trkpt lat="42.1846863" lon="14.596104"><ele>100.0</ele><time>2026-04-26T07:46:59.251Z</time></trkpt><trkpt lat="42.1848254" lon="14.596134"><ele>100.0</ele><time>2026-04-26T07:47:00.25Z</time></trkpt><trkpt lat="42.1849829" lon="14.5961621"><ele>100.0</ele><time>2026-04-26T07:47:01.248Z</time></trkpt><trkpt lat="42.1851363" lon="14.5961805"><ele>100.0</ele><time>2026-04-26T07:47:02.25Z</time></trkpt><trkpt lat="42.1852706" lon="14.5961948"><ele>100.0</ele><time>2026-04-26T07:47:03.265Z</time></trkpt><trkpt lat="42.185402" lon="14.596193"><ele>100.0</ele><time>2026-04-26T07:47:04.198Z</time></trkpt><trkpt lat="42.1855288" lon="14.5961684"><ele>100.0</ele><time>2026-04-26T07:47:05.249Z</time></trkpt><trkpt lat="42.1856598" lon="14.5961262"><ele>99.0</ele><time>2026-04-26T07:47:06.249Z</time></trkpt><trkpt lat="42.1857834" lon="14.5960618"><ele>98.0</ele><time>2026-04-26T07:47:07.188Z</time></trkpt><trkpt lat="42.1859165" lon="14.5960003"><ele>97.0</ele><time>2026-04-26T07:47:08.222Z</time></trkpt><trkpt lat="42.1860558" lon="14.5959506"><ele>96.0</ele><time>2026-04-26T07:47:09.211Z</time></trkpt><trkpt lat="42.1861953" lon="14.5959003"><ele>96.0</ele><time>2026-04-26T07:47:10.237Z</time></trkpt><trkpt lat="42.1863295" lon="14.5958493"><ele>96.0</ele><time>2026-04-26T07:47:11.248Z</time></trkpt><trkpt lat="42.1864583" lon="14.595782"><ele>96.0</ele><time>2026-04-26T07:47:12.27Z</time></trkpt><trkpt lat="42.1865823" lon="14.5957131"><ele>96.0</ele><time>2026-04-26T07:47:13.208Z</time></trkpt><trkpt lat="42.1866957" lon="14.5956474"><ele>96.0</ele><time>2026-04-26T07:47:14.23Z</time></trkpt><trkpt lat="42.1867965" lon="14.5955916"><ele>96.0</ele><time>2026-04-26T07:47:15.233Z</time></trkpt><trkpt lat="42.1869026" lon="14.5955462"><ele>96.0</ele><time>2026-04-26T07:47:16.194Z</time></trkpt><trkpt lat="42.1870216" lon="14.5955055"><ele>96.0</ele><time>2026-04-26T07:47:17.187Z</time></trkpt><trkpt lat="42.1871489" lon="14.5954491"><ele>96.0</ele><time>2026-04-26T07:47:18.193Z</time></trkpt><trkpt lat="42.1872672" lon="14.595394"><ele>96.0</ele><time>2026-04-26T07:47:19.229Z</time></trkpt><trkpt lat="42.1873832" lon="14.595357"><ele>96.0</ele><time>2026-04-26T07:47:20.197Z</time></trkpt><trkpt lat="42.1874738" lon="14.5953202"><ele>96.0</ele><time>2026-04-26T07:47:21.192Z</time></trkpt><trkpt lat="42.1875644" lon="14.5952572"><ele>96.0</ele><time>2026-04-26T07:47:23.187Z</time></trkpt><trkpt lat="42.1875915" lon="14.5951626"><ele>95.16666666666667</ele><time>2026-04-26T07:47:24.227Z</time></trkpt><trkpt lat="42.1876332" lon="14.5950646"><ele>94.33333333333333</ele><time>2026-04-26T07:47:25.202Z</time></trkpt><trkpt lat="42.1876904" lon="14.5949611"><ele>93.5</ele><time>2026-04-26T07:47:26.207Z</time></trkpt><trkpt lat="42.1877541" lon="14.5948814"><ele>92.66666666666666</ele><time>2026-04-26T07:47:27.189Z</time></trkpt><trkpt lat="42.1878218" lon="14.5948155"><ele>91.83333333333333</ele><time>2026-04-26T07:47:28.225Z</time></trkpt><trkpt lat="42.1878989" lon="14.5947509"><ele>91.0</ele><time>2026-04-26T07:47:29.192Z</time></trkpt><trkpt lat="42.1879649" lon="14.5946827"><ele>91.0</ele><time>2026-04-26T07:47:30.215Z</time></trkpt><trkpt lat="42.188032" lon="14.5946175"><ele>91.0</ele><time>2026-04-26T07:47:31.233Z</time></trkpt><trkpt lat="42.1880927" lon="14.5945524"><ele>91.0</ele><time>2026-04-26T07:47:32.208Z</time></trkpt><trkpt lat="42.1881447" lon="14.5944676"><ele>91.0</ele><time>2026-04-26T07:47:33.23Z</time></trkpt><trkpt lat="42.1881946" lon="14.5943712"><ele>91.0</ele><time>2026-04-26T07:47:34.232Z</time></trkpt><trkpt lat="42.1882484" lon="14.5942969"><ele>91.0</ele><time>2026-04-26T07:47:35.231Z</time></trkpt><trkpt lat="42.1883137" lon="14.5942147"><ele>89.33333333333333</ele><time>2026-04-26T07:47:36.222Z</time></trkpt><trkpt lat="42.188384" lon="14.5941433"><ele>87.66666666666666</ele><time>2026-04-26T07:47:37.235Z</time></trkpt><trkpt lat="42.1884508" lon="14.5940868"><ele>86.0</ele><time>2026-04-26T07:47:38.243Z</time></trkpt><trkpt lat="42.1885182" lon="14.594043"><ele>84.33333333333333</ele><time>2026-04-26T07:47:39.215Z</time></trkpt><trkpt lat="42.1885834" lon="14.5940023"><ele>82.66666666666667</ele><time>2026-04-26T07:47:40.2Z</time></trkpt><trkpt lat="42.1886761" lon="14.5939464"><ele>81.0</ele><time>2026-04-26T07:47:42.224Z</time></trkpt><trkpt lat="42.1887588" lon="14.5939589"><ele>81.0</ele><time>2026-04-26T07:47:43.233Z</time></trkpt><trkpt lat="42.1888716" lon="14.5939915"><ele>81.0</ele><time>2026-04-26T07:47:44.235Z</time></trkpt><trkpt lat="42.1889902" lon="14.5940225"><ele>81.0</ele><time>2026-04-26T07:47:45.221Z</time></trkpt><trkpt lat="42.1891009" lon="14.5940474"><ele>81.0</ele><time>2026-04-26T07:47:46.237Z</time></trkpt><trkpt lat="42.1892027" lon="14.5940806"><ele>80.2</ele><time>2026-04-26T07:47:47.187Z</time></trkpt><trkpt lat="42.1892978" lon="14.5941591"><ele>79.39999999999999</ele><time>2026-04-26T07:47:48.244Z</time></trkpt><trkpt lat="42.1894004" lon="14.5942464"><ele>78.6</ele><time>2026-04-26T07:47:49.227Z</time></trkpt><trkpt lat="42.1894901" lon="14.5942931"><ele>77.8</ele><time>2026-04-26T07:47:50.213Z</time></trkpt><trkpt lat="42.1895596" lon="14.5943069"><ele>77.0</ele><time>2026-04-26T07:47:51.25Z</time></trkpt><trkpt lat="42.1896321" lon="14.5943187"><ele>77.0</ele><time>2026-04-26T07:47:52.234Z</time></trkpt><trkpt lat="42.1897175" lon="14.5943225"><ele>77.0</ele><time>2026-04-26T07:47:53.227Z</time></trkpt><trkpt lat="42.1898043" lon="14.5943396"><ele>77.0</ele><time>2026-04-26T07:47:54.232Z</time></trkpt><trkpt lat="42.1898875" lon="14.594351"><ele>77.0</ele><time>2026-04-26T07:47:55.226Z</time></trkpt><trkpt lat="42.1899673" lon="14.5943689"><ele>77.0</ele><time>2026-04-26T07:47:56.242Z</time></trkpt><trkpt lat="42.1900371" lon="14.5943593"><ele>77.0</ele><time>2026-04-26T07:47:57.233Z</time></trkpt><trkpt lat="42.1901476" lon="14.5942664"><ele>74.33333333333334</ele><time>2026-04-26T07:47:59.228Z</time></trkpt><trkpt lat="42.1902096" lon="14.594226"><ele>71.66666666666667</ele><time>2026-04-26T07:48:00.232Z</time></trkpt><trkpt lat="42.1902755" lon="14.5942035"><ele>69.0</ele><time>2026-04-26T07:48:01.238Z</time></trkpt><trkpt lat="42.1903425" lon="14.5941632"><ele>66.33333333333333</ele><time>2026-04-26T07:48:03.205Z</time></trkpt><trkpt lat="42.1903403" lon="14.5940691"><ele>63.666666666666664</ele><time>2026-04-26T07:48:05.226Z</time></trkpt><trkpt lat="42.1902535" lon="14.5939333"><ele>61.0</ele><time>2026-04-26T07:48:07.25Z</time></trkpt><trkpt lat="42.1901713" lon="14.5938509"><ele>60.99999999999999</ele><time>2026-04-26T07:48:08.24Z</time></trkpt><trkpt lat="42.1900914" lon="14.5937795"><ele>61.0</ele><time>2026-04-26T07:48:09.235Z</time></trkpt><trkpt lat="42.1900462" lon="14.5937163"><ele>61.0</ele><time>2026-04-26T07:48:10.252Z</time></trkpt><trkpt lat="42.1900185" lon="14.5935667"><ele>61.0</ele><time>2026-04-26T07:48:12.188Z</time></trkpt><trkpt lat="42.1900232" lon="14.5934718"><ele>60.99999999999999</ele><time>2026-04-26T07:48:13.236Z</time></trkpt><trkpt lat="42.1900183" lon="14.5933581"><ele>61.0</ele><time>2026-04-26T07:48:14.235Z</time></trkpt><trkpt lat="42.1899994" lon="14.5932606"><ele>62.0</ele><time>2026-04-26T07:48:15.191Z</time></trkpt><trkpt lat="42.190026" lon="14.5931374"><ele>62.99999999999999</ele><time>2026-04-26T07:48:17.217Z</time></trkpt><trkpt lat="42.1900857" lon="14.5929994"><ele>63.99999999999999</ele><time>2026-04-26T07:48:19.221Z</time></trkpt><trkpt lat="42.1900819" lon="14.5928761"><ele>65.0</ele><time>2026-04-26T07:48:21.203Z</time></trkpt><trkpt lat="42.1900653" lon="14.5927654"><ele>66.0</ele><time>2026-04-26T07:48:22.19Z</time></trkpt><trkpt lat="42.1900337" lon="14.5926148"><ele>67.39999999999999</ele><time>2026-04-26T07:48:23.227Z</time></trkpt><trkpt lat="42.1900033" lon="14.5924591"><ele>68.8</ele><time>2026-04-26T07:48:24.236Z</time></trkpt><trkpt lat="42.1899968" lon="14.5923431"><ele>70.19999999999999</ele><time>2026-04-26T07:48:25.224Z</time></trkpt><trkpt lat="42.1900175" lon="14.5921808"><ele>71.6</ele><time>2026-04-26T07:48:27.201Z</time></trkpt><trkpt lat="42.1900553" lon="14.5920946"><ele>73.0</ele><time>2026-04-26T07:48:28.221Z</time></trkpt><trkpt lat="42.1900839" lon="14.5920017"><ele>74.83333333333333</ele><time>2026-04-26T07:48:29.249Z</time></trkpt><trkpt lat="42.1901131" lon="14.5919088"><ele>76.66666666666666</ele><time>2026-04-26T07:48:30.231Z</time></trkpt><trkpt lat="42.1901481" lon="14.5918154"><ele>78.5</ele><time>2026-04-26T07:48:31.198Z</time></trkpt><trkpt lat="42.1902235" lon="14.5917218"><ele>80.33333333333333</ele><time>2026-04-26T07:48:33.202Z</time></trkpt><trkpt lat="42.1902853" lon="14.5916904"><ele>82.16666666666667</ele><time>2026-04-26T07:48:34.239Z</time></trkpt><trkpt lat="42.1903466" lon="14.5916547"><ele>84.0</ele><time>2026-04-26T07:48:35.228Z</time></trkpt><trkpt lat="42.1904047" lon="14.5916089"><ele>84.0</ele><time>2026-04-26T07:48:36.196Z</time></trkpt><trkpt lat="42.1904729" lon="14.5914464"><ele>84.0</ele><time>2026-04-26T07:48:38.213Z</time></trkpt><trkpt lat="42.1904902" lon="14.5913375"><ele>84.0</ele><time>2026-04-26T07:48:39.227Z</time></trkpt><trkpt lat="42.1904903" lon="14.5912086"><ele>84.0</ele><time>2026-04-26T07:48:40.208Z</time></trkpt><trkpt lat="42.1904799" lon="14.591089"><ele>84.0</ele><time>2026-04-26T07:48:41.21Z</time></trkpt><trkpt lat="42.1904503" lon="14.5909979"><ele>84.80000000000001</ele><time>2026-04-26T07:48:43.197Z</time></trkpt><trkpt lat="42.1903748" lon="14.5909163"><ele>85.60000000000001</ele><time>2026-04-26T07:48:45.224Z</time></trkpt><trkpt lat="42.1903069" lon="14.5908686"><ele>86.4</ele><time>2026-04-26T07:48:46.221Z</time></trkpt><trkpt lat="42.1902462" lon="14.5908269"><ele>87.2</ele><time>2026-04-26T07:48:47.188Z</time></trkpt><trkpt lat="42.1901879" lon="14.5906731"><ele>88.0</ele><time>2026-04-26T07:48:49.193Z</time></trkpt><trkpt lat="42.190173" lon="14.5905537"><ele>88.0</ele><time>2026-04-26T07:48:50.23Z</time></trkpt><trkpt lat="42.1901731" lon="14.5904632"><ele>88.0</ele><time>2026-04-26T07:48:51.221Z</time></trkpt><trkpt lat="42.1902279" lon="14.590411"><ele>88.0</ele><time>2026-04-26T07:48:58.218Z</time></trkpt><trkpt lat="42.190291" lon="14.5903764"><ele>88.0</ele><time>2026-04-26T07:49:00.221Z</time></trkpt><trkpt lat="42.1903541" lon="14.5903096"><ele>88.0</ele><time>2026-04-26T07:49:03.215Z</time></trkpt><trkpt lat="42.1904212" lon="14.5901592"><ele>88.0</ele><time>2026-04-26T07:49:05.211Z</time></trkpt><trkpt lat="42.190439" lon="14.5900291"><ele>87.5</ele><time>2026-04-26T07:49:06.226Z</time></trkpt><trkpt lat="42.190438" lon="14.5898665"><ele>87.0</ele><time>2026-04-26T07:49:07.239Z</time></trkpt><trkpt lat="42.1904271" lon="14.5896738"><ele>86.5</ele><time>2026-04-26T07:49:08.225Z</time></trkpt><trkpt lat="42.1904148" lon="14.5895006"><ele>86.0</ele><time>2026-04-26T07:49:09.218Z</time></trkpt><trkpt lat="42.1904177" lon="14.5893902"><ele>84.8</ele><time>2026-04-26T07:49:10.237Z</time></trkpt><trkpt lat="42.1904318" lon="14.5892691"><ele>83.6</ele><time>2026-04-26T07:49:11.229Z</time></trkpt><trkpt lat="42.1904517" lon="14.5891685"><ele>82.4</ele><time>2026-04-26T07:49:12.212Z</time></trkpt><trkpt lat="42.1904562" lon="14.5890647"><ele>81.2</ele><time>2026-04-26T07:49:13.217Z</time></trkpt><trkpt lat="42.1904527" lon="14.5889124"><ele>80.0</ele><time>2026-04-26T07:49:14.201Z</time></trkpt><trkpt lat="42.1904607" lon="14.5887492"><ele>79.83333333333334</ele><time>2026-04-26T07:49:15.201Z</time></trkpt><trkpt lat="42.1904731" lon="14.5886178"><ele>79.66666666666667</ele><time>2026-04-26T07:49:16.242Z</time></trkpt><trkpt lat="42.1904909" lon="14.5885142"><ele>79.5</ele><time>2026-04-26T07:49:17.19Z</time></trkpt><trkpt lat="42.1905025" lon="14.5884038"><ele>79.33333333333333</ele><time>2026-04-26T07:49:19.239Z</time></trkpt><trkpt lat="42.1904493" lon="14.5883148"><ele>79.16666666666666</ele><time>2026-04-26T07:49:22.229Z</time></trkpt><trkpt lat="42.1903707" lon="14.5883192"><ele>79.0</ele><time>2026-04-26T07:49:25.228Z</time></trkpt><trkpt lat="42.190252" lon="14.5883131"><ele>79.0</ele><time>2026-04-26T07:49:27.227Z</time></trkpt><trkpt lat="42.1901811" lon="14.5882942"><ele>79.0</ele><time>2026-04-26T07:49:28.183Z</time></trkpt><trkpt lat="42.1901023" lon="14.5882674"><ele>79.0</ele><time>2026-04-26T07:49:29.219Z</time></trkpt><trkpt lat="42.1900177" lon="14.588245"><ele>79.0</ele><time>2026-04-26T07:49:30.213Z</time></trkpt><trkpt lat="42.1899295" lon="14.5882182"><ele>79.0</ele><time>2026-04-26T07:49:31.201Z</time></trkpt><trkpt lat="42.189854" lon="14.5881862"><ele>79.0</ele><time>2026-04-26T07:49:32.233Z</time></trkpt><trkpt lat="42.1897907" lon="14.5881331"><ele>81.33333333333333</ele><time>2026-04-26T07:49:33.226Z</time></trkpt><trkpt lat="42.1897157" lon="14.5880582"><ele>83.66666666666667</ele><time>2026-04-26T07:49:34.234Z</time></trkpt><trkpt lat="42.1896355" lon="14.587963"><ele>86.0</ele><time>2026-04-26T07:49:35.242Z</time></trkpt><trkpt lat="42.1903541" lon="14.5903096"><ele>86.0</ele><time>2026-04-26T07:49:03.215Z</time></trkpt><trkpt lat="42.1904212" lon="14.5901592"><ele>86.0</ele><time>2026-04-26T07:49:05.211Z</time></trkpt><trkpt lat="42.190439" lon="14.5900291"><ele>86.0</ele><time>2026-04-26T07:49:06.226Z</time></trkpt><trkpt lat="42.190438" lon="14.5898665"><ele>86.0</ele><time>2026-04-26T07:49:07.239Z</time></trkpt><trkpt lat="42.1904271" lon="14.5896738"><ele>84.8</ele><time>2026-04-26T07:49:08.225Z</time></trkpt><trkpt lat="42.1904148" lon="14.5895006"><ele>83.6</ele><time>2026-04-26T07:49:09.218Z</time></trkpt><trkpt lat="42.1904177" lon="14.5893902"><ele>82.4</ele><time>2026-04-26T07:49:10.237Z</time></trkpt><trkpt lat="42.1904318" lon="14.5892691"><ele>81.2</ele><time>2026-04-26T07:49:11.229Z</time></trkpt><trkpt lat="42.1904517" lon="14.5891685"><ele>80.0</ele><time>2026-04-26T07:49:12.212Z</time></trkpt><trkpt lat="42.1904562" lon="14.5890647"><ele>80.0</ele><time>2026-04-26T07:49:13.217Z</time></trkpt><trkpt lat="42.1904527" lon="14.5889124"><ele>80.0</ele><time>2026-04-26T07:49:14.201Z</time></trkpt><trkpt lat="42.1904607" lon="14.5887492"><ele>80.0</ele><time>2026-04-26T07:49:15.201Z</time></trkpt><trkpt lat="42.1904731" lon="14.5886178"><ele>80.0</ele><time>2026-04-26T07:49:16.242Z</time></trkpt><trkpt lat="42.1904909" lon="14.5885142"><ele>80.0</ele><time>2026-04-26T07:49:17.19Z</time></trkpt><trkpt lat="42.1905025" lon="14.5884038"><ele>79.83333333333334</ele><time>2026-04-26T07:49:19.239Z</time></trkpt><trkpt lat="42.1904493" lon="14.5883148"><ele>79.66666666666667</ele><time>2026-04-26T07:49:22.229Z</time></trkpt><trkpt lat="42.1903707" lon="14.5883192"><ele>79.5</ele><time>2026-04-26T07:49:25.228Z</time></trkpt><trkpt lat="42.190252" lon="14.5883131"><ele>79.33333333333333</ele><time>2026-04-26T07:49:27.227Z</time></trkpt><trkpt lat="42.1901811" lon="14.5882942"><ele>79.16666666666666</ele><time>2026-04-26T07:49:28.183Z</time></trkpt><trkpt lat="42.1901023" lon="14.5882674"><ele>79.0</ele><time>2026-04-26T07:49:29.219Z</time></trkpt><trkpt lat="42.1900177" lon="14.588245"><ele>79.0</ele><time>2026-04-26T07:49:30.213Z</time></trkpt><trkpt lat="42.1899295" lon="14.5882182"><ele>79.0</ele><time>2026-04-26T07:49:31.201Z</time></trkpt><trkpt lat="42.189854" lon="14.5881862"><ele>79.0</ele><time>2026-04-26T07:49:32.233Z</time></trkpt><trkpt lat="42.1897907" lon="14.5881331"><ele>79.0</ele><time>2026-04-26T07:49:33.226Z</time></trkpt><trkpt lat="42.1897157" lon="14.5880582"><ele>79.0</ele><time>2026-04-26T07:49:34.234Z</time></trkpt><trkpt lat="42.1896355" lon="14.587963"><ele>79.0</ele><time>2026-04-26T07:49:35.242Z</time></trkpt><trkpt lat="42.1895626" lon="14.5878902"><ele>80.57142857142858</ele><time>2026-04-26T07:49:36.215Z</time></trkpt><trkpt lat="42.1895008" lon="14.5878466"><ele>82.14285714285714</ele><time>2026-04-26T07:49:37.199Z</time></trkpt><trkpt lat="42.1894317" lon="14.5878113"><ele>83.71428571428572</ele><time>2026-04-26T07:49:38.243Z</time></trkpt><trkpt lat="42.1893699" lon="14.5877727"><ele>85.28571428571429</ele><time>2026-04-26T07:49:39.234Z</time></trkpt><trkpt lat="42.1893105" lon="14.5877213"><ele>86.85714285714286</ele><time>2026-04-26T07:49:40.241Z</time></trkpt><trkpt lat="42.189251" lon="14.5876679"><ele>88.42857142857143</ele><time>2026-04-26T07:49:41.235Z</time></trkpt><trkpt lat="42.1891872" lon="14.5875966"><ele>90.0</ele><time>2026-04-26T07:49:42.218Z</time></trkpt><trkpt lat="42.1891231" lon="14.5875319"><ele>90.0</ele><time>2026-04-26T07:49:43.227Z</time></trkpt><trkpt lat="42.1890547" lon="14.5874457"><ele>90.0</ele><time>2026-04-26T07:49:44.245Z</time></trkpt><trkpt lat="42.1889968" lon="14.5873761"><ele>90.0</ele><time>2026-04-26T07:49:45.183Z</time></trkpt><trkpt lat="42.1889345" lon="14.5872958"><ele>90.0</ele><time>2026-04-26T07:49:46.183Z</time></trkpt><trkpt lat="42.1888681" lon="14.5872064"><ele>90.0</ele><time>2026-04-26T07:49:47.181Z</time></trkpt><trkpt lat="42.1887645" lon="14.5871283"><ele>91.25</ele><time>2026-04-26T07:49:48.186Z</time></trkpt><trkpt lat="42.1886141" lon="14.587028"><ele>92.5</ele><time>2026-04-26T07:49:49.181Z</time></trkpt><trkpt lat="42.18852" lon="14.5869718"><ele>93.75</ele><time>2026-04-26T07:49:50.184Z</time></trkpt><trkpt lat="42.1884481" lon="14.5869332"><ele>95.0</ele><time>2026-04-26T07:49:51.2Z</time></trkpt><trkpt lat="42.1883519" lon="14.5868772"><ele>95.0</ele><time>2026-04-26T07:49:52.185Z</time></trkpt><trkpt lat="42.1882615" lon="14.5868019"><ele>95.0</ele><time>2026-04-26T07:49:53.182Z</time></trkpt><trkpt lat="42.1881459" lon="14.5867091"><ele>95.0</ele><time>2026-04-26T07:49:54.244Z</time></trkpt><trkpt lat="42.1880478" lon="14.5866372"><ele>95.0</ele><time>2026-04-26T07:49:55.223Z</time></trkpt><trkpt lat="42.1879403" lon="14.5865445"><ele>95.6</ele><time>2026-04-26T07:49:56.233Z</time></trkpt><trkpt lat="42.187846" lon="14.5864575"><ele>96.2</ele><time>2026-04-26T07:49:57.217Z</time></trkpt><trkpt lat="42.1877606" lon="14.586396"><ele>96.80000000000001</ele><time>2026-04-26T07:49:58.245Z</time></trkpt><trkpt lat="42.1876589" lon="14.5863266"><ele>97.4</ele><time>2026-04-26T07:49:59.236Z</time></trkpt><trkpt lat="42.1875552" lon="14.5862519"><ele>98.0</ele><time>2026-04-26T07:50:00.238Z</time></trkpt><trkpt lat="42.1874567" lon="14.586168"><ele>98.25</ele><time>2026-04-26T07:50:01.218Z</time></trkpt><trkpt lat="42.1873721" lon="14.5860809"><ele>98.5</ele><time>2026-04-26T07:50:02.185Z</time></trkpt><trkpt lat="42.1872931" lon="14.585994"><ele>98.75</ele><time>2026-04-26T07:50:03.222Z</time></trkpt><trkpt lat="42.187194" lon="14.585896"><ele>99.0</ele><time>2026-04-26T07:50:04.236Z</time></trkpt><trkpt lat="42.1870621" lon="14.5858024"><ele>100.0</ele><time>2026-04-26T07:50:05.23Z</time></trkpt><trkpt lat="42.1869374" lon="14.5857131"><ele>101.0</ele><time>2026-04-26T07:50:06.223Z</time></trkpt><trkpt lat="42.1868333" lon="14.5856241"><ele>102.0</ele><time>2026-04-26T07:50:07.204Z</time></trkpt><trkpt lat="42.1867488" lon="14.5855382"><ele>103.0</ele><time>2026-04-26T07:50:08.177Z</time></trkpt><trkpt lat="42.1866576" lon="14.5854744"><ele>103.0</ele><time>2026-04-26T07:50:09.179Z</time></trkpt><trkpt lat="42.1865812" lon="14.5854137"><ele>103.0</ele><time>2026-04-26T07:50:10.197Z</time></trkpt><trkpt lat="42.1864986" lon="14.5853616"><ele>103.0</ele><time>2026-04-26T07:50:11.218Z</time></trkpt><trkpt lat="42.1863961" lon="14.5853184"><ele>103.0</ele><time>2026-04-26T07:50:12.246Z</time></trkpt><trkpt lat="42.1862918" lon="14.5852774"><ele>103.0</ele><time>2026-04-26T07:50:13.22Z</time></trkpt><trkpt lat="42.1861805" lon="14.5852416"><ele>103.2</ele><time>2026-04-26T07:50:14.211Z</time></trkpt><trkpt lat="42.1861121" lon="14.5851729"><ele>103.4</ele><time>2026-04-26T07:50:15.199Z</time></trkpt><trkpt lat="42.1860072" lon="14.5850859"><ele>103.60000000000001</ele><time>2026-04-26T07:50:17.285Z</time></trkpt><trkpt lat="42.1859039" lon="14.5850796"><ele>103.80000000000001</ele><time>2026-04-26T07:50:19.194Z</time></trkpt><trkpt lat="42.1857911" lon="14.5850587"><ele>104.0</ele><time>2026-04-26T07:50:21.205Z</time></trkpt><trkpt lat="42.1856932" lon="14.5850532"><ele>104.66666666666666</ele><time>2026-04-26T07:50:23.207Z</time></trkpt><trkpt lat="42.1856285" lon="14.5850484"><ele>105.33333333333333</ele><time>2026-04-26T07:50:25.203Z</time></trkpt><trkpt lat="42.1855567" lon="14.5849925"><ele>106.0</ele><time>2026-04-26T07:50:28.214Z</time></trkpt><trkpt lat="42.1854844" lon="14.5848767"><ele>106.66666666666666</ele><time>2026-04-26T07:50:30.174Z</time></trkpt><trkpt lat="42.1854297" lon="14.5848098"><ele>107.33333333333333</ele><time>2026-04-26T07:50:31.185Z</time></trkpt><trkpt lat="42.1853463" lon="14.5847356"><ele>108.0</ele><time>2026-04-26T07:50:32.219Z</time></trkpt><trkpt lat="42.185256" lon="14.58467"><ele>108.0</ele><time>2026-04-26T07:50:33.222Z</time></trkpt><trkpt lat="42.1851697" lon="14.5846071"><ele>108.00000000000001</ele><time>2026-04-26T07:50:34.212Z</time></trkpt><trkpt lat="42.1850767" lon="14.5845466"><ele>108.00000000000001</ele><time>2026-04-26T07:50:35.209Z</time></trkpt><trkpt lat="42.1849677" lon="14.584473"><ele>108.0</ele><time>2026-04-26T07:50:36.216Z</time></trkpt><trkpt lat="42.1848535" lon="14.5844004"><ele>108.0</ele><time>2026-04-26T07:50:37.188Z</time></trkpt><trkpt lat="42.1847411" lon="14.5843486"><ele>108.2</ele><time>2026-04-26T07:50:38.212Z</time></trkpt><trkpt lat="42.1846598" lon="14.5843057"><ele>108.4</ele><time>2026-04-26T07:50:39.224Z</time></trkpt><trkpt lat="42.184606" lon="14.5842435"><ele>108.60000000000001</ele><time>2026-04-26T07:50:40.231Z</time></trkpt><trkpt lat="42.184548" lon="14.584198"><ele>108.80000000000001</ele><time>2026-04-26T07:50:41.225Z</time></trkpt><trkpt lat="42.1844093" lon="14.5842019"><ele>109.0</ele><time>2026-04-26T07:50:43.238Z</time></trkpt><trkpt lat="42.1843165" lon="14.584229"><ele>109.00000000000001</ele><time>2026-04-26T07:50:44.221Z</time></trkpt><trkpt lat="42.1842157" lon="14.5842378"><ele>109.0</ele><time>2026-04-26T07:50:45.243Z</time></trkpt><trkpt lat="42.1841368" lon="14.5842199"><ele>109.0</ele><time>2026-04-26T07:50:46.257Z</time></trkpt><trkpt lat="42.184066" lon="14.5842052"><ele>109.0</ele><time>2026-04-26T07:51:09.226Z</time></trkpt><trkpt lat="42.1840022" lon="14.5841954"><ele>109.00000000000001</ele><time>2026-04-26T07:51:15.202Z</time></trkpt><trkpt lat="42.1839217" lon="14.5841466"><ele>109.0</ele><time>2026-04-26T07:51:18.23Z</time></trkpt><trkpt lat="42.1838189" lon="14.5840508"><ele>109.83333333333334</ele><time>2026-04-26T07:51:20.191Z</time></trkpt><trkpt lat="42.1837586" lon="14.5840042"><ele>110.66666666666667</ele><time>2026-04-26T07:51:21.217Z</time></trkpt><trkpt lat="42.1836851" lon="14.5839608"><ele>111.5</ele><time>2026-04-26T07:51:22.218Z</time></trkpt><trkpt lat="42.1836082" lon="14.5839276"><ele>112.33333333333334</ele><time>2026-04-26T07:51:23.216Z</time></trkpt><trkpt lat="42.183543" lon="14.5838999"><ele>113.16666666666667</ele><time>2026-04-26T07:51:24.234Z</time></trkpt><trkpt lat="42.1834296" lon="14.5838789"><ele>114.0</ele><time>2026-04-26T07:51:26.239Z</time></trkpt><trkpt lat="42.1833217" lon="14.5838558"><ele>114.0</ele><time>2026-04-26T07:51:28.214Z</time></trkpt><trkpt lat="42.1832551" lon="14.5838535"><ele>114.0</ele><time>2026-04-26T07:51:29.204Z</time></trkpt><trkpt lat="42.1831658" lon="14.5838707"><ele>114.0</ele><time>2026-04-26T07:51:30.204Z</time></trkpt><trkpt lat="42.1830564" lon="14.5838903"><ele>114.0</ele><time>2026-04-26T07:51:31.207Z</time></trkpt><trkpt lat="42.1829435" lon="14.5839207"><ele>114.0</ele><time>2026-04-26T07:51:32.207Z</time></trkpt><trkpt lat="42.1828411" lon="14.5839395"><ele>114.4</ele><time>2026-04-26T07:51:33.201Z</time></trkpt><trkpt lat="42.1827534" lon="14.5839607"><ele>114.80000000000001</ele><time>2026-04-26T07:51:34.19Z</time></trkpt><trkpt lat="42.1826665" lon="14.5839869"><ele>115.19999999999999</ele><time>2026-04-26T07:51:36.181Z</time></trkpt><trkpt lat="42.1825491" lon="14.5840638"><ele>115.6</ele><time>2026-04-26T07:51:38.199Z</time></trkpt><trkpt lat="42.1824863" lon="14.5841034"><ele>116.0</ele><time>2026-04-26T07:51:39.195Z</time></trkpt><trkpt lat="42.1824087" lon="14.5841522"><ele>116.8</ele><time>2026-04-26T07:51:40.189Z</time></trkpt><trkpt lat="42.1823116" lon="14.5841615"><ele>117.6</ele><time>2026-04-26T07:51:41.187Z</time></trkpt><trkpt lat="42.182216" lon="14.5841547"><ele>118.4</ele><time>2026-04-26T07:51:42.189Z</time></trkpt><trkpt lat="42.1821146" lon="14.5841556"><ele>119.2</ele><time>2026-04-26T07:51:43.215Z</time></trkpt><trkpt lat="42.1820285" lon="14.5841822"><ele>120.0</ele><time>2026-04-26T07:51:44.241Z</time></trkpt><trkpt lat="42.1819521" lon="14.5842318"><ele>120.0</ele><time>2026-04-26T07:51:45.24Z</time></trkpt><trkpt lat="42.1818665" lon="14.5842867"><ele>120.0</ele><time>2026-04-26T07:51:46.222Z</time></trkpt><trkpt lat="42.1817796" lon="14.5843244"><ele>120.0</ele><time>2026-04-26T07:51:47.233Z</time></trkpt><trkpt lat="42.1816921" lon="14.5843246"><ele>120.0</ele><time>2026-04-26T07:51:48.218Z</time></trkpt><trkpt lat="42.1815965" lon="14.5843274"><ele>120.0</ele><time>2026-04-26T07:51:49.238Z</time></trkpt><trkpt lat="42.1814987" lon="14.5843438"><ele>120.0</ele><time>2026-04-26T07:51:50.232Z</time></trkpt><trkpt lat="42.1813934" lon="14.5844011"><ele>120.0</ele><time>2026-04-26T07:51:51.225Z</time></trkpt><trkpt lat="42.1812529" lon="14.5844808"><ele>120.0</ele><time>2026-04-26T07:51:52.226Z</time></trkpt><trkpt lat="42.1811009" lon="14.584564"><ele>120.0</ele><time>2026-04-26T07:51:53.22Z</time></trkpt><trkpt lat="42.1810075" lon="14.5845843"><ele>120.0</ele><time>2026-04-26T07:51:54.229Z</time></trkpt><trkpt lat="42.1809278" lon="14.584615"><ele>120.0</ele><time>2026-04-26T07:51:56.232Z</time></trkpt><trkpt lat="42.1809113" lon="14.5847391"><ele>120.0</ele><time>2026-04-26T07:51:58.196Z</time></trkpt><trkpt lat="42.1809278" lon="14.5848278"><ele>120.0</ele><time>2026-04-26T07:51:59.239Z</time></trkpt><trkpt lat="42.1809406" lon="14.5849391"><ele>120.0</ele><time>2026-04-26T07:52:00.24Z</time></trkpt><trkpt lat="42.1809402" lon="14.5850611"><ele>120.0</ele><time>2026-04-26T07:52:01.238Z</time></trkpt><trkpt lat="42.1809321" lon="14.5851615"><ele>120.0</ele><time>2026-04-26T07:52:02.232Z</time></trkpt><trkpt lat="42.1809277" lon="14.5852503"><ele>120.0</ele><time>2026-04-26T07:52:03.234Z</time></trkpt><trkpt lat="42.1809253" lon="14.585359"><ele>120.0</ele><time>2026-04-26T07:52:04.234Z</time></trkpt><trkpt lat="42.1809187" lon="14.5854705"><ele>120.0</ele><time>2026-04-26T07:52:05.239Z</time></trkpt><trkpt lat="42.180907" lon="14.5855948"><ele>120.0</ele><time>2026-04-26T07:52:07.242Z</time></trkpt><trkpt lat="42.1808366" lon="14.5857359"><ele>120.0</ele><time>2026-04-26T07:52:09.237Z</time></trkpt><trkpt lat="42.1808376" lon="14.5859134"><ele>120.6</ele><time>2026-04-26T07:52:11.248Z</time></trkpt><trkpt lat="42.180813" lon="14.5860137"><ele>121.2</ele><time>2026-04-26T07:52:13.237Z</time></trkpt><trkpt lat="42.1807237" lon="14.5860338"><ele>121.80000000000001</ele><time>2026-04-26T07:52:15.244Z</time></trkpt><trkpt lat="42.1806398" lon="14.5860092"><ele>122.4</ele><time>2026-04-26T07:52:16.223Z</time></trkpt><trkpt lat="42.1805061" lon="14.585982"><ele>123.0</ele><time>2026-04-26T07:52:17.209Z</time></trkpt><trkpt lat="42.1803631" lon="14.5859768"><ele>123.0</ele><time>2026-04-26T07:52:18.242Z</time></trkpt><trkpt lat="42.1801927" lon="14.5859853"><ele>123.0</ele><time>2026-04-26T07:52:19.257Z</time></trkpt><trkpt lat="42.1800146" lon="14.5860172"><ele>123.0</ele><time>2026-04-26T07:52:20.263Z</time></trkpt><trkpt lat="42.1798402" lon="14.5860669"><ele>123.0</ele><time>2026-04-26T07:52:21.268Z</time></trkpt><trkpt lat="42.1796655" lon="14.5861141"><ele>123.0</ele><time>2026-04-26T07:52:22.26Z</time></trkpt><trkpt lat="42.1794851" lon="14.5861571"><ele>123.0</ele><time>2026-04-26T07:52:23.237Z</time></trkpt><trkpt lat="42.1793129" lon="14.5862003"><ele>123.33333333333334</ele><time>2026-04-26T07:52:24.245Z</time></trkpt><trkpt lat="42.1791464" lon="14.5862425"><ele>123.66666666666667</ele><time>2026-04-26T07:52:25.23Z</time></trkpt><trkpt lat="42.1789792" lon="14.5862868"><ele>124.0</ele><time>2026-04-26T07:52:26.235Z</time></trkpt><trkpt lat="42.1788023" lon="14.5863333"><ele>124.33333333333334</ele><time>2026-04-26T07:52:27.223Z</time></trkpt><trkpt lat="42.1786211" lon="14.5863813"><ele>124.66666666666666</ele><time>2026-04-26T07:52:28.232Z</time></trkpt><trkpt lat="42.1784344" lon="14.5864278"><ele>125.0</ele><time>2026-04-26T07:52:29.249Z</time></trkpt><trkpt lat="42.1782448" lon="14.5864802"><ele>126.0</ele><time>2026-04-26T07:52:30.202Z</time></trkpt><trkpt lat="42.1780757" lon="14.586529"><ele>127.0</ele><time>2026-04-26T07:52:31.251Z</time></trkpt><trkpt lat="42.1779288" lon="14.5865684"><ele>128.0</ele><time>2026-04-26T07:52:32.193Z</time></trkpt><trkpt lat="42.1777892" lon="14.586602"><ele>128.0</ele><time>2026-04-26T07:52:33.254Z</time></trkpt><trkpt lat="42.177646" lon="14.5866161"><ele>128.0</ele><time>2026-04-26T07:52:34.244Z</time></trkpt><trkpt lat="42.1775031" lon="14.586616"><ele>128.0</ele><time>2026-04-26T07:52:35.248Z</time></trkpt><trkpt lat="42.1773724" lon="14.5866089"><ele>128.0</ele><time>2026-04-26T07:52:36.25Z</time></trkpt><trkpt lat="42.1772521" lon="14.5865876"><ele>128.4</ele><time>2026-04-26T07:52:37.19Z</time></trkpt><trkpt lat="42.1771432" lon="14.5865603"><ele>128.8</ele><time>2026-04-26T07:52:38.258Z</time></trkpt><trkpt lat="42.1770402" lon="14.5865277"><ele>129.2</ele><time>2026-04-26T07:52:39.261Z</time></trkpt><trkpt lat="42.1769523" lon="14.5864948"><ele>129.6</ele><time>2026-04-26T07:52:40.239Z</time></trkpt><trkpt lat="42.1768497" lon="14.586486"><ele>130.0</ele><time>2026-04-26T07:52:42.217Z</time></trkpt><trkpt lat="42.1768098" lon="14.5865761"><ele>130.0</ele><time>2026-04-26T07:52:44.226Z</time></trkpt><trkpt lat="42.1767868" lon="14.5866826"><ele>130.0</ele><time>2026-04-26T07:52:45.231Z</time></trkpt><trkpt lat="42.1767434" lon="14.5868192"><ele>130.0</ele><time>2026-04-26T07:52:46.219Z</time></trkpt><trkpt lat="42.1766802" lon="14.5869859"><ele>130.0</ele><time>2026-04-26T07:52:47.209Z</time></trkpt><trkpt lat="42.1766088" lon="14.5871686"><ele>129.5</ele><time>2026-04-26T07:52:48.202Z</time></trkpt><trkpt lat="42.1765457" lon="14.5873386"><ele>129.0</ele><time>2026-04-26T07:52:49.206Z</time></trkpt><trkpt lat="42.1764948" lon="14.5874794"><ele>128.5</ele><time>2026-04-26T07:52:50.234Z</time></trkpt><trkpt lat="42.1764456" lon="14.587608"><ele>128.0</ele><time>2026-04-26T07:52:51.256Z</time></trkpt><trkpt lat="42.1763935" lon="14.5877189"><ele>128.0</ele><time>2026-04-26T07:52:52.246Z</time></trkpt><trkpt lat="42.1763148" lon="14.5878082"><ele>128.0</ele><time>2026-04-26T07:52:53.253Z</time></trkpt><trkpt lat="42.1762095" lon="14.5878779"><ele>128.0</ele><time>2026-04-26T07:52:54.235Z</time></trkpt><trkpt lat="42.176101" lon="14.587922"><ele>128.0</ele><time>2026-04-26T07:52:55.232Z</time></trkpt><trkpt lat="42.1760191" lon="14.5879662"><ele>128.0</ele><time>2026-04-26T07:52:56.228Z</time></trkpt><trkpt lat="42.175958" lon="14.588045"><ele>127.2</ele><time>2026-04-26T07:52:57.209Z</time></trkpt><trkpt lat="42.1759172" lon="14.5881778"><ele>126.4</ele><time>2026-04-26T07:52:58.254Z</time></trkpt><trkpt lat="42.1759065" lon="14.5883215"><ele>125.60000000000001</ele><time>2026-04-26T07:52:59.246Z</time></trkpt><trkpt lat="42.1759068" lon="14.5884651"><ele>124.80000000000001</ele><time>2026-04-26T07:53:00.271Z</time></trkpt><trkpt lat="42.1758898" lon="14.5885985"><ele>124.0</ele><time>2026-04-26T07:53:01.238Z</time></trkpt><trkpt lat="42.1758747" lon="14.5887137"><ele>124.00000000000001</ele><time>2026-04-26T07:53:02.226Z</time></trkpt><trkpt lat="42.1758598" lon="14.5888126"><ele>124.0</ele><time>2026-04-26T07:53:03.25Z</time></trkpt><trkpt lat="42.1758389" lon="14.5889037"><ele>124.0</ele><time>2026-04-26T07:53:04.24Z</time></trkpt><trkpt lat="42.1758087" lon="14.5890056"><ele>124.0</ele><time>2026-04-26T07:53:06.251Z</time></trkpt><trkpt lat="42.1756973" lon="14.5889898"><ele>124.00000000000001</ele><time>2026-04-26T07:53:09.226Z</time></trkpt><trkpt lat="42.1756313" lon="14.5889838"><ele>124.0</ele><time>2026-04-26T07:53:10.215Z</time></trkpt><trkpt lat="42.1755354" lon="14.5889901"><ele>124.66666666666667</ele><time>2026-04-26T07:53:11.253Z</time></trkpt><trkpt lat="42.1754278" lon="14.5889937"><ele>125.33333333333334</ele><time>2026-04-26T07:53:12.257Z</time></trkpt><trkpt lat="42.1753325" lon="14.5889719"><ele>126.0</ele><time>2026-04-26T07:53:13.211Z</time></trkpt><trkpt lat="42.1752531" lon="14.5889393"><ele>126.66666666666666</ele><time>2026-04-26T07:53:14.239Z</time></trkpt><trkpt lat="42.1751854" lon="14.5889048"><ele>127.33333333333333</ele><time>2026-04-26T07:53:15.25Z</time></trkpt><trkpt lat="42.175128" lon="14.5888662"><ele>128.0</ele><time>2026-04-26T07:53:16.229Z</time></trkpt><trkpt lat="42.175047" lon="14.5888088"><ele>128.0</ele><time>2026-04-26T07:53:18.189Z</time></trkpt><trkpt lat="42.1749832" lon="14.5889115"><ele>128.0</ele><time>2026-04-26T07:53:20.216Z</time></trkpt><trkpt lat="42.1749108" lon="14.5890464"><ele>128.0</ele><time>2026-04-26T07:53:21.235Z</time></trkpt><trkpt lat="42.1748312" lon="14.5891787"><ele>128.0</ele><time>2026-04-26T07:53:22.238Z</time></trkpt><trkpt lat="42.1747859" lon="14.5892641"><ele>128.0</ele><time>2026-04-26T07:53:23.242Z</time></trkpt><trkpt lat="42.1747265" lon="14.5893226"><ele>128.33333333333331</ele><time>2026-04-26T07:53:26.228Z</time></trkpt><trkpt lat="42.1746616" lon="14.5893188"><ele>128.66666666666666</ele><time>2026-04-26T07:53:28.243Z</time></trkpt><trkpt lat="42.1745864" lon="14.5892978"><ele>129.0</ele><time>2026-04-26T07:53:30.25Z</time></trkpt><trkpt lat="42.1744976" lon="14.5892162"><ele>129.33333333333334</ele><time>2026-04-26T07:53:32.236Z</time></trkpt><trkpt lat="42.1744519" lon="14.5891113"><ele>129.66666666666669</ele><time>2026-04-26T07:53:33.23Z</time></trkpt><trkpt lat="42.1744055" lon="14.5889828"><ele>130.0</ele><time>2026-04-26T07:53:34.224Z</time></trkpt><trkpt lat="42.174356" lon="14.5888758"><ele>130.0</ele><time>2026-04-26T07:53:35.243Z</time></trkpt><trkpt lat="42.1742942" lon="14.5887858"><ele>130.0</ele><time>2026-04-26T07:53:36.248Z</time></trkpt><trkpt lat="42.1742207" lon="14.5887109"><ele>130.0</ele><time>2026-04-26T07:53:37.246Z</time></trkpt><trkpt lat="42.1741279" lon="14.588661"><ele>130.0</ele><time>2026-04-26T07:53:38.233Z</time></trkpt><trkpt lat="42.1739984" lon="14.5886117"><ele>130.0</ele><time>2026-04-26T07:53:39.241Z</time></trkpt><trkpt lat="42.1738499" lon="14.5885409"><ele>131.0</ele><time>2026-04-26T07:53:40.259Z</time></trkpt><trkpt lat="42.1736891" lon="14.5884501"><ele>132.0</ele><time>2026-04-26T07:53:41.236Z</time></trkpt><trkpt lat="42.1735396" lon="14.5883504"><ele>133.0</ele><time>2026-04-26T07:53:42.208Z</time></trkpt><trkpt lat="42.1734162" lon="14.5882555"><ele>133.0</ele><time>2026-04-26T07:53:43.207Z</time></trkpt><trkpt lat="42.1733021" lon="14.5881575"><ele>133.0</ele><time>2026-04-26T07:53:44.238Z</time></trkpt><trkpt lat="42.1731845" lon="14.5880525"><ele>133.0</ele><time>2026-04-26T07:53:45.248Z</time></trkpt><trkpt lat="42.1730691" lon="14.5879484"><ele>133.0</ele><time>2026-04-26T07:53:46.241Z</time></trkpt><trkpt lat="42.1729587" lon="14.5878469"><ele>134.0</ele><time>2026-04-26T07:53:47.225Z</time></trkpt><trkpt lat="42.1728591" lon="14.5877398"><ele>135.0</ele><time>2026-04-26T07:53:48.251Z</time></trkpt><trkpt lat="42.1727629" lon="14.5876279"><ele>136.0</ele><time>2026-04-26T07:53:49.261Z</time></trkpt><trkpt lat="42.1726588" lon="14.5875047"><ele>137.0</ele><time>2026-04-26T07:53:50.21Z</time></trkpt><trkpt lat="42.1725543" lon="14.5873645"><ele>137.0</ele><time>2026-04-26T07:53:51.258Z</time></trkpt><trkpt lat="42.1724431" lon="14.5872155"><ele>137.0</ele><time>2026-04-26T07:53:52.24Z</time></trkpt><trkpt lat="42.1723253" lon="14.5870524"><ele>137.0</ele><time>2026-04-26T07:53:53.26Z</time></trkpt><trkpt lat="42.1722234" lon="14.586891"><ele>138.0</ele><time>2026-04-26T07:53:54.255Z</time></trkpt><trkpt lat="42.1721339" lon="14.5867589"><ele>139.0</ele><time>2026-04-26T07:53:55.235Z</time></trkpt><trkpt lat="42.1720615" lon="14.5866278"><ele>140.0</ele><time>2026-04-26T07:53:56.225Z</time></trkpt><trkpt lat="42.1720061" lon="14.5864817"><ele>141.0</ele><time>2026-04-26T07:53:57.25Z</time></trkpt><trkpt lat="42.1719601" lon="14.5862964"><ele>141.25</ele><time>2026-04-26T07:53:58.233Z</time></trkpt><trkpt lat="42.1719183" lon="14.5861012"><ele>141.5</ele><time>2026-04-26T07:53:59.201Z</time></trkpt><trkpt lat="42.1718751" lon="14.5859346"><ele>141.75</ele><time>2026-04-26T07:54:00.25Z</time></trkpt><trkpt lat="42.1718164" lon="14.5857713"><ele>142.0</ele><time>2026-04-26T07:54:01.218Z</time></trkpt><trkpt lat="42.1717338" lon="14.5855975"><ele>142.0</ele><time>2026-04-26T07:54:02.226Z</time></trkpt><trkpt lat="42.1716414" lon="14.5854018"><ele>142.0</ele><time>2026-04-26T07:54:03.209Z</time></trkpt><trkpt lat="42.1715388" lon="14.5851938"><ele>142.0</ele><time>2026-04-26T07:54:04.24Z</time></trkpt><trkpt lat="42.1714555" lon="14.5850226"><ele>142.4</ele><time>2026-04-26T07:54:05.236Z</time></trkpt><trkpt lat="42.1713863" lon="14.5848919"><ele>142.79999999999998</ele><time>2026-04-26T07:54:06.246Z</time></trkpt><trkpt lat="42.1713261" lon="14.5847762"><ele>143.2</ele><time>2026-04-26T07:54:07.217Z</time></trkpt><trkpt lat="42.17127" lon="14.5846775"><ele>143.6</ele><time>2026-04-26T07:54:08.249Z</time></trkpt><trkpt lat="42.1712176" lon="14.584589"><ele>144.0</ele><time>2026-04-26T07:54:09.258Z</time></trkpt><trkpt lat="42.1711651" lon="14.5845159"><ele>144.0</ele><time>2026-04-26T07:54:10.243Z</time></trkpt><trkpt lat="42.1710896" lon="14.5844278"><ele>144.0</ele><time>2026-04-26T07:54:12.251Z</time></trkpt><trkpt lat="42.1709944" lon="14.584437"><ele>144.0</ele><time>2026-04-26T07:54:14.255Z</time></trkpt><trkpt lat="42.1709084" lon="14.5844787"><ele>144.0</ele><time>2026-04-26T07:54:15.244Z</time></trkpt><trkpt lat="42.1707982" lon="14.5845462"><ele>144.0</ele><time>2026-04-26T07:54:16.265Z</time></trkpt><trkpt lat="42.1706629" lon="14.5846291"><ele>144.0</ele><time>2026-04-26T07:54:17.23Z</time></trkpt><trkpt lat="42.1705158" lon="14.5847061"><ele>144.0</ele><time>2026-04-26T07:54:18.247Z</time></trkpt><trkpt lat="42.170356" lon="14.5847533"><ele>144.0</ele><time>2026-04-26T07:54:19.244Z</time></trkpt><trkpt lat="42.1701931" lon="14.5847779"><ele>144.0</ele><time>2026-04-26T07:54:20.272Z</time></trkpt><trkpt lat="42.1700474" lon="14.5847874"><ele>144.0</ele><time>2026-04-26T07:54:21.231Z</time></trkpt><trkpt lat="42.1699172" lon="14.5847999"><ele>144.0</ele><time>2026-04-26T07:54:22.229Z</time></trkpt><trkpt lat="42.1697905" lon="14.5848073"><ele>144.0</ele><time>2026-04-26T07:54:23.255Z</time></trkpt><trkpt lat="42.1696626" lon="14.5847968"><ele>144.25</ele><time>2026-04-26T07:54:24.228Z</time></trkpt><trkpt lat="42.1695271" lon="14.5847758"><ele>144.5</ele><time>2026-04-26T07:54:25.229Z</time></trkpt><trkpt lat="42.1693792" lon="14.5847555"><ele>144.75</ele><time>2026-04-26T07:54:26.24Z</time></trkpt><trkpt lat="42.1692164" lon="14.5847272"><ele>145.0</ele><time>2026-04-26T07:54:27.223Z</time></trkpt><trkpt lat="42.1690336" lon="14.5846834"><ele>146.33333333333334</ele><time>2026-04-26T07:54:28.248Z</time></trkpt><trkpt lat="42.1688511" lon="14.5846305"><ele>147.66666666666666</ele><time>2026-04-26T07:54:29.225Z</time></trkpt><trkpt lat="42.1686899" lon="14.5845736"><ele>149.0</ele><time>2026-04-26T07:54:30.235Z</time></trkpt><trkpt lat="42.1685388" lon="14.5845097"><ele>149.0</ele><time>2026-04-26T07:54:31.247Z</time></trkpt><trkpt lat="42.1683963" lon="14.584471"><ele>149.0</ele><time>2026-04-26T07:54:32.245Z</time></trkpt><trkpt lat="42.1682638" lon="14.5844478"><ele>149.0</ele><time>2026-04-26T07:54:33.258Z</time></trkpt><trkpt lat="42.1681301" lon="14.5844606"><ele>149.0</ele><time>2026-04-26T07:54:34.239Z</time></trkpt><trkpt lat="42.1679936" lon="14.5845051"><ele>149.25</ele><time>2026-04-26T07:54:35.262Z</time></trkpt><trkpt lat="42.167859" lon="14.5845779"><ele>149.5</ele><time>2026-04-26T07:54:36.184Z</time></trkpt><trkpt lat="42.1677204" lon="14.5846468"><ele>149.75</ele><time>2026-04-26T07:54:37.229Z</time></trkpt><trkpt lat="42.1675766" lon="14.5846937"><ele>150.0</ele><time>2026-04-26T07:54:38.247Z</time></trkpt><trkpt lat="42.1674426" lon="14.5847269"><ele>149.8</ele><time>2026-04-26T07:54:39.266Z</time></trkpt><trkpt lat="42.1673192" lon="14.5847468"><ele>149.6</ele><time>2026-04-26T07:54:40.244Z</time></trkpt><trkpt lat="42.1672032" lon="14.584761"><ele>149.4</ele><time>2026-04-26T07:54:41.242Z</time></trkpt><trkpt lat="42.1671207" lon="14.5847673"><ele>149.2</ele><time>2026-04-26T07:54:42.241Z</time></trkpt><trkpt lat="42.1670313" lon="14.5847669"><ele>149.0</ele><time>2026-04-26T07:54:44.233Z</time></trkpt><trkpt lat="42.1669718" lon="14.5846554"><ele>149.0</ele><time>2026-04-26T07:54:46.231Z</time></trkpt><trkpt lat="42.1669377" lon="14.5845419"><ele>149.0</ele><time>2026-04-26T07:54:47.242Z</time></trkpt><trkpt lat="42.1668609" lon="14.5843851"><ele>149.0</ele><time>2026-04-26T07:54:48.232Z</time></trkpt><trkpt lat="42.1667872" lon="14.584215"><ele>149.0</ele><time>2026-04-26T07:54:49.239Z</time></trkpt><trkpt lat="42.166706" lon="14.5840302"><ele>150.0</ele><time>2026-04-26T07:54:50.238Z</time></trkpt><trkpt lat="42.1666321" lon="14.5838545"><ele>151.0</ele><time>2026-04-26T07:54:51.251Z</time></trkpt><trkpt lat="42.1665606" lon="14.5836834"><ele>152.0</ele><time>2026-04-26T07:54:52.239Z</time></trkpt><trkpt lat="42.1664825" lon="14.5835056"><ele>153.0</ele><time>2026-04-26T07:54:53.239Z</time></trkpt><trkpt lat="42.1664043" lon="14.5833328"><ele>153.25</ele><time>2026-04-26T07:54:54.254Z</time></trkpt><trkpt lat="42.1663272" lon="14.5831723"><ele>153.5</ele><time>2026-04-26T07:54:55.245Z</time></trkpt><trkpt lat="42.1662535" lon="14.5830024"><ele>153.75</ele><time>2026-04-26T07:54:56.244Z</time></trkpt><trkpt lat="42.1661796" lon="14.5828166"><ele>154.0</ele><time>2026-04-26T07:54:57.243Z</time></trkpt><trkpt lat="42.1661092" lon="14.5826427"><ele>154.2</ele><time>2026-04-26T07:54:58.211Z</time></trkpt><trkpt lat="42.1660505" lon="14.582517"><ele>154.4</ele><time>2026-04-26T07:54:59.196Z</time></trkpt><trkpt lat="42.1659965" lon="14.5824113"><ele>154.6</ele><time>2026-04-26T07:55:00.2Z</time></trkpt><trkpt lat="42.1659439" lon="14.5823175"><ele>154.8</ele><time>2026-04-26T07:55:01.217Z</time></trkpt><trkpt lat="42.1658918" lon="14.5822157"><ele>155.0</ele><time>2026-04-26T07:55:02.203Z</time></trkpt><trkpt lat="42.1658358" lon="14.5820934"><ele>155.4</ele><time>2026-04-26T07:55:03.19Z</time></trkpt><trkpt lat="42.1657805" lon="14.5819676"><ele>155.8</ele><time>2026-04-26T07:55:04.203Z</time></trkpt><trkpt lat="42.1657355" lon="14.5818312"><ele>156.2</ele><time>2026-04-26T07:55:05.192Z</time></trkpt><trkpt lat="42.1656962" lon="14.581714"><ele>156.6</ele><time>2026-04-26T07:55:06.213Z</time></trkpt><trkpt lat="42.1656662" lon="14.5816387"><ele>157.0</ele><time>2026-04-26T07:55:07.189Z</time></trkpt><trkpt lat="42.1656521" lon="14.5815099"><ele>157.4</ele><time>2026-04-26T07:55:09.192Z</time></trkpt><trkpt lat="42.165613" lon="14.5813648"><ele>157.79999999999998</ele><time>2026-04-26T07:55:11.218Z</time></trkpt><trkpt lat="42.1655814" lon="14.5812651"><ele>158.2</ele><time>2026-04-26T07:55:12.242Z</time></trkpt><trkpt lat="42.1655218" lon="14.5811424"><ele>158.6</ele><time>2026-04-26T07:55:13.258Z</time></trkpt><trkpt lat="42.1654371" lon="14.5810308"><ele>159.0</ele><time>2026-04-26T07:55:14.193Z</time></trkpt><trkpt lat="42.1653598" lon="14.5809032"><ele>159.25</ele><time>2026-04-26T07:55:15.228Z</time></trkpt><trkpt lat="42.1652792" lon="14.5807591"><ele>159.5</ele><time>2026-04-26T07:55:16.25Z</time></trkpt><trkpt lat="42.1651992" lon="14.5806229"><ele>159.75</ele><time>2026-04-26T07:55:17.224Z</time></trkpt><trkpt lat="42.1651157" lon="14.5804889"><ele>160.0</ele><time>2026-04-26T07:55:18.256Z</time></trkpt><trkpt lat="42.1650301" lon="14.5803486"><ele>160.25</ele><time>2026-04-26T07:55:19.241Z</time></trkpt><trkpt lat="42.1649383" lon="14.580215"><ele>160.5</ele><time>2026-04-26T07:55:20.252Z</time></trkpt><trkpt lat="42.1648448" lon="14.5800792"><ele>160.75</ele><time>2026-04-26T07:55:21.237Z</time></trkpt><trkpt lat="42.1647511" lon="14.579938"><ele>161.0</ele><time>2026-04-26T07:55:22.255Z</time></trkpt><trkpt lat="42.1646633" lon="14.5797879"><ele>161.60000000000002</ele><time>2026-04-26T07:55:23.217Z</time></trkpt><trkpt lat="42.1645838" lon="14.5796534"><ele>162.2</ele><time>2026-04-26T07:55:24.254Z</time></trkpt><trkpt lat="42.1645171" lon="14.5795355"><ele>162.8</ele><time>2026-04-26T07:55:25.257Z</time></trkpt><trkpt lat="42.16446" lon="14.5794507"><ele>163.39999999999998</ele><time>2026-04-26T07:55:26.257Z</time></trkpt><trkpt lat="42.1644177" lon="14.579383"><ele>164.0</ele><time>2026-04-26T07:55:27.232Z</time></trkpt><trkpt lat="42.1643319" lon="14.5793868"><ele>164.0</ele><time>2026-04-26T07:55:29.208Z</time></trkpt><trkpt lat="42.1642551" lon="14.5794478"><ele>164.0</ele><time>2026-04-26T07:55:30.241Z</time></trkpt><trkpt lat="42.1641596" lon="14.5795235"><ele>164.0</ele><time>2026-04-26T07:55:31.258Z</time></trkpt><trkpt lat="42.1640766" lon="14.5795895"><ele>164.0</ele><time>2026-04-26T07:55:32.235Z</time></trkpt><trkpt lat="42.1639836" lon="14.5796552"><ele>164.0</ele><time>2026-04-26T07:55:34.263Z</time></trkpt><trkpt lat="42.1638995" lon="14.5796076"><ele>164.83333333333331</ele><time>2026-04-26T07:55:36.221Z</time></trkpt><trkpt lat="42.1638518" lon="14.5795414"><ele>165.66666666666666</ele><time>2026-04-26T07:55:37.226Z</time></trkpt><trkpt lat="42.1637901" lon="14.5794534"><ele>166.5</ele><time>2026-04-26T07:55:38.238Z</time></trkpt><trkpt lat="42.1637331" lon="14.5793592"><ele>167.33333333333334</ele><time>2026-04-26T07:55:39.239Z</time></trkpt><trkpt lat="42.1637022" lon="14.5792798"><ele>168.16666666666669</ele><time>2026-04-26T07:55:40.257Z</time></trkpt><trkpt lat="42.1636264" lon="14.579152"><ele>169.0</ele><time>2026-04-26T07:55:42.237Z</time></trkpt><trkpt lat="42.1635521" lon="14.5791138"><ele>169.5</ele><time>2026-04-26T07:55:43.243Z</time></trkpt><trkpt lat="42.1634876" lon="14.5790879"><ele>170.0</ele><time>2026-04-26T07:55:44.271Z</time></trkpt><trkpt lat="42.163426" lon="14.5790204"><ele>170.5</ele><time>2026-04-26T07:55:46.251Z</time></trkpt><trkpt lat="42.1633568" lon="14.5788749"><ele>171.0</ele><time>2026-04-26T07:55:48.217Z</time></trkpt><trkpt lat="42.1632957" lon="14.5788189"><ele>171.5</ele><time>2026-04-26T07:55:49.245Z</time></trkpt><trkpt lat="42.1632416" lon="14.5787535"><ele>172.0</ele><time>2026-04-26T07:55:50.229Z</time></trkpt><trkpt lat="42.1631911" lon="14.5786659"><ele>173.0</ele><time>2026-04-26T07:55:51.245Z</time></trkpt><trkpt lat="42.1631264" lon="14.5785849"><ele>174.0</ele><time>2026-04-26T07:55:52.189Z</time></trkpt><trkpt lat="42.1630615" lon="14.5785064"><ele>175.0</ele><time>2026-04-26T07:55:53.184Z</time></trkpt><trkpt lat="42.1629984" lon="14.5784405"><ele>176.0</ele><time>2026-04-26T07:55:54.187Z</time></trkpt><trkpt lat="42.162947" lon="14.5783913"><ele>177.0</ele><time>2026-04-26T07:55:55.185Z</time></trkpt><trkpt lat="42.1628869" lon="14.578347"><ele>178.0</ele><time>2026-04-26T07:55:56.239Z</time></trkpt><trkpt lat="42.1628427" lon="14.5782614"><ele>178.0</ele><time>2026-04-26T07:55:58.235Z</time></trkpt><trkpt lat="42.1629224" lon="14.5781212"><ele>178.0</ele><time>2026-04-26T07:56:00.196Z</time></trkpt><trkpt lat="42.1629916" lon="14.5780245"><ele>178.0</ele><time>2026-04-26T07:56:01.248Z</time></trkpt><trkpt lat="42.1630516" lon="14.5779727"><ele>178.0</ele><time>2026-04-26T07:56:02.217Z</time></trkpt><trkpt lat="42.1631248" lon="14.5779222"><ele>178.0</ele><time>2026-04-26T07:56:04.189Z</time></trkpt><trkpt lat="42.1632289" lon="14.5779078"><ele>177.4</ele><time>2026-04-26T07:56:06.183Z</time></trkpt><trkpt lat="42.1632999" lon="14.5778327"><ele>176.8</ele><time>2026-04-26T07:56:07.223Z</time></trkpt><trkpt lat="42.163369" lon="14.577756"><ele>176.2</ele><time>2026-04-26T07:56:08.255Z</time></trkpt><trkpt lat="42.1634396" lon="14.5776776"><ele>175.6</ele><time>2026-04-26T07:56:09.224Z</time></trkpt><trkpt lat="42.1634975" lon="14.5776029"><ele>175.0</ele><time>2026-04-26T07:56:10.225Z</time></trkpt><trkpt lat="42.1635323" lon="14.5774726"><ele>175.0</ele><time>2026-04-26T07:56:12.192Z</time></trkpt><trkpt lat="42.1635145" lon="14.5773866"><ele>175.0</ele><time>2026-04-26T07:56:13.186Z</time></trkpt><trkpt lat="42.1634838" lon="14.5772815"><ele>175.0</ele><time>2026-04-26T07:56:14.245Z</time></trkpt><trkpt lat="42.1634437" lon="14.5771942"><ele>175.0</ele><time>2026-04-26T07:56:15.269Z</time></trkpt><trkpt lat="42.1633808" lon="14.5771129"><ele>175.0</ele><time>2026-04-26T07:56:16.216Z</time></trkpt><trkpt lat="42.1632882" lon="14.5770199"><ele>175.0</ele><time>2026-04-26T07:56:17.27Z</time></trkpt><trkpt lat="42.1631659" lon="14.5769165"><ele>176.66666666666669</ele><time>2026-04-26T07:56:18.246Z</time></trkpt><trkpt lat="42.1630255" lon="14.5767967"><ele>178.33333333333334</ele><time>2026-04-26T07:56:19.251Z</time></trkpt><trkpt lat="42.1628823" lon="14.5766895"><ele>180.0</ele><time>2026-04-26T07:56:20.236Z</time></trkpt><trkpt lat="42.1627697" lon="14.5765946"><ele>180.0</ele><time>2026-04-26T07:56:21.301Z</time></trkpt><trkpt lat="42.1626877" lon="14.5765286"><ele>180.0</ele><time>2026-04-26T07:56:22.234Z</time></trkpt><trkpt lat="42.1626203" lon="14.5764792"><ele>180.0</ele><time>2026-04-26T07:56:23.247Z</time></trkpt><trkpt lat="42.1625586" lon="14.576434"><ele>180.0</ele><time>2026-04-26T07:56:24.258Z</time></trkpt><trkpt lat="42.1624964" lon="14.5763864"><ele>180.0</ele><time>2026-04-26T07:56:25.244Z</time></trkpt><trkpt lat="42.1624309" lon="14.5763363"><ele>180.0</ele><time>2026-04-26T07:56:26.262Z</time></trkpt><trkpt lat="42.1623268" lon="14.5762982"><ele>181.75</ele><time>2026-04-26T07:56:28.258Z</time></trkpt><trkpt lat="42.1622306" lon="14.5764272"><ele>183.5</ele><time>2026-04-26T07:56:30.241Z</time></trkpt><trkpt lat="42.1621722" lon="14.5765588"><ele>185.25</ele><time>2026-04-26T07:56:31.242Z</time></trkpt><trkpt lat="42.1621057" lon="14.5767027"><ele>187.0</ele><time>2026-04-26T07:56:32.214Z</time></trkpt><trkpt lat="42.1620333" lon="14.576858"><ele>187.0</ele><time>2026-04-26T07:56:33.239Z</time></trkpt><trkpt lat="42.161961" lon="14.5770158"><ele>187.0</ele><time>2026-04-26T07:56:34.241Z</time></trkpt><trkpt lat="42.1619015" lon="14.5771439"><ele>187.0</ele><time>2026-04-26T07:56:35.238Z</time></trkpt><trkpt lat="42.1618466" lon="14.5772474"><ele>187.0</ele><time>2026-04-26T07:56:36.239Z</time></trkpt><trkpt lat="42.161803" lon="14.5773312"><ele>187.0</ele><time>2026-04-26T07:56:37.242Z</time></trkpt><trkpt lat="42.1617522" lon="14.5774084"><ele>186.66666666666669</ele><time>2026-04-26T07:56:39.209Z</time></trkpt><trkpt lat="42.1616751" lon="14.5773848"><ele>186.33333333333334</ele><time>2026-04-26T07:56:41.244Z</time></trkpt><trkpt lat="42.1616157" lon="14.5773178"><ele>186.0</ele><time>2026-04-26T07:56:42.243Z</time></trkpt><trkpt lat="42.1615425" lon="14.5772488"><ele>185.66666666666666</ele><time>2026-04-26T07:56:43.259Z</time></trkpt><trkpt lat="42.1614692" lon="14.5771769"><ele>185.33333333333331</ele><time>2026-04-26T07:56:44.262Z</time></trkpt><trkpt lat="42.1613862" lon="14.577109"><ele>185.0</ele><time>2026-04-26T07:56:45.249Z</time></trkpt><trkpt lat="42.1613022" lon="14.5770488"><ele>187.6</ele><time>2026-04-26T07:56:46.253Z</time></trkpt><trkpt lat="42.161233" lon="14.5769947"><ele>190.2</ele><time>2026-04-26T07:56:47.273Z</time></trkpt><trkpt lat="42.1611677" lon="14.5769411"><ele>192.8</ele><time>2026-04-26T07:56:48.248Z</time></trkpt><trkpt lat="42.1610845" lon="14.5768323"><ele>195.4</ele><time>2026-04-26T07:56:50.207Z</time></trkpt><trkpt lat="42.1610461" lon="14.5767387"><ele>198.0</ele><time>2026-04-26T07:56:52.232Z</time></trkpt><trkpt lat="42.1611259" lon="14.5765827"><ele>198.0</ele><time>2026-04-26T07:56:54.252Z</time></trkpt><trkpt lat="42.1612032" lon="14.5764608"><ele>198.0</ele><time>2026-04-26T07:56:55.246Z</time></trkpt><trkpt lat="42.1612708" lon="14.5762911"><ele>198.0</ele><time>2026-04-26T07:56:56.259Z</time></trkpt><trkpt lat="42.1613291" lon="14.5761059"><ele>198.0</ele><time>2026-04-26T07:56:57.207Z</time></trkpt><trkpt lat="42.1613836" lon="14.5759383"><ele>198.4</ele><time>2026-04-26T07:56:58.234Z</time></trkpt><trkpt lat="42.161422" lon="14.5757911"><ele>198.8</ele><time>2026-04-26T07:56:59.234Z</time></trkpt><trkpt lat="42.1614476" lon="14.5756741"><ele>199.2</ele><time>2026-04-26T07:57:00.243Z</time></trkpt><trkpt lat="42.1614586" lon="14.5755756"><ele>199.6</ele><time>2026-04-26T07:57:01.263Z</time></trkpt><trkpt lat="42.1614697" lon="14.57544"><ele>200.0</ele><time>2026-04-26T07:57:03.234Z</time></trkpt><trkpt lat="42.1614429" lon="14.5753384"><ele>197.75</ele><time>2026-04-26T07:57:05.223Z</time></trkpt><trkpt lat="42.1613274" lon="14.5752279"><ele>195.5</ele><time>2026-04-26T07:57:07.227Z</time></trkpt><trkpt lat="42.1612244" lon="14.5751476"><ele>193.25</ele><time>2026-04-26T07:57:08.231Z</time></trkpt><trkpt lat="42.1611402" lon="14.5750478"><ele>191.0</ele><time>2026-04-26T07:57:09.245Z</time></trkpt><trkpt lat="42.161086" lon="14.574953"><ele>191.0</ele><time>2026-04-26T07:57:10.222Z</time></trkpt><trkpt lat="42.1610511" lon="14.5748492"><ele>191.0</ele><time>2026-04-26T07:57:11.249Z</time></trkpt><trkpt lat="42.1610235" lon="14.5747366"><ele>191.0</ele><time>2026-04-26T07:57:12.253Z</time></trkpt><trkpt lat="42.1610086" lon="14.574606"><ele>191.0</ele><time>2026-04-26T07:57:13.218Z</time></trkpt><trkpt lat="42.1609916" lon="14.5744706"><ele>191.0</ele><time>2026-04-26T07:57:14.252Z</time></trkpt><trkpt lat="42.1609781" lon="14.5743549"><ele>188.33333333333331</ele><time>2026-04-26T07:57:15.255Z</time></trkpt><trkpt lat="42.1609719" lon="14.5742418"><ele>185.66666666666666</ele><time>2026-04-26T07:57:16.235Z</time></trkpt><trkpt lat="42.1609631" lon="14.5741264"><ele>183.0</ele><time>2026-04-26T07:57:17.253Z</time></trkpt><trkpt lat="42.160971" lon="14.5740222"><ele>180.33333333333334</ele><time>2026-04-26T07:57:18.227Z</time></trkpt><trkpt lat="42.1609859" lon="14.5739375"><ele>177.66666666666669</ele><time>2026-04-26T07:57:19.238Z</time></trkpt><trkpt lat="42.1610404" lon="14.5738378"><ele>175.0</ele><time>2026-04-26T07:57:21.254Z</time></trkpt><trkpt lat="42.1611649" lon="14.5738679"><ele>175.0</ele><time>2026-04-26T07:57:23.198Z</time></trkpt><trkpt lat="42.1612607" lon="14.5739256"><ele>175.0</ele><time>2026-04-26T07:57:24.248Z</time></trkpt><trkpt lat="42.1613827" lon="14.5739975"><ele>175.0</ele><time>2026-04-26T07:57:25.229Z</time></trkpt><trkpt lat="42.1614906" lon="14.5740708"><ele>175.0</ele><time>2026-04-26T07:57:26.227Z</time></trkpt><trkpt lat="42.1615787" lon="14.5741486"><ele>174.83333333333334</ele><time>2026-04-26T07:57:27.224Z</time></trkpt><trkpt lat="42.1616654" lon="14.5742368"><ele>174.66666666666669</ele><time>2026-04-26T07:57:28.22Z</time></trkpt><trkpt lat="42.1617427" lon="14.5743285"><ele>174.5</ele><time>2026-04-26T07:57:29.261Z</time></trkpt><trkpt lat="42.1618032" lon="14.5743973"><ele>174.33333333333334</ele><time>2026-04-26T07:57:30.241Z</time></trkpt><trkpt lat="42.1618481" lon="14.5744589"><ele>174.16666666666666</ele><time>2026-04-26T07:57:31.278Z</time></trkpt><trkpt lat="42.1618846" lon="14.5745324"><ele>174.0</ele><time>2026-04-26T07:57:32.247Z</time></trkpt><trkpt lat="42.1619584" lon="14.5746231"><ele>174.0</ele><time>2026-04-26T07:57:33.278Z</time></trkpt><trkpt lat="42.1620724" lon="14.5747215"><ele>174.0</ele><time>2026-04-26T07:57:34.244Z</time></trkpt><trkpt lat="42.1621709" lon="14.5748056"><ele>174.0</ele><time>2026-04-26T07:57:35.263Z</time></trkpt><trkpt lat="42.1622411" lon="14.5748675"><ele>174.0</ele><time>2026-04-26T07:57:36.239Z</time></trkpt><trkpt lat="42.1623106" lon="14.5749281"><ele>174.0</ele><time>2026-04-26T07:57:38.235Z</time></trkpt><trkpt lat="42.1623685" lon="14.5748556"><ele>174.0</ele><time>2026-04-26T07:57:40.226Z</time></trkpt><trkpt lat="42.1623487" lon="14.5747305"><ele>174.0</ele><time>2026-04-26T07:57:42.235Z</time></trkpt><trkpt lat="42.1623272" lon="14.5745913"><ele>174.0</ele><time>2026-04-26T07:57:44.24Z</time></trkpt><trkpt lat="42.1623786" lon="14.574469"><ele>174.0</ele><time>2026-04-26T07:57:45.245Z</time></trkpt><trkpt lat="42.1624577" lon="14.5742972"><ele>173.0</ele><time>2026-04-26T07:57:46.212Z</time></trkpt><trkpt lat="42.1625412" lon="14.5740999"><ele>172.0</ele><time>2026-04-26T07:57:47.227Z</time></trkpt><trkpt lat="42.1626101" lon="14.5739253"><ele>171.0</ele><time>2026-04-26T07:57:48.249Z</time></trkpt><trkpt lat="42.1626445" lon="14.5737921"><ele>170.0</ele><time>2026-04-26T07:57:49.232Z</time></trkpt><trkpt lat="42.1626748" lon="14.5737065"><ele>170.0</ele><time>2026-04-26T07:57:50.247Z</time></trkpt><trkpt lat="42.1627478" lon="14.5737305"><ele>170.0</ele><time>2026-04-26T07:57:52.205Z</time></trkpt><trkpt lat="42.1628031" lon="14.5737845"><ele>170.0</ele><time>2026-04-26T07:57:53.242Z</time></trkpt><trkpt lat="42.1628935" lon="14.573761"><ele>170.0</ele><time>2026-04-26T07:57:55.226Z</time></trkpt><trkpt lat="42.1629782" lon="14.5736974"><ele>170.0</ele><time>2026-04-26T07:57:57.26Z</time></trkpt><trkpt lat="42.1630802" lon="14.5737513"><ele>170.0</ele><time>2026-04-26T07:57:59.211Z</time></trkpt><trkpt lat="42.1631893" lon="14.5737986"><ele>172.0</ele><time>2026-04-26T07:58:01.247Z</time></trkpt><trkpt lat="42.1632737" lon="14.573879"><ele>174.0</ele><time>2026-04-26T07:58:03.219Z</time></trkpt><trkpt lat="42.1633287" lon="14.5739378"><ele>176.0</ele><time>2026-04-26T07:58:04.235Z</time></trkpt><trkpt lat="42.1633978" lon="14.5740066"><ele>178.0</ele><time>2026-04-26T07:58:05.243Z</time></trkpt><trkpt lat="42.1634927" lon="14.5740786"><ele>180.0</ele><time>2026-04-26T07:58:06.24Z</time></trkpt><trkpt lat="42.1636218" lon="14.5741694"><ele>180.0</ele><time>2026-04-26T07:58:07.247Z</time></trkpt><trkpt lat="42.163759" lon="14.5742616"><ele>180.0</ele><time>2026-04-26T07:58:08.203Z</time></trkpt><trkpt lat="42.1638749" lon="14.5743469"><ele>180.0</ele><time>2026-04-26T07:58:09.248Z</time></trkpt><trkpt lat="42.1639847" lon="14.5744127"><ele>180.0</ele><time>2026-04-26T07:58:10.21Z</time></trkpt><trkpt lat="42.1640896" lon="14.5744646"><ele>181.6</ele><time>2026-04-26T07:58:11.221Z</time></trkpt><trkpt lat="42.1641895" lon="14.5745035"><ele>183.2</ele><time>2026-04-26T07:58:12.19Z</time></trkpt><trkpt lat="42.1642892" lon="14.5745089"><ele>184.8</ele><time>2026-04-26T07:58:13.232Z</time></trkpt><trkpt lat="42.1643869" lon="14.5744859"><ele>186.4</ele><time>2026-04-26T07:58:14.243Z</time></trkpt><trkpt lat="42.164488" lon="14.574448"><ele>188.0</ele><time>2026-04-26T07:58:15.208Z</time></trkpt><trkpt lat="42.1645861" lon="14.5744078"><ele>188.0</ele><time>2026-04-26T07:58:16.241Z</time></trkpt><trkpt lat="42.1646642" lon="14.5743554"><ele>188.0</ele><time>2026-04-26T07:58:17.248Z</time></trkpt><trkpt lat="42.1647244" lon="14.5742972"><ele>188.0</ele><time>2026-04-26T07:58:18.243Z</time></trkpt><trkpt lat="42.1647753" lon="14.5742427"><ele>188.0</ele><time>2026-04-26T07:58:19.264Z</time></trkpt><trkpt lat="42.1648633" lon="14.5741389"><ele>188.0</ele><time>2026-04-26T07:58:21.204Z</time></trkpt><trkpt lat="42.1649215" lon="14.5740926"><ele>188.0</ele><time>2026-04-26T07:58:22.226Z</time></trkpt><trkpt lat="42.164987" lon="14.5740315"><ele>188.2</ele><time>2026-04-26T07:58:23.247Z</time></trkpt><trkpt lat="42.1650507" lon="14.5739435"><ele>188.4</ele><time>2026-04-26T07:58:24.253Z</time></trkpt><trkpt lat="42.1651135" lon="14.5738346"><ele>188.6</ele><time>2026-04-26T07:58:25.242Z</time></trkpt><trkpt lat="42.1651778" lon="14.5737146"><ele>188.79999999999998</ele><time>2026-04-26T07:58:26.253Z</time></trkpt><trkpt lat="42.1652401" lon="14.5735785"><ele>189.0</ele><time>2026-04-26T07:58:27.259Z</time></trkpt><trkpt lat="42.1653063" lon="14.5734327"><ele>189.0</ele><time>2026-04-26T07:58:28.25Z</time></trkpt><trkpt lat="42.1653664" lon="14.5732784"><ele>189.0</ele><time>2026-04-26T07:58:29.245Z</time></trkpt><trkpt lat="42.1654331" lon="14.5731236"><ele>189.0</ele><time>2026-04-26T07:58:30.263Z</time></trkpt><trkpt lat="42.1655049" lon="14.5729619"><ele>189.0</ele><time>2026-04-26T07:58:31.239Z</time></trkpt><trkpt lat="42.1655774" lon="14.5728033"><ele>188.2</ele><time>2026-04-26T07:58:32.252Z</time></trkpt><trkpt lat="42.165642" lon="14.5726576"><ele>187.39999999999998</ele><time>2026-04-26T07:58:33.256Z</time></trkpt><trkpt lat="42.1657014" lon="14.5725169"><ele>186.6</ele><time>2026-04-26T07:58:34.244Z</time></trkpt><trkpt lat="42.1657474" lon="14.5724012"><ele>185.8</ele><time>2026-04-26T07:58:35.2Z</time></trkpt><trkpt lat="42.1657839" lon="14.572322"><ele>185.0</ele><time>2026-04-26T07:58:36.238Z</time></trkpt><trkpt lat="42.1658208" lon="14.5722521"><ele>184.5</ele><time>2026-04-26T07:58:37.252Z</time></trkpt><trkpt lat="42.1658918" lon="14.5721678"><ele>184.0</ele><time>2026-04-26T07:58:39.297Z</time></trkpt><trkpt lat="42.1659655" lon="14.5721566"><ele>183.5</ele><time>2026-04-26T07:58:41.237Z</time></trkpt><trkpt lat="42.1660034" lon="14.5722627"><ele>183.0</ele><time>2026-04-26T07:58:44.239Z</time></trkpt><trkpt lat="42.16606" lon="14.5723243"><ele>182.5</ele><time>2026-04-26T07:58:46.227Z</time></trkpt><trkpt lat="42.1661447" lon="14.572334"><ele>182.0</ele><time>2026-04-26T07:58:47.225Z</time></trkpt><trkpt lat="42.1662505" lon="14.5723327"><ele>182.0</ele><time>2026-04-26T07:58:48.218Z</time></trkpt><trkpt lat="42.1663567" lon="14.5723371"><ele>182.0</ele><time>2026-04-26T07:58:49.25Z</time></trkpt><trkpt lat="42.1664418" lon="14.572334"><ele>182.0</ele><time>2026-04-26T07:58:50.182Z</time></trkpt><trkpt lat="42.1665131" lon="14.5723392"><ele>182.0</ele><time>2026-04-26T07:58:51.182Z</time></trkpt><trkpt lat="42.1666136" lon="14.5723047"><ele>182.0</ele><time>2026-04-26T07:58:53.187Z</time></trkpt><trkpt lat="42.166728" lon="14.5723258"><ele>181.66666666666666</ele><time>2026-04-26T07:58:55.182Z</time></trkpt><trkpt lat="42.1667998" lon="14.5723449"><ele>181.33333333333331</ele><time>2026-04-26T07:58:56.214Z</time></trkpt><trkpt lat="42.1668673" lon="14.5723759"><ele>181.0</ele><time>2026-04-26T07:58:57.219Z</time></trkpt><trkpt lat="42.1669392" lon="14.5723864"><ele>180.66666666666666</ele><time>2026-04-26T07:58:58.218Z</time></trkpt><trkpt lat="42.1670077" lon="14.5724018"><ele>180.33333333333334</ele><time>2026-04-26T07:58:59.182Z</time></trkpt><trkpt lat="42.1670854" lon="14.5724315"><ele>180.0</ele><time>2026-04-26T07:59:00.18Z</time></trkpt><trkpt lat="42.1671634" lon="14.5724854"><ele>180.0</ele><time>2026-04-26T07:59:01.221Z</time></trkpt><trkpt lat="42.1672427" lon="14.5725277"><ele>180.0</ele><time>2026-04-26T07:59:02.216Z</time></trkpt><trkpt lat="42.1673216" lon="14.5725665"><ele>180.0</ele><time>2026-04-26T07:59:03.213Z</time></trkpt><trkpt lat="42.1673914" lon="14.5725892"><ele>180.0</ele><time>2026-04-26T07:59:04.243Z</time></trkpt><trkpt lat="42.1675016" lon="14.572623"><ele>180.0</ele><time>2026-04-26T07:59:06.231Z</time></trkpt><trkpt lat="42.1675914" lon="14.5726764"><ele>179.4</ele><time>2026-04-26T07:59:08.247Z</time></trkpt><trkpt lat="42.1676059" lon="14.5727748"><ele>178.8</ele><time>2026-04-26T07:59:10.223Z</time></trkpt><trkpt lat="42.1675766" lon="14.5728936"><ele>178.2</ele><time>2026-04-26T07:59:11.252Z</time></trkpt><trkpt lat="42.1675136" lon="14.5730489"><ele>177.6</ele><time>2026-04-26T07:59:12.222Z</time></trkpt><trkpt lat="42.1674517" lon="14.5732314"><ele>177.0</ele><time>2026-04-26T07:59:13.262Z</time></trkpt><trkpt lat="42.1673933" lon="14.5734464"><ele>178.25</ele><time>2026-04-26T07:59:14.191Z</time></trkpt><trkpt lat="42.1673382" lon="14.5736091"><ele>179.5</ele><time>2026-04-26T07:59:15.18Z</time></trkpt><trkpt lat="42.1673184" lon="14.5737061"><ele>180.75</ele><time>2026-04-26T07:59:16.18Z</time></trkpt><trkpt lat="42.167439" lon="14.5738118"><ele>182.0</ele><time>2026-04-26T07:59:19.217Z</time></trkpt><trkpt lat="42.1675657" lon="14.5738315"><ele>182.0</ele><time>2026-04-26T07:59:20.208Z</time></trkpt><trkpt lat="42.1676532" lon="14.5738554"><ele>182.0</ele><time>2026-04-26T07:59:21.188Z</time></trkpt><trkpt lat="42.167742" lon="14.5738855"><ele>182.0</ele><time>2026-04-26T07:59:22.251Z</time></trkpt><trkpt lat="42.1678095" lon="14.5739284"><ele>182.0</ele><time>2026-04-26T07:59:23.243Z</time></trkpt><trkpt lat="42.1678775" lon="14.5739705"><ele>182.0</ele><time>2026-04-26T07:59:24.213Z</time></trkpt><trkpt lat="42.1679571" lon="14.5740056"><ele>182.0</ele><time>2026-04-26T07:59:25.202Z</time></trkpt><trkpt lat="42.1680553" lon="14.5740686"><ele>182.0</ele><time>2026-04-26T07:59:26.209Z</time></trkpt><trkpt lat="42.1681431" lon="14.5741481"><ele>182.0</ele><time>2026-04-26T07:59:27.201Z</time></trkpt><trkpt lat="42.168203" lon="14.5741967"><ele>182.0</ele><time>2026-04-26T07:59:28.219Z</time></trkpt><trkpt lat="42.1682845" lon="14.5742169"><ele>182.0</ele><time>2026-04-26T07:59:30.195Z</time></trkpt><trkpt lat="42.1683753" lon="14.5741456"><ele>182.0</ele><time>2026-04-26T07:59:32.187Z</time></trkpt><trkpt lat="42.1684516" lon="14.5741366"><ele>182.0</ele><time>2026-04-26T07:59:33.231Z</time></trkpt><trkpt lat="42.1685414" lon="14.5741647"><ele>181.2</ele><time>2026-04-26T07:59:34.232Z</time></trkpt><trkpt lat="42.168618" lon="14.5742126"><ele>180.39999999999998</ele><time>2026-04-26T07:59:35.229Z</time></trkpt><trkpt lat="42.168675" lon="14.574262"><ele>179.60000000000002</ele><time>2026-04-26T07:59:36.229Z</time></trkpt><trkpt lat="42.1687365" lon="14.574352"><ele>178.8</ele><time>2026-04-26T07:59:38.193Z</time></trkpt><trkpt lat="42.168847" lon="14.5744406"><ele>178.0</ele><time>2026-04-26T07:59:40.186Z</time></trkpt><trkpt lat="42.1689202" lon="14.5744858"><ele>177.33333333333334</ele><time>2026-04-26T07:59:41.242Z</time></trkpt><trkpt lat="42.1689668" lon="14.5745697"><ele>176.66666666666669</ele><time>2026-04-26T07:59:43.221Z</time></trkpt><trkpt lat="42.1689751" lon="14.5746702"><ele>176.0</ele><time>2026-04-26T07:59:44.239Z</time></trkpt><trkpt lat="42.1689867" lon="14.5747696"><ele>175.33333333333334</ele><time>2026-04-26T07:59:45.224Z</time></trkpt><trkpt lat="42.1689725" lon="14.5749297"><ele>174.66666666666666</ele><time>2026-04-26T07:59:47.183Z</time></trkpt><trkpt lat="42.1689408" lon="14.5750301"><ele>174.0</ele><time>2026-04-26T07:59:48.233Z</time></trkpt><trkpt lat="42.1688702" lon="14.5751516"><ele>174.0</ele><time>2026-04-26T07:59:49.185Z</time></trkpt><trkpt lat="42.1687819" lon="14.5752896"><ele>174.0</ele><time>2026-04-26T07:59:50.225Z</time></trkpt><trkpt lat="42.1687121" lon="14.5753939"><ele>174.0</ele><time>2026-04-26T07:59:51.21Z</time></trkpt><trkpt lat="42.1686769" lon="14.5754833"><ele>174.0</ele><time>2026-04-26T07:59:53.225Z</time></trkpt><trkpt lat="42.1687887" lon="14.5755832"><ele>174.0</ele><time>2026-04-26T07:59:55.215Z</time></trkpt><trkpt lat="42.1688911" lon="14.5756863"><ele>172.75</ele><time>2026-04-26T07:59:56.205Z</time></trkpt><trkpt lat="42.1690176" lon="14.5758236"><ele>171.5</ele><time>2026-04-26T07:59:57.217Z</time></trkpt><trkpt lat="42.1691421" lon="14.5759492"><ele>170.25</ele><time>2026-04-26T07:59:58.258Z</time></trkpt><trkpt lat="42.1692366" lon="14.5760706"><ele>169.0</ele><time>2026-04-26T07:59:59.194Z</time></trkpt><trkpt lat="42.169323" lon="14.5761732"><ele>167.5</ele><time>2026-04-26T08:00:00.19Z</time></trkpt><trkpt lat="42.1694041" lon="14.5762455"><ele>166.0</ele><time>2026-04-26T08:00:01.231Z</time></trkpt><trkpt lat="42.1694859" lon="14.5762973"><ele>164.5</ele><time>2026-04-26T08:00:02.238Z</time></trkpt><trkpt lat="42.1695698" lon="14.5763305"><ele>163.0</ele><time>2026-04-26T08:00:03.21Z</time></trkpt><trkpt lat="42.1696485" lon="14.5763858"><ele>161.5</ele><time>2026-04-26T08:00:04.237Z</time></trkpt><trkpt lat="42.1697184" lon="14.5764415"><ele>160.0</ele><time>2026-04-26T08:00:05.241Z</time></trkpt><trkpt lat="42.1697769" lon="14.5765034"><ele>159.0</ele><time>2026-04-26T08:00:06.263Z</time></trkpt><trkpt lat="42.1698687" lon="14.5765031"><ele>158.0</ele><time>2026-04-26T08:00:08.27Z</time></trkpt><trkpt lat="42.1699848" lon="14.576442"><ele>157.0</ele><time>2026-04-26T08:00:10.239Z</time></trkpt><trkpt lat="42.1700517" lon="14.5764969"><ele>156.0</ele><time>2026-04-26T08:00:11.223Z</time></trkpt><trkpt lat="42.1701636" lon="14.5765868"><ele>155.0</ele><time>2026-04-26T08:00:12.234Z</time></trkpt><trkpt lat="42.1702882" lon="14.5766762"><ele>155.0</ele><time>2026-04-26T08:00:13.237Z</time></trkpt><trkpt lat="42.1703653" lon="14.5767271"><ele>155.0</ele><time>2026-04-26T08:00:14.259Z</time></trkpt><trkpt lat="42.170449" lon="14.5767838"><ele>155.0</ele><time>2026-04-26T08:00:16.236Z</time></trkpt><trkpt lat="42.1704252" lon="14.5769342"><ele>155.0</ele><time>2026-04-26T08:00:19.224Z</time></trkpt><trkpt lat="42.1703663" lon="14.5770461"><ele>155.0</ele><time>2026-04-26T08:00:20.225Z</time></trkpt><trkpt lat="42.1702905" lon="14.5772051"><ele>154.66666666666666</ele><time>2026-04-26T08:00:21.224Z</time></trkpt><trkpt lat="42.1702046" lon="14.5774148"><ele>154.33333333333334</ele><time>2026-04-26T08:00:22.247Z</time></trkpt><trkpt lat="42.170112" lon="14.5776499"><ele>154.0</ele><time>2026-04-26T08:00:23.266Z</time></trkpt><trkpt lat="42.1700268" lon="14.5778712"><ele>153.75</ele><time>2026-04-26T08:00:24.254Z</time></trkpt><trkpt lat="42.1699465" lon="14.5780604"><ele>153.5</ele><time>2026-04-26T08:00:25.224Z</time></trkpt><trkpt lat="42.1698918" lon="14.5782175"><ele>153.25</ele><time>2026-04-26T08:00:26.23Z</time></trkpt><trkpt lat="42.1698509" lon="14.5783351"><ele>153.0</ele><time>2026-04-26T08:00:27.234Z</time></trkpt><trkpt lat="42.1698222" lon="14.5784149"><ele>153.0</ele><time>2026-04-26T08:00:28.188Z</time></trkpt><trkpt lat="42.1698379" lon="14.5785165"><ele>153.0</ele><time>2026-04-26T08:00:30.224Z</time></trkpt><trkpt lat="42.1699192" lon="14.5785765"><ele>153.0</ele><time>2026-04-26T08:00:31.239Z</time></trkpt><trkpt lat="42.1700209" lon="14.5786841"><ele>153.0</ele><time>2026-04-26T08:00:32.252Z</time></trkpt><trkpt lat="42.1701599" lon="14.5788221"><ele>152.0</ele><time>2026-04-26T08:00:33.255Z</time></trkpt><trkpt lat="42.1703161" lon="14.5789699"><ele>151.0</ele><time>2026-04-26T08:00:34.252Z</time></trkpt><trkpt lat="42.1704478" lon="14.5790784"><ele>150.0</ele><time>2026-04-26T08:00:35.234Z</time></trkpt><trkpt lat="42.170566" lon="14.5791705"><ele>150.0</ele><time>2026-04-26T08:00:36.248Z</time></trkpt><trkpt lat="42.1706837" lon="14.5792751"><ele>150.0</ele><time>2026-04-26T08:00:37.249Z</time></trkpt><trkpt lat="42.1707963" lon="14.5793965"><ele>150.0</ele><time>2026-04-26T08:00:38.254Z</time></trkpt><trkpt lat="42.170903" lon="14.5795161"><ele>150.0</ele><time>2026-04-26T08:00:39.221Z</time></trkpt><trkpt lat="42.1710055" lon="14.5796301"><ele>148.75</ele><time>2026-04-26T08:00:40.252Z</time></trkpt><trkpt lat="42.1710954" lon="14.5797377"><ele>147.5</ele><time>2026-04-26T08:00:41.2Z</time></trkpt><trkpt lat="42.1711829" lon="14.5798492"><ele>146.25</ele><time>2026-04-26T08:00:42.18Z</time></trkpt><trkpt lat="42.1712642" lon="14.5799646"><ele>145.0</ele><time>2026-04-26T08:00:43.181Z</time></trkpt><trkpt lat="42.1713448" lon="14.5800855"><ele>145.0</ele><time>2026-04-26T08:00:44.18Z</time></trkpt><trkpt lat="42.171409" lon="14.5801689"><ele>145.0</ele><time>2026-04-26T08:00:45.219Z</time></trkpt><trkpt lat="42.171471" lon="14.5802042"><ele>145.0</ele><time>2026-04-26T08:00:47.216Z</time></trkpt><trkpt lat="42.1715797" lon="14.5801528"><ele>145.0</ele><time>2026-04-26T08:00:49.201Z</time></trkpt><trkpt lat="42.1716488" lon="14.5800807"><ele>145.0</ele><time>2026-04-26T08:00:50.199Z</time></trkpt><trkpt lat="42.1717504" lon="14.57997"><ele>144.0</ele><time>2026-04-26T08:00:51.208Z</time></trkpt><trkpt lat="42.1718466" lon="14.5798694"><ele>143.0</ele><time>2026-04-26T08:00:52.264Z</time></trkpt><trkpt lat="42.1719196" lon="14.579803"><ele>142.0</ele><time>2026-04-26T08:00:53.247Z</time></trkpt><trkpt lat="42.1719794" lon="14.5797627"><ele>141.0</ele><time>2026-04-26T08:00:54.24Z</time></trkpt><trkpt lat="42.1720467" lon="14.5798176"><ele>140.0</ele><time>2026-04-26T08:01:07.25Z</time></trkpt><trkpt lat="42.1721353" lon="14.5799299"><ele>140.0</ele><time>2026-04-26T08:01:09.224Z</time></trkpt><trkpt lat="42.172183" lon="14.5800026"><ele>140.0</ele><time>2026-04-26T08:01:10.248Z</time></trkpt><trkpt lat="42.1722413" lon="14.5800724"><ele>140.0</ele><time>2026-04-26T08:01:11.234Z</time></trkpt><trkpt lat="42.1723002" lon="14.5801538"><ele>140.0</ele><time>2026-04-26T08:01:12.245Z</time></trkpt><trkpt lat="42.1723566" lon="14.5802389"><ele>140.0</ele><time>2026-04-26T08:01:13.177Z</time></trkpt><trkpt lat="42.1724075" lon="14.5803173"><ele>140.0</ele><time>2026-04-26T08:01:14.182Z</time></trkpt><trkpt lat="42.1724419" lon="14.5803939"><ele>135.75</ele><time>2026-04-26T08:01:15.178Z</time></trkpt><trkpt lat="42.17253" lon="14.5805052"><ele>131.5</ele><time>2026-04-26T08:01:17.233Z</time></trkpt><trkpt lat="42.1726348" lon="14.580592"><ele>127.25</ele><time>2026-04-26T08:01:19.236Z</time></trkpt><trkpt lat="42.1727782" lon="14.5805797"><ele>123.0</ele><time>2026-04-26T08:01:21.208Z</time></trkpt><trkpt lat="42.1728826" lon="14.5805745"><ele>123.0</ele><time>2026-04-26T08:01:22.207Z</time></trkpt><trkpt lat="42.1729873" lon="14.5805551"><ele>123.00000000000001</ele><time>2026-04-26T08:01:23.247Z</time></trkpt><trkpt lat="42.1730859" lon="14.5805401"><ele>123.00000000000001</ele><time>2026-04-26T08:01:24.238Z</time></trkpt><trkpt lat="42.1731788" lon="14.5805185"><ele>123.0</ele><time>2026-04-26T08:01:25.231Z</time></trkpt><trkpt lat="42.1732689" lon="14.5804908"><ele>123.0</ele><time>2026-04-26T08:01:26.231Z</time></trkpt><trkpt lat="42.1733471" lon="14.580478"><ele>122.2</ele><time>2026-04-26T08:01:27.251Z</time></trkpt><trkpt lat="42.1734751" lon="14.5805527"><ele>121.4</ele><time>2026-04-26T08:01:29.237Z</time></trkpt><trkpt lat="42.1735498" lon="14.5806406"><ele>120.60000000000001</ele><time>2026-04-26T08:01:30.187Z</time></trkpt><trkpt lat="42.1736134" lon="14.5807184"><ele>119.80000000000001</ele><time>2026-04-26T08:01:31.177Z</time></trkpt><trkpt lat="42.1737098" lon="14.5807591"><ele>119.0</ele><time>2026-04-26T08:01:33.202Z</time></trkpt><trkpt lat="42.1738061" lon="14.5807094"><ele>118.99999999999999</ele><time>2026-04-26T08:01:35.233Z</time></trkpt><trkpt lat="42.1738662" lon="14.5806583"><ele>119.0</ele><time>2026-04-26T08:01:37.201Z</time></trkpt><trkpt lat="42.1738945" lon="14.5807376"><ele>119.0</ele><time>2026-04-26T08:01:42.208Z</time></trkpt><trkpt lat="42.1739453" lon="14.5807919"><ele>119.0</ele><time>2026-04-26T08:01:44.183Z</time></trkpt><trkpt lat="42.1740154" lon="14.5807573"><ele>118.99999999999999</ele><time>2026-04-26T08:01:46.189Z</time></trkpt><trkpt lat="42.174101" lon="14.5806873"><ele>119.0</ele><time>2026-04-26T08:01:48.243Z</time></trkpt><trkpt lat="42.1742174" lon="14.5805912"><ele>118.83333333333333</ele><time>2026-04-26T08:01:50.231Z</time></trkpt><trkpt lat="42.1742695" lon="14.5805289"><ele>118.66666666666666</ele><time>2026-04-26T08:01:51.229Z</time></trkpt><trkpt lat="42.1743244" lon="14.5804656"><ele>118.5</ele><time>2026-04-26T08:01:53.255Z</time></trkpt><trkpt lat="42.1744033" lon="14.5804305"><ele>118.33333333333334</ele><time>2026-04-26T08:01:57.216Z</time></trkpt><trkpt lat="42.1745283" lon="14.5803769"><ele>118.16666666666667</ele><time>2026-04-26T08:01:59.181Z</time></trkpt><trkpt lat="42.1745968" lon="14.5803269"><ele>118.0</ele><time>2026-04-26T08:02:00.219Z</time></trkpt><trkpt lat="42.1746661" lon="14.5802892"><ele>118.0</ele><time>2026-04-26T08:02:01.24Z</time></trkpt><trkpt lat="42.1747509" lon="14.5802595"><ele>118.00000000000001</ele><time>2026-04-26T08:02:02.22Z</time></trkpt><trkpt lat="42.1748538" lon="14.5802249"><ele>118.00000000000001</ele><time>2026-04-26T08:02:03.234Z</time></trkpt><trkpt lat="42.1749627" lon="14.58018"><ele>118.0</ele><time>2026-04-26T08:02:04.226Z</time></trkpt><trkpt lat="42.1750681" lon="14.5801347"><ele>118.0</ele><time>2026-04-26T08:02:05.228Z</time></trkpt><trkpt lat="42.1751563" lon="14.5800944"><ele>118.0</ele><time>2026-04-26T08:02:06.245Z</time></trkpt><trkpt lat="42.1752238" lon="14.5800604"><ele>118.00000000000001</ele><time>2026-04-26T08:02:07.208Z</time></trkpt><trkpt lat="42.1753242" lon="14.5799976"><ele>118.00000000000001</ele><time>2026-04-26T08:02:09.239Z</time></trkpt><trkpt lat="42.1753825" lon="14.5799598"><ele>118.0</ele><time>2026-04-26T08:02:11.25Z</time></trkpt><trkpt lat="42.1754768" lon="14.5799028"><ele>118.0</ele><time>2026-04-26T08:02:13.228Z</time></trkpt><trkpt lat="42.1755714" lon="14.5798534"><ele>118.00000000000001</ele><time>2026-04-26T08:02:14.258Z</time></trkpt><trkpt lat="42.1756543" lon="14.5798026"><ele>118.0</ele><time>2026-04-26T08:02:15.248Z</time></trkpt><trkpt lat="42.1757225" lon="14.5797622"><ele>118.0</ele><time>2026-04-26T08:02:16.243Z</time></trkpt><trkpt lat="42.1758255" lon="14.5797337"><ele>118.0</ele><time>2026-04-26T08:02:18.252Z</time></trkpt><trkpt lat="42.1758917" lon="14.5797394"><ele>118.00000000000001</ele><time>2026-04-26T08:02:19.247Z</time></trkpt><trkpt lat="42.1759624" lon="14.5797752"><ele>118.0</ele><time>2026-04-26T08:02:22.182Z</time></trkpt><trkpt lat="42.1760494" lon="14.5797782"><ele>118.0</ele><time>2026-04-26T08:02:25.216Z</time></trkpt><trkpt lat="42.1761332" lon="14.5797817"><ele>118.00000000000001</ele><time>2026-04-26T08:02:27.237Z</time></trkpt><trkpt lat="42.1762429" lon="14.5797989"><ele>118.00000000000001</ele><time>2026-04-26T08:02:29.215Z</time></trkpt><trkpt lat="42.1763133" lon="14.5798155"><ele>118.0</ele><time>2026-04-26T08:02:30.229Z</time></trkpt><trkpt lat="42.1764129" lon="14.5798536"><ele>118.0</ele><time>2026-04-26T08:02:32.222Z</time></trkpt><trkpt lat="42.176514" lon="14.5798365"><ele>117.60000000000001</ele><time>2026-04-26T08:02:34.212Z</time></trkpt><trkpt lat="42.1766057" lon="14.5797927"><ele>117.20000000000002</ele><time>2026-04-26T08:02:36.241Z</time></trkpt><trkpt lat="42.1767057" lon="14.5797591"><ele>116.8</ele><time>2026-04-26T08:02:38.229Z</time></trkpt><trkpt lat="42.1768098" lon="14.5797589"><ele>116.4</ele><time>2026-04-26T08:02:40.25Z</time></trkpt><trkpt lat="42.1769064" lon="14.5797854"><ele>116.0</ele><time>2026-04-26T08:02:42.239Z</time></trkpt><trkpt lat="42.1769782" lon="14.5798383"><ele>115.99999999999999</ele><time>2026-04-26T08:03:01.227Z</time></trkpt><trkpt lat="42.1770393" lon="14.5798762"><ele>116.0</ele><time>2026-04-26T08:03:03.225Z</time></trkpt><trkpt lat="42.177116" lon="14.5799092"><ele>116.0</ele><time>2026-04-26T08:03:05.178Z</time></trkpt><trkpt lat="42.1772106" lon="14.5798999"><ele>116.0</ele><time>2026-04-26T08:03:06.239Z</time></trkpt><trkpt lat="42.1773127" lon="14.5798934"><ele>115.99999999999999</ele><time>2026-04-26T08:03:07.234Z</time></trkpt><trkpt lat="42.1774078" lon="14.5798857"><ele>116.0</ele><time>2026-04-26T08:03:08.179Z</time></trkpt><trkpt lat="42.1775017" lon="14.5798788"><ele>115.33333333333333</ele><time>2026-04-26T08:03:09.231Z</time></trkpt><trkpt lat="42.1775837" lon="14.5798765"><ele>114.66666666666666</ele><time>2026-04-26T08:03:10.231Z</time></trkpt><trkpt lat="42.17766" lon="14.5799092"><ele>114.0</ele><time>2026-04-26T08:03:11.215Z</time></trkpt><trkpt lat="42.1777456" lon="14.5799463"><ele>113.33333333333334</ele><time>2026-04-26T08:03:12.211Z</time></trkpt><trkpt lat="42.1778058" lon="14.5799868"><ele>112.66666666666667</ele><time>2026-04-26T08:03:14.222Z</time></trkpt><trkpt lat="42.1778849" lon="14.5800209"><ele>112.0</ele><time>2026-04-26T08:04:39.227Z</time></trkpt><trkpt lat="42.1779581" lon="14.5800197"><ele>112.00000000000001</ele><time>2026-04-26T08:04:42.219Z</time></trkpt><trkpt lat="42.1780472" lon="14.5799803"><ele>112.0</ele><time>2026-04-26T08:04:44.237Z</time></trkpt><trkpt lat="42.1781623" lon="14.5799126"><ele>112.0</ele><time>2026-04-26T08:04:46.224Z</time></trkpt><trkpt lat="42.1782333" lon="14.5798676"><ele>112.0</ele><time>2026-04-26T08:04:47.21Z</time></trkpt><trkpt lat="42.1783005" lon="14.5798477"><ele>112.00000000000001</ele><time>2026-04-26T08:04:48.17Z</time></trkpt><trkpt lat="42.1783639" lon="14.5798399"><ele>112.0</ele><time>2026-04-26T08:04:49.177Z</time></trkpt><trkpt lat="42.1784651" lon="14.5798601"><ele>111.39999999999999</ele><time>2026-04-26T08:04:51.176Z</time></trkpt><trkpt lat="42.1785396" lon="14.5798718"><ele>110.79999999999998</ele><time>2026-04-26T08:04:52.176Z</time></trkpt><trkpt lat="42.1786266" lon="14.5798894"><ele>110.2</ele><time>2026-04-26T08:04:53.177Z</time></trkpt><trkpt lat="42.1787248" lon="14.5799074"><ele>109.6</ele><time>2026-04-26T08:04:55.182Z</time></trkpt><trkpt lat="42.1788369" lon="14.579933"><ele>109.0</ele><time>2026-04-26T08:04:57.17Z</time></trkpt><trkpt lat="42.1789504" lon="14.5800058"><ele>108.4</ele><time>2026-04-26T08:04:59.174Z</time></trkpt><trkpt lat="42.1790266" lon="14.5800337"><ele>107.80000000000001</ele><time>2026-04-26T08:05:00.19Z</time></trkpt><trkpt lat="42.179124" lon="14.5800538"><ele>107.19999999999999</ele><time>2026-04-26T08:05:01.197Z</time></trkpt><trkpt lat="42.1792336" lon="14.58005"><ele>106.6</ele><time>2026-04-26T08:05:02.188Z</time></trkpt><trkpt lat="42.1793385" lon="14.5800378"><ele>106.0</ele><time>2026-04-26T08:05:03.182Z</time></trkpt><trkpt lat="42.1794284" lon="14.5800371"><ele>106.00000000000001</ele><time>2026-04-26T08:05:04.171Z</time></trkpt><trkpt lat="42.1794995" lon="14.5800424"><ele>106.0</ele><time>2026-04-26T08:05:05.195Z</time></trkpt><trkpt lat="42.1795911" lon="14.5800539"><ele>106.0</ele><time>2026-04-26T08:05:07.176Z</time></trkpt><trkpt lat="42.1796631" lon="14.5800174"><ele>106.0</ele><time>2026-04-26T08:05:09.189Z</time></trkpt><trkpt lat="42.1797501" lon="14.5800295"><ele>106.00000000000001</ele><time>2026-04-26T08:05:11.192Z</time></trkpt><trkpt lat="42.1798189" lon="14.5800257"><ele>106.0</ele><time>2026-04-26T08:05:12.208Z</time></trkpt><trkpt lat="42.179898" lon="14.580017"><ele>105.71428571428572</ele><time>2026-04-26T08:05:13.199Z</time></trkpt><trkpt lat="42.1799632" lon="14.5800124"><ele>105.42857142857142</ele><time>2026-04-26T08:05:14.205Z</time></trkpt><trkpt lat="42.1800265" lon="14.5800104"><ele>105.14285714285714</ele><time>2026-04-26T08:05:15.212Z</time></trkpt><trkpt lat="42.1800952" lon="14.5799998"><ele>104.85714285714286</ele><time>2026-04-26T08:05:16.214Z</time></trkpt><trkpt lat="42.1801646" lon="14.5799886"><ele>104.57142857142858</ele><time>2026-04-26T08:05:17.204Z</time></trkpt><trkpt lat="42.1802317" lon="14.5799723"><ele>104.28571428571428</ele><time>2026-04-26T08:05:19.203Z</time></trkpt><trkpt lat="42.1802972" lon="14.579991"><ele>104.0</ele><time>2026-04-26T08:07:45.23Z</time></trkpt><trkpt lat="42.1803756" lon="14.5800214"><ele>103.99999999999999</ele><time>2026-04-26T08:07:48.23Z</time></trkpt><trkpt lat="42.1804387" lon="14.5800621"><ele>104.0</ele><time>2026-04-26T08:07:51.199Z</time></trkpt><trkpt lat="42.1805007" lon="14.5801216"><ele>104.0</ele><time>2026-04-26T08:07:54.225Z</time></trkpt><trkpt lat="42.180554" lon="14.5801999"><ele>104.0</ele><time>2026-04-26T08:07:57.236Z</time></trkpt><trkpt lat="42.1806017" lon="14.5802706"><ele>103.99999999999999</ele><time>2026-04-26T08:08:29.176Z</time></trkpt><trkpt lat="42.1806912" lon="14.5803162"><ele>104.0</ele><time>2026-04-26T08:08:31.239Z</time></trkpt><trkpt lat="42.1807641" lon="14.5803414"><ele>104.0</ele><time>2026-04-26T08:08:32.238Z</time></trkpt><trkpt lat="42.1808583" lon="14.580357"><ele>104.0</ele><time>2026-04-26T08:08:33.232Z</time></trkpt><trkpt lat="42.180966" lon="14.5803616"><ele>104.0</ele><time>2026-04-26T08:08:34.204Z</time></trkpt><trkpt lat="42.1810781" lon="14.5803479"><ele>104.0</ele><time>2026-04-26T08:08:35.219Z</time></trkpt><trkpt lat="42.1811797" lon="14.580339"><ele>104.0</ele><time>2026-04-26T08:08:36.244Z</time></trkpt><trkpt lat="42.1812652" lon="14.5803306"><ele>103.99999999999999</ele><time>2026-04-26T08:08:37.234Z</time></trkpt><trkpt lat="42.1813398" lon="14.5803177"><ele>104.0</ele><time>2026-04-26T08:08:38.255Z</time></trkpt><trkpt lat="42.1814065" lon="14.5803033"><ele>104.0</ele><time>2026-04-26T08:08:39.201Z</time></trkpt><trkpt lat="42.1814781" lon="14.5802863"><ele>104.0</ele><time>2026-04-26T08:08:40.234Z</time></trkpt><trkpt lat="42.1815839" lon="14.5802694"><ele>103.99999999999999</ele><time>2026-04-26T08:08:42.241Z</time></trkpt><trkpt lat="42.1817003" lon="14.5802726"><ele>104.0</ele><time>2026-04-26T08:08:44.223Z</time></trkpt><trkpt lat="42.1817649" lon="14.5802638"><ele>103.83333333333333</ele><time>2026-04-26T08:08:45.229Z</time></trkpt><trkpt lat="42.1818272" lon="14.5802256"><ele>103.66666666666666</ele><time>2026-04-26T08:08:46.235Z</time></trkpt><trkpt lat="42.1818901" lon="14.5801541"><ele>103.5</ele><time>2026-04-26T08:08:47.262Z</time></trkpt><trkpt lat="42.1819515" lon="14.5800742"><ele>103.33333333333334</ele><time>2026-04-26T08:08:48.221Z</time></trkpt><trkpt lat="42.1820125" lon="14.5799956"><ele>103.16666666666667</ele><time>2026-04-26T08:08:49.219Z</time></trkpt><trkpt lat="42.1820579" lon="14.5799275"><ele>103.0</ele><time>2026-04-26T08:08:50.224Z</time></trkpt><trkpt lat="42.1820922" lon="14.5798551"><ele>103.0</ele><time>2026-04-26T08:08:51.227Z</time></trkpt><trkpt lat="42.1821332" lon="14.579779"><ele>103.0</ele><time>2026-04-26T08:08:52.218Z</time></trkpt><trkpt lat="42.1821887" lon="14.5796557"><ele>103.0</ele><time>2026-04-26T08:08:54.237Z</time></trkpt><trkpt lat="42.1822651" lon="14.5795616"><ele>103.0</ele><time>2026-04-26T08:08:56.205Z</time></trkpt><trkpt lat="42.1823889" lon="14.579492"><ele>103.0</ele><time>2026-04-26T08:08:58.237Z</time></trkpt><trkpt lat="42.1824668" lon="14.5794419"><ele>101.83333333333334</ele><time>2026-04-26T08:08:59.226Z</time></trkpt><trkpt lat="42.182532" lon="14.5794134"><ele>100.66666666666667</ele><time>2026-04-26T08:09:00.243Z</time></trkpt><trkpt lat="42.1825973" lon="14.5793876"><ele>99.5</ele><time>2026-04-26T08:09:01.234Z</time></trkpt><trkpt lat="42.1826538" lon="14.5793477"><ele>98.33333333333334</ele><time>2026-04-26T08:09:02.235Z</time></trkpt><trkpt lat="42.1827161" lon="14.5792878"><ele>97.16666666666667</ele><time>2026-04-26T08:09:03.223Z</time></trkpt><trkpt lat="42.1827944" lon="14.5792106"><ele>96.0</ele><time>2026-04-26T08:09:04.243Z</time></trkpt><trkpt lat="42.1828916" lon="14.5791316"><ele>96.0</ele><time>2026-04-26T08:09:05.236Z</time></trkpt><trkpt lat="42.1829828" lon="14.5790701"><ele>96.0</ele><time>2026-04-26T08:09:06.237Z</time></trkpt><trkpt lat="42.1830657" lon="14.5790332"><ele>96.0</ele><time>2026-04-26T08:09:07.225Z</time></trkpt><trkpt lat="42.1831481" lon="14.5790137"><ele>96.0</ele><time>2026-04-26T08:09:08.234Z</time></trkpt><trkpt lat="42.1832364" lon="14.5790161"><ele>96.0</ele><time>2026-04-26T08:09:09.198Z</time></trkpt><trkpt lat="42.1833365" lon="14.5790425"><ele>95.4</ele><time>2026-04-26T08:09:10.252Z</time></trkpt><trkpt lat="42.183434" lon="14.5790783"><ele>94.8</ele><time>2026-04-26T08:09:11.243Z</time></trkpt><trkpt lat="42.1835053" lon="14.5790872"><ele>94.2</ele><time>2026-04-26T08:09:12.216Z</time></trkpt><trkpt lat="42.1835926" lon="14.5790342"><ele>93.60000000000001</ele><time>2026-04-26T08:09:13.248Z</time></trkpt><trkpt lat="42.1836849" lon="14.5789605"><ele>93.0</ele><time>2026-04-26T08:09:14.248Z</time></trkpt><trkpt lat="42.1837652" lon="14.5789084"><ele>93.0</ele><time>2026-04-26T08:09:15.248Z</time></trkpt><trkpt lat="42.1838273" lon="14.5788884"><ele>93.0</ele><time>2026-04-26T08:09:16.227Z</time></trkpt><trkpt lat="42.1839026" lon="14.5788635"><ele>93.0</ele><time>2026-04-26T08:09:18.203Z</time></trkpt><trkpt lat="42.1839068" lon="14.5787277"><ele>93.0</ele><time>2026-04-26T08:09:20.227Z</time></trkpt><trkpt lat="42.1838675" lon="14.5785891"><ele>93.0</ele><time>2026-04-26T08:09:22.209Z</time></trkpt><trkpt lat="42.1838078" lon="14.5785506"><ele>93.0</ele><time>2026-04-26T08:09:23.218Z</time></trkpt><trkpt lat="42.1837375" lon="14.5785169"><ele>93.2</ele><time>2026-04-26T08:09:24.23Z</time></trkpt><trkpt lat="42.1836765" lon="14.5784489"><ele>93.4</ele><time>2026-04-26T08:09:25.22Z</time></trkpt><trkpt lat="42.183602" lon="14.5783187"><ele>93.60000000000001</ele><time>2026-04-26T08:09:26.215Z</time></trkpt><trkpt lat="42.1835182" lon="14.5782001"><ele>93.80000000000001</ele><time>2026-04-26T08:09:27.23Z</time></trkpt><trkpt lat="42.1834705" lon="14.5781426"><ele>94.0</ele><time>2026-04-26T08:09:28.234Z</time></trkpt><trkpt lat="42.1833692" lon="14.5781056"><ele>94.0</ele><time>2026-04-26T08:09:30.232Z</time></trkpt><trkpt lat="42.1832849" lon="14.5780039"><ele>94.0</ele><time>2026-04-26T08:09:32.216Z</time></trkpt><trkpt lat="42.1832436" lon="14.577883"><ele>94.0</ele><time>2026-04-26T08:09:33.225Z</time></trkpt><trkpt lat="42.1831949" lon="14.5777736"><ele>94.0</ele><time>2026-04-26T08:09:34.21Z</time></trkpt><trkpt lat="42.1831482" lon="14.5776905"><ele>94.0</ele><time>2026-04-26T08:09:35.231Z</time></trkpt><trkpt lat="42.183116" lon="14.5776172"><ele>94.0</ele><time>2026-04-26T08:09:36.23Z</time></trkpt><trkpt lat="42.1830336" lon="14.5774693"><ele>96.2</ele><time>2026-04-26T08:09:38.222Z</time></trkpt><trkpt lat="42.1829732" lon="14.5773994"><ele>98.4</ele><time>2026-04-26T08:09:39.193Z</time></trkpt><trkpt lat="42.1829091" lon="14.5773283"><ele>100.6</ele><time>2026-04-26T08:09:40.217Z</time></trkpt><trkpt lat="42.1828543" lon="14.5772629"><ele>102.8</ele><time>2026-04-26T08:09:41.211Z</time></trkpt><trkpt lat="42.1827874" lon="14.5771438"><ele>105.0</ele><time>2026-04-26T08:09:43.245Z</time></trkpt><trkpt lat="42.1827475" lon="14.5770153"><ele>105.0</ele><time>2026-04-26T08:09:45.174Z</time></trkpt><trkpt lat="42.1827224" lon="14.5768919"><ele>105.0</ele><time>2026-04-26T08:09:47.195Z</time></trkpt><trkpt lat="42.1826351" lon="14.5769039"><ele>105.0</ele><time>2026-04-26T08:10:10.223Z</time></trkpt><trkpt lat="42.1825865" lon="14.57697"><ele>105.0</ele><time>2026-04-26T08:10:11.233Z</time></trkpt><trkpt lat="42.182544" lon="14.5771"><ele>105.0</ele><time>2026-04-26T08:10:13.195Z</time></trkpt><trkpt lat="42.1825373" lon="14.5772612"><ele>106.5</ele><time>2026-04-26T08:10:15.176Z</time></trkpt><trkpt lat="42.1825462" lon="14.5773525"><ele>108.0</ele><time>2026-04-26T08:10:16.203Z</time></trkpt><trkpt lat="42.1825565" lon="14.5774499"><ele>109.5</ele><time>2026-04-26T08:10:17.224Z</time></trkpt><trkpt lat="42.1825847" lon="14.5775451"><ele>111.0</ele><time>2026-04-26T08:10:18.19Z</time></trkpt><trkpt lat="42.1826115" lon="14.5776636"><ele>112.5</ele><time>2026-04-26T08:10:20.23Z</time></trkpt><trkpt lat="42.1825551" lon="14.5775876"><ele>114.0</ele><time>2026-04-26T08:10:24.207Z</time></trkpt><trkpt lat="42.1825046" lon="14.5775307"><ele>114.0</ele><time>2026-04-26T08:20:57.235Z</time></trkpt><trkpt lat="42.1824154" lon="14.5774415"><ele>114.0</ele><time>2026-04-26T08:20:59.223Z</time></trkpt><trkpt lat="42.1823556" lon="14.5773799"><ele>114.0</ele><time>2026-04-26T08:21:00.221Z</time></trkpt><trkpt lat="42.1822651" lon="14.5772799"><ele>114.0</ele><time>2026-04-26T08:21:02.251Z</time></trkpt><trkpt lat="42.1821605" lon="14.5772581"><ele>114.0</ele><time>2026-04-26T08:21:04.252Z</time></trkpt><trkpt lat="42.1820651" lon="14.5773031"><ele>115.75</ele><time>2026-04-26T08:21:06.255Z</time></trkpt><trkpt lat="42.1819716" lon="14.5774579"><ele>117.5</ele><time>2026-04-26T08:21:08.188Z</time></trkpt><trkpt lat="42.1819144" lon="14.5775788"><ele>119.25</ele><time>2026-04-26T08:21:09.229Z</time></trkpt><trkpt lat="42.181847" lon="14.5777037"><ele>121.0</ele><time>2026-04-26T08:21:10.18Z</time></trkpt><trkpt lat="42.1817867" lon="14.577814"><ele>119.66666666666667</ele><time>2026-04-26T08:21:11.23Z</time></trkpt><trkpt lat="42.1817354" lon="14.5779195"><ele>118.33333333333334</ele><time>2026-04-26T08:21:12.246Z</time></trkpt><trkpt lat="42.181711" lon="14.5780118"><ele>117.0</ele><time>2026-04-26T08:21:13.233Z</time></trkpt><trkpt lat="42.1817024" lon="14.5780963"><ele>115.66666666666666</ele><time>2026-04-26T08:21:14.22Z</time></trkpt><trkpt lat="42.1817204" lon="14.5782419"><ele>114.33333333333333</ele><time>2026-04-26T08:21:16.243Z</time></trkpt><trkpt lat="42.1817446" lon="14.5783398"><ele>113.0</ele><time>2026-04-26T08:21:17.238Z</time></trkpt><trkpt lat="42.1817615" lon="14.5784469"><ele>113.0</ele><time>2026-04-26T08:21:18.221Z</time></trkpt><trkpt lat="42.181771" lon="14.578554"><ele>113.00000000000001</ele><time>2026-04-26T08:21:19.224Z</time></trkpt><trkpt lat="42.1817892" lon="14.5786777"><ele>113.00000000000001</ele><time>2026-04-26T08:21:20.247Z</time></trkpt><trkpt lat="42.1818063" lon="14.5788205"><ele>113.0</ele><time>2026-04-26T08:21:21.271Z</time></trkpt><trkpt lat="42.1818197" lon="14.5789595"><ele>113.0</ele><time>2026-04-26T08:21:22.254Z</time></trkpt><trkpt lat="42.1818304" lon="14.5790799"><ele>111.0</ele><time>2026-04-26T08:21:23.207Z</time></trkpt><trkpt lat="42.1818387" lon="14.5791843"><ele>109.00000000000001</ele><time>2026-04-26T08:21:24.24Z</time></trkpt><trkpt lat="42.181842" lon="14.579355"><ele>107.0</ele><time>2026-04-26T08:21:26.231Z</time></trkpt><trkpt lat="42.1818502" lon="14.5794535"><ele>105.0</ele><time>2026-04-26T08:21:27.232Z</time></trkpt><trkpt lat="42.1818644" lon="14.5795592"><ele>103.0</ele><time>2026-04-26T08:21:28.233Z</time></trkpt><trkpt lat="42.181896" lon="14.5796902"><ele>103.0</ele><time>2026-04-26T08:21:29.23Z</time></trkpt><trkpt lat="42.1819179" lon="14.5798094"><ele>103.0</ele><time>2026-04-26T08:21:30.228Z</time></trkpt><trkpt lat="42.181935" lon="14.5799064"><ele>103.0</ele><time>2026-04-26T08:21:31.219Z</time></trkpt><trkpt lat="42.1819587" lon="14.5800191"><ele>103.0</ele><time>2026-04-26T08:21:33.176Z</time></trkpt><trkpt lat="42.1820514" lon="14.5799443"><ele>103.0</ele><time>2026-04-26T08:21:37.239Z</time></trkpt><trkpt lat="42.1821052" lon="14.5798312"><ele>103.0</ele><time>2026-04-26T08:21:38.23Z</time></trkpt><trkpt lat="42.1821415" lon="14.5797456"><ele>103.0</ele><time>2026-04-26T08:21:39.241Z</time></trkpt><trkpt lat="42.1821899" lon="14.5796685"><ele>103.0</ele><time>2026-04-26T08:21:40.176Z</time></trkpt><trkpt lat="42.1822768" lon="14.5795545"><ele>103.0</ele><time>2026-04-26T08:21:42.24Z</time></trkpt><trkpt lat="42.1823694" lon="14.5794952"><ele>103.0</ele><time>2026-04-26T08:21:44.209Z</time></trkpt><trkpt lat="42.1825042" lon="14.5794265"><ele>101.60000000000001</ele><time>2026-04-26T08:21:46.244Z</time></trkpt><trkpt lat="42.1825766" lon="14.5793936"><ele>100.2</ele><time>2026-04-26T08:21:47.235Z</time></trkpt><trkpt lat="42.1826491" lon="14.579359"><ele>98.8</ele><time>2026-04-26T08:21:48.203Z</time></trkpt><trkpt lat="42.1827213" lon="14.579291"><ele>97.4</ele><time>2026-04-26T08:21:49.204Z</time></trkpt><trkpt lat="42.18281" lon="14.5792018"><ele>96.0</ele><time>2026-04-26T08:21:50.224Z</time></trkpt><trkpt lat="42.1829014" lon="14.5791193"><ele>96.0</ele><time>2026-04-26T08:21:51.23Z</time></trkpt><trkpt lat="42.1829888" lon="14.5790639"><ele>96.0</ele><time>2026-04-26T08:21:52.23Z</time></trkpt><trkpt lat="42.1830748" lon="14.5790173"><ele>96.0</ele><time>2026-04-26T08:21:53.23Z</time></trkpt><trkpt lat="42.1831672" lon="14.5789978"><ele>96.0</ele><time>2026-04-26T08:21:54.226Z</time></trkpt><trkpt lat="42.1832782" lon="14.5790107"><ele>96.0</ele><time>2026-04-26T08:21:55.229Z</time></trkpt><trkpt lat="42.1833745" lon="14.5790494"><ele>95.4</ele><time>2026-04-26T08:21:56.254Z</time></trkpt><trkpt lat="42.1834616" lon="14.5790843"><ele>94.8</ele><time>2026-04-26T08:21:57.268Z</time></trkpt><trkpt lat="42.1835448" lon="14.5790725"><ele>94.2</ele><time>2026-04-26T08:21:58.237Z</time></trkpt><trkpt lat="42.183641" lon="14.5790041"><ele>93.60000000000001</ele><time>2026-04-26T08:21:59.238Z</time></trkpt><trkpt lat="42.1837336" lon="14.5789178"><ele>93.0</ele><time>2026-04-26T08:22:00.234Z</time></trkpt><trkpt lat="42.1838109" lon="14.5788805"><ele>93.0</ele><time>2026-04-26T08:22:01.211Z</time></trkpt><trkpt lat="42.183885" lon="14.5788795"><ele>93.0</ele><time>2026-04-26T08:22:02.227Z</time></trkpt><trkpt lat="42.1839945" lon="14.5789206"><ele>93.0</ele><time>2026-04-26T08:22:03.215Z</time></trkpt><trkpt lat="42.1841034" lon="14.5789708"><ele>93.0</ele><time>2026-04-26T08:22:04.248Z</time></trkpt><trkpt lat="42.1841727" lon="14.5790063"><ele>93.0</ele><time>2026-04-26T08:22:05.207Z</time></trkpt><trkpt lat="42.184257" lon="14.5791061"><ele>92.60000000000001</ele><time>2026-04-26T08:22:07.229Z</time></trkpt><trkpt lat="42.1842954" lon="14.5792267"><ele>92.2</ele><time>2026-04-26T08:22:08.23Z</time></trkpt><trkpt lat="42.1843264" lon="14.5793663"><ele>91.8</ele><time>2026-04-26T08:22:09.227Z</time></trkpt><trkpt lat="42.1843529" lon="14.5794749"><ele>91.4</ele><time>2026-04-26T08:22:10.176Z</time></trkpt><trkpt lat="42.1843922" lon="14.5795618"><ele>91.0</ele><time>2026-04-26T08:22:11.216Z</time></trkpt><trkpt lat="42.1844529" lon="14.5796439"><ele>91.75</ele><time>2026-04-26T08:22:12.235Z</time></trkpt><trkpt lat="42.1845484" lon="14.5797646"><ele>92.5</ele><time>2026-04-26T08:22:13.249Z</time></trkpt><trkpt lat="42.1846645" lon="14.579899"><ele>93.25</ele><time>2026-04-26T08:22:14.249Z</time></trkpt><trkpt lat="42.1847686" lon="14.5800063"><ele>94.0</ele><time>2026-04-26T08:22:15.243Z</time></trkpt><trkpt lat="42.1848556" lon="14.5800982"><ele>94.0</ele><time>2026-04-26T08:22:16.253Z</time></trkpt><trkpt lat="42.1849209" lon="14.5801969"><ele>94.0</ele><time>2026-04-26T08:22:17.267Z</time></trkpt><trkpt lat="42.1849873" lon="14.5802952"><ele>94.0</ele><time>2026-04-26T08:22:18.237Z</time></trkpt><trkpt lat="42.1850237" lon="14.5804078"><ele>94.0</ele><time>2026-04-26T08:22:19.253Z</time></trkpt><trkpt lat="42.1850366" lon="14.5805108"><ele>94.0</ele><time>2026-04-26T08:22:20.197Z</time></trkpt><trkpt lat="42.1850214" lon="14.5806786"><ele>96.4</ele><time>2026-04-26T08:22:22.252Z</time></trkpt><trkpt lat="42.1850193" lon="14.5807662"><ele>98.80000000000001</ele><time>2026-04-26T08:22:24.248Z</time></trkpt><trkpt lat="42.1851495" lon="14.5808736"><ele>101.19999999999999</ele><time>2026-04-26T08:22:26.22Z</time></trkpt><trkpt lat="42.185206" lon="14.5809315"><ele>103.6</ele><time>2026-04-26T08:22:27.218Z</time></trkpt><trkpt lat="42.185293" lon="14.5810059"><ele>106.0</ele><time>2026-04-26T08:22:29.236Z</time></trkpt><trkpt lat="42.1853608" lon="14.5810283"><ele>106.00000000000001</ele><time>2026-04-26T08:22:30.224Z</time></trkpt><trkpt lat="42.1854391" lon="14.5810312"><ele>106.0</ele><time>2026-04-26T08:22:31.234Z</time></trkpt><trkpt lat="42.1855341" lon="14.5810251"><ele>106.0</ele><time>2026-04-26T08:22:32.197Z</time></trkpt><trkpt lat="42.1856159" lon="14.5810151"><ele>106.0</ele><time>2026-04-26T08:22:33.197Z</time></trkpt><trkpt lat="42.1856831" lon="14.5810039"><ele>106.00000000000001</ele><time>2026-04-26T08:22:34.228Z</time></trkpt><trkpt lat="42.1857839" lon="14.5810075"><ele>106.0</ele><time>2026-04-26T08:22:36.232Z</time></trkpt><trkpt lat="42.1858739" lon="14.5810801"><ele>103.66666666666667</ele><time>2026-04-26T08:22:38.222Z</time></trkpt><trkpt lat="42.18598" lon="14.58109"><ele>101.33333333333334</ele><time>2026-04-26T08:22:40.194Z</time></trkpt><trkpt lat="42.1860265" lon="14.5810283"><ele>99.0</ele><time>2026-04-26T08:22:41.214Z</time></trkpt><trkpt lat="42.1860697" lon="14.5809604"><ele>96.66666666666667</ele><time>2026-04-26T08:22:42.226Z</time></trkpt><trkpt lat="42.1861524" lon="14.5808567"><ele>94.33333333333334</ele><time>2026-04-26T08:22:44.219Z</time></trkpt><trkpt lat="42.1862295" lon="14.5808236"><ele>92.0</ele><time>2026-04-26T08:22:46.207Z</time></trkpt><trkpt lat="42.186295" lon="14.580837"><ele>92.0</ele><time>2026-04-26T08:22:49.203Z</time></trkpt><trkpt lat="42.1863652" lon="14.5809276"><ele>92.0</ele><time>2026-04-26T08:22:52.221Z</time></trkpt><trkpt lat="42.1864496" lon="14.5810062"><ele>92.0</ele><time>2026-04-26T08:22:54.225Z</time></trkpt><trkpt lat="42.1865006" lon="14.581065"><ele>92.0</ele><time>2026-04-26T08:22:55.237Z</time></trkpt><trkpt lat="42.1865875" lon="14.5811507"><ele>92.0</ele><time>2026-04-26T08:22:57.185Z</time></trkpt><trkpt lat="42.1866559" lon="14.5812551"><ele>91.39999999999999</ele><time>2026-04-26T08:22:59.189Z</time></trkpt><trkpt lat="42.1867292" lon="14.5813733"><ele>90.8</ele><time>2026-04-26T08:23:01.19Z</time></trkpt><trkpt lat="42.1867782" lon="14.5814612"><ele>90.2</ele><time>2026-04-26T08:23:02.201Z</time></trkpt><trkpt lat="42.1868261" lon="14.581553"><ele>89.6</ele><time>2026-04-26T08:23:03.168Z</time></trkpt><trkpt lat="42.1869046" lon="14.5816407"><ele>89.0</ele><time>2026-04-26T08:23:05.182Z</time></trkpt><trkpt lat="42.1869759" lon="14.5817602"><ele>89.0</ele><time>2026-04-26T08:23:07.209Z</time></trkpt><trkpt lat="42.1870229" lon="14.5818546"><ele>89.0</ele><time>2026-04-26T08:23:09.194Z</time></trkpt><trkpt lat="42.1870753" lon="14.5819304"><ele>89.0</ele><time>2026-04-26T08:23:11.192Z</time></trkpt><trkpt lat="42.1871288" lon="14.5820179"><ele>89.0</ele><time>2026-04-26T08:23:14.198Z</time></trkpt><trkpt lat="42.1871505" lon="14.5821323"><ele>89.0</ele><time>2026-04-26T08:23:17.213Z</time></trkpt><trkpt lat="42.1872288" lon="14.5822173"><ele>89.0</ele><time>2026-04-26T08:23:19.22Z</time></trkpt><trkpt lat="42.187293" lon="14.5823005"><ele>89.5</ele><time>2026-04-26T08:23:21.227Z</time></trkpt><trkpt lat="42.1873593" lon="14.5823935"><ele>90.0</ele><time>2026-04-26T08:23:23.189Z</time></trkpt><trkpt lat="42.187426" lon="14.5824507"><ele>90.5</ele><time>2026-04-26T08:23:25.19Z</time></trkpt><trkpt lat="42.1875027" lon="14.5824789"><ele>91.0</ele><time>2026-04-26T08:23:28.225Z</time></trkpt><trkpt lat="42.1875961" lon="14.5824637"><ele>91.5</ele><time>2026-04-26T08:23:32.189Z</time></trkpt><trkpt lat="42.1876791" lon="14.5825017"><ele>92.0</ele><time>2026-04-26T08:23:34.184Z</time></trkpt><trkpt lat="42.1877469" lon="14.5825595"><ele>92.0</ele><time>2026-04-26T08:23:36.238Z</time></trkpt><trkpt lat="42.1877859" lon="14.5826299"><ele>92.0</ele><time>2026-04-26T08:23:38.222Z</time></trkpt><trkpt lat="42.1878305" lon="14.5827486"><ele>92.0</ele><time>2026-04-26T08:23:54.225Z</time></trkpt><trkpt lat="42.1878759" lon="14.5828125"><ele>92.0</ele><time>2026-04-26T08:24:03.194Z</time></trkpt><trkpt lat="42.1879359" lon="14.5828804"><ele>92.0</ele><time>2026-04-26T08:24:10.221Z</time></trkpt><trkpt lat="42.1879972" lon="14.5829288"><ele>92.0</ele><time>2026-04-26T08:24:13.171Z</time></trkpt><trkpt lat="42.1880678" lon="14.5829247"><ele>92.0</ele><time>2026-04-26T08:24:16.177Z</time></trkpt><trkpt lat="42.1881369" lon="14.5829757"><ele>91.5</ele><time>2026-04-26T08:24:18.205Z</time></trkpt><trkpt lat="42.1881872" lon="14.5830373"><ele>91.0</ele><time>2026-04-26T08:24:19.175Z</time></trkpt><trkpt lat="42.1882743" lon="14.5831362"><ele>90.5</ele><time>2026-04-26T08:24:21.176Z</time></trkpt><trkpt lat="42.1883431" lon="14.583209"><ele>90.0</ele><time>2026-04-26T08:24:23.186Z</time></trkpt><trkpt lat="42.1883916" lon="14.583298"><ele>89.5</ele><time>2026-04-26T08:24:25.172Z</time></trkpt><trkpt lat="42.1884575" lon="14.5833381"><ele>89.0</ele><time>2026-04-26T08:24:26.223Z</time></trkpt><trkpt lat="42.1885771" lon="14.5833593"><ele>89.0</ele><time>2026-04-26T08:24:28.169Z</time></trkpt><trkpt lat="42.1886451" lon="14.5833547"><ele>89.0</ele><time>2026-04-26T08:24:29.208Z</time></trkpt><trkpt lat="42.1887518" lon="14.5834012"><ele>89.0</ele><time>2026-04-26T08:24:31.175Z</time></trkpt><trkpt lat="42.1888075" lon="14.5834971"><ele>89.0</ele><time>2026-04-26T08:24:33.188Z</time></trkpt><trkpt lat="42.188881" lon="14.5836388"><ele>89.0</ele><time>2026-04-26T08:24:35.179Z</time></trkpt><trkpt lat="42.1889261" lon="14.5837278"><ele>87.5</ele><time>2026-04-26T08:24:36.226Z</time></trkpt><trkpt lat="42.1889619" lon="14.5838115"><ele>86.0</ele><time>2026-04-26T08:24:37.214Z</time></trkpt><trkpt lat="42.1889996" lon="14.5838903"><ele>84.5</ele><time>2026-04-26T08:24:38.24Z</time></trkpt><trkpt lat="42.1890307" lon="14.5839721"><ele>83.0</ele><time>2026-04-26T08:24:39.193Z</time></trkpt><trkpt lat="42.1890609" lon="14.584065"><ele>81.5</ele><time>2026-04-26T08:24:40.222Z</time></trkpt><trkpt lat="42.1890806" lon="14.5841694"><ele>80.0</ele><time>2026-04-26T08:24:41.225Z</time></trkpt><trkpt lat="42.1890913" lon="14.5842855"><ele>80.0</ele><time>2026-04-26T08:24:42.225Z</time></trkpt><trkpt lat="42.1890903" lon="14.5844167"><ele>80.0</ele><time>2026-04-26T08:24:43.222Z</time></trkpt><trkpt lat="42.1890831" lon="14.584527"><ele>80.0</ele><time>2026-04-26T08:24:44.24Z</time></trkpt><trkpt lat="42.1890657" lon="14.5846381"><ele>80.0</ele><time>2026-04-26T08:24:45.216Z</time></trkpt><trkpt lat="42.1890362" lon="14.5847683"><ele>80.0</ele><time>2026-04-26T08:24:46.204Z</time></trkpt><trkpt lat="42.1890368" lon="14.5848983"><ele>81.0</ele><time>2026-04-26T08:24:47.207Z</time></trkpt><trkpt lat="42.1890646" lon="14.5849918"><ele>82.0</ele><time>2026-04-26T08:24:48.196Z</time></trkpt><trkpt lat="42.1891227" lon="14.5850768"><ele>83.0</ele><time>2026-04-26T08:24:50.226Z</time></trkpt><trkpt lat="42.1891387" lon="14.5851905"><ele>84.0</ele><time>2026-04-26T08:24:53.204Z</time></trkpt><trkpt lat="42.1891523" lon="14.5853189"><ele>85.0</ele><time>2026-04-26T08:24:55.167Z</time></trkpt><trkpt lat="42.1891638" lon="14.58541"><ele>86.0</ele><time>2026-04-26T08:24:56.174Z</time></trkpt><trkpt lat="42.1891966" lon="14.585554"><ele>87.33333333333334</ele><time>2026-04-26T08:24:58.209Z</time></trkpt><trkpt lat="42.1892265" lon="14.5856546"><ele>88.66666666666667</ele><time>2026-04-26T08:24:59.207Z</time></trkpt><trkpt lat="42.1892436" lon="14.5857463"><ele>90.0</ele><time>2026-04-26T08:25:00.227Z</time></trkpt><trkpt lat="42.1892426" lon="14.5858332"><ele>91.33333333333333</ele><time>2026-04-26T08:25:01.191Z</time></trkpt><trkpt lat="42.1892439" lon="14.5859719"><ele>92.66666666666666</ele><time>2026-04-26T08:25:03.175Z</time></trkpt><trkpt lat="42.1892673" lon="14.5860692"><ele>94.0</ele><time>2026-04-26T08:25:05.178Z</time></trkpt><trkpt lat="42.1893117" lon="14.5862361"><ele>94.0</ele><time>2026-04-26T08:25:07.19Z</time></trkpt><trkpt lat="42.1893945" lon="14.5863695"><ele>94.0</ele><time>2026-04-26T08:25:09.207Z</time></trkpt><trkpt lat="42.1894886" lon="14.5864471"><ele>94.0</ele><time>2026-04-26T08:25:10.186Z</time></trkpt><trkpt lat="42.1895852" lon="14.5865246"><ele>94.0</ele><time>2026-04-26T08:25:11.188Z</time></trkpt><trkpt lat="42.1896661" lon="14.5865828"><ele>94.0</ele><time>2026-04-26T08:25:12.191Z</time></trkpt><trkpt lat="42.1897642" lon="14.5867041"><ele>91.5</ele><time>2026-04-26T08:25:13.192Z</time></trkpt><trkpt lat="42.1898777" lon="14.5868491"><ele>89.0</ele><time>2026-04-26T08:25:14.228Z</time></trkpt><trkpt lat="42.1899546" lon="14.5869741"><ele>86.5</ele><time>2026-04-26T08:25:15.217Z</time></trkpt><trkpt lat="42.1900162" lon="14.5870797"><ele>84.0</ele><time>2026-04-26T08:25:16.227Z</time></trkpt><trkpt lat="42.1900687" lon="14.5871704"><ele>84.0</ele><time>2026-04-26T08:25:17.231Z</time></trkpt><trkpt lat="42.1901039" lon="14.5872617"><ele>84.0</ele><time>2026-04-26T08:25:18.2Z</time></trkpt><trkpt lat="42.1901237" lon="14.5873635"><ele>84.0</ele><time>2026-04-26T08:25:19.219Z</time></trkpt><trkpt lat="42.1901358" lon="14.5874564"><ele>84.0</ele><time>2026-04-26T08:25:20.229Z</time></trkpt><trkpt lat="42.1901081" lon="14.5875673"><ele>84.0</ele><time>2026-04-26T08:25:22.182Z</time></trkpt><trkpt lat="42.1900786" lon="14.5876531"><ele>84.0</ele><time>2026-04-26T08:25:25.204Z</time></trkpt><trkpt lat="42.190067" lon="14.587752"><ele>84.0</ele><time>2026-04-26T08:25:37.201Z</time></trkpt><trkpt lat="42.1901403" lon="14.5878318"><ele>84.0</ele><time>2026-04-26T08:25:40.184Z</time></trkpt><trkpt lat="42.1902173" lon="14.5879055"><ele>84.0</ele><time>2026-04-26T08:25:42.194Z</time></trkpt><trkpt lat="42.1902927" lon="14.5879871"><ele>84.0</ele><time>2026-04-26T08:25:44.205Z</time></trkpt><trkpt lat="42.1903496" lon="14.588026"><ele>84.0</ele><time>2026-04-26T08:25:48.187Z</time></trkpt><trkpt lat="42.1903319" lon="14.5881151"><ele>84.0</ele><time>2026-04-26T08:25:51.181Z</time></trkpt><trkpt lat="42.1903965" lon="14.5881891"><ele>83.16666666666667</ele><time>2026-04-26T08:25:54.209Z</time></trkpt><trkpt lat="42.1904884" lon="14.5882119"><ele>82.33333333333333</ele><time>2026-04-26T08:25:55.198Z</time></trkpt><trkpt lat="42.190569" lon="14.5882278"><ele>81.5</ele><time>2026-04-26T08:25:56.203Z</time></trkpt><trkpt lat="42.1906516" lon="14.5882105"><ele>80.66666666666666</ele><time>2026-04-26T08:25:58.214Z</time></trkpt><trkpt lat="42.1906786" lon="14.5881283"><ele>79.83333333333333</ele><time>2026-04-26T08:26:00.219Z</time></trkpt><trkpt lat="42.1906824" lon="14.5880421"><ele>79.0</ele><time>2026-04-26T08:26:02.224Z</time></trkpt><trkpt lat="42.1906899" lon="14.587915"><ele>80.0</ele><time>2026-04-26T08:26:12.234Z</time></trkpt><trkpt lat="42.1906774" lon="14.5878064"><ele>81.0</ele><time>2026-04-26T08:26:13.234Z</time></trkpt><trkpt lat="42.190673" lon="14.5877068"><ele>82.0</ele><time>2026-04-26T08:26:14.231Z</time></trkpt><trkpt lat="42.1906944" lon="14.5875887"><ele>83.0</ele><time>2026-04-26T08:26:15.203Z</time></trkpt><trkpt lat="42.1907386" lon="14.587432"><ele>84.0</ele><time>2026-04-26T08:26:16.247Z</time></trkpt><trkpt lat="42.1907861" lon="14.5872907"><ele>81.8</ele><time>2026-04-26T08:26:17.2Z</time></trkpt><trkpt lat="42.1908202" lon="14.5871604"><ele>79.60000000000001</ele><time>2026-04-26T08:26:18.227Z</time></trkpt><trkpt lat="42.1908331" lon="14.5870373"><ele>77.4</ele><time>2026-04-26T08:26:19.221Z</time></trkpt><trkpt lat="42.1908183" lon="14.5869326"><ele>75.2</ele><time>2026-04-26T08:26:20.239Z</time></trkpt><trkpt lat="42.1907702" lon="14.5868528"><ele>73.0</ele><time>2026-04-26T08:26:21.186Z</time></trkpt><trkpt lat="42.1906923" lon="14.5867252"><ele>76.33333333333333</ele><time>2026-04-26T08:26:22.235Z</time></trkpt><trkpt lat="42.1906104" lon="14.5865848"><ele>79.66666666666667</ele><time>2026-04-26T08:26:23.237Z</time></trkpt><trkpt lat="42.1905208" lon="14.5864063"><ele>83.0</ele><time>2026-04-26T08:26:24.211Z</time></trkpt><trkpt lat="42.190415" lon="14.586226"><ele>81.2</ele><time>2026-04-26T08:26:25.183Z</time></trkpt><trkpt lat="42.190332" lon="14.5860939"><ele>79.4</ele><time>2026-04-26T08:26:26.193Z</time></trkpt><trkpt lat="42.1902608" lon="14.5860351"><ele>77.60000000000001</ele><time>2026-04-26T08:26:27.182Z</time></trkpt><trkpt lat="42.1901731" lon="14.5859808"><ele>75.80000000000001</ele><time>2026-04-26T08:26:28.176Z</time></trkpt><trkpt lat="42.1900878" lon="14.5859425"><ele>74.0</ele><time>2026-04-26T08:26:29.227Z</time></trkpt><trkpt lat="42.1900067" lon="14.5858846"><ele>74.0</ele><time>2026-04-26T08:26:30.227Z</time></trkpt><trkpt lat="42.1899366" lon="14.5857887"><ele>74.0</ele><time>2026-04-26T08:26:31.181Z</time></trkpt><trkpt lat="42.189841" lon="14.585633"><ele>74.0</ele><time>2026-04-26T08:26:32.201Z</time></trkpt><trkpt lat="42.1897345" lon="14.5854655"><ele>74.0</ele><time>2026-04-26T08:26:33.176Z</time></trkpt><trkpt lat="42.1896659" lon="14.5853072"><ele>76.0</ele><time>2026-04-26T08:26:34.181Z</time></trkpt><trkpt lat="42.1896275" lon="14.5851988"><ele>78.0</ele><time>2026-04-26T08:26:35.172Z</time></trkpt><trkpt lat="42.1896142" lon="14.5850895"><ele>80.0</ele><time>2026-04-26T08:26:36.227Z</time></trkpt><trkpt lat="42.1896264" lon="14.5849768"><ele>82.0</ele><time>2026-04-26T08:26:37.218Z</time></trkpt><trkpt lat="42.1896425" lon="14.5848688"><ele>84.0</ele><time>2026-04-26T08:26:38.229Z</time></trkpt><trkpt lat="42.1896288" lon="14.5847655"><ele>86.0</ele><time>2026-04-26T08:26:39.23Z</time></trkpt><trkpt lat="42.1895909" lon="14.5846669"><ele>86.0</ele><time>2026-04-26T08:26:40.219Z</time></trkpt><trkpt lat="42.1895267" lon="14.584557"><ele>86.0</ele><time>2026-04-26T08:26:41.182Z</time></trkpt><trkpt lat="42.1894384" lon="14.5844162"><ele>86.0</ele><time>2026-04-26T08:26:42.201Z</time></trkpt><trkpt lat="42.1893619" lon="14.5842714"><ele>86.0</ele><time>2026-04-26T08:26:43.194Z</time></trkpt><trkpt lat="42.1893036" lon="14.5841297"><ele>84.5</ele><time>2026-04-26T08:26:44.207Z</time></trkpt><trkpt lat="42.1892545" lon="14.5840048"><ele>83.0</ele><time>2026-04-26T08:26:45.192Z</time></trkpt><trkpt lat="42.1892063" lon="14.583883"><ele>81.5</ele><time>2026-04-26T08:26:46.175Z</time></trkpt><trkpt lat="42.1891171" lon="14.5837181"><ele>80.0</ele><time>2026-04-26T08:26:47.182Z</time></trkpt><trkpt lat="42.1890201" lon="14.5835344"><ele>82.25</ele><time>2026-04-26T08:26:48.197Z</time></trkpt><trkpt lat="42.1889292" lon="14.5834261"><ele>84.5</ele><time>2026-04-26T08:26:49.174Z</time></trkpt><trkpt lat="42.1888525" lon="14.5833309"><ele>86.75</ele><time>2026-04-26T08:26:50.173Z</time></trkpt><trkpt lat="42.1887673" lon="14.5832664"><ele>89.0</ele><time>2026-04-26T08:26:51.213Z</time></trkpt><trkpt lat="42.1886244" lon="14.5832194"><ele>89.0</ele><time>2026-04-26T08:26:52.226Z</time></trkpt><trkpt lat="42.1884686" lon="14.5831631"><ele>89.0</ele><time>2026-04-26T08:26:53.176Z</time></trkpt><trkpt lat="42.1883355" lon="14.5830977"><ele>89.0</ele><time>2026-04-26T08:26:54.177Z</time></trkpt><trkpt lat="42.1882351" lon="14.5830322"><ele>89.0</ele><time>2026-04-26T08:26:55.173Z</time></trkpt><trkpt lat="42.1881439" lon="14.5829315"><ele>89.75</ele><time>2026-04-26T08:26:56.218Z</time></trkpt><trkpt lat="42.1880513" lon="14.5828048"><ele>90.5</ele><time>2026-04-26T08:26:57.224Z</time></trkpt><trkpt lat="42.1879691" lon="14.5826778"><ele>91.25</ele><time>2026-04-26T08:26:58.183Z</time></trkpt><trkpt lat="42.1878932" lon="14.5825443"><ele>92.0</ele><time>2026-04-26T08:26:59.173Z</time></trkpt><trkpt lat="42.1878072" lon="14.5824029"><ele>92.0</ele><time>2026-04-26T08:27:00.188Z</time></trkpt><trkpt lat="42.18768" lon="14.582271"><ele>92.0</ele><time>2026-04-26T08:27:01.179Z</time></trkpt><trkpt lat="42.1875518" lon="14.5821238"><ele>92.0</ele><time>2026-04-26T08:27:02.21Z</time></trkpt><trkpt lat="42.1874531" lon="14.5819896"><ele>91.25</ele><time>2026-04-26T08:27:03.208Z</time></trkpt><trkpt lat="42.1873926" lon="14.5818469"><ele>90.5</ele><time>2026-04-26T08:27:04.172Z</time></trkpt><trkpt lat="42.1873303" lon="14.5816955"><ele>89.75</ele><time>2026-04-26T08:27:05.177Z</time></trkpt><trkpt lat="42.1872405" lon="14.5815375"><ele>89.0</ele><time>2026-04-26T08:27:06.212Z</time></trkpt><trkpt lat="42.1871178" lon="14.5813698"><ele>89.0</ele><time>2026-04-26T08:27:07.216Z</time></trkpt><trkpt lat="42.1869703" lon="14.5812091"><ele>89.0</ele><time>2026-04-26T08:27:08.221Z</time></trkpt><trkpt lat="42.1868341" lon="14.5810472"><ele>89.0</ele><time>2026-04-26T08:27:09.206Z</time></trkpt><trkpt lat="42.1867144" lon="14.5808971"><ele>88.4</ele><time>2026-04-26T08:27:10.178Z</time></trkpt><trkpt lat="42.1866063" lon="14.5807596"><ele>87.80000000000001</ele><time>2026-04-26T08:27:11.176Z</time></trkpt><trkpt lat="42.1865112" lon="14.5806449"><ele>87.19999999999999</ele><time>2026-04-26T08:27:12.183Z</time></trkpt><trkpt lat="42.1864575" lon="14.5805502"><ele>86.6</ele><time>2026-04-26T08:27:13.178Z</time></trkpt><trkpt lat="42.1864169" lon="14.5804629"><ele>86.0</ele><time>2026-04-26T08:27:14.178Z</time></trkpt><trkpt lat="42.186384" lon="14.5803563"><ele>85.5</ele><time>2026-04-26T08:27:15.219Z</time></trkpt><trkpt lat="42.1863244" lon="14.580221"><ele>85.0</ele><time>2026-04-26T08:27:16.22Z</time></trkpt><trkpt lat="42.1862201" lon="14.580079"><ele>84.5</ele><time>2026-04-26T08:27:17.229Z</time></trkpt><trkpt lat="42.1861048" lon="14.5799481"><ele>84.0</ele><time>2026-04-26T08:27:18.179Z</time></trkpt><trkpt lat="42.1860255" lon="14.5798346"><ele>84.0</ele><time>2026-04-26T08:27:19.176Z</time></trkpt><trkpt lat="42.185994" lon="14.5797506"><ele>84.0</ele><time>2026-04-26T08:27:20.217Z</time></trkpt><trkpt lat="42.18599" lon="14.5796589"><ele>84.0</ele><time>2026-04-26T08:27:21.184Z</time></trkpt><trkpt lat="42.186" lon="14.5795444"><ele>84.0</ele><time>2026-04-26T08:27:22.231Z</time></trkpt><trkpt lat="42.1859706" lon="14.5794291"><ele>84.0</ele><time>2026-04-26T08:27:23.222Z</time></trkpt><trkpt lat="42.1858869" lon="14.5793025"><ele>84.0</ele><time>2026-04-26T08:27:24.176Z</time></trkpt><trkpt lat="42.1857768" lon="14.5791869"><ele>84.5</ele><time>2026-04-26T08:27:25.206Z</time></trkpt><trkpt lat="42.1856683" lon="14.5790905"><ele>85.0</ele><time>2026-04-26T08:27:26.193Z</time></trkpt><trkpt lat="42.1855399" lon="14.5789896"><ele>85.5</ele><time>2026-04-26T08:27:27.216Z</time></trkpt><trkpt lat="42.1854079" lon="14.5788854"><ele>86.0</ele><time>2026-04-26T08:27:28.178Z</time></trkpt><trkpt lat="42.1852658" lon="14.5787965"><ele>86.0</ele><time>2026-04-26T08:27:29.235Z</time></trkpt><trkpt lat="42.1851563" lon="14.5787254"><ele>86.0</ele><time>2026-04-26T08:27:30.215Z</time></trkpt><trkpt lat="42.1850552" lon="14.5786623"><ele>86.0</ele><time>2026-04-26T08:27:31.184Z</time></trkpt><trkpt lat="42.1849653" lon="14.5785849"><ele>86.0</ele><time>2026-04-26T08:27:32.217Z</time></trkpt><trkpt lat="42.1848677" lon="14.578503"><ele>86.6</ele><time>2026-04-26T08:27:33.201Z</time></trkpt><trkpt lat="42.1847841" lon="14.5784708"><ele>87.19999999999999</ele><time>2026-04-26T08:27:34.214Z</time></trkpt><trkpt lat="42.1847006" lon="14.5784713"><ele>87.80000000000001</ele><time>2026-04-26T08:27:35.175Z</time></trkpt><trkpt lat="42.18461" lon="14.5784629"><ele>88.4</ele><time>2026-04-26T08:27:36.219Z</time></trkpt><trkpt lat="42.1845233" lon="14.578442"><ele>89.0</ele><time>2026-04-26T08:27:37.2Z</time></trkpt><trkpt lat="42.1844122" lon="14.5784205"><ele>89.0</ele><time>2026-04-26T08:27:38.244Z</time></trkpt><trkpt lat="42.1842512" lon="14.5783954"><ele>89.0</ele><time>2026-04-26T08:27:39.201Z</time></trkpt><trkpt lat="42.1841095" lon="14.5783752"><ele>89.0</ele><time>2026-04-26T08:27:40.239Z</time></trkpt><trkpt lat="42.1839956" lon="14.5783636"><ele>89.0</ele><time>2026-04-26T08:27:41.225Z</time></trkpt><trkpt lat="42.1838965" lon="14.5783565"><ele>90.25</ele><time>2026-04-26T08:27:42.234Z</time></trkpt><trkpt lat="42.1838108" lon="14.5783374"><ele>91.5</ele><time>2026-04-26T08:27:43.241Z</time></trkpt><trkpt lat="42.1837073" lon="14.5782179"><ele>92.75</ele><time>2026-04-26T08:27:45.217Z</time></trkpt><trkpt lat="42.1836486" lon="14.578062"><ele>94.0</ele><time>2026-04-26T08:27:46.22Z</time></trkpt><trkpt lat="42.1835714" lon="14.5778774"><ele>94.66666666666666</ele><time>2026-04-26T08:27:47.26Z</time></trkpt><trkpt lat="42.1834824" lon="14.5776617"><ele>95.33333333333333</ele><time>2026-04-26T08:27:48.225Z</time></trkpt><trkpt lat="42.1833971" lon="14.5774801"><ele>96.0</ele><time>2026-04-26T08:27:49.225Z</time></trkpt><trkpt lat="42.183316" lon="14.5773204"><ele>96.0</ele><time>2026-04-26T08:27:50.239Z</time></trkpt><trkpt lat="42.1832209" lon="14.5771693"><ele>96.0</ele><time>2026-04-26T08:27:51.242Z</time></trkpt><trkpt lat="42.183134" lon="14.5770394"><ele>96.0</ele><time>2026-04-26T08:27:52.225Z</time></trkpt><trkpt lat="42.1830651" lon="14.5769105"><ele>96.0</ele><time>2026-04-26T08:27:53.231Z</time></trkpt><trkpt lat="42.183006" lon="14.5767345"><ele>96.5</ele><time>2026-04-26T08:27:54.246Z</time></trkpt><trkpt lat="42.1829451" lon="14.576546"><ele>97.0</ele><time>2026-04-26T08:27:55.246Z</time></trkpt><trkpt lat="42.1828747" lon="14.5763792"><ele>97.5</ele><time>2026-04-26T08:27:56.231Z</time></trkpt><trkpt lat="42.1827982" lon="14.5762222"><ele>98.0</ele><time>2026-04-26T08:27:57.252Z</time></trkpt><trkpt lat="42.1826984" lon="14.5760689"><ele>98.0</ele><time>2026-04-26T08:27:58.208Z</time></trkpt><trkpt lat="42.1826002" lon="14.5759367"><ele>98.0</ele><time>2026-04-26T08:27:59.201Z</time></trkpt><trkpt lat="42.1825133" lon="14.575797"><ele>98.0</ele><time>2026-04-26T08:28:00.234Z</time></trkpt><trkpt lat="42.1824102" lon="14.5756632"><ele>98.0</ele><time>2026-04-26T08:28:01.201Z</time></trkpt><trkpt lat="42.1823127" lon="14.5755409"><ele>99.0</ele><time>2026-04-26T08:28:02.173Z</time></trkpt><trkpt lat="42.1822077" lon="14.5754174"><ele>100.0</ele><time>2026-04-26T08:28:03.174Z</time></trkpt><trkpt lat="42.1821021" lon="14.5753125"><ele>101.0</ele><time>2026-04-26T08:28:04.185Z</time></trkpt><trkpt lat="42.1820038" lon="14.5752173"><ele>102.0</ele><time>2026-04-26T08:28:05.173Z</time></trkpt><trkpt lat="42.1819115" lon="14.5751221"><ele>102.0</ele><time>2026-04-26T08:28:06.206Z</time></trkpt><trkpt lat="42.1818253" lon="14.5750499"><ele>102.0</ele><time>2026-04-26T08:28:07.198Z</time></trkpt><trkpt lat="42.181745" lon="14.5749998"><ele>102.0</ele><time>2026-04-26T08:28:08.186Z</time></trkpt><trkpt lat="42.1816806" lon="14.574967"><ele>102.0</ele><time>2026-04-26T08:28:09.227Z</time></trkpt><trkpt lat="42.1815907" lon="14.5748463"><ele>102.0</ele><time>2026-04-26T08:28:11.181Z</time></trkpt><trkpt lat="42.1815457" lon="14.5747645"><ele>102.33333333333333</ele><time>2026-04-26T08:28:12.187Z</time></trkpt><trkpt lat="42.1815085" lon="14.5746315"><ele>102.66666666666666</ele><time>2026-04-26T08:28:14.233Z</time></trkpt><trkpt lat="42.1814951" lon="14.5745171"><ele>103.0</ele><time>2026-04-26T08:28:16.214Z</time></trkpt><trkpt lat="42.1814622" lon="14.574413"><ele>103.33333333333333</ele><time>2026-04-26T08:28:18.207Z</time></trkpt><trkpt lat="42.1814294" lon="14.5743346"><ele>103.66666666666666</ele><time>2026-04-26T08:28:20.222Z</time></trkpt><trkpt lat="42.1813693" lon="14.5742997"><ele>104.0</ele><time>2026-04-26T08:28:22.184Z</time></trkpt><trkpt lat="42.1812738" lon="14.574223"><ele>104.0</ele><time>2026-04-26T08:28:24.216Z</time></trkpt><trkpt lat="42.1812133" lon="14.5741611"><ele>104.0</ele><time>2026-04-26T08:28:25.223Z</time></trkpt><trkpt lat="42.1811534" lon="14.5741129"><ele>104.0</ele><time>2026-04-26T08:28:26.204Z</time></trkpt><trkpt lat="42.1810505" lon="14.5740357"><ele>104.0</ele><time>2026-04-26T08:28:28.254Z</time></trkpt><trkpt lat="42.1809593" lon="14.5739188"><ele>104.0</ele><time>2026-04-26T08:28:30.211Z</time></trkpt><trkpt lat="42.1809106" lon="14.5738178"><ele>104.0</ele><time>2026-04-26T08:28:31.229Z</time></trkpt><trkpt lat="42.1808552" lon="14.5736959"><ele>104.0</ele><time>2026-04-26T08:28:32.216Z</time></trkpt><trkpt lat="42.180795" lon="14.5735723"><ele>104.0</ele><time>2026-04-26T08:28:33.197Z</time></trkpt><trkpt lat="42.1807399" lon="14.5734857"><ele>104.0</ele><time>2026-04-26T08:28:34.215Z</time></trkpt><trkpt lat="42.1806694" lon="14.5734382"><ele>104.0</ele><time>2026-04-26T08:28:35.221Z</time></trkpt><trkpt lat="42.180574" lon="14.5734171"><ele>105.33333333333333</ele><time>2026-04-26T08:28:36.212Z</time></trkpt><trkpt lat="42.180493" lon="14.5734218"><ele>106.66666666666666</ele><time>2026-04-26T08:28:37.236Z</time></trkpt><trkpt lat="42.1804091" lon="14.5734322"><ele>108.0</ele><time>2026-04-26T08:28:39.223Z</time></trkpt><trkpt lat="42.1803875" lon="14.573341"><ele>109.33333333333334</ele><time>2026-04-26T08:28:41.202Z</time></trkpt><trkpt lat="42.1804219" lon="14.5732402"><ele>110.66666666666667</ele><time>2026-04-26T08:28:42.237Z</time></trkpt><trkpt lat="42.1804403" lon="14.5731498"><ele>112.0</ele><time>2026-04-26T08:28:43.254Z</time></trkpt><trkpt lat="42.1804522" lon="14.5730503"><ele>112.0</ele><time>2026-04-26T08:28:44.215Z</time></trkpt><trkpt lat="42.1804625" lon="14.572936"><ele>111.99999999999999</ele><time>2026-04-26T08:28:45.235Z</time></trkpt><trkpt lat="42.1804765" lon="14.5728051"><ele>111.99999999999999</ele><time>2026-04-26T08:28:46.228Z</time></trkpt><trkpt lat="42.1804936" lon="14.5726543"><ele>112.0</ele><time>2026-04-26T08:28:47.24Z</time></trkpt><trkpt lat="42.1805087" lon="14.5725078"><ele>112.0</ele><time>2026-04-26T08:28:48.228Z</time></trkpt><trkpt lat="42.180526" lon="14.5723721"><ele>112.6</ele><time>2026-04-26T08:28:49.243Z</time></trkpt><trkpt lat="42.1805454" lon="14.5722372"><ele>113.19999999999999</ele><time>2026-04-26T08:28:50.227Z</time></trkpt><trkpt lat="42.1805662" lon="14.572116"><ele>113.8</ele><time>2026-04-26T08:28:51.247Z</time></trkpt><trkpt lat="42.1805908" lon="14.5720127"><ele>114.4</ele><time>2026-04-26T08:28:52.241Z</time></trkpt><trkpt lat="42.180619" lon="14.5719099"><ele>115.0</ele><time>2026-04-26T08:28:53.233Z</time></trkpt><trkpt lat="42.1806563" lon="14.5717883"><ele>116.16666666666667</ele><time>2026-04-26T08:28:55.227Z</time></trkpt><trkpt lat="42.1806206" lon="14.5717163"><ele>117.33333333333334</ele><time>2026-04-26T08:28:57.239Z</time></trkpt><trkpt lat="42.180541" lon="14.5717518"><ele>118.5</ele><time>2026-04-26T08:28:59.218Z</time></trkpt><trkpt lat="42.1804214" lon="14.5717668"><ele>119.66666666666666</ele><time>2026-04-26T08:29:01.213Z</time></trkpt><trkpt lat="42.1803509" lon="14.571747"><ele>120.83333333333333</ele><time>2026-04-26T08:29:02.187Z</time></trkpt><trkpt lat="42.1802731" lon="14.5717083"><ele>122.0</ele><time>2026-04-26T08:29:03.204Z</time></trkpt><trkpt lat="42.1801884" lon="14.5716625"><ele>121.99999999999999</ele><time>2026-04-26T08:29:04.241Z</time></trkpt><trkpt lat="42.1801257" lon="14.5716379"><ele>122.0</ele><time>2026-04-26T08:29:05.199Z</time></trkpt><trkpt lat="42.1800743" lon="14.5717198"><ele>122.0</ele><time>2026-04-26T08:29:07.224Z</time></trkpt><trkpt lat="42.180053" lon="14.5718018"><ele>122.0</ele><time>2026-04-26T08:29:08.23Z</time></trkpt><trkpt lat="42.1800396" lon="14.571898"><ele>121.99999999999999</ele><time>2026-04-26T08:29:09.242Z</time></trkpt><trkpt lat="42.1800265" lon="14.5719821"><ele>122.0</ele><time>2026-04-26T08:29:10.236Z</time></trkpt><trkpt lat="42.1799946" lon="14.572124"><ele>122.33333333333333</ele><time>2026-04-26T08:29:12.185Z</time></trkpt><trkpt lat="42.1799551" lon="14.5722073"><ele>122.66666666666666</ele><time>2026-04-26T08:29:14.214Z</time></trkpt><trkpt lat="42.1798722" lon="14.5722362"><ele>123.0</ele><time>2026-04-26T08:29:17.229Z</time></trkpt><trkpt lat="42.1797995" lon="14.5721999"><ele>123.33333333333334</ele><time>2026-04-26T08:29:19.24Z</time></trkpt><trkpt lat="42.1796993" lon="14.5720882"><ele>123.66666666666667</ele><time>2026-04-26T08:29:21.194Z</time></trkpt><trkpt lat="42.1796423" lon="14.5720301"><ele>124.0</ele><time>2026-04-26T08:29:22.229Z</time></trkpt><trkpt lat="42.179585" lon="14.5719897"><ele>124.0</ele><time>2026-04-26T08:29:23.223Z</time></trkpt><trkpt lat="42.1795027" lon="14.5719219"><ele>124.0</ele><time>2026-04-26T08:29:24.239Z</time></trkpt><trkpt lat="42.179412" lon="14.5718334"><ele>124.0</ele><time>2026-04-26T08:29:25.235Z</time></trkpt><trkpt lat="42.1793309" lon="14.5717519"><ele>124.0</ele><time>2026-04-26T08:29:26.226Z</time></trkpt><trkpt lat="42.1792616" lon="14.5716468"><ele>124.0</ele><time>2026-04-26T08:29:27.228Z</time></trkpt><trkpt lat="42.1791956" lon="14.5715503"><ele>124.0</ele><time>2026-04-26T08:29:28.191Z</time></trkpt><trkpt lat="42.179134" lon="14.5714378"><ele>124.0</ele><time>2026-04-26T08:29:29.23Z</time></trkpt><trkpt lat="42.1790585" lon="14.5713006"><ele>124.0</ele><time>2026-04-26T08:29:30.227Z</time></trkpt><trkpt lat="42.1789843" lon="14.571154"><ele>124.0</ele><time>2026-04-26T08:29:31.19Z</time></trkpt><trkpt lat="42.1789172" lon="14.5710553"><ele>125.33333333333334</ele><time>2026-04-26T08:29:32.253Z</time></trkpt><trkpt lat="42.1788629" lon="14.5709961"><ele>126.66666666666667</ele><time>2026-04-26T08:29:33.249Z</time></trkpt><trkpt lat="42.1787511" lon="14.5709201"><ele>128.0</ele><time>2026-04-26T08:29:35.196Z</time></trkpt><trkpt lat="42.1786846" lon="14.5708998"><ele>129.33333333333334</ele><time>2026-04-26T08:29:36.215Z</time></trkpt><trkpt lat="42.1786037" lon="14.5708821"><ele>130.66666666666666</ele><time>2026-04-26T08:29:37.26Z</time></trkpt><trkpt lat="42.1785198" lon="14.5708699"><ele>132.0</ele><time>2026-04-26T08:29:38.219Z</time></trkpt><trkpt lat="42.1784389" lon="14.570856"><ele>132.0</ele><time>2026-04-26T08:29:39.223Z</time></trkpt><trkpt lat="42.1783733" lon="14.5708342"><ele>132.0</ele><time>2026-04-26T08:29:40.214Z</time></trkpt><trkpt lat="42.1783001" lon="14.57081"><ele>132.0</ele><time>2026-04-26T08:29:41.225Z</time></trkpt><trkpt lat="42.1782342" lon="14.5707691"><ele>132.0</ele><time>2026-04-26T08:29:42.212Z</time></trkpt><trkpt lat="42.1781432" lon="14.570669"><ele>132.0</ele><time>2026-04-26T08:29:44.266Z</time></trkpt><trkpt lat="42.178195" lon="14.5705679"><ele>132.0</ele><time>2026-04-26T08:29:49.224Z</time></trkpt><trkpt lat="42.1783188" lon="14.5704707"><ele>132.0</ele><time>2026-04-26T08:29:51.199Z</time></trkpt><trkpt lat="42.1783987" lon="14.570431"><ele>132.0</ele><time>2026-04-26T08:29:52.201Z</time></trkpt><trkpt lat="42.1784788" lon="14.5704101"><ele>132.0</ele><time>2026-04-26T08:29:53.178Z</time></trkpt><trkpt lat="42.1785803" lon="14.5703837"><ele>132.0</ele><time>2026-04-26T08:29:54.177Z</time></trkpt><trkpt lat="42.1786667" lon="14.5703143"><ele>132.0</ele><time>2026-04-26T08:29:55.179Z</time></trkpt><trkpt lat="42.1787261" lon="14.5702572"><ele>132.0</ele><time>2026-04-26T08:29:56.176Z</time></trkpt><trkpt lat="42.1787652" lon="14.5701773"><ele>133.25</ele><time>2026-04-26T08:29:57.212Z</time></trkpt><trkpt lat="42.1787955" lon="14.5700221"><ele>134.5</ele><time>2026-04-26T08:29:58.229Z</time></trkpt><trkpt lat="42.178803" lon="14.5697916"><ele>135.75</ele><time>2026-04-26T08:29:59.223Z</time></trkpt><trkpt lat="42.1787843" lon="14.5695804"><ele>137.0</ele><time>2026-04-26T08:30:00.208Z</time></trkpt><trkpt lat="42.1787516" lon="14.5694046"><ele>137.6</ele><time>2026-04-26T08:30:01.186Z</time></trkpt><trkpt lat="42.1787185" lon="14.5692397"><ele>138.2</ele><time>2026-04-26T08:30:02.193Z</time></trkpt><trkpt lat="42.1786902" lon="14.5690829"><ele>138.8</ele><time>2026-04-26T08:30:03.232Z</time></trkpt><trkpt lat="42.1786657" lon="14.5689512"><ele>139.4</ele><time>2026-04-26T08:30:04.226Z</time></trkpt><trkpt lat="42.1786272" lon="14.5688405"><ele>140.0</ele><time>2026-04-26T08:30:05.222Z</time></trkpt><trkpt lat="42.1785642" lon="14.5687457"><ele>140.0</ele><time>2026-04-26T08:30:06.25Z</time></trkpt><trkpt lat="42.1784915" lon="14.5686464"><ele>140.0</ele><time>2026-04-26T08:30:07.221Z</time></trkpt><trkpt lat="42.1783901" lon="14.568545"><ele>140.0</ele><time>2026-04-26T08:30:08.231Z</time></trkpt><trkpt lat="42.1782848" lon="14.5684593"><ele>140.0</ele><time>2026-04-26T08:30:09.233Z</time></trkpt><trkpt lat="42.1781816" lon="14.5683905"><ele>140.83333333333331</ele><time>2026-04-26T08:30:10.251Z</time></trkpt><trkpt lat="42.1781059" lon="14.5683373"><ele>141.66666666666666</ele><time>2026-04-26T08:30:11.199Z</time></trkpt><trkpt lat="42.1780465" lon="14.5683046"><ele>142.5</ele><time>2026-04-26T08:30:12.233Z</time></trkpt><trkpt lat="42.1779723" lon="14.5682251"><ele>143.33333333333334</ele><time>2026-04-26T08:30:14.234Z</time></trkpt><trkpt lat="42.1779555" lon="14.5681326"><ele>144.16666666666669</ele><time>2026-04-26T08:30:15.205Z</time></trkpt><trkpt lat="42.1779383" lon="14.5679826"><ele>145.0</ele><time>2026-04-26T08:30:16.21Z</time></trkpt><trkpt lat="42.1778989" lon="14.5677978"><ele>146.25</ele><time>2026-04-26T08:30:17.223Z</time></trkpt><trkpt lat="42.1778602" lon="14.5676258"><ele>147.5</ele><time>2026-04-26T08:30:18.218Z</time></trkpt><trkpt lat="42.1778311" lon="14.5674709"><ele>148.75</ele><time>2026-04-26T08:30:19.229Z</time></trkpt><trkpt lat="42.1778008" lon="14.5673087"><ele>150.0</ele><time>2026-04-26T08:30:20.247Z</time></trkpt><trkpt lat="42.1777628" lon="14.5671316"><ele>151.0</ele><time>2026-04-26T08:30:21.229Z</time></trkpt><trkpt lat="42.1777273" lon="14.5669612"><ele>152.0</ele><time>2026-04-26T08:30:22.232Z</time></trkpt><trkpt lat="42.1777043" lon="14.5668099"><ele>153.0</ele><time>2026-04-26T08:30:23.228Z</time></trkpt><trkpt lat="42.1776863" lon="14.5666904"><ele>154.0</ele><time>2026-04-26T08:30:24.249Z</time></trkpt><trkpt lat="42.1776689" lon="14.566607"><ele>155.0</ele><time>2026-04-26T08:30:25.234Z</time></trkpt><trkpt lat="42.1776242" lon="14.5665176"><ele>155.0</ele><time>2026-04-26T08:30:28.191Z</time></trkpt><trkpt lat="42.1774955" lon="14.5666011"><ele>155.0</ele><time>2026-04-26T08:30:30.182Z</time></trkpt><trkpt lat="42.177391" lon="14.5666681"><ele>155.0</ele><time>2026-04-26T08:30:31.203Z</time></trkpt><trkpt lat="42.1772509" lon="14.5667311"><ele>155.0</ele><time>2026-04-26T08:30:32.257Z</time></trkpt><trkpt lat="42.17707" lon="14.5668022"><ele>157.33333333333331</ele><time>2026-04-26T08:30:33.221Z</time></trkpt><trkpt lat="42.1768608" lon="14.5668762"><ele>159.66666666666666</ele><time>2026-04-26T08:30:34.23Z</time></trkpt><trkpt lat="42.176667" lon="14.5669497"><ele>162.0</ele><time>2026-04-26T08:30:35.195Z</time></trkpt><trkpt lat="42.1764936" lon="14.5670104"><ele>162.33333333333334</ele><time>2026-04-26T08:30:36.249Z</time></trkpt><trkpt lat="42.1763401" lon="14.5670588"><ele>162.66666666666669</ele><time>2026-04-26T08:30:37.233Z</time></trkpt><trkpt lat="42.1761833" lon="14.5671149"><ele>163.0</ele><time>2026-04-26T08:30:38.248Z</time></trkpt><trkpt lat="42.1760205" lon="14.5671722"><ele>163.0</ele><time>2026-04-26T08:30:39.234Z</time></trkpt><trkpt lat="42.175872" lon="14.5672351"><ele>163.0</ele><time>2026-04-26T08:30:40.231Z</time></trkpt><trkpt lat="42.1757396" lon="14.5673182"><ele>163.0</ele><time>2026-04-26T08:30:41.246Z</time></trkpt><trkpt lat="42.1756241" lon="14.5674205"><ele>163.0</ele><time>2026-04-26T08:30:42.224Z</time></trkpt><trkpt lat="42.1755094" lon="14.5675215"><ele>163.25</ele><time>2026-04-26T08:30:43.216Z</time></trkpt><trkpt lat="42.1754008" lon="14.5676254"><ele>163.5</ele><time>2026-04-26T08:30:44.233Z</time></trkpt><trkpt lat="42.1753042" lon="14.5677215"><ele>163.75</ele><time>2026-04-26T08:30:45.185Z</time></trkpt><trkpt lat="42.1752094" lon="14.5678208"><ele>164.0</ele><time>2026-04-26T08:30:46.251Z</time></trkpt><trkpt lat="42.1751131" lon="14.567906"><ele>164.0</ele><time>2026-04-26T08:30:47.23Z</time></trkpt><trkpt lat="42.1750208" lon="14.5679971"><ele>164.0</ele><time>2026-04-26T08:30:48.199Z</time></trkpt><trkpt lat="42.1749259" lon="14.5680874"><ele>164.0</ele><time>2026-04-26T08:30:49.247Z</time></trkpt><trkpt lat="42.1748277" lon="14.5681818"><ele>164.0</ele><time>2026-04-26T08:30:50.242Z</time></trkpt><trkpt lat="42.1747352" lon="14.5682774"><ele>163.0</ele><time>2026-04-26T08:30:51.227Z</time></trkpt><trkpt lat="42.1746408" lon="14.5683624"><ele>162.0</ele><time>2026-04-26T08:30:52.206Z</time></trkpt><trkpt lat="42.1745519" lon="14.568441"><ele>161.0</ele><time>2026-04-26T08:30:53.233Z</time></trkpt><trkpt lat="42.1744637" lon="14.5684961"><ele>160.0</ele><time>2026-04-26T08:30:54.216Z</time></trkpt><trkpt lat="42.1743845" lon="14.5685572"><ele>159.0</ele><time>2026-04-26T08:30:55.224Z</time></trkpt><trkpt lat="42.17431" lon="14.5686079"><ele>159.0</ele><time>2026-04-26T08:30:56.235Z</time></trkpt><trkpt lat="42.1742366" lon="14.5686149"><ele>159.0</ele><time>2026-04-26T08:30:58.239Z</time></trkpt><trkpt lat="42.1741964" lon="14.5685477"><ele>159.0</ele><time>2026-04-26T08:31:00.243Z</time></trkpt><trkpt lat="42.1741764" lon="14.5684163"><ele>159.0</ele><time>2026-04-26T08:31:02.226Z</time></trkpt><trkpt lat="42.1741141" lon="14.5682935"><ele>159.0</ele><time>2026-04-26T08:31:04.194Z</time></trkpt><trkpt lat="42.1740124" lon="14.5682018"><ele>157.6</ele><time>2026-04-26T08:31:06.195Z</time></trkpt><trkpt lat="42.1739425" lon="14.5681838"><ele>156.2</ele><time>2026-04-26T08:31:07.198Z</time></trkpt><trkpt lat="42.1738576" lon="14.5681702"><ele>154.79999999999998</ele><time>2026-04-26T08:31:08.207Z</time></trkpt><trkpt lat="42.1737484" lon="14.5681737"><ele>153.4</ele><time>2026-04-26T08:31:09.211Z</time></trkpt><trkpt lat="42.1736296" lon="14.5681736"><ele>152.0</ele><time>2026-04-26T08:31:10.216Z</time></trkpt><trkpt lat="42.1735196" lon="14.5681627"><ele>152.0</ele><time>2026-04-26T08:31:11.189Z</time></trkpt><trkpt lat="42.1734318" lon="14.5681637"><ele>152.0</ele><time>2026-04-26T08:31:12.203Z</time></trkpt><trkpt lat="42.1733498" lon="14.5681688"><ele>152.0</ele><time>2026-04-26T08:31:13.203Z</time></trkpt><trkpt lat="42.1732809" lon="14.5681693"><ele>152.0</ele><time>2026-04-26T08:31:14.199Z</time></trkpt><trkpt lat="42.1732855" lon="14.5680125"><ele>152.0</ele><time>2026-04-26T08:31:17.201Z</time></trkpt><trkpt lat="42.1732662" lon="14.5679074"><ele>152.0</ele><time>2026-04-26T08:31:18.198Z</time></trkpt><trkpt lat="42.173247" lon="14.5677769"><ele>149.4</ele><time>2026-04-26T08:31:19.213Z</time></trkpt><trkpt lat="42.1732291" lon="14.5676306"><ele>146.79999999999998</ele><time>2026-04-26T08:31:20.212Z</time></trkpt><trkpt lat="42.1732151" lon="14.5674944"><ele>144.2</ele><time>2026-04-26T08:31:21.183Z</time></trkpt><trkpt lat="42.173196" lon="14.567352"><ele>141.6</ele><time>2026-04-26T08:31:22.218Z</time></trkpt><trkpt lat="42.1731731" lon="14.5671904"><ele>139.0</ele><time>2026-04-26T08:31:23.214Z</time></trkpt><trkpt lat="42.1731347" lon="14.5670044"><ele>139.0</ele><time>2026-04-26T08:31:24.221Z</time></trkpt><trkpt lat="42.1730855" lon="14.56681"><ele>139.0</ele><time>2026-04-26T08:31:25.258Z</time></trkpt><trkpt lat="42.1730372" lon="14.5666535"><ele>139.0</ele><time>2026-04-26T08:31:26.245Z</time></trkpt><trkpt lat="42.1730174" lon="14.5665615"><ele>139.0</ele><time>2026-04-26T08:31:27.228Z</time></trkpt><trkpt lat="42.1730492" lon="14.5664161"><ele>139.0</ele><time>2026-04-26T08:31:29.19Z</time></trkpt><trkpt lat="42.1730956" lon="14.5662573"><ele>139.0</ele><time>2026-04-26T08:31:30.17Z</time></trkpt><trkpt lat="42.1731266" lon="14.5660901"><ele>139.0</ele><time>2026-04-26T08:31:31.175Z</time></trkpt><trkpt lat="42.1731806" lon="14.5659938"><ele>139.0</ele><time>2026-04-26T08:31:32.217Z</time></trkpt><trkpt lat="42.173264" lon="14.5659414"><ele>139.0</ele><time>2026-04-26T08:31:33.227Z</time></trkpt><trkpt lat="42.1733452" lon="14.5658995"><ele>138.4</ele><time>2026-04-26T08:31:34.213Z</time></trkpt><trkpt lat="42.1734208" lon="14.5658048"><ele>137.8</ele><time>2026-04-26T08:31:35.227Z</time></trkpt><trkpt lat="42.1734885" lon="14.5656786"><ele>137.2</ele><time>2026-04-26T08:31:36.217Z</time></trkpt><trkpt lat="42.1735565" lon="14.5655542"><ele>136.6</ele><time>2026-04-26T08:31:37.188Z</time></trkpt><trkpt lat="42.1736306" lon="14.5654398"><ele>136.0</ele><time>2026-04-26T08:31:38.232Z</time></trkpt><trkpt lat="42.1737" lon="14.5653081"><ele>136.0</ele><time>2026-04-26T08:31:39.239Z</time></trkpt><trkpt lat="42.1737496" lon="14.5651471"><ele>136.0</ele><time>2026-04-26T08:31:40.251Z</time></trkpt><trkpt lat="42.1737699" lon="14.5649411"><ele>136.0</ele><time>2026-04-26T08:31:41.233Z</time></trkpt><trkpt lat="42.1737753" lon="14.564712"><ele>135.66666666666669</ele><time>2026-04-26T08:31:42.235Z</time></trkpt><trkpt lat="42.1737797" lon="14.5644726"><ele>135.33333333333334</ele><time>2026-04-26T08:31:43.231Z</time></trkpt><trkpt lat="42.1737602" lon="14.5642032"><ele>135.0</ele><time>2026-04-26T08:31:44.23Z</time></trkpt><trkpt lat="42.1737347" lon="14.5639458"><ele>135.0</ele><time>2026-04-26T08:31:45.234Z</time></trkpt><trkpt lat="42.1737082" lon="14.5637228"><ele>135.0</ele><time>2026-04-26T08:31:46.236Z</time></trkpt><trkpt lat="42.1736821" lon="14.5635092"><ele>135.0</ele><time>2026-04-26T08:31:47.188Z</time></trkpt><trkpt lat="42.1736657" lon="14.5633279"><ele>134.0</ele><time>2026-04-26T08:31:48.231Z</time></trkpt><trkpt lat="42.1736712" lon="14.5631601"><ele>133.0</ele><time>2026-04-26T08:31:49.24Z</time></trkpt><trkpt lat="42.1736961" lon="14.5630276"><ele>132.0</ele><time>2026-04-26T08:31:50.23Z</time></trkpt><trkpt lat="42.1737464" lon="14.5629155"><ele>131.0</ele><time>2026-04-26T08:31:51.187Z</time></trkpt><trkpt lat="42.1738246" lon="14.5628031"><ele>130.0</ele><time>2026-04-26T08:31:52.23Z</time></trkpt><trkpt lat="42.1739199" lon="14.5626862"><ele>127.25</ele><time>2026-04-26T08:31:53.223Z</time></trkpt><trkpt lat="42.1740261" lon="14.5625639"><ele>124.5</ele><time>2026-04-26T08:31:54.274Z</time></trkpt><trkpt lat="42.1741374" lon="14.5624576"><ele>121.75</ele><time>2026-04-26T08:31:55.236Z</time></trkpt><trkpt lat="42.1742484" lon="14.5623606"><ele>119.0</ele><time>2026-04-26T08:31:56.235Z</time></trkpt><trkpt lat="42.1743524" lon="14.5622737"><ele>119.0</ele><time>2026-04-26T08:31:57.257Z</time></trkpt><trkpt lat="42.1744679" lon="14.5621872"><ele>119.0</ele><time>2026-04-26T08:31:58.221Z</time></trkpt><trkpt lat="42.1745817" lon="14.5621238"><ele>119.0</ele><time>2026-04-26T08:31:59.22Z</time></trkpt><trkpt lat="42.174701" lon="14.5620657"><ele>119.0</ele><time>2026-04-26T08:32:00.249Z</time></trkpt><trkpt lat="42.1748239" lon="14.5620448"><ele>116.25</ele><time>2026-04-26T08:32:01.242Z</time></trkpt><trkpt lat="42.1749468" lon="14.5620728"><ele>113.5</ele><time>2026-04-26T08:32:02.247Z</time></trkpt><trkpt lat="42.1750601" lon="14.5621243"><ele>110.75</ele><time>2026-04-26T08:32:03.231Z</time></trkpt><trkpt lat="42.1751803" lon="14.5621742"><ele>108.0</ele><time>2026-04-26T08:32:04.24Z</time></trkpt><trkpt lat="42.175292" lon="14.5622029"><ele>108.0</ele><time>2026-04-26T08:32:05.219Z</time></trkpt><trkpt lat="42.1753957" lon="14.562219"><ele>108.00000000000001</ele><time>2026-04-26T08:32:06.228Z</time></trkpt><trkpt lat="42.175495" lon="14.5622158"><ele>108.00000000000001</ele><time>2026-04-26T08:32:07.222Z</time></trkpt><trkpt lat="42.1755871" lon="14.562181"><ele>108.0</ele><time>2026-04-26T08:32:08.236Z</time></trkpt><trkpt lat="42.1756642" lon="14.5621256"><ele>108.0</ele><time>2026-04-26T08:32:09.226Z</time></trkpt><trkpt lat="42.175728" lon="14.5620204"><ele>106.0</ele><time>2026-04-26T08:32:10.219Z</time></trkpt><trkpt lat="42.1757806" lon="14.561894"><ele>104.0</ele><time>2026-04-26T08:32:11.217Z</time></trkpt><trkpt lat="42.1758416" lon="14.5617456"><ele>102.0</ele><time>2026-04-26T08:32:12.25Z</time></trkpt><trkpt lat="42.175921" lon="14.5615924"><ele>100.0</ele><time>2026-04-26T08:32:13.231Z</time></trkpt><trkpt lat="42.1760335" lon="14.5614331"><ele>100.0</ele><time>2026-04-26T08:32:14.22Z</time></trkpt><trkpt lat="42.1761706" lon="14.5612535"><ele>100.0</ele><time>2026-04-26T08:32:15.218Z</time></trkpt><trkpt lat="42.1763064" lon="14.5610678"><ele>100.0</ele><time>2026-04-26T08:32:16.213Z</time></trkpt><trkpt lat="42.1764116" lon="14.5609244"><ele>99.0</ele><time>2026-04-26T08:32:17.214Z</time></trkpt><trkpt lat="42.1765058" lon="14.5608195"><ele>98.0</ele><time>2026-04-26T08:32:18.214Z</time></trkpt><trkpt lat="42.1765943" lon="14.5607449"><ele>97.0</ele><time>2026-04-26T08:32:19.199Z</time></trkpt><trkpt lat="42.1766995" lon="14.5606834"><ele>96.0</ele><time>2026-04-26T08:32:20.226Z</time></trkpt><trkpt lat="42.1767956" lon="14.5606"><ele>98.25</ele><time>2026-04-26T08:32:21.232Z</time></trkpt><trkpt lat="42.1768964" lon="14.5605479"><ele>100.5</ele><time>2026-04-26T08:32:22.227Z</time></trkpt><trkpt lat="42.1770239" lon="14.5605475"><ele>102.75</ele><time>2026-04-26T08:32:23.23Z</time></trkpt><trkpt lat="42.1771416" lon="14.5605252"><ele>105.0</ele><time>2026-04-26T08:32:24.233Z</time></trkpt><trkpt lat="42.177253" lon="14.5604871"><ele>103.5</ele><time>2026-04-26T08:32:25.231Z</time></trkpt><trkpt lat="42.1773706" lon="14.5604379"><ele>102.0</ele><time>2026-04-26T08:32:26.242Z</time></trkpt><trkpt lat="42.1774957" lon="14.5603861"><ele>100.5</ele><time>2026-04-26T08:32:27.242Z</time></trkpt><trkpt lat="42.1776169" lon="14.5603343"><ele>99.0</ele><time>2026-04-26T08:32:28.287Z</time></trkpt><trkpt lat="42.1777293" lon="14.5602809"><ele>99.0</ele><time>2026-04-26T08:32:29.239Z</time></trkpt><trkpt lat="42.1778377" lon="14.5602201"><ele>99.0</ele><time>2026-04-26T08:32:30.233Z</time></trkpt><trkpt lat="42.1779486" lon="14.5601533"><ele>99.0</ele><time>2026-04-26T08:32:31.22Z</time></trkpt><trkpt lat="42.1780577" lon="14.5600809"><ele>99.0</ele><time>2026-04-26T08:32:32.247Z</time></trkpt><trkpt lat="42.1781671" lon="14.5600027"><ele>100.25</ele><time>2026-04-26T08:32:33.235Z</time></trkpt><trkpt lat="42.1782728" lon="14.5599162"><ele>101.5</ele><time>2026-04-26T08:32:34.247Z</time></trkpt><trkpt lat="42.1783694" lon="14.5598313"><ele>102.75</ele><time>2026-04-26T08:32:35.221Z</time></trkpt><trkpt lat="42.1784651" lon="14.5597499"><ele>104.0</ele><time>2026-04-26T08:32:36.237Z</time></trkpt><trkpt lat="42.1785513" lon="14.5596587"><ele>104.0</ele><time>2026-04-26T08:32:37.243Z</time></trkpt><trkpt lat="42.1786297" lon="14.5595709"><ele>104.0</ele><time>2026-04-26T08:32:38.226Z</time></trkpt><trkpt lat="42.1787051" lon="14.5594948"><ele>104.0</ele><time>2026-04-26T08:32:39.208Z</time></trkpt><trkpt lat="42.1787984" lon="14.5594158"><ele>104.0</ele><time>2026-04-26T08:32:40.239Z</time></trkpt><trkpt lat="42.1789166" lon="14.5593252"><ele>104.0</ele><time>2026-04-26T08:32:41.212Z</time></trkpt><trkpt lat="42.1790397" lon="14.5592407"><ele>101.6</ele><time>2026-04-26T08:32:42.234Z</time></trkpt><trkpt lat="42.1791402" lon="14.5591632"><ele>99.2</ele><time>2026-04-26T08:32:43.239Z</time></trkpt><trkpt lat="42.1792346" lon="14.559109"><ele>96.8</ele><time>2026-04-26T08:32:44.245Z</time></trkpt><trkpt lat="42.1793243" lon="14.5590587"><ele>94.39999999999999</ele><time>2026-04-26T08:32:45.258Z</time></trkpt><trkpt lat="42.1794147" lon="14.5590149"><ele>92.0</ele><time>2026-04-26T08:32:46.241Z</time></trkpt><trkpt lat="42.1794904" lon="14.5589822"><ele>92.0</ele><time>2026-04-26T08:32:47.232Z</time></trkpt><trkpt lat="42.1795597" lon="14.5589662"><ele>92.0</ele><time>2026-04-26T08:32:48.246Z</time></trkpt><trkpt lat="42.1796829" lon="14.5589494"><ele>92.0</ele><time>2026-04-26T08:32:50.237Z</time></trkpt><trkpt lat="42.1797459" lon="14.5589493"><ele>92.0</ele><time>2026-04-26T08:32:51.253Z</time></trkpt><trkpt lat="42.1798587" lon="14.5589339"><ele>92.0</ele><time>2026-04-26T08:32:53.222Z</time></trkpt><trkpt lat="42.1799505" lon="14.558926"><ele>92.75</ele><time>2026-04-26T08:32:55.177Z</time></trkpt><trkpt lat="42.1800847" lon="14.55893"><ele>93.5</ele><time>2026-04-26T08:32:57.177Z</time></trkpt><trkpt lat="42.1801707" lon="14.5589277"><ele>94.25</ele><time>2026-04-26T08:32:58.183Z</time></trkpt><trkpt lat="42.1802857" lon="14.5589051"><ele>95.0</ele><time>2026-04-26T08:32:59.176Z</time></trkpt><trkpt lat="42.1804209" lon="14.5588797"><ele>95.0</ele><time>2026-04-26T08:33:00.178Z</time></trkpt><trkpt lat="42.1805661" lon="14.5588962"><ele>95.0</ele><time>2026-04-26T08:33:01.178Z</time></trkpt><trkpt lat="42.1806654" lon="14.5588927"><ele>95.0</ele><time>2026-04-26T08:33:02.18Z</time></trkpt><trkpt lat="42.1807399" lon="14.5588923"><ele>95.0</ele><time>2026-04-26T08:33:03.173Z</time></trkpt><trkpt lat="42.180833" lon="14.5589196"><ele>95.0</ele><time>2026-04-26T08:33:05.224Z</time></trkpt><trkpt lat="42.1808995" lon="14.5589441"><ele>96.16666666666667</ele><time>2026-04-26T08:33:06.203Z</time></trkpt><trkpt lat="42.1809801" lon="14.5589555"><ele>97.33333333333334</ele><time>2026-04-26T08:33:07.242Z</time></trkpt><trkpt lat="42.1810658" lon="14.5589595"><ele>98.5</ele><time>2026-04-26T08:33:08.217Z</time></trkpt><trkpt lat="42.18115" lon="14.5589556"><ele>99.66666666666667</ele><time>2026-04-26T08:33:09.184Z</time></trkpt><trkpt lat="42.1812238" lon="14.5589543"><ele>100.83333333333333</ele><time>2026-04-26T08:33:10.191Z</time></trkpt><trkpt lat="42.1812947" lon="14.5589496"><ele>102.0</ele><time>2026-04-26T08:33:11.222Z</time></trkpt><trkpt lat="42.1813714" lon="14.5589424"><ele>102.0</ele><time>2026-04-26T08:33:12.218Z</time></trkpt><trkpt lat="42.1814575" lon="14.5589455"><ele>102.0</ele><time>2026-04-26T08:33:13.239Z</time></trkpt><trkpt lat="42.1815628" lon="14.5589433"><ele>102.0</ele><time>2026-04-26T08:33:14.205Z</time></trkpt><trkpt lat="42.1816797" lon="14.558931"><ele>102.0</ele><time>2026-04-26T08:33:15.22Z</time></trkpt><trkpt lat="42.181814" lon="14.558917"><ele>102.0</ele><time>2026-04-26T08:33:16.21Z</time></trkpt><trkpt lat="42.1819439" lon="14.5589101"><ele>101.5</ele><time>2026-04-26T08:33:17.185Z</time></trkpt><trkpt lat="42.1820759" lon="14.5589062"><ele>101.0</ele><time>2026-04-26T08:33:18.21Z</time></trkpt><trkpt lat="42.1822127" lon="14.5588989"><ele>100.5</ele><time>2026-04-26T08:33:19.199Z</time></trkpt><trkpt lat="42.1823359" lon="14.5588862"><ele>100.0</ele><time>2026-04-26T08:33:20.199Z</time></trkpt><trkpt lat="42.1824292" lon="14.5588691"><ele>100.0</ele><time>2026-04-26T08:33:21.225Z</time></trkpt><trkpt lat="42.1825104" lon="14.5588538"><ele>100.0</ele><time>2026-04-26T08:33:22.182Z</time></trkpt><trkpt lat="42.1825952" lon="14.5588428"><ele>100.0</ele><time>2026-04-26T08:33:23.231Z</time></trkpt><trkpt lat="42.1826932" lon="14.5588395"><ele>100.0</ele><time>2026-04-26T08:33:24.235Z</time></trkpt><trkpt lat="42.1828073" lon="14.5588468"><ele>100.0</ele><time>2026-04-26T08:33:25.237Z</time></trkpt><trkpt lat="42.1829307" lon="14.5588516"><ele>100.0</ele><time>2026-04-26T08:33:26.212Z</time></trkpt><trkpt lat="42.1830593" lon="14.5588671"><ele>100.0</ele><time>2026-04-26T08:33:27.238Z</time></trkpt><trkpt lat="42.1832136" lon="14.5588721"><ele>100.0</ele><time>2026-04-26T08:33:28.247Z</time></trkpt><trkpt lat="42.1833857" lon="14.5588748"><ele>99.33333333333334</ele><time>2026-04-26T08:33:29.232Z</time></trkpt><trkpt lat="42.1835733" lon="14.5588785"><ele>98.66666666666666</ele><time>2026-04-26T08:33:30.242Z</time></trkpt><trkpt lat="42.1837822" lon="14.558882"><ele>98.0</ele><time>2026-04-26T08:33:31.237Z</time></trkpt><trkpt lat="42.1839875" lon="14.5588882"><ele>97.0</ele><time>2026-04-26T08:33:32.236Z</time></trkpt><trkpt lat="42.1841796" lon="14.5589048"><ele>96.0</ele><time>2026-04-26T08:33:33.223Z</time></trkpt><trkpt lat="42.1843636" lon="14.5589181"><ele>95.0</ele><time>2026-04-26T08:33:34.236Z</time></trkpt><trkpt lat="42.1845559" lon="14.5589144"><ele>95.0</ele><time>2026-04-26T08:33:35.21Z</time></trkpt><trkpt lat="42.184752" lon="14.5589107"><ele>95.0</ele><time>2026-04-26T08:33:36.267Z</time></trkpt><trkpt lat="42.184956" lon="14.5588988"><ele>95.0</ele><time>2026-04-26T08:33:37.217Z</time></trkpt><trkpt lat="42.1851569" lon="14.5588852"><ele>95.33333333333334</ele><time>2026-04-26T08:33:38.252Z</time></trkpt><trkpt lat="42.1853604" lon="14.5588712"><ele>95.66666666666667</ele><time>2026-04-26T08:33:39.219Z</time></trkpt><trkpt lat="42.1855528" lon="14.5588584"><ele>96.0</ele><time>2026-04-26T08:33:40.241Z</time></trkpt><trkpt lat="42.1857375" lon="14.558844"><ele>94.66666666666667</ele><time>2026-04-26T08:33:41.214Z</time></trkpt><trkpt lat="42.1859109" lon="14.5588312"><ele>93.33333333333334</ele><time>2026-04-26T08:33:42.26Z</time></trkpt><trkpt lat="42.1860801" lon="14.5588212"><ele>92.0</ele><time>2026-04-26T08:33:43.25Z</time></trkpt><trkpt lat="42.1862465" lon="14.5588091"><ele>92.0</ele><time>2026-04-26T08:33:44.242Z</time></trkpt><trkpt lat="42.1864233" lon="14.5587933"><ele>92.0</ele><time>2026-04-26T08:33:45.231Z</time></trkpt><trkpt lat="42.1865931" lon="14.558778"><ele>92.0</ele><time>2026-04-26T08:33:46.251Z</time></trkpt><trkpt lat="42.1867607" lon="14.5587694"><ele>91.33333333333334</ele><time>2026-04-26T08:33:47.226Z</time></trkpt><trkpt lat="42.1869327" lon="14.5587598"><ele>90.66666666666667</ele><time>2026-04-26T08:33:48.226Z</time></trkpt><trkpt lat="42.1871058" lon="14.5587501"><ele>90.0</ele><time>2026-04-26T08:33:49.242Z</time></trkpt><trkpt lat="42.1872813" lon="14.5587419"><ele>90.0</ele><time>2026-04-26T08:33:50.231Z</time></trkpt><trkpt lat="42.1874562" lon="14.5587344"><ele>90.0</ele><time>2026-04-26T08:33:51.206Z</time></trkpt><trkpt lat="42.1876371" lon="14.5587306"><ele>90.0</ele><time>2026-04-26T08:33:52.23Z</time></trkpt><trkpt lat="42.1878193" lon="14.5587289"><ele>90.0</ele><time>2026-04-26T08:33:53.243Z</time></trkpt><trkpt lat="42.1880002" lon="14.5587212"><ele>90.0</ele><time>2026-04-26T08:33:54.23Z</time></trkpt><trkpt lat="42.1881822" lon="14.5587108"><ele>90.0</ele><time>2026-04-26T08:33:55.233Z</time></trkpt><trkpt lat="42.1883674" lon="14.5586992"><ele>84.66666666666667</ele><time>2026-04-26T08:33:56.23Z</time></trkpt><trkpt lat="42.1885526" lon="14.5586798"><ele>79.33333333333334</ele><time>2026-04-26T08:33:57.254Z</time></trkpt><trkpt lat="42.1887304" lon="14.5586691"><ele>74.0</ele><time>2026-04-26T08:33:58.237Z</time></trkpt><trkpt lat="42.1888946" lon="14.5586622"><ele>74.5</ele><time>2026-04-26T08:33:59.239Z</time></trkpt><trkpt lat="42.189054" lon="14.5586445"><ele>75.0</ele><time>2026-04-26T08:34:00.25Z</time></trkpt><trkpt lat="42.1891918" lon="14.5586317"><ele>75.5</ele><time>2026-04-26T08:34:01.193Z</time></trkpt><trkpt lat="42.1893006" lon="14.5586146"><ele>76.0</ele><time>2026-04-26T08:34:02.248Z</time></trkpt><trkpt lat="42.1893809" lon="14.558599"><ele>76.0</ele><time>2026-04-26T08:34:03.217Z</time></trkpt><trkpt lat="42.1894666" lon="14.5585823"><ele>76.0</ele><time>2026-04-26T08:34:05.236Z</time></trkpt><trkpt lat="42.1894881" lon="14.5586831"><ele>76.0</ele><time>2026-04-26T08:34:07.237Z</time></trkpt><trkpt lat="42.1894542" lon="14.5588078"><ele>76.0</ele><time>2026-04-26T08:34:08.176Z</time></trkpt><trkpt lat="42.1893953" lon="14.5589599"><ele>76.0</ele><time>2026-04-26T08:34:09.178Z</time></trkpt><trkpt lat="42.1893312" lon="14.5591504"><ele>80.33333333333333</ele><time>2026-04-26T08:34:10.172Z</time></trkpt><trkpt lat="42.1892742" lon="14.5593935"><ele>84.66666666666667</ele><time>2026-04-26T08:34:11.224Z</time></trkpt><trkpt lat="42.1892273" lon="14.559642"><ele>89.0</ele><time>2026-04-26T08:34:12.207Z</time></trkpt><trkpt lat="42.1891905" lon="14.5598758"><ele>93.5</ele><time>2026-04-26T08:34:13.203Z</time></trkpt><trkpt lat="42.1891354" lon="14.5600517"><ele>98.0</ele><time>2026-04-26T08:34:14.195Z</time></trkpt><trkpt lat="42.1890654" lon="14.5602266"><ele>102.5</ele><time>2026-04-26T08:34:15.217Z</time></trkpt><trkpt lat="42.1890131" lon="14.5603845"><ele>107.0</ele><time>2026-04-26T08:34:16.2Z</time></trkpt><trkpt lat="42.1889468" lon="14.5605377"><ele>108.6</ele><time>2026-04-26T08:34:17.235Z</time></trkpt><trkpt lat="42.1888755" lon="14.5606606"><ele>110.19999999999999</ele><time>2026-04-26T08:34:18.238Z</time></trkpt><trkpt lat="42.1887995" lon="14.5607261"><ele>111.8</ele><time>2026-04-26T08:34:19.246Z</time></trkpt><trkpt lat="42.1887046" lon="14.5607398"><ele>113.4</ele><time>2026-04-26T08:34:20.226Z</time></trkpt><trkpt lat="42.1886083" lon="14.5607721"><ele>115.0</ele><time>2026-04-26T08:34:21.188Z</time></trkpt><trkpt lat="42.188498" lon="14.5608241"><ele>115.0</ele><time>2026-04-26T08:34:22.232Z</time></trkpt><trkpt lat="42.1883666" lon="14.5608799"><ele>115.0</ele><time>2026-04-26T08:34:23.252Z</time></trkpt><trkpt lat="42.1882392" lon="14.5609215"><ele>115.0</ele><time>2026-04-26T08:34:24.229Z</time></trkpt><trkpt lat="42.1881375" lon="14.5609372"><ele>115.0</ele><time>2026-04-26T08:34:25.227Z</time></trkpt><trkpt lat="42.1880593" lon="14.5609632"><ele>115.8</ele><time>2026-04-26T08:34:26.218Z</time></trkpt><trkpt lat="42.1879913" lon="14.5610062"><ele>116.6</ele><time>2026-04-26T08:34:27.202Z</time></trkpt><trkpt lat="42.1879105" lon="14.5610171"><ele>117.4</ele><time>2026-04-26T08:34:28.204Z</time></trkpt><trkpt lat="42.1878207" lon="14.5610181"><ele>118.2</ele><time>2026-04-26T08:34:29.243Z</time></trkpt><trkpt lat="42.1877198" lon="14.561014"><ele>119.0</ele><time>2026-04-26T08:34:30.223Z</time></trkpt><trkpt lat="42.1876077" lon="14.5610186"><ele>118.99999999999999</ele><time>2026-04-26T08:34:31.235Z</time></trkpt><trkpt lat="42.1875054" lon="14.5610203"><ele>119.0</ele><time>2026-04-26T08:34:32.235Z</time></trkpt><trkpt lat="42.1874097" lon="14.5610218"><ele>119.0</ele><time>2026-04-26T08:34:33.227Z</time></trkpt><trkpt lat="42.1873213" lon="14.5610248"><ele>119.0</ele><time>2026-04-26T08:34:34.234Z</time></trkpt><trkpt lat="42.187259" lon="14.5610375"><ele>118.99999999999999</ele><time>2026-04-26T08:34:35.232Z</time></trkpt><trkpt lat="42.1871977" lon="14.5610623"><ele>119.0</ele><time>2026-04-26T08:34:36.227Z</time></trkpt><trkpt lat="42.1871374" lon="14.5611393"><ele>118.99999999999999</ele><time>2026-04-26T08:34:38.224Z</time></trkpt><trkpt lat="42.1872056" lon="14.5610806"><ele>119.0</ele><time>2026-04-26T08:35:21.233Z</time></trkpt><trkpt lat="42.187291" lon="14.5610127"><ele>119.0</ele><time>2026-04-26T08:35:23.229Z</time></trkpt><trkpt lat="42.1873556" lon="14.5609855"><ele>119.0</ele><time>2026-04-26T08:35:24.218Z</time></trkpt><trkpt lat="42.1874297" lon="14.5609855"><ele>118.99999999999999</ele><time>2026-04-26T08:35:25.224Z</time></trkpt><trkpt lat="42.1874964" lon="14.5609832"><ele>119.0</ele><time>2026-04-26T08:35:26.226Z</time></trkpt><trkpt lat="42.1875598" lon="14.5609808"><ele>118.99999999999999</ele><time>2026-04-26T08:35:27.259Z</time></trkpt><trkpt lat="42.1876521" lon="14.5609816"><ele>119.0</ele><time>2026-04-26T08:35:29.229Z</time></trkpt><trkpt lat="42.1877397" lon="14.5609718"><ele>119.0</ele><time>2026-04-26T08:35:31.185Z</time></trkpt><trkpt lat="42.1878266" lon="14.5609611"><ele>119.0</ele><time>2026-04-26T08:35:33.185Z</time></trkpt><trkpt lat="42.1878969" lon="14.5609683"><ele>118.99999999999999</ele><time>2026-04-26T08:35:36.221Z</time></trkpt><trkpt lat="42.1879663" lon="14.5609635"><ele>119.0</ele><time>2026-04-26T08:35:39.201Z</time></trkpt><trkpt lat="42.1880506" lon="14.5609272"><ele>119.0</ele><time>2026-04-26T08:35:42.234Z</time></trkpt><trkpt lat="42.1881264" lon="14.5608901"><ele>119.0</ele><time>2026-04-26T08:35:44.216Z</time></trkpt><trkpt lat="42.1882327" lon="14.5608575"><ele>119.0</ele><time>2026-04-26T08:35:46.232Z</time></trkpt><trkpt lat="42.1883185" lon="14.5608281"><ele>119.0</ele><time>2026-04-26T08:35:48.22Z</time></trkpt><trkpt lat="42.1884174" lon="14.5607866"><ele>119.0</ele><time>2026-04-26T08:35:50.228Z</time></trkpt><trkpt lat="42.1884964" lon="14.5607694"><ele>118.33333333333333</ele><time>2026-04-26T08:35:51.219Z</time></trkpt><trkpt lat="42.1885738" lon="14.5607375"><ele>117.66666666666666</ele><time>2026-04-26T08:35:52.249Z</time></trkpt><trkpt lat="42.188644" lon="14.5607015"><ele>117.0</ele><time>2026-04-26T08:35:53.181Z</time></trkpt><trkpt lat="42.1887673" lon="14.5606484"><ele>116.33333333333334</ele><time>2026-04-26T08:35:55.226Z</time></trkpt><trkpt lat="42.1888356" lon="14.560625"><ele>115.66666666666667</ele><time>2026-04-26T08:35:56.234Z</time></trkpt><trkpt lat="42.1889096" lon="14.5605907"><ele>115.0</ele><time>2026-04-26T08:35:57.229Z</time></trkpt><trkpt lat="42.1889608" lon="14.5605197"><ele>115.0</ele><time>2026-04-26T08:35:58.222Z</time></trkpt><trkpt lat="42.1890043" lon="14.5604011"><ele>115.0</ele><time>2026-04-26T08:35:59.249Z</time></trkpt><trkpt lat="42.1890395" lon="14.5602719"><ele>115.0</ele><time>2026-04-26T08:36:00.228Z</time></trkpt><trkpt lat="42.1890741" lon="14.5601611"><ele>115.0</ele><time>2026-04-26T08:36:01.241Z</time></trkpt><trkpt lat="42.1891105" lon="14.5600559"><ele>115.0</ele><time>2026-04-26T08:36:02.239Z</time></trkpt><trkpt lat="42.1891346" lon="14.5599566"><ele>113.66666666666667</ele><time>2026-04-26T08:36:03.24Z</time></trkpt><trkpt lat="42.1891624" lon="14.5598598"><ele>112.33333333333334</ele><time>2026-04-26T08:36:04.231Z</time></trkpt><trkpt lat="42.1891893" lon="14.5597608"><ele>111.0</ele><time>2026-04-26T08:36:05.219Z</time></trkpt><trkpt lat="42.1892127" lon="14.5596626"><ele>109.66666666666666</ele><time>2026-04-26T08:36:06.25Z</time></trkpt><trkpt lat="42.1892435" lon="14.559559"><ele>108.33333333333333</ele><time>2026-04-26T08:36:07.213Z</time></trkpt><trkpt lat="42.1892829" lon="14.559441"><ele>107.0</ele><time>2026-04-26T08:36:08.233Z</time></trkpt><trkpt lat="42.1893224" lon="14.5593262"><ele>103.99999999999999</ele><time>2026-04-26T08:36:09.219Z</time></trkpt><trkpt lat="42.1893613" lon="14.5592022"><ele>101.0</ele><time>2026-04-26T08:36:10.219Z</time></trkpt><trkpt lat="42.1893961" lon="14.5590806"><ele>98.0</ele><time>2026-04-26T08:36:11.229Z</time></trkpt><trkpt lat="42.1894324" lon="14.5589639"><ele>95.0</ele><time>2026-04-26T08:36:12.246Z</time></trkpt><trkpt lat="42.1894598" lon="14.5588611"><ele>92.0</ele><time>2026-04-26T08:36:13.201Z</time></trkpt><trkpt lat="42.1894779" lon="14.558773"><ele>89.0</ele><time>2026-04-26T08:36:14.235Z</time></trkpt><trkpt lat="42.1894969" lon="14.5586914"><ele>88.2</ele><time>2026-04-26T08:36:15.188Z</time></trkpt><trkpt lat="42.18954" lon="14.558574"><ele>87.4</ele><time>2026-04-26T08:36:17.196Z</time></trkpt><trkpt lat="42.1896475" lon="14.5584847"><ele>86.6</ele><time>2026-04-26T08:36:19.189Z</time></trkpt><trkpt lat="42.1897262" lon="14.5584561"><ele>85.8</ele><time>2026-04-26T08:36:20.194Z</time></trkpt><trkpt lat="42.1897904" lon="14.5584332"><ele>85.0</ele><time>2026-04-26T08:36:21.201Z</time></trkpt><trkpt lat="42.1898728" lon="14.5584238"><ele>85.0</ele><time>2026-04-26T08:36:22.187Z</time></trkpt><trkpt lat="42.1899441" lon="14.5584079"><ele>85.0</ele><time>2026-04-26T08:36:23.182Z</time></trkpt><trkpt lat="42.1900375" lon="14.5584291"><ele>85.0</ele><time>2026-04-26T08:36:25.19Z</time></trkpt><trkpt lat="42.1900121" lon="14.5585508"><ele>85.0</ele><time>2026-04-26T08:36:29.211Z</time></trkpt><trkpt lat="42.189942" lon="14.5586399"><ele>85.0</ele><time>2026-04-26T08:36:31.215Z</time></trkpt><trkpt lat="42.189893" lon="14.5587825"><ele>85.66666666666666</ele><time>2026-04-26T08:36:33.21Z</time></trkpt><trkpt lat="42.1898797" lon="14.5588676"><ele>86.33333333333333</ele><time>2026-04-26T08:36:34.19Z</time></trkpt><trkpt lat="42.1898536" lon="14.5589666"><ele>87.0</ele><time>2026-04-26T08:36:35.208Z</time></trkpt><trkpt lat="42.1898297" lon="14.5590766"><ele>87.66666666666667</ele><time>2026-04-26T08:36:36.193Z</time></trkpt><trkpt lat="42.1898085" lon="14.5591952"><ele>88.33333333333334</ele><time>2026-04-26T08:36:37.195Z</time></trkpt><trkpt lat="42.1897845" lon="14.5593124"><ele>89.0</ele><time>2026-04-26T08:36:38.199Z</time></trkpt><trkpt lat="42.1897585" lon="14.5594238"><ele>88.99999999999999</ele><time>2026-04-26T08:36:39.201Z</time></trkpt><trkpt lat="42.1897378" lon="14.5595302"><ele>89.0</ele><time>2026-04-26T08:36:40.189Z</time></trkpt><trkpt lat="42.1897107" lon="14.5596355"><ele>89.0</ele><time>2026-04-26T08:36:41.193Z</time></trkpt><trkpt lat="42.1896843" lon="14.5597399"><ele>89.0</ele><time>2026-04-26T08:36:42.193Z</time></trkpt><trkpt lat="42.1896547" lon="14.5598221"><ele>89.0</ele><time>2026-04-26T08:36:43.176Z</time></trkpt><trkpt lat="42.1896223" lon="14.5598959"><ele>88.99999999999999</ele><time>2026-04-26T08:36:44.241Z</time></trkpt><trkpt lat="42.1895861" lon="14.5599789"><ele>89.0</ele><time>2026-04-26T08:36:45.179Z</time></trkpt><trkpt lat="42.1895157" lon="14.5600977"><ele>92.6</ele><time>2026-04-26T08:36:47.177Z</time></trkpt><trkpt lat="42.1894467" lon="14.5602247"><ele>96.2</ele><time>2026-04-26T08:36:49.173Z</time></trkpt><trkpt lat="42.1894215" lon="14.5603196"><ele>99.79999999999998</ele><time>2026-04-26T08:36:50.174Z</time></trkpt><trkpt lat="42.1894014" lon="14.5604156"><ele>103.39999999999999</ele><time>2026-04-26T08:36:51.223Z</time></trkpt><trkpt lat="42.1893821" lon="14.5605381"><ele>107.0</ele><time>2026-04-26T08:36:52.2Z</time></trkpt><trkpt lat="42.1893564" lon="14.5606625"><ele>110.6</ele><time>2026-04-26T08:36:53.175Z</time></trkpt><trkpt lat="42.1893324" lon="14.5607733"><ele>114.19999999999999</ele><time>2026-04-26T08:36:54.175Z</time></trkpt><trkpt lat="42.1893121" lon="14.5608661"><ele>117.8</ele><time>2026-04-26T08:36:55.207Z</time></trkpt><trkpt lat="42.1892818" lon="14.5610015"><ele>121.4</ele><time>2026-04-26T08:36:57.229Z</time></trkpt><trkpt lat="42.1892461" lon="14.5611554"><ele>125.0</ele><time>2026-04-26T08:36:59.193Z</time></trkpt><trkpt lat="42.1891983" lon="14.5612737"><ele>125.0</ele><time>2026-04-26T08:37:01.191Z</time></trkpt><trkpt lat="42.1893073" lon="14.5612377"><ele>125.0</ele><time>2026-04-26T08:37:06.304Z</time></trkpt><trkpt lat="42.1893687" lon="14.5611646"><ele>125.0</ele><time>2026-04-26T08:37:07.243Z</time></trkpt><trkpt lat="42.1894096" lon="14.5610936"><ele>125.0</ele><time>2026-04-26T08:37:08.198Z</time></trkpt><trkpt lat="42.1895433" lon="14.5610285"><ele>125.0</ele><time>2026-04-26T08:37:10.214Z</time></trkpt><trkpt lat="42.189629" lon="14.5609972"><ele>125.0</ele><time>2026-04-26T08:37:11.229Z</time></trkpt><trkpt lat="42.1896937" lon="14.5609817"><ele>125.0</ele><time>2026-04-26T08:37:12.229Z</time></trkpt><trkpt lat="42.1897608" lon="14.5609766"><ele>125.0</ele><time>2026-04-26T08:37:13.23Z</time></trkpt><trkpt lat="42.1898268" lon="14.5609746"><ele>125.0</ele><time>2026-04-26T08:37:14.252Z</time></trkpt><trkpt lat="42.1898903" lon="14.5609718"><ele>125.0</ele><time>2026-04-26T08:37:15.203Z</time></trkpt><trkpt lat="42.1899668" lon="14.5609575"><ele>125.0</ele><time>2026-04-26T08:37:16.244Z</time></trkpt><trkpt lat="42.1900539" lon="14.5609354"><ele>125.0</ele><time>2026-04-26T08:37:17.224Z</time></trkpt><trkpt lat="42.1901427" lon="14.5609129"><ele>125.99999999999999</ele><time>2026-04-26T08:37:18.222Z</time></trkpt><trkpt lat="42.1902237" lon="14.5608937"><ele>127.0</ele><time>2026-04-26T08:37:19.23Z</time></trkpt><trkpt lat="42.1903051" lon="14.5608822"><ele>128.0</ele><time>2026-04-26T08:37:20.23Z</time></trkpt><trkpt lat="42.1903752" lon="14.5608761"><ele>129.0</ele><time>2026-04-26T08:37:21.24Z</time></trkpt><trkpt lat="42.1904827" lon="14.560885"><ele>130.0</ele><time>2026-04-26T08:37:23.228Z</time></trkpt><trkpt lat="42.1905331" lon="14.5609485"><ele>131.0</ele><time>2026-04-26T08:37:26.25Z</time></trkpt><trkpt lat="42.1904484" lon="14.5610472"><ele>131.0</ele><time>2026-04-26T08:37:28.248Z</time></trkpt><trkpt lat="42.1903485" lon="14.5611588"><ele>131.0</ele><time>2026-04-26T08:37:29.256Z</time></trkpt><trkpt lat="42.1902694" lon="14.5612656"><ele>131.0</ele><time>2026-04-26T08:37:30.243Z</time></trkpt><trkpt lat="42.1901951" lon="14.5613682"><ele>131.0</ele><time>2026-04-26T08:37:31.248Z</time></trkpt><trkpt lat="42.1901319" lon="14.5614534"><ele>131.0</ele><time>2026-04-26T08:37:32.24Z</time></trkpt><trkpt lat="42.1900648" lon="14.5615351"><ele>130.16666666666666</ele><time>2026-04-26T08:37:33.224Z</time></trkpt><trkpt lat="42.189995" lon="14.5616213"><ele>129.33333333333331</ele><time>2026-04-26T08:37:34.236Z</time></trkpt><trkpt lat="42.1899243" lon="14.561694"><ele>128.5</ele><time>2026-04-26T08:37:35.251Z</time></trkpt><trkpt lat="42.1898663" lon="14.5617524"><ele>127.66666666666666</ele><time>2026-04-26T08:37:36.231Z</time></trkpt><trkpt lat="42.1897976" lon="14.5618254"><ele>126.83333333333333</ele><time>2026-04-26T08:37:38.236Z</time></trkpt><trkpt lat="42.1898646" lon="14.5618227"><ele>126.0</ele><time>2026-04-26T08:37:42.25Z</time></trkpt><trkpt lat="42.1899327" lon="14.5617972"><ele>123.33333333333333</ele><time>2026-04-26T08:37:43.224Z</time></trkpt><trkpt lat="42.1900127" lon="14.561754"><ele>120.66666666666666</ele><time>2026-04-26T08:37:44.236Z</time></trkpt><trkpt lat="42.1900968" lon="14.5616963"><ele>118.0</ele><time>2026-04-26T08:37:45.225Z</time></trkpt><trkpt lat="42.1901838" lon="14.56164"><ele>115.33333333333333</ele><time>2026-04-26T08:37:46.219Z</time></trkpt><trkpt lat="42.1902589" lon="14.5615908"><ele>112.66666666666666</ele><time>2026-04-26T08:37:47.192Z</time></trkpt><trkpt lat="42.1903194" lon="14.5615526"><ele>110.0</ele><time>2026-04-26T08:37:48.22Z</time></trkpt><trkpt lat="42.1903908" lon="14.5615076"><ele>109.99999999999999</ele><time>2026-04-26T08:37:49.229Z</time></trkpt><trkpt lat="42.1904605" lon="14.5614727"><ele>110.0</ele><time>2026-04-26T08:37:50.211Z</time></trkpt><trkpt lat="42.1905314" lon="14.5614493"><ele>110.0</ele><time>2026-04-26T08:37:51.211Z</time></trkpt><trkpt lat="42.1906047" lon="14.5614407"><ele>110.0</ele><time>2026-04-26T08:37:52.211Z</time></trkpt><trkpt lat="42.1906834" lon="14.5614278"><ele>109.99999999999999</ele><time>2026-04-26T08:37:53.222Z</time></trkpt><trkpt lat="42.1907714" lon="14.5614086"><ele>110.0</ele><time>2026-04-26T08:37:54.224Z</time></trkpt><trkpt lat="42.1908678" lon="14.5613809"><ele>113.0</ele><time>2026-04-26T08:37:55.238Z</time></trkpt><trkpt lat="42.1910044" lon="14.5613092"><ele>116.0</ele><time>2026-04-26T08:37:56.219Z</time></trkpt><trkpt lat="42.1911642" lon="14.5612232"><ele>119.0</ele><time>2026-04-26T08:37:57.176Z</time></trkpt><trkpt lat="42.1913064" lon="14.5611729"><ele>119.0</ele><time>2026-04-26T08:37:58.172Z</time></trkpt><trkpt lat="42.1914252" lon="14.5611396"><ele>119.0</ele><time>2026-04-26T08:37:59.172Z</time></trkpt><trkpt lat="42.1914724" lon="14.5610509"><ele>119.0</ele><time>2026-04-26T08:38:20.239Z</time></trkpt><trkpt lat="42.1915139" lon="14.5609515"><ele>119.0</ele><time>2026-04-26T08:38:22.187Z</time></trkpt><trkpt lat="42.1916178" lon="14.5608328"><ele>119.0</ele><time>2026-04-26T08:38:24.209Z</time></trkpt><trkpt lat="42.191714" lon="14.5607632"><ele>115.0</ele><time>2026-04-26T08:38:25.222Z</time></trkpt><trkpt lat="42.1918199" lon="14.5607179"><ele>111.0</ele><time>2026-04-26T08:38:26.176Z</time></trkpt><trkpt lat="42.1919191" lon="14.5606859"><ele>107.0</ele><time>2026-04-26T08:38:27.174Z</time></trkpt><trkpt lat="42.1920447" lon="14.5606005"><ele>103.0</ele><time>2026-04-26T08:38:28.223Z</time></trkpt><trkpt lat="42.1921776" lon="14.5605056"><ele>103.0</ele><time>2026-04-26T08:38:29.218Z</time></trkpt><trkpt lat="42.192332" lon="14.5603968"><ele>103.0</ele><time>2026-04-26T08:38:30.174Z</time></trkpt><trkpt lat="42.1924629" lon="14.5603075"><ele>103.0</ele><time>2026-04-26T08:38:31.171Z</time></trkpt><trkpt lat="42.1925728" lon="14.5602252"><ele>103.0</ele><time>2026-04-26T08:38:32.184Z</time></trkpt><trkpt lat="42.1926308" lon="14.5601721"><ele>101.83333333333334</ele><time>2026-04-26T08:38:33.178Z</time></trkpt><trkpt lat="42.1926441" lon="14.5600771"><ele>100.66666666666667</ele><time>2026-04-26T08:38:35.252Z</time></trkpt><trkpt lat="42.1925506" lon="14.5599688"><ele>99.5</ele><time>2026-04-26T08:38:37.193Z</time></trkpt><trkpt lat="42.1924843" lon="14.5599153"><ele>98.33333333333334</ele><time>2026-04-26T08:38:38.227Z</time></trkpt><trkpt lat="42.1924698" lon="14.5597919"><ele>97.16666666666667</ele><time>2026-04-26T08:38:40.179Z</time></trkpt><trkpt lat="42.1924887" lon="14.5597099"><ele>96.0</ele><time>2026-04-26T08:38:41.179Z</time></trkpt><trkpt lat="42.192506" lon="14.5596203"><ele>94.16666666666667</ele><time>2026-04-26T08:38:42.186Z</time></trkpt><trkpt lat="42.1925057" lon="14.5594663"><ele>92.33333333333333</ele><time>2026-04-26T08:38:44.227Z</time></trkpt><trkpt lat="42.1925115" lon="14.5593798"><ele>90.5</ele><time>2026-04-26T08:38:45.188Z</time></trkpt><trkpt lat="42.1925185" lon="14.5592899"><ele>88.66666666666666</ele><time>2026-04-26T08:38:46.182Z</time></trkpt><trkpt lat="42.1925474" lon="14.5591552"><ele>86.83333333333333</ele><time>2026-04-26T08:38:48.243Z</time></trkpt><trkpt lat="42.192567" lon="14.5590528"><ele>85.0</ele><time>2026-04-26T08:38:50.228Z</time></trkpt><trkpt lat="42.1926296" lon="14.5589824"><ele>85.0</ele><time>2026-04-26T08:39:15.199Z</time></trkpt><trkpt lat="42.1927108" lon="14.5590054"><ele>85.0</ele><time>2026-04-26T08:39:17.208Z</time></trkpt><trkpt lat="42.1927956" lon="14.5590205"><ele>85.0</ele><time>2026-04-26T08:39:19.202Z</time></trkpt><trkpt lat="42.1928591" lon="14.5590264"><ele>85.0</ele><time>2026-04-26T08:39:21.193Z</time></trkpt><trkpt lat="42.1929471" lon="14.5590371"><ele>85.0</ele><time>2026-04-26T08:39:23.196Z</time></trkpt><trkpt lat="42.1930386" lon="14.559046"><ele>85.0</ele><time>2026-04-26T08:39:24.191Z</time></trkpt><trkpt lat="42.1931681" lon="14.5590685"><ele>83.5</ele><time>2026-04-26T08:39:25.237Z</time></trkpt><trkpt lat="42.1933009" lon="14.5590925"><ele>82.0</ele><time>2026-04-26T08:39:26.19Z</time></trkpt><trkpt lat="42.1934238" lon="14.559117"><ele>80.5</ele><time>2026-04-26T08:39:27.187Z</time></trkpt><trkpt lat="42.1935393" lon="14.5591312"><ele>79.0</ele><time>2026-04-26T08:39:28.186Z</time></trkpt><trkpt lat="42.193645" lon="14.5591483"><ele>79.0</ele><time>2026-04-26T08:39:29.214Z</time></trkpt><trkpt lat="42.1937497" lon="14.5591579"><ele>79.0</ele><time>2026-04-26T08:39:30.26Z</time></trkpt><trkpt lat="42.1938504" lon="14.5591869"><ele>79.0</ele><time>2026-04-26T08:39:31.222Z</time></trkpt><trkpt lat="42.1939383" lon="14.5592121"><ele>79.0</ele><time>2026-04-26T08:39:32.199Z</time></trkpt><trkpt lat="42.1940039" lon="14.5592237"><ele>79.0</ele><time>2026-04-26T08:39:33.231Z</time></trkpt><trkpt lat="42.1940671" lon="14.5592348"><ele>79.0</ele><time>2026-04-26T08:39:35.202Z</time></trkpt><trkpt lat="42.1941459" lon="14.5592533"><ele>75.66666666666666</ele><time>2026-04-26T08:39:45.201Z</time></trkpt><trkpt lat="42.1942924" lon="14.5592603"><ele>72.33333333333333</ele><time>2026-04-26T08:39:47.252Z</time></trkpt><trkpt lat="42.1944263" lon="14.5592794"><ele>69.0</ele><time>2026-04-26T08:39:48.234Z</time></trkpt><trkpt lat="42.1946006" lon="14.5593044"><ele>69.0</ele><time>2026-04-26T08:39:49.242Z</time></trkpt><trkpt lat="42.1947833" lon="14.5593285"><ele>69.0</ele><time>2026-04-26T08:39:50.197Z</time></trkpt><trkpt lat="42.1949577" lon="14.5593649"><ele>69.0</ele><time>2026-04-26T08:39:51.233Z</time></trkpt><trkpt lat="42.195114" lon="14.5593898"><ele>65.75</ele><time>2026-04-26T08:39:52.192Z</time></trkpt><trkpt lat="42.1952633" lon="14.5594132"><ele>62.5</ele><time>2026-04-26T08:39:53.199Z</time></trkpt><trkpt lat="42.1954079" lon="14.5594309"><ele>59.25</ele><time>2026-04-26T08:39:54.191Z</time></trkpt><trkpt lat="42.1955491" lon="14.5594589"><ele>56.0</ele><time>2026-04-26T08:39:55.218Z</time></trkpt><trkpt lat="42.1956865" lon="14.5594822"><ele>53.75</ele><time>2026-04-26T08:39:56.225Z</time></trkpt><trkpt lat="42.1958132" lon="14.5595021"><ele>51.5</ele><time>2026-04-26T08:39:57.186Z</time></trkpt><trkpt lat="42.1959313" lon="14.5595143"><ele>49.25</ele><time>2026-04-26T08:39:58.242Z</time></trkpt><trkpt lat="42.1960436" lon="14.5595151"><ele>47.0</ele><time>2026-04-26T08:39:59.222Z</time></trkpt><trkpt lat="42.1961368" lon="14.5595127"><ele>47.0</ele><time>2026-04-26T08:40:00.249Z</time></trkpt><trkpt lat="42.1962117" lon="14.5595123"><ele>47.0</ele><time>2026-04-26T08:40:01.245Z</time></trkpt><trkpt lat="42.1962773" lon="14.5595109"><ele>47.0</ele><time>2026-04-26T08:40:02.245Z</time></trkpt><trkpt lat="42.1963817" lon="14.5594348"><ele>47.0</ele><time>2026-04-26T08:40:04.259Z</time></trkpt><trkpt lat="42.1964212" lon="14.5593476"><ele>47.0</ele><time>2026-04-26T08:40:05.209Z</time></trkpt><trkpt lat="42.1964692" lon="14.5592323"><ele>47.0</ele><time>2026-04-26T08:40:06.209Z</time></trkpt><trkpt lat="42.1965324" lon="14.559118"><ele>45.6</ele><time>2026-04-26T08:40:07.255Z</time></trkpt><trkpt lat="42.1966079" lon="14.5590224"><ele>44.2</ele><time>2026-04-26T08:40:08.238Z</time></trkpt><trkpt lat="42.1966915" lon="14.5589308"><ele>42.8</ele><time>2026-04-26T08:40:09.192Z</time></trkpt><trkpt lat="42.1967638" lon="14.558838"><ele>41.4</ele><time>2026-04-26T08:40:10.185Z</time></trkpt><trkpt lat="42.1968346" lon="14.5587444"><ele>40.0</ele><time>2026-04-26T08:40:11.177Z</time></trkpt><trkpt lat="42.196893" lon="14.5586584"><ele>39.16666666666667</ele><time>2026-04-26T08:40:12.243Z</time></trkpt><trkpt lat="42.196942" lon="14.5585785"><ele>38.333333333333336</ele><time>2026-04-26T08:40:13.226Z</time></trkpt><trkpt lat="42.1969916" lon="14.5584873"><ele>37.5</ele><time>2026-04-26T08:40:14.219Z</time></trkpt><trkpt lat="42.1970424" lon="14.5583786"><ele>36.666666666666664</ele><time>2026-04-26T08:40:15.183Z</time></trkpt><trkpt lat="42.1970903" lon="14.5582733"><ele>35.83333333333333</ele><time>2026-04-26T08:40:16.207Z</time></trkpt><trkpt lat="42.197138" lon="14.5581665"><ele>35.0</ele><time>2026-04-26T08:40:17.188Z</time></trkpt><trkpt lat="42.1971821" lon="14.5580579"><ele>35.0</ele><time>2026-04-26T08:40:18.199Z</time></trkpt><trkpt lat="42.197222" lon="14.5579605"><ele>35.0</ele><time>2026-04-26T08:40:19.232Z</time></trkpt><trkpt lat="42.1972619" lon="14.5578551"><ele>35.0</ele><time>2026-04-26T08:40:20.228Z</time></trkpt><trkpt lat="42.1972966" lon="14.5577508"><ele>35.0</ele><time>2026-04-26T08:40:21.23Z</time></trkpt><trkpt lat="42.1973382" lon="14.557651"><ele>35.0</ele><time>2026-04-26T08:40:22.232Z</time></trkpt><trkpt lat="42.1973907" lon="14.5575391"><ele>35.0</ele><time>2026-04-26T08:40:23.245Z</time></trkpt><trkpt lat="42.1974474" lon="14.5574151"><ele>34.8</ele><time>2026-04-26T08:40:24.227Z</time></trkpt><trkpt lat="42.1975264" lon="14.5573106"><ele>34.6</ele><time>2026-04-26T08:40:25.233Z</time></trkpt><trkpt lat="42.1976193" lon="14.5572004"><ele>34.4</ele><time>2026-04-26T08:40:26.189Z</time></trkpt><trkpt lat="42.1976898" lon="14.5571006"><ele>34.2</ele><time>2026-04-26T08:40:27.207Z</time></trkpt><trkpt lat="42.1977576" lon="14.557026"><ele>34.0</ele><time>2026-04-26T08:40:28.228Z</time></trkpt><trkpt lat="42.1978489" lon="14.5569563"><ele>34.0</ele><time>2026-04-26T08:40:29.234Z</time></trkpt><trkpt lat="42.1979643" lon="14.5568906"><ele>34.0</ele><time>2026-04-26T08:40:30.245Z</time></trkpt><trkpt lat="42.1980767" lon="14.5568002"><ele>34.0</ele><time>2026-04-26T08:40:31.267Z</time></trkpt><trkpt lat="42.1981808" lon="14.5566932"><ele>34.0</ele><time>2026-04-26T08:40:32.239Z</time></trkpt><trkpt lat="42.1982721" lon="14.5565924"><ele>33.25</ele><time>2026-04-26T08:40:33.238Z</time></trkpt><trkpt lat="42.1983659" lon="14.556504"><ele>32.5</ele><time>2026-04-26T08:40:34.25Z</time></trkpt><trkpt lat="42.1984597" lon="14.5564312"><ele>31.75</ele><time>2026-04-26T08:40:35.211Z</time></trkpt><trkpt lat="42.1985582" lon="14.5563566"><ele>31.0</ele><time>2026-04-26T08:40:36.216Z</time></trkpt><trkpt lat="42.1986582" lon="14.5562822"><ele>31.0</ele><time>2026-04-26T08:40:37.214Z</time></trkpt><trkpt lat="42.1987484" lon="14.556204"><ele>31.0</ele><time>2026-04-26T08:40:38.209Z</time></trkpt><trkpt lat="42.1988177" lon="14.5561311"><ele>31.0</ele><time>2026-04-26T08:40:39.211Z</time></trkpt><trkpt lat="42.1988739" lon="14.5560042"><ele>31.0</ele><time>2026-04-26T08:40:41.242Z</time></trkpt><trkpt lat="42.1989651" lon="14.5559965"><ele>31.0</ele><time>2026-04-26T08:40:44.2Z</time></trkpt><trkpt lat="42.1990696" lon="14.5561635"><ele>32.66666666666667</ele><time>2026-04-26T08:40:46.231Z</time></trkpt><trkpt lat="42.1991682" lon="14.5563024"><ele>34.333333333333336</ele><time>2026-04-26T08:40:47.243Z</time></trkpt><trkpt lat="42.199277" lon="14.5564621"><ele>36.0</ele><time>2026-04-26T08:40:48.223Z</time></trkpt><trkpt lat="42.1993633" lon="14.5566285"><ele>36.0</ele><time>2026-04-26T08:40:49.228Z</time></trkpt><trkpt lat="42.1994261" lon="14.5567957"><ele>36.0</ele><time>2026-04-26T08:40:50.272Z</time></trkpt><trkpt lat="42.199478" lon="14.5569656"><ele>36.0</ele><time>2026-04-26T08:40:51.256Z</time></trkpt><trkpt lat="42.1995276" lon="14.5571177"><ele>36.0</ele><time>2026-04-26T08:40:52.235Z</time></trkpt><trkpt lat="42.1995782" lon="14.5572539"><ele>35.0</ele><time>2026-04-26T08:40:53.262Z</time></trkpt><trkpt lat="42.1996298" lon="14.5573837"><ele>34.0</ele><time>2026-04-26T08:40:54.21Z</time></trkpt><trkpt lat="42.1996947" lon="14.5575331"><ele>33.0</ele><time>2026-04-26T08:40:55.239Z</time></trkpt><trkpt lat="42.1997657" lon="14.5576745"><ele>32.0</ele><time>2026-04-26T08:40:56.244Z</time></trkpt><trkpt lat="42.1998232" lon="14.5578206"><ele>33.0</ele><time>2026-04-26T08:40:57.226Z</time></trkpt><trkpt lat="42.1998784" lon="14.5579613"><ele>34.0</ele><time>2026-04-26T08:40:58.203Z</time></trkpt><trkpt lat="42.1999258" lon="14.5580953"><ele>35.0</ele><time>2026-04-26T08:40:59.202Z</time></trkpt><trkpt lat="42.1999732" lon="14.5582249"><ele>36.0</ele><time>2026-04-26T08:41:00.206Z</time></trkpt><trkpt lat="42.200027" lon="14.5583622"><ele>36.0</ele><time>2026-04-26T08:41:01.197Z</time></trkpt><trkpt lat="42.2000898" lon="14.5585016"><ele>36.0</ele><time>2026-04-26T08:41:02.184Z</time></trkpt><trkpt lat="42.2001615" lon="14.5586423"><ele>36.0</ele><time>2026-04-26T08:41:03.245Z</time></trkpt><trkpt lat="42.200235" lon="14.5587811"><ele>36.0</ele><time>2026-04-26T08:41:04.231Z</time></trkpt><trkpt lat="42.2003041" lon="14.558893"><ele>35.6</ele><time>2026-04-26T08:41:05.23Z</time></trkpt><trkpt lat="42.2003755" lon="14.558973"><ele>35.2</ele><time>2026-04-26T08:41:06.205Z</time></trkpt><trkpt lat="42.2004386" lon="14.5590194"><ele>34.8</ele><time>2026-04-26T08:41:07.259Z</time></trkpt><trkpt lat="42.2005464" lon="14.5590584"><ele>34.4</ele><time>2026-04-26T08:41:08.233Z</time></trkpt><trkpt lat="42.2006754" lon="14.5590993"><ele>34.0</ele><time>2026-04-26T08:41:09.244Z</time></trkpt><trkpt lat="42.2007866" lon="14.5591491"><ele>34.0</ele><time>2026-04-26T08:41:10.237Z</time></trkpt><trkpt lat="42.2008662" lon="14.5591905"><ele>34.0</ele><time>2026-04-26T08:41:11.245Z</time></trkpt><trkpt lat="42.2009306" lon="14.5592417"><ele>34.0</ele><time>2026-04-26T08:41:12.24Z</time></trkpt><trkpt lat="42.2009932" lon="14.5593152"><ele>34.0</ele><time>2026-04-26T08:41:13.244Z</time></trkpt><trkpt lat="42.2010392" lon="14.5593919"><ele>34.0</ele><time>2026-04-26T08:41:14.257Z</time></trkpt><trkpt lat="42.2010788" lon="14.5594878"><ele>34.0</ele><time>2026-04-26T08:41:15.199Z</time></trkpt><trkpt lat="42.201106" lon="14.5595989"><ele>33.333333333333336</ele><time>2026-04-26T08:41:16.218Z</time></trkpt><trkpt lat="42.2011289" lon="14.5597056"><ele>32.66666666666667</ele><time>2026-04-26T08:41:17.2Z</time></trkpt><trkpt lat="42.2011579" lon="14.5597887"><ele>32.0</ele><time>2026-04-26T08:41:18.215Z</time></trkpt><trkpt lat="42.2012082" lon="14.5598587"><ele>31.333333333333336</ele><time>2026-04-26T08:41:19.19Z</time></trkpt><trkpt lat="42.2012739" lon="14.5599182"><ele>30.666666666666668</ele><time>2026-04-26T08:41:20.203Z</time></trkpt><trkpt lat="42.2013518" lon="14.5600128"><ele>30.0</ele><time>2026-04-26T08:41:21.175Z</time></trkpt><trkpt lat="42.201417" lon="14.5600705"><ele>29.6</ele><time>2026-04-26T08:41:22.227Z</time></trkpt><trkpt lat="42.2014994" lon="14.560106"><ele>29.2</ele><time>2026-04-26T08:41:25.222Z</time></trkpt><trkpt lat="42.20156" lon="14.5599549"><ele>28.799999999999997</ele><time>2026-04-26T08:41:27.253Z</time></trkpt><trkpt lat="42.2015916" lon="14.559835"><ele>28.4</ele><time>2026-04-26T08:41:28.231Z</time></trkpt><trkpt lat="42.2016326" lon="14.5597111"><ele>28.0</ele><time>2026-04-26T08:41:29.241Z</time></trkpt><trkpt lat="42.2016769" lon="14.5595899"><ele>28.799999999999997</ele><time>2026-04-26T08:41:30.232Z</time></trkpt><trkpt lat="42.20171" lon="14.5594949"><ele>29.599999999999998</ele><time>2026-04-26T08:41:31.238Z</time></trkpt><trkpt lat="42.2017355" lon="14.5594155"><ele>30.400000000000002</ele><time>2026-04-26T08:41:32.23Z</time></trkpt><trkpt lat="42.20178" lon="14.5592837"><ele>31.200000000000003</ele><time>2026-04-26T08:41:34.247Z</time></trkpt><trkpt lat="42.2018227" lon="14.5591516"><ele>32.0</ele><time>2026-04-26T08:41:36.211Z</time></trkpt><trkpt lat="42.2018695" lon="14.5589948"><ele>32.0</ele><time>2026-04-26T08:41:38.253Z</time></trkpt><trkpt lat="42.2019017" lon="14.5589133"><ele>32.0</ele><time>2026-04-26T08:41:39.24Z</time></trkpt><trkpt lat="42.2019486" lon="14.5588155"><ele>32.0</ele><time>2026-04-26T08:41:40.192Z</time></trkpt><trkpt lat="42.2020079" lon="14.5586937"><ele>32.0</ele><time>2026-04-26T08:41:41.189Z</time></trkpt><trkpt lat="42.2020822" lon="14.5585228"><ele>32.0</ele><time>2026-04-26T08:41:42.186Z</time></trkpt><trkpt lat="42.2021745" lon="14.5583117"><ele>32.0</ele><time>2026-04-26T08:41:43.367Z</time></trkpt><trkpt lat="42.2023754" lon="14.5577955"><ele>32.0</ele><time>2026-04-26T08:41:45.36Z</time></trkpt><trkpt lat="42.2024986" lon="14.5575015"><ele>32.0</ele><time>2026-04-26T08:41:46.191Z</time></trkpt><trkpt lat="42.2026312" lon="14.5571924"><ele>32.0</ele><time>2026-04-26T08:41:47.326Z</time></trkpt><trkpt lat="42.2029116" lon="14.5565576"><ele>32.33333333333333</ele><time>2026-04-26T08:41:49.263Z</time></trkpt><trkpt lat="42.2030273" lon="14.5562946"><ele>32.666666666666664</ele><time>2026-04-26T08:41:50.249Z</time></trkpt><trkpt lat="42.2031221" lon="14.556064"><ele>33.0</ele><time>2026-04-26T08:41:51.211Z</time></trkpt><trkpt lat="42.2032029" lon="14.5558675"><ele>32.5</ele><time>2026-04-26T08:41:52.24Z</time></trkpt><trkpt lat="42.2032776" lon="14.5556965"><ele>32.0</ele><time>2026-04-26T08:41:53.214Z</time></trkpt><trkpt lat="42.203346" lon="14.5555411"><ele>31.5</ele><time>2026-04-26T08:41:54.227Z</time></trkpt><trkpt lat="42.2034064" lon="14.5553655"><ele>31.0</ele><time>2026-04-26T08:41:55.236Z</time></trkpt><trkpt lat="42.2034684" lon="14.5551838"><ele>32.25</ele><time>2026-04-26T08:41:56.243Z</time></trkpt><trkpt lat="42.2035389" lon="14.555033"><ele>33.5</ele><time>2026-04-26T08:41:57.259Z</time></trkpt><trkpt lat="42.2036223" lon="14.5549065"><ele>34.75</ele><time>2026-04-26T08:41:58.246Z</time></trkpt><trkpt lat="42.2037337" lon="14.5547763"><ele>36.0</ele><time>2026-04-26T08:41:59.247Z</time></trkpt><trkpt lat="42.2038495" lon="14.5546006"><ele>35.2</ele><time>2026-04-26T08:42:00.212Z</time></trkpt><trkpt lat="42.2039424" lon="14.5544374"><ele>34.400000000000006</ele><time>2026-04-26T08:42:01.191Z</time></trkpt><trkpt lat="42.2040068" lon="14.5543272"><ele>33.6</ele><time>2026-04-26T08:42:02.209Z</time></trkpt><trkpt lat="42.2040636" lon="14.5542394"><ele>32.800000000000004</ele><time>2026-04-26T08:42:04.19Z</time></trkpt><trkpt lat="42.2041223" lon="14.5542803"><ele>32.0</ele><time>2026-04-26T08:42:06.192Z</time></trkpt><trkpt lat="42.2041877" lon="14.5543626"><ele>32.0</ele><time>2026-04-26T08:42:07.2Z</time></trkpt><trkpt lat="42.2042982" lon="14.55449"><ele>32.0</ele><time>2026-04-26T08:42:08.19Z</time></trkpt><trkpt lat="42.2044264" lon="14.5546229"><ele>32.0</ele><time>2026-04-26T08:42:09.218Z</time></trkpt><trkpt lat="42.2045357" lon="14.5547242"><ele>32.0</ele><time>2026-04-26T08:42:10.223Z</time></trkpt><trkpt lat="42.2046211" lon="14.5548045"><ele>32.0</ele><time>2026-04-26T08:42:11.19Z</time></trkpt><trkpt lat="42.2046889" lon="14.5548841"><ele>32.0</ele><time>2026-04-26T08:42:12.198Z</time></trkpt><trkpt lat="42.2047416" lon="14.5549723"><ele>32.0</ele><time>2026-04-26T08:42:13.222Z</time></trkpt><trkpt lat="42.2047859" lon="14.5550951"><ele>32.0</ele><time>2026-04-26T08:42:14.242Z</time></trkpt><trkpt lat="42.2048326" lon="14.5552588"><ele>32.0</ele><time>2026-04-26T08:42:15.241Z</time></trkpt><trkpt lat="42.2048739" lon="14.5554376"><ele>31.400000000000002</ele><time>2026-04-26T08:42:16.202Z</time></trkpt><trkpt lat="42.2048922" lon="14.5555587"><ele>30.800000000000004</ele><time>2026-04-26T08:42:17.202Z</time></trkpt><trkpt lat="42.2048936" lon="14.5556859"><ele>30.2</ele><time>2026-04-26T08:42:18.233Z</time></trkpt><trkpt lat="42.2048827" lon="14.5558604"><ele>29.6</ele><time>2026-04-26T08:42:19.192Z</time></trkpt><trkpt lat="42.2048655" lon="14.5560173"><ele>29.0</ele><time>2026-04-26T08:42:20.23Z</time></trkpt><trkpt lat="42.2048888" lon="14.5561283"><ele>29.0</ele><time>2026-04-26T08:42:22.249Z</time></trkpt><trkpt lat="42.2049881" lon="14.5561911"><ele>29.0</ele><time>2026-04-26T08:42:24.199Z</time></trkpt><trkpt lat="42.205048" lon="14.5562237"><ele>29.0</ele><time>2026-04-26T08:42:25.253Z</time></trkpt><trkpt lat="42.2051403" lon="14.5561964"><ele>29.0</ele><time>2026-04-26T08:42:27.242Z</time></trkpt><trkpt lat="42.2052165" lon="14.5560751"><ele>29.0</ele><time>2026-04-26T08:42:29.219Z</time></trkpt><trkpt lat="42.2052552" lon="14.5559886"><ele>29.0</ele><time>2026-04-26T08:42:30.226Z</time></trkpt><trkpt lat="42.2053003" lon="14.5558628"><ele>29.0</ele><time>2026-04-26T08:42:31.265Z</time></trkpt><trkpt lat="42.2053423" lon="14.5557294"><ele>29.0</ele><time>2026-04-26T08:42:32.229Z</time></trkpt><trkpt lat="42.205377" lon="14.5556078"><ele>29.0</ele><time>2026-04-26T08:42:33.25Z</time></trkpt><trkpt lat="42.2054173" lon="14.555498"><ele>29.0</ele><time>2026-04-26T08:42:34.237Z</time></trkpt><trkpt lat="42.2054627" lon="14.555386"><ele>29.0</ele><time>2026-04-26T08:42:35.253Z</time></trkpt><trkpt lat="42.2055084" lon="14.5552696"><ele>29.0</ele><time>2026-04-26T08:42:36.186Z</time></trkpt><trkpt lat="42.2055607" lon="14.5551657"><ele>29.0</ele><time>2026-04-26T08:42:37.248Z</time></trkpt><trkpt lat="42.205609" lon="14.5550778"><ele>29.0</ele><time>2026-04-26T08:42:38.193Z</time></trkpt><trkpt lat="42.2056751" lon="14.5549646"><ele>29.0</ele><time>2026-04-26T08:42:40.25Z</time></trkpt><trkpt lat="42.2057222" lon="14.5548833"><ele>29.0</ele><time>2026-04-26T08:42:42.24Z</time></trkpt><trkpt lat="42.2057554" lon="14.5548066"><ele>29.0</ele><time>2026-04-26T08:44:55.224Z</time></trkpt><trkpt lat="42.2058041" lon="14.5547457"><ele>29.0</ele><time>2026-04-26T08:44:56.195Z</time></trkpt><trkpt lat="42.2058687" lon="14.5546555"><ele>29.0</ele><time>2026-04-26T08:44:57.233Z</time></trkpt><trkpt lat="42.2059603" lon="14.5545361"><ele>29.0</ele><time>2026-04-26T08:44:58.235Z</time></trkpt><trkpt lat="42.2060836" lon="14.5543926"><ele>29.25</ele><time>2026-04-26T08:44:59.206Z</time></trkpt><trkpt lat="42.2062055" lon="14.5542523"><ele>29.5</ele><time>2026-04-26T08:45:00.242Z</time></trkpt><trkpt lat="42.2063038" lon="14.5541258"><ele>29.75</ele><time>2026-04-26T08:45:01.175Z</time></trkpt><trkpt lat="42.2063945" lon="14.5539996"><ele>30.0</ele><time>2026-04-26T08:45:02.178Z</time></trkpt><trkpt lat="42.206481" lon="14.5538857"><ele>30.0</ele><time>2026-04-26T08:45:03.178Z</time></trkpt><trkpt lat="42.2065638" lon="14.5537752"><ele>30.0</ele><time>2026-04-26T08:45:04.18Z</time></trkpt><trkpt lat="42.2066387" lon="14.5536684"><ele>30.0</ele><time>2026-04-26T08:45:05.183Z</time></trkpt><trkpt lat="42.2067078" lon="14.553584"><ele>30.0</ele><time>2026-04-26T08:45:06.178Z</time></trkpt><trkpt lat="42.2067821" lon="14.5534857"><ele>30.0</ele><time>2026-04-26T08:45:07.234Z</time></trkpt><trkpt lat="42.2068557" lon="14.5533912"><ele>30.2</ele><time>2026-04-26T08:45:08.18Z</time></trkpt><trkpt lat="42.2069217" lon="14.5533028"><ele>30.4</ele><time>2026-04-26T08:45:09.191Z</time></trkpt><trkpt lat="42.2069948" lon="14.5532163"><ele>30.6</ele><time>2026-04-26T08:45:10.228Z</time></trkpt><trkpt lat="42.2070715" lon="14.5531327"><ele>30.8</ele><time>2026-04-26T08:45:11.229Z</time></trkpt><trkpt lat="42.2071389" lon="14.5530448"><ele>31.0</ele><time>2026-04-26T08:45:12.175Z</time></trkpt><trkpt lat="42.2072012" lon="14.5529626"><ele>31.000000000000004</ele><time>2026-04-26T08:45:13.21Z</time></trkpt><trkpt lat="42.2072619" lon="14.5528856"><ele>31.0</ele><time>2026-04-26T08:45:14.227Z</time></trkpt><trkpt lat="42.2073226" lon="14.5528113"><ele>31.0</ele><time>2026-04-26T08:45:15.216Z</time></trkpt><trkpt lat="42.2073834" lon="14.5527297"><ele>31.0</ele><time>2026-04-26T08:45:16.264Z</time></trkpt><trkpt lat="42.2074512" lon="14.5526475"><ele>31.000000000000004</ele><time>2026-04-26T08:45:17.235Z</time></trkpt><trkpt lat="42.20752" lon="14.5525627"><ele>31.0</ele><time>2026-04-26T08:45:18.225Z</time></trkpt><trkpt lat="42.207589" lon="14.5524765"><ele>31.0</ele><time>2026-04-26T08:45:19.214Z</time></trkpt><trkpt lat="42.2076526" lon="14.55239"><ele>31.0</ele><time>2026-04-26T08:45:20.212Z</time></trkpt><trkpt lat="42.2077168" lon="14.5523011"><ele>31.0</ele><time>2026-04-26T08:45:21.193Z</time></trkpt><trkpt lat="42.2077824" lon="14.5522231"><ele>31.0</ele><time>2026-04-26T08:45:22.209Z</time></trkpt><trkpt lat="42.2078479" lon="14.5521356"><ele>31.0</ele><time>2026-04-26T08:45:23.236Z</time></trkpt><trkpt lat="42.2079104" lon="14.5520461"><ele>31.0</ele><time>2026-04-26T08:45:24.225Z</time></trkpt><trkpt lat="42.2079745" lon="14.5519532"><ele>31.0</ele><time>2026-04-26T08:45:25.237Z</time></trkpt><trkpt lat="42.2080354" lon="14.5518614"><ele>31.0</ele><time>2026-04-26T08:45:26.237Z</time></trkpt><trkpt lat="42.2080939" lon="14.5517711"><ele>31.0</ele><time>2026-04-26T08:45:27.225Z</time></trkpt><trkpt lat="42.2081522" lon="14.5516718"><ele>31.0</ele><time>2026-04-26T08:45:28.22Z</time></trkpt><trkpt lat="42.2082177" lon="14.551571"><ele>31.0</ele><time>2026-04-26T08:45:29.2Z</time></trkpt><trkpt lat="42.2082859" lon="14.5514614"><ele>31.0</ele><time>2026-04-26T08:45:30.217Z</time></trkpt><trkpt lat="42.2083636" lon="14.55134"><ele>31.0</ele><time>2026-04-26T08:45:31.227Z</time></trkpt><trkpt lat="42.2084472" lon="14.551208"><ele>31.0</ele><time>2026-04-26T08:45:32.239Z</time></trkpt><trkpt lat="42.2085338" lon="14.5510745"><ele>31.0</ele><time>2026-04-26T08:45:33.241Z</time></trkpt><trkpt lat="42.2086229" lon="14.5509434"><ele>31.0</ele><time>2026-04-26T08:45:34.222Z</time></trkpt><trkpt lat="42.2087123" lon="14.5508136"><ele>31.0</ele><time>2026-04-26T08:45:35.209Z</time></trkpt><trkpt lat="42.2087939" lon="14.5507024"><ele>31.0</ele><time>2026-04-26T08:45:36.231Z</time></trkpt><trkpt lat="42.2088694" lon="14.5505971"><ele>31.0</ele><time>2026-04-26T08:45:37.224Z</time></trkpt><trkpt lat="42.2089416" lon="14.5504912"><ele>31.0</ele><time>2026-04-26T08:45:38.231Z</time></trkpt><trkpt lat="42.2090121" lon="14.5503728"><ele>31.0</ele><time>2026-04-26T08:45:39.183Z</time></trkpt><trkpt lat="42.209086" lon="14.5502584"><ele>31.0</ele><time>2026-04-26T08:45:40.236Z</time></trkpt><trkpt lat="42.2091526" lon="14.5501606"><ele>31.0</ele><time>2026-04-26T08:45:41.209Z</time></trkpt><trkpt lat="42.2092155" lon="14.5500685"><ele>31.500000000000004</ele><time>2026-04-26T08:45:42.203Z</time></trkpt><trkpt lat="42.2092739" lon="14.5499826"><ele>32.0</ele><time>2026-04-26T08:45:43.247Z</time></trkpt><trkpt lat="42.209327" lon="14.549914"><ele>32.5</ele><time>2026-04-26T08:45:44.236Z</time></trkpt><trkpt lat="42.2094411" lon="14.5498494"><ele>33.0</ele><time>2026-04-26T08:45:46.224Z</time></trkpt><trkpt lat="42.2095133" lon="14.549857"><ele>33.5</ele><time>2026-04-26T08:45:47.254Z</time></trkpt><trkpt lat="42.2095941" lon="14.549879"><ele>34.0</ele><time>2026-04-26T08:45:48.198Z</time></trkpt><trkpt lat="42.209684" lon="14.5498978"><ele>34.0</ele><time>2026-04-26T08:45:49.243Z</time></trkpt><trkpt lat="42.2097714" lon="14.5499042"><ele>34.0</ele><time>2026-04-26T08:45:50.248Z</time></trkpt><trkpt lat="42.2098428" lon="14.5499127"><ele>34.0</ele><time>2026-04-26T08:45:51.243Z</time></trkpt><trkpt lat="42.2099315" lon="14.5499283"><ele>34.0</ele><time>2026-04-26T08:45:53.23Z</time></trkpt><trkpt lat="42.2100012" lon="14.5499461"><ele>34.0</ele><time>2026-04-26T08:45:58.242Z</time></trkpt><trkpt lat="42.2101091" lon="14.5499892"><ele>34.0</ele><time>2026-04-26T08:46:00.228Z</time></trkpt><trkpt lat="42.2101918" lon="14.5500122"><ele>35.4</ele><time>2026-04-26T08:46:01.237Z</time></trkpt><trkpt lat="42.2102867" lon="14.5500412"><ele>36.8</ele><time>2026-04-26T08:46:02.248Z</time></trkpt><trkpt lat="42.2103939" lon="14.5500738"><ele>38.199999999999996</ele><time>2026-04-26T08:46:03.232Z</time></trkpt><trkpt lat="42.210502" lon="14.5501092"><ele>39.599999999999994</ele><time>2026-04-26T08:46:04.245Z</time></trkpt><trkpt lat="42.2106151" lon="14.550139"><ele>41.0</ele><time>2026-04-26T08:46:05.241Z</time></trkpt><trkpt lat="42.210728" lon="14.5501621"><ele>42.25</ele><time>2026-04-26T08:46:06.231Z</time></trkpt><trkpt lat="42.2108425" lon="14.5501834"><ele>43.5</ele><time>2026-04-26T08:46:07.234Z</time></trkpt><trkpt lat="42.2109654" lon="14.5502075"><ele>44.75</ele><time>2026-04-26T08:46:08.225Z</time></trkpt><trkpt lat="42.2110971" lon="14.5502321"><ele>46.0</ele><time>2026-04-26T08:46:09.229Z</time></trkpt><trkpt lat="42.2112194" lon="14.5502536"><ele>46.0</ele><time>2026-04-26T08:46:10.221Z</time></trkpt><trkpt lat="42.2113416" lon="14.5502573"><ele>46.0</ele><time>2026-04-26T08:46:11.202Z</time></trkpt><trkpt lat="42.2114781" lon="14.5502609"><ele>46.0</ele><time>2026-04-26T08:46:12.235Z</time></trkpt><trkpt lat="42.2116298" lon="14.5502689"><ele>46.0</ele><time>2026-04-26T08:46:13.226Z</time></trkpt><trkpt lat="42.211786" lon="14.5502757"><ele>47.8</ele><time>2026-04-26T08:46:14.263Z</time></trkpt><trkpt lat="42.2118935" lon="14.5502924"><ele>49.599999999999994</ele><time>2026-04-26T08:46:15.241Z</time></trkpt><trkpt lat="42.2119765" lon="14.5502995"><ele>51.4</ele><time>2026-04-26T08:46:16.302Z</time></trkpt><trkpt lat="42.2120448" lon="14.5503139"><ele>53.2</ele><time>2026-04-26T08:46:17.222Z</time></trkpt><trkpt lat="42.2121522" lon="14.5503954"><ele>55.0</ele><time>2026-04-26T08:46:19.233Z</time></trkpt><trkpt lat="42.2121939" lon="14.5504828"><ele>56.0</ele><time>2026-04-26T08:46:20.235Z</time></trkpt><trkpt lat="42.2122188" lon="14.5505925"><ele>57.0</ele><time>2026-04-26T08:46:21.195Z</time></trkpt><trkpt lat="42.2122464" lon="14.550714"><ele>58.0</ele><time>2026-04-26T08:46:22.239Z</time></trkpt><trkpt lat="42.2122759" lon="14.5508631"><ele>59.0</ele><time>2026-04-26T08:46:23.211Z</time></trkpt><trkpt lat="42.2122973" lon="14.5510046"><ele>60.0</ele><time>2026-04-26T08:46:24.224Z</time></trkpt><trkpt lat="42.2123057" lon="14.5511247"><ele>60.4</ele><time>2026-04-26T08:46:25.238Z</time></trkpt><trkpt lat="42.2123207" lon="14.5512211"><ele>60.8</ele><time>2026-04-26T08:46:26.234Z</time></trkpt><trkpt lat="42.2123491" lon="14.5513384"><ele>61.2</ele><time>2026-04-26T08:46:27.236Z</time></trkpt><trkpt lat="42.2123846" lon="14.5514649"><ele>61.6</ele><time>2026-04-26T08:46:28.224Z</time></trkpt><trkpt lat="42.2124285" lon="14.5515927"><ele>62.0</ele><time>2026-04-26T08:46:29.223Z</time></trkpt><trkpt lat="42.2124815" lon="14.5517296"><ele>64.8</ele><time>2026-04-26T08:46:30.21Z</time></trkpt><trkpt lat="42.2125368" lon="14.551864"><ele>67.6</ele><time>2026-04-26T08:46:31.213Z</time></trkpt><trkpt lat="42.2125753" lon="14.5519834"><ele>70.39999999999999</ele><time>2026-04-26T08:46:32.243Z</time></trkpt><trkpt lat="42.2125909" lon="14.5520736"><ele>73.2</ele><time>2026-04-26T08:46:33.2Z</time></trkpt><trkpt lat="42.212595" lon="14.5521615"><ele>76.0</ele><time>2026-04-26T08:46:34.232Z</time></trkpt><trkpt lat="42.2126035" lon="14.5523333"><ele>76.6</ele><time>2026-04-26T08:46:36.215Z</time></trkpt><trkpt lat="42.212568" lon="14.5524326"><ele>77.19999999999999</ele><time>2026-04-26T08:46:37.233Z</time></trkpt><trkpt lat="42.2125209" lon="14.5525499"><ele>77.80000000000001</ele><time>2026-04-26T08:46:38.239Z</time></trkpt><trkpt lat="42.2124775" lon="14.5526747"><ele>78.4</ele><time>2026-04-26T08:46:39.222Z</time></trkpt><trkpt lat="42.2124235" lon="14.5528"><ele>79.0</ele><time>2026-04-26T08:46:40.23Z</time></trkpt><trkpt lat="42.2123737" lon="14.5529294"><ele>80.2</ele><time>2026-04-26T08:46:41.235Z</time></trkpt><trkpt lat="42.2123299" lon="14.553057"><ele>81.4</ele><time>2026-04-26T08:46:42.217Z</time></trkpt><trkpt lat="42.2122912" lon="14.5531826"><ele>82.6</ele><time>2026-04-26T08:46:43.218Z</time></trkpt><trkpt lat="42.2122473" lon="14.5533008"><ele>83.8</ele><time>2026-04-26T08:46:44.233Z</time></trkpt><trkpt lat="42.2122128" lon="14.5534157"><ele>85.0</ele><time>2026-04-26T08:46:45.21Z</time></trkpt><trkpt lat="42.2121773" lon="14.553507"><ele>84.16666666666666</ele><time>2026-04-26T08:46:46.234Z</time></trkpt><trkpt lat="42.2121383" lon="14.5535776"><ele>83.33333333333333</ele><time>2026-04-26T08:46:47.208Z</time></trkpt><trkpt lat="42.2120883" lon="14.5536419"><ele>82.5</ele><time>2026-04-26T08:46:48.228Z</time></trkpt><trkpt lat="42.2120283" lon="14.5537393"><ele>81.66666666666667</ele><time>2026-04-26T08:46:49.239Z</time></trkpt><trkpt lat="42.2119744" lon="14.5538317"><ele>80.83333333333334</ele><time>2026-04-26T08:46:50.259Z</time></trkpt><trkpt lat="42.2119108" lon="14.5539472"><ele>80.0</ele><time>2026-04-26T08:46:51.237Z</time></trkpt><trkpt lat="42.2118455" lon="14.5540629"><ele>80.0</ele><time>2026-04-26T08:46:52.24Z</time></trkpt><trkpt lat="42.2117904" lon="14.5541525"><ele>80.0</ele><time>2026-04-26T08:46:53.234Z</time></trkpt><trkpt lat="42.2117599" lon="14.5542399"><ele>80.0</ele><time>2026-04-26T08:46:54.242Z</time></trkpt><trkpt lat="42.211698" lon="14.5543647"><ele>80.0</ele><time>2026-04-26T08:46:56.199Z</time></trkpt><trkpt lat="42.2116211" lon="14.5544678"><ele>80.0</ele><time>2026-04-26T08:46:58.234Z</time></trkpt><trkpt lat="42.2115763" lon="14.5545414"><ele>80.0</ele><time>2026-04-26T08:46:59.249Z</time></trkpt><trkpt lat="42.2115309" lon="14.5546317"><ele>77.5</ele><time>2026-04-26T08:47:00.237Z</time></trkpt><trkpt lat="42.2114753" lon="14.5547209"><ele>75.0</ele><time>2026-04-26T08:47:01.234Z</time></trkpt><trkpt lat="42.2114287" lon="14.5548128"><ele>72.5</ele><time>2026-04-26T08:47:02.245Z</time></trkpt><trkpt lat="42.2113827" lon="14.5548962"><ele>70.0</ele><time>2026-04-26T08:47:03.24Z</time></trkpt><trkpt lat="42.2113377" lon="14.5549612"><ele>67.5</ele><time>2026-04-26T08:47:04.239Z</time></trkpt><trkpt lat="42.2112669" lon="14.555058"><ele>65.0</ele><time>2026-04-26T08:47:06.181Z</time></trkpt><trkpt lat="42.2112409" lon="14.5551371"><ele>65.0</ele><time>2026-04-26T08:47:07.198Z</time></trkpt><trkpt lat="42.2112015" lon="14.5552181"><ele>65.0</ele><time>2026-04-26T08:47:08.196Z</time></trkpt><trkpt lat="42.2111639" lon="14.5552952"><ele>65.0</ele><time>2026-04-26T08:47:09.21Z</time></trkpt><trkpt lat="42.2111264" lon="14.5553682"><ele>65.0</ele><time>2026-04-26T08:47:10.205Z</time></trkpt><trkpt lat="42.2111163" lon="14.5554721"><ele>65.0</ele><time>2026-04-26T08:47:11.215Z</time></trkpt><trkpt lat="42.2111275" lon="14.5556013"><ele>65.0</ele><time>2026-04-26T08:47:12.191Z</time></trkpt><trkpt lat="42.2111339" lon="14.5557206"><ele>64.5</ele><time>2026-04-26T08:47:13.179Z</time></trkpt><trkpt lat="42.2111396" lon="14.5558219"><ele>64.0</ele><time>2026-04-26T08:47:14.177Z</time></trkpt><trkpt lat="42.211157" lon="14.5559051"><ele>63.5</ele><time>2026-04-26T08:47:15.179Z</time></trkpt><trkpt lat="42.2112285" lon="14.5560116"><ele>63.0</ele><time>2026-04-26T08:47:17.221Z</time></trkpt><trkpt lat="42.2113124" lon="14.5560662"><ele>62.50000000000001</ele><time>2026-04-26T08:47:19.23Z</time></trkpt><trkpt lat="42.2113846" lon="14.5561364"><ele>62.0</ele><time>2026-04-26T08:47:21.174Z</time></trkpt><trkpt lat="42.211454" lon="14.5561839"><ele>61.833333333333336</ele><time>2026-04-26T08:47:23.185Z</time></trkpt><trkpt lat="42.211492" lon="14.5562529"><ele>61.66666666666667</ele><time>2026-04-26T08:47:25.183Z</time></trkpt><trkpt lat="42.2115466" lon="14.5563121"><ele>61.5</ele><time>2026-04-26T08:47:27.18Z</time></trkpt><trkpt lat="42.2116004" lon="14.5563653"><ele>61.33333333333333</ele><time>2026-04-26T08:47:29.181Z</time></trkpt><trkpt lat="42.211599" lon="14.5565027"><ele>61.166666666666664</ele><time>2026-04-26T08:47:31.202Z</time></trkpt><trkpt lat="42.2115519" lon="14.5566076"><ele>61.0</ele><time>2026-04-26T08:47:33.197Z</time></trkpt><trkpt lat="42.2114814" lon="14.5567244"><ele>60.99999999999999</ele><time>2026-04-26T08:47:35.204Z</time></trkpt><trkpt lat="42.2114147" lon="14.5567829"><ele>61.0</ele><time>2026-04-26T08:47:36.219Z</time></trkpt><trkpt lat="42.2113351" lon="14.5568386"><ele>61.0</ele><time>2026-04-26T08:47:37.245Z</time></trkpt><trkpt lat="42.2112534" lon="14.5568909"><ele>61.0</ele><time>2026-04-26T08:47:38.178Z</time></trkpt><trkpt lat="42.2111743" lon="14.5569441"><ele>60.99999999999999</ele><time>2026-04-26T08:47:39.182Z</time></trkpt><trkpt lat="42.2111178" lon="14.5569892"><ele>61.0</ele><time>2026-04-26T08:47:40.199Z</time></trkpt><trkpt lat="42.2110565" lon="14.557047"><ele>62.99999999999999</ele><time>2026-04-26T08:47:42.179Z</time></trkpt><trkpt lat="42.2111243" lon="14.5570591"><ele>65.0</ele><time>2026-04-26T08:47:44.208Z</time></trkpt><trkpt lat="42.2111899" lon="14.5570438"><ele>67.0</ele><time>2026-04-26T08:47:45.186Z</time></trkpt><trkpt lat="42.2112574" lon="14.5570724"><ele>69.0</ele><time>2026-04-26T08:47:47.212Z</time></trkpt><trkpt lat="42.2112436" lon="14.557187"><ele>71.0</ele><time>2026-04-26T08:47:49.197Z</time></trkpt><trkpt lat="42.2111617" lon="14.5572933"><ele>73.0</ele><time>2026-04-26T08:47:50.246Z</time></trkpt><trkpt lat="42.2110622" lon="14.5574039"><ele>73.0</ele><time>2026-04-26T08:47:51.21Z</time></trkpt><trkpt lat="42.2109674" lon="14.5574987"><ele>73.0</ele><time>2026-04-26T08:47:52.172Z</time></trkpt><trkpt lat="42.2108841" lon="14.5575733"><ele>73.0</ele><time>2026-04-26T08:47:53.178Z</time></trkpt><trkpt lat="42.2108374" lon="14.5576424"><ele>73.0</ele><time>2026-04-26T08:47:54.235Z</time></trkpt><trkpt lat="42.2107879" lon="14.5577164"><ele>73.0</ele><time>2026-04-26T08:47:55.211Z</time></trkpt><trkpt lat="42.2107438" lon="14.5578077"><ele>73.0</ele><time>2026-04-26T08:47:56.199Z</time></trkpt><trkpt lat="42.2106987" lon="14.5579075"><ele>74.5</ele><time>2026-04-26T08:47:57.215Z</time></trkpt><trkpt lat="42.2106557" lon="14.5580013"><ele>76.0</ele><time>2026-04-26T08:47:58.181Z</time></trkpt><trkpt lat="42.2106205" lon="14.5580763"><ele>77.5</ele><time>2026-04-26T08:48:00.175Z</time></trkpt><trkpt lat="42.210678" lon="14.5581493"><ele>79.0</ele><time>2026-04-26T08:48:03.221Z</time></trkpt><trkpt lat="42.2107418" lon="14.5581181"><ele>80.5</ele><time>2026-04-26T08:48:04.222Z</time></trkpt><trkpt lat="42.2108757" lon="14.5580851"><ele>82.0</ele><time>2026-04-26T08:48:06.185Z</time></trkpt><trkpt lat="42.210973" lon="14.5580819"><ele>82.0</ele><time>2026-04-26T08:48:07.224Z</time></trkpt><trkpt lat="42.2110979" lon="14.5580478"><ele>82.0</ele><time>2026-04-26T08:48:08.237Z</time></trkpt><trkpt lat="42.2112178" lon="14.5580139"><ele>82.0</ele><time>2026-04-26T08:48:09.227Z</time></trkpt><trkpt lat="42.2113101" lon="14.5579928"><ele>82.0</ele><time>2026-04-26T08:48:10.226Z</time></trkpt><trkpt lat="42.2113863" lon="14.5579792"><ele>82.0</ele><time>2026-04-26T08:48:11.248Z</time></trkpt><trkpt lat="42.2114694" lon="14.557967"><ele>84.0</ele><time>2026-04-26T08:48:12.205Z</time></trkpt><trkpt lat="42.2115522" lon="14.5579518"><ele>86.0</ele><time>2026-04-26T08:48:13.175Z</time></trkpt><trkpt lat="42.2116351" lon="14.5579318"><ele>88.0</ele><time>2026-04-26T08:48:14.174Z</time></trkpt><trkpt lat="42.2117309" lon="14.5579209"><ele>90.0</ele><time>2026-04-26T08:48:15.182Z</time></trkpt><trkpt lat="42.2118293" lon="14.5579124"><ele>92.0</ele><time>2026-04-26T08:48:16.174Z</time></trkpt><trkpt lat="42.2119238" lon="14.5579059"><ele>92.0</ele><time>2026-04-26T08:48:17.214Z</time></trkpt><trkpt lat="42.2120236" lon="14.5578951"><ele>92.0</ele><time>2026-04-26T08:48:18.185Z</time></trkpt><trkpt lat="42.2121072" lon="14.5578679"><ele>92.0</ele><time>2026-04-26T08:48:19.212Z</time></trkpt><trkpt lat="42.2121816" lon="14.5578479"><ele>92.0</ele><time>2026-04-26T08:48:20.232Z</time></trkpt><trkpt lat="42.2122829" lon="14.5578418"><ele>92.0</ele><time>2026-04-26T08:48:22.189Z</time></trkpt><trkpt lat="42.2123368" lon="14.5579363"><ele>92.0</ele><time>2026-04-26T08:48:25.208Z</time></trkpt><trkpt lat="42.2122911" lon="14.5580718"><ele>92.0</ele><time>2026-04-26T08:48:27.212Z</time></trkpt><trkpt lat="42.2122491" lon="14.5581814"><ele>92.0</ele><time>2026-04-26T08:48:29.208Z</time></trkpt><trkpt lat="42.2121931" lon="14.5583199"><ele>92.0</ele><time>2026-04-26T08:48:30.213Z</time></trkpt><trkpt lat="42.2121239" lon="14.5584733"><ele>92.0</ele><time>2026-04-26T08:48:31.213Z</time></trkpt><trkpt lat="42.2120635" lon="14.5586057"><ele>92.0</ele><time>2026-04-26T08:48:32.186Z</time></trkpt><trkpt lat="42.2120088" lon="14.5587473"><ele>92.0</ele><time>2026-04-26T08:48:33.244Z</time></trkpt><trkpt lat="42.2119666" lon="14.5589268"><ele>92.0</ele><time>2026-04-26T08:48:34.186Z</time></trkpt><trkpt lat="42.2119385" lon="14.5591251"><ele>92.0</ele><time>2026-04-26T08:48:35.239Z</time></trkpt><trkpt lat="42.2119128" lon="14.5593343"><ele>92.0</ele><time>2026-04-26T08:48:36.194Z</time></trkpt><trkpt lat="42.2118887" lon="14.5595281"><ele>92.0</ele><time>2026-04-26T08:48:37.18Z</time></trkpt><trkpt lat="42.2118691" lon="14.5597055"><ele>92.0</ele><time>2026-04-26T08:48:38.191Z</time></trkpt><trkpt lat="42.2118547" lon="14.5598736"><ele>91.8</ele><time>2026-04-26T08:48:39.217Z</time></trkpt><trkpt lat="42.211839" lon="14.5600432"><ele>91.6</ele><time>2026-04-26T08:48:40.233Z</time></trkpt><trkpt lat="42.211809" lon="14.5601945"><ele>91.39999999999999</ele><time>2026-04-26T08:48:41.227Z</time></trkpt><trkpt lat="42.211766" lon="14.5603214"><ele>91.19999999999999</ele><time>2026-04-26T08:48:42.228Z</time></trkpt><trkpt lat="42.2117189" lon="14.5604364"><ele>91.0</ele><time>2026-04-26T08:48:43.18Z</time></trkpt><trkpt lat="42.2116734" lon="14.5605248"><ele>91.0</ele><time>2026-04-26T08:48:44.196Z</time></trkpt><trkpt lat="42.2116201" lon="14.5606151"><ele>91.0</ele><time>2026-04-26T08:48:46.198Z</time></trkpt><trkpt lat="42.2116424" lon="14.5607053"><ele>91.0</ele><time>2026-04-26T08:48:49.181Z</time></trkpt><trkpt lat="42.2117397" lon="14.560797"><ele>91.0</ele><time>2026-04-26T08:48:51.233Z</time></trkpt><trkpt lat="42.2118438" lon="14.5608811"><ele>91.0</ele><time>2026-04-26T08:48:52.197Z</time></trkpt><trkpt lat="42.2119675" lon="14.5609813"><ele>91.0</ele><time>2026-04-26T08:48:53.215Z</time></trkpt><trkpt lat="42.2120888" lon="14.561088"><ele>91.0</ele><time>2026-04-26T08:48:54.216Z</time></trkpt><trkpt lat="42.212198" lon="14.5611763"><ele>91.0</ele><time>2026-04-26T08:48:55.201Z</time></trkpt><trkpt lat="42.2123134" lon="14.5612698"><ele>91.0</ele><time>2026-04-26T08:48:56.176Z</time></trkpt><trkpt lat="42.2124335" lon="14.5613721"><ele>91.5</ele><time>2026-04-26T08:48:57.178Z</time></trkpt><trkpt lat="42.2125571" lon="14.5614712"><ele>92.0</ele><time>2026-04-26T08:48:58.189Z</time></trkpt><trkpt lat="42.2126771" lon="14.5615697"><ele>92.5</ele><time>2026-04-26T08:48:59.222Z</time></trkpt><trkpt lat="42.212802" lon="14.5616684"><ele>93.0</ele><time>2026-04-26T08:49:00.242Z</time></trkpt><trkpt lat="42.2129182" lon="14.5617626"><ele>93.0</ele><time>2026-04-26T08:49:01.219Z</time></trkpt><trkpt lat="42.21303" lon="14.561852"><ele>93.0</ele><time>2026-04-26T08:49:02.188Z</time></trkpt><trkpt lat="42.2131278" lon="14.5619379"><ele>93.0</ele><time>2026-04-26T08:49:03.196Z</time></trkpt><trkpt lat="42.2132119" lon="14.5620049"><ele>93.0</ele><time>2026-04-26T08:49:04.216Z</time></trkpt><trkpt lat="42.2132842" lon="14.562062"><ele>93.0</ele><time>2026-04-26T08:49:05.225Z</time></trkpt><trkpt lat="42.2133399" lon="14.5621069"><ele>92.4</ele><time>2026-04-26T08:49:06.205Z</time></trkpt><trkpt lat="42.2133989" lon="14.5621529"><ele>91.80000000000001</ele><time>2026-04-26T08:49:08.215Z</time></trkpt><trkpt lat="42.2134884" lon="14.5620961"><ele>91.2</ele><time>2026-04-26T08:49:11.182Z</time></trkpt><trkpt lat="42.2135397" lon="14.5619826"><ele>90.6</ele><time>2026-04-26T08:49:12.21Z</time></trkpt><trkpt lat="42.2136104" lon="14.5618238"><ele>90.0</ele><time>2026-04-26T08:49:13.22Z</time></trkpt><trkpt lat="42.2136952" lon="14.5616181"><ele>90.0</ele><time>2026-04-26T08:49:14.185Z</time></trkpt><trkpt lat="42.2137773" lon="14.5613933"><ele>90.0</ele><time>2026-04-26T08:49:15.184Z</time></trkpt><trkpt lat="42.2138426" lon="14.5612004"><ele>90.0</ele><time>2026-04-26T08:49:16.214Z</time></trkpt><trkpt lat="42.2138903" lon="14.561034"><ele>90.25</ele><time>2026-04-26T08:49:17.188Z</time></trkpt><trkpt lat="42.2139476" lon="14.5608732"><ele>90.5</ele><time>2026-04-26T08:49:18.207Z</time></trkpt><trkpt lat="42.2140118" lon="14.5607212"><ele>90.75</ele><time>2026-04-26T08:49:19.224Z</time></trkpt><trkpt lat="42.2140747" lon="14.560578"><ele>91.0</ele><time>2026-04-26T08:49:20.238Z</time></trkpt><trkpt lat="42.2141364" lon="14.5604439"><ele>90.6</ele><time>2026-04-26T08:49:21.239Z</time></trkpt><trkpt lat="42.2142081" lon="14.5603262"><ele>90.19999999999999</ele><time>2026-04-26T08:49:22.222Z</time></trkpt><trkpt lat="42.2142964" lon="14.5602037"><ele>89.80000000000001</ele><time>2026-04-26T08:49:23.206Z</time></trkpt><trkpt lat="42.2143759" lon="14.5601021"><ele>89.4</ele><time>2026-04-26T08:49:24.229Z</time></trkpt><trkpt lat="42.2144477" lon="14.5600242"><ele>89.0</ele><time>2026-04-26T08:49:25.244Z</time></trkpt><trkpt lat="42.2145254" lon="14.5599853"><ele>89.0</ele><time>2026-04-26T08:49:26.195Z</time></trkpt><trkpt lat="42.2146054" lon="14.5599757"><ele>89.0</ele><time>2026-04-26T08:49:27.262Z</time></trkpt><trkpt lat="42.2146844" lon="14.5600308"><ele>89.0</ele><time>2026-04-26T08:49:28.181Z</time></trkpt><trkpt lat="42.2147674" lon="14.5601212"><ele>89.0</ele><time>2026-04-26T08:49:29.24Z</time></trkpt><trkpt lat="42.2148555" lon="14.5602239"><ele>89.0</ele><time>2026-04-26T08:49:30.239Z</time></trkpt><trkpt lat="42.2149348" lon="14.5603032"><ele>89.4</ele><time>2026-04-26T08:49:31.244Z</time></trkpt><trkpt lat="42.2150143" lon="14.560342"><ele>89.80000000000001</ele><time>2026-04-26T08:49:32.193Z</time></trkpt><trkpt lat="42.2150974" lon="14.5603436"><ele>90.19999999999999</ele><time>2026-04-26T08:49:33.188Z</time></trkpt><trkpt lat="42.2151765" lon="14.5602934"><ele>90.6</ele><time>2026-04-26T08:49:34.23Z</time></trkpt><trkpt lat="42.2152682" lon="14.5601847"><ele>91.0</ele><time>2026-04-26T08:49:35.236Z</time></trkpt><trkpt lat="42.2153722" lon="14.5600307"><ele>91.0</ele><time>2026-04-26T08:49:36.239Z</time></trkpt><trkpt lat="42.2154877" lon="14.5598439"><ele>91.0</ele><time>2026-04-26T08:49:37.227Z</time></trkpt><trkpt lat="42.2156132" lon="14.55965"><ele>91.0</ele><time>2026-04-26T08:49:38.246Z</time></trkpt><trkpt lat="42.2157303" lon="14.5594766"><ele>91.75</ele><time>2026-04-26T08:49:39.24Z</time></trkpt><trkpt lat="42.2158331" lon="14.5593265"><ele>92.5</ele><time>2026-04-26T08:49:40.179Z</time></trkpt><trkpt lat="42.2159195" lon="14.5591957"><ele>93.25</ele><time>2026-04-26T08:49:41.185Z</time></trkpt><trkpt lat="42.2159936" lon="14.5590788"><ele>94.0</ele><time>2026-04-26T08:49:42.178Z</time></trkpt><trkpt lat="42.216048" lon="14.5589869"><ele>94.0</ele><time>2026-04-26T08:49:43.179Z</time></trkpt><trkpt lat="42.2161036" lon="14.5589147"><ele>94.0</ele><time>2026-04-26T08:49:45.241Z</time></trkpt><trkpt lat="42.2161668" lon="14.5589019"><ele>94.0</ele><time>2026-04-26T08:49:48.196Z</time></trkpt><trkpt lat="42.2162588" lon="14.5590365"><ele>94.0</ele><time>2026-04-26T08:49:50.233Z</time></trkpt><trkpt lat="42.2163431" lon="14.5591118"><ele>94.0</ele><time>2026-04-26T08:49:51.234Z</time></trkpt><trkpt lat="42.2164562" lon="14.5592087"><ele>94.0</ele><time>2026-04-26T08:49:52.234Z</time></trkpt><trkpt lat="42.2165674" lon="14.559321"><ele>94.0</ele><time>2026-04-26T08:49:53.187Z</time></trkpt><trkpt lat="42.2166508" lon="14.5594193"><ele>94.0</ele><time>2026-04-26T08:49:54.179Z</time></trkpt><trkpt lat="42.2167294" lon="14.5594858"><ele>94.0</ele><time>2026-04-26T08:49:55.179Z</time></trkpt><trkpt lat="42.2168161" lon="14.5595608"><ele>94.0</ele><time>2026-04-26T08:49:56.219Z</time></trkpt><trkpt lat="42.2168977" lon="14.5596372"><ele>94.0</ele><time>2026-04-26T08:49:57.221Z</time></trkpt><trkpt lat="42.2169565" lon="14.5596981"><ele>94.0</ele><time>2026-04-26T08:49:58.18Z</time></trkpt><trkpt lat="42.2170522" lon="14.5597862"><ele>94.0</ele><time>2026-04-26T08:50:00.196Z</time></trkpt><trkpt lat="42.2171396" lon="14.5598763"><ele>94.0</ele><time>2026-04-26T08:50:02.179Z</time></trkpt><trkpt lat="42.2172017" lon="14.559856"><ele>94.0</ele><time>2026-04-26T08:50:04.217Z</time></trkpt><trkpt lat="42.2172772" lon="14.5597185"><ele>94.0</ele><time>2026-04-26T08:50:06.236Z</time></trkpt><trkpt lat="42.2173144" lon="14.5596296"><ele>94.0</ele><time>2026-04-26T08:50:07.222Z</time></trkpt><trkpt lat="42.2173541" lon="14.5595296"><ele>94.0</ele><time>2026-04-26T08:50:08.184Z</time></trkpt><trkpt lat="42.2173834" lon="14.5594288"><ele>94.0</ele><time>2026-04-26T08:50:09.185Z</time></trkpt><trkpt lat="42.2174112" lon="14.5593483"><ele>94.0</ele><time>2026-04-26T08:50:10.233Z</time></trkpt><trkpt lat="42.217516" lon="14.5592621"><ele>94.0</ele><time>2026-04-26T08:50:12.237Z</time></trkpt><trkpt lat="42.2175891" lon="14.5592085"><ele>93.6</ele><time>2026-04-26T08:50:14.208Z</time></trkpt><trkpt lat="42.2176119" lon="14.5590611"><ele>93.2</ele><time>2026-04-26T08:50:16.187Z</time></trkpt><trkpt lat="42.2176153" lon="14.5588882"><ele>92.8</ele><time>2026-04-26T08:50:18.196Z</time></trkpt><trkpt lat="42.2176168" lon="14.5587884"><ele>92.39999999999999</ele><time>2026-04-26T08:50:19.207Z</time></trkpt><trkpt lat="42.2176294" lon="14.558705"><ele>92.0</ele><time>2026-04-26T08:50:20.211Z</time></trkpt><trkpt lat="42.2176637" lon="14.5585868"><ele>92.0</ele><time>2026-04-26T08:50:22.228Z</time></trkpt><trkpt lat="42.2177111" lon="14.5584827"><ele>92.0</ele><time>2026-04-26T08:50:24.226Z</time></trkpt><trkpt lat="42.2177672" lon="14.5583821"><ele>92.0</ele><time>2026-04-26T08:50:26.244Z</time></trkpt><trkpt lat="42.2177878" lon="14.558287"><ele>92.0</ele><time>2026-04-26T08:50:27.234Z</time></trkpt><trkpt lat="42.2178091" lon="14.5581251"><ele>92.0</ele><time>2026-04-26T08:50:28.217Z</time></trkpt><trkpt lat="42.217827" lon="14.5579721"><ele>92.0</ele><time>2026-04-26T08:50:29.226Z</time></trkpt><trkpt lat="42.2178262" lon="14.5578639"><ele>92.0</ele><time>2026-04-26T08:50:30.193Z</time></trkpt><trkpt lat="42.2178528" lon="14.5577738"><ele>92.0</ele><time>2026-04-26T08:50:32.228Z</time></trkpt><trkpt lat="42.2179222" lon="14.5578074"><ele>92.0</ele><time>2026-04-26T08:50:34.214Z</time></trkpt><trkpt lat="42.2180338" lon="14.5579519"><ele>92.0</ele><time>2026-04-26T08:50:36.2Z</time></trkpt><trkpt lat="42.2181124" lon="14.5580481"><ele>92.39999999999999</ele><time>2026-04-26T08:50:37.232Z</time></trkpt><trkpt lat="42.2182084" lon="14.5581276"><ele>92.8</ele><time>2026-04-26T08:50:38.248Z</time></trkpt><trkpt lat="42.2183007" lon="14.5581918"><ele>93.2</ele><time>2026-04-26T08:50:39.215Z</time></trkpt><trkpt lat="42.2184007" lon="14.5582607"><ele>93.6</ele><time>2026-04-26T08:50:40.18Z</time></trkpt><trkpt lat="42.2184982" lon="14.5583399"><ele>94.0</ele><time>2026-04-26T08:50:41.178Z</time></trkpt><trkpt lat="42.2185832" lon="14.5584182"><ele>94.0</ele><time>2026-04-26T08:50:42.177Z</time></trkpt><trkpt lat="42.2186635" lon="14.5584974"><ele>94.0</ele><time>2026-04-26T08:50:43.22Z</time></trkpt><trkpt lat="42.218747" lon="14.5585803"><ele>94.0</ele><time>2026-04-26T08:50:44.21Z</time></trkpt><trkpt lat="42.2188402" lon="14.5586601"><ele>94.0</ele><time>2026-04-26T08:50:45.201Z</time></trkpt><trkpt lat="42.2189232" lon="14.5587344"><ele>94.0</ele><time>2026-04-26T08:50:46.211Z</time></trkpt><trkpt lat="42.2189976" lon="14.5588016"><ele>94.75</ele><time>2026-04-26T08:50:47.193Z</time></trkpt><trkpt lat="42.2190889" lon="14.5588731"><ele>95.5</ele><time>2026-04-26T08:50:48.186Z</time></trkpt><trkpt lat="42.2191913" lon="14.558959"><ele>96.25</ele><time>2026-04-26T08:50:49.197Z</time></trkpt><trkpt lat="42.2192937" lon="14.5590341"><ele>97.0</ele><time>2026-04-26T08:50:50.206Z</time></trkpt><trkpt lat="42.2193891" lon="14.5591086"><ele>97.00000000000001</ele><time>2026-04-26T08:50:51.221Z</time></trkpt><trkpt lat="42.219473" lon="14.5591813"><ele>97.0</ele><time>2026-04-26T08:50:52.237Z</time></trkpt><trkpt lat="42.2195513" lon="14.5592432"><ele>97.0</ele><time>2026-04-26T08:50:53.245Z</time></trkpt><trkpt lat="42.219611" lon="14.5592983"><ele>97.0</ele><time>2026-04-26T08:50:54.183Z</time></trkpt><trkpt lat="42.2196605" lon="14.5594214"><ele>97.00000000000001</ele><time>2026-04-26T08:50:56.201Z</time></trkpt><trkpt lat="42.2196366" lon="14.5595018"><ele>97.0</ele><time>2026-04-26T08:50:57.19Z</time></trkpt><trkpt lat="42.219576" lon="14.5595918"><ele>96.5</ele><time>2026-04-26T08:50:58.191Z</time></trkpt><trkpt lat="42.219487" lon="14.5596955"><ele>96.0</ele><time>2026-04-26T08:50:59.215Z</time></trkpt><trkpt lat="42.2194071" lon="14.5598197"><ele>95.5</ele><time>2026-04-26T08:51:00.252Z</time></trkpt><trkpt lat="42.2193411" lon="14.5599503"><ele>95.0</ele><time>2026-04-26T08:51:01.22Z</time></trkpt><trkpt lat="42.2192841" lon="14.5600944"><ele>95.0</ele><time>2026-04-26T08:51:02.224Z</time></trkpt><trkpt lat="42.2192411" lon="14.5602395"><ele>95.0</ele><time>2026-04-26T08:51:03.198Z</time></trkpt><trkpt lat="42.2192032" lon="14.5603695"><ele>95.0</ele><time>2026-04-26T08:51:04.218Z</time></trkpt><trkpt lat="42.2191706" lon="14.5604997"><ele>95.0</ele><time>2026-04-26T08:51:05.245Z</time></trkpt><trkpt lat="42.2191358" lon="14.5606185"><ele>95.0</ele><time>2026-04-26T08:51:06.229Z</time></trkpt><trkpt lat="42.2191025" lon="14.5607254"><ele>93.66666666666667</ele><time>2026-04-26T08:51:07.232Z</time></trkpt><trkpt lat="42.2190796" lon="14.5608315"><ele>92.33333333333334</ele><time>2026-04-26T08:51:08.216Z</time></trkpt><trkpt lat="42.2190617" lon="14.5609322"><ele>91.0</ele><time>2026-04-26T08:51:09.213Z</time></trkpt><trkpt lat="42.2190573" lon="14.5610288"><ele>89.66666666666667</ele><time>2026-04-26T08:51:10.249Z</time></trkpt><trkpt lat="42.2190413" lon="14.5611476"><ele>88.33333333333333</ele><time>2026-04-26T08:51:11.218Z</time></trkpt><trkpt lat="42.2190266" lon="14.5612785"><ele>87.0</ele><time>2026-04-26T08:51:12.196Z</time></trkpt><trkpt lat="42.2190183" lon="14.5614287"><ele>85.8</ele><time>2026-04-26T08:51:13.22Z</time></trkpt><trkpt lat="42.2190056" lon="14.5615779"><ele>84.6</ele><time>2026-04-26T08:51:14.237Z</time></trkpt><trkpt lat="42.2189937" lon="14.5617174"><ele>83.39999999999999</ele><time>2026-04-26T08:51:15.182Z</time></trkpt><trkpt lat="42.2189879" lon="14.5618321"><ele>82.19999999999999</ele><time>2026-04-26T08:51:16.227Z</time></trkpt><trkpt lat="42.2189877" lon="14.5619377"><ele>81.0</ele><time>2026-04-26T08:51:17.214Z</time></trkpt><trkpt lat="42.2190016" lon="14.5620644"><ele>80.0</ele><time>2026-04-26T08:51:19.223Z</time></trkpt><trkpt lat="42.219058" lon="14.5621119"><ele>79.0</ele><time>2026-04-26T08:51:21.198Z</time></trkpt><trkpt lat="42.2191235" lon="14.5620821"><ele>78.0</ele><time>2026-04-26T08:51:24.226Z</time></trkpt><trkpt lat="42.219132" lon="14.5621728"><ele>77.0</ele><time>2026-04-26T08:51:27.202Z</time></trkpt><trkpt lat="42.2190914" lon="14.5622873"><ele>76.0</ele><time>2026-04-26T08:51:29.218Z</time></trkpt><trkpt lat="42.2190855" lon="14.5624384"><ele>75.0</ele><time>2026-04-26T08:51:31.225Z</time></trkpt><trkpt lat="42.219075" lon="14.5625242"><ele>75.0</ele><time>2026-04-26T08:51:33.219Z</time></trkpt><trkpt lat="42.2190579" lon="14.562629"><ele>75.0</ele><time>2026-04-26T08:51:37.233Z</time></trkpt><trkpt lat="42.2190255" lon="14.5627487"><ele>75.0</ele><time>2026-04-26T08:51:40.223Z</time></trkpt><trkpt lat="42.2189917" lon="14.5628782"><ele>75.0</ele><time>2026-04-26T08:51:42.197Z</time></trkpt><trkpt lat="42.2189503" lon="14.5630413"><ele>75.0</ele><time>2026-04-26T08:51:44.195Z</time></trkpt><trkpt lat="42.2189309" lon="14.5631226"><ele>76.83333333333333</ele><time>2026-04-26T08:51:45.236Z</time></trkpt><trkpt lat="42.2189116" lon="14.5632127"><ele>78.66666666666667</ele><time>2026-04-26T08:51:46.225Z</time></trkpt><trkpt lat="42.218886" lon="14.563321"><ele>80.5</ele><time>2026-04-26T08:51:47.218Z</time></trkpt><trkpt lat="42.2188594" lon="14.5634372"><ele>82.33333333333334</ele><time>2026-04-26T08:51:48.199Z</time></trkpt><trkpt lat="42.2188324" lon="14.5635233"><ele>84.16666666666667</ele><time>2026-04-26T08:51:49.221Z</time></trkpt><trkpt lat="42.2188199" lon="14.5636946"><ele>86.0</ele><time>2026-04-26T08:51:51.188Z</time></trkpt><trkpt lat="42.2188461" lon="14.5637952"><ele>86.0</ele><time>2026-04-26T08:51:52.193Z</time></trkpt><trkpt lat="42.2188759" lon="14.5638934"><ele>86.0</ele><time>2026-04-26T08:51:53.178Z</time></trkpt><trkpt lat="42.2189041" lon="14.5639755"><ele>86.0</ele><time>2026-04-26T08:51:54.19Z</time></trkpt><trkpt lat="42.2189264" lon="14.5640833"><ele>86.0</ele><time>2026-04-26T08:51:56.21Z</time></trkpt><trkpt lat="42.2189163" lon="14.5642297"><ele>86.0</ele><time>2026-04-26T08:51:58.19Z</time></trkpt><trkpt lat="42.2189069" lon="14.5643183"><ele>86.0</ele><time>2026-04-26T08:51:59.186Z</time></trkpt><trkpt lat="42.2188919" lon="14.5644086"><ele>86.0</ele><time>2026-04-26T08:52:00.165Z</time></trkpt><trkpt lat="42.2188803" lon="14.5644983"><ele>86.0</ele><time>2026-04-26T08:52:01.175Z</time></trkpt><trkpt lat="42.2188692" lon="14.5645954"><ele>86.0</ele><time>2026-04-26T08:52:02.174Z</time></trkpt><trkpt lat="42.2188505" lon="14.5646991"><ele>86.0</ele><time>2026-04-26T08:52:03.194Z</time></trkpt><trkpt lat="42.2187976" lon="14.5648006"><ele>86.0</ele><time>2026-04-26T08:52:04.171Z</time></trkpt><trkpt lat="42.2187571" lon="14.5648992"><ele>86.0</ele><time>2026-04-26T08:52:05.174Z</time></trkpt><trkpt lat="42.2187085" lon="14.564982"><ele>85.28571428571429</ele><time>2026-04-26T08:52:06.172Z</time></trkpt><trkpt lat="42.2186798" lon="14.5650734"><ele>84.57142857142857</ele><time>2026-04-26T08:52:07.202Z</time></trkpt><trkpt lat="42.2186523" lon="14.5651591"><ele>83.85714285714286</ele><time>2026-04-26T08:52:08.194Z</time></trkpt><trkpt lat="42.2186313" lon="14.5652528"><ele>83.14285714285714</ele><time>2026-04-26T08:52:09.214Z</time></trkpt><trkpt lat="42.2186252" lon="14.5653507"><ele>82.42857142857143</ele><time>2026-04-26T08:52:10.209Z</time></trkpt><trkpt lat="42.2186189" lon="14.5654364"><ele>81.71428571428572</ele><time>2026-04-26T08:52:11.196Z</time></trkpt><trkpt lat="42.2186044" lon="14.5655197"><ele>81.0</ele><time>2026-04-26T08:52:12.22Z</time></trkpt><trkpt lat="42.2185849" lon="14.5656179"><ele>80.0</ele><time>2026-04-26T08:52:13.247Z</time></trkpt><trkpt lat="42.2185879" lon="14.5657197"><ele>79.0</ele><time>2026-04-26T08:52:14.169Z</time></trkpt><trkpt lat="42.2185963" lon="14.5658189"><ele>78.0</ele><time>2026-04-26T08:52:15.174Z</time></trkpt><trkpt lat="42.2185985" lon="14.5659353"><ele>77.0</ele><time>2026-04-26T08:52:16.173Z</time></trkpt><trkpt lat="42.2185746" lon="14.5660821"><ele>76.0</ele><time>2026-04-26T08:52:17.212Z</time></trkpt><trkpt lat="42.2185483" lon="14.5661912"><ele>75.0</ele><time>2026-04-26T08:52:18.199Z</time></trkpt><trkpt lat="42.2185097" lon="14.5662879"><ele>74.0</ele><time>2026-04-26T08:52:19.189Z</time></trkpt><trkpt lat="42.2184872" lon="14.566418"><ele>73.0</ele><time>2026-04-26T08:52:20.205Z</time></trkpt><trkpt lat="42.2184751" lon="14.5665395"><ele>72.0</ele><time>2026-04-26T08:52:21.205Z</time></trkpt><trkpt lat="42.2184428" lon="14.5666395"><ele>71.0</ele><time>2026-04-26T08:52:22.206Z</time></trkpt><trkpt lat="42.2184045" lon="14.5667208"><ele>70.0</ele><time>2026-04-26T08:52:23.219Z</time></trkpt><trkpt lat="42.2183801" lon="14.5668244"><ele>69.0</ele><time>2026-04-26T08:52:24.205Z</time></trkpt><trkpt lat="42.2183556" lon="14.5669437"><ele>66.0</ele><time>2026-04-26T08:52:25.22Z</time></trkpt><trkpt lat="42.2183396" lon="14.5670864"><ele>63.0</ele><time>2026-04-26T08:52:26.207Z</time></trkpt><trkpt lat="42.2183167" lon="14.5672291"><ele>60.0</ele><time>2026-04-26T08:52:27.218Z</time></trkpt><trkpt lat="42.2182812" lon="14.5673652"><ele>57.0</ele><time>2026-04-26T08:52:28.211Z</time></trkpt><trkpt lat="42.2182336" lon="14.5675312"><ele>57.0</ele><time>2026-04-26T08:52:29.229Z</time></trkpt><trkpt lat="42.2181875" lon="14.5677125"><ele>57.0</ele><time>2026-04-26T08:52:30.217Z</time></trkpt><trkpt lat="42.2181519" lon="14.5678732"><ele>57.0</ele><time>2026-04-26T08:52:31.215Z</time></trkpt><trkpt lat="42.2181245" lon="14.568032"><ele>57.0</ele><time>2026-04-26T08:52:32.212Z</time></trkpt><trkpt lat="42.2180911" lon="14.5681852"><ele>57.8</ele><time>2026-04-26T08:52:33.219Z</time></trkpt><trkpt lat="42.218076" lon="14.5683222"><ele>58.6</ele><time>2026-04-26T08:52:34.231Z</time></trkpt><trkpt lat="42.2180494" lon="14.5684349"><ele>59.39999999999999</ele><time>2026-04-26T08:52:35.223Z</time></trkpt><trkpt lat="42.2180065" lon="14.5685402"><ele>60.199999999999996</ele><time>2026-04-26T08:52:36.208Z</time></trkpt><trkpt lat="42.2179536" lon="14.5686473"><ele>61.0</ele><time>2026-04-26T08:52:37.175Z</time></trkpt><trkpt lat="42.217901" lon="14.5687567"><ele>61.0</ele><time>2026-04-26T08:52:38.186Z</time></trkpt><trkpt lat="42.2178417" lon="14.5688379"><ele>60.99999999999999</ele><time>2026-04-26T08:52:39.202Z</time></trkpt><trkpt lat="42.2177935" lon="14.5689192"><ele>60.99999999999999</ele><time>2026-04-26T08:52:40.219Z</time></trkpt><trkpt lat="42.2176991" lon="14.5690576"><ele>61.0</ele><time>2026-04-26T08:52:42.174Z</time></trkpt><trkpt lat="42.217655" lon="14.5691511"><ele>61.0</ele><time>2026-04-26T08:52:43.173Z</time></trkpt><trkpt lat="42.2176005" lon="14.5692497"><ele>61.0</ele><time>2026-04-26T08:52:44.218Z</time></trkpt><trkpt lat="42.2175312" lon="14.5693579"><ele>60.99999999999999</ele><time>2026-04-26T08:52:45.175Z</time></trkpt><trkpt lat="42.2174596" lon="14.5694723"><ele>60.99999999999999</ele><time>2026-04-26T08:52:46.175Z</time></trkpt><trkpt lat="42.2174028" lon="14.5695956"><ele>61.0</ele><time>2026-04-26T08:52:47.203Z</time></trkpt><trkpt lat="42.2173494" lon="14.5697329"><ele>61.0</ele><time>2026-04-26T08:52:48.178Z</time></trkpt><trkpt lat="42.2173009" lon="14.5698684"><ele>61.75</ele><time>2026-04-26T08:52:49.185Z</time></trkpt><trkpt lat="42.2172373" lon="14.5699977"><ele>62.5</ele><time>2026-04-26T08:52:50.213Z</time></trkpt><trkpt lat="42.2171617" lon="14.5701432"><ele>63.25</ele><time>2026-04-26T08:52:51.219Z</time></trkpt><trkpt lat="42.2170873" lon="14.5702981"><ele>64.0</ele><time>2026-04-26T08:52:52.184Z</time></trkpt><trkpt lat="42.2170051" lon="14.5704348"><ele>64.0</ele><time>2026-04-26T08:52:53.223Z</time></trkpt><trkpt lat="42.2169375" lon="14.5705673"><ele>64.0</ele><time>2026-04-26T08:52:54.229Z</time></trkpt><trkpt lat="42.2168857" lon="14.5706965"><ele>64.0</ele><time>2026-04-26T08:52:55.223Z</time></trkpt><trkpt lat="42.2168543" lon="14.5708446"><ele>64.0</ele><time>2026-04-26T08:52:56.209Z</time></trkpt><trkpt lat="42.2168114" lon="14.5710328"><ele>63.0</ele><time>2026-04-26T08:52:57.212Z</time></trkpt><trkpt lat="42.2167845" lon="14.571215"><ele>62.0</ele><time>2026-04-26T08:52:58.246Z</time></trkpt><trkpt lat="42.2167673" lon="14.5713687"><ele>61.0</ele><time>2026-04-26T08:52:59.174Z</time></trkpt><trkpt lat="42.2167421" lon="14.5715113"><ele>60.0</ele><time>2026-04-26T08:53:00.216Z</time></trkpt><trkpt lat="42.2167026" lon="14.5716461"><ele>60.0</ele><time>2026-04-26T08:53:01.194Z</time></trkpt><trkpt lat="42.216672" lon="14.5718131"><ele>60.0</ele><time>2026-04-26T08:53:02.223Z</time></trkpt><trkpt lat="42.2166816" lon="14.5719757"><ele>60.0</ele><time>2026-04-26T08:53:03.227Z</time></trkpt><trkpt lat="42.2167018" lon="14.5721242"><ele>60.0</ele><time>2026-04-26T08:53:04.247Z</time></trkpt><trkpt lat="42.216711" lon="14.572264"><ele>58.6</ele><time>2026-04-26T08:53:05.25Z</time></trkpt><trkpt lat="42.2167043" lon="14.5724065"><ele>57.2</ele><time>2026-04-26T08:53:06.227Z</time></trkpt><trkpt lat="42.2166743" lon="14.572537"><ele>55.8</ele><time>2026-04-26T08:53:07.233Z</time></trkpt><trkpt lat="42.2166352" lon="14.5726616"><ele>54.4</ele><time>2026-04-26T08:53:08.222Z</time></trkpt><trkpt lat="42.2165558" lon="14.572788"><ele>53.0</ele><time>2026-04-26T08:53:09.249Z</time></trkpt><trkpt lat="42.2164469" lon="14.5729261"><ele>57.0</ele><time>2026-04-26T08:53:10.229Z</time></trkpt><trkpt lat="42.2163543" lon="14.5730342"><ele>61.0</ele><time>2026-04-26T08:53:11.173Z</time></trkpt><trkpt lat="42.2162944" lon="14.5731131"><ele>65.0</ele><time>2026-04-26T08:53:12.175Z</time></trkpt><trkpt lat="42.2162403" lon="14.5731652"><ele>69.0</ele><time>2026-04-26T08:53:13.179Z</time></trkpt><trkpt lat="42.216158" lon="14.5732608"><ele>73.0</ele><time>2026-04-26T08:53:15.207Z</time></trkpt><trkpt lat="42.2160824" lon="14.5734078"><ele>73.0</ele><time>2026-04-26T08:53:17.224Z</time></trkpt><trkpt lat="42.2160386" lon="14.573506"><ele>73.0</ele><time>2026-04-26T08:53:18.225Z</time></trkpt><trkpt lat="42.2159874" lon="14.5736139"><ele>73.0</ele><time>2026-04-26T08:53:19.227Z</time></trkpt><trkpt lat="42.2159415" lon="14.5737088"><ele>73.0</ele><time>2026-04-26T08:53:20.191Z</time></trkpt><trkpt lat="42.2159089" lon="14.5737986"><ele>73.0</ele><time>2026-04-26T08:53:21.24Z</time></trkpt><trkpt lat="42.2158939" lon="14.5739149"><ele>73.0</ele><time>2026-04-26T08:53:22.19Z</time></trkpt><trkpt lat="42.2158924" lon="14.5740268"><ele>70.83333333333333</ele><time>2026-04-26T08:53:23.223Z</time></trkpt><trkpt lat="42.2158868" lon="14.5741132"><ele>68.66666666666666</ele><time>2026-04-26T08:53:24.193Z</time></trkpt><trkpt lat="42.2158714" lon="14.5742546"><ele>66.5</ele><time>2026-04-26T08:53:26.183Z</time></trkpt><trkpt lat="42.2158513" lon="14.5743553"><ele>64.33333333333333</ele><time>2026-04-26T08:53:28.225Z</time></trkpt><trkpt lat="42.2158311" lon="14.5744372"><ele>62.166666666666664</ele><time>2026-04-26T08:56:03.177Z</time></trkpt><trkpt lat="42.2158262" lon="14.5745381"><ele>60.0</ele><time>2026-04-26T09:05:13.231Z</time></trkpt><trkpt lat="42.2157844" lon="14.5746817"><ele>57.8</ele><time>2026-04-26T09:05:15.18Z</time></trkpt><trkpt lat="42.2157543" lon="14.5747793"><ele>55.6</ele><time>2026-04-26T09:05:16.229Z</time></trkpt><trkpt lat="42.2157252" lon="14.5748686"><ele>53.400000000000006</ele><time>2026-04-26T09:05:17.232Z</time></trkpt><trkpt lat="42.2156344" lon="14.5750089"><ele>51.2</ele><time>2026-04-26T09:05:19.178Z</time></trkpt><trkpt lat="42.2155799" lon="14.5750872"><ele>49.0</ele><time>2026-04-26T09:05:20.22Z</time></trkpt><trkpt lat="42.2155116" lon="14.5751795"><ele>50.666666666666664</ele><time>2026-04-26T09:05:21.225Z</time></trkpt><trkpt lat="42.2154464" lon="14.5752679"><ele>52.33333333333333</ele><time>2026-04-26T09:05:22.22Z</time></trkpt><trkpt lat="42.2153928" lon="14.5753337"><ele>54.0</ele><time>2026-04-26T09:05:23.228Z</time></trkpt><trkpt lat="42.215331" lon="14.5753855"><ele>55.66666666666667</ele><time>2026-04-26T09:05:24.224Z</time></trkpt><trkpt lat="42.2152633" lon="14.5754301"><ele>57.333333333333336</ele><time>2026-04-26T09:05:25.204Z</time></trkpt><trkpt lat="42.2152128" lon="14.5755016"><ele>59.0</ele><time>2026-04-26T09:05:26.249Z</time></trkpt><trkpt lat="42.2151848" lon="14.5755932"><ele>59.00000000000001</ele><time>2026-04-26T09:05:27.222Z</time></trkpt><trkpt lat="42.2151518" lon="14.575686"><ele>59.0</ele><time>2026-04-26T09:05:28.221Z</time></trkpt><trkpt lat="42.215122" lon="14.5757792"><ele>59.0</ele><time>2026-04-26T09:05:29.198Z</time></trkpt><trkpt lat="42.2150931" lon="14.5758733"><ele>59.0</ele><time>2026-04-26T09:05:30.217Z</time></trkpt><trkpt lat="42.215075" lon="14.5759797"><ele>59.00000000000001</ele><time>2026-04-26T09:05:31.215Z</time></trkpt><trkpt lat="42.2150647" lon="14.5760956"><ele>59.0</ele><time>2026-04-26T09:05:32.231Z</time></trkpt><trkpt lat="42.2150431" lon="14.5762075"><ele>57.16666666666667</ele><time>2026-04-26T09:05:33.225Z</time></trkpt><trkpt lat="42.2150029" lon="14.576324"><ele>55.333333333333336</ele><time>2026-04-26T09:05:34.222Z</time></trkpt><trkpt lat="42.2149601" lon="14.5764363"><ele>53.5</ele><time>2026-04-26T09:05:35.239Z</time></trkpt><trkpt lat="42.2149331" lon="14.5765489"><ele>51.66666666666667</ele><time>2026-04-26T09:05:36.171Z</time></trkpt><trkpt lat="42.2149211" lon="14.5766486"><ele>49.833333333333336</ele><time>2026-04-26T09:05:37.238Z</time></trkpt><trkpt lat="42.2149061" lon="14.5767442"><ele>48.0</ele><time>2026-04-26T09:05:38.231Z</time></trkpt><trkpt lat="42.2148931" lon="14.5768378"><ele>48.0</ele><time>2026-04-26T09:05:39.174Z</time></trkpt><trkpt lat="42.2148938" lon="14.5769406"><ele>48.0</ele><time>2026-04-26T09:05:40.23Z</time></trkpt><trkpt lat="42.2148872" lon="14.5770351"><ele>48.0</ele><time>2026-04-26T09:05:41.239Z</time></trkpt><trkpt lat="42.2148556" lon="14.5771209"><ele>48.0</ele><time>2026-04-26T09:05:42.257Z</time></trkpt><trkpt lat="42.2148117" lon="14.5772052"><ele>48.0</ele><time>2026-04-26T09:05:43.24Z</time></trkpt><trkpt lat="42.2147832" lon="14.5773286"><ele>48.0</ele><time>2026-04-26T09:05:44.24Z</time></trkpt><trkpt lat="42.2147745" lon="14.5774735"><ele>50.0</ele><time>2026-04-26T09:05:45.191Z</time></trkpt><trkpt lat="42.2147588" lon="14.5776131"><ele>52.0</ele><time>2026-04-26T09:05:46.209Z</time></trkpt><trkpt lat="42.2147375" lon="14.5777403"><ele>54.0</ele><time>2026-04-26T09:05:47.215Z</time></trkpt><trkpt lat="42.2147093" lon="14.5778642"><ele>56.0</ele><time>2026-04-26T09:05:48.232Z</time></trkpt><trkpt lat="42.2146753" lon="14.5779837"><ele>58.0</ele><time>2026-04-26T09:05:49.225Z</time></trkpt><trkpt lat="42.2146179" lon="14.5781048"><ele>58.0</ele><time>2026-04-26T09:05:50.229Z</time></trkpt><trkpt lat="42.2145541" lon="14.5782233"><ele>58.0</ele><time>2026-04-26T09:05:51.231Z</time></trkpt><trkpt lat="42.2144933" lon="14.5783362"><ele>58.0</ele><time>2026-04-26T09:05:52.226Z</time></trkpt><trkpt lat="42.2144335" lon="14.5784423"><ele>58.0</ele><time>2026-04-26T09:05:53.239Z</time></trkpt><trkpt lat="42.2143925" lon="14.5785479"><ele>58.0</ele><time>2026-04-26T09:05:54.229Z</time></trkpt><trkpt lat="42.2143591" lon="14.5786655"><ele>56.2</ele><time>2026-04-26T09:05:55.192Z</time></trkpt><trkpt lat="42.2143237" lon="14.5787845"><ele>54.4</ele><time>2026-04-26T09:05:56.25Z</time></trkpt><trkpt lat="42.2142909" lon="14.5788986"><ele>52.6</ele><time>2026-04-26T09:05:57.238Z</time></trkpt><trkpt lat="42.2142579" lon="14.5790008"><ele>50.800000000000004</ele><time>2026-04-26T09:05:58.221Z</time></trkpt><trkpt lat="42.2142116" lon="14.5791211"><ele>49.0</ele><time>2026-04-26T09:05:59.247Z</time></trkpt><trkpt lat="42.2141699" lon="14.5792767"><ele>49.0</ele><time>2026-04-26T09:06:00.243Z</time></trkpt><trkpt lat="42.2141354" lon="14.5794447"><ele>49.0</ele><time>2026-04-26T09:06:01.229Z</time></trkpt><trkpt lat="42.2141024" lon="14.5796174"><ele>49.0</ele><time>2026-04-26T09:06:02.171Z</time></trkpt><trkpt lat="42.2140692" lon="14.5797744"><ele>49.0</ele><time>2026-04-26T09:06:03.184Z</time></trkpt><trkpt lat="42.2140402" lon="14.5799264"><ele>49.0</ele><time>2026-04-26T09:06:04.168Z</time></trkpt><trkpt lat="42.2140006" lon="14.5800689"><ele>49.0</ele><time>2026-04-26T09:06:05.203Z</time></trkpt><trkpt lat="42.2139376" lon="14.5802191"><ele>49.0</ele><time>2026-04-26T09:06:06.231Z</time></trkpt><trkpt lat="42.2138892" lon="14.5803539"><ele>49.0</ele><time>2026-04-26T09:06:07.229Z</time></trkpt><trkpt lat="42.2138453" lon="14.5804869"><ele>48.99999999999999</ele><time>2026-04-26T09:06:08.174Z</time></trkpt><trkpt lat="42.2138218" lon="14.5806131"><ele>49.0</ele><time>2026-04-26T09:06:09.216Z</time></trkpt><trkpt lat="42.2138186" lon="14.5807272"><ele>49.0</ele><time>2026-04-26T09:06:10.199Z</time></trkpt><trkpt lat="42.2138175" lon="14.5808379"><ele>49.0</ele><time>2026-04-26T09:06:11.193Z</time></trkpt><trkpt lat="42.2138071" lon="14.5809262"><ele>48.99999999999999</ele><time>2026-04-26T09:06:12.238Z</time></trkpt><trkpt lat="42.2137355" lon="14.5810279"><ele>49.0</ele><time>2026-04-26T09:06:14.213Z</time></trkpt><trkpt lat="42.2136556" lon="14.5810681"><ele>49.0</ele><time>2026-04-26T09:06:15.253Z</time></trkpt><trkpt lat="42.2135823" lon="14.5810878"><ele>49.0</ele><time>2026-04-26T09:06:16.23Z</time></trkpt><trkpt lat="42.2134876" lon="14.5810243"><ele>49.0</ele><time>2026-04-26T09:06:18.221Z</time></trkpt><trkpt lat="42.2134588" lon="14.5809445"><ele>49.0</ele><time>2026-04-26T09:06:19.175Z</time></trkpt><trkpt lat="42.213436" lon="14.5808366"><ele>49.0</ele><time>2026-04-26T09:06:20.24Z</time></trkpt><trkpt lat="42.2134439" lon="14.5806614"><ele>49.0</ele><time>2026-04-26T09:06:21.233Z</time></trkpt><trkpt lat="42.2134539" lon="14.5804529"><ele>49.0</ele><time>2026-04-26T09:06:22.227Z</time></trkpt><trkpt lat="42.213466" lon="14.580244"><ele>49.0</ele><time>2026-04-26T09:06:23.227Z</time></trkpt><trkpt lat="42.2134758" lon="14.5800708"><ele>49.0</ele><time>2026-04-26T09:06:24.254Z</time></trkpt><trkpt lat="42.2134576" lon="14.5799187"><ele>50.75</ele><time>2026-04-26T09:06:25.233Z</time></trkpt><trkpt lat="42.2134089" lon="14.5797545"><ele>52.5</ele><time>2026-04-26T09:06:26.256Z</time></trkpt><trkpt lat="42.2133513" lon="14.5795772"><ele>54.25</ele><time>2026-04-26T09:06:27.242Z</time></trkpt><trkpt lat="42.2133114" lon="14.579416"><ele>56.0</ele><time>2026-04-26T09:06:28.222Z</time></trkpt><trkpt lat="42.2132822" lon="14.5792651"><ele>57.199999999999996</ele><time>2026-04-26T09:06:29.218Z</time></trkpt><trkpt lat="42.2132591" lon="14.5791078"><ele>58.39999999999999</ele><time>2026-04-26T09:06:30.214Z</time></trkpt><trkpt lat="42.2132427" lon="14.5789665"><ele>59.6</ele><time>2026-04-26T09:06:31.226Z</time></trkpt><trkpt lat="42.2132401" lon="14.5788303"><ele>60.8</ele><time>2026-04-26T09:06:32.232Z</time></trkpt><trkpt lat="42.2132363" lon="14.5787059"><ele>62.0</ele><time>2026-04-26T09:06:33.236Z</time></trkpt><trkpt lat="42.2132381" lon="14.5785983"><ele>62.333333333333336</ele><time>2026-04-26T09:06:34.235Z</time></trkpt><trkpt lat="42.2132329" lon="14.5785017"><ele>62.66666666666667</ele><time>2026-04-26T09:06:35.228Z</time></trkpt><trkpt lat="42.2132224" lon="14.5783579"><ele>63.0</ele><time>2026-04-26T09:06:37.233Z</time></trkpt><trkpt lat="42.213247" lon="14.5782157"><ele>63.33333333333333</ele><time>2026-04-26T09:06:39.187Z</time></trkpt><trkpt lat="42.21327" lon="14.5781345"><ele>63.666666666666664</ele><time>2026-04-26T09:06:40.223Z</time></trkpt><trkpt lat="42.2132911" lon="14.5780197"><ele>64.0</ele><time>2026-04-26T09:06:42.223Z</time></trkpt><trkpt lat="42.2133267" lon="14.5779273"><ele>63.71428571428571</ele><time>2026-04-26T09:06:49.185Z</time></trkpt><trkpt lat="42.2133048" lon="14.577816"><ele>63.42857142857142</ele><time>2026-04-26T09:06:53.212Z</time></trkpt><trkpt lat="42.2132785" lon="14.5777362"><ele>63.14285714285714</ele><time>2026-04-26T09:06:55.22Z</time></trkpt><trkpt lat="42.2132695" lon="14.5776412"><ele>62.85714285714286</ele><time>2026-04-26T09:06:58.205Z</time></trkpt><trkpt lat="42.2132384" lon="14.5775457"><ele>62.57142857142858</ele><time>2026-04-26T09:07:01.219Z</time></trkpt><trkpt lat="42.2132055" lon="14.5774696"><ele>62.28571428571429</ele><time>2026-04-26T09:07:04.221Z</time></trkpt><trkpt lat="42.2131718" lon="14.5773737"><ele>62.0</ele><time>2026-04-26T09:07:06.203Z</time></trkpt><trkpt lat="42.2131413" lon="14.5772471"><ele>62.00000000000001</ele><time>2026-04-26T09:07:08.183Z</time></trkpt><trkpt lat="42.2131604" lon="14.5771304"><ele>62.0</ele><time>2026-04-26T09:07:10.207Z</time></trkpt><trkpt lat="42.2131762" lon="14.5769937"><ele>62.0</ele><time>2026-04-26T09:07:12.23Z</time></trkpt><trkpt lat="42.2131478" lon="14.5768914"><ele>62.0</ele><time>2026-04-26T09:07:14.201Z</time></trkpt><trkpt lat="42.2130975" lon="14.576819"><ele>62.00000000000001</ele><time>2026-04-26T09:07:16.186Z</time></trkpt><trkpt lat="42.213054" lon="14.5767119"><ele>62.0</ele><time>2026-04-26T09:07:18.178Z</time></trkpt><trkpt lat="42.2130523" lon="14.5765973"><ele>63.6</ele><time>2026-04-26T09:07:19.21Z</time></trkpt><trkpt lat="42.2130255" lon="14.5764249"><ele>65.2</ele><time>2026-04-26T09:07:20.228Z</time></trkpt><trkpt lat="42.2129879" lon="14.5762973"><ele>66.8</ele><time>2026-04-26T09:07:21.216Z</time></trkpt><trkpt lat="42.2129536" lon="14.5761757"><ele>68.4</ele><time>2026-04-26T09:07:22.227Z</time></trkpt><trkpt lat="42.2129281" lon="14.5760583"><ele>70.0</ele><time>2026-04-26T09:07:23.234Z</time></trkpt><trkpt lat="42.2128983" lon="14.575915"><ele>70.0</ele><time>2026-04-26T09:07:24.228Z</time></trkpt><trkpt lat="42.2128748" lon="14.5757579"><ele>70.0</ele><time>2026-04-26T09:07:25.232Z</time></trkpt><trkpt lat="42.2128504" lon="14.5756014"><ele>70.0</ele><time>2026-04-26T09:07:26.226Z</time></trkpt><trkpt lat="42.2128303" lon="14.5754425"><ele>70.0</ele><time>2026-04-26T09:07:27.226Z</time></trkpt><trkpt lat="42.2128062" lon="14.5753032"><ele>69.6</ele><time>2026-04-26T09:07:28.24Z</time></trkpt><trkpt lat="42.2127787" lon="14.5751812"><ele>69.2</ele><time>2026-04-26T09:07:29.221Z</time></trkpt><trkpt lat="42.2127193" lon="14.5750868"><ele>68.8</ele><time>2026-04-26T09:07:30.178Z</time></trkpt><trkpt lat="42.2126853" lon="14.5749958"><ele>68.4</ele><time>2026-04-26T09:07:31.182Z</time></trkpt><trkpt lat="42.2126861" lon="14.5748529"><ele>68.0</ele><time>2026-04-26T09:07:32.234Z</time></trkpt><trkpt lat="42.2126812" lon="14.5746789"><ele>68.25</ele><time>2026-04-26T09:07:33.223Z</time></trkpt><trkpt lat="42.2126704" lon="14.5745146"><ele>68.5</ele><time>2026-04-26T09:07:34.213Z</time></trkpt><trkpt lat="42.2126671" lon="14.5743365"><ele>68.75</ele><time>2026-04-26T09:07:35.215Z</time></trkpt><trkpt lat="42.2126449" lon="14.5741542"><ele>69.0</ele><time>2026-04-26T09:07:36.213Z</time></trkpt><trkpt lat="42.2126159" lon="14.5739802"><ele>69.0</ele><time>2026-04-26T09:07:37.223Z</time></trkpt><trkpt lat="42.2125877" lon="14.57383"><ele>69.0</ele><time>2026-04-26T09:07:38.203Z</time></trkpt><trkpt lat="42.2125553" lon="14.5737311"><ele>69.0</ele><time>2026-04-26T09:07:39.221Z</time></trkpt><trkpt lat="42.2125069" lon="14.5736326"><ele>69.0</ele><time>2026-04-26T09:07:41.211Z</time></trkpt><trkpt lat="42.2124442" lon="14.5736148"><ele>69.0</ele><time>2026-04-26T09:07:43.225Z</time></trkpt><trkpt lat="42.2124028" lon="14.573738"><ele>69.0</ele><time>2026-04-26T09:07:51.192Z</time></trkpt><trkpt lat="42.2123777" lon="14.5738444"><ele>69.0</ele><time>2026-04-26T09:07:52.179Z</time></trkpt><trkpt lat="42.2123566" lon="14.5739495"><ele>69.0</ele><time>2026-04-26T09:07:53.231Z</time></trkpt><trkpt lat="42.2123217" lon="14.5740408"><ele>69.0</ele><time>2026-04-26T09:07:54.192Z</time></trkpt><trkpt lat="42.2122651" lon="14.5741344"><ele>69.0</ele><time>2026-04-26T09:07:55.195Z</time></trkpt><trkpt lat="42.2121891" lon="14.5742475"><ele>69.0</ele><time>2026-04-26T09:07:56.228Z</time></trkpt><trkpt lat="42.2121117" lon="14.5743552"><ele>71.0</ele><time>2026-04-26T09:07:57.22Z</time></trkpt><trkpt lat="42.2120468" lon="14.5744516"><ele>73.0</ele><time>2026-04-26T09:07:58.229Z</time></trkpt><trkpt lat="42.2119887" lon="14.574533"><ele>75.0</ele><time>2026-04-26T09:07:59.223Z</time></trkpt><trkpt lat="42.2119295" lon="14.5746312"><ele>77.0</ele><time>2026-04-26T09:08:00.217Z</time></trkpt><trkpt lat="42.2118799" lon="14.5747161"><ele>79.0</ele><time>2026-04-26T09:08:01.236Z</time></trkpt><trkpt lat="42.21184" lon="14.5747849"><ele>81.0</ele><time>2026-04-26T09:08:02.236Z</time></trkpt><trkpt lat="42.2117802" lon="14.5748562"><ele>81.0</ele><time>2026-04-26T09:08:04.248Z</time></trkpt><trkpt lat="42.2116546" lon="14.5748303"><ele>81.0</ele><time>2026-04-26T09:08:06.186Z</time></trkpt><trkpt lat="42.2115401" lon="14.5748257"><ele>81.0</ele><time>2026-04-26T09:08:07.192Z</time></trkpt><trkpt lat="42.2114178" lon="14.5748315"><ele>81.0</ele><time>2026-04-26T09:08:08.229Z</time></trkpt><trkpt lat="42.2112818" lon="14.5748388"><ele>81.0</ele><time>2026-04-26T09:08:09.251Z</time></trkpt><trkpt lat="42.2111542" lon="14.5748503"><ele>81.0</ele><time>2026-04-26T09:08:10.238Z</time></trkpt><trkpt lat="42.2110297" lon="14.5748682"><ele>81.0</ele><time>2026-04-26T09:08:11.253Z</time></trkpt><trkpt lat="42.210916" lon="14.5748662"><ele>81.0</ele><time>2026-04-26T09:08:12.242Z</time></trkpt><trkpt lat="42.2108298" lon="14.5748715"><ele>81.0</ele><time>2026-04-26T09:08:13.23Z</time></trkpt><trkpt lat="42.2107566" lon="14.5748791"><ele>81.0</ele><time>2026-04-26T09:08:14.216Z</time></trkpt><trkpt lat="42.2106913" lon="14.5748976"><ele>81.0</ele><time>2026-04-26T09:08:15.197Z</time></trkpt><trkpt lat="42.2106061" lon="14.574952"><ele>81.0</ele><time>2026-04-26T09:08:16.218Z</time></trkpt><trkpt lat="42.2105048" lon="14.5750447"><ele>81.0</ele><time>2026-04-26T09:08:17.25Z</time></trkpt><trkpt lat="42.2104061" lon="14.5751315"><ele>80.6</ele><time>2026-04-26T09:08:18.245Z</time></trkpt><trkpt lat="42.2103082" lon="14.5751829"><ele>80.19999999999999</ele><time>2026-04-26T09:08:19.265Z</time></trkpt><trkpt lat="42.210203" lon="14.5751987"><ele>79.80000000000001</ele><time>2026-04-26T09:08:20.25Z</time></trkpt><trkpt lat="42.2101024" lon="14.5751899"><ele>79.4</ele><time>2026-04-26T09:08:21.255Z</time></trkpt><trkpt lat="42.2100259" lon="14.575162"><ele>79.0</ele><time>2026-04-26T09:08:22.207Z</time></trkpt><trkpt lat="42.2099565" lon="14.5751028"><ele>79.0</ele><time>2026-04-26T09:08:23.215Z</time></trkpt><trkpt lat="42.2098783" lon="14.5750112"><ele>79.0</ele><time>2026-04-26T09:08:24.216Z</time></trkpt><trkpt lat="42.2098039" lon="14.5749147"><ele>79.0</ele><time>2026-04-26T09:08:25.183Z</time></trkpt><trkpt lat="42.2097208" lon="14.5748163"><ele>79.0</ele><time>2026-04-26T09:08:26.221Z</time></trkpt><trkpt lat="42.209647" lon="14.5747173"><ele>79.0</ele><time>2026-04-26T09:08:27.21Z</time></trkpt><trkpt lat="42.209575" lon="14.5746142"><ele>76.83333333333333</ele><time>2026-04-26T09:08:28.219Z</time></trkpt><trkpt lat="42.2094972" lon="14.5745264"><ele>74.66666666666666</ele><time>2026-04-26T09:08:29.222Z</time></trkpt><trkpt lat="42.2094283" lon="14.574453"><ele>72.5</ele><time>2026-04-26T09:08:30.247Z</time></trkpt><trkpt lat="42.2093641" lon="14.5743907"><ele>70.33333333333333</ele><time>2026-04-26T09:08:31.23Z</time></trkpt><trkpt lat="42.2093017" lon="14.5743207"><ele>68.16666666666667</ele><time>2026-04-26T09:08:32.248Z</time></trkpt><trkpt lat="42.2092724" lon="14.5742064"><ele>66.0</ele><time>2026-04-26T09:08:33.23Z</time></trkpt><trkpt lat="42.2092786" lon="14.5740907"><ele>65.2</ele><time>2026-04-26T09:08:34.239Z</time></trkpt><trkpt lat="42.2092896" lon="14.5739973"><ele>64.39999999999999</ele><time>2026-04-26T09:08:35.222Z</time></trkpt><trkpt lat="42.2092752" lon="14.5739123"><ele>63.6</ele><time>2026-04-26T09:08:36.2Z</time></trkpt><trkpt lat="42.2091453" lon="14.5738269"><ele>62.8</ele><time>2026-04-26T09:08:38.23Z</time></trkpt><trkpt lat="42.2090379" lon="14.5738333"><ele>62.0</ele><time>2026-04-26T09:08:39.232Z</time></trkpt><trkpt lat="42.2089119" lon="14.5738494"><ele>59.2</ele><time>2026-04-26T09:08:40.242Z</time></trkpt><trkpt lat="42.2087944" lon="14.5738687"><ele>56.400000000000006</ele><time>2026-04-26T09:08:41.231Z</time></trkpt><trkpt lat="42.2086887" lon="14.5738711"><ele>53.599999999999994</ele><time>2026-04-26T09:08:42.224Z</time></trkpt><trkpt lat="42.2085807" lon="14.5738553"><ele>50.8</ele><time>2026-04-26T09:08:43.181Z</time></trkpt><trkpt lat="42.2084746" lon="14.5738346"><ele>48.0</ele><time>2026-04-26T09:08:44.245Z</time></trkpt><trkpt lat="42.2083651" lon="14.5738217"><ele>48.0</ele><time>2026-04-26T09:08:45.189Z</time></trkpt><trkpt lat="42.2082538" lon="14.5738159"><ele>48.0</ele><time>2026-04-26T09:08:46.238Z</time></trkpt><trkpt lat="42.2081411" lon="14.5738207"><ele>48.0</ele><time>2026-04-26T09:08:47.259Z</time></trkpt><trkpt lat="42.2080244" lon="14.5738252"><ele>48.0</ele><time>2026-04-26T09:08:48.248Z</time></trkpt><trkpt lat="42.2079092" lon="14.5738352"><ele>46.0</ele><time>2026-04-26T09:08:49.175Z</time></trkpt><trkpt lat="42.2077966" lon="14.5738271"><ele>44.0</ele><time>2026-04-26T09:08:50.232Z</time></trkpt><trkpt lat="42.2076801" lon="14.5737975"><ele>42.0</ele><time>2026-04-26T09:08:51.247Z</time></trkpt><trkpt lat="42.2075662" lon="14.5737581"><ele>40.0</ele><time>2026-04-26T09:08:52.223Z</time></trkpt><trkpt lat="42.207445" lon="14.5737139"><ele>39.0</ele><time>2026-04-26T09:08:53.237Z</time></trkpt><trkpt lat="42.2073262" lon="14.573662"><ele>38.0</ele><time>2026-04-26T09:08:54.239Z</time></trkpt><trkpt lat="42.2072147" lon="14.5736176"><ele>37.0</ele><time>2026-04-26T09:08:55.246Z</time></trkpt><trkpt lat="42.2071123" lon="14.5735777"><ele>36.0</ele><time>2026-04-26T09:08:56.248Z</time></trkpt><trkpt lat="42.2070147" lon="14.5735404"><ele>35.0</ele><time>2026-04-26T09:08:57.215Z</time></trkpt><trkpt lat="42.2069248" lon="14.5735032"><ele>35.0</ele><time>2026-04-26T09:08:58.244Z</time></trkpt><trkpt lat="42.2068517" lon="14.573473"><ele>35.0</ele><time>2026-04-26T09:08:59.239Z</time></trkpt><trkpt lat="42.2067645" lon="14.5734401"><ele>35.0</ele><time>2026-04-26T09:09:01.237Z</time></trkpt><trkpt lat="42.2067024" lon="14.5734094"><ele>35.0</ele><time>2026-04-26T09:09:05.22Z</time></trkpt><trkpt lat="42.2066697" lon="14.5732888"><ele>35.0</ele><time>2026-04-26T09:09:09.18Z</time></trkpt><trkpt lat="42.2066951" lon="14.5731945"><ele>35.0</ele><time>2026-04-26T09:09:10.221Z</time></trkpt><trkpt lat="42.2067308" lon="14.573072"><ele>35.0</ele><time>2026-04-26T09:09:11.256Z</time></trkpt><trkpt lat="42.2067695" lon="14.5729152"><ele>35.0</ele><time>2026-04-26T09:09:12.249Z</time></trkpt><trkpt lat="42.2068112" lon="14.572736"><ele>35.0</ele><time>2026-04-26T09:09:13.236Z</time></trkpt><trkpt lat="42.2068572" lon="14.5725405"><ele>35.0</ele><time>2026-04-26T09:09:14.197Z</time></trkpt><trkpt lat="42.2068986" lon="14.5723355"><ele>34.666666666666664</ele><time>2026-04-26T09:09:15.25Z</time></trkpt><trkpt lat="42.2069404" lon="14.5721281"><ele>34.333333333333336</ele><time>2026-04-26T09:09:16.214Z</time></trkpt><trkpt lat="42.2069855" lon="14.571916"><ele>34.0</ele><time>2026-04-26T09:09:17.25Z</time></trkpt><trkpt lat="42.2070309" lon="14.5717015"><ele>34.0</ele><time>2026-04-26T09:09:18.217Z</time></trkpt><trkpt lat="42.2070786" lon="14.5714908"><ele>34.0</ele><time>2026-04-26T09:09:19.239Z</time></trkpt><trkpt lat="42.2071229" lon="14.5712727"><ele>34.0</ele><time>2026-04-26T09:09:20.233Z</time></trkpt><trkpt lat="42.2071708" lon="14.5710503"><ele>34.0</ele><time>2026-04-26T09:09:21.229Z</time></trkpt><trkpt lat="42.2072125" lon="14.5708322"><ele>34.0</ele><time>2026-04-26T09:09:22.223Z</time></trkpt><trkpt lat="42.2072556" lon="14.5706128"><ele>34.0</ele><time>2026-04-26T09:09:23.234Z</time></trkpt><trkpt lat="42.2072983" lon="14.5703909"><ele>36.333333333333336</ele><time>2026-04-26T09:09:24.204Z</time></trkpt><trkpt lat="42.2073429" lon="14.5701786"><ele>38.666666666666664</ele><time>2026-04-26T09:09:25.227Z</time></trkpt><trkpt lat="42.2073843" lon="14.5699737"><ele>41.0</ele><time>2026-04-26T09:09:26.268Z</time></trkpt><trkpt lat="42.2074268" lon="14.5697792"><ele>41.0</ele><time>2026-04-26T09:09:27.243Z</time></trkpt><trkpt lat="42.2074665" lon="14.5695873"><ele>41.0</ele><time>2026-04-26T09:09:28.238Z</time></trkpt><trkpt lat="42.2075041" lon="14.5693961"><ele>41.0</ele><time>2026-04-26T09:09:29.183Z</time></trkpt><trkpt lat="42.2075418" lon="14.5692069"><ele>41.0</ele><time>2026-04-26T09:09:30.219Z</time></trkpt><trkpt lat="42.2075878" lon="14.5690139"><ele>41.0</ele><time>2026-04-26T09:09:31.211Z</time></trkpt><trkpt lat="42.2076295" lon="14.5688214"><ele>41.0</ele><time>2026-04-26T09:09:32.226Z</time></trkpt><trkpt lat="42.2076662" lon="14.5686303"><ele>41.0</ele><time>2026-04-26T09:09:33.223Z</time></trkpt><trkpt lat="42.2077016" lon="14.5684507"><ele>41.0</ele><time>2026-04-26T09:09:34.227Z</time></trkpt><trkpt lat="42.2077404" lon="14.5682842"><ele>40.8</ele><time>2026-04-26T09:09:35.215Z</time></trkpt><trkpt lat="42.2077765" lon="14.5681292"><ele>40.599999999999994</ele><time>2026-04-26T09:09:36.193Z</time></trkpt><trkpt lat="42.2078083" lon="14.5679927"><ele>40.4</ele><time>2026-04-26T09:09:37.25Z</time></trkpt><trkpt lat="42.2078225" lon="14.5678927"><ele>40.2</ele><time>2026-04-26T09:09:38.239Z</time></trkpt><trkpt lat="42.2077856" lon="14.5677603"><ele>40.0</ele><time>2026-04-26T09:09:40.272Z</time></trkpt><trkpt lat="42.2076557" lon="14.5676802"><ele>39.75</ele><time>2026-04-26T09:09:42.246Z</time></trkpt><trkpt lat="42.2075284" lon="14.5676339"><ele>39.5</ele><time>2026-04-26T09:09:43.24Z</time></trkpt><trkpt lat="42.2073918" lon="14.567595"><ele>39.25</ele><time>2026-04-26T09:09:44.241Z</time></trkpt><trkpt lat="42.2072606" lon="14.5675356"><ele>39.0</ele><time>2026-04-26T09:09:45.254Z</time></trkpt><trkpt lat="42.2071403" lon="14.5674392"><ele>36.666666666666664</ele><time>2026-04-26T09:09:46.229Z</time></trkpt><trkpt lat="42.2070201" lon="14.5673004"><ele>34.33333333333333</ele><time>2026-04-26T09:09:47.273Z</time></trkpt><trkpt lat="42.2068927" lon="14.5671419"><ele>32.0</ele><time>2026-04-26T09:09:48.187Z</time></trkpt><trkpt lat="42.2067836" lon="14.566981"><ele>32.0</ele><time>2026-04-26T09:09:49.19Z</time></trkpt><trkpt lat="42.2066785" lon="14.5668374"><ele>32.0</ele><time>2026-04-26T09:09:50.246Z</time></trkpt><trkpt lat="42.2065707" lon="14.5667041"><ele>32.0</ele><time>2026-04-26T09:09:51.231Z</time></trkpt><trkpt lat="42.2064658" lon="14.5665761"><ele>32.0</ele><time>2026-04-26T09:09:52.228Z</time></trkpt><trkpt lat="42.2063697" lon="14.5664686"><ele>30.5</ele><time>2026-04-26T09:09:53.237Z</time></trkpt><trkpt lat="42.2062691" lon="14.5663546"><ele>29.0</ele><time>2026-04-26T09:09:54.23Z</time></trkpt><trkpt lat="42.2061724" lon="14.5662483"><ele>27.5</ele><time>2026-04-26T09:09:55.226Z</time></trkpt><trkpt lat="42.206071" lon="14.566133"><ele>26.0</ele><time>2026-04-26T09:09:56.236Z</time></trkpt><trkpt lat="42.2059662" lon="14.5660126"><ele>26.0</ele><time>2026-04-26T09:09:57.25Z</time></trkpt><trkpt lat="42.2058622" lon="14.5658884"><ele>26.0</ele><time>2026-04-26T09:09:58.257Z</time></trkpt><trkpt lat="42.2057586" lon="14.565771"><ele>26.0</ele><time>2026-04-26T09:09:59.208Z</time></trkpt><trkpt lat="42.2056612" lon="14.5656596"><ele>26.0</ele><time>2026-04-26T09:10:00.247Z</time></trkpt><trkpt lat="42.2055779" lon="14.5655522"><ele>25.200000000000003</ele><time>2026-04-26T09:10:01.248Z</time></trkpt><trkpt lat="42.2055182" lon="14.5654575"><ele>24.400000000000002</ele><time>2026-04-26T09:10:02.227Z</time></trkpt><trkpt lat="42.2054703" lon="14.5653943"><ele>23.6</ele><time>2026-04-26T09:10:03.243Z</time></trkpt><trkpt lat="42.2053714" lon="14.5653963"><ele>22.8</ele><time>2026-04-26T09:10:05.239Z</time></trkpt><trkpt lat="42.2052933" lon="14.5654434"><ele>22.0</ele><time>2026-04-26T09:10:06.226Z</time></trkpt><trkpt lat="42.2051836" lon="14.5655243"><ele>22.0</ele><time>2026-04-26T09:10:07.241Z</time></trkpt><trkpt lat="42.205077" lon="14.5656199"><ele>22.0</ele><time>2026-04-26T09:10:08.229Z</time></trkpt><trkpt lat="42.2050043" lon="14.5657014"><ele>22.0</ele><time>2026-04-26T09:10:09.177Z</time></trkpt><trkpt lat="42.2049425" lon="14.5658666"><ele>22.0</ele><time>2026-04-26T09:10:11.235Z</time></trkpt><trkpt lat="42.2049345" lon="14.5659838"><ele>22.0</ele><time>2026-04-26T09:10:12.224Z</time></trkpt><trkpt lat="42.2049572" lon="14.5661159"><ele>21.666666666666664</ele><time>2026-04-26T09:10:13.223Z</time></trkpt><trkpt lat="42.2050018" lon="14.5662491"><ele>21.333333333333332</ele><time>2026-04-26T09:10:14.24Z</time></trkpt><trkpt lat="42.205101" lon="14.5664286"><ele>21.0</ele><time>2026-04-26T09:10:15.2Z</time></trkpt><trkpt lat="42.2052315" lon="14.5666197"><ele>21.0</ele><time>2026-04-26T09:10:16.222Z</time></trkpt><trkpt lat="42.205334" lon="14.566785"><ele>21.0</ele><time>2026-04-26T09:10:17.223Z</time></trkpt><trkpt lat="42.2054159" lon="14.5669214"><ele>21.0</ele><time>2026-04-26T09:10:18.208Z</time></trkpt><trkpt lat="42.2054838" lon="14.5670415"><ele>21.0</ele><time>2026-04-26T09:10:19.233Z</time></trkpt><trkpt lat="42.2055471" lon="14.5671736"><ele>21.4</ele><time>2026-04-26T09:10:20.254Z</time></trkpt><trkpt lat="42.2055971" lon="14.5673101"><ele>21.8</ele><time>2026-04-26T09:10:21.186Z</time></trkpt><trkpt lat="42.2056514" lon="14.5674576"><ele>22.2</ele><time>2026-04-26T09:10:22.2Z</time></trkpt><trkpt lat="42.2056945" lon="14.5675903"><ele>22.599999999999998</ele><time>2026-04-26T09:10:23.245Z</time></trkpt><trkpt lat="42.2057399" lon="14.5677104"><ele>23.0</ele><time>2026-04-26T09:10:24.231Z</time></trkpt><trkpt lat="42.2057912" lon="14.5678331"><ele>23.333333333333336</ele><time>2026-04-26T09:10:25.183Z</time></trkpt><trkpt lat="42.2058151" lon="14.5679588"><ele>23.666666666666668</ele><time>2026-04-26T09:10:26.252Z</time></trkpt><trkpt lat="42.2058276" lon="14.5680782"><ele>24.0</ele><time>2026-04-26T09:10:27.251Z</time></trkpt><trkpt lat="42.2058277" lon="14.5681875"><ele>24.333333333333336</ele><time>2026-04-26T09:10:28.25Z</time></trkpt><trkpt lat="42.2058188" lon="14.5683051"><ele>24.666666666666668</ele><time>2026-04-26T09:10:29.226Z</time></trkpt><trkpt lat="42.2058024" lon="14.5684296"><ele>25.0</ele><time>2026-04-26T09:10:30.245Z</time></trkpt><trkpt lat="42.2057725" lon="14.5685584"><ele>25.000000000000004</ele><time>2026-04-26T09:10:31.25Z</time></trkpt><trkpt lat="42.205721" lon="14.5686866"><ele>25.0</ele><time>2026-04-26T09:10:32.251Z</time></trkpt><trkpt lat="42.2056701" lon="14.5687887"><ele>25.0</ele><time>2026-04-26T09:10:33.215Z</time></trkpt><trkpt lat="42.2056191" lon="14.5688693"><ele>25.0</ele><time>2026-04-26T09:10:34.227Z</time></trkpt><trkpt lat="42.2055677" lon="14.5689568"><ele>25.000000000000004</ele><time>2026-04-26T09:10:35.235Z</time></trkpt><trkpt lat="42.2055216" lon="14.5690384"><ele>25.0</ele><time>2026-04-26T09:10:36.171Z</time></trkpt><trkpt lat="42.2054615" lon="14.5691141"><ele>24.4</ele><time>2026-04-26T09:10:37.216Z</time></trkpt><trkpt lat="42.2053783" lon="14.569165"><ele>23.8</ele><time>2026-04-26T09:10:38.196Z</time></trkpt><trkpt lat="42.2052801" lon="14.569209"><ele>23.200000000000003</ele><time>2026-04-26T09:10:39.198Z</time></trkpt><trkpt lat="42.2051751" lon="14.5692518"><ele>22.6</ele><time>2026-04-26T09:10:40.168Z</time></trkpt><trkpt lat="42.2050844" lon="14.5693142"><ele>22.0</ele><time>2026-04-26T09:10:41.166Z</time></trkpt><trkpt lat="42.2049917" lon="14.5693622"><ele>22.0</ele><time>2026-04-26T09:10:42.167Z</time></trkpt><trkpt lat="42.2049176" lon="14.5694283"><ele>22.0</ele><time>2026-04-26T09:10:43.17Z</time></trkpt><trkpt lat="42.204838" lon="14.5694549"><ele>22.0</ele><time>2026-04-26T09:10:44.173Z</time></trkpt><trkpt lat="42.2047529" lon="14.5695028"><ele>22.0</ele><time>2026-04-26T09:10:45.182Z</time></trkpt><trkpt lat="42.2046319" lon="14.5695535"><ele>22.0</ele><time>2026-04-26T09:10:46.174Z</time></trkpt><trkpt lat="42.2045157" lon="14.5696101"><ele>21.6</ele><time>2026-04-26T09:10:47.181Z</time></trkpt><trkpt lat="42.2044144" lon="14.5696377"><ele>21.200000000000003</ele><time>2026-04-26T09:10:48.171Z</time></trkpt><trkpt lat="42.2043219" lon="14.5696966"><ele>20.8</ele><time>2026-04-26T09:10:49.17Z</time></trkpt><trkpt lat="42.2042537" lon="14.5697431"><ele>20.4</ele><time>2026-04-26T09:10:50.173Z</time></trkpt><trkpt lat="42.2041794" lon="14.5698213"><ele>20.0</ele><time>2026-04-26T09:10:51.182Z</time></trkpt><trkpt lat="42.204123" lon="14.5699257"><ele>20.0</ele><time>2026-04-26T09:10:52.186Z</time></trkpt><trkpt lat="42.2040893" lon="14.5700325"><ele>20.0</ele><time>2026-04-26T09:10:53.173Z</time></trkpt><trkpt lat="42.2040671" lon="14.5701432"><ele>20.0</ele><time>2026-04-26T09:10:54.184Z</time></trkpt><trkpt lat="42.2040299" lon="14.5702633"><ele>20.0</ele><time>2026-04-26T09:10:55.195Z</time></trkpt><trkpt lat="42.2039665" lon="14.5703839"><ele>20.0</ele><time>2026-04-26T09:10:56.176Z</time></trkpt><trkpt lat="42.2039203" lon="14.570501"><ele>19.833333333333336</ele><time>2026-04-26T09:10:57.208Z</time></trkpt><trkpt lat="42.2039012" lon="14.5706021"><ele>19.666666666666668</ele><time>2026-04-26T09:10:58.248Z</time></trkpt><trkpt lat="42.2038874" lon="14.5707008"><ele>19.5</ele><time>2026-04-26T09:10:59.2Z</time></trkpt><trkpt lat="42.2038896" lon="14.5708162"><ele>19.333333333333332</ele><time>2026-04-26T09:11:00.206Z</time></trkpt><trkpt lat="42.2039123" lon="14.570948"><ele>19.166666666666664</ele><time>2026-04-26T09:11:01.197Z</time></trkpt><trkpt lat="42.2039328" lon="14.5710807"><ele>19.0</ele><time>2026-04-26T09:11:02.2Z</time></trkpt><trkpt lat="42.2039422" lon="14.571211"><ele>19.0</ele><time>2026-04-26T09:11:03.206Z</time></trkpt><trkpt lat="42.2039256" lon="14.5713207"><ele>19.0</ele><time>2026-04-26T09:11:04.233Z</time></trkpt><trkpt lat="42.2039127" lon="14.5714293"><ele>19.0</ele><time>2026-04-26T09:11:05.215Z</time></trkpt><trkpt lat="42.2038943" lon="14.5715713"><ele>19.0</ele><time>2026-04-26T09:11:06.223Z</time></trkpt><trkpt lat="42.2038564" lon="14.5717113"><ele>19.0</ele><time>2026-04-26T09:11:07.239Z</time></trkpt><trkpt lat="42.2038119" lon="14.5718386"><ele>19.0</ele><time>2026-04-26T09:11:08.235Z</time></trkpt><trkpt lat="42.20377" lon="14.5719237"><ele>19.0</ele><time>2026-04-26T09:11:09.244Z</time></trkpt><trkpt lat="42.2037415" lon="14.5720072"><ele>19.0</ele><time>2026-04-26T09:11:10.211Z</time></trkpt><trkpt lat="42.2036971" lon="14.5721002"><ele>19.0</ele><time>2026-04-26T09:11:11.236Z</time></trkpt><trkpt lat="42.2036507" lon="14.5722018"><ele>19.0</ele><time>2026-04-26T09:11:12.249Z</time></trkpt><trkpt lat="42.2035868" lon="14.5723033"><ele>19.0</ele><time>2026-04-26T09:11:13.242Z</time></trkpt><trkpt lat="42.2034982" lon="14.5724086"><ele>19.2</ele><time>2026-04-26T09:11:14.236Z</time></trkpt><trkpt lat="42.2034086" lon="14.5725295"><ele>19.4</ele><time>2026-04-26T09:11:15.193Z</time></trkpt><trkpt lat="42.2033339" lon="14.572636"><ele>19.6</ele><time>2026-04-26T09:11:16.221Z</time></trkpt><trkpt lat="42.2032617" lon="14.5727437"><ele>19.8</ele><time>2026-04-26T09:11:17.196Z</time></trkpt><trkpt lat="42.2031958" lon="14.5728495"><ele>20.0</ele><time>2026-04-26T09:11:18.242Z</time></trkpt><trkpt lat="42.2031472" lon="14.5729527"><ele>20.0</ele><time>2026-04-26T09:11:19.205Z</time></trkpt><trkpt lat="42.2031113" lon="14.5730539"><ele>20.0</ele><time>2026-04-26T09:11:20.203Z</time></trkpt><trkpt lat="42.2030781" lon="14.5731743"><ele>20.0</ele><time>2026-04-26T09:11:21.233Z</time></trkpt><trkpt lat="42.2030566" lon="14.5733381"><ele>20.0</ele><time>2026-04-26T09:11:22.243Z</time></trkpt><trkpt lat="42.2030502" lon="14.5735431"><ele>19.333333333333336</ele><time>2026-04-26T09:11:23.204Z</time></trkpt><trkpt lat="42.2030331" lon="14.5737376"><ele>18.666666666666668</ele><time>2026-04-26T09:11:24.198Z</time></trkpt><trkpt lat="42.2030064" lon="14.573932"><ele>18.0</ele><time>2026-04-26T09:11:25.21Z</time></trkpt><trkpt lat="42.2029722" lon="14.5741469"><ele>18.0</ele><time>2026-04-26T09:11:26.189Z</time></trkpt><trkpt lat="42.2029442" lon="14.5743467"><ele>18.0</ele><time>2026-04-26T09:11:27.181Z</time></trkpt><trkpt lat="42.2029077" lon="14.5745075"><ele>18.0</ele><time>2026-04-26T09:11:28.23Z</time></trkpt><trkpt lat="42.2028789" lon="14.5746743"><ele>18.0</ele><time>2026-04-26T09:11:29.245Z</time></trkpt><trkpt lat="42.2028654" lon="14.5748721"><ele>17.666666666666668</ele><time>2026-04-26T09:11:30.221Z</time></trkpt><trkpt lat="42.2028633" lon="14.5750889"><ele>17.333333333333336</ele><time>2026-04-26T09:11:31.201Z</time></trkpt><trkpt lat="42.2028499" lon="14.5753035"><ele>17.0</ele><time>2026-04-26T09:11:32.245Z</time></trkpt><trkpt lat="42.2028303" lon="14.5754967"><ele>17.0</ele><time>2026-04-26T09:11:33.223Z</time></trkpt><trkpt lat="42.2028067" lon="14.5756848"><ele>17.0</ele><time>2026-04-26T09:11:34.222Z</time></trkpt><trkpt lat="42.2027847" lon="14.575876"><ele>17.0</ele><time>2026-04-26T09:11:35.237Z</time></trkpt><trkpt lat="42.202765" lon="14.5760631"><ele>17.0</ele><time>2026-04-26T09:11:36.27Z</time></trkpt><trkpt lat="42.2027531" lon="14.5762406"><ele>17.0</ele><time>2026-04-26T09:11:37.183Z</time></trkpt><trkpt lat="42.2027401" lon="14.5764019"><ele>17.0</ele><time>2026-04-26T09:11:38.2Z</time></trkpt><trkpt lat="42.2027302" lon="14.5765535"><ele>17.0</ele><time>2026-04-26T09:11:39.185Z</time></trkpt><trkpt lat="42.2027328" lon="14.5766935"><ele>17.0</ele><time>2026-04-26T09:11:40.201Z</time></trkpt><trkpt lat="42.2027366" lon="14.5768307"><ele>17.0</ele><time>2026-04-26T09:11:41.203Z</time></trkpt><trkpt lat="42.2027458" lon="14.5769525"><ele>17.2</ele><time>2026-04-26T09:11:42.216Z</time></trkpt><trkpt lat="42.2027594" lon="14.5770617"><ele>17.4</ele><time>2026-04-26T09:11:43.218Z</time></trkpt><trkpt lat="42.2027791" lon="14.5771755"><ele>17.6</ele><time>2026-04-26T09:11:44.197Z</time></trkpt><trkpt lat="42.2028141" lon="14.5773142"><ele>17.8</ele><time>2026-04-26T09:11:45.205Z</time></trkpt><trkpt lat="42.2028478" lon="14.5774571"><ele>18.0</ele><time>2026-04-26T09:11:46.214Z</time></trkpt><trkpt lat="42.202878" lon="14.5776"><ele>18.0</ele><time>2026-04-26T09:11:47.234Z</time></trkpt><trkpt lat="42.2029212" lon="14.5777453"><ele>18.0</ele><time>2026-04-26T09:11:48.208Z</time></trkpt><trkpt lat="42.202975" lon="14.5778873"><ele>18.0</ele><time>2026-04-26T09:11:49.22Z</time></trkpt><trkpt lat="42.2030235" lon="14.5780115"><ele>18.0</ele><time>2026-04-26T09:11:50.21Z</time></trkpt><trkpt lat="42.2030666" lon="14.5781258"><ele>18.0</ele><time>2026-04-26T09:11:51.214Z</time></trkpt><trkpt lat="42.2031123" lon="14.5782495"><ele>18.0</ele><time>2026-04-26T09:11:52.222Z</time></trkpt><trkpt lat="42.203161" lon="14.5783714"><ele>18.0</ele><time>2026-04-26T09:11:53.232Z</time></trkpt><trkpt lat="42.2032098" lon="14.5784764"><ele>18.0</ele><time>2026-04-26T09:11:54.213Z</time></trkpt><trkpt lat="42.2032462" lon="14.5785651"><ele>18.0</ele><time>2026-04-26T09:11:55.199Z</time></trkpt><trkpt lat="42.2032698" lon="14.5786439"><ele>18.0</ele><time>2026-04-26T09:11:56.247Z</time></trkpt><trkpt lat="42.2032963" lon="14.5787214"><ele>18.0</ele><time>2026-04-26T09:11:57.187Z</time></trkpt><trkpt lat="42.2033431" lon="14.5788596"><ele>18.0</ele><time>2026-04-26T09:11:59.238Z</time></trkpt><trkpt lat="42.2033788" lon="14.5790092"><ele>18.0</ele><time>2026-04-26T09:12:01.245Z</time></trkpt><trkpt lat="42.203413" lon="14.5791266"><ele>18.0</ele><time>2026-04-26T09:12:02.246Z</time></trkpt><trkpt lat="42.2034731" lon="14.5792874"><ele>18.0</ele><time>2026-04-26T09:12:03.251Z</time></trkpt><trkpt lat="42.2035263" lon="14.5794191"><ele>17.8</ele><time>2026-04-26T09:12:04.226Z</time></trkpt><trkpt lat="42.2035568" lon="14.5795279"><ele>17.6</ele><time>2026-04-26T09:12:05.225Z</time></trkpt><trkpt lat="42.2035726" lon="14.5796346"><ele>17.4</ele><time>2026-04-26T09:12:20.22Z</time></trkpt><trkpt lat="42.203599" lon="14.5797767"><ele>17.2</ele><time>2026-04-26T09:12:22.2Z</time></trkpt><trkpt lat="42.2035466" lon="14.5799132"><ele>17.0</ele><time>2026-04-26T09:12:24.232Z</time></trkpt><trkpt lat="42.2034763" lon="14.5799799"><ele>17.0</ele><time>2026-04-26T09:12:25.228Z</time></trkpt><trkpt lat="42.2034065" lon="14.5800589"><ele>17.0</ele><time>2026-04-26T09:12:26.201Z</time></trkpt><trkpt lat="42.2033519" lon="14.5801695"><ele>17.0</ele><time>2026-04-26T09:12:27.234Z</time></trkpt><trkpt lat="42.2032892" lon="14.5803039"><ele>17.0</ele><time>2026-04-26T09:12:28.216Z</time></trkpt><trkpt lat="42.2032121" lon="14.580426"><ele>17.0</ele><time>2026-04-26T09:12:29.23Z</time></trkpt><trkpt lat="42.2031296" lon="14.5805053"><ele>16.5</ele><time>2026-04-26T09:12:30.181Z</time></trkpt><trkpt lat="42.2030196" lon="14.5806041"><ele>16.0</ele><time>2026-04-26T09:12:31.179Z</time></trkpt><trkpt lat="42.2028881" lon="14.5807071"><ele>15.5</ele><time>2026-04-26T09:12:32.219Z</time></trkpt><trkpt lat="42.2027743" lon="14.5808024"><ele>15.0</ele><time>2026-04-26T09:12:33.231Z</time></trkpt><trkpt lat="42.2026722" lon="14.5808873"><ele>15.0</ele><time>2026-04-26T09:12:34.223Z</time></trkpt><trkpt lat="42.202607" lon="14.5809662"><ele>15.0</ele><time>2026-04-26T09:12:35.227Z</time></trkpt><trkpt lat="42.2025914" lon="14.5810553"><ele>15.0</ele><time>2026-04-26T09:12:36.239Z</time></trkpt><trkpt lat="42.2025868" lon="14.5811457"><ele>15.0</ele><time>2026-04-26T09:12:37.225Z</time></trkpt><trkpt lat="42.2026304" lon="14.5813018"><ele>15.0</ele><time>2026-04-26T09:12:39.192Z</time></trkpt><trkpt lat="42.2027014" lon="14.5814152"><ele>15.0</ele><time>2026-04-26T09:12:40.241Z</time></trkpt><trkpt lat="42.2027891" lon="14.5815756"><ele>15.0</ele><time>2026-04-26T09:12:41.22Z</time></trkpt><trkpt lat="42.2029089" lon="14.58177"><ele>15.0</ele><time>2026-04-26T09:12:42.236Z</time></trkpt><trkpt lat="42.2030227" lon="14.581974"><ele>14.333333333333332</ele><time>2026-04-26T09:12:43.223Z</time></trkpt><trkpt lat="42.2031397" lon="14.5821731"><ele>13.666666666666666</ele><time>2026-04-26T09:12:44.179Z</time></trkpt><trkpt lat="42.2032396" lon="14.5823561"><ele>13.0</ele><time>2026-04-26T09:12:45.181Z</time></trkpt><trkpt lat="42.2033345" lon="14.5825274"><ele>13.0</ele><time>2026-04-26T09:12:46.19Z</time></trkpt><trkpt lat="42.2034275" lon="14.5826956"><ele>13.0</ele><time>2026-04-26T09:12:47.208Z</time></trkpt><trkpt lat="42.2035141" lon="14.5828687"><ele>13.0</ele><time>2026-04-26T09:12:48.184Z</time></trkpt><trkpt lat="42.2035881" lon="14.5830355"><ele>12.8</ele><time>2026-04-26T09:12:49.2Z</time></trkpt><trkpt lat="42.2036453" lon="14.5831809"><ele>12.600000000000001</ele><time>2026-04-26T09:12:50.198Z</time></trkpt><trkpt lat="42.2036919" lon="14.5833168"><ele>12.399999999999999</ele><time>2026-04-26T09:12:51.21Z</time></trkpt><trkpt lat="42.2037292" lon="14.5834468"><ele>12.2</ele><time>2026-04-26T09:12:52.211Z</time></trkpt><trkpt lat="42.2037491" lon="14.5835564"><ele>12.0</ele><time>2026-04-26T09:12:53.24Z</time></trkpt><trkpt lat="42.2037622" lon="14.5836559"><ele>11.6</ele><time>2026-04-26T09:12:54.214Z</time></trkpt><trkpt lat="42.2037635" lon="14.5837515"><ele>11.2</ele><time>2026-04-26T09:12:55.22Z</time></trkpt><trkpt lat="42.2037631" lon="14.5838371"><ele>10.8</ele><time>2026-04-26T09:12:56.253Z</time></trkpt><trkpt lat="42.203758" lon="14.5839987"><ele>10.4</ele><time>2026-04-26T09:12:58.249Z</time></trkpt><trkpt lat="42.2037535" lon="14.5841477"><ele>10.0</ele><time>2026-04-26T09:13:00.19Z</time></trkpt><trkpt lat="42.2037479" lon="14.5842894"><ele>10.0</ele><time>2026-04-26T09:13:02.222Z</time></trkpt><trkpt lat="42.2037344" lon="14.5843836"><ele>10.0</ele><time>2026-04-26T09:13:03.206Z</time></trkpt><trkpt lat="42.2037234" lon="14.5844741"><ele>10.0</ele><time>2026-04-26T09:13:06.198Z</time></trkpt><trkpt lat="42.2036703" lon="14.5845264"><ele>10.0</ele><time>2026-04-26T09:13:24.21Z</time></trkpt><trkpt lat="42.2035802" lon="14.5844799"><ele>10.0</ele><time>2026-04-26T09:13:26.178Z</time></trkpt><trkpt lat="42.2035139" lon="14.584438"><ele>10.0</ele><time>2026-04-26T09:13:27.229Z</time></trkpt><trkpt lat="42.203434" lon="14.5843792"><ele>10.0</ele><time>2026-04-26T09:13:28.255Z</time></trkpt><trkpt lat="42.2033609" lon="14.5843232"><ele>10.0</ele><time>2026-04-26T09:13:29.245Z</time></trkpt><trkpt lat="42.2032931" lon="14.5842814"><ele>10.0</ele><time>2026-04-26T09:13:30.232Z</time></trkpt><trkpt lat="42.203218" lon="14.5842656"><ele>10.0</ele><time>2026-04-26T09:13:32.236Z</time></trkpt><trkpt lat="42.2031615" lon="14.5843421"><ele>10.0</ele><time>2026-04-26T09:13:33.241Z</time></trkpt><trkpt lat="42.2030911" lon="14.5844518"><ele>10.0</ele><time>2026-04-26T09:13:34.211Z</time></trkpt><trkpt lat="42.2030318" lon="14.5845484"><ele>10.25</ele><time>2026-04-26T09:13:35.189Z</time></trkpt><trkpt lat="42.2029633" lon="14.5846249"><ele>10.5</ele><time>2026-04-26T09:13:36.235Z</time></trkpt><trkpt lat="42.2028611" lon="14.5846916"><ele>10.75</ele><time>2026-04-26T09:13:37.176Z</time></trkpt><trkpt lat="42.2027254" lon="14.5847605"><ele>11.0</ele><time>2026-04-26T09:13:38.23Z</time></trkpt><trkpt lat="42.202582" lon="14.5848394"><ele>11.0</ele><time>2026-04-26T09:13:39.231Z</time></trkpt><trkpt lat="42.2024585" lon="14.5849095"><ele>11.0</ele><time>2026-04-26T09:13:40.24Z</time></trkpt><trkpt lat="42.202337" lon="14.5850084"><ele>11.0</ele><time>2026-04-26T09:13:41.179Z</time></trkpt><trkpt lat="42.202204" lon="14.5851478"><ele>11.0</ele><time>2026-04-26T09:13:42.237Z</time></trkpt><trkpt lat="42.2020929" lon="14.5853112"><ele>11.25</ele><time>2026-04-26T09:13:43.21Z</time></trkpt><trkpt lat="42.2019964" lon="14.5854656"><ele>11.5</ele><time>2026-04-26T09:13:44.216Z</time></trkpt><trkpt lat="42.2019093" lon="14.5856188"><ele>11.75</ele><time>2026-04-26T09:13:45.234Z</time></trkpt><trkpt lat="42.2018338" lon="14.5857822"><ele>12.0</ele><time>2026-04-26T09:13:46.228Z</time></trkpt><trkpt lat="42.2017766" lon="14.5859673"><ele>12.0</ele><time>2026-04-26T09:13:47.224Z</time></trkpt><trkpt lat="42.2017252" lon="14.5861777"><ele>12.0</ele><time>2026-04-26T09:13:48.2Z</time></trkpt><trkpt lat="42.2016782" lon="14.5864215"><ele>12.0</ele><time>2026-04-26T09:13:49.236Z</time></trkpt><trkpt lat="42.2016461" lon="14.5866508"><ele>12.0</ele><time>2026-04-26T09:13:50.228Z</time></trkpt><trkpt lat="42.2016205" lon="14.5868587"><ele>12.0</ele><time>2026-04-26T09:13:51.231Z</time></trkpt><trkpt lat="42.2016004" lon="14.587059"><ele>12.0</ele><time>2026-04-26T09:13:52.182Z</time></trkpt><trkpt lat="42.2015738" lon="14.5872591"><ele>12.0</ele><time>2026-04-26T09:13:53.178Z</time></trkpt><trkpt lat="42.2015452" lon="14.5874408"><ele>12.0</ele><time>2026-04-26T09:13:54.224Z</time></trkpt><trkpt lat="42.2015148" lon="14.587603"><ele>12.0</ele><time>2026-04-26T09:13:55.188Z</time></trkpt><trkpt lat="42.2014878" lon="14.5877278"><ele>12.0</ele><time>2026-04-26T09:13:56.189Z</time></trkpt><trkpt lat="42.2014579" lon="14.587828"><ele>12.0</ele><time>2026-04-26T09:13:57.22Z</time></trkpt><trkpt lat="42.2014161" lon="14.5879009"><ele>11.5</ele><time>2026-04-26T09:13:58.219Z</time></trkpt><trkpt lat="42.201355" lon="14.5879546"><ele>11.0</ele><time>2026-04-26T09:13:59.252Z</time></trkpt><trkpt lat="42.2012796" lon="14.5879712"><ele>10.5</ele><time>2026-04-26T09:14:00.234Z</time></trkpt><trkpt lat="42.2012078" lon="14.5880007"><ele>10.0</ele><time>2026-04-26T09:14:01.223Z</time></trkpt><trkpt lat="42.2011467" lon="14.588084"><ele>9.5</ele><time>2026-04-26T09:14:02.24Z</time></trkpt><trkpt lat="42.20108" lon="14.5881882"><ele>9.0</ele><time>2026-04-26T09:14:03.252Z</time></trkpt><trkpt lat="42.200995" lon="14.5882945"><ele>9.0</ele><time>2026-04-26T09:14:04.247Z</time></trkpt><trkpt lat="42.2008684" lon="14.5883892"><ele>9.0</ele><time>2026-04-26T09:14:05.234Z</time></trkpt><trkpt lat="42.2007347" lon="14.588488"><ele>9.0</ele><time>2026-04-26T09:14:06.252Z</time></trkpt><trkpt lat="42.2006145" lon="14.5885944"><ele>9.0</ele><time>2026-04-26T09:14:07.204Z</time></trkpt><trkpt lat="42.2005122" lon="14.5887304"><ele>9.25</ele><time>2026-04-26T09:14:08.177Z</time></trkpt><trkpt lat="42.2004221" lon="14.5888803"><ele>9.5</ele><time>2026-04-26T09:14:09.239Z</time></trkpt><trkpt lat="42.2003577" lon="14.5890367"><ele>9.75</ele><time>2026-04-26T09:14:10.234Z</time></trkpt><trkpt lat="42.2003204" lon="14.5892036"><ele>10.0</ele><time>2026-04-26T09:14:11.226Z</time></trkpt><trkpt lat="42.2002943" lon="14.5893661"><ele>9.75</ele><time>2026-04-26T09:14:12.227Z</time></trkpt><trkpt lat="42.2002731" lon="14.5895246"><ele>9.5</ele><time>2026-04-26T09:14:13.242Z</time></trkpt><trkpt lat="42.2002765" lon="14.5897129"><ele>9.25</ele><time>2026-04-26T09:14:14.223Z</time></trkpt><trkpt lat="42.2003078" lon="14.5899511"><ele>9.0</ele><time>2026-04-26T09:14:15.224Z</time></trkpt><trkpt lat="42.2003398" lon="14.5902006"><ele>8.25</ele><time>2026-04-26T09:14:16.18Z</time></trkpt><trkpt lat="42.2003605" lon="14.5903953"><ele>7.5</ele><time>2026-04-26T09:14:17.215Z</time></trkpt><trkpt lat="42.200373" lon="14.5905726"><ele>6.75</ele><time>2026-04-26T09:14:18.26Z</time></trkpt><trkpt lat="42.2003783" lon="14.5907556"><ele>6.0</ele><time>2026-04-26T09:14:19.248Z</time></trkpt><trkpt lat="42.2003729" lon="14.5909206"><ele>6.0</ele><time>2026-04-26T09:14:20.244Z</time></trkpt><trkpt lat="42.2003542" lon="14.5910595"><ele>6.0</ele><time>2026-04-26T09:14:21.216Z</time></trkpt><trkpt lat="42.2003196" lon="14.5911904"><ele>6.0</ele><time>2026-04-26T09:14:22.201Z</time></trkpt><trkpt lat="42.2002739" lon="14.5913176"><ele>6.0</ele><time>2026-04-26T09:14:23.244Z</time></trkpt><trkpt lat="42.2002236" lon="14.5914181"><ele>6.0</ele><time>2026-04-26T09:14:24.215Z</time></trkpt><trkpt lat="42.2001557" lon="14.5914777"><ele>6.199999999999999</ele><time>2026-04-26T09:14:25.198Z</time></trkpt><trkpt lat="42.2000715" lon="14.5915067"><ele>6.3999999999999995</ele><time>2026-04-26T09:14:26.218Z</time></trkpt><trkpt lat="42.1999722" lon="14.5915033"><ele>6.6</ele><time>2026-04-26T09:14:27.241Z</time></trkpt><trkpt lat="42.1998712" lon="14.591498"><ele>6.8</ele><time>2026-04-26T09:14:28.24Z</time></trkpt><trkpt lat="42.1997836" lon="14.5914968"><ele>7.0</ele><time>2026-04-26T09:14:29.242Z</time></trkpt><trkpt lat="42.1996998" lon="14.5914937"><ele>7.833333333333334</ele><time>2026-04-26T09:14:30.239Z</time></trkpt><trkpt lat="42.1996195" lon="14.5914801"><ele>8.666666666666668</ele><time>2026-04-26T09:14:31.202Z</time></trkpt><trkpt lat="42.1995458" lon="14.5914503"><ele>9.5</ele><time>2026-04-26T09:14:32.23Z</time></trkpt><trkpt lat="42.1994819" lon="14.5914155"><ele>10.333333333333334</ele><time>2026-04-26T09:14:33.239Z</time></trkpt><trkpt lat="42.1994025" lon="14.5913371"><ele>11.166666666666666</ele><time>2026-04-26T09:14:35.21Z</time></trkpt><trkpt lat="42.1993852" lon="14.5911916"><ele>12.0</ele><time>2026-04-26T09:14:37.251Z</time></trkpt><trkpt lat="42.1993337" lon="14.5910253"><ele>12.0</ele><time>2026-04-26T09:14:39.24Z</time></trkpt><trkpt lat="42.199288" lon="14.5909115"><ele>12.0</ele><time>2026-04-26T09:14:40.232Z</time></trkpt><trkpt lat="42.1992573" lon="14.5908182"><ele>12.0</ele><time>2026-04-26T09:14:41.223Z</time></trkpt><trkpt lat="42.1991821" lon="14.5907197"><ele>12.0</ele><time>2026-04-26T09:14:43.225Z</time></trkpt><trkpt lat="42.1991092" lon="14.5907051"><ele>12.0</ele><time>2026-04-26T09:14:44.214Z</time></trkpt><trkpt lat="42.1990113" lon="14.5907033"><ele>12.0</ele><time>2026-04-26T09:14:45.223Z</time></trkpt><trkpt lat="42.1989034" lon="14.5907107"><ele>14.25</ele><time>2026-04-26T09:14:46.248Z</time></trkpt><trkpt lat="42.1987838" lon="14.5907224"><ele>16.5</ele><time>2026-04-26T09:14:47.241Z</time></trkpt><trkpt lat="42.1986577" lon="14.5907318"><ele>18.75</ele><time>2026-04-26T09:14:48.239Z</time></trkpt><trkpt lat="42.1985235" lon="14.5907315"><ele>21.0</ele><time>2026-04-26T09:14:49.221Z</time></trkpt><trkpt lat="42.1983987" lon="14.5907246"><ele>21.0</ele><time>2026-04-26T09:14:50.175Z</time></trkpt><trkpt lat="42.1982742" lon="14.5907241"><ele>21.0</ele><time>2026-04-26T09:14:51.236Z</time></trkpt><trkpt lat="42.198152" lon="14.5907244"><ele>21.0</ele><time>2026-04-26T09:14:52.223Z</time></trkpt><trkpt lat="42.1980383" lon="14.59073"><ele>21.0</ele><time>2026-04-26T09:14:53.228Z</time></trkpt><trkpt lat="42.1979294" lon="14.5907326"><ele>23.0</ele><time>2026-04-26T09:14:54.237Z</time></trkpt><trkpt lat="42.1978343" lon="14.5907349"><ele>25.0</ele><time>2026-04-26T09:14:55.216Z</time></trkpt><trkpt lat="42.197739" lon="14.5907459"><ele>27.0</ele><time>2026-04-26T09:14:56.182Z</time></trkpt><trkpt lat="42.1976117" lon="14.5907541"><ele>29.0</ele><time>2026-04-26T09:14:57.223Z</time></trkpt><trkpt lat="42.1974502" lon="14.5907472"><ele>34.0</ele><time>2026-04-26T09:14:58.247Z</time></trkpt><trkpt lat="42.1972675" lon="14.5907375"><ele>39.0</ele><time>2026-04-26T09:14:59.218Z</time></trkpt><trkpt lat="42.1970976" lon="14.5907318"><ele>44.0</ele><time>2026-04-26T09:15:00.252Z</time></trkpt><trkpt lat="42.1969455" lon="14.5907363"><ele>44.0</ele><time>2026-04-26T09:15:01.221Z</time></trkpt><trkpt lat="42.1968179" lon="14.5907299"><ele>44.0</ele><time>2026-04-26T09:15:02.229Z</time></trkpt><trkpt lat="42.1967221" lon="14.5907281"><ele>44.0</ele><time>2026-04-26T09:15:03.245Z</time></trkpt><trkpt lat="42.196637" lon="14.5907335"><ele>44.0</ele><time>2026-04-26T09:15:04.22Z</time></trkpt><trkpt lat="42.1965665" lon="14.5907352"><ele>44.0</ele><time>2026-04-26T09:15:05.232Z</time></trkpt><trkpt lat="42.1964836" lon="14.5905644"><ele>52.25</ele><time>2026-04-26T09:15:07.224Z</time></trkpt><trkpt lat="42.196446" lon="14.5903861"><ele>60.5</ele><time>2026-04-26T09:15:08.242Z</time></trkpt><trkpt lat="42.1964186" lon="14.5902104"><ele>68.75</ele><time>2026-04-26T09:15:09.226Z</time></trkpt><trkpt lat="42.1964044" lon="14.5900646"><ele>77.0</ele><time>2026-04-26T09:15:10.208Z</time></trkpt><trkpt lat="42.1964064" lon="14.589929"><ele>77.25</ele><time>2026-04-26T09:15:11.227Z</time></trkpt><trkpt lat="42.1963884" lon="14.5897614"><ele>77.5</ele><time>2026-04-26T09:15:12.218Z</time></trkpt><trkpt lat="42.1963529" lon="14.5895713"><ele>77.75</ele><time>2026-04-26T09:15:13.209Z</time></trkpt><trkpt lat="42.1963116" lon="14.5894084"><ele>78.0</ele><time>2026-04-26T09:15:14.212Z</time></trkpt><trkpt lat="42.1962815" lon="14.5893038"><ele>76.8</ele><time>2026-04-26T09:15:15.219Z</time></trkpt><trkpt lat="42.1961998" lon="14.5892119"><ele>75.6</ele><time>2026-04-26T09:15:17.19Z</time></trkpt><trkpt lat="42.1960796" lon="14.589192"><ele>74.4</ele><time>2026-04-26T09:15:19.218Z</time></trkpt><trkpt lat="42.1959767" lon="14.5891691"><ele>73.2</ele><time>2026-04-26T09:15:21.232Z</time></trkpt><trkpt lat="42.1958838" lon="14.589141"><ele>72.0</ele><time>2026-04-26T09:15:23.188Z</time></trkpt><trkpt lat="42.1958395" lon="14.5889748"><ele>72.0</ele><time>2026-04-26T09:15:25.237Z</time></trkpt><trkpt lat="42.1958369" lon="14.5888792"><ele>72.0</ele><time>2026-04-26T09:15:26.243Z</time></trkpt><trkpt lat="42.1958301" lon="14.5887276"><ele>72.0</ele><time>2026-04-26T09:15:28.22Z</time></trkpt><trkpt lat="42.1957458" lon="14.5885456"><ele>72.0</ele><time>2026-04-26T09:15:30.217Z</time></trkpt><trkpt lat="42.1956902" lon="14.5884075"><ele>74.2</ele><time>2026-04-26T09:15:31.211Z</time></trkpt><trkpt lat="42.1956688" lon="14.5882567"><ele>76.4</ele><time>2026-04-26T09:15:32.213Z</time></trkpt><trkpt lat="42.1956587" lon="14.5881164"><ele>78.60000000000001</ele><time>2026-04-26T09:15:33.21Z</time></trkpt><trkpt lat="42.1956598" lon="14.5880023"><ele>80.80000000000001</ele><time>2026-04-26T09:15:34.237Z</time></trkpt><trkpt lat="42.1956518" lon="14.5878679"><ele>83.0</ele><time>2026-04-26T09:15:36.2Z</time></trkpt><trkpt lat="42.1955831" lon="14.5877761"><ele>83.0</ele><time>2026-04-26T09:15:38.175Z</time></trkpt><trkpt lat="42.1955131" lon="14.5876948"><ele>83.0</ele><time>2026-04-26T09:15:39.247Z</time></trkpt><trkpt lat="42.1953931" lon="14.5875724"><ele>83.0</ele><time>2026-04-26T09:15:40.225Z</time></trkpt><trkpt lat="42.1952717" lon="14.5874433"><ele>83.0</ele><time>2026-04-26T09:15:41.221Z</time></trkpt><trkpt lat="42.1951618" lon="14.5873182"><ele>83.0</ele><time>2026-04-26T09:15:42.165Z</time></trkpt><trkpt lat="42.1951253" lon="14.5872118"><ele>83.0</ele><time>2026-04-26T09:15:46.206Z</time></trkpt><trkpt lat="42.1951178" lon="14.5870373"><ele>83.0</ele><time>2026-04-26T09:15:48.238Z</time></trkpt><trkpt lat="42.195096" lon="14.5868815"><ele>83.0</ele><time>2026-04-26T09:15:49.223Z</time></trkpt><trkpt lat="42.1950639" lon="14.5867233"><ele>83.0</ele><time>2026-04-26T09:15:50.225Z</time></trkpt><trkpt lat="42.1950466" lon="14.5865677"><ele>83.0</ele><time>2026-04-26T09:15:51.218Z</time></trkpt><trkpt lat="42.1950343" lon="14.5864194"><ele>83.0</ele><time>2026-04-26T09:15:52.223Z</time></trkpt><trkpt lat="42.1950271" lon="14.5862572"><ele>83.0</ele><time>2026-04-26T09:15:53.182Z</time></trkpt><trkpt lat="42.1950165" lon="14.5860659"><ele>83.5</ele><time>2026-04-26T09:15:54.229Z</time></trkpt><trkpt lat="42.1949795" lon="14.5858742"><ele>84.0</ele><time>2026-04-26T09:15:55.22Z</time></trkpt><trkpt lat="42.1949375" lon="14.585707"><ele>84.5</ele><time>2026-04-26T09:15:56.222Z</time></trkpt><trkpt lat="42.1948985" lon="14.5855228"><ele>85.0</ele><time>2026-04-26T09:15:57.226Z</time></trkpt><trkpt lat="42.1948817" lon="14.5853384"><ele>85.2</ele><time>2026-04-26T09:15:58.229Z</time></trkpt><trkpt lat="42.1948944" lon="14.5851626"><ele>85.4</ele><time>2026-04-26T09:15:59.23Z</time></trkpt><trkpt lat="42.1949256" lon="14.5849962"><ele>85.6</ele><time>2026-04-26T09:16:00.245Z</time></trkpt><trkpt lat="42.194946" lon="14.5848675"><ele>85.8</ele><time>2026-04-26T09:16:01.228Z</time></trkpt><trkpt lat="42.1949516" lon="14.5847708"><ele>86.0</ele><time>2026-04-26T09:16:02.227Z</time></trkpt><trkpt lat="42.1949363" lon="14.584663"><ele>86.0</ele><time>2026-04-26T09:16:03.292Z</time></trkpt><trkpt lat="42.1948962" lon="14.584525"><ele>86.0</ele><time>2026-04-26T09:16:04.23Z</time></trkpt><trkpt lat="42.1948365" lon="14.5843961"><ele>86.0</ele><time>2026-04-26T09:16:05.23Z</time></trkpt><trkpt lat="42.1947715" lon="14.5842562"><ele>86.0</ele><time>2026-04-26T09:16:06.23Z</time></trkpt><trkpt lat="42.1947012" lon="14.5841347"><ele>86.25</ele><time>2026-04-26T09:16:07.238Z</time></trkpt><trkpt lat="42.1946128" lon="14.5840112"><ele>86.5</ele><time>2026-04-26T09:16:08.264Z</time></trkpt><trkpt lat="42.1945006" lon="14.5838801"><ele>86.75</ele><time>2026-04-26T09:16:09.246Z</time></trkpt><trkpt lat="42.1943688" lon="14.5837364"><ele>87.0</ele><time>2026-04-26T09:16:10.217Z</time></trkpt><trkpt lat="42.19423" lon="14.5835966"><ele>87.0</ele><time>2026-04-26T09:16:11.233Z</time></trkpt><trkpt lat="42.194106" lon="14.5834787"><ele>87.0</ele><time>2026-04-26T09:16:12.235Z</time></trkpt><trkpt lat="42.1940122" lon="14.583387"><ele>87.0</ele><time>2026-04-26T09:16:13.232Z</time></trkpt><trkpt lat="42.1939288" lon="14.5833079"><ele>87.0</ele><time>2026-04-26T09:16:14.224Z</time></trkpt><trkpt lat="42.1938661" lon="14.5832338"><ele>88.39999999999999</ele><time>2026-04-26T09:16:15.229Z</time></trkpt><trkpt lat="42.1938231" lon="14.5831202"><ele>89.8</ele><time>2026-04-26T09:16:17.166Z</time></trkpt><trkpt lat="42.1938022" lon="14.5830293"><ele>91.2</ele><time>2026-04-26T09:16:19.193Z</time></trkpt><trkpt lat="42.1937549" lon="14.5829262"><ele>92.6</ele><time>2026-04-26T09:16:21.209Z</time></trkpt><trkpt lat="42.1936908" lon="14.5828233"><ele>94.0</ele><time>2026-04-26T09:16:23.224Z</time></trkpt><trkpt lat="42.1935774" lon="14.582731"><ele>94.0</ele><time>2026-04-26T09:16:25.231Z</time></trkpt><trkpt lat="42.1934834" lon="14.582633"><ele>94.0</ele><time>2026-04-26T09:16:26.231Z</time></trkpt><trkpt lat="42.1933595" lon="14.5825127"><ele>94.0</ele><time>2026-04-26T09:16:27.198Z</time></trkpt><trkpt lat="42.1932486" lon="14.5824265"><ele>94.0</ele><time>2026-04-26T09:16:28.21Z</time></trkpt><trkpt lat="42.193166" lon="14.5823765"><ele>95.0</ele><time>2026-04-26T09:16:29.214Z</time></trkpt><trkpt lat="42.1930666" lon="14.5822772"><ele>96.0</ele><time>2026-04-26T09:16:31.221Z</time></trkpt><trkpt lat="42.1930443" lon="14.5821707"><ele>97.0</ele><time>2026-04-26T09:16:32.193Z</time></trkpt><trkpt lat="42.1930019" lon="14.5820275"><ele>98.0</ele><time>2026-04-26T09:16:33.222Z</time></trkpt><trkpt lat="42.1929454" lon="14.5818716"><ele>99.0</ele><time>2026-04-26T09:16:34.234Z</time></trkpt><trkpt lat="42.192884" lon="14.5816893"><ele>99.0</ele><time>2026-04-26T09:16:35.236Z</time></trkpt><trkpt lat="42.1928222" lon="14.5814944"><ele>99.0</ele><time>2026-04-26T09:16:36.23Z</time></trkpt><trkpt lat="42.1927779" lon="14.5813276"><ele>99.0</ele><time>2026-04-26T09:16:37.212Z</time></trkpt><trkpt lat="42.1927342" lon="14.5812178"><ele>99.0</ele><time>2026-04-26T09:16:38.23Z</time></trkpt><trkpt lat="42.1926754" lon="14.5811284"><ele>99.75</ele><time>2026-04-26T09:16:39.199Z</time></trkpt><trkpt lat="42.1925758" lon="14.5810411"><ele>100.5</ele><time>2026-04-26T09:16:40.237Z</time></trkpt><trkpt lat="42.1924291" lon="14.5809493"><ele>101.25</ele><time>2026-04-26T09:16:41.208Z</time></trkpt><trkpt lat="42.1922938" lon="14.5808758"><ele>102.0</ele><time>2026-04-26T09:16:42.205Z</time></trkpt><trkpt lat="42.1921866" lon="14.580819"><ele>102.0</ele><time>2026-04-26T09:16:43.226Z</time></trkpt><trkpt lat="42.1920566" lon="14.5807377"><ele>102.0</ele><time>2026-04-26T09:16:44.23Z</time></trkpt><trkpt lat="42.1919365" lon="14.5806723"><ele>102.0</ele><time>2026-04-26T09:16:45.227Z</time></trkpt><trkpt lat="42.1918327" lon="14.5806298"><ele>102.0</ele><time>2026-04-26T09:16:46.229Z</time></trkpt><trkpt lat="42.1917324" lon="14.580603"><ele>102.0</ele><time>2026-04-26T09:16:47.193Z</time></trkpt><trkpt lat="42.1916363" lon="14.5805954"><ele>102.0</ele><time>2026-04-26T09:16:48.237Z</time></trkpt><trkpt lat="42.1915451" lon="14.5805362"><ele>102.0</ele><time>2026-04-26T09:16:50.236Z</time></trkpt><trkpt lat="42.1914763" lon="14.5804419"><ele>102.0</ele><time>2026-04-26T09:16:52.18Z</time></trkpt><trkpt lat="42.1914023" lon="14.5804372"><ele>102.0</ele><time>2026-04-26T09:16:54.192Z</time></trkpt><trkpt lat="42.191357" lon="14.5805023"><ele>102.0</ele><time>2026-04-26T09:16:55.223Z</time></trkpt><trkpt lat="42.1912574" lon="14.5806283"><ele>102.5</ele><time>2026-04-26T09:16:57.208Z</time></trkpt><trkpt lat="42.1911684" lon="14.5807035"><ele>103.0</ele><time>2026-04-26T09:16:58.222Z</time></trkpt><trkpt lat="42.1910654" lon="14.5807958"><ele>103.5</ele><time>2026-04-26T09:16:59.2Z</time></trkpt><trkpt lat="42.190958" lon="14.5808848"><ele>104.0</ele><time>2026-04-26T09:17:00.245Z</time></trkpt><trkpt lat="42.1908645" lon="14.5809704"><ele>103.99999999999999</ele><time>2026-04-26T09:17:01.245Z</time></trkpt><trkpt lat="42.1907837" lon="14.5810399"><ele>104.0</ele><time>2026-04-26T09:17:02.219Z</time></trkpt><trkpt lat="42.1907142" lon="14.581108"><ele>104.0</ele><time>2026-04-26T09:17:03.239Z</time></trkpt><trkpt lat="42.1906505" lon="14.5811681"><ele>104.0</ele><time>2026-04-26T09:17:04.218Z</time></trkpt><trkpt lat="42.1905955" lon="14.5812185"><ele>103.99999999999999</ele><time>2026-04-26T09:17:05.242Z</time></trkpt><trkpt lat="42.1904963" lon="14.5812373"><ele>104.0</ele><time>2026-04-26T09:17:07.232Z</time></trkpt><trkpt lat="42.1904106" lon="14.581149"><ele>104.2</ele><time>2026-04-26T09:17:09.253Z</time></trkpt><trkpt lat="42.1903819" lon="14.581071"><ele>104.4</ele><time>2026-04-26T09:17:10.213Z</time></trkpt><trkpt lat="42.1903201" lon="14.5809775"><ele>104.6</ele><time>2026-04-26T09:17:12.237Z</time></trkpt><trkpt lat="42.1902176" lon="14.580943"><ele>104.8</ele><time>2026-04-26T09:17:14.178Z</time></trkpt><trkpt lat="42.1901153" lon="14.5808352"><ele>105.0</ele><time>2026-04-26T09:17:16.217Z</time></trkpt><trkpt lat="42.1900654" lon="14.5807408"><ele>105.0</ele><time>2026-04-26T09:17:17.243Z</time></trkpt><trkpt lat="42.1900061" lon="14.580634"><ele>105.0</ele><time>2026-04-26T09:17:18.23Z</time></trkpt><trkpt lat="42.1899542" lon="14.5805204"><ele>105.0</ele><time>2026-04-26T09:17:19.251Z</time></trkpt><trkpt lat="42.1899065" lon="14.5804133"><ele>105.0</ele><time>2026-04-26T09:17:20.223Z</time></trkpt><trkpt lat="42.189858" lon="14.5803125"><ele>105.0</ele><time>2026-04-26T09:17:21.237Z</time></trkpt><trkpt lat="42.1898079" lon="14.580209"><ele>105.33333333333333</ele><time>2026-04-26T09:17:22.224Z</time></trkpt><trkpt lat="42.1897568" lon="14.5801049"><ele>105.66666666666666</ele><time>2026-04-26T09:17:23.233Z</time></trkpt><trkpt lat="42.1897063" lon="14.5799938"><ele>106.0</ele><time>2026-04-26T09:17:24.227Z</time></trkpt><trkpt lat="42.189655" lon="14.5798811"><ele>106.33333333333333</ele><time>2026-04-26T09:17:25.216Z</time></trkpt><trkpt lat="42.1896189" lon="14.5797871"><ele>106.66666666666666</ele><time>2026-04-26T09:17:26.249Z</time></trkpt><trkpt lat="42.1895669" lon="14.5797078"><ele>107.0</ele><time>2026-04-26T09:17:28.237Z</time></trkpt><trkpt lat="42.1894865" lon="14.5797667"><ele>107.0</ele><time>2026-04-26T09:17:30.21Z</time></trkpt><trkpt lat="42.1894327" lon="14.5798253"><ele>106.99999999999999</ele><time>2026-04-26T09:17:31.242Z</time></trkpt><trkpt lat="42.1893527" lon="14.5798925"><ele>106.99999999999999</ele><time>2026-04-26T09:17:32.246Z</time></trkpt><trkpt lat="42.1892525" lon="14.5799805"><ele>107.0</ele><time>2026-04-26T09:17:33.216Z</time></trkpt><trkpt lat="42.1891285" lon="14.5800983"><ele>107.0</ele><time>2026-04-26T09:17:34.232Z</time></trkpt><trkpt lat="42.1890109" lon="14.5802139"><ele>106.0</ele><time>2026-04-26T09:17:35.234Z</time></trkpt><trkpt lat="42.1888961" lon="14.5803255"><ele>105.0</ele><time>2026-04-26T09:17:36.241Z</time></trkpt><trkpt lat="42.1887664" lon="14.5804398"><ele>104.0</ele><time>2026-04-26T09:17:37.22Z</time></trkpt><trkpt lat="42.1886319" lon="14.5805605"><ele>102.5</ele><time>2026-04-26T09:17:38.24Z</time></trkpt><trkpt lat="42.1885117" lon="14.5806701"><ele>101.0</ele><time>2026-04-26T09:17:39.235Z</time></trkpt><trkpt lat="42.1884143" lon="14.580764"><ele>99.5</ele><time>2026-04-26T09:17:40.262Z</time></trkpt><trkpt lat="42.1883267" lon="14.580847"><ele>98.0</ele><time>2026-04-26T09:17:41.234Z</time></trkpt><trkpt lat="42.1882384" lon="14.5809433"><ele>96.25</ele><time>2026-04-26T09:17:42.247Z</time></trkpt><trkpt lat="42.1881481" lon="14.5810574"><ele>94.5</ele><time>2026-04-26T09:17:43.223Z</time></trkpt><trkpt lat="42.188053" lon="14.5811841"><ele>92.75</ele><time>2026-04-26T09:17:44.216Z</time></trkpt><trkpt lat="42.1879618" lon="14.5813077"><ele>91.0</ele><time>2026-04-26T09:17:45.24Z</time></trkpt><trkpt lat="42.187874" lon="14.5814265"><ele>89.4</ele><time>2026-04-26T09:17:46.208Z</time></trkpt><trkpt lat="42.1877958" lon="14.5815457"><ele>87.8</ele><time>2026-04-26T09:17:47.225Z</time></trkpt><trkpt lat="42.187722" lon="14.5816578"><ele>86.2</ele><time>2026-04-26T09:17:48.226Z</time></trkpt><trkpt lat="42.187651" lon="14.5817567"><ele>84.60000000000001</ele><time>2026-04-26T09:17:49.243Z</time></trkpt><trkpt lat="42.1875842" lon="14.5818387"><ele>83.0</ele><time>2026-04-26T09:17:50.209Z</time></trkpt><trkpt lat="42.1875271" lon="14.5819126"><ele>83.0</ele><time>2026-04-26T09:17:51.194Z</time></trkpt><trkpt lat="42.1874812" lon="14.5820113"><ele>83.0</ele><time>2026-04-26T09:17:53.212Z</time></trkpt><trkpt lat="42.1875157" lon="14.5821146"><ele>83.0</ele><time>2026-04-26T09:17:55.178Z</time></trkpt><trkpt lat="42.1876204" lon="14.5822193"><ele>83.0</ele><time>2026-04-26T09:17:56.222Z</time></trkpt><trkpt lat="42.1877544" lon="14.5823456"><ele>85.25</ele><time>2026-04-26T09:17:57.236Z</time></trkpt><trkpt lat="42.1878618" lon="14.5824646"><ele>87.5</ele><time>2026-04-26T09:17:58.233Z</time></trkpt><trkpt lat="42.1879605" lon="14.5826187"><ele>89.75</ele><time>2026-04-26T09:17:59.227Z</time></trkpt><trkpt lat="42.1880428" lon="14.5827658"><ele>92.0</ele><time>2026-04-26T09:18:00.179Z</time></trkpt><trkpt lat="42.1881274" lon="14.5828927"><ele>91.25</ele><time>2026-04-26T09:18:01.215Z</time></trkpt><trkpt lat="42.1882187" lon="14.583005"><ele>90.5</ele><time>2026-04-26T09:18:02.228Z</time></trkpt><trkpt lat="42.1883208" lon="14.5830987"><ele>89.75</ele><time>2026-04-26T09:18:03.224Z</time></trkpt><trkpt lat="42.1884289" lon="14.5831727"><ele>89.0</ele><time>2026-04-26T09:18:04.243Z</time></trkpt><trkpt lat="42.1885628" lon="14.5832272"><ele>89.0</ele><time>2026-04-26T09:18:05.219Z</time></trkpt><trkpt lat="42.1886967" lon="14.5832778"><ele>89.0</ele><time>2026-04-26T09:18:06.184Z</time></trkpt><trkpt lat="42.1888051" lon="14.5833277"><ele>89.0</ele><time>2026-04-26T09:18:07.224Z</time></trkpt><trkpt lat="42.1889036" lon="14.5834158"><ele>89.0</ele><time>2026-04-26T09:18:08.219Z</time></trkpt><trkpt lat="42.1890141" lon="14.5835607"><ele>86.0</ele><time>2026-04-26T09:18:09.23Z</time></trkpt><trkpt lat="42.1891205" lon="14.5837349"><ele>83.0</ele><time>2026-04-26T09:18:10.227Z</time></trkpt><trkpt lat="42.1892028" lon="14.5838984"><ele>80.0</ele><time>2026-04-26T09:18:11.219Z</time></trkpt><trkpt lat="42.1892743" lon="14.5840689"><ele>80.0</ele><time>2026-04-26T09:18:12.209Z</time></trkpt><trkpt lat="42.1893453" lon="14.5842552"><ele>80.0</ele><time>2026-04-26T09:18:13.2Z</time></trkpt><trkpt lat="42.189434" lon="14.5844326"><ele>80.0</ele><time>2026-04-26T09:18:14.224Z</time></trkpt><trkpt lat="42.1895267" lon="14.5845885"><ele>81.2</ele><time>2026-04-26T09:18:15.237Z</time></trkpt><trkpt lat="42.1896021" lon="14.5847354"><ele>82.4</ele><time>2026-04-26T09:18:16.239Z</time></trkpt><trkpt lat="42.1896472" lon="14.584864"><ele>83.6</ele><time>2026-04-26T09:18:17.217Z</time></trkpt><trkpt lat="42.1896569" lon="14.5849548"><ele>84.8</ele><time>2026-04-26T09:18:18.217Z</time></trkpt><trkpt lat="42.1896297" lon="14.5850937"><ele>86.0</ele><time>2026-04-26T09:18:20.187Z</time></trkpt><trkpt lat="42.1896104" lon="14.5851884"><ele>86.0</ele><time>2026-04-26T09:18:21.206Z</time></trkpt><trkpt lat="42.1896469" lon="14.5853253"><ele>86.0</ele><time>2026-04-26T09:18:22.236Z</time></trkpt><trkpt lat="42.189727" lon="14.5854917"><ele>86.0</ele><time>2026-04-26T09:18:23.215Z</time></trkpt><trkpt lat="42.1898367" lon="14.5856596"><ele>86.0</ele><time>2026-04-26T09:18:24.228Z</time></trkpt><trkpt lat="42.1899305" lon="14.5858056"><ele>85.4</ele><time>2026-04-26T09:18:25.206Z</time></trkpt><trkpt lat="42.1900051" lon="14.5859031"><ele>84.8</ele><time>2026-04-26T09:18:26.231Z</time></trkpt><trkpt lat="42.1900741" lon="14.5859676"><ele>84.2</ele><time>2026-04-26T09:18:27.183Z</time></trkpt><trkpt lat="42.1901781" lon="14.586035"><ele>83.60000000000001</ele><time>2026-04-26T09:18:28.214Z</time></trkpt><trkpt lat="42.190295" lon="14.5861126"><ele>83.0</ele><time>2026-04-26T09:18:29.228Z</time></trkpt><trkpt lat="42.190396" lon="14.5862244"><ele>83.0</ele><time>2026-04-26T09:18:30.213Z</time></trkpt><trkpt lat="42.1904837" lon="14.5863695"><ele>83.0</ele><time>2026-04-26T09:18:31.222Z</time></trkpt><trkpt lat="42.1905724" lon="14.5865464"><ele>83.0</ele><time>2026-04-26T09:18:32.241Z</time></trkpt><trkpt lat="42.1906633" lon="14.5867018"><ele>83.0</ele><time>2026-04-26T09:18:33.235Z</time></trkpt><trkpt lat="42.1907332" lon="14.5868217"><ele>81.0</ele><time>2026-04-26T09:18:34.235Z</time></trkpt><trkpt lat="42.1907782" lon="14.5869258"><ele>79.0</ele><time>2026-04-26T09:18:35.22Z</time></trkpt><trkpt lat="42.1908086" lon="14.5870139"><ele>77.0</ele><time>2026-04-26T09:18:36.174Z</time></trkpt><trkpt lat="42.1907953" lon="14.5871366"><ele>75.0</ele><time>2026-04-26T09:18:37.214Z</time></trkpt><trkpt lat="42.1907467" lon="14.5873099"><ele>73.0</ele><time>2026-04-26T09:18:38.211Z</time></trkpt><trkpt lat="42.1906893" lon="14.5875243"><ele>72.4</ele><time>2026-04-26T09:18:39.227Z</time></trkpt><trkpt lat="42.1906386" lon="14.5876637"><ele>71.8</ele><time>2026-04-26T09:18:40.227Z</time></trkpt><trkpt lat="42.1906211" lon="14.5877531"><ele>71.2</ele><time>2026-04-26T09:18:41.219Z</time></trkpt><trkpt lat="42.1906323" lon="14.587851"><ele>70.6</ele><time>2026-04-26T09:18:42.221Z</time></trkpt><trkpt lat="42.1906726" lon="14.5879921"><ele>70.0</ele><time>2026-04-26T09:18:43.178Z</time></trkpt><trkpt lat="42.19073" lon="14.5881106"><ele>70.0</ele><time>2026-04-26T09:18:44.213Z</time></trkpt><trkpt lat="42.1907807" lon="14.5881779"><ele>70.0</ele><time>2026-04-26T09:18:45.221Z</time></trkpt><trkpt lat="42.1908813" lon="14.5882263"><ele>70.0</ele><time>2026-04-26T09:18:47.187Z</time></trkpt><trkpt lat="42.1909565" lon="14.5882361"><ele>70.0</ele><time>2026-04-26T09:18:48.2Z</time></trkpt><trkpt lat="42.1910344" lon="14.588262"><ele>70.0</ele><time>2026-04-26T09:18:50.192Z</time></trkpt><trkpt lat="42.1910631" lon="14.5884086"><ele>70.0</ele><time>2026-04-26T09:18:58.223Z</time></trkpt><trkpt lat="42.1910945" lon="14.5885063"><ele>70.0</ele><time>2026-04-26T09:18:59.233Z</time></trkpt><trkpt lat="42.191145" lon="14.5886513"><ele>70.0</ele><time>2026-04-26T09:19:00.241Z</time></trkpt><trkpt lat="42.1911998" lon="14.5888491"><ele>70.0</ele><time>2026-04-26T09:19:01.181Z</time></trkpt><trkpt lat="42.1912581" lon="14.5890224"><ele>70.0</ele><time>2026-04-26T09:19:02.229Z</time></trkpt><trkpt lat="42.1913071" lon="14.5891618"><ele>70.75</ele><time>2026-04-26T09:19:03.194Z</time></trkpt><trkpt lat="42.1913535" lon="14.5892817"><ele>71.5</ele><time>2026-04-26T09:19:04.2Z</time></trkpt><trkpt lat="42.1914328" lon="14.5894381"><ele>72.25</ele><time>2026-04-26T09:19:05.243Z</time></trkpt><trkpt lat="42.1915126" lon="14.5896178"><ele>73.0</ele><time>2026-04-26T09:19:06.186Z</time></trkpt><trkpt lat="42.1915694" lon="14.5897572"><ele>73.0</ele><time>2026-04-26T09:19:07.2Z</time></trkpt><trkpt lat="42.1916045" lon="14.5898574"><ele>73.0</ele><time>2026-04-26T09:19:08.219Z</time></trkpt><trkpt lat="42.1916218" lon="14.5899467"><ele>73.0</ele><time>2026-04-26T09:19:09.227Z</time></trkpt><trkpt lat="42.1916108" lon="14.5900641"><ele>73.0</ele><time>2026-04-26T09:19:10.227Z</time></trkpt><trkpt lat="42.1915679" lon="14.5901974"><ele>73.0</ele><time>2026-04-26T09:19:11.206Z</time></trkpt><trkpt lat="42.1915033" lon="14.5903616"><ele>71.2</ele><time>2026-04-26T09:19:12.216Z</time></trkpt><trkpt lat="42.1914431" lon="14.5905066"><ele>69.4</ele><time>2026-04-26T09:19:13.217Z</time></trkpt><trkpt lat="42.1913982" lon="14.590623"><ele>67.60000000000001</ele><time>2026-04-26T09:19:14.219Z</time></trkpt><trkpt lat="42.191367" lon="14.590757"><ele>65.8</ele><time>2026-04-26T09:19:15.244Z</time></trkpt><trkpt lat="42.1913373" lon="14.5908902"><ele>64.0</ele><time>2026-04-26T09:19:16.246Z</time></trkpt><trkpt lat="42.1912889" lon="14.5910025"><ele>64.0</ele><time>2026-04-26T09:19:17.252Z</time></trkpt><trkpt lat="42.1912439" lon="14.5910984"><ele>64.0</ele><time>2026-04-26T09:19:18.236Z</time></trkpt><trkpt lat="42.1912175" lon="14.591178"><ele>64.0</ele><time>2026-04-26T09:19:19.222Z</time></trkpt><trkpt lat="42.1912198" lon="14.5913725"><ele>64.0</ele><time>2026-04-26T09:19:21.239Z</time></trkpt><trkpt lat="42.1912609" lon="14.5914941"><ele>64.0</ele><time>2026-04-26T09:19:22.215Z</time></trkpt><trkpt lat="42.1913317" lon="14.5916267"><ele>63.6</ele><time>2026-04-26T09:19:23.237Z</time></trkpt><trkpt lat="42.1913988" lon="14.5917561"><ele>63.2</ele><time>2026-04-26T09:19:24.185Z</time></trkpt><trkpt lat="42.1914179" lon="14.5918704"><ele>62.800000000000004</ele><time>2026-04-26T09:19:25.217Z</time></trkpt><trkpt lat="42.1913928" lon="14.591988"><ele>62.400000000000006</ele><time>2026-04-26T09:19:26.233Z</time></trkpt><trkpt lat="42.191328" lon="14.5921432"><ele>62.0</ele><time>2026-04-26T09:19:27.226Z</time></trkpt><trkpt lat="42.1912361" lon="14.5923414"><ele>61.333333333333336</ele><time>2026-04-26T09:19:28.241Z</time></trkpt><trkpt lat="42.191155" lon="14.5925409"><ele>60.66666666666667</ele><time>2026-04-26T09:19:29.225Z</time></trkpt><trkpt lat="42.191092" lon="14.5927482"><ele>60.0</ele><time>2026-04-26T09:19:30.2Z</time></trkpt><trkpt lat="42.1910336" lon="14.5929707"><ele>59.0</ele><time>2026-04-26T09:19:31.209Z</time></trkpt><trkpt lat="42.1909909" lon="14.5932069"><ele>58.0</ele><time>2026-04-26T09:19:32.228Z</time></trkpt><trkpt lat="42.1909556" lon="14.5934073"><ele>57.0</ele><time>2026-04-26T09:19:33.239Z</time></trkpt><trkpt lat="42.1908968" lon="14.593582"><ele>57.25</ele><time>2026-04-26T09:19:34.222Z</time></trkpt><trkpt lat="42.1908128" lon="14.5937293"><ele>57.5</ele><time>2026-04-26T09:19:35.23Z</time></trkpt><trkpt lat="42.1907382" lon="14.5938581"><ele>57.75</ele><time>2026-04-26T09:19:36.22Z</time></trkpt><trkpt lat="42.1906914" lon="14.5939801"><ele>58.0</ele><time>2026-04-26T09:19:37.239Z</time></trkpt><trkpt lat="42.1906739" lon="14.5940988"><ele>57.83333333333333</ele><time>2026-04-26T09:19:38.232Z</time></trkpt><trkpt lat="42.1906733" lon="14.5942087"><ele>57.666666666666664</ele><time>2026-04-26T09:19:39.229Z</time></trkpt><trkpt lat="42.1906274" lon="14.5942872"><ele>57.5</ele><time>2026-04-26T09:19:42.23Z</time></trkpt><trkpt lat="42.1906005" lon="14.5943651"><ele>57.33333333333333</ele><time>2026-04-26T09:19:48.218Z</time></trkpt><trkpt lat="42.1906408" lon="14.5944785"><ele>57.166666666666664</ele><time>2026-04-26T09:19:50.226Z</time></trkpt><trkpt lat="42.1907078" lon="14.5945971"><ele>57.0</ele><time>2026-04-26T09:19:52.224Z</time></trkpt><trkpt lat="42.1907444" lon="14.5946799"><ele>57.0</ele><time>2026-04-26T09:19:53.233Z</time></trkpt><trkpt lat="42.1907817" lon="14.5947645"><ele>57.0</ele><time>2026-04-26T09:19:54.238Z</time></trkpt><trkpt lat="42.1908186" lon="14.5948658"><ele>57.0</ele><time>2026-04-26T09:19:55.211Z</time></trkpt><trkpt lat="42.1908615" lon="14.5949866"><ele>57.0</ele><time>2026-04-26T09:19:56.201Z</time></trkpt><trkpt lat="42.1908986" lon="14.5950884"><ele>57.0</ele><time>2026-04-26T09:19:57.226Z</time></trkpt><trkpt lat="42.1909454" lon="14.5951619"><ele>57.0</ele><time>2026-04-26T09:19:59.2Z</time></trkpt><trkpt lat="42.1909682" lon="14.5952437"><ele>57.166666666666664</ele><time>2026-04-26T09:20:02.331Z</time></trkpt><trkpt lat="42.1909044" lon="14.5953724"><ele>57.33333333333333</ele><time>2026-04-26T09:20:04.236Z</time></trkpt><trkpt lat="42.1908544" lon="14.5954736"><ele>57.5</ele><time>2026-04-26T09:20:05.184Z</time></trkpt><trkpt lat="42.190806" lon="14.5955778"><ele>57.666666666666664</ele><time>2026-04-26T09:20:06.23Z</time></trkpt><trkpt lat="42.1907654" lon="14.5956757"><ele>57.83333333333333</ele><time>2026-04-26T09:20:07.237Z</time></trkpt><trkpt lat="42.1907216" lon="14.5957393"><ele>58.0</ele><time>2026-04-26T09:20:08.21Z</time></trkpt><trkpt lat="42.1906647" lon="14.5958591"><ele>61.0</ele><time>2026-04-26T09:20:10.223Z</time></trkpt><trkpt lat="42.1906616" lon="14.5959828"><ele>64.0</ele><time>2026-04-26T09:20:11.226Z</time></trkpt><trkpt lat="42.1906362" lon="14.5960971"><ele>67.0</ele><time>2026-04-26T09:20:12.222Z</time></trkpt><trkpt lat="42.1906218" lon="14.5962076"><ele>70.0</ele><time>2026-04-26T09:20:13.225Z</time></trkpt><trkpt lat="42.1906124" lon="14.5963384"><ele>73.0</ele><time>2026-04-26T09:20:14.233Z</time></trkpt><trkpt lat="42.1906218" lon="14.5964712"><ele>73.6</ele><time>2026-04-26T09:20:15.213Z</time></trkpt><trkpt lat="42.1906318" lon="14.596634"><ele>74.19999999999999</ele><time>2026-04-26T09:20:16.201Z</time></trkpt><trkpt lat="42.1906351" lon="14.5967701"><ele>74.8</ele><time>2026-04-26T09:20:17.217Z</time></trkpt><trkpt lat="42.1906319" lon="14.5968813"><ele>75.39999999999999</ele><time>2026-04-26T09:20:18.222Z</time></trkpt><trkpt lat="42.1906261" lon="14.5969771"><ele>76.0</ele><time>2026-04-26T09:20:19.21Z</time></trkpt><trkpt lat="42.1906294" lon="14.59713"><ele>76.6</ele><time>2026-04-26T09:20:21.216Z</time></trkpt><trkpt lat="42.1906583" lon="14.597226"><ele>77.19999999999999</ele><time>2026-04-26T09:20:27.178Z</time></trkpt><trkpt lat="42.190748" lon="14.5972206"><ele>77.80000000000001</ele><time>2026-04-26T09:20:29.225Z</time></trkpt><trkpt lat="42.1908656" lon="14.5971178"><ele>78.4</ele><time>2026-04-26T09:20:31.176Z</time></trkpt><trkpt lat="42.1909504" lon="14.597017"><ele>79.0</ele><time>2026-04-26T09:20:32.239Z</time></trkpt><trkpt lat="42.1910597" lon="14.5968912"><ele>73.75</ele><time>2026-04-26T09:20:33.222Z</time></trkpt><trkpt lat="42.1911677" lon="14.5967519"><ele>68.5</ele><time>2026-04-26T09:20:34.248Z</time></trkpt><trkpt lat="42.1912747" lon="14.5966245"><ele>63.25</ele><time>2026-04-26T09:20:35.257Z</time></trkpt><trkpt lat="42.1913796" lon="14.5965048"><ele>58.0</ele><time>2026-04-26T09:20:36.22Z</time></trkpt><trkpt lat="42.1914789" lon="14.5963911"><ele>60.166666666666664</ele><time>2026-04-26T09:20:37.232Z</time></trkpt><trkpt lat="42.1915602" lon="14.5962953"><ele>62.33333333333333</ele><time>2026-04-26T09:20:38.229Z</time></trkpt><trkpt lat="42.191634" lon="14.5962139"><ele>64.5</ele><time>2026-04-26T09:20:39.22Z</time></trkpt><trkpt lat="42.1916961" lon="14.5961501"><ele>66.66666666666667</ele><time>2026-04-26T09:20:40.191Z</time></trkpt><trkpt lat="42.1917111" lon="14.5960527"><ele>68.83333333333334</ele><time>2026-04-26T09:20:42.241Z</time></trkpt><trkpt lat="42.1916524" lon="14.5959752"><ele>71.0</ele><time>2026-04-26T09:20:43.231Z</time></trkpt><trkpt lat="42.1915641" lon="14.5958915"><ele>68.39999999999999</ele><time>2026-04-26T09:20:44.179Z</time></trkpt><trkpt lat="42.1914871" lon="14.5958078"><ele>65.8</ele><time>2026-04-26T09:20:45.233Z</time></trkpt><trkpt lat="42.1914426" lon="14.5957291"><ele>63.199999999999996</ele><time>2026-04-26T09:20:46.246Z</time></trkpt><trkpt lat="42.1913962" lon="14.5956561"><ele>60.599999999999994</ele><time>2026-04-26T09:20:47.22Z</time></trkpt><trkpt lat="42.1913207" lon="14.5955698"><ele>58.0</ele><time>2026-04-26T09:20:48.23Z</time></trkpt><trkpt lat="42.1912357" lon="14.5954663"><ele>58.0</ele><time>2026-04-26T09:20:49.239Z</time></trkpt><trkpt lat="42.1911525" lon="14.5953641"><ele>58.0</ele><time>2026-04-26T09:20:50.247Z</time></trkpt><trkpt lat="42.1910629" lon="14.5952616"><ele>58.0</ele><time>2026-04-26T09:20:51.185Z</time></trkpt><trkpt lat="42.1909828" lon="14.5951496"><ele>58.0</ele><time>2026-04-26T09:20:52.206Z</time></trkpt><trkpt lat="42.190908" lon="14.5950165"><ele>58.0</ele><time>2026-04-26T09:20:53.219Z</time></trkpt><trkpt lat="42.1908397" lon="14.5948606"><ele>58.0</ele><time>2026-04-26T09:20:54.199Z</time></trkpt><trkpt lat="42.190783" lon="14.5947127"><ele>58.0</ele><time>2026-04-26T09:20:55.213Z</time></trkpt><trkpt lat="42.1907341" lon="14.5945896"><ele>58.0</ele><time>2026-04-26T09:20:56.234Z</time></trkpt><trkpt lat="42.1906858" lon="14.594497"><ele>58.0</ele><time>2026-04-26T09:20:57.211Z</time></trkpt><trkpt lat="42.1906403" lon="14.5944136"><ele>58.0</ele><time>2026-04-26T09:20:58.215Z</time></trkpt><trkpt lat="42.1906173" lon="14.5942819"><ele>58.0</ele><time>2026-04-26T09:21:00.23Z</time></trkpt><trkpt lat="42.1906747" lon="14.5941421"><ele>58.0</ele><time>2026-04-26T09:21:02.177Z</time></trkpt><trkpt lat="42.1906995" lon="14.5940504"><ele>58.0</ele><time>2026-04-26T09:21:03.228Z</time></trkpt><trkpt lat="42.190721" lon="14.5939449"><ele>58.0</ele><time>2026-04-26T09:21:04.228Z</time></trkpt><trkpt lat="42.1907577" lon="14.5938278"><ele>58.0</ele><time>2026-04-26T09:21:05.214Z</time></trkpt><trkpt lat="42.1908048" lon="14.5937127"><ele>58.0</ele><time>2026-04-26T09:21:06.22Z</time></trkpt><trkpt lat="42.1908712" lon="14.5935973"><ele>58.0</ele><time>2026-04-26T09:21:07.22Z</time></trkpt><trkpt lat="42.1909338" lon="14.5934617"><ele>58.0</ele><time>2026-04-26T09:21:08.222Z</time></trkpt><trkpt lat="42.1909858" lon="14.5932561"><ele>57.75</ele><time>2026-04-26T09:21:09.242Z</time></trkpt><trkpt lat="42.1910341" lon="14.5930346"><ele>57.5</ele><time>2026-04-26T09:21:10.212Z</time></trkpt><trkpt lat="42.1910783" lon="14.5928694"><ele>57.25</ele><time>2026-04-26T09:21:11.234Z</time></trkpt><trkpt lat="42.1911095" lon="14.5927292"><ele>57.0</ele><time>2026-04-26T09:21:12.191Z</time></trkpt><trkpt lat="42.191154" lon="14.5925792"><ele>57.6</ele><time>2026-04-26T09:21:13.197Z</time></trkpt><trkpt lat="42.1912106" lon="14.5924306"><ele>58.2</ele><time>2026-04-26T09:21:14.177Z</time></trkpt><trkpt lat="42.1912712" lon="14.5922973"><ele>58.8</ele><time>2026-04-26T09:21:15.209Z</time></trkpt><trkpt lat="42.1913224" lon="14.5921864"><ele>59.4</ele><time>2026-04-26T09:21:16.218Z</time></trkpt><trkpt lat="42.1913668" lon="14.5920705"><ele>60.0</ele><time>2026-04-26T09:21:17.218Z</time></trkpt><trkpt lat="42.1914091" lon="14.5919542"><ele>60.4</ele><time>2026-04-26T09:21:18.237Z</time></trkpt><trkpt lat="42.191433" lon="14.5918504"><ele>60.8</ele><time>2026-04-26T09:21:19.219Z</time></trkpt><trkpt lat="42.1914165" lon="14.5917388"><ele>61.2</ele><time>2026-04-26T09:21:20.229Z</time></trkpt><trkpt lat="42.1913604" lon="14.5916076"><ele>61.6</ele><time>2026-04-26T09:21:21.249Z</time></trkpt><trkpt lat="42.1913004" lon="14.5914907"><ele>62.0</ele><time>2026-04-26T09:21:22.233Z</time></trkpt><trkpt lat="42.1912582" lon="14.5913968"><ele>62.00000000000001</ele><time>2026-04-26T09:21:23.246Z</time></trkpt><trkpt lat="42.1912349" lon="14.5913043"><ele>62.0</ele><time>2026-04-26T09:21:24.255Z</time></trkpt><trkpt lat="42.1912292" lon="14.5912033"><ele>62.0</ele><time>2026-04-26T09:21:25.222Z</time></trkpt><trkpt lat="42.191237" lon="14.5911069"><ele>62.0</ele><time>2026-04-26T09:21:26.253Z</time></trkpt><trkpt lat="42.1912648" lon="14.5910141"><ele>62.00000000000001</ele><time>2026-04-26T09:21:27.242Z</time></trkpt><trkpt lat="42.1913157" lon="14.5909062"><ele>62.0</ele><time>2026-04-26T09:21:28.224Z</time></trkpt><trkpt lat="42.1913542" lon="14.5907704"><ele>62.5</ele><time>2026-04-26T09:21:29.189Z</time></trkpt><trkpt lat="42.1914006" lon="14.5906128"><ele>63.0</ele><time>2026-04-26T09:21:30.218Z</time></trkpt><trkpt lat="42.191449" lon="14.5904587"><ele>63.5</ele><time>2026-04-26T09:21:31.222Z</time></trkpt><trkpt lat="42.1915042" lon="14.590302"><ele>64.0</ele><time>2026-04-26T09:21:32.218Z</time></trkpt><trkpt lat="42.1915661" lon="14.5901425"><ele>64.4</ele><time>2026-04-26T09:21:33.2Z</time></trkpt><trkpt lat="42.1916087" lon="14.5899976"><ele>64.80000000000001</ele><time>2026-04-26T09:21:34.237Z</time></trkpt><trkpt lat="42.1916132" lon="14.5898769"><ele>65.19999999999999</ele><time>2026-04-26T09:21:35.227Z</time></trkpt><trkpt lat="42.1915843" lon="14.5897527"><ele>65.6</ele><time>2026-04-26T09:21:36.22Z</time></trkpt><trkpt lat="42.1915169" lon="14.5896015"><ele>66.0</ele><time>2026-04-26T09:21:37.235Z</time></trkpt><trkpt lat="42.1914361" lon="14.5894202"><ele>66.0</ele><time>2026-04-26T09:21:38.228Z</time></trkpt><trkpt lat="42.1913678" lon="14.5892683"><ele>66.0</ele><time>2026-04-26T09:21:39.239Z</time></trkpt><trkpt lat="42.191313" lon="14.5891487"><ele>66.0</ele><time>2026-04-26T09:21:40.227Z</time></trkpt><trkpt lat="42.1912628" lon="14.589019"><ele>66.0</ele><time>2026-04-26T09:21:41.225Z</time></trkpt><trkpt lat="42.1912139" lon="14.5888619"><ele>66.0</ele><time>2026-04-26T09:21:42.234Z</time></trkpt><trkpt lat="42.1911673" lon="14.5887062"><ele>66.0</ele><time>2026-04-26T09:21:43.223Z</time></trkpt><trkpt lat="42.1911386" lon="14.5885777"><ele>66.0</ele><time>2026-04-26T09:21:44.246Z</time></trkpt><trkpt lat="42.1911158" lon="14.5884749"><ele>66.0</ele><time>2026-04-26T09:21:45.209Z</time></trkpt><trkpt lat="42.1910653" lon="14.5883388"><ele>66.0</ele><time>2026-04-26T09:21:47.216Z</time></trkpt><trkpt lat="42.1910152" lon="14.5882359"><ele>66.66666666666667</ele><time>2026-04-26T09:21:49.186Z</time></trkpt><trkpt lat="42.1908927" lon="14.5882002"><ele>67.33333333333333</ele><time>2026-04-26T09:21:51.213Z</time></trkpt><trkpt lat="42.1908097" lon="14.5882022"><ele>68.0</ele><time>2026-04-26T09:21:52.207Z</time></trkpt><trkpt lat="42.1907212" lon="14.5881954"><ele>68.66666666666666</ele><time>2026-04-26T09:21:53.218Z</time></trkpt><trkpt lat="42.1906489" lon="14.5881814"><ele>69.33333333333333</ele><time>2026-04-26T09:21:54.228Z</time></trkpt><trkpt lat="42.1905766" lon="14.5882074"><ele>70.0</ele><time>2026-04-26T09:21:56.208Z</time></trkpt><trkpt lat="42.1905338" lon="14.5883659"><ele>71.8</ele><time>2026-04-26T09:21:58.226Z</time></trkpt><trkpt lat="42.1905182" lon="14.5884669"><ele>73.6</ele><time>2026-04-26T09:21:59.214Z</time></trkpt><trkpt lat="42.1905058" lon="14.5885819"><ele>75.4</ele><time>2026-04-26T09:22:00.214Z</time></trkpt><trkpt lat="42.1904851" lon="14.5887164"><ele>77.2</ele><time>2026-04-26T09:22:01.219Z</time></trkpt><trkpt lat="42.1904639" lon="14.588864"><ele>79.0</ele><time>2026-04-26T09:22:02.195Z</time></trkpt><trkpt lat="42.190445" lon="14.5890069"><ele>79.2</ele><time>2026-04-26T09:22:03.232Z</time></trkpt><trkpt lat="42.1904368" lon="14.5891279"><ele>79.4</ele><time>2026-04-26T09:22:04.184Z</time></trkpt><trkpt lat="42.190432" lon="14.5892434"><ele>79.6</ele><time>2026-04-26T09:22:05.229Z</time></trkpt><trkpt lat="42.1904265" lon="14.5893689"><ele>79.8</ele><time>2026-04-26T09:22:06.239Z</time></trkpt><trkpt lat="42.1904224" lon="14.5895195"><ele>80.0</ele><time>2026-04-26T09:22:07.215Z</time></trkpt><trkpt lat="42.1904272" lon="14.5896852"><ele>81.2</ele><time>2026-04-26T09:22:08.235Z</time></trkpt><trkpt lat="42.1904493" lon="14.5898541"><ele>82.4</ele><time>2026-04-26T09:22:09.216Z</time></trkpt><trkpt lat="42.1904635" lon="14.5900006"><ele>83.6</ele><time>2026-04-26T09:22:10.222Z</time></trkpt><trkpt lat="42.1904615" lon="14.5900954"><ele>84.8</ele><time>2026-04-26T09:22:11.214Z</time></trkpt><trkpt lat="42.1904394" lon="14.5902193"><ele>86.0</ele><time>2026-04-26T09:22:13.216Z</time></trkpt><trkpt lat="42.1903852" lon="14.5903012"><ele>86.4</ele><time>2026-04-26T09:22:15.195Z</time></trkpt><trkpt lat="42.1903299" lon="14.5903834"><ele>86.8</ele><time>2026-04-26T09:22:17.221Z</time></trkpt><trkpt lat="42.1903263" lon="14.590499"><ele>87.2</ele><time>2026-04-26T09:22:18.224Z</time></trkpt><trkpt lat="42.1903414" lon="14.5906517"><ele>87.60000000000001</ele><time>2026-04-26T09:22:19.225Z</time></trkpt><trkpt lat="42.1903602" lon="14.5907674"><ele>88.0</ele><time>2026-04-26T09:22:20.225Z</time></trkpt><trkpt lat="42.1903748" lon="14.5909089"><ele>88.0</ele><time>2026-04-26T09:22:22.212Z</time></trkpt><trkpt lat="42.1904249" lon="14.5909768"><ele>88.0</ele><time>2026-04-26T09:22:24.206Z</time></trkpt><trkpt lat="42.1904967" lon="14.5910197"><ele>88.0</ele><time>2026-04-26T09:22:26.222Z</time></trkpt><trkpt lat="42.1905179" lon="14.5911491"><ele>88.0</ele><time>2026-04-26T09:22:28.214Z</time></trkpt><trkpt lat="42.1905205" lon="14.591273"><ele>88.0</ele><time>2026-04-26T09:22:29.226Z</time></trkpt><trkpt lat="42.1905268" lon="14.5913972"><ele>88.0</ele><time>2026-04-26T09:22:30.214Z</time></trkpt><trkpt lat="42.1905239" lon="14.5914838"><ele>87.33333333333333</ele><time>2026-04-26T09:22:31.209Z</time></trkpt><trkpt lat="42.1904984" lon="14.5915625"><ele>86.66666666666666</ele><time>2026-04-26T09:22:32.21Z</time></trkpt><trkpt lat="42.1904524" lon="14.5916335"><ele>86.0</ele><time>2026-04-26T09:22:33.211Z</time></trkpt><trkpt lat="42.1903601" lon="14.5916993"><ele>85.33333333333333</ele><time>2026-04-26T09:22:35.219Z</time></trkpt><trkpt lat="42.1902856" lon="14.5917324"><ele>84.66666666666667</ele><time>2026-04-26T09:22:36.235Z</time></trkpt><trkpt lat="42.1902071" lon="14.5917565"><ele>84.0</ele><time>2026-04-26T09:22:37.222Z</time></trkpt><trkpt lat="42.1901434" lon="14.5917757"><ele>84.0</ele><time>2026-04-26T09:22:38.22Z</time></trkpt><trkpt lat="42.1900911" lon="14.5918887"><ele>84.0</ele><time>2026-04-26T09:22:40.229Z</time></trkpt><trkpt lat="42.1900449" lon="14.5920308"><ele>84.0</ele><time>2026-04-26T09:22:42.231Z</time></trkpt><trkpt lat="42.1900243" lon="14.5922124"><ele>84.0</ele><time>2026-04-26T09:22:44.217Z</time></trkpt><trkpt lat="42.1900507" lon="14.5923206"><ele>84.0</ele><time>2026-04-26T09:22:45.232Z</time></trkpt><trkpt lat="42.1900743" lon="14.5924398"><ele>81.8</ele><time>2026-04-26T09:22:46.187Z</time></trkpt><trkpt lat="42.1900917" lon="14.5925782"><ele>79.60000000000001</ele><time>2026-04-26T09:22:47.197Z</time></trkpt><trkpt lat="42.1901151" lon="14.5927105"><ele>77.4</ele><time>2026-04-26T09:22:48.211Z</time></trkpt><trkpt lat="42.1901365" lon="14.5928173"><ele>75.2</ele><time>2026-04-26T09:22:49.197Z</time></trkpt><trkpt lat="42.190146" lon="14.5929745"><ele>73.0</ele><time>2026-04-26T09:22:51.216Z</time></trkpt><trkpt lat="42.1901437" lon="14.5930769"><ele>71.83333333333333</ele><time>2026-04-26T09:22:52.203Z</time></trkpt><trkpt lat="42.190132" lon="14.5931824"><ele>70.66666666666666</ele><time>2026-04-26T09:22:53.17Z</time></trkpt><trkpt lat="42.1901136" lon="14.5933118"><ele>69.5</ele><time>2026-04-26T09:22:54.218Z</time></trkpt><trkpt lat="42.1900934" lon="14.5934353"><ele>68.33333333333333</ele><time>2026-04-26T09:22:55.219Z</time></trkpt><trkpt lat="42.1900776" lon="14.5935476"><ele>67.16666666666667</ele><time>2026-04-26T09:22:56.241Z</time></trkpt><trkpt lat="42.1900802" lon="14.5936449"><ele>66.0</ele><time>2026-04-26T09:22:57.212Z</time></trkpt><trkpt lat="42.1901409" lon="14.5938257"><ele>65.16666666666667</ele><time>2026-04-26T09:22:59.211Z</time></trkpt><trkpt lat="42.1902002" lon="14.5939282"><ele>64.33333333333333</ele><time>2026-04-26T09:23:00.218Z</time></trkpt><trkpt lat="42.1902418" lon="14.5939999"><ele>63.5</ele><time>2026-04-26T09:23:01.229Z</time></trkpt><trkpt lat="42.190304" lon="14.5940905"><ele>62.666666666666664</ele><time>2026-04-26T09:23:03.219Z</time></trkpt><trkpt lat="42.1903247" lon="14.594185"><ele>61.83333333333333</ele><time>2026-04-26T09:23:05.196Z</time></trkpt><trkpt lat="42.1902577" lon="14.5942334"><ele>61.0</ele><time>2026-04-26T09:23:07.227Z</time></trkpt><trkpt lat="42.1901421" lon="14.5942629"><ele>61.0</ele><time>2026-04-26T09:23:09.196Z</time></trkpt><trkpt lat="42.1900418" lon="14.5943432"><ele>61.0</ele><time>2026-04-26T09:23:11.22Z</time></trkpt><trkpt lat="42.1899714" lon="14.5944215"><ele>61.0</ele><time>2026-04-26T09:23:13.221Z</time></trkpt><trkpt lat="42.1899903" lon="14.5946006"><ele>61.0</ele><time>2026-04-26T09:23:15.177Z</time></trkpt><trkpt lat="42.1900648" lon="14.594769"><ele>62.33333333333333</ele><time>2026-04-26T09:23:16.167Z</time></trkpt><trkpt lat="42.1901199" lon="14.5949105"><ele>63.666666666666664</ele><time>2026-04-26T09:23:17.219Z</time></trkpt><trkpt lat="42.1901446" lon="14.5950212"><ele>65.0</ele><time>2026-04-26T09:23:18.24Z</time></trkpt><trkpt lat="42.1901683" lon="14.5951245"><ele>66.33333333333333</ele><time>2026-04-26T09:23:19.231Z</time></trkpt><trkpt lat="42.1901833" lon="14.5952254"><ele>67.66666666666667</ele><time>2026-04-26T09:23:20.21Z</time></trkpt><trkpt lat="42.1901913" lon="14.5953352"><ele>69.0</ele><time>2026-04-26T09:23:21.213Z</time></trkpt><trkpt lat="42.1901946" lon="14.5954611"><ele>70.0</ele><time>2026-04-26T09:23:22.194Z</time></trkpt><trkpt lat="42.1901802" lon="14.5956004"><ele>71.0</ele><time>2026-04-26T09:23:23.203Z</time></trkpt><trkpt lat="42.1901665" lon="14.5957693"><ele>72.0</ele><time>2026-04-26T09:23:24.246Z</time></trkpt><trkpt lat="42.1901592" lon="14.5959557"><ele>73.0</ele><time>2026-04-26T09:23:25.203Z</time></trkpt><trkpt lat="42.1901586" lon="14.5961369"><ele>73.6</ele><time>2026-04-26T09:23:26.22Z</time></trkpt><trkpt lat="42.1901663" lon="14.5962817"><ele>74.19999999999999</ele><time>2026-04-26T09:23:27.211Z</time></trkpt><trkpt lat="42.1901517" lon="14.5963975"><ele>74.8</ele><time>2026-04-26T09:23:28.22Z</time></trkpt><trkpt lat="42.1901431" lon="14.5964933"><ele>75.39999999999999</ele><time>2026-04-26T09:23:29.198Z</time></trkpt><trkpt lat="42.1901743" lon="14.5966167"><ele>76.0</ele><time>2026-04-26T09:23:31.215Z</time></trkpt><trkpt lat="42.190215" lon="14.5967676"><ele>76.0</ele><time>2026-04-26T09:23:33.219Z</time></trkpt><trkpt lat="42.190226" lon="14.5968704"><ele>76.0</ele><time>2026-04-26T09:23:34.22Z</time></trkpt><trkpt lat="42.1902534" lon="14.5969771"><ele>76.0</ele><time>2026-04-26T09:23:35.22Z</time></trkpt><trkpt lat="42.1902702" lon="14.5970677"><ele>76.0</ele><time>2026-04-26T09:23:36.211Z</time></trkpt><trkpt lat="42.1902621" lon="14.5972237"><ele>76.0</ele><time>2026-04-26T09:23:38.211Z</time></trkpt><trkpt lat="42.1902554" lon="14.5973122"><ele>76.0</ele><time>2026-04-26T09:23:39.211Z</time></trkpt><trkpt lat="42.1902924" lon="14.5974337"><ele>76.6</ele><time>2026-04-26T09:23:40.242Z</time></trkpt><trkpt lat="42.1903464" lon="14.5975869"><ele>77.19999999999999</ele><time>2026-04-26T09:23:41.206Z</time></trkpt><trkpt lat="42.190385" lon="14.5977273"><ele>77.80000000000001</ele><time>2026-04-26T09:23:42.227Z</time></trkpt><trkpt lat="42.1904131" lon="14.597835"><ele>78.4</ele><time>2026-04-26T09:23:43.173Z</time></trkpt><trkpt lat="42.1904267" lon="14.5979314"><ele>79.0</ele><time>2026-04-26T09:23:44.204Z</time></trkpt><trkpt lat="42.1904209" lon="14.5980475"><ele>79.2</ele><time>2026-04-26T09:23:45.189Z</time></trkpt><trkpt lat="42.1904045" lon="14.5981736"><ele>79.4</ele><time>2026-04-26T09:23:46.223Z</time></trkpt><trkpt lat="42.190393" lon="14.5983023"><ele>79.6</ele><time>2026-04-26T09:23:47.219Z</time></trkpt><trkpt lat="42.1904072" lon="14.5984575"><ele>79.8</ele><time>2026-04-26T09:23:48.186Z</time></trkpt><trkpt lat="42.190422" lon="14.5986069"><ele>80.0</ele><time>2026-04-26T09:23:49.227Z</time></trkpt><trkpt lat="42.1904272" lon="14.5987033"><ele>78.0</ele><time>2026-04-26T09:23:50.228Z</time></trkpt><trkpt lat="42.190416" lon="14.598822"><ele>76.0</ele><time>2026-04-26T09:23:52.239Z</time></trkpt><trkpt lat="42.1903488" lon="14.5989079"><ele>74.0</ele><time>2026-04-26T09:23:53.249Z</time></trkpt><trkpt lat="42.1902562" lon="14.5990194"><ele>72.0</ele><time>2026-04-26T09:23:54.214Z</time></trkpt><trkpt lat="42.1901796" lon="14.5991172"><ele>70.0</ele><time>2026-04-26T09:23:55.24Z</time></trkpt><trkpt lat="42.1901333" lon="14.5992046"><ele>70.0</ele><time>2026-04-26T09:23:56.221Z</time></trkpt><trkpt lat="42.1900835" lon="14.5993084"><ele>70.0</ele><time>2026-04-26T09:23:57.245Z</time></trkpt><trkpt lat="42.1900481" lon="14.5994545"><ele>70.0</ele><time>2026-04-26T09:23:58.209Z</time></trkpt><trkpt lat="42.1900237" lon="14.5996202"><ele>70.0</ele><time>2026-04-26T09:23:59.219Z</time></trkpt><trkpt lat="42.1900146" lon="14.5997761"><ele>70.0</ele><time>2026-04-26T09:24:00.212Z</time></trkpt><trkpt lat="42.1899929" lon="14.5999105"><ele>68.2</ele><time>2026-04-26T09:24:01.218Z</time></trkpt><trkpt lat="42.1899686" lon="14.5999944"><ele>66.4</ele><time>2026-04-26T09:24:02.191Z</time></trkpt><trkpt lat="42.1899193" lon="14.6000923"><ele>64.6</ele><time>2026-04-26T09:24:04.213Z</time></trkpt><trkpt lat="42.1900222" lon="14.6001487"><ele>62.8</ele><time>2026-04-26T09:24:06.213Z</time></trkpt><trkpt lat="42.1901286" lon="14.6001825"><ele>61.0</ele><time>2026-04-26T09:24:07.199Z</time></trkpt><trkpt lat="42.1902446" lon="14.6002149"><ele>60.99999999999999</ele><time>2026-04-26T09:24:08.211Z</time></trkpt><trkpt lat="42.190326" lon="14.6002388"><ele>61.0</ele><time>2026-04-26T09:24:09.227Z</time></trkpt><trkpt lat="42.1903623" lon="14.6003551"><ele>61.0</ele><time>2026-04-26T09:24:12.197Z</time></trkpt><trkpt lat="42.1903522" lon="14.6004572"><ele>61.0</ele><time>2026-04-26T09:24:13.209Z</time></trkpt><trkpt lat="42.1903441" lon="14.6005688"><ele>60.99999999999999</ele><time>2026-04-26T09:24:14.233Z</time></trkpt><trkpt lat="42.1903638" lon="14.6006916"><ele>61.0</ele><time>2026-04-26T09:24:15.22Z</time></trkpt><trkpt lat="42.1903856" lon="14.6008164"><ele>62.8</ele><time>2026-04-26T09:24:16.218Z</time></trkpt><trkpt lat="42.1903899" lon="14.6009578"><ele>64.6</ele><time>2026-04-26T09:24:17.192Z</time></trkpt><trkpt lat="42.1903997" lon="14.6010778"><ele>66.4</ele><time>2026-04-26T09:24:18.219Z</time></trkpt><trkpt lat="42.1903882" lon="14.6012014"><ele>68.2</ele><time>2026-04-26T09:24:19.179Z</time></trkpt><trkpt lat="42.1903729" lon="14.6013742"><ele>70.0</ele><time>2026-04-26T09:24:20.198Z</time></trkpt><trkpt lat="42.1903651" lon="14.6015295"><ele>70.0</ele><time>2026-04-26T09:24:21.191Z</time></trkpt><trkpt lat="42.1903672" lon="14.601655"><ele>70.0</ele><time>2026-04-26T09:24:22.191Z</time></trkpt><trkpt lat="42.1903827" lon="14.6018019"><ele>70.0</ele><time>2026-04-26T09:24:24.201Z</time></trkpt><trkpt lat="42.1904165" lon="14.6018843"><ele>70.0</ele><time>2026-04-26T09:24:25.219Z</time></trkpt><trkpt lat="42.1904475" lon="14.6019626"><ele>70.0</ele><time>2026-04-26T09:24:26.2Z</time></trkpt><trkpt lat="42.190476" lon="14.6020573"><ele>70.0</ele><time>2026-04-26T09:24:27.223Z</time></trkpt><trkpt lat="42.1905031" lon="14.6021506"><ele>70.0</ele><time>2026-04-26T09:24:28.185Z</time></trkpt><trkpt lat="42.1905178" lon="14.6022377"><ele>70.0</ele><time>2026-04-26T09:24:29.223Z</time></trkpt><trkpt lat="42.1905151" lon="14.6023798"><ele>70.0</ele><time>2026-04-26T09:24:31.217Z</time></trkpt><trkpt lat="42.1904679" lon="14.6025324"><ele>70.0</ele><time>2026-04-26T09:24:33.215Z</time></trkpt><trkpt lat="42.1904422" lon="14.6026209"><ele>70.0</ele><time>2026-04-26T09:24:34.186Z</time></trkpt><trkpt lat="42.1904068" lon="14.6027624"><ele>67.0</ele><time>2026-04-26T09:24:36.212Z</time></trkpt><trkpt lat="42.1903804" lon="14.6028773"><ele>64.0</ele><time>2026-04-26T09:24:37.223Z</time></trkpt><trkpt lat="42.1903335" lon="14.6030073"><ele>61.0</ele><time>2026-04-26T09:24:38.219Z</time></trkpt><trkpt lat="42.1902742" lon="14.6031369"><ele>58.0</ele><time>2026-04-26T09:24:39.195Z</time></trkpt><trkpt lat="42.1902075" lon="14.6032732"><ele>55.0</ele><time>2026-04-26T09:24:40.216Z</time></trkpt><trkpt lat="42.1901437" lon="14.6034016"><ele>54.99999999999999</ele><time>2026-04-26T09:24:41.234Z</time></trkpt><trkpt lat="42.1900843" lon="14.6035007"><ele>55.0</ele><time>2026-04-26T09:24:42.171Z</time></trkpt><trkpt lat="42.1900525" lon="14.6035755"><ele>55.0</ele><time>2026-04-26T09:24:43.195Z</time></trkpt><trkpt lat="42.1899715" lon="14.6036705"><ele>55.0</ele><time>2026-04-26T09:24:46.251Z</time></trkpt><trkpt lat="42.1899199" lon="14.6037323"><ele>54.99999999999999</ele><time>2026-04-26T09:24:47.171Z</time></trkpt><trkpt lat="42.1898408" lon="14.6038015"><ele>55.0</ele><time>2026-04-26T09:24:48.248Z</time></trkpt><trkpt lat="42.1897559" lon="14.6038688"><ele>57.0</ele><time>2026-04-26T09:24:49.225Z</time></trkpt><trkpt lat="42.1896514" lon="14.6039498"><ele>59.0</ele><time>2026-04-26T09:24:50.223Z</time></trkpt><trkpt lat="42.1895459" lon="14.6040389"><ele>61.0</ele><time>2026-04-26T09:24:51.224Z</time></trkpt><trkpt lat="42.1894415" lon="14.6041144"><ele>63.0</ele><time>2026-04-26T09:24:52.217Z</time></trkpt><trkpt lat="42.1893261" lon="14.6041796"><ele>63.0</ele><time>2026-04-26T09:24:53.215Z</time></trkpt><trkpt lat="42.1892118" lon="14.6042256"><ele>63.0</ele><time>2026-04-26T09:24:54.228Z</time></trkpt><trkpt lat="42.1890973" lon="14.6042708"><ele>63.0</ele><time>2026-04-26T09:24:55.22Z</time></trkpt><trkpt lat="42.1889763" lon="14.6043119"><ele>63.0</ele><time>2026-04-26T09:24:56.214Z</time></trkpt><trkpt lat="42.1888609" lon="14.6043479"><ele>64.0</ele><time>2026-04-26T09:24:57.238Z</time></trkpt><trkpt lat="42.1887539" lon="14.6043951"><ele>65.0</ele><time>2026-04-26T09:24:58.225Z</time></trkpt><trkpt lat="42.1886479" lon="14.6044314"><ele>66.0</ele><time>2026-04-26T09:24:59.228Z</time></trkpt><trkpt lat="42.1885474" lon="14.6044643"><ele>67.0</ele><time>2026-04-26T09:25:00.224Z</time></trkpt><trkpt lat="42.1884543" lon="14.6044738"><ele>68.0</ele><time>2026-04-26T09:25:01.235Z</time></trkpt><trkpt lat="42.1883402" lon="14.6044759"><ele>68.0</ele><time>2026-04-26T09:25:02.227Z</time></trkpt><trkpt lat="42.188214" lon="14.6044805"><ele>68.0</ele><time>2026-04-26T09:25:03.218Z</time></trkpt><trkpt lat="42.1881048" lon="14.6044845"><ele>68.0</ele><time>2026-04-26T09:25:04.231Z</time></trkpt><trkpt lat="42.188031" lon="14.6044704"><ele>68.0</ele><time>2026-04-26T09:25:05.208Z</time></trkpt><trkpt lat="42.187954" lon="14.6044127"><ele>68.0</ele><time>2026-04-26T09:25:06.22Z</time></trkpt><trkpt lat="42.1878691" lon="14.6043273"><ele>68.8</ele><time>2026-04-26T09:25:07.217Z</time></trkpt><trkpt lat="42.1877895" lon="14.6042447"><ele>69.6</ele><time>2026-04-26T09:25:08.2Z</time></trkpt><trkpt lat="42.1877121" lon="14.604183"><ele>70.4</ele><time>2026-04-26T09:25:09.237Z</time></trkpt><trkpt lat="42.1876028" lon="14.6041449"><ele>71.2</ele><time>2026-04-26T09:25:10.231Z</time></trkpt><trkpt lat="42.1874592" lon="14.6041081"><ele>72.0</ele><time>2026-04-26T09:25:11.214Z</time></trkpt><trkpt lat="42.1873293" lon="14.6040849"><ele>73.16666666666667</ele><time>2026-04-26T09:25:12.175Z</time></trkpt><trkpt lat="42.1872251" lon="14.6040838"><ele>74.33333333333333</ele><time>2026-04-26T09:25:13.189Z</time></trkpt><trkpt lat="42.1871461" lon="14.6040631"><ele>75.5</ele><time>2026-04-26T09:25:14.213Z</time></trkpt><trkpt lat="42.187077" lon="14.6040455"><ele>76.66666666666666</ele><time>2026-04-26T09:25:15.217Z</time></trkpt><trkpt lat="42.1870132" lon="14.604045"><ele>77.83333333333333</ele><time>2026-04-26T09:25:16.217Z</time></trkpt><trkpt lat="42.1869549" lon="14.6040994"><ele>79.0</ele><time>2026-04-26T09:25:17.233Z</time></trkpt><trkpt lat="42.1869023" lon="14.6041549"><ele>79.0</ele><time>2026-04-26T09:25:18.229Z</time></trkpt><trkpt lat="42.1867924" lon="14.6041586"><ele>79.0</ele><time>2026-04-26T09:25:20.228Z</time></trkpt><trkpt lat="42.1867164" lon="14.604117"><ele>79.0</ele><time>2026-04-26T09:25:21.206Z</time></trkpt><trkpt lat="42.1866233" lon="14.6040489"><ele>79.0</ele><time>2026-04-26T09:25:22.202Z</time></trkpt><trkpt lat="42.1865009" lon="14.6039383"><ele>79.0</ele><time>2026-04-26T09:25:23.217Z</time></trkpt><trkpt lat="42.1863671" lon="14.6038192"><ele>80.0</ele><time>2026-04-26T09:25:24.21Z</time></trkpt><trkpt lat="42.1862603" lon="14.6037279"><ele>81.0</ele><time>2026-04-26T09:25:25.211Z</time></trkpt><trkpt lat="42.1861845" lon="14.6036468"><ele>82.0</ele><time>2026-04-26T09:25:26.21Z</time></trkpt><trkpt lat="42.186097" lon="14.6035282"><ele>83.0</ele><time>2026-04-26T09:25:27.211Z</time></trkpt><trkpt lat="42.1860066" lon="14.6034035"><ele>83.0</ele><time>2026-04-26T09:25:28.2Z</time></trkpt><trkpt lat="42.1859299" lon="14.603279"><ele>83.0</ele><time>2026-04-26T09:25:29.205Z</time></trkpt><trkpt lat="42.1858513" lon="14.6031783"><ele>83.0</ele><time>2026-04-26T09:25:30.227Z</time></trkpt><trkpt lat="42.1857703" lon="14.6030907"><ele>83.0</ele><time>2026-04-26T09:25:31.223Z</time></trkpt><trkpt lat="42.185692" lon="14.6030265"><ele>83.0</ele><time>2026-04-26T09:25:32.175Z</time></trkpt><trkpt lat="42.1856015" lon="14.602964"><ele>83.33333333333334</ele><time>2026-04-26T09:25:33.17Z</time></trkpt><trkpt lat="42.185519" lon="14.602899"><ele>83.66666666666667</ele><time>2026-04-26T09:25:34.213Z</time></trkpt><trkpt lat="42.1854336" lon="14.6028288"><ele>84.0</ele><time>2026-04-26T09:25:35.216Z</time></trkpt><trkpt lat="42.1853614" lon="14.6027632"><ele>84.33333333333333</ele><time>2026-04-26T09:25:36.218Z</time></trkpt><trkpt lat="42.1852948" lon="14.6027023"><ele>84.66666666666666</ele><time>2026-04-26T09:25:37.223Z</time></trkpt><trkpt lat="42.185234" lon="14.6026542"><ele>85.0</ele><time>2026-04-26T09:25:38.216Z</time></trkpt><trkpt lat="42.1851587" lon="14.6026089"><ele>85.0</ele><time>2026-04-26T09:25:40.204Z</time></trkpt><trkpt lat="42.1850845" lon="14.6026174"><ele>85.0</ele><time>2026-04-26T09:25:43.206Z</time></trkpt><trkpt lat="42.1851404" lon="14.6027852"><ele>85.0</ele><time>2026-04-26T09:25:46.209Z</time></trkpt><trkpt lat="42.1851927" lon="14.6028582"><ele>85.0</ele><time>2026-04-26T09:25:47.233Z</time></trkpt><trkpt lat="42.185242" lon="14.6029308"><ele>85.0</ele><time>2026-04-26T09:25:49.213Z</time></trkpt><trkpt lat="42.1852838" lon="14.6030075"><ele>85.0</ele><time>2026-04-26T09:25:53.216Z</time></trkpt><trkpt lat="42.1853439" lon="14.6030606"><ele>85.5</ele><time>2026-04-26T09:27:15.18Z</time></trkpt><trkpt lat="42.1853714" lon="14.6031403"><ele>86.0</ele><time>2026-04-26T09:27:52.203Z</time></trkpt><trkpt lat="42.1854424" lon="14.603197"><ele>86.5</ele><time>2026-04-26T09:28:00.191Z</time></trkpt><trkpt lat="42.1855165" lon="14.6033465"><ele>87.0</ele><time>2026-04-26T09:28:02.228Z</time></trkpt><trkpt lat="42.1855431" lon="14.6034285"><ele>87.5</ele><time>2026-04-26T09:28:08.207Z</time></trkpt><trkpt lat="42.1856044" lon="14.6034914"><ele>88.0</ele><time>2026-04-26T09:28:27.233Z</time></trkpt><trkpt lat="42.185542" lon="14.6035144"><ele>88.0</ele><time>2026-04-26T09:28:32.22Z</time></trkpt><trkpt lat="42.1854817" lon="14.6034861"><ele>88.0</ele><time>2026-04-26T09:28:33.228Z</time></trkpt><trkpt lat="42.1854014" lon="14.6034524"><ele>88.0</ele><time>2026-04-26T09:28:35.2Z</time></trkpt><trkpt lat="42.1853559" lon="14.6033894"><ele>88.0</ele><time>2026-04-26T09:28:37.178Z</time></trkpt><trkpt lat="42.1852964" lon="14.6033312"><ele>88.0</ele><time>2026-04-26T09:28:40.215Z</time></trkpt><trkpt lat="42.1852268" lon="14.6032766"><ele>88.0</ele><time>2026-04-26T09:28:42.235Z</time></trkpt><trkpt lat="42.185144" lon="14.6032226"><ele>88.0</ele><time>2026-04-26T09:28:44.23Z</time></trkpt><trkpt lat="42.1850667" lon="14.6031675"><ele>88.0</ele><time>2026-04-26T09:28:46.209Z</time></trkpt><trkpt lat="42.184975" lon="14.6031095"><ele>88.0</ele><time>2026-04-26T09:28:48.221Z</time></trkpt><trkpt lat="42.1848799" lon="14.6030338"><ele>88.0</ele><time>2026-04-26T09:28:50.223Z</time></trkpt><trkpt lat="42.1847976" lon="14.6029551"><ele>88.0</ele><time>2026-04-26T09:28:52.229Z</time></trkpt><trkpt lat="42.1847333" lon="14.6029161"><ele>88.80000000000001</ele><time>2026-04-26T09:28:54.219Z</time></trkpt><trkpt lat="42.1846713" lon="14.6029613"><ele>89.6</ele><time>2026-04-26T09:28:56.227Z</time></trkpt><trkpt lat="42.1846263" lon="14.6030754"><ele>90.4</ele><time>2026-04-26T09:28:58.244Z</time></trkpt><trkpt lat="42.1845725" lon="14.6031903"><ele>91.19999999999999</ele><time>2026-04-26T09:29:00.249Z</time></trkpt><trkpt lat="42.184517" lon="14.6033038"><ele>92.0</ele><time>2026-04-26T09:29:02.229Z</time></trkpt><trkpt lat="42.184457" lon="14.6034487"><ele>92.0</ele><time>2026-04-26T09:29:04.219Z</time></trkpt><trkpt lat="42.1844041" lon="14.6035695"><ele>92.0</ele><time>2026-04-26T09:29:05.23Z</time></trkpt><trkpt lat="42.1843511" lon="14.6036987"><ele>92.0</ele><time>2026-04-26T09:29:06.222Z</time></trkpt><trkpt lat="42.1842977" lon="14.6038062"><ele>92.0</ele><time>2026-04-26T09:29:07.224Z</time></trkpt><trkpt lat="42.1842363" lon="14.6039361"><ele>92.0</ele><time>2026-04-26T09:29:08.249Z</time></trkpt><trkpt lat="42.184169" lon="14.604088"><ele>92.19999999999999</ele><time>2026-04-26T09:29:09.223Z</time></trkpt><trkpt lat="42.1841081" lon="14.604228"><ele>92.4</ele><time>2026-04-26T09:29:10.207Z</time></trkpt><trkpt lat="42.1840508" lon="14.6043472"><ele>92.6</ele><time>2026-04-26T09:29:11.176Z</time></trkpt><trkpt lat="42.1839957" lon="14.6044585"><ele>92.80000000000001</ele><time>2026-04-26T09:29:12.182Z</time></trkpt><trkpt lat="42.1839389" lon="14.6045687"><ele>93.0</ele><time>2026-04-26T09:29:13.221Z</time></trkpt><trkpt lat="42.1838956" lon="14.6046631"><ele>93.0</ele><time>2026-04-26T09:29:14.184Z</time></trkpt><trkpt lat="42.1838572" lon="14.6047472"><ele>93.0</ele><time>2026-04-26T09:29:15.223Z</time></trkpt><trkpt lat="42.1838223" lon="14.6048181"><ele>93.0</ele><time>2026-04-26T09:29:16.192Z</time></trkpt><trkpt lat="42.183735" lon="14.6048981"><ele>93.0</ele><time>2026-04-26T09:29:18.224Z</time></trkpt><trkpt lat="42.1836536" lon="14.6049152"><ele>93.0</ele><time>2026-04-26T09:29:19.216Z</time></trkpt><trkpt lat="42.1835724" lon="14.6049199"><ele>93.0</ele><time>2026-04-26T09:29:20.229Z</time></trkpt><trkpt lat="42.1834805" lon="14.6048894"><ele>93.0</ele><time>2026-04-26T09:29:22.224Z</time></trkpt><trkpt lat="42.1834131" lon="14.6048531"><ele>93.0</ele><time>2026-04-26T09:29:33.208Z</time></trkpt><trkpt lat="42.1833783" lon="14.6049401"><ele>93.0</ele><time>2026-04-26T09:29:37.171Z</time></trkpt><trkpt lat="42.1834248" lon="14.6050147"><ele>93.0</ele><time>2026-04-26T09:29:38.207Z</time></trkpt><trkpt lat="42.1834762" lon="14.6051324"><ele>93.0</ele><time>2026-04-26T09:29:39.228Z</time></trkpt><trkpt lat="42.1835164" lon="14.6052704"><ele>93.0</ele><time>2026-04-26T09:29:40.212Z</time></trkpt><trkpt lat="42.1835506" lon="14.6054092"><ele>92.0</ele><time>2026-04-26T09:29:41.235Z</time></trkpt><trkpt lat="42.1835777" lon="14.6055248"><ele>91.0</ele><time>2026-04-26T09:29:42.219Z</time></trkpt><trkpt lat="42.1836056" lon="14.6056375"><ele>90.0</ele><time>2026-04-26T09:29:43.237Z</time></trkpt><trkpt lat="42.1836403" lon="14.6057494"><ele>89.0</ele><time>2026-04-26T09:29:44.234Z</time></trkpt><trkpt lat="42.1837058" lon="14.6058799"><ele>88.0</ele><time>2026-04-26T09:29:45.218Z</time></trkpt><trkpt lat="42.1838001" lon="14.6060283"><ele>87.66666666666666</ele><time>2026-04-26T09:29:46.242Z</time></trkpt><trkpt lat="42.183909" lon="14.6061931"><ele>87.33333333333333</ele><time>2026-04-26T09:29:47.216Z</time></trkpt><trkpt lat="42.1840116" lon="14.6063645"><ele>87.0</ele><time>2026-04-26T09:29:48.233Z</time></trkpt><trkpt lat="42.1841144" lon="14.6065344"><ele>87.0</ele><time>2026-04-26T09:29:49.224Z</time></trkpt><trkpt lat="42.1842192" lon="14.6066974"><ele>87.0</ele><time>2026-04-26T09:29:50.198Z</time></trkpt><trkpt lat="42.1843237" lon="14.6068577"><ele>87.0</ele><time>2026-04-26T09:29:51.205Z</time></trkpt><trkpt lat="42.184423" lon="14.6070118"><ele>85.8</ele><time>2026-04-26T09:29:52.19Z</time></trkpt><trkpt lat="42.1845141" lon="14.6071555"><ele>84.6</ele><time>2026-04-26T09:29:53.214Z</time></trkpt><trkpt lat="42.1845889" lon="14.6072748"><ele>83.39999999999999</ele><time>2026-04-26T09:29:54.245Z</time></trkpt><trkpt lat="42.1846422" lon="14.6073769"><ele>82.19999999999999</ele><time>2026-04-26T09:29:55.221Z</time></trkpt><trkpt lat="42.1846846" lon="14.607471"><ele>81.0</ele><time>2026-04-26T09:29:56.24Z</time></trkpt><trkpt lat="42.1846969" lon="14.6075983"><ele>81.0</ele><time>2026-04-26T09:29:57.179Z</time></trkpt><trkpt lat="42.1847022" lon="14.607753"><ele>81.0</ele><time>2026-04-26T09:29:58.244Z</time></trkpt><trkpt lat="42.1847108" lon="14.6079062"><ele>81.0</ele><time>2026-04-26T09:29:59.246Z</time></trkpt><trkpt lat="42.1847327" lon="14.6080489"><ele>81.0</ele><time>2026-04-26T09:30:00.237Z</time></trkpt><trkpt lat="42.1847657" lon="14.6081709"><ele>81.0</ele><time>2026-04-26T09:30:01.221Z</time></trkpt><trkpt lat="42.1848086" lon="14.6082604"><ele>81.5</ele><time>2026-04-26T09:30:02.243Z</time></trkpt><trkpt lat="42.1848777" lon="14.6083439"><ele>82.0</ele><time>2026-04-26T09:30:03.191Z</time></trkpt><trkpt lat="42.1849755" lon="14.6084496"><ele>82.5</ele><time>2026-04-26T09:30:04.238Z</time></trkpt><trkpt lat="42.1850895" lon="14.6085684"><ele>83.0</ele><time>2026-04-26T09:30:05.267Z</time></trkpt><trkpt lat="42.1852278" lon="14.6087055"><ele>79.0</ele><time>2026-04-26T09:30:06.221Z</time></trkpt><trkpt lat="42.1853813" lon="14.6088485"><ele>75.0</ele><time>2026-04-26T09:30:07.25Z</time></trkpt><trkpt lat="42.1855261" lon="14.6089861"><ele>71.0</ele><time>2026-04-26T09:30:08.225Z</time></trkpt><trkpt lat="42.1856594" lon="14.6091185"><ele>73.0</ele><time>2026-04-26T09:30:09.227Z</time></trkpt><trkpt lat="42.1857675" lon="14.6092252"><ele>75.0</ele><time>2026-04-26T09:30:10.221Z</time></trkpt><trkpt lat="42.1858611" lon="14.6093095"><ele>77.0</ele><time>2026-04-26T09:30:11.222Z</time></trkpt><trkpt lat="42.1859651" lon="14.6093895"><ele>79.0</ele><time>2026-04-26T09:30:12.229Z</time></trkpt><trkpt lat="42.1861115" lon="14.6094692"><ele>76.66666666666666</ele><time>2026-04-26T09:30:13.209Z</time></trkpt><trkpt lat="42.1862884" lon="14.6095748"><ele>74.33333333333333</ele><time>2026-04-26T09:30:14.183Z</time></trkpt><trkpt lat="42.1864742" lon="14.6096903"><ele>72.0</ele><time>2026-04-26T09:30:15.24Z</time></trkpt><trkpt lat="42.1866363" lon="14.6098002"><ele>72.0</ele><time>2026-04-26T09:30:16.238Z</time></trkpt><trkpt lat="42.1867879" lon="14.6098954"><ele>72.0</ele><time>2026-04-26T09:30:17.176Z</time></trkpt><trkpt lat="42.1869311" lon="14.6099829"><ele>72.0</ele><time>2026-04-26T09:30:18.262Z</time></trkpt><trkpt lat="42.1870597" lon="14.6100629"><ele>72.0</ele><time>2026-04-26T09:30:19.232Z</time></trkpt><trkpt lat="42.187184" lon="14.6101368"><ele>72.0</ele><time>2026-04-26T09:30:20.234Z</time></trkpt><trkpt lat="42.1873037" lon="14.6102106"><ele>72.0</ele><time>2026-04-26T09:30:21.214Z</time></trkpt><trkpt lat="42.1874148" lon="14.6102901"><ele>72.0</ele><time>2026-04-26T09:30:22.218Z</time></trkpt><trkpt lat="42.1875251" lon="14.6103858"><ele>71.75</ele><time>2026-04-26T09:30:23.176Z</time></trkpt><trkpt lat="42.1876338" lon="14.610502"><ele>71.5</ele><time>2026-04-26T09:30:24.217Z</time></trkpt><trkpt lat="42.1877357" lon="14.6106267"><ele>71.25</ele><time>2026-04-26T09:30:25.215Z</time></trkpt><trkpt lat="42.1878179" lon="14.6107209"><ele>71.0</ele><time>2026-04-26T09:30:26.236Z</time></trkpt><trkpt lat="42.1878887" lon="14.6107966"><ele>71.0</ele><time>2026-04-26T09:30:27.221Z</time></trkpt><trkpt lat="42.1879396" lon="14.6108616"><ele>71.0</ele><time>2026-04-26T09:30:28.232Z</time></trkpt><trkpt lat="42.1879639" lon="14.6109601"><ele>71.0</ele><time>2026-04-26T09:30:30.24Z</time></trkpt><trkpt lat="42.1878716" lon="14.611097"><ele>71.0</ele><time>2026-04-26T09:30:32.237Z</time></trkpt><trkpt lat="42.1877916" lon="14.6112033"><ele>71.0</ele><time>2026-04-26T09:30:33.203Z</time></trkpt><trkpt lat="42.1877379" lon="14.6112917"><ele>68.5</ele><time>2026-04-26T09:30:34.198Z</time></trkpt><trkpt lat="42.1877011" lon="14.6114189"><ele>66.0</ele><time>2026-04-26T09:30:36.218Z</time></trkpt><trkpt lat="42.1877159" lon="14.6115024"><ele>63.5</ele><time>2026-04-26T09:30:37.189Z</time></trkpt><trkpt lat="42.1877501" lon="14.6115924"><ele>61.0</ele><time>2026-04-26T09:30:38.213Z</time></trkpt><trkpt lat="42.1878058" lon="14.611684"><ele>58.50000000000001</ele><time>2026-04-26T09:30:39.231Z</time></trkpt><trkpt lat="42.1878877" lon="14.6117697"><ele>56.0</ele><time>2026-04-26T09:30:40.248Z</time></trkpt><trkpt lat="42.1879677" lon="14.611852"><ele>56.00000000000001</ele><time>2026-04-26T09:30:41.23Z</time></trkpt><trkpt lat="42.1880384" lon="14.6119013"><ele>56.0</ele><time>2026-04-26T09:30:42.223Z</time></trkpt><trkpt lat="42.1881055" lon="14.612016"><ele>56.0</ele><time>2026-04-26T09:30:44.234Z</time></trkpt><trkpt lat="42.1881048" lon="14.612123"><ele>56.0</ele><time>2026-04-26T09:30:45.197Z</time></trkpt><trkpt lat="42.1881022" lon="14.6122533"><ele>56.00000000000001</ele><time>2026-04-26T09:30:46.186Z</time></trkpt><trkpt lat="42.1881268" lon="14.6123552"><ele>56.0</ele><time>2026-04-26T09:30:47.219Z</time></trkpt><trkpt lat="42.1881831" lon="14.6124516"><ele>55.4</ele><time>2026-04-26T09:30:48.222Z</time></trkpt><trkpt lat="42.1882312" lon="14.6125461"><ele>54.8</ele><time>2026-04-26T09:30:49.235Z</time></trkpt><trkpt lat="42.1882762" lon="14.6126383"><ele>54.199999999999996</ele><time>2026-04-26T09:30:50.187Z</time></trkpt><trkpt lat="42.1883007" lon="14.6127537"><ele>53.599999999999994</ele><time>2026-04-26T09:30:51.186Z</time></trkpt><trkpt lat="42.1883303" lon="14.6128964"><ele>53.0</ele><time>2026-04-26T09:30:52.201Z</time></trkpt><trkpt lat="42.1883462" lon="14.6130143"><ele>50.0</ele><time>2026-04-26T09:30:53.206Z</time></trkpt><trkpt lat="42.1883626" lon="14.6131155"><ele>47.0</ele><time>2026-04-26T09:30:54.22Z</time></trkpt><trkpt lat="42.1883845" lon="14.6131962"><ele>44.0</ele><time>2026-04-26T09:30:55.241Z</time></trkpt><trkpt lat="42.1884734" lon="14.6133179"><ele>41.0</ele><time>2026-04-26T09:30:57.239Z</time></trkpt><trkpt lat="42.1885591" lon="14.6133635"><ele>38.0</ele><time>2026-04-26T09:30:58.216Z</time></trkpt><trkpt lat="42.1886646" lon="14.6134378"><ele>38.0</ele><time>2026-04-26T09:30:59.221Z</time></trkpt><trkpt lat="42.1887527" lon="14.6134859"><ele>38.0</ele><time>2026-04-26T09:31:00.22Z</time></trkpt><trkpt lat="42.188846" lon="14.6134934"><ele>38.0</ele><time>2026-04-26T09:31:01.232Z</time></trkpt><trkpt lat="42.1889632" lon="14.6135136"><ele>38.0</ele><time>2026-04-26T09:31:02.218Z</time></trkpt><trkpt lat="42.1890817" lon="14.6135527"><ele>38.0</ele><time>2026-04-26T09:31:03.233Z</time></trkpt><trkpt lat="42.1891946" lon="14.6136133"><ele>37.8</ele><time>2026-04-26T09:31:04.231Z</time></trkpt><trkpt lat="42.1892886" lon="14.6136728"><ele>37.599999999999994</ele><time>2026-04-26T09:31:05.214Z</time></trkpt><trkpt lat="42.1893848" lon="14.6137322"><ele>37.400000000000006</ele><time>2026-04-26T09:31:06.236Z</time></trkpt><trkpt lat="42.1894711" lon="14.6137919"><ele>37.2</ele><time>2026-04-26T09:31:07.303Z</time></trkpt><trkpt lat="42.1895495" lon="14.6138338"><ele>37.0</ele><time>2026-04-26T09:31:08.235Z</time></trkpt><trkpt lat="42.1896121" lon="14.6138444"><ele>37.0</ele><time>2026-04-26T09:31:09.195Z</time></trkpt><trkpt lat="42.189695" lon="14.6138018"><ele>37.0</ele><time>2026-04-26T09:31:11.218Z</time></trkpt><trkpt lat="42.1897464" lon="14.6137211"><ele>37.0</ele><time>2026-04-26T09:31:13.199Z</time></trkpt><trkpt lat="42.1898111" lon="14.6137212"><ele>37.0</ele><time>2026-04-26T09:31:15.222Z</time></trkpt><trkpt lat="42.189878" lon="14.6138043"><ele>37.0</ele><time>2026-04-26T09:31:17.173Z</time></trkpt><trkpt lat="42.1899342" lon="14.613849"><ele>37.0</ele><time>2026-04-26T09:31:18.214Z</time></trkpt><trkpt lat="42.1899827" lon="14.6139126"><ele>38.42857142857143</ele><time>2026-04-26T09:31:19.219Z</time></trkpt><trkpt lat="42.1900328" lon="14.6139846"><ele>39.857142857142854</ele><time>2026-04-26T09:31:20.215Z</time></trkpt><trkpt lat="42.1900863" lon="14.6140653"><ele>41.285714285714285</ele><time>2026-04-26T09:31:21.231Z</time></trkpt><trkpt lat="42.1901367" lon="14.6141426"><ele>42.714285714285715</ele><time>2026-04-26T09:31:22.231Z</time></trkpt><trkpt lat="42.1901884" lon="14.6142023"><ele>44.14285714285714</ele><time>2026-04-26T09:31:23.206Z</time></trkpt><trkpt lat="42.1902445" lon="14.6142571"><ele>45.57142857142857</ele><time>2026-04-26T09:31:24.236Z</time></trkpt><trkpt lat="42.1903011" lon="14.6143094"><ele>47.0</ele><time>2026-04-26T09:31:25.24Z</time></trkpt><trkpt lat="42.1903847" lon="14.6143484"><ele>47.0</ele><time>2026-04-26T09:31:26.194Z</time></trkpt><trkpt lat="42.1904731" lon="14.6143715"><ele>47.0</ele><time>2026-04-26T09:31:27.222Z</time></trkpt><trkpt lat="42.1905594" lon="14.6143951"><ele>47.0</ele><time>2026-04-26T09:31:28.221Z</time></trkpt><trkpt lat="42.1906333" lon="14.6144321"><ele>47.0</ele><time>2026-04-26T09:31:29.187Z</time></trkpt><trkpt lat="42.1906904" lon="14.6144948"><ele>47.0</ele><time>2026-04-26T09:31:30.242Z</time></trkpt><trkpt lat="42.1907366" lon="14.6146388"><ele>47.0</ele><time>2026-04-26T09:31:32.218Z</time></trkpt><trkpt lat="42.1907515" lon="14.614734"><ele>43.0</ele><time>2026-04-26T09:31:33.215Z</time></trkpt><trkpt lat="42.190772" lon="14.6148273"><ele>39.0</ele><time>2026-04-26T09:31:34.218Z</time></trkpt><trkpt lat="42.1907978" lon="14.6149128"><ele>35.0</ele><time>2026-04-26T09:31:35.227Z</time></trkpt><trkpt lat="42.1908421" lon="14.6149831"><ele>31.0</ele><time>2026-04-26T09:31:36.242Z</time></trkpt><trkpt lat="42.1909057" lon="14.6150398"><ele>27.0</ele><time>2026-04-26T09:31:37.17Z</time></trkpt><trkpt lat="42.1909774" lon="14.6150947"><ele>23.0</ele><time>2026-04-26T09:31:38.208Z</time></trkpt><trkpt lat="42.1910336" lon="14.6152235"><ele>23.0</ele><time>2026-04-26T09:31:40.226Z</time></trkpt><trkpt lat="42.1910621" lon="14.6153779"><ele>23.0</ele><time>2026-04-26T09:31:41.209Z</time></trkpt><trkpt lat="42.1911108" lon="14.6155548"><ele>23.0</ele><time>2026-04-26T09:31:42.2Z</time></trkpt><trkpt lat="42.1911556" lon="14.6156824"><ele>23.0</ele><time>2026-04-26T09:31:43.213Z</time></trkpt><trkpt lat="42.1911797" lon="14.6157757"><ele>23.0</ele><time>2026-04-26T09:31:44.189Z</time></trkpt><trkpt lat="42.1911957" lon="14.6158811"><ele>23.0</ele><time>2026-04-26T09:31:46.233Z</time></trkpt><trkpt lat="42.1911322" lon="14.6159199"><ele>23.0</ele><time>2026-04-26T09:31:49.229Z</time></trkpt><trkpt lat="42.1910002" lon="14.6158879"><ele>23.0</ele><time>2026-04-26T09:31:51.216Z</time></trkpt><trkpt lat="42.1908398" lon="14.6158607"><ele>23.0</ele><time>2026-04-26T09:31:52.231Z</time></trkpt><trkpt lat="42.1906735" lon="14.6158107"><ele>24.75</ele><time>2026-04-26T09:31:53.225Z</time></trkpt><trkpt lat="42.1905212" lon="14.6157872"><ele>26.5</ele><time>2026-04-26T09:31:54.224Z</time></trkpt><trkpt lat="42.1903839" lon="14.6157572"><ele>28.25</ele><time>2026-04-26T09:31:55.233Z</time></trkpt><trkpt lat="42.1902461" lon="14.6157577"><ele>30.0</ele><time>2026-04-26T09:31:56.214Z</time></trkpt><trkpt lat="42.190098" lon="14.615781"><ele>30.0</ele><time>2026-04-26T09:31:57.176Z</time></trkpt><trkpt lat="42.1899578" lon="14.6158127"><ele>30.0</ele><time>2026-04-26T09:31:58.231Z</time></trkpt><trkpt lat="42.18984" lon="14.615841"><ele>30.0</ele><time>2026-04-26T09:31:59.249Z</time></trkpt><trkpt lat="42.1897359" lon="14.6158453"><ele>30.0</ele><time>2026-04-26T09:32:00.229Z</time></trkpt><trkpt lat="42.1896156" lon="14.6158132"><ele>31.25</ele><time>2026-04-26T09:32:01.218Z</time></trkpt><trkpt lat="42.18947" lon="14.6157497"><ele>32.5</ele><time>2026-04-26T09:32:02.242Z</time></trkpt><trkpt lat="42.1893407" lon="14.6156987"><ele>33.75</ele><time>2026-04-26T09:32:03.219Z</time></trkpt><trkpt lat="42.1892306" lon="14.6156559"><ele>35.0</ele><time>2026-04-26T09:32:04.23Z</time></trkpt><trkpt lat="42.1891108" lon="14.6156003"><ele>35.0</ele><time>2026-04-26T09:32:05.219Z</time></trkpt><trkpt lat="42.1889814" lon="14.6155396"><ele>35.0</ele><time>2026-04-26T09:32:06.225Z</time></trkpt><trkpt lat="42.1888443" lon="14.6154749"><ele>35.0</ele><time>2026-04-26T09:32:07.228Z</time></trkpt><trkpt lat="42.1886978" lon="14.6153979"><ele>35.0</ele><time>2026-04-26T09:32:08.213Z</time></trkpt><trkpt lat="42.1885548" lon="14.6153133"><ele>35.0</ele><time>2026-04-26T09:32:09.229Z</time></trkpt><trkpt lat="42.1884155" lon="14.6152118"><ele>35.0</ele><time>2026-04-26T09:32:10.225Z</time></trkpt><trkpt lat="42.1882827" lon="14.6150859"><ele>35.0</ele><time>2026-04-26T09:32:11.223Z</time></trkpt><trkpt lat="42.1881596" lon="14.6149584"><ele>40.75</ele><time>2026-04-26T09:32:12.207Z</time></trkpt><trkpt lat="42.1880452" lon="14.6148316"><ele>46.5</ele><time>2026-04-26T09:32:13.217Z</time></trkpt><trkpt lat="42.1879577" lon="14.6147176"><ele>52.25</ele><time>2026-04-26T09:32:14.221Z</time></trkpt><trkpt lat="42.1878863" lon="14.6146255"><ele>58.0</ele><time>2026-04-26T09:32:15.206Z</time></trkpt><trkpt lat="42.1878011" lon="14.6145595"><ele>58.0</ele><time>2026-04-26T09:32:16.238Z</time></trkpt><trkpt lat="42.1877067" lon="14.6144939"><ele>58.0</ele><time>2026-04-26T09:32:17.241Z</time></trkpt><trkpt lat="42.1875772" lon="14.6144213"><ele>58.0</ele><time>2026-04-26T09:32:18.228Z</time></trkpt><trkpt lat="42.1874099" lon="14.6143253"><ele>58.0</ele><time>2026-04-26T09:32:19.241Z</time></trkpt><trkpt lat="42.1872301" lon="14.6142009"><ele>57.666666666666664</ele><time>2026-04-26T09:32:20.218Z</time></trkpt><trkpt lat="42.1870597" lon="14.6140723"><ele>57.33333333333333</ele><time>2026-04-26T09:32:21.231Z</time></trkpt><trkpt lat="42.1869064" lon="14.6139222"><ele>57.0</ele><time>2026-04-26T09:32:22.219Z</time></trkpt><trkpt lat="42.1867693" lon="14.6137677"><ele>57.25</ele><time>2026-04-26T09:32:23.212Z</time></trkpt><trkpt lat="42.1866432" lon="14.6136162"><ele>57.5</ele><time>2026-04-26T09:32:24.204Z</time></trkpt><trkpt lat="42.1865375" lon="14.6134777"><ele>57.75</ele><time>2026-04-26T09:32:25.226Z</time></trkpt><trkpt lat="42.1864475" lon="14.6133706"><ele>58.0</ele><time>2026-04-26T09:32:26.218Z</time></trkpt><trkpt lat="42.1863663" lon="14.6132764"><ele>58.0</ele><time>2026-04-26T09:32:27.169Z</time></trkpt><trkpt lat="42.1862564" lon="14.613197"><ele>58.0</ele><time>2026-04-26T09:32:28.222Z</time></trkpt><trkpt lat="42.1861227" lon="14.6131034"><ele>58.0</ele><time>2026-04-26T09:32:29.204Z</time></trkpt><trkpt lat="42.1859537" lon="14.6129952"><ele>58.0</ele><time>2026-04-26T09:32:30.232Z</time></trkpt><trkpt lat="42.1857654" lon="14.6128588"><ele>58.0</ele><time>2026-04-26T09:32:31.22Z</time></trkpt><trkpt lat="42.1856016" lon="14.6127327"><ele>58.0</ele><time>2026-04-26T09:32:32.197Z</time></trkpt><trkpt lat="42.1854616" lon="14.6126213"><ele>56.8</ele><time>2026-04-26T09:32:33.205Z</time></trkpt><trkpt lat="42.185365" lon="14.612524"><ele>55.599999999999994</ele><time>2026-04-26T09:32:34.212Z</time></trkpt><trkpt lat="42.1852901" lon="14.6124438"><ele>54.400000000000006</ele><time>2026-04-26T09:32:35.214Z</time></trkpt><trkpt lat="42.1852198" lon="14.6123854"><ele>53.2</ele><time>2026-04-26T09:32:36.223Z</time></trkpt><trkpt lat="42.1851539" lon="14.6123287"><ele>52.0</ele><time>2026-04-26T09:32:37.226Z</time></trkpt><trkpt lat="42.1850867" lon="14.612278"><ele>51.99999999999999</ele><time>2026-04-26T09:32:38.212Z</time></trkpt><trkpt lat="42.1850182" lon="14.6122271"><ele>52.0</ele><time>2026-04-26T09:32:39.218Z</time></trkpt><trkpt lat="42.1849518" lon="14.6121772"><ele>52.0</ele><time>2026-04-26T09:32:40.245Z</time></trkpt><trkpt lat="42.1848786" lon="14.6121226"><ele>52.0</ele><time>2026-04-26T09:32:41.223Z</time></trkpt><trkpt lat="42.1847978" lon="14.6120672"><ele>51.99999999999999</ele><time>2026-04-26T09:32:42.198Z</time></trkpt><trkpt lat="42.1847318" lon="14.612003"><ele>52.0</ele><time>2026-04-26T09:32:43.221Z</time></trkpt><trkpt lat="42.1846794" lon="14.6119333"><ele>50.5</ele><time>2026-04-26T09:32:44.243Z</time></trkpt><trkpt lat="42.1846346" lon="14.6118679"><ele>49.0</ele><time>2026-04-26T09:32:45.229Z</time></trkpt><trkpt lat="42.184592" lon="14.6117398"><ele>47.5</ele><time>2026-04-26T09:32:47.178Z</time></trkpt><trkpt lat="42.1846577" lon="14.6115373"><ele>46.0</ele><time>2026-04-26T09:32:49.228Z</time></trkpt><trkpt lat="42.184704" lon="14.6113747"><ele>46.0</ele><time>2026-04-26T09:32:50.206Z</time></trkpt><trkpt lat="42.1847224" lon="14.6112591"><ele>46.0</ele><time>2026-04-26T09:32:51.247Z</time></trkpt><trkpt lat="42.184739" lon="14.6111668"><ele>46.0</ele><time>2026-04-26T09:32:52.246Z</time></trkpt><trkpt lat="42.1847464" lon="14.6110728"><ele>46.0</ele><time>2026-04-26T09:32:53.239Z</time></trkpt><trkpt lat="42.1847257" lon="14.610988"><ele>46.0</ele><time>2026-04-26T09:32:54.211Z</time></trkpt><trkpt lat="42.1846828" lon="14.6109143"><ele>46.0</ele><time>2026-04-26T09:32:55.207Z</time></trkpt><trkpt lat="42.184603" lon="14.6108259"><ele>45.5</ele><time>2026-04-26T09:32:57.189Z</time></trkpt><trkpt lat="42.1845489" lon="14.6107441"><ele>45.0</ele><time>2026-04-26T09:32:59.193Z</time></trkpt><trkpt lat="42.1844826" lon="14.6106909"><ele>44.5</ele><time>2026-04-26T09:33:01.199Z</time></trkpt><trkpt lat="42.18438" lon="14.6106702"><ele>44.0</ele><time>2026-04-26T09:33:03.227Z</time></trkpt><trkpt lat="42.1843075" lon="14.6106444"><ele>43.5</ele><time>2026-04-26T09:33:04.23Z</time></trkpt><trkpt lat="42.1842197" lon="14.610632"><ele>43.0</ele><time>2026-04-26T09:33:05.209Z</time></trkpt><trkpt lat="42.1841073" lon="14.6106698"><ele>43.5</ele><time>2026-04-26T09:33:06.225Z</time></trkpt><trkpt lat="42.1839848" lon="14.6107205"><ele>44.0</ele><time>2026-04-26T09:33:07.224Z</time></trkpt><trkpt lat="42.1838511" lon="14.6107559"><ele>44.5</ele><time>2026-04-26T09:33:08.206Z</time></trkpt><trkpt lat="42.1837156" lon="14.6107719"><ele>45.0</ele><time>2026-04-26T09:33:09.234Z</time></trkpt><trkpt lat="42.1835991" lon="14.6107875"><ele>45.0</ele><time>2026-04-26T09:33:10.256Z</time></trkpt><trkpt lat="42.1834795" lon="14.610804"><ele>45.0</ele><time>2026-04-26T09:33:11.242Z</time></trkpt><trkpt lat="42.183371" lon="14.6107952"><ele>45.0</ele><time>2026-04-26T09:33:12.224Z</time></trkpt><trkpt lat="42.1832612" lon="14.6107619"><ele>45.0</ele><time>2026-04-26T09:33:13.226Z</time></trkpt><trkpt lat="42.1831356" lon="14.6107277"><ele>46.33333333333333</ele><time>2026-04-26T09:33:14.24Z</time></trkpt><trkpt lat="42.1829943" lon="14.610701"><ele>47.666666666666664</ele><time>2026-04-26T09:33:15.266Z</time></trkpt><trkpt lat="42.1828216" lon="14.6106944"><ele>49.0</ele><time>2026-04-26T09:33:16.244Z</time></trkpt><trkpt lat="42.1826356" lon="14.6106922"><ele>49.0</ele><time>2026-04-26T09:33:17.171Z</time></trkpt><trkpt lat="42.182459" lon="14.6106937"><ele>49.0</ele><time>2026-04-26T09:33:18.242Z</time></trkpt><trkpt lat="42.1822908" lon="14.610683"><ele>49.0</ele><time>2026-04-26T09:33:19.247Z</time></trkpt><trkpt lat="42.1821478" lon="14.6106832"><ele>49.5</ele><time>2026-04-26T09:33:20.219Z</time></trkpt><trkpt lat="42.1820119" lon="14.6106922"><ele>50.0</ele><time>2026-04-26T09:33:21.231Z</time></trkpt><trkpt lat="42.1818763" lon="14.6107049"><ele>50.5</ele><time>2026-04-26T09:33:22.175Z</time></trkpt><trkpt lat="42.1817392" lon="14.6107252"><ele>51.0</ele><time>2026-04-26T09:33:23.217Z</time></trkpt><trkpt lat="42.1816188" lon="14.6107517"><ele>52.5</ele><time>2026-04-26T09:33:24.241Z</time></trkpt><trkpt lat="42.1815001" lon="14.6107918"><ele>54.0</ele><time>2026-04-26T09:33:25.23Z</time></trkpt><trkpt lat="42.181368" lon="14.6108375"><ele>55.5</ele><time>2026-04-26T09:33:26.217Z</time></trkpt><trkpt lat="42.1812257" lon="14.610884"><ele>57.0</ele><time>2026-04-26T09:33:27.213Z</time></trkpt><trkpt lat="42.1810892" lon="14.6109401"><ele>57.0</ele><time>2026-04-26T09:33:28.221Z</time></trkpt><trkpt lat="42.180968" lon="14.6110111"><ele>57.0</ele><time>2026-04-26T09:33:29.218Z</time></trkpt><trkpt lat="42.1808556" lon="14.6110873"><ele>57.0</ele><time>2026-04-26T09:33:30.219Z</time></trkpt><trkpt lat="42.1807276" lon="14.6111712"><ele>57.0</ele><time>2026-04-26T09:33:31.229Z</time></trkpt><trkpt lat="42.1805927" lon="14.6112629"><ele>55.5</ele><time>2026-04-26T09:33:32.227Z</time></trkpt><trkpt lat="42.1804556" lon="14.61137"><ele>54.0</ele><time>2026-04-26T09:33:33.267Z</time></trkpt><trkpt lat="42.1803313" lon="14.6114628"><ele>52.5</ele><time>2026-04-26T09:33:34.2Z</time></trkpt><trkpt lat="42.1802148" lon="14.611527"><ele>51.0</ele><time>2026-04-26T09:33:35.201Z</time></trkpt><trkpt lat="42.1800944" lon="14.61158"><ele>51.0</ele><time>2026-04-26T09:33:36.185Z</time></trkpt><trkpt lat="42.1799704" lon="14.6116107"><ele>51.0</ele><time>2026-04-26T09:33:37.175Z</time></trkpt><trkpt lat="42.1798486" lon="14.6116057"><ele>51.0</ele><time>2026-04-26T09:33:38.232Z</time></trkpt><trkpt lat="42.1797133" lon="14.6115774"><ele>51.0</ele><time>2026-04-26T09:33:39.171Z</time></trkpt><trkpt lat="42.1795769" lon="14.6115597"><ele>51.75</ele><time>2026-04-26T09:33:40.207Z</time></trkpt><trkpt lat="42.1794382" lon="14.6115683"><ele>52.5</ele><time>2026-04-26T09:33:41.191Z</time></trkpt><trkpt lat="42.1792904" lon="14.6115937"><ele>53.25</ele><time>2026-04-26T09:33:42.197Z</time></trkpt><trkpt lat="42.1791581" lon="14.6116168"><ele>54.0</ele><time>2026-04-26T09:33:43.214Z</time></trkpt><trkpt lat="42.1790428" lon="14.6116185"><ele>54.25</ele><time>2026-04-26T09:33:44.218Z</time></trkpt><trkpt lat="42.1789249" lon="14.6115938"><ele>54.5</ele><time>2026-04-26T09:33:45.214Z</time></trkpt><trkpt lat="42.1787924" lon="14.6115756"><ele>54.75</ele><time>2026-04-26T09:33:46.225Z</time></trkpt><trkpt lat="42.1786681" lon="14.6115663"><ele>55.0</ele><time>2026-04-26T09:33:47.222Z</time></trkpt><trkpt lat="42.1785691" lon="14.6115504"><ele>55.0</ele><time>2026-04-26T09:33:48.213Z</time></trkpt><trkpt lat="42.1784795" lon="14.6115277"><ele>55.0</ele><time>2026-04-26T09:33:49.231Z</time></trkpt><trkpt lat="42.1783951" lon="14.6114987"><ele>55.0</ele><time>2026-04-26T09:33:50.223Z</time></trkpt><trkpt lat="42.178307" lon="14.6114608"><ele>55.0</ele><time>2026-04-26T09:33:51.224Z</time></trkpt><trkpt lat="42.1782173" lon="14.6114213"><ele>55.0</ele><time>2026-04-26T09:33:52.223Z</time></trkpt><trkpt lat="42.1781362" lon="14.6113762"><ele>55.2</ele><time>2026-04-26T09:33:53.221Z</time></trkpt><trkpt lat="42.1780629" lon="14.611319"><ele>55.4</ele><time>2026-04-26T09:33:54.237Z</time></trkpt><trkpt lat="42.1779906" lon="14.6112559"><ele>55.599999999999994</ele><time>2026-04-26T09:33:55.229Z</time></trkpt><trkpt lat="42.1779124" lon="14.6112256"><ele>55.8</ele><time>2026-04-26T09:33:56.227Z</time></trkpt><trkpt lat="42.1777936" lon="14.6112392"><ele>56.0</ele><time>2026-04-26T09:33:57.174Z</time></trkpt><trkpt lat="42.1776254" lon="14.6112627"><ele>56.0</ele><time>2026-04-26T09:33:58.215Z</time></trkpt><trkpt lat="42.1774428" lon="14.611294"><ele>56.0</ele><time>2026-04-26T09:33:59.235Z</time></trkpt><trkpt lat="42.1772716" lon="14.6113158"><ele>56.0</ele><time>2026-04-26T09:34:00.25Z</time></trkpt><trkpt lat="42.1771234" lon="14.611336"><ele>56.599999999999994</ele><time>2026-04-26T09:34:01.224Z</time></trkpt><trkpt lat="42.1769948" lon="14.6113651"><ele>57.199999999999996</ele><time>2026-04-26T09:34:02.219Z</time></trkpt><trkpt lat="42.176887" lon="14.6113985"><ele>57.800000000000004</ele><time>2026-04-26T09:34:03.234Z</time></trkpt><trkpt lat="42.1767809" lon="14.61142"><ele>58.400000000000006</ele><time>2026-04-26T09:34:04.235Z</time></trkpt><trkpt lat="42.1766873" lon="14.6114209"><ele>59.0</ele><time>2026-04-26T09:34:05.215Z</time></trkpt><trkpt lat="42.1766179" lon="14.6114048"><ele>59.0</ele><time>2026-04-26T09:34:06.229Z</time></trkpt><trkpt lat="42.1765542" lon="14.611348"><ele>59.00000000000001</ele><time>2026-04-26T09:34:07.207Z</time></trkpt><trkpt lat="42.1764903" lon="14.6112785"><ele>59.00000000000001</ele><time>2026-04-26T09:34:08.208Z</time></trkpt><trkpt lat="42.1764149" lon="14.6111716"><ele>59.0</ele><time>2026-04-26T09:34:09.174Z</time></trkpt><trkpt lat="42.1763362" lon="14.6110611"><ele>59.0</ele><time>2026-04-26T09:34:10.222Z</time></trkpt><trkpt lat="42.17626" lon="14.6109518"><ele>60.75</ele><time>2026-04-26T09:34:11.219Z</time></trkpt><trkpt lat="42.1761704" lon="14.6108327"><ele>62.5</ele><time>2026-04-26T09:34:12.227Z</time></trkpt><trkpt lat="42.1760821" lon="14.6107191"><ele>64.25</ele><time>2026-04-26T09:34:13.225Z</time></trkpt><trkpt lat="42.175994" lon="14.6106066"><ele>66.0</ele><time>2026-04-26T09:34:14.239Z</time></trkpt><trkpt lat="42.1758966" lon="14.6105001"><ele>66.0</ele><time>2026-04-26T09:34:15.234Z</time></trkpt><trkpt lat="42.1758098" lon="14.6104232"><ele>66.0</ele><time>2026-04-26T09:34:16.242Z</time></trkpt><trkpt lat="42.1757338" lon="14.6103715"><ele>66.0</ele><time>2026-04-26T09:34:17.221Z</time></trkpt><trkpt lat="42.1756345" lon="14.6103415"><ele>66.0</ele><time>2026-04-26T09:34:18.219Z</time></trkpt><trkpt lat="42.175515" lon="14.6103336"><ele>66.0</ele><time>2026-04-26T09:34:19.217Z</time></trkpt><trkpt lat="42.175385" lon="14.6103166"><ele>71.66666666666667</ele><time>2026-04-26T09:34:20.234Z</time></trkpt><trkpt lat="42.1752476" lon="14.6102943"><ele>77.33333333333334</ele><time>2026-04-26T09:34:21.221Z</time></trkpt><trkpt lat="42.1750903" lon="14.61026"><ele>83.0</ele><time>2026-04-26T09:34:22.374Z</time></trkpt><trkpt lat="42.1747044" lon="14.6101518"><ele>86.33333333333334</ele><time>2026-04-26T09:34:24.224Z</time></trkpt><trkpt lat="42.1744957" lon="14.6100942"><ele>89.66666666666667</ele><time>2026-04-26T09:34:25.213Z</time></trkpt><trkpt lat="42.1743242" lon="14.6100473"><ele>93.0</ele><time>2026-04-26T09:34:26.218Z</time></trkpt><trkpt lat="42.1741765" lon="14.6100146"><ele>93.0</ele><time>2026-04-26T09:34:27.252Z</time></trkpt><trkpt lat="42.174029" lon="14.6099814"><ele>93.0</ele><time>2026-04-26T09:34:28.183Z</time></trkpt><trkpt lat="42.1738779" lon="14.6099631"><ele>93.0</ele><time>2026-04-26T09:34:29.214Z</time></trkpt><trkpt lat="42.1737432" lon="14.6099837"><ele>93.0</ele><time>2026-04-26T09:34:30.221Z</time></trkpt><trkpt lat="42.1736318" lon="14.6100182"><ele>94.2</ele><time>2026-04-26T09:34:31.248Z</time></trkpt><trkpt lat="42.1735321" lon="14.6100459"><ele>95.4</ele><time>2026-04-26T09:34:32.171Z</time></trkpt><trkpt lat="42.1734578" lon="14.6100555"><ele>96.60000000000001</ele><time>2026-04-26T09:34:33.228Z</time></trkpt><trkpt lat="42.1733961" lon="14.6100203"><ele>97.80000000000001</ele><time>2026-04-26T09:34:34.229Z</time></trkpt><trkpt lat="42.173334" lon="14.6099442"><ele>99.0</ele><time>2026-04-26T09:34:35.217Z</time></trkpt><trkpt lat="42.1732296" lon="14.6098394"><ele>99.25</ele><time>2026-04-26T09:34:36.23Z</time></trkpt><trkpt lat="42.1731108" lon="14.6097151"><ele>99.5</ele><time>2026-04-26T09:34:37.215Z</time></trkpt><trkpt lat="42.1730085" lon="14.6096284"><ele>99.75</ele><time>2026-04-26T09:34:38.233Z</time></trkpt><trkpt lat="42.1729105" lon="14.6095662"><ele>100.0</ele><time>2026-04-26T09:34:39.232Z</time></trkpt><trkpt lat="42.1728094" lon="14.6095004"><ele>102.0</ele><time>2026-04-26T09:34:40.233Z</time></trkpt><trkpt lat="42.1727049" lon="14.6094259"><ele>104.0</ele><time>2026-04-26T09:34:41.229Z</time></trkpt><trkpt lat="42.1726199" lon="14.6093074"><ele>106.0</ele><time>2026-04-26T09:34:42.236Z</time></trkpt><trkpt lat="42.1725241" lon="14.6091655"><ele>108.0</ele><time>2026-04-26T09:34:43.229Z</time></trkpt><trkpt lat="42.1724112" lon="14.6090039"><ele>108.0</ele><time>2026-04-26T09:34:44.234Z</time></trkpt><trkpt lat="42.1722873" lon="14.6088347"><ele>108.0</ele><time>2026-04-26T09:34:45.23Z</time></trkpt><trkpt lat="42.1721589" lon="14.6086756"><ele>108.0</ele><time>2026-04-26T09:34:46.239Z</time></trkpt><trkpt lat="42.1720429" lon="14.6085409"><ele>109.0</ele><time>2026-04-26T09:34:47.231Z</time></trkpt><trkpt lat="42.1719296" lon="14.6084149"><ele>110.0</ele><time>2026-04-26T09:34:48.23Z</time></trkpt><trkpt lat="42.1718187" lon="14.6082904"><ele>111.0</ele><time>2026-04-26T09:34:49.233Z</time></trkpt><trkpt lat="42.1717072" lon="14.6081557"><ele>112.0</ele><time>2026-04-26T09:34:50.172Z</time></trkpt><trkpt lat="42.1716184" lon="14.6080349"><ele>112.00000000000001</ele><time>2026-04-26T09:34:51.229Z</time></trkpt><trkpt lat="42.1715404" lon="14.6079538"><ele>112.0</ele><time>2026-04-26T09:34:52.204Z</time></trkpt><trkpt lat="42.1714814" lon="14.6078919"><ele>112.0</ele><time>2026-04-26T09:34:53.236Z</time></trkpt><trkpt lat="42.1714347" lon="14.6078306"><ele>112.0</ele><time>2026-04-26T09:34:54.237Z</time></trkpt><trkpt lat="42.171381" lon="14.607748"><ele>112.00000000000001</ele><time>2026-04-26T09:34:55.233Z</time></trkpt><trkpt lat="42.1713005" lon="14.6076374"><ele>112.0</ele><time>2026-04-26T09:34:56.25Z</time></trkpt><trkpt lat="42.1711974" lon="14.6074949"><ele>112.75</ele><time>2026-04-26T09:34:57.222Z</time></trkpt><trkpt lat="42.1710998" lon="14.6073706"><ele>113.5</ele><time>2026-04-26T09:34:58.22Z</time></trkpt><trkpt lat="42.1710038" lon="14.6072458"><ele>114.25</ele><time>2026-04-26T09:34:59.247Z</time></trkpt><trkpt lat="42.1709067" lon="14.6071125"><ele>115.0</ele><time>2026-04-26T09:35:00.239Z</time></trkpt><trkpt lat="42.170817" lon="14.6069813"><ele>115.25</ele><time>2026-04-26T09:35:01.245Z</time></trkpt><trkpt lat="42.1707305" lon="14.6068588"><ele>115.5</ele><time>2026-04-26T09:35:02.216Z</time></trkpt><trkpt lat="42.170645" lon="14.6067353"><ele>115.75</ele><time>2026-04-26T09:35:03.182Z</time></trkpt><trkpt lat="42.1705571" lon="14.606606"><ele>116.0</ele><time>2026-04-26T09:35:04.223Z</time></trkpt><trkpt lat="42.1704597" lon="14.6064627"><ele>116.25</ele><time>2026-04-26T09:35:05.197Z</time></trkpt><trkpt lat="42.1703461" lon="14.6063158"><ele>116.5</ele><time>2026-04-26T09:35:06.179Z</time></trkpt><trkpt lat="42.1702361" lon="14.6061768"><ele>116.75</ele><time>2026-04-26T09:35:07.177Z</time></trkpt><trkpt lat="42.1701349" lon="14.6060512"><ele>117.0</ele><time>2026-04-26T09:35:08.178Z</time></trkpt><trkpt lat="42.1700423" lon="14.6059437"><ele>117.0</ele><time>2026-04-26T09:35:09.173Z</time></trkpt><trkpt lat="42.1699432" lon="14.6058384"><ele>117.0</ele><time>2026-04-26T09:35:10.187Z</time></trkpt><trkpt lat="42.169841" lon="14.6057331"><ele>117.0</ele><time>2026-04-26T09:35:11.199Z</time></trkpt><trkpt lat="42.1697447" lon="14.6056235"><ele>117.0</ele><time>2026-04-26T09:35:12.228Z</time></trkpt><trkpt lat="42.1696441" lon="14.6055032"><ele>117.5</ele><time>2026-04-26T09:35:13.231Z</time></trkpt><trkpt lat="42.1695383" lon="14.6053785"><ele>118.0</ele><time>2026-04-26T09:35:14.233Z</time></trkpt><trkpt lat="42.1694309" lon="14.6052535"><ele>118.5</ele><time>2026-04-26T09:35:15.239Z</time></trkpt><trkpt lat="42.1693464" lon="14.6051421"><ele>119.0</ele><time>2026-04-26T09:35:16.235Z</time></trkpt><trkpt lat="42.1692777" lon="14.6050423"><ele>119.0</ele><time>2026-04-26T09:35:17.234Z</time></trkpt><trkpt lat="42.1692134" lon="14.6049547"><ele>119.0</ele><time>2026-04-26T09:35:18.255Z</time></trkpt><trkpt lat="42.1691428" lon="14.6048805"><ele>119.0</ele><time>2026-04-26T09:35:19.233Z</time></trkpt><trkpt lat="42.169059" lon="14.6047892"><ele>119.0</ele><time>2026-04-26T09:35:20.244Z</time></trkpt><trkpt lat="42.1689611" lon="14.6046843"><ele>119.0</ele><time>2026-04-26T09:35:21.255Z</time></trkpt><trkpt lat="42.1688777" lon="14.604583"><ele>119.4</ele><time>2026-04-26T09:35:22.228Z</time></trkpt><trkpt lat="42.1688185" lon="14.6045135"><ele>119.80000000000001</ele><time>2026-04-26T09:35:23.243Z</time></trkpt><trkpt lat="42.168748" lon="14.6044924"><ele>120.19999999999999</ele><time>2026-04-26T09:35:25.247Z</time></trkpt><trkpt lat="42.1686704" lon="14.6046474"><ele>120.6</ele><time>2026-04-26T09:35:27.218Z</time></trkpt><trkpt lat="42.1686302" lon="14.6047641"><ele>121.0</ele><time>2026-04-26T09:35:28.242Z</time></trkpt><trkpt lat="42.1685831" lon="14.6048803"><ele>121.00000000000001</ele><time>2026-04-26T09:35:29.226Z</time></trkpt><trkpt lat="42.168537" lon="14.6049724"><ele>121.0</ele><time>2026-04-26T09:35:30.221Z</time></trkpt><trkpt lat="42.1684926" lon="14.6050473"><ele>121.0</ele><time>2026-04-26T09:35:31.236Z</time></trkpt><trkpt lat="42.1684388" lon="14.6051266"><ele>121.0</ele><time>2026-04-26T09:35:32.222Z</time></trkpt><trkpt lat="42.168378" lon="14.6052224"><ele>121.00000000000001</ele><time>2026-04-26T09:35:33.237Z</time></trkpt><trkpt lat="42.1683158" lon="14.6053221"><ele>121.0</ele><time>2026-04-26T09:35:34.211Z</time></trkpt><trkpt lat="42.1682524" lon="14.6054303"><ele>121.5</ele><time>2026-04-26T09:35:35.174Z</time></trkpt><trkpt lat="42.1681818" lon="14.6055489"><ele>122.0</ele><time>2026-04-26T09:35:36.214Z</time></trkpt><trkpt lat="42.1681045" lon="14.6056871"><ele>122.5</ele><time>2026-04-26T09:35:37.219Z</time></trkpt><trkpt lat="42.168029" lon="14.6058306"><ele>123.0</ele><time>2026-04-26T09:35:38.225Z</time></trkpt><trkpt lat="42.1679488" lon="14.6059761"><ele>123.0</ele><time>2026-04-26T09:35:39.216Z</time></trkpt><trkpt lat="42.1678662" lon="14.6061261"><ele>123.0</ele><time>2026-04-26T09:35:40.237Z</time></trkpt><trkpt lat="42.1677987" lon="14.6062733"><ele>123.0</ele><time>2026-04-26T09:35:41.221Z</time></trkpt><trkpt lat="42.1677418" lon="14.6063966"><ele>123.0</ele><time>2026-04-26T09:35:42.227Z</time></trkpt><trkpt lat="42.1677112" lon="14.6064957"><ele>122.2</ele><time>2026-04-26T09:35:43.2Z</time></trkpt><trkpt lat="42.1676848" lon="14.6066361"><ele>121.4</ele><time>2026-04-26T09:35:45.227Z</time></trkpt><trkpt lat="42.1676527" lon="14.6067449"><ele>120.60000000000001</ele><time>2026-04-26T09:35:48.225Z</time></trkpt><trkpt lat="42.1675914" lon="14.6068092"><ele>119.80000000000001</ele><time>2026-04-26T09:35:50.182Z</time></trkpt><trkpt lat="42.1674914" lon="14.6068543"><ele>119.0</ele><time>2026-04-26T09:35:52.218Z</time></trkpt><trkpt lat="42.1674059" lon="14.6068967"><ele>118.99999999999999</ele><time>2026-04-26T09:35:54.179Z</time></trkpt><trkpt lat="42.1673724" lon="14.6069914"><ele>119.0</ele><time>2026-04-26T09:35:56.207Z</time></trkpt><trkpt lat="42.1674013" lon="14.6070862"><ele>119.0</ele><time>2026-04-26T09:35:58.209Z</time></trkpt><trkpt lat="42.1674548" lon="14.6071857"><ele>119.0</ele><time>2026-04-26T09:36:00.212Z</time></trkpt><trkpt lat="42.1674839" lon="14.6072848"><ele>118.99999999999999</ele><time>2026-04-26T09:36:02.213Z</time></trkpt><trkpt lat="42.1674851" lon="14.6074077"><ele>119.0</ele><time>2026-04-26T09:36:05.18Z</time></trkpt><trkpt lat="42.1674765" lon="14.6075226"><ele>116.80000000000001</ele><time>2026-04-26T09:36:07.189Z</time></trkpt><trkpt lat="42.1674544" lon="14.6076535"><ele>114.60000000000001</ele><time>2026-04-26T09:36:09.182Z</time></trkpt><trkpt lat="42.1673994" lon="14.6077796"><ele>112.4</ele><time>2026-04-26T09:36:11.218Z</time></trkpt><trkpt lat="42.1673214" lon="14.607879"><ele>110.2</ele><time>2026-04-26T09:36:13.233Z</time></trkpt><trkpt lat="42.1672621" lon="14.6079164"><ele>108.0</ele><time>2026-04-26T09:36:14.234Z</time></trkpt><trkpt lat="42.1671699" lon="14.607947"><ele>103.60000000000001</ele><time>2026-04-26T09:36:15.243Z</time></trkpt><trkpt lat="42.1670645" lon="14.6079705"><ele>99.20000000000002</ele><time>2026-04-26T09:36:16.241Z</time></trkpt><trkpt lat="42.1669758" lon="14.607992"><ele>94.8</ele><time>2026-04-26T09:36:17.216Z</time></trkpt><trkpt lat="42.1669112" lon="14.6080165"><ele>90.4</ele><time>2026-04-26T09:36:18.233Z</time></trkpt><trkpt lat="42.1667843" lon="14.608042"><ele>86.0</ele><time>2026-04-26T09:36:20.263Z</time></trkpt><trkpt lat="42.1666888" lon="14.6080578"><ele>86.0</ele><time>2026-04-26T09:36:22.237Z</time></trkpt><trkpt lat="42.1666028" lon="14.6080675"><ele>86.0</ele><time>2026-04-26T09:36:24.224Z</time></trkpt><trkpt lat="42.1665094" lon="14.6080653"><ele>86.0</ele><time>2026-04-26T09:36:26.227Z</time></trkpt><trkpt lat="42.1664184" lon="14.6080539"><ele>86.0</ele><time>2026-04-26T09:36:28.214Z</time></trkpt><trkpt lat="42.1663383" lon="14.6080346"><ele>86.0</ele><time>2026-04-26T09:36:30.173Z</time></trkpt><trkpt lat="42.1662097" lon="14.6080163"><ele>85.8</ele><time>2026-04-26T09:36:32.217Z</time></trkpt><trkpt lat="42.1661403" lon="14.6080411"><ele>85.6</ele><time>2026-04-26T09:36:33.225Z</time></trkpt><trkpt lat="42.1660449" lon="14.6081134"><ele>85.4</ele><time>2026-04-26T09:36:35.219Z</time></trkpt><trkpt lat="42.1659589" lon="14.6081927"><ele>85.2</ele><time>2026-04-26T09:36:37.234Z</time></trkpt><trkpt lat="42.1658666" lon="14.6082705"><ele>85.0</ele><time>2026-04-26T09:36:39.206Z</time></trkpt><trkpt lat="42.1657663" lon="14.6083265"><ele>85.4</ele><time>2026-04-26T09:36:41.223Z</time></trkpt><trkpt lat="42.1656479" lon="14.6083742"><ele>85.8</ele><time>2026-04-26T09:36:43.226Z</time></trkpt><trkpt lat="42.1655621" lon="14.608331"><ele>86.19999999999999</ele><time>2026-04-26T09:36:45.207Z</time></trkpt><trkpt lat="42.1655119" lon="14.6081759"><ele>86.6</ele><time>2026-04-26T09:36:47.172Z</time></trkpt><trkpt lat="42.1655091" lon="14.6080596"><ele>87.0</ele><time>2026-04-26T09:36:48.237Z</time></trkpt><trkpt lat="42.1655157" lon="14.6079291"><ele>88.25</ele><time>2026-04-26T09:36:49.2Z</time></trkpt><trkpt lat="42.1655322" lon="14.6077932"><ele>89.5</ele><time>2026-04-26T09:36:50.2Z</time></trkpt><trkpt lat="42.1655445" lon="14.6076389"><ele>90.75</ele><time>2026-04-26T09:36:51.201Z</time></trkpt><trkpt lat="42.1655384" lon="14.6074704"><ele>92.0</ele><time>2026-04-26T09:36:52.227Z</time></trkpt><trkpt lat="42.1655226" lon="14.6072931"><ele>92.0</ele><time>2026-04-26T09:36:53.217Z</time></trkpt><trkpt lat="42.1654943" lon="14.6071171"><ele>92.0</ele><time>2026-04-26T09:36:54.202Z</time></trkpt><trkpt lat="42.1654505" lon="14.6069402"><ele>92.0</ele><time>2026-04-26T09:36:55.214Z</time></trkpt><trkpt lat="42.1654072" lon="14.6067583"><ele>92.0</ele><time>2026-04-26T09:36:56.236Z</time></trkpt><trkpt lat="42.1653554" lon="14.6065812"><ele>92.25</ele><time>2026-04-26T09:36:57.214Z</time></trkpt><trkpt lat="42.1652958" lon="14.6064197"><ele>92.5</ele><time>2026-04-26T09:36:58.177Z</time></trkpt><trkpt lat="42.1652299" lon="14.6062697"><ele>92.75</ele><time>2026-04-26T09:36:59.197Z</time></trkpt><trkpt lat="42.1651729" lon="14.6061222"><ele>93.0</ele><time>2026-04-26T09:37:00.171Z</time></trkpt><trkpt lat="42.1651209" lon="14.6059752"><ele>92.33333333333333</ele><time>2026-04-26T09:37:01.216Z</time></trkpt><trkpt lat="42.1650507" lon="14.605828"><ele>91.66666666666666</ele><time>2026-04-26T09:37:02.212Z</time></trkpt><trkpt lat="42.1649457" lon="14.6056552"><ele>91.0</ele><time>2026-04-26T09:37:03.214Z</time></trkpt><trkpt lat="42.1648294" lon="14.6054716"><ele>93.0</ele><time>2026-04-26T09:37:04.22Z</time></trkpt><trkpt lat="42.1647368" lon="14.6053167"><ele>95.0</ele><time>2026-04-26T09:37:05.214Z</time></trkpt><trkpt lat="42.164667" lon="14.6051825"><ele>97.0</ele><time>2026-04-26T09:37:06.233Z</time></trkpt><trkpt lat="42.1646082" lon="14.6050595"><ele>99.0</ele><time>2026-04-26T09:37:07.216Z</time></trkpt><trkpt lat="42.1645449" lon="14.6049355"><ele>99.0</ele><time>2026-04-26T09:37:08.169Z</time></trkpt><trkpt lat="42.1644749" lon="14.6048055"><ele>99.0</ele><time>2026-04-26T09:37:09.214Z</time></trkpt><trkpt lat="42.1644037" lon="14.6046887"><ele>99.0</ele><time>2026-04-26T09:37:10.224Z</time></trkpt><trkpt lat="42.164327" lon="14.6045824"><ele>99.0</ele><time>2026-04-26T09:37:11.257Z</time></trkpt><trkpt lat="42.1642593" lon="14.6044842"><ele>99.0</ele><time>2026-04-26T09:37:12.219Z</time></trkpt><trkpt lat="42.1642012" lon="14.6043835"><ele>98.2</ele><time>2026-04-26T09:37:13.224Z</time></trkpt><trkpt lat="42.1641459" lon="14.6042615"><ele>97.4</ele><time>2026-04-26T09:37:14.216Z</time></trkpt><trkpt lat="42.1641016" lon="14.6041253"><ele>96.6</ele><time>2026-04-26T09:37:15.212Z</time></trkpt><trkpt lat="42.1640664" lon="14.6040137"><ele>95.8</ele><time>2026-04-26T09:37:16.213Z</time></trkpt><trkpt lat="42.164029" lon="14.6039143"><ele>95.0</ele><time>2026-04-26T09:37:17.211Z</time></trkpt><trkpt lat="42.1639829" lon="14.6038409"><ele>96.16666666666667</ele><time>2026-04-26T09:37:18.226Z</time></trkpt><trkpt lat="42.1639122" lon="14.6037791"><ele>97.33333333333334</ele><time>2026-04-26T09:37:19.226Z</time></trkpt><trkpt lat="42.1638262" lon="14.6037193"><ele>98.5</ele><time>2026-04-26T09:37:20.262Z</time></trkpt><trkpt lat="42.1637397" lon="14.6036581"><ele>99.66666666666667</ele><time>2026-04-26T09:37:21.213Z</time></trkpt><trkpt lat="42.1636689" lon="14.6035952"><ele>100.83333333333333</ele><time>2026-04-26T09:37:22.258Z</time></trkpt><trkpt lat="42.1636136" lon="14.6035394"><ele>102.0</ele><time>2026-04-26T09:37:23.236Z</time></trkpt><trkpt lat="42.1635601" lon="14.6034859"><ele>102.0</ele><time>2026-04-26T09:37:24.223Z</time></trkpt><trkpt lat="42.1634615" lon="14.6033814"><ele>102.0</ele><time>2026-04-26T09:37:26.221Z</time></trkpt><trkpt lat="42.1634282" lon="14.6033029"><ele>102.0</ele><time>2026-04-26T09:37:27.193Z</time></trkpt><trkpt lat="42.1634066" lon="14.6032068"><ele>102.0</ele><time>2026-04-26T09:37:28.213Z</time></trkpt><trkpt lat="42.1633895" lon="14.603106"><ele>102.0</ele><time>2026-04-26T09:37:29.202Z</time></trkpt><trkpt lat="42.1633714" lon="14.6030043"><ele>102.0</ele><time>2026-04-26T09:37:30.231Z</time></trkpt><trkpt lat="42.163355" lon="14.6029124"><ele>101.8</ele><time>2026-04-26T09:37:31.221Z</time></trkpt><trkpt lat="42.1633321" lon="14.6027639"><ele>101.6</ele><time>2026-04-26T09:37:33.165Z</time></trkpt><trkpt lat="42.1633071" lon="14.6026573"><ele>101.39999999999999</ele><time>2026-04-26T09:37:35.22Z</time></trkpt><trkpt lat="42.163261" lon="14.6025862"><ele>101.19999999999999</ele><time>2026-04-26T09:37:37.193Z</time></trkpt><trkpt lat="42.1631825" lon="14.6024439"><ele>101.0</ele><time>2026-04-26T09:37:39.231Z</time></trkpt><trkpt lat="42.163139" lon="14.6023723"><ele>101.6</ele><time>2026-04-26T09:37:40.23Z</time></trkpt><trkpt lat="42.1630619" lon="14.6022743"><ele>102.19999999999999</ele><time>2026-04-26T09:37:42.231Z</time></trkpt><trkpt lat="42.1630197" lon="14.6021572"><ele>102.80000000000001</ele><time>2026-04-26T09:37:44.199Z</time></trkpt><trkpt lat="42.1630051" lon="14.6020009"><ele>103.4</ele><time>2026-04-26T09:37:46.209Z</time></trkpt><trkpt lat="42.1629869" lon="14.6018592"><ele>104.0</ele><time>2026-04-26T09:37:48.241Z</time></trkpt><trkpt lat="42.1629342" lon="14.6017217"><ele>104.0</ele><time>2026-04-26T09:37:50.251Z</time></trkpt><trkpt lat="42.1628707" lon="14.6015999"><ele>104.0</ele><time>2026-04-26T09:37:51.23Z</time></trkpt><trkpt lat="42.1627882" lon="14.6014866"><ele>104.0</ele><time>2026-04-26T09:37:52.197Z</time></trkpt><trkpt lat="42.1627177" lon="14.6014102"><ele>104.0</ele><time>2026-04-26T09:37:53.236Z</time></trkpt><trkpt lat="42.1626586" lon="14.6013725"><ele>104.0</ele><time>2026-04-26T09:37:54.238Z</time></trkpt><trkpt lat="42.1625299" lon="14.6013135"><ele>103.99999999999999</ele><time>2026-04-26T09:37:56.213Z</time></trkpt><trkpt lat="42.162464" lon="14.6012823"><ele>104.0</ele><time>2026-04-26T09:37:57.209Z</time></trkpt><trkpt lat="42.162369" lon="14.6012192"><ele>104.0</ele><time>2026-04-26T09:37:59.186Z</time></trkpt><trkpt lat="42.1622766" lon="14.6011174"><ele>104.0</ele><time>2026-04-26T09:38:01.228Z</time></trkpt><trkpt lat="42.1621983" lon="14.6010821"><ele>103.99999999999999</ele><time>2026-04-26T09:38:03.211Z</time></trkpt><trkpt lat="42.1621303" lon="14.6011135"><ele>104.0</ele><time>2026-04-26T09:38:04.235Z</time></trkpt><trkpt lat="42.1620478" lon="14.6011608"><ele>104.80000000000001</ele><time>2026-04-26T09:38:05.186Z</time></trkpt><trkpt lat="42.1619677" lon="14.6011892"><ele>105.60000000000001</ele><time>2026-04-26T09:38:06.175Z</time></trkpt><trkpt lat="42.1618422" lon="14.6011673"><ele>106.4</ele><time>2026-04-26T09:38:08.217Z</time></trkpt><trkpt lat="42.1617754" lon="14.6011244"><ele>107.2</ele><time>2026-04-26T09:38:09.239Z</time></trkpt><trkpt lat="42.1617101" lon="14.6010819"><ele>108.0</ele><time>2026-04-26T09:38:10.225Z</time></trkpt><trkpt lat="42.1616095" lon="14.601064"><ele>108.80000000000001</ele><time>2026-04-26T09:38:12.207Z</time></trkpt><trkpt lat="42.1615079" lon="14.601073"><ele>109.60000000000001</ele><time>2026-04-26T09:38:14.219Z</time></trkpt><trkpt lat="42.1614003" lon="14.601102"><ele>110.39999999999999</ele><time>2026-04-26T09:38:16.228Z</time></trkpt><trkpt lat="42.1612993" lon="14.6011312"><ele>111.19999999999999</ele><time>2026-04-26T09:38:18.192Z</time></trkpt><trkpt lat="42.1611994" lon="14.6011105"><ele>112.0</ele><time>2026-04-26T09:38:20.163Z</time></trkpt><trkpt lat="42.1611171" lon="14.6011081"><ele>112.0</ele><time>2026-04-26T09:43:43.227Z</time></trkpt><trkpt lat="42.1610503" lon="14.6011581"><ele>111.99999999999999</ele><time>2026-04-26T09:43:48.173Z</time></trkpt><trkpt lat="42.1609937" lon="14.6013151"><ele>111.99999999999999</ele><time>2026-04-26T09:43:50.239Z</time></trkpt><trkpt lat="42.1609616" lon="14.6014273"><ele>112.0</ele><time>2026-04-26T09:43:51.228Z</time></trkpt><trkpt lat="42.1609122" lon="14.6015622"><ele>112.0</ele><time>2026-04-26T09:43:52.195Z</time></trkpt><trkpt lat="42.1608636" lon="14.601707"><ele>113.19999999999999</ele><time>2026-04-26T09:43:53.202Z</time></trkpt><trkpt lat="42.1608172" lon="14.6018614"><ele>114.39999999999999</ele><time>2026-04-26T09:43:54.218Z</time></trkpt><trkpt lat="42.1607798" lon="14.6019932"><ele>115.60000000000001</ele><time>2026-04-26T09:43:55.219Z</time></trkpt><trkpt lat="42.1607536" lon="14.6020818"><ele>116.80000000000001</ele><time>2026-04-26T09:43:56.224Z</time></trkpt><trkpt lat="42.1606704" lon="14.6022139"><ele>118.0</ele><time>2026-04-26T09:43:58.173Z</time></trkpt><trkpt lat="42.1606307" lon="14.6023112"><ele>120.50000000000001</ele><time>2026-04-26T09:43:59.187Z</time></trkpt><trkpt lat="42.1605884" lon="14.6024096"><ele>123.0</ele><time>2026-04-26T09:44:00.232Z</time></trkpt><trkpt lat="42.1605462" lon="14.6024899"><ele>125.5</ele><time>2026-04-26T09:44:01.244Z</time></trkpt><trkpt lat="42.1605084" lon="14.6025688"><ele>128.0</ele><time>2026-04-26T09:44:03.224Z</time></trkpt><trkpt lat="42.1604189" lon="14.6025498"><ele>130.5</ele><time>2026-04-26T09:44:06.234Z</time></trkpt><trkpt lat="42.1603353" lon="14.6025304"><ele>133.0</ele><time>2026-04-26T09:44:07.205Z</time></trkpt><trkpt lat="42.1602471" lon="14.6025053"><ele>133.0</ele><time>2026-04-26T09:44:08.18Z</time></trkpt><trkpt lat="42.1601496" lon="14.6024709"><ele>133.0</ele><time>2026-04-26T09:44:09.234Z</time></trkpt><trkpt lat="42.1600457" lon="14.6024324"><ele>133.0</ele><time>2026-04-26T09:44:10.21Z</time></trkpt><trkpt lat="42.1599348" lon="14.6023879"><ele>133.0</ele><time>2026-04-26T09:44:11.267Z</time></trkpt><trkpt lat="42.1598125" lon="14.6023283"><ele>134.25</ele><time>2026-04-26T09:44:12.188Z</time></trkpt><trkpt lat="42.1597082" lon="14.6022524"><ele>135.5</ele><time>2026-04-26T09:44:13.218Z</time></trkpt><trkpt lat="42.1595969" lon="14.6021766"><ele>136.75</ele><time>2026-04-26T09:44:14.239Z</time></trkpt><trkpt lat="42.1594778" lon="14.6021149"><ele>138.0</ele><time>2026-04-26T09:44:15.223Z</time></trkpt><trkpt lat="42.1593674" lon="14.6020662"><ele>138.0</ele><time>2026-04-26T09:44:16.217Z</time></trkpt><trkpt lat="42.1592662" lon="14.6020261"><ele>138.0</ele><time>2026-04-26T09:44:17.209Z</time></trkpt><trkpt lat="42.1591795" lon="14.601965"><ele>138.0</ele><time>2026-04-26T09:44:18.218Z</time></trkpt><trkpt lat="42.1591015" lon="14.6018854"><ele>138.0</ele><time>2026-04-26T09:44:19.191Z</time></trkpt><trkpt lat="42.1590307" lon="14.6017927"><ele>138.0</ele><time>2026-04-26T09:44:20.248Z</time></trkpt><trkpt lat="42.158976" lon="14.6016912"><ele>138.0</ele><time>2026-04-26T09:44:21.245Z</time></trkpt><trkpt lat="42.1589449" lon="14.6015922"><ele>138.0</ele><time>2026-04-26T09:44:22.201Z</time></trkpt><trkpt lat="42.1589076" lon="14.6014988"><ele>138.0</ele><time>2026-04-26T09:44:23.219Z</time></trkpt><trkpt lat="42.158877" lon="14.6014047"><ele>138.0</ele><time>2026-04-26T09:44:24.243Z</time></trkpt><trkpt lat="42.1588709" lon="14.6013094"><ele>138.0</ele><time>2026-04-26T09:44:25.22Z</time></trkpt><trkpt lat="42.1588817" lon="14.6012082"><ele>138.0</ele><time>2026-04-26T09:44:26.239Z</time></trkpt><trkpt lat="42.1588876" lon="14.6011025"><ele>138.20000000000002</ele><time>2026-04-26T09:44:27.207Z</time></trkpt><trkpt lat="42.1588766" lon="14.6009979"><ele>138.4</ele><time>2026-04-26T09:44:28.237Z</time></trkpt><trkpt lat="42.1588617" lon="14.6008962"><ele>138.60000000000002</ele><time>2026-04-26T09:44:29.22Z</time></trkpt><trkpt lat="42.1588219" lon="14.6008017"><ele>138.8</ele><time>2026-04-26T09:44:30.225Z</time></trkpt><trkpt lat="42.158745" lon="14.600727"><ele>139.0</ele><time>2026-04-26T09:44:31.239Z</time></trkpt><trkpt lat="42.1586338" lon="14.6006407"><ele>139.0</ele><time>2026-04-26T09:44:32.227Z</time></trkpt><trkpt lat="42.1585083" lon="14.6005329"><ele>139.0</ele><time>2026-04-26T09:44:33.206Z</time></trkpt><trkpt lat="42.1583878" lon="14.6004058"><ele>139.0</ele><time>2026-04-26T09:44:34.208Z</time></trkpt><trkpt lat="42.1582945" lon="14.6002817"><ele>139.0</ele><time>2026-04-26T09:44:35.222Z</time></trkpt><trkpt lat="42.1582175" lon="14.6001939"><ele>139.4</ele><time>2026-04-26T09:44:36.235Z</time></trkpt><trkpt lat="42.1581466" lon="14.6001268"><ele>139.8</ele><time>2026-04-26T09:44:37.199Z</time></trkpt><trkpt lat="42.1580305" lon="14.6000828"><ele>140.2</ele><time>2026-04-26T09:44:39.177Z</time></trkpt><trkpt lat="42.1579376" lon="14.6001086"><ele>140.6</ele><time>2026-04-26T09:44:40.188Z</time></trkpt><trkpt lat="42.1578174" lon="14.6001419"><ele>141.0</ele><time>2026-04-26T09:44:41.185Z</time></trkpt><trkpt lat="42.1576949" lon="14.6001951"><ele>141.0</ele><time>2026-04-26T09:44:42.173Z</time></trkpt><trkpt lat="42.1576134" lon="14.6001809"><ele>141.0</ele><time>2026-04-26T09:44:43.195Z</time></trkpt><trkpt lat="42.1575433" lon="14.6000765"><ele>141.0</ele><time>2026-04-26T09:44:44.191Z</time></trkpt><trkpt lat="42.1574403" lon="14.5999333"><ele>141.0</ele><time>2026-04-26T09:44:45.17Z</time></trkpt><trkpt lat="42.1573355" lon="14.5998041"><ele>141.75</ele><time>2026-04-26T09:44:46.177Z</time></trkpt><trkpt lat="42.1572417" lon="14.5996746"><ele>142.5</ele><time>2026-04-26T09:44:47.195Z</time></trkpt><trkpt lat="42.1571579" lon="14.5995509"><ele>143.25</ele><time>2026-04-26T09:44:48.185Z</time></trkpt><trkpt lat="42.1570468" lon="14.5994359"><ele>144.0</ele><time>2026-04-26T09:44:49.191Z</time></trkpt><trkpt lat="42.15692" lon="14.5993346"><ele>144.0</ele><time>2026-04-26T09:44:50.188Z</time></trkpt><trkpt lat="42.1568187" lon="14.5992345"><ele>144.0</ele><time>2026-04-26T09:44:51.193Z</time></trkpt><trkpt lat="42.1567236" lon="14.5991255"><ele>144.0</ele><time>2026-04-26T09:44:52.19Z</time></trkpt><trkpt lat="42.1566327" lon="14.5989921"><ele>144.0</ele><time>2026-04-26T09:44:53.236Z</time></trkpt><trkpt lat="42.1565378" lon="14.5988395"><ele>145.0</ele><time>2026-04-26T09:44:54.175Z</time></trkpt><trkpt lat="42.1564443" lon="14.5986815"><ele>146.0</ele><time>2026-04-26T09:44:55.166Z</time></trkpt><trkpt lat="42.156349" lon="14.5985128"><ele>147.0</ele><time>2026-04-26T09:44:56.174Z</time></trkpt><trkpt lat="42.1562435" lon="14.5983491"><ele>147.25</ele><time>2026-04-26T09:44:57.233Z</time></trkpt><trkpt lat="42.1561393" lon="14.5981863"><ele>147.5</ele><time>2026-04-26T09:44:58.231Z</time></trkpt><trkpt lat="42.1560385" lon="14.5980387"><ele>147.75</ele><time>2026-04-26T09:44:59.242Z</time></trkpt><trkpt lat="42.1559431" lon="14.5979034"><ele>148.0</ele><time>2026-04-26T09:45:00.213Z</time></trkpt><trkpt lat="42.1558479" lon="14.5977809"><ele>148.0</ele><time>2026-04-26T09:45:01.208Z</time></trkpt><trkpt lat="42.1557573" lon="14.5976787"><ele>148.0</ele><time>2026-04-26T09:45:02.217Z</time></trkpt><trkpt lat="42.1556687" lon="14.5975977"><ele>148.0</ele><time>2026-04-26T09:45:03.221Z</time></trkpt><trkpt lat="42.1555843" lon="14.5975243"><ele>148.0</ele><time>2026-04-26T09:45:04.215Z</time></trkpt><trkpt lat="42.1555191" lon="14.5974584"><ele>148.0</ele><time>2026-04-26T09:45:05.197Z</time></trkpt><trkpt lat="42.1554655" lon="14.5974054"><ele>148.0</ele><time>2026-04-26T09:45:06.227Z</time></trkpt><trkpt lat="42.1553981" lon="14.5973411"><ele>148.0</ele><time>2026-04-26T09:45:08.237Z</time></trkpt><trkpt lat="42.1553154" lon="14.5973774"><ele>148.0</ele><time>2026-04-26T09:45:11.205Z</time></trkpt><trkpt lat="42.15528" lon="14.5974608"><ele>148.0</ele><time>2026-04-26T09:45:13.238Z</time></trkpt><trkpt lat="42.1552925" lon="14.5976765"><ele>148.0</ele><time>2026-04-26T09:45:15.213Z</time></trkpt><trkpt lat="42.1553131" lon="14.5978371"><ele>148.66666666666669</ele><time>2026-04-26T09:45:16.186Z</time></trkpt><trkpt lat="42.155341" lon="14.5980327"><ele>149.33333333333334</ele><time>2026-04-26T09:45:17.172Z</time></trkpt><trkpt lat="42.1553598" lon="14.5982763"><ele>150.0</ele><time>2026-04-26T09:45:18.213Z</time></trkpt><trkpt lat="42.155382" lon="14.5985038"><ele>149.5</ele><time>2026-04-26T09:45:19.23Z</time></trkpt><trkpt lat="42.1554145" lon="14.5987058"><ele>149.0</ele><time>2026-04-26T09:45:20.195Z</time></trkpt><trkpt lat="42.1554493" lon="14.5988929"><ele>148.5</ele><time>2026-04-26T09:45:21.198Z</time></trkpt><trkpt lat="42.1554823" lon="14.5990624"><ele>148.0</ele><time>2026-04-26T09:45:22.239Z</time></trkpt><trkpt lat="42.15551" lon="14.5992036"><ele>148.0</ele><time>2026-04-26T09:45:23.234Z</time></trkpt><trkpt lat="42.1555238" lon="14.5993249"><ele>148.0</ele><time>2026-04-26T09:45:24.222Z</time></trkpt><trkpt lat="42.1555363" lon="14.5994102"><ele>148.0</ele><time>2026-04-26T09:45:25.207Z</time></trkpt><trkpt lat="42.1554772" lon="14.5995361"><ele>148.0</ele><time>2026-04-26T09:45:27.201Z</time></trkpt><trkpt lat="42.1553855" lon="14.5995952"><ele>148.0</ele><time>2026-04-26T09:45:28.222Z</time></trkpt><trkpt lat="42.155259" lon="14.5996609"><ele>148.0</ele><time>2026-04-26T09:45:29.241Z</time></trkpt><trkpt lat="42.155092" lon="14.5997423"><ele>148.0</ele><time>2026-04-26T09:45:30.236Z</time></trkpt><trkpt lat="42.1549394" lon="14.5998145"><ele>148.0</ele><time>2026-04-26T09:45:31.174Z</time></trkpt><trkpt lat="42.1548181" lon="14.599874"><ele>148.0</ele><time>2026-04-26T09:45:32.168Z</time></trkpt><trkpt lat="42.1547102" lon="14.599947"><ele>148.0</ele><time>2026-04-26T09:45:33.21Z</time></trkpt><trkpt lat="42.1546087" lon="14.6000522"><ele>148.0</ele><time>2026-04-26T09:45:34.219Z</time></trkpt><trkpt lat="42.1545206" lon="14.600171"><ele>148.0</ele><time>2026-04-26T09:45:35.222Z</time></trkpt><trkpt lat="42.15444" lon="14.600291"><ele>148.0</ele><time>2026-04-26T09:45:36.259Z</time></trkpt><trkpt lat="42.1543819" lon="14.6003801"><ele>148.0</ele><time>2026-04-26T09:45:37.172Z</time></trkpt><trkpt lat="42.154321" lon="14.6004716"><ele>148.0</ele><time>2026-04-26T09:45:39.237Z</time></trkpt><trkpt lat="42.1542697" lon="14.6005218"><ele>148.0</ele><time>2026-04-26T09:45:41.188Z</time></trkpt><trkpt lat="42.1542027" lon="14.6005111"><ele>148.0</ele><time>2026-04-26T09:45:46.198Z</time></trkpt><trkpt lat="42.1541445" lon="14.6003677"><ele>148.0</ele><time>2026-04-26T09:45:48.181Z</time></trkpt><trkpt lat="42.1541142" lon="14.6002842"><ele>148.28571428571428</ele><time>2026-04-26T09:45:49.188Z</time></trkpt><trkpt lat="42.1540196" lon="14.6002403"><ele>148.57142857142856</ele><time>2026-04-26T09:45:51.233Z</time></trkpt><trkpt lat="42.1539574" lon="14.6002051"><ele>148.85714285714283</ele><time>2026-04-26T09:45:55.175Z</time></trkpt><trkpt lat="42.1539277" lon="14.6001052"><ele>149.14285714285714</ele><time>2026-04-26T09:47:58.179Z</time></trkpt><trkpt lat="42.1539425" lon="14.6000138"><ele>149.42857142857142</ele><time>2026-04-26T09:48:27.217Z</time></trkpt><trkpt lat="42.1539047" lon="14.6000857"><ele>149.7142857142857</ele><time>2026-04-26T09:51:36.197Z</time></trkpt><trkpt lat="42.1538416" lon="14.6000566"><ele>150.0</ele><time>2026-04-26T09:59:21.166Z</time></trkpt><trkpt lat="42.1537027" lon="14.6000126"><ele>150.0</ele><time>2026-04-26T09:59:25.193Z</time></trkpt><trkpt lat="42.1536116" lon="14.6000078"><ele>150.0</ele><time>2026-04-26T09:59:26.169Z</time></trkpt><trkpt lat="42.153531" lon="14.6000445"><ele>150.0</ele><time>2026-04-26T09:59:27.211Z</time></trkpt><trkpt lat="42.1539458" lon="14.600071"><ele>150.0</ele><time>2026-04-26T09:59:45.167Z</time></trkpt><trkpt lat="42.1537634" lon="14.6001097"><ele>150.0</ele><time>2026-04-26T10:00:21.197Z</time></trkpt><trkpt lat="42.1539092" lon="14.6001455"><ele>150.0</ele><time>2026-04-26T10:00:43.176Z</time></trkpt><trkpt lat="42.1538644" lon="14.6000779"><ele>150.0</ele><time>2026-04-26T10:01:13.189Z</time></trkpt><trkpt lat="42.1537911" lon="14.6000574"><ele>150.0</ele><time>2026-04-26T10:01:18.165Z</time></trkpt><trkpt lat="42.1538573" lon="14.5999943"><ele>150.0</ele><time>2026-04-26T10:01:40.211Z</time></trkpt><trkpt lat="42.1539479" lon="14.6000208"><ele>150.0</ele><time>2026-04-26T10:02:17.22Z</time></trkpt><trkpt lat="42.1539412" lon="14.6001123"><ele>150.0</ele><time>2026-04-26T10:12:50.228Z</time></trkpt><trkpt lat="42.1539567" lon="14.600201"><ele>150.0</ele><time>2026-04-26T10:13:01.191Z</time></trkpt><trkpt lat="42.1540337" lon="14.6001632"><ele>150.0</ele><time>2026-04-26T10:14:50.17Z</time></trkpt><trkpt lat="42.1541015" lon="14.6002705"><ele>149.5</ele><time>2026-04-26T10:14:52.196Z</time></trkpt><trkpt lat="42.1541501" lon="14.6004072"><ele>149.0</ele><time>2026-04-26T10:14:53.248Z</time></trkpt><trkpt lat="42.1541994" lon="14.6005881"><ele>148.5</ele><time>2026-04-26T10:14:54.23Z</time></trkpt><trkpt lat="42.1542425" lon="14.6007958"><ele>148.0</ele><time>2026-04-26T10:14:55.233Z</time></trkpt><trkpt lat="42.1542844" lon="14.6009891"><ele>148.0</ele><time>2026-04-26T10:14:56.221Z</time></trkpt><trkpt lat="42.1543064" lon="14.6011286"><ele>148.0</ele><time>2026-04-26T10:14:57.183Z</time></trkpt><trkpt lat="42.1543238" lon="14.6012327"><ele>148.0</ele><time>2026-04-26T10:14:58.242Z</time></trkpt><trkpt lat="42.1543418" lon="14.60133"><ele>148.0</ele><time>2026-04-26T10:14:59.23Z</time></trkpt><trkpt lat="42.1543647" lon="14.6014467"><ele>148.0</ele><time>2026-04-26T10:15:00.236Z</time></trkpt><trkpt lat="42.1543958" lon="14.6015922"><ele>147.8</ele><time>2026-04-26T10:15:01.168Z</time></trkpt><trkpt lat="42.1544294" lon="14.6017404"><ele>147.60000000000002</ele><time>2026-04-26T10:15:02.169Z</time></trkpt><trkpt lat="42.1544655" lon="14.6018668"><ele>147.39999999999998</ele><time>2026-04-26T10:15:03.174Z</time></trkpt><trkpt lat="42.1544902" lon="14.6019719"><ele>147.2</ele><time>2026-04-26T10:15:04.168Z</time></trkpt><trkpt lat="42.1545168" lon="14.602088"><ele>147.0</ele><time>2026-04-26T10:15:05.193Z</time></trkpt><trkpt lat="42.1545462" lon="14.6022147"><ele>146.75</ele><time>2026-04-26T10:15:06.177Z</time></trkpt><trkpt lat="42.1545762" lon="14.6023588"><ele>146.5</ele><time>2026-04-26T10:15:07.182Z</time></trkpt><trkpt lat="42.1546086" lon="14.6025079"><ele>146.25</ele><time>2026-04-26T10:15:08.172Z</time></trkpt><trkpt lat="42.1546443" lon="14.602662"><ele>146.0</ele><time>2026-04-26T10:15:09.239Z</time></trkpt><trkpt lat="42.1546789" lon="14.6028245"><ele>146.0</ele><time>2026-04-26T10:15:10.238Z</time></trkpt><trkpt lat="42.154718" lon="14.6030003"><ele>146.0</ele><time>2026-04-26T10:15:11.224Z</time></trkpt><trkpt lat="42.1547543" lon="14.6031827"><ele>146.0</ele><time>2026-04-26T10:15:12.196Z</time></trkpt><trkpt lat="42.1547966" lon="14.6033695"><ele>146.0</ele><time>2026-04-26T10:15:13.21Z</time></trkpt><trkpt lat="42.1548419" lon="14.6035515"><ele>145.2</ele><time>2026-04-26T10:15:14.225Z</time></trkpt><trkpt lat="42.1548809" lon="14.6037119"><ele>144.39999999999998</ele><time>2026-04-26T10:15:15.209Z</time></trkpt><trkpt lat="42.1549167" lon="14.6038477"><ele>143.6</ele><time>2026-04-26T10:15:16.212Z</time></trkpt><trkpt lat="42.1549395" lon="14.6039465"><ele>142.79999999999998</ele><time>2026-04-26T10:15:18.23Z</time></trkpt><trkpt lat="42.1548398" lon="14.6039986"><ele>142.0</ele><time>2026-04-26T10:15:20.214Z</time></trkpt><trkpt lat="42.1547628" lon="14.6040184"><ele>142.0</ele><time>2026-04-26T10:15:21.19Z</time></trkpt><trkpt lat="42.1546622" lon="14.6040513"><ele>142.0</ele><time>2026-04-26T10:15:22.183Z</time></trkpt><trkpt lat="42.1545496" lon="14.604092"><ele>142.0</ele><time>2026-04-26T10:15:23.215Z</time></trkpt><trkpt lat="42.1544341" lon="14.6041306"><ele>142.0</ele><time>2026-04-26T10:15:24.212Z</time></trkpt><trkpt lat="42.1543057" lon="14.6041841"><ele>142.0</ele><time>2026-04-26T10:15:25.206Z</time></trkpt><trkpt lat="42.1541563" lon="14.6042491"><ele>142.0</ele><time>2026-04-26T10:15:26.208Z</time></trkpt><trkpt lat="42.1539769" lon="14.6043242"><ele>142.0</ele><time>2026-04-26T10:15:27.207Z</time></trkpt><trkpt lat="42.1538137" lon="14.6043931"><ele>142.0</ele><time>2026-04-26T10:15:28.241Z</time></trkpt><trkpt lat="42.1536584" lon="14.6044536"><ele>142.0</ele><time>2026-04-26T10:15:29.229Z</time></trkpt><trkpt lat="42.1534939" lon="14.6045183"><ele>142.0</ele><time>2026-04-26T10:15:30.231Z</time></trkpt><trkpt lat="42.153338" lon="14.604578"><ele>142.75</ele><time>2026-04-26T10:15:31.222Z</time></trkpt><trkpt lat="42.1531898" lon="14.6046353"><ele>143.5</ele><time>2026-04-26T10:15:32.194Z</time></trkpt><trkpt lat="42.1530639" lon="14.6046751"><ele>144.25</ele><time>2026-04-26T10:15:33.237Z</time></trkpt><trkpt lat="42.1529695" lon="14.6047128"><ele>145.0</ele><time>2026-04-26T10:15:34.234Z</time></trkpt><trkpt lat="42.152898" lon="14.6047477"><ele>145.0</ele><time>2026-04-26T10:15:35.238Z</time></trkpt><trkpt lat="42.1528466" lon="14.6048091"><ele>145.0</ele><time>2026-04-26T10:15:37.232Z</time></trkpt><trkpt lat="42.1528603" lon="14.6049549"><ele>145.0</ele><time>2026-04-26T10:15:39.174Z</time></trkpt><trkpt lat="42.1528904" lon="14.6051335"><ele>145.0</ele><time>2026-04-26T10:15:40.173Z</time></trkpt><trkpt lat="42.1529342" lon="14.6053649"><ele>143.33333333333334</ele><time>2026-04-26T10:15:41.225Z</time></trkpt><trkpt lat="42.1529869" lon="14.6056014"><ele>141.66666666666666</ele><time>2026-04-26T10:15:42.233Z</time></trkpt><trkpt lat="42.1530275" lon="14.6058041"><ele>140.0</ele><time>2026-04-26T10:15:43.181Z</time></trkpt><trkpt lat="42.1530754" lon="14.6060212"><ele>140.0</ele><time>2026-04-26T10:15:44.233Z</time></trkpt><trkpt lat="42.1531324" lon="14.6062657"><ele>140.0</ele><time>2026-04-26T10:15:45.224Z</time></trkpt><trkpt lat="42.1531828" lon="14.6065335"><ele>140.0</ele><time>2026-04-26T10:15:46.221Z</time></trkpt><trkpt lat="42.1532402" lon="14.6067805"><ele>139.66666666666666</ele><time>2026-04-26T10:15:47.22Z</time></trkpt><trkpt lat="42.1532949" lon="14.60702"><ele>139.33333333333334</ele><time>2026-04-26T10:15:48.217Z</time></trkpt><trkpt lat="42.1533422" lon="14.6072442"><ele>139.0</ele><time>2026-04-26T10:15:49.228Z</time></trkpt><trkpt lat="42.1533983" lon="14.6074642"><ele>139.0</ele><time>2026-04-26T10:15:50.233Z</time></trkpt><trkpt lat="42.1534335" lon="14.6076343"><ele>139.0</ele><time>2026-04-26T10:15:51.198Z</time></trkpt><trkpt lat="42.1534615" lon="14.6077516"><ele>139.0</ele><time>2026-04-26T10:15:52.187Z</time></trkpt><trkpt lat="42.1534805" lon="14.6078508"><ele>139.0</ele><time>2026-04-26T10:15:53.23Z</time></trkpt><trkpt lat="42.1534988" lon="14.6079508"><ele>139.0</ele><time>2026-04-26T10:15:54.237Z</time></trkpt><trkpt lat="42.1535468" lon="14.6080692"><ele>138.0</ele><time>2026-04-26T10:15:55.221Z</time></trkpt><trkpt lat="42.1536387" lon="14.6082181"><ele>137.0</ele><time>2026-04-26T10:15:56.197Z</time></trkpt><trkpt lat="42.1537688" lon="14.6083734"><ele>136.0</ele><time>2026-04-26T10:15:57.168Z</time></trkpt><trkpt lat="42.1539315" lon="14.6085035"><ele>136.25</ele><time>2026-04-26T10:15:58.206Z</time></trkpt><trkpt lat="42.1540819" lon="14.6086006"><ele>136.5</ele><time>2026-04-26T10:15:59.218Z</time></trkpt><trkpt lat="42.154216" lon="14.6086723"><ele>136.75</ele><time>2026-04-26T10:16:00.169Z</time></trkpt><trkpt lat="42.1543022" lon="14.6087265"><ele>137.0</ele><time>2026-04-26T10:16:01.199Z</time></trkpt><trkpt lat="42.1543643" lon="14.6087737"><ele>137.0</ele><time>2026-04-26T10:16:02.164Z</time></trkpt><trkpt lat="42.1544004" lon="14.6088512"><ele>137.0</ele><time>2026-04-26T10:16:04.167Z</time></trkpt><trkpt lat="42.1543282" lon="14.6089192"><ele>137.0</ele><time>2026-04-26T10:16:06.172Z</time></trkpt><trkpt lat="42.1542392" lon="14.6089316"><ele>137.0</ele><time>2026-04-26T10:16:07.166Z</time></trkpt><trkpt lat="42.1541067" lon="14.6088937"><ele>137.0</ele><time>2026-04-26T10:16:08.166Z</time></trkpt><trkpt lat="42.153957" lon="14.6088526"><ele>136.5</ele><time>2026-04-26T10:16:09.208Z</time></trkpt><trkpt lat="42.1538214" lon="14.608849"><ele>136.0</ele><time>2026-04-26T10:16:10.227Z</time></trkpt><trkpt lat="42.1537314" lon="14.6088836"><ele>135.5</ele><time>2026-04-26T10:16:11.239Z</time></trkpt><trkpt lat="42.1536479" lon="14.6089832"><ele>135.0</ele><time>2026-04-26T10:16:12.224Z</time></trkpt><trkpt lat="42.1535804" lon="14.609116"><ele>135.0</ele><time>2026-04-26T10:16:13.223Z</time></trkpt><trkpt lat="42.1535302" lon="14.6092899"><ele>135.0</ele><time>2026-04-26T10:16:14.226Z</time></trkpt><trkpt lat="42.1534957" lon="14.609513"><ele>135.0</ele><time>2026-04-26T10:16:15.218Z</time></trkpt><trkpt lat="42.1534735" lon="14.6097412"><ele>133.8</ele><time>2026-04-26T10:16:16.234Z</time></trkpt><trkpt lat="42.1534489" lon="14.6099286"><ele>132.6</ele><time>2026-04-26T10:16:17.225Z</time></trkpt><trkpt lat="42.1534176" lon="14.610049"><ele>131.4</ele><time>2026-04-26T10:16:18.193Z</time></trkpt><trkpt lat="42.1533697" lon="14.6101545"><ele>130.2</ele><time>2026-04-26T10:16:19.221Z</time></trkpt><trkpt lat="42.1532971" lon="14.6102067"><ele>129.0</ele><time>2026-04-26T10:16:20.163Z</time></trkpt><trkpt lat="42.1531944" lon="14.6102005"><ele>127.75</ele><time>2026-04-26T10:16:21.172Z</time></trkpt><trkpt lat="42.1530725" lon="14.6101521"><ele>126.5</ele><time>2026-04-26T10:16:22.221Z</time></trkpt><trkpt lat="42.1529305" lon="14.6100604"><ele>125.25</ele><time>2026-04-26T10:16:23.209Z</time></trkpt><trkpt lat="42.1528043" lon="14.6099576"><ele>124.0</ele><time>2026-04-26T10:16:24.209Z</time></trkpt><trkpt lat="42.1527001" lon="14.609842"><ele>124.0</ele><time>2026-04-26T10:16:25.222Z</time></trkpt><trkpt lat="42.1526183" lon="14.6096823"><ele>124.0</ele><time>2026-04-26T10:16:26.232Z</time></trkpt><trkpt lat="42.1525558" lon="14.6094784"><ele>124.0</ele><time>2026-04-26T10:16:27.205Z</time></trkpt><trkpt lat="42.1525214" lon="14.6092581"><ele>125.2</ele><time>2026-04-26T10:16:28.203Z</time></trkpt><trkpt lat="42.1525051" lon="14.6090624"><ele>126.4</ele><time>2026-04-26T10:16:29.229Z</time></trkpt><trkpt lat="42.1524797" lon="14.6089138"><ele>127.6</ele><time>2026-04-26T10:16:30.222Z</time></trkpt><trkpt lat="42.1524435" lon="14.6088001"><ele>128.8</ele><time>2026-04-26T10:16:31.222Z</time></trkpt><trkpt lat="42.1523944" lon="14.6087269"><ele>130.0</ele><time>2026-04-26T10:16:32.213Z</time></trkpt><trkpt lat="42.1522795" lon="14.608792"><ele>131.0</ele><time>2026-04-26T10:16:34.19Z</time></trkpt><trkpt lat="42.1522427" lon="14.6089182"><ele>132.0</ele><time>2026-04-26T10:16:35.194Z</time></trkpt><trkpt lat="42.1522352" lon="14.6090767"><ele>133.0</ele><time>2026-04-26T10:16:36.21Z</time></trkpt><trkpt lat="42.1522412" lon="14.609278"><ele>134.0</ele><time>2026-04-26T10:16:37.197Z</time></trkpt><trkpt lat="42.1522291" lon="14.6095136"><ele>134.0</ele><time>2026-04-26T10:16:38.189Z</time></trkpt><trkpt lat="42.1522153" lon="14.6097664"><ele>134.0</ele><time>2026-04-26T10:16:39.188Z</time></trkpt><trkpt lat="42.1521914" lon="14.610003"><ele>134.0</ele><time>2026-04-26T10:16:40.159Z</time></trkpt><trkpt lat="42.1521694" lon="14.6102067"><ele>132.25</ele><time>2026-04-26T10:16:41.188Z</time></trkpt><trkpt lat="42.1521157" lon="14.6103998"><ele>130.5</ele><time>2026-04-26T10:16:42.177Z</time></trkpt><trkpt lat="42.152065" lon="14.6105744"><ele>128.75</ele><time>2026-04-26T10:16:43.213Z</time></trkpt><trkpt lat="42.1520043" lon="14.6107362"><ele>127.0</ele><time>2026-04-26T10:16:44.204Z</time></trkpt><trkpt lat="42.1519487" lon="14.6108918"><ele>127.0</ele><time>2026-04-26T10:16:45.16Z</time></trkpt><trkpt lat="42.1519192" lon="14.6110791"><ele>127.0</ele><time>2026-04-26T10:16:46.162Z</time></trkpt><trkpt lat="42.1519096" lon="14.6112817"><ele>127.0</ele><time>2026-04-26T10:16:47.22Z</time></trkpt><trkpt lat="42.1518928" lon="14.6114495"><ele>127.0</ele><time>2026-04-26T10:16:48.194Z</time></trkpt><trkpt lat="42.1518878" lon="14.6115522"><ele>125.25</ele><time>2026-04-26T10:16:49.182Z</time></trkpt><trkpt lat="42.1519481" lon="14.6116029"><ele>123.5</ele><time>2026-04-26T10:16:52.189Z</time></trkpt><trkpt lat="42.1520333" lon="14.6115893"><ele>121.75</ele><time>2026-04-26T10:16:53.225Z</time></trkpt><trkpt lat="42.152184" lon="14.6115697"><ele>120.0</ele><time>2026-04-26T10:16:54.212Z</time></trkpt><trkpt lat="42.1523564" lon="14.6115439"><ele>118.2</ele><time>2026-04-26T10:16:55.221Z</time></trkpt><trkpt lat="42.1525021" lon="14.6115067"><ele>116.4</ele><time>2026-04-26T10:16:56.218Z</time></trkpt><trkpt lat="42.1525976" lon="14.6114889"><ele>114.6</ele><time>2026-04-26T10:16:57.201Z</time></trkpt><trkpt lat="42.1526679" lon="14.6114841"><ele>112.8</ele><time>2026-04-26T10:16:58.226Z</time></trkpt><trkpt lat="42.1527671" lon="14.6115255"><ele>111.0</ele><time>2026-04-26T10:17:00.215Z</time></trkpt><trkpt lat="42.1528456" lon="14.611709"><ele>111.0</ele><time>2026-04-26T10:17:02.197Z</time></trkpt><trkpt lat="42.1528956" lon="14.61185"><ele>111.0</ele><time>2026-04-26T10:17:03.184Z</time></trkpt><trkpt lat="42.1529534" lon="14.6119906"><ele>111.0</ele><time>2026-04-26T10:17:04.217Z</time></trkpt><trkpt lat="42.1530173" lon="14.6121096"><ele>111.0</ele><time>2026-04-26T10:17:05.211Z</time></trkpt><trkpt lat="42.1531038" lon="14.6122451"><ele>109.5</ele><time>2026-04-26T10:17:06.234Z</time></trkpt><trkpt lat="42.1531874" lon="14.612378"><ele>108.0</ele><time>2026-04-26T10:17:07.227Z</time></trkpt><trkpt lat="42.1532631" lon="14.6125129"><ele>106.5</ele><time>2026-04-26T10:17:08.172Z</time></trkpt><trkpt lat="42.1533263" lon="14.6126427"><ele>105.0</ele><time>2026-04-26T10:17:09.231Z</time></trkpt><trkpt lat="42.1533826" lon="14.6127869"><ele>102.0</ele><time>2026-04-26T10:17:10.193Z</time></trkpt><trkpt lat="42.1534328" lon="14.6129427"><ele>99.0</ele><time>2026-04-26T10:17:11.221Z</time></trkpt><trkpt lat="42.1534815" lon="14.6130914"><ele>96.0</ele><time>2026-04-26T10:17:12.208Z</time></trkpt><trkpt lat="42.1535299" lon="14.6132264"><ele>93.0</ele><time>2026-04-26T10:17:13.21Z</time></trkpt><trkpt lat="42.1535691" lon="14.6133493"><ele>93.0</ele><time>2026-04-26T10:17:14.217Z</time></trkpt><trkpt lat="42.1536031" lon="14.6134648"><ele>93.0</ele><time>2026-04-26T10:17:15.206Z</time></trkpt><trkpt lat="42.1536324" lon="14.6135691"><ele>93.0</ele><time>2026-04-26T10:17:16.229Z</time></trkpt><trkpt lat="42.1536457" lon="14.6136627"><ele>93.0</ele><time>2026-04-26T10:17:17.203Z</time></trkpt><trkpt lat="42.1536393" lon="14.6137556"><ele>93.0</ele><time>2026-04-26T10:17:18.229Z</time></trkpt><trkpt lat="42.1536317" lon="14.6138696"><ele>93.0</ele><time>2026-04-26T10:17:19.22Z</time></trkpt><trkpt lat="42.1536355" lon="14.6140285"><ele>91.4</ele><time>2026-04-26T10:17:20.241Z</time></trkpt><trkpt lat="42.1536426" lon="14.6141876"><ele>89.80000000000001</ele><time>2026-04-26T10:17:21.204Z</time></trkpt><trkpt lat="42.1536463" lon="14.6143272"><ele>88.2</ele><time>2026-04-26T10:17:22.214Z</time></trkpt><trkpt lat="42.1536374" lon="14.6144494"><ele>86.6</ele><time>2026-04-26T10:17:23.22Z</time></trkpt><trkpt lat="42.1536105" lon="14.6145672"><ele>85.0</ele><time>2026-04-26T10:17:24.199Z</time></trkpt><trkpt lat="42.1535709" lon="14.6146683"><ele>83.5</ele><time>2026-04-26T10:17:25.23Z</time></trkpt><trkpt lat="42.1535484" lon="14.6147851"><ele>82.0</ele><time>2026-04-26T10:17:26.222Z</time></trkpt><trkpt lat="42.1535566" lon="14.6149558"><ele>80.5</ele><time>2026-04-26T10:17:27.218Z</time></trkpt><trkpt lat="42.1535828" lon="14.6151342"><ele>79.0</ele><time>2026-04-26T10:17:28.22Z</time></trkpt><trkpt lat="42.1536133" lon="14.6152735"><ele>78.25</ele><time>2026-04-26T10:17:29.199Z</time></trkpt><trkpt lat="42.1536326" lon="14.6154131"><ele>77.5</ele><time>2026-04-26T10:17:30.225Z</time></trkpt><trkpt lat="42.1536235" lon="14.6155977"><ele>76.75</ele><time>2026-04-26T10:17:31.231Z</time></trkpt><trkpt lat="42.1535999" lon="14.6157838"><ele>76.0</ele><time>2026-04-26T10:17:32.166Z</time></trkpt><trkpt lat="42.1535898" lon="14.6159642"><ele>76.0</ele><time>2026-04-26T10:17:33.211Z</time></trkpt><trkpt lat="42.1535785" lon="14.616134"><ele>76.0</ele><time>2026-04-26T10:17:34.216Z</time></trkpt><trkpt lat="42.1535733" lon="14.616285"><ele>76.0</ele><time>2026-04-26T10:17:35.224Z</time></trkpt><trkpt lat="42.1535736" lon="14.6164636"><ele>76.0</ele><time>2026-04-26T10:17:36.208Z</time></trkpt><trkpt lat="42.1535663" lon="14.6166414"><ele>73.5</ele><time>2026-04-26T10:17:37.226Z</time></trkpt><trkpt lat="42.1535617" lon="14.6168137"><ele>71.0</ele><time>2026-04-26T10:17:38.203Z</time></trkpt><trkpt lat="42.1535555" lon="14.6169818"><ele>68.5</ele><time>2026-04-26T10:17:39.184Z</time></trkpt><trkpt lat="42.1535479" lon="14.617151"><ele>66.0</ele><time>2026-04-26T10:17:40.241Z</time></trkpt><trkpt lat="42.1535376" lon="14.6173154"><ele>65.0</ele><time>2026-04-26T10:17:41.234Z</time></trkpt><trkpt lat="42.1535196" lon="14.6174796"><ele>64.0</ele><time>2026-04-26T10:17:42.226Z</time></trkpt><trkpt lat="42.1535011" lon="14.617643"><ele>63.0</ele><time>2026-04-26T10:17:43.189Z</time></trkpt><trkpt lat="42.1534787" lon="14.6178081"><ele>62.0</ele><time>2026-04-26T10:17:44.215Z</time></trkpt><trkpt lat="42.1534532" lon="14.6179729"><ele>61.2</ele><time>2026-04-26T10:17:45.215Z</time></trkpt><trkpt lat="42.1534218" lon="14.6181359"><ele>60.400000000000006</ele><time>2026-04-26T10:17:46.199Z</time></trkpt><trkpt lat="42.1533857" lon="14.6182842"><ele>59.599999999999994</ele><time>2026-04-26T10:17:47.202Z</time></trkpt><trkpt lat="42.1533465" lon="14.6184142"><ele>58.8</ele><time>2026-04-26T10:17:48.253Z</time></trkpt><trkpt lat="42.1533149" lon="14.6185396"><ele>58.0</ele><time>2026-04-26T10:17:49.228Z</time></trkpt><trkpt lat="42.1532818" lon="14.6186622"><ele>57.2</ele><time>2026-04-26T10:17:50.209Z</time></trkpt><trkpt lat="42.1532507" lon="14.6187793"><ele>56.4</ele><time>2026-04-26T10:17:51.211Z</time></trkpt><trkpt lat="42.1532238" lon="14.6188896"><ele>55.60000000000001</ele><time>2026-04-26T10:17:52.216Z</time></trkpt><trkpt lat="42.1532004" lon="14.6190164"><ele>54.800000000000004</ele><time>2026-04-26T10:17:53.206Z</time></trkpt><trkpt lat="42.1531945" lon="14.6191416"><ele>54.0</ele><time>2026-04-26T10:17:54.222Z</time></trkpt><trkpt lat="42.153199" lon="14.6192765"><ele>54.0</ele><time>2026-04-26T10:17:55.21Z</time></trkpt><trkpt lat="42.153222" lon="14.6194225"><ele>54.0</ele><time>2026-04-26T10:17:56.229Z</time></trkpt><trkpt lat="42.1532709" lon="14.6196045"><ele>54.0</ele><time>2026-04-26T10:17:57.22Z</time></trkpt><trkpt lat="42.1533327" lon="14.6198137"><ele>54.0</ele><time>2026-04-26T10:17:58.226Z</time></trkpt><trkpt lat="42.1534051" lon="14.6200641"><ele>50.0</ele><time>2026-04-26T10:17:59.164Z</time></trkpt><trkpt lat="42.1534921" lon="14.6203473"><ele>46.0</ele><time>2026-04-26T10:18:00.171Z</time></trkpt><trkpt lat="42.1535872" lon="14.6206641"><ele>46.0</ele><time>2026-04-26T10:18:01.244Z</time></trkpt><trkpt lat="42.1536618" lon="14.6209659"><ele>46.0</ele><time>2026-04-26T10:18:02.219Z</time></trkpt><trkpt lat="42.1537306" lon="14.6212238"><ele>46.0</ele><time>2026-04-26T10:18:03.23Z</time></trkpt><trkpt lat="42.1537923" lon="14.6214553"><ele>45.66666666666667</ele><time>2026-04-26T10:18:04.245Z</time></trkpt><trkpt lat="42.1538437" lon="14.621665"><ele>45.333333333333336</ele><time>2026-04-26T10:18:05.216Z</time></trkpt><trkpt lat="42.1538947" lon="14.6218669"><ele>45.0</ele><time>2026-04-26T10:18:06.219Z</time></trkpt><trkpt lat="42.1539464" lon="14.6220557"><ele>44.666666666666664</ele><time>2026-04-26T10:18:07.194Z</time></trkpt><trkpt lat="42.1540158" lon="14.622263"><ele>44.33333333333333</ele><time>2026-04-26T10:18:08.222Z</time></trkpt><trkpt lat="42.1541053" lon="14.6224819"><ele>44.0</ele><time>2026-04-26T10:18:09.211Z</time></trkpt><trkpt lat="42.1542142" lon="14.6227085"><ele>43.666666666666664</ele><time>2026-04-26T10:18:10.179Z</time></trkpt><trkpt lat="42.1543347" lon="14.6229518"><ele>43.333333333333336</ele><time>2026-04-26T10:18:11.206Z</time></trkpt><trkpt lat="42.1544612" lon="14.6231947"><ele>43.0</ele><time>2026-04-26T10:18:12.206Z</time></trkpt><trkpt lat="42.1545732" lon="14.6234182"><ele>43.0</ele><time>2026-04-26T10:18:13.218Z</time></trkpt><trkpt lat="42.1546744" lon="14.6236221"><ele>43.0</ele><time>2026-04-26T10:18:14.219Z</time></trkpt><trkpt lat="42.1547747" lon="14.6238191"><ele>43.0</ele><time>2026-04-26T10:18:15.235Z</time></trkpt><trkpt lat="42.1548726" lon="14.6240189"><ele>43.0</ele><time>2026-04-26T10:18:16.234Z</time></trkpt><trkpt lat="42.1549647" lon="14.6242013"><ele>43.0</ele><time>2026-04-26T10:18:17.228Z</time></trkpt><trkpt lat="42.1550465" lon="14.6243669"><ele>43.0</ele><time>2026-04-26T10:18:18.214Z</time></trkpt><trkpt lat="42.1551213" lon="14.624523"><ele>43.0</ele><time>2026-04-26T10:18:19.249Z</time></trkpt><trkpt lat="42.1551984" lon="14.6246892"><ele>42.5</ele><time>2026-04-26T10:18:20.204Z</time></trkpt><trkpt lat="42.15528" lon="14.6248515"><ele>42.0</ele><time>2026-04-26T10:18:21.208Z</time></trkpt><trkpt lat="42.1553637" lon="14.6249882"><ele>41.5</ele><time>2026-04-26T10:18:22.206Z</time></trkpt><trkpt lat="42.1554401" lon="14.6251099"><ele>41.0</ele><time>2026-04-26T10:18:23.219Z</time></trkpt><trkpt lat="42.1555317" lon="14.6252129"><ele>41.0</ele><time>2026-04-26T10:18:24.191Z</time></trkpt><trkpt lat="42.1556397" lon="14.6253102"><ele>41.0</ele><time>2026-04-26T10:18:25.221Z</time></trkpt><trkpt lat="42.1557543" lon="14.6254217"><ele>41.0</ele><time>2026-04-26T10:18:26.223Z</time></trkpt><trkpt lat="42.1558702" lon="14.6255357"><ele>41.0</ele><time>2026-04-26T10:18:27.188Z</time></trkpt><trkpt lat="42.1559802" lon="14.6256289"><ele>40.599999999999994</ele><time>2026-04-26T10:18:28.241Z</time></trkpt><trkpt lat="42.1560836" lon="14.6257165"><ele>40.199999999999996</ele><time>2026-04-26T10:18:29.214Z</time></trkpt><trkpt lat="42.156167" lon="14.6257888"><ele>39.8</ele><time>2026-04-26T10:18:30.172Z</time></trkpt><trkpt lat="42.1562127" lon="14.625857"><ele>39.4</ele><time>2026-04-26T10:18:31.198Z</time></trkpt><trkpt lat="42.1562821" lon="14.6260224"><ele>39.0</ele><time>2026-04-26T10:18:33.19Z</time></trkpt><trkpt lat="42.1563307" lon="14.6261179"><ele>38.25</ele><time>2026-04-26T10:18:34.216Z</time></trkpt><trkpt lat="42.1563976" lon="14.6262304"><ele>37.5</ele><time>2026-04-26T10:18:35.212Z</time></trkpt><trkpt lat="42.1564904" lon="14.6263606"><ele>36.75</ele><time>2026-04-26T10:18:36.222Z</time></trkpt><trkpt lat="42.1566214" lon="14.6265447"><ele>36.0</ele><time>2026-04-26T10:18:37.215Z</time></trkpt><trkpt lat="42.156746" lon="14.626714"><ele>36.4</ele><time>2026-04-26T10:18:38.194Z</time></trkpt><trkpt lat="42.1568394" lon="14.6268501"><ele>36.8</ele><time>2026-04-26T10:18:39.214Z</time></trkpt><trkpt lat="42.1569086" lon="14.6269785"><ele>37.199999999999996</ele><time>2026-04-26T10:18:40.212Z</time></trkpt><trkpt lat="42.1569664" lon="14.6270835"><ele>37.6</ele><time>2026-04-26T10:18:41.215Z</time></trkpt><trkpt lat="42.1570063" lon="14.6271957"><ele>38.0</ele><time>2026-04-26T10:18:42.216Z</time></trkpt><trkpt lat="42.1570435" lon="14.6273219"><ele>38.0</ele><time>2026-04-26T10:18:43.216Z</time></trkpt><trkpt lat="42.1570882" lon="14.6274754"><ele>38.0</ele><time>2026-04-26T10:18:44.213Z</time></trkpt><trkpt lat="42.1571317" lon="14.6276297"><ele>38.0</ele><time>2026-04-26T10:18:45.159Z</time></trkpt><trkpt lat="42.1571687" lon="14.6277587"><ele>38.0</ele><time>2026-04-26T10:18:46.224Z</time></trkpt><trkpt lat="42.1572022" lon="14.6278782"><ele>38.0</ele><time>2026-04-26T10:18:47.224Z</time></trkpt><trkpt lat="42.1572285" lon="14.6279866"><ele>37.8</ele><time>2026-04-26T10:18:48.218Z</time></trkpt><trkpt lat="42.1572528" lon="14.6280879"><ele>37.599999999999994</ele><time>2026-04-26T10:18:49.168Z</time></trkpt><trkpt lat="42.1572755" lon="14.6281943"><ele>37.400000000000006</ele><time>2026-04-26T10:18:50.161Z</time></trkpt><trkpt lat="42.1572942" lon="14.6283184"><ele>37.2</ele><time>2026-04-26T10:18:51.222Z</time></trkpt><trkpt lat="42.1573275" lon="14.6284598"><ele>37.0</ele><time>2026-04-26T10:18:52.179Z</time></trkpt><trkpt lat="42.1573752" lon="14.6286287"><ele>37.333333333333336</ele><time>2026-04-26T10:18:53.224Z</time></trkpt><trkpt lat="42.1574397" lon="14.6288257"><ele>37.666666666666664</ele><time>2026-04-26T10:18:54.216Z</time></trkpt><trkpt lat="42.1575084" lon="14.6290551"><ele>38.0</ele><time>2026-04-26T10:18:55.211Z</time></trkpt><trkpt lat="42.1575716" lon="14.6292554"><ele>38.0</ele><time>2026-04-26T10:18:56.166Z</time></trkpt><trkpt lat="42.1576227" lon="14.6294176"><ele>38.0</ele><time>2026-04-26T10:18:57.219Z</time></trkpt><trkpt lat="42.1576916" lon="14.6295606"><ele>38.0</ele><time>2026-04-26T10:18:58.203Z</time></trkpt><trkpt lat="42.1577877" lon="14.6296862"><ele>38.0</ele><time>2026-04-26T10:18:59.197Z</time></trkpt><trkpt lat="42.1578844" lon="14.6298077"><ele>37.25</ele><time>2026-04-26T10:19:00.21Z</time></trkpt><trkpt lat="42.1579745" lon="14.6299619"><ele>36.5</ele><time>2026-04-26T10:19:01.225Z</time></trkpt><trkpt lat="42.1580626" lon="14.6300975"><ele>35.75</ele><time>2026-04-26T10:19:02.186Z</time></trkpt><trkpt lat="42.1581383" lon="14.6302261"><ele>35.0</ele><time>2026-04-26T10:19:03.223Z</time></trkpt><trkpt lat="42.1581969" lon="14.6303711"><ele>35.25</ele><time>2026-04-26T10:19:04.183Z</time></trkpt><trkpt lat="42.1582445" lon="14.6305376"><ele>35.5</ele><time>2026-04-26T10:19:05.218Z</time></trkpt><trkpt lat="42.1582901" lon="14.6307222"><ele>35.75</ele><time>2026-04-26T10:19:06.182Z</time></trkpt><trkpt lat="42.1583451" lon="14.6309337"><ele>36.0</ele><time>2026-04-26T10:19:07.173Z</time></trkpt><trkpt lat="42.1584102" lon="14.6311889"><ele>36.0</ele><time>2026-04-26T10:19:08.17Z</time></trkpt><trkpt lat="42.158473" lon="14.6314385"><ele>36.0</ele><time>2026-04-26T10:19:09.175Z</time></trkpt><trkpt lat="42.1585281" lon="14.6316663"><ele>36.0</ele><time>2026-04-26T10:19:10.183Z</time></trkpt><trkpt lat="42.1585783" lon="14.631844"><ele>34.666666666666664</ele><time>2026-04-26T10:19:11.161Z</time></trkpt><trkpt lat="42.1586097" lon="14.6320272"><ele>33.33333333333333</ele><time>2026-04-26T10:19:12.157Z</time></trkpt><trkpt lat="42.158644" lon="14.6322304"><ele>32.0</ele><time>2026-04-26T10:19:13.155Z</time></trkpt><trkpt lat="42.1587119" lon="14.6324445"><ele>32.0</ele><time>2026-04-26T10:19:14.153Z</time></trkpt><trkpt lat="42.1587664" lon="14.6326813"><ele>32.0</ele><time>2026-04-26T10:19:15.194Z</time></trkpt><trkpt lat="42.1588247" lon="14.6328815"><ele>32.0</ele><time>2026-04-26T10:19:16.161Z</time></trkpt><trkpt lat="42.1588748" lon="14.6330329"><ele>31.75</ele><time>2026-04-26T10:19:17.168Z</time></trkpt><trkpt lat="42.15892" lon="14.6331923"><ele>31.5</ele><time>2026-04-26T10:19:18.21Z</time></trkpt><trkpt lat="42.1589583" lon="14.6333498"><ele>31.25</ele><time>2026-04-26T10:19:19.226Z</time></trkpt><trkpt lat="42.1589761" lon="14.633499"><ele>31.0</ele><time>2026-04-26T10:19:20.205Z</time></trkpt><trkpt lat="42.1589841" lon="14.6336436"><ele>30.6</ele><time>2026-04-26T10:19:21.186Z</time></trkpt><trkpt lat="42.1589831" lon="14.633803"><ele>30.200000000000003</ele><time>2026-04-26T10:19:22.192Z</time></trkpt><trkpt lat="42.1589731" lon="14.6339689"><ele>29.799999999999997</ele><time>2026-04-26T10:19:23.211Z</time></trkpt><trkpt lat="42.1589686" lon="14.6340889"><ele>29.4</ele><time>2026-04-26T10:19:24.211Z</time></trkpt><trkpt lat="42.1589825" lon="14.634175"><ele>29.0</ele><time>2026-04-26T10:19:25.221Z</time></trkpt><trkpt lat="42.159028" lon="14.6342846"><ele>29.0</ele><time>2026-04-26T10:19:26.169Z</time></trkpt><trkpt lat="42.1591045" lon="14.6343989"><ele>29.0</ele><time>2026-04-26T10:19:27.229Z</time></trkpt><trkpt lat="42.1591882" lon="14.6345277"><ele>29.0</ele><time>2026-04-26T10:19:28.199Z</time></trkpt><trkpt lat="42.1592956" lon="14.6346863"><ele>29.0</ele><time>2026-04-26T10:19:29.218Z</time></trkpt><trkpt lat="42.1594007" lon="14.6348386"><ele>29.0</ele><time>2026-04-26T10:19:30.247Z</time></trkpt><trkpt lat="42.1594849" lon="14.6349646"><ele>29.0</ele><time>2026-04-26T10:19:31.213Z</time></trkpt><trkpt lat="42.159546" lon="14.6350696"><ele>29.0</ele><time>2026-04-26T10:19:32.187Z</time></trkpt><trkpt lat="42.1596228" lon="14.6352059"><ele>29.0</ele><time>2026-04-26T10:19:33.211Z</time></trkpt><trkpt lat="42.1597256" lon="14.6353734"><ele>28.666666666666664</ele><time>2026-04-26T10:19:34.224Z</time></trkpt><trkpt lat="42.1598485" lon="14.6355516"><ele>28.333333333333336</ele><time>2026-04-26T10:19:35.214Z</time></trkpt><trkpt lat="42.1599793" lon="14.6357265"><ele>28.0</ele><time>2026-04-26T10:19:36.179Z</time></trkpt><trkpt lat="42.1600791" lon="14.6358602"><ele>28.599999999999998</ele><time>2026-04-26T10:19:37.206Z</time></trkpt><trkpt lat="42.1601478" lon="14.635972"><ele>29.199999999999996</ele><time>2026-04-26T10:19:38.191Z</time></trkpt><trkpt lat="42.1602124" lon="14.6360689"><ele>29.8</ele><time>2026-04-26T10:19:39.199Z</time></trkpt><trkpt lat="42.160295" lon="14.6361394"><ele>30.4</ele><time>2026-04-26T10:19:40.188Z</time></trkpt><trkpt lat="42.1603817" lon="14.6361948"><ele>31.0</ele><time>2026-04-26T10:19:41.175Z</time></trkpt><trkpt lat="42.1604623" lon="14.6362411"><ele>31.000000000000004</ele><time>2026-04-26T10:19:42.199Z</time></trkpt><trkpt lat="42.1605248" lon="14.6362779"><ele>31.0</ele><time>2026-04-26T10:19:43.211Z</time></trkpt><trkpt lat="42.1605857" lon="14.6363727"><ele>31.0</ele><time>2026-04-26T10:19:45.196Z</time></trkpt><trkpt lat="42.1605934" lon="14.636489"><ele>31.0</ele><time>2026-04-26T10:19:46.178Z</time></trkpt><trkpt lat="42.1605826" lon="14.6366269"><ele>31.000000000000004</ele><time>2026-04-26T10:19:47.204Z</time></trkpt><trkpt lat="42.1605599" lon="14.6367316"><ele>31.0</ele><time>2026-04-26T10:19:48.198Z</time></trkpt><trkpt lat="42.1605212" lon="14.6368335"><ele>31.0</ele><time>2026-04-26T10:19:49.206Z</time></trkpt><trkpt lat="42.1604518" lon="14.6369647"><ele>31.0</ele><time>2026-04-26T10:19:50.209Z</time></trkpt><trkpt lat="42.1603736" lon="14.6371278"><ele>31.0</ele><time>2026-04-26T10:19:51.214Z</time></trkpt><trkpt lat="42.1602928" lon="14.6372792"><ele>31.0</ele><time>2026-04-26T10:19:52.198Z</time></trkpt><trkpt lat="42.1602137" lon="14.6374283"><ele>31.25</ele><time>2026-04-26T10:19:53.216Z</time></trkpt><trkpt lat="42.1601465" lon="14.6375676"><ele>31.5</ele><time>2026-04-26T10:19:54.201Z</time></trkpt><trkpt lat="42.16007" lon="14.6377338"><ele>31.75</ele><time>2026-04-26T10:19:55.204Z</time></trkpt><trkpt lat="42.1599903" lon="14.6378812"><ele>32.0</ele><time>2026-04-26T10:19:56.208Z</time></trkpt><trkpt lat="42.1599263" lon="14.6380109"><ele>31.333333333333332</ele><time>2026-04-26T10:19:57.195Z</time></trkpt><trkpt lat="42.1598641" lon="14.6381205"><ele>30.666666666666664</ele><time>2026-04-26T10:19:58.235Z</time></trkpt><trkpt lat="42.1598165" lon="14.6381966"><ele>30.0</ele><time>2026-04-26T10:19:59.166Z</time></trkpt><trkpt lat="42.159745" lon="14.6382733"><ele>29.333333333333336</ele><time>2026-04-26T10:20:01.219Z</time></trkpt><trkpt lat="42.1596701" lon="14.6382682"><ele>28.666666666666668</ele><time>2026-04-26T10:20:02.169Z</time></trkpt><trkpt lat="42.1595909" lon="14.6382669"><ele>28.0</ele><time>2026-04-26T10:20:03.201Z</time></trkpt><trkpt lat="42.1595122" lon="14.6382735"><ele>28.000000000000004</ele><time>2026-04-26T10:20:04.214Z</time></trkpt><trkpt lat="42.159417" lon="14.6382891"><ele>28.0</ele><time>2026-04-26T10:20:06.248Z</time></trkpt><trkpt lat="42.1593835" lon="14.6383857"><ele>28.0</ele><time>2026-04-26T10:20:18.205Z</time></trkpt><trkpt lat="42.1594328" lon="14.6384436"><ele>28.0</ele><time>2026-04-26T10:20:19.188Z</time></trkpt><trkpt lat="42.1595147" lon="14.6384957"><ele>28.000000000000004</ele><time>2026-04-26T10:20:20.191Z</time></trkpt><trkpt lat="42.1596248" lon="14.6385479"><ele>28.0</ele><time>2026-04-26T10:20:21.192Z</time></trkpt><trkpt lat="42.159767" lon="14.6386161"><ele>28.666666666666668</ele><time>2026-04-26T10:20:22.184Z</time></trkpt><trkpt lat="42.1599167" lon="14.638704"><ele>29.333333333333336</ele><time>2026-04-26T10:20:23.16Z</time></trkpt><trkpt lat="42.1600686" lon="14.6388169"><ele>30.0</ele><time>2026-04-26T10:20:24.166Z</time></trkpt><trkpt lat="42.1601881" lon="14.6388523"><ele>30.0</ele><time>2026-04-26T10:20:25.172Z</time></trkpt><trkpt lat="42.1602825" lon="14.6388988"><ele>30.0</ele><time>2026-04-26T10:20:26.181Z</time></trkpt><trkpt lat="42.160382" lon="14.6389409"><ele>30.0</ele><time>2026-04-26T10:20:27.194Z</time></trkpt><trkpt lat="42.1604843" lon="14.6389833"><ele>30.0</ele><time>2026-04-26T10:20:28.192Z</time></trkpt><trkpt lat="42.1605788" lon="14.639034"><ele>30.0</ele><time>2026-04-26T10:20:29.205Z</time></trkpt><trkpt lat="42.1606732" lon="14.6390765"><ele>29.6</ele><time>2026-04-26T10:20:30.2Z</time></trkpt><trkpt lat="42.1607673" lon="14.6391173"><ele>29.2</ele><time>2026-04-26T10:20:31.202Z</time></trkpt><trkpt lat="42.1608691" lon="14.6391603"><ele>28.799999999999997</ele><time>2026-04-26T10:20:32.205Z</time></trkpt><trkpt lat="42.1609706" lon="14.6392034"><ele>28.4</ele><time>2026-04-26T10:20:33.212Z</time></trkpt><trkpt lat="42.16107" lon="14.6392538"><ele>28.0</ele><time>2026-04-26T10:20:34.211Z</time></trkpt><trkpt lat="42.1611661" lon="14.6393006"><ele>28.000000000000004</ele><time>2026-04-26T10:20:35.235Z</time></trkpt><trkpt lat="42.1612545" lon="14.6393439"><ele>28.0</ele><time>2026-04-26T10:20:36.22Z</time></trkpt><trkpt lat="42.1613374" lon="14.6393899"><ele>28.0</ele><time>2026-04-26T10:20:37.224Z</time></trkpt><trkpt lat="42.1614151" lon="14.6394327"><ele>28.0</ele><time>2026-04-26T10:20:38.217Z</time></trkpt><trkpt lat="42.1614905" lon="14.6394753"><ele>28.000000000000004</ele><time>2026-04-26T10:20:39.189Z</time></trkpt><trkpt lat="42.1615759" lon="14.6395266"><ele>28.0</ele><time>2026-04-26T10:20:40.193Z</time></trkpt><trkpt lat="42.1616741" lon="14.6395756"><ele>26.5</ele><time>2026-04-26T10:20:41.226Z</time></trkpt><trkpt lat="42.1617842" lon="14.6396269"><ele>25.0</ele><time>2026-04-26T10:20:42.212Z</time></trkpt><trkpt lat="42.1619124" lon="14.6396824"><ele>23.5</ele><time>2026-04-26T10:20:43.237Z</time></trkpt><trkpt lat="42.1620452" lon="14.6397453"><ele>22.0</ele><time>2026-04-26T10:20:44.214Z</time></trkpt><trkpt lat="42.1621968" lon="14.6398136"><ele>22.0</ele><time>2026-04-26T10:20:45.226Z</time></trkpt><trkpt lat="42.1623597" lon="14.6398851"><ele>22.0</ele><time>2026-04-26T10:20:46.195Z</time></trkpt><trkpt lat="42.1625284" lon="14.6399602"><ele>22.0</ele><time>2026-04-26T10:20:47.209Z</time></trkpt><trkpt lat="42.1626929" lon="14.6400423"><ele>21.75</ele><time>2026-04-26T10:20:48.169Z</time></trkpt><trkpt lat="42.1628408" lon="14.6401181"><ele>21.5</ele><time>2026-04-26T10:20:49.244Z</time></trkpt><trkpt lat="42.1629752" lon="14.6402032"><ele>21.25</ele><time>2026-04-26T10:20:50.209Z</time></trkpt><trkpt lat="42.1630831" lon="14.6402993"><ele>21.0</ele><time>2026-04-26T10:20:51.203Z</time></trkpt><trkpt lat="42.1631803" lon="14.6404154"><ele>20.400000000000002</ele><time>2026-04-26T10:20:52.196Z</time></trkpt><trkpt lat="42.1632715" lon="14.6405139"><ele>19.8</ele><time>2026-04-26T10:20:53.246Z</time></trkpt><trkpt lat="42.1633688" lon="14.6405786"><ele>19.200000000000003</ele><time>2026-04-26T10:20:54.218Z</time></trkpt><trkpt lat="42.1634669" lon="14.6405962"><ele>18.6</ele><time>2026-04-26T10:20:55.225Z</time></trkpt><trkpt lat="42.1635719" lon="14.6405968"><ele>18.0</ele><time>2026-04-26T10:20:56.215Z</time></trkpt><trkpt lat="42.1636622" lon="14.6406235"><ele>18.0</ele><time>2026-04-26T10:20:57.22Z</time></trkpt><trkpt lat="42.1637397" lon="14.6406942"><ele>18.0</ele><time>2026-04-26T10:20:58.231Z</time></trkpt><trkpt lat="42.1638024" lon="14.6407943"><ele>18.0</ele><time>2026-04-26T10:20:59.214Z</time></trkpt><trkpt lat="42.1638519" lon="14.6409285"><ele>18.0</ele><time>2026-04-26T10:21:00.213Z</time></trkpt><trkpt lat="42.1638926" lon="14.6410926"><ele>18.0</ele><time>2026-04-26T10:21:01.224Z</time></trkpt><trkpt lat="42.1639154" lon="14.6412843"><ele>18.333333333333332</ele><time>2026-04-26T10:21:02.236Z</time></trkpt><trkpt lat="42.1639235" lon="14.6415064"><ele>18.666666666666664</ele><time>2026-04-26T10:21:03.225Z</time></trkpt><trkpt lat="42.1639109" lon="14.6417584"><ele>19.0</ele><time>2026-04-26T10:21:04.22Z</time></trkpt><trkpt lat="42.1638902" lon="14.6420371"><ele>19.5</ele><time>2026-04-26T10:21:05.178Z</time></trkpt><trkpt lat="42.1638843" lon="14.6423538"><ele>20.0</ele><time>2026-04-26T10:21:06.207Z</time></trkpt><trkpt lat="42.1638916" lon="14.6427025"><ele>20.0</ele><time>2026-04-26T10:21:07.202Z</time></trkpt><trkpt lat="42.1639026" lon="14.6430648"><ele>20.0</ele><time>2026-04-26T10:21:08.238Z</time></trkpt><trkpt lat="42.1639182" lon="14.6434097"><ele>19.0</ele><time>2026-04-26T10:21:09.232Z</time></trkpt><trkpt lat="42.1639301" lon="14.6437256"><ele>18.0</ele><time>2026-04-26T10:21:10.215Z</time></trkpt><trkpt lat="42.1639404" lon="14.6439999"><ele>17.0</ele><time>2026-04-26T10:21:11.17Z</time></trkpt><trkpt lat="42.1639503" lon="14.6442327"><ele>17.0</ele><time>2026-04-26T10:21:12.214Z</time></trkpt><trkpt lat="42.1639572" lon="14.64441"><ele>17.0</ele><time>2026-04-26T10:21:13.2Z</time></trkpt><trkpt lat="42.163946" lon="14.644538"><ele>17.0</ele><time>2026-04-26T10:21:14.195Z</time></trkpt><trkpt lat="42.1639272" lon="14.6446494"><ele>17.0</ele><time>2026-04-26T10:21:15.203Z</time></trkpt><trkpt lat="42.1638773" lon="14.6447511"><ele>17.0</ele><time>2026-04-26T10:21:16.196Z</time></trkpt><trkpt lat="42.1638016" lon="14.6448397"><ele>17.0</ele><time>2026-04-26T10:21:17.172Z</time></trkpt><trkpt lat="42.1637086" lon="14.6449269"><ele>17.0</ele><time>2026-04-26T10:21:18.199Z</time></trkpt><trkpt lat="42.1636275" lon="14.6449974"><ele>17.0</ele><time>2026-04-26T10:21:19.187Z</time></trkpt><trkpt lat="42.1635551" lon="14.6450545"><ele>17.0</ele><time>2026-04-26T10:21:20.197Z</time></trkpt><trkpt lat="42.163488" lon="14.6451068"><ele>17.0</ele><time>2026-04-26T10:21:21.223Z</time></trkpt><trkpt lat="42.1634229" lon="14.6451544"><ele>17.0</ele><time>2026-04-26T10:21:22.196Z</time></trkpt><trkpt lat="42.163348" lon="14.6451844"><ele>16.999999999999996</ele><time>2026-04-26T10:21:23.219Z</time></trkpt><trkpt lat="42.1632796" lon="14.6452154"><ele>17.0</ele><time>2026-04-26T10:21:24.17Z</time></trkpt><trkpt lat="42.1632214" lon="14.6452724"><ele>17.0</ele><time>2026-04-26T10:21:25.24Z</time></trkpt><trkpt lat="42.1631722" lon="14.6453454"><ele>17.0</ele><time>2026-04-26T10:21:26.21Z</time></trkpt><trkpt lat="42.1631347" lon="14.6454202"><ele>17.0</ele><time>2026-04-26T10:21:27.185Z</time></trkpt><trkpt lat="42.1631019" lon="14.6455079"><ele>16.999999999999996</ele><time>2026-04-26T10:21:28.242Z</time></trkpt><trkpt lat="42.1630893" lon="14.6456234"><ele>17.0</ele><time>2026-04-26T10:21:29.235Z</time></trkpt><trkpt lat="42.1630906" lon="14.6457374"><ele>17.0</ele><time>2026-04-26T10:21:30.216Z</time></trkpt><trkpt lat="42.1631137" lon="14.6458501"><ele>17.0</ele><time>2026-04-26T10:21:31.233Z</time></trkpt><trkpt lat="42.1631301" lon="14.645955"><ele>17.0</ele><time>2026-04-26T10:21:32.218Z</time></trkpt><trkpt lat="42.1631378" lon="14.6460473"><ele>17.0</ele><time>2026-04-26T10:21:33.232Z</time></trkpt><trkpt lat="42.1631404" lon="14.6461929"><ele>17.0</ele><time>2026-04-26T10:21:35.259Z</time></trkpt><trkpt lat="42.1631121" lon="14.6462825"><ele>17.0</ele><time>2026-04-26T10:21:37.186Z</time></trkpt><trkpt lat="42.1630236" lon="14.6463039"><ele>17.0</ele><time>2026-04-26T10:21:39.207Z</time></trkpt><trkpt lat="42.1629371" lon="14.6462752"><ele>17.0</ele><time>2026-04-26T10:21:41.225Z</time></trkpt><trkpt lat="42.1628735" lon="14.6462777"><ele>17.0</ele><time>2026-04-26T10:21:43.214Z</time></trkpt><trkpt lat="42.1627965" lon="14.6462966"><ele>17.0</ele><time>2026-04-26T10:21:45.209Z</time></trkpt><trkpt lat="42.162724" lon="14.6463167"><ele>17.0</ele><time>2026-04-26T10:21:47.207Z</time></trkpt><trkpt lat="42.1626881" lon="14.6464043"><ele>17.0</ele><time>2026-04-26T10:21:51.161Z</time></trkpt><trkpt lat="42.16267" lon="14.6465088"><ele>17.0</ele><time>2026-04-26T10:21:53.205Z</time></trkpt><trkpt lat="42.1626759" lon="14.6466232"><ele>17.0</ele><time>2026-04-26T10:21:56.207Z</time></trkpt><trkpt lat="42.1626751" lon="14.6467322"><ele>17.0</ele><time>2026-04-26T10:21:57.169Z</time></trkpt><trkpt lat="42.1626617" lon="14.6468694"><ele>17.0</ele><time>2026-04-26T10:21:58.198Z</time></trkpt><trkpt lat="42.1626482" lon="14.6470082"><ele>17.0</ele><time>2026-04-26T10:21:59.19Z</time></trkpt><trkpt lat="42.1626169" lon="14.647143"><ele>17.75</ele><time>2026-04-26T10:22:00.176Z</time></trkpt><trkpt lat="42.1625779" lon="14.6473107"><ele>18.5</ele><time>2026-04-26T10:22:01.173Z</time></trkpt><trkpt lat="42.1625467" lon="14.6475303"><ele>19.25</ele><time>2026-04-26T10:22:02.167Z</time></trkpt><trkpt lat="42.1625147" lon="14.6477239"><ele>20.0</ele><time>2026-04-26T10:22:03.183Z</time></trkpt><trkpt lat="42.1624744" lon="14.6478852"><ele>20.0</ele><time>2026-04-26T10:22:04.162Z</time></trkpt><trkpt lat="42.1624473" lon="14.6480046"><ele>20.0</ele><time>2026-04-26T10:22:05.185Z</time></trkpt><trkpt lat="42.1624327" lon="14.6481305"><ele>20.0</ele><time>2026-04-26T10:22:06.227Z</time></trkpt><trkpt lat="42.1624126" lon="14.6483109"><ele>20.0</ele><time>2026-04-26T10:22:07.208Z</time></trkpt><trkpt lat="42.1623913" lon="14.6485128"><ele>20.0</ele><time>2026-04-26T10:22:08.211Z</time></trkpt><trkpt lat="42.1623666" lon="14.6487513"><ele>20.0</ele><time>2026-04-26T10:22:09.242Z</time></trkpt><trkpt lat="42.1623308" lon="14.6490311"><ele>20.0</ele><time>2026-04-26T10:22:10.213Z</time></trkpt><trkpt lat="42.1622893" lon="14.6493383"><ele>20.5</ele><time>2026-04-26T10:22:11.215Z</time></trkpt><trkpt lat="42.1622468" lon="14.6496571"><ele>21.0</ele><time>2026-04-26T10:22:12.199Z</time></trkpt><trkpt lat="42.1622089" lon="14.6499883"><ele>22.5</ele><time>2026-04-26T10:22:13.168Z</time></trkpt><trkpt lat="42.1621683" lon="14.6503318"><ele>24.0</ele><time>2026-04-26T10:22:14.221Z</time></trkpt><trkpt lat="42.1621434" lon="14.6506123"><ele>24.0</ele><time>2026-04-26T10:22:15.177Z</time></trkpt><trkpt lat="42.1621204" lon="14.6508477"><ele>24.0</ele><time>2026-04-26T10:22:16.191Z</time></trkpt><trkpt lat="42.162102" lon="14.6510622"><ele>24.0</ele><time>2026-04-26T10:22:17.166Z</time></trkpt><trkpt lat="42.1620762" lon="14.6512523"><ele>25.2</ele><time>2026-04-26T10:22:18.168Z</time></trkpt><trkpt lat="42.1620511" lon="14.6514178"><ele>26.4</ele><time>2026-04-26T10:22:19.212Z</time></trkpt><trkpt lat="42.1620311" lon="14.6515574"><ele>27.6</ele><time>2026-04-26T10:22:20.179Z</time></trkpt><trkpt lat="42.162012" lon="14.65165"><ele>28.8</ele><time>2026-04-26T10:22:21.18Z</time></trkpt><trkpt lat="42.1619526" lon="14.6516895"><ele>30.0</ele><time>2026-04-26T10:22:24.186Z</time></trkpt><trkpt lat="42.1620245" lon="14.651743"><ele>30.0</ele><time>2026-04-26T10:22:31.158Z</time></trkpt><trkpt lat="42.1620351" lon="14.6518333"><ele>30.0</ele><time>2026-04-26T10:22:33.231Z</time></trkpt><trkpt lat="42.162034" lon="14.6520184"><ele>30.0</ele><time>2026-04-26T10:22:35.233Z</time></trkpt><trkpt lat="42.1620358" lon="14.6521573"><ele>30.0</ele><time>2026-04-26T10:22:36.227Z</time></trkpt><trkpt lat="42.162037" lon="14.6522984"><ele>30.0</ele><time>2026-04-26T10:22:37.228Z</time></trkpt><trkpt lat="42.1620288" lon="14.6524371"><ele>33.25</ele><time>2026-04-26T10:22:38.214Z</time></trkpt><trkpt lat="42.1620028" lon="14.6525934"><ele>36.5</ele><time>2026-04-26T10:22:39.226Z</time></trkpt><trkpt lat="42.1619554" lon="14.652782"><ele>39.75</ele><time>2026-04-26T10:22:40.212Z</time></trkpt><trkpt lat="42.1618926" lon="14.6529803"><ele>43.0</ele><time>2026-04-26T10:22:41.213Z</time></trkpt><trkpt lat="42.1618277" lon="14.6531522"><ele>45.25</ele><time>2026-04-26T10:22:42.191Z</time></trkpt><trkpt lat="42.1617895" lon="14.6532996"><ele>47.5</ele><time>2026-04-26T10:22:43.175Z</time></trkpt><trkpt lat="42.1617587" lon="14.6534913"><ele>49.75</ele><time>2026-04-26T10:22:44.195Z</time></trkpt><trkpt lat="42.1617185" lon="14.653685"><ele>52.0</ele><time>2026-04-26T10:22:45.185Z</time></trkpt><trkpt lat="42.1616684" lon="14.653886"><ele>55.33333333333333</ele><time>2026-04-26T10:22:46.199Z</time></trkpt><trkpt lat="42.1616026" lon="14.6541048"><ele>58.66666666666667</ele><time>2026-04-26T10:22:47.214Z</time></trkpt><trkpt lat="42.1615546" lon="14.6543108"><ele>62.0</ele><time>2026-04-26T10:22:48.185Z</time></trkpt><trkpt lat="42.1615112" lon="14.6544745"><ele>66.4</ele><time>2026-04-26T10:22:49.182Z</time></trkpt><trkpt lat="42.1614661" lon="14.6546355"><ele>70.80000000000001</ele><time>2026-04-26T10:22:50.175Z</time></trkpt><trkpt lat="42.1614149" lon="14.6547525"><ele>75.2</ele><time>2026-04-26T10:22:51.221Z</time></trkpt><trkpt lat="42.1613607" lon="14.6548385"><ele>79.60000000000001</ele><time>2026-04-26T10:22:52.169Z</time></trkpt><trkpt lat="42.1612816" lon="14.6549233"><ele>84.0</ele><time>2026-04-26T10:22:53.176Z</time></trkpt><trkpt lat="42.1611741" lon="14.655002"><ele>84.0</ele><time>2026-04-26T10:22:54.165Z</time></trkpt><trkpt lat="42.1610593" lon="14.6550633"><ele>84.0</ele><time>2026-04-26T10:22:55.175Z</time></trkpt><trkpt lat="42.1609645" lon="14.6550899"><ele>84.0</ele><time>2026-04-26T10:22:56.199Z</time></trkpt><trkpt lat="42.1608935" lon="14.6550847"><ele>84.0</ele><time>2026-04-26T10:22:58.183Z</time></trkpt><trkpt lat="42.1608271" lon="14.654967"><ele>84.0</ele><time>2026-04-26T10:23:00.209Z</time></trkpt><trkpt lat="42.1607764" lon="14.6548844"><ele>87.25</ele><time>2026-04-26T10:23:01.218Z</time></trkpt><trkpt lat="42.1606769" lon="14.6548184"><ele>90.5</ele><time>2026-04-26T10:23:02.175Z</time></trkpt><trkpt lat="42.1605588" lon="14.6547593"><ele>93.75</ele><time>2026-04-26T10:23:03.213Z</time></trkpt><trkpt lat="42.1604359" lon="14.6547004"><ele>97.0</ele><time>2026-04-26T10:23:04.221Z</time></trkpt><trkpt lat="42.1602898" lon="14.6546588"><ele>97.0</ele><time>2026-04-26T10:23:05.166Z</time></trkpt><trkpt lat="42.160115" lon="14.6546149"><ele>97.0</ele><time>2026-04-26T10:23:06.192Z</time></trkpt><trkpt lat="42.1599344" lon="14.6545728"><ele>97.0</ele><time>2026-04-26T10:23:07.175Z</time></trkpt><trkpt lat="42.1597578" lon="14.6545408"><ele>95.33333333333334</ele><time>2026-04-26T10:23:08.164Z</time></trkpt><trkpt lat="42.1595972" lon="14.6544848"><ele>93.66666666666667</ele><time>2026-04-26T10:23:09.219Z</time></trkpt><trkpt lat="42.1594466" lon="14.6543909"><ele>92.0</ele><time>2026-04-26T10:23:10.212Z</time></trkpt><trkpt lat="42.159267" lon="14.6542685"><ele>92.0</ele><time>2026-04-26T10:23:11.216Z</time></trkpt><trkpt lat="42.1590962" lon="14.6541417"><ele>92.0</ele><time>2026-04-26T10:23:12.168Z</time></trkpt><trkpt lat="42.158947" lon="14.6540327"><ele>92.0</ele><time>2026-04-26T10:23:13.175Z</time></trkpt><trkpt lat="42.158819" lon="14.6539418"><ele>91.0</ele><time>2026-04-26T10:23:14.178Z</time></trkpt><trkpt lat="42.1586876" lon="14.6538474"><ele>90.0</ele><time>2026-04-26T10:23:15.196Z</time></trkpt><trkpt lat="42.158556" lon="14.6537617"><ele>89.0</ele><time>2026-04-26T10:23:16.19Z</time></trkpt><trkpt lat="42.1584275" lon="14.6536791"><ele>88.0</ele><time>2026-04-26T10:23:17.229Z</time></trkpt><trkpt lat="42.1583049" lon="14.6536127"><ele>88.0</ele><time>2026-04-26T10:23:18.189Z</time></trkpt><trkpt lat="42.1582126" lon="14.6535534"><ele>88.0</ele><time>2026-04-26T10:23:19.212Z</time></trkpt><trkpt lat="42.1581534" lon="14.6535009"><ele>88.0</ele><time>2026-04-26T10:23:20.199Z</time></trkpt><trkpt lat="42.1581064" lon="14.6534325"><ele>88.0</ele><time>2026-04-26T10:23:21.199Z</time></trkpt><trkpt lat="42.1580645" lon="14.653328"><ele>88.0</ele><time>2026-04-26T10:23:22.175Z</time></trkpt><trkpt lat="42.1580527" lon="14.6532325"><ele>88.0</ele><time>2026-04-26T10:23:23.2Z</time></trkpt><trkpt lat="42.1580567" lon="14.6531427"><ele>86.4</ele><time>2026-04-26T10:23:24.182Z</time></trkpt><trkpt lat="42.15807" lon="14.6529644"><ele>84.80000000000001</ele><time>2026-04-26T10:23:26.2Z</time></trkpt><trkpt lat="42.1580581" lon="14.652859"><ele>83.2</ele><time>2026-04-26T10:23:27.212Z</time></trkpt><trkpt lat="42.158026" lon="14.6527515"><ele>81.6</ele><time>2026-04-26T10:23:28.288Z</time></trkpt><trkpt lat="42.1579517" lon="14.6526569"><ele>80.0</ele><time>2026-04-26T10:23:29.213Z</time></trkpt><trkpt lat="42.157885" lon="14.6525856"><ele>80.0</ele><time>2026-04-26T10:23:30.219Z</time></trkpt><trkpt lat="42.1578607" lon="14.6524927"><ele>80.0</ele><time>2026-04-26T10:23:32.224Z</time></trkpt><trkpt lat="42.1578671" lon="14.6523846"><ele>80.0</ele><time>2026-04-26T10:23:33.222Z</time></trkpt><trkpt lat="42.1578815" lon="14.6522297"><ele>80.0</ele><time>2026-04-26T10:23:34.166Z</time></trkpt><trkpt lat="42.1578924" lon="14.6521019"><ele>80.0</ele><time>2026-04-26T10:23:35.157Z</time></trkpt><trkpt lat="42.1579" lon="14.6519806"><ele>74.8</ele><time>2026-04-26T10:23:36.224Z</time></trkpt><trkpt lat="42.1579041" lon="14.6518699"><ele>69.6</ele><time>2026-04-26T10:23:37.22Z</time></trkpt><trkpt lat="42.1579037" lon="14.6517643"><ele>64.4</ele><time>2026-04-26T10:23:38.221Z</time></trkpt><trkpt lat="42.1579112" lon="14.6516473"><ele>59.2</ele><time>2026-04-26T10:23:39.225Z</time></trkpt><trkpt lat="42.1579202" lon="14.6515063"><ele>54.0</ele><time>2026-04-26T10:23:40.227Z</time></trkpt><trkpt lat="42.1579348" lon="14.6513357"><ele>54.0</ele><time>2026-04-26T10:23:41.176Z</time></trkpt><trkpt lat="42.1579416" lon="14.6511684"><ele>54.0</ele><time>2026-04-26T10:23:42.178Z</time></trkpt><trkpt lat="42.1579483" lon="14.651001"><ele>54.0</ele><time>2026-04-26T10:23:43.199Z</time></trkpt><trkpt lat="42.1579614" lon="14.6508252"><ele>54.0</ele><time>2026-04-26T10:23:44.162Z</time></trkpt><trkpt lat="42.1579692" lon="14.6506818"><ele>51.0</ele><time>2026-04-26T10:23:45.215Z</time></trkpt><trkpt lat="42.1579776" lon="14.6505696"><ele>48.0</ele><time>2026-04-26T10:23:46.206Z</time></trkpt><trkpt lat="42.1579592" lon="14.6504491"><ele>45.0</ele><time>2026-04-26T10:23:48.225Z</time></trkpt><trkpt lat="42.1578939" lon="14.6504341"><ele>42.0</ele><time>2026-04-26T10:23:50.183Z</time></trkpt><trkpt lat="42.157811" lon="14.6504352"><ele>39.0</ele><time>2026-04-26T10:23:51.219Z</time></trkpt><trkpt lat="42.1576963" lon="14.6504428"><ele>36.0</ele><time>2026-04-26T10:23:52.23Z</time></trkpt><trkpt lat="42.1575726" lon="14.6504416"><ele>36.0</ele><time>2026-04-26T10:23:53.212Z</time></trkpt><trkpt lat="42.1574685" lon="14.6504517"><ele>36.0</ele><time>2026-04-26T10:23:54.205Z</time></trkpt><trkpt lat="42.1573921" lon="14.6504611"><ele>36.0</ele><time>2026-04-26T10:23:55.228Z</time></trkpt><trkpt lat="42.1573261" lon="14.6504912"><ele>36.0</ele><time>2026-04-26T10:23:56.206Z</time></trkpt><trkpt lat="42.1572574" lon="14.6505224"><ele>36.0</ele><time>2026-04-26T10:23:57.201Z</time></trkpt><trkpt lat="42.1571923" lon="14.6505105"><ele>36.0</ele><time>2026-04-26T10:24:11.214Z</time></trkpt><trkpt lat="42.1570601" lon="14.6504991"><ele>36.25</ele><time>2026-04-26T10:24:13.184Z</time></trkpt><trkpt lat="42.1569348" lon="14.6505112"><ele>36.5</ele><time>2026-04-26T10:24:14.167Z</time></trkpt><trkpt lat="42.1568216" lon="14.6505366"><ele>36.75</ele><time>2026-04-26T10:24:15.224Z</time></trkpt><trkpt lat="42.156719" lon="14.6505488"><ele>37.0</ele><time>2026-04-26T10:24:16.223Z</time></trkpt><trkpt lat="42.1565999" lon="14.6505547"><ele>36.5</ele><time>2026-04-26T10:24:17.216Z</time></trkpt><trkpt lat="42.1564717" lon="14.6505624"><ele>36.0</ele><time>2026-04-26T10:24:18.216Z</time></trkpt><trkpt lat="42.1563635" lon="14.6505684"><ele>35.5</ele><time>2026-04-26T10:24:19.208Z</time></trkpt><trkpt lat="42.1562615" lon="14.6505773"><ele>35.0</ele><time>2026-04-26T10:24:20.238Z</time></trkpt><trkpt lat="42.1561325" lon="14.6505923"><ele>35.0</ele><time>2026-04-26T10:24:21.206Z</time></trkpt><trkpt lat="42.1559812" lon="14.6506085"><ele>35.0</ele><time>2026-04-26T10:24:22.205Z</time></trkpt><trkpt lat="42.1558438" lon="14.6506145"><ele>35.0</ele><time>2026-04-26T10:24:23.207Z</time></trkpt><trkpt lat="42.1557346" lon="14.6506138"><ele>35.0</ele><time>2026-04-26T10:24:24.203Z</time></trkpt><trkpt lat="42.1556309" lon="14.6506018"><ele>35.5</ele><time>2026-04-26T10:24:25.193Z</time></trkpt><trkpt lat="42.1555036" lon="14.6506051"><ele>36.0</ele><time>2026-04-26T10:24:26.207Z</time></trkpt><trkpt lat="42.1553618" lon="14.6506154"><ele>36.5</ele><time>2026-04-26T10:24:27.187Z</time></trkpt><trkpt lat="42.1552031" lon="14.6506309"><ele>37.0</ele><time>2026-04-26T10:24:28.172Z</time></trkpt><trkpt lat="42.1550516" lon="14.6506455"><ele>37.0</ele><time>2026-04-26T10:24:29.221Z</time></trkpt><trkpt lat="42.154905" lon="14.6506592"><ele>37.0</ele><time>2026-04-26T10:24:30.217Z</time></trkpt><trkpt lat="42.1547652" lon="14.6506724"><ele>37.0</ele><time>2026-04-26T10:24:31.211Z</time></trkpt><trkpt lat="42.1546241" lon="14.6506989"><ele>37.0</ele><time>2026-04-26T10:24:32.187Z</time></trkpt><trkpt lat="42.1545023" lon="14.6507368"><ele>37.2</ele><time>2026-04-26T10:24:33.227Z</time></trkpt><trkpt lat="42.1543843" lon="14.6507796"><ele>37.400000000000006</ele><time>2026-04-26T10:24:34.159Z</time></trkpt><trkpt lat="42.1542756" lon="14.6508299"><ele>37.599999999999994</ele><time>2026-04-26T10:24:35.217Z</time></trkpt><trkpt lat="42.154207" lon="14.6508706"><ele>37.8</ele><time>2026-04-26T10:24:36.208Z</time></trkpt><trkpt lat="42.1541332" lon="14.6509526"><ele>38.0</ele><time>2026-04-26T10:24:39.185Z</time></trkpt><trkpt lat="42.1540068" lon="14.6510259"><ele>38.0</ele><time>2026-04-26T10:24:41.219Z</time></trkpt><trkpt lat="42.1539182" lon="14.6510497"><ele>38.0</ele><time>2026-04-26T10:24:42.181Z</time></trkpt><trkpt lat="42.1538392" lon="14.6510511"><ele>38.0</ele><time>2026-04-26T10:24:43.178Z</time></trkpt><trkpt lat="42.153773" lon="14.6510477"><ele>38.0</ele><time>2026-04-26T10:24:44.228Z</time></trkpt><trkpt lat="42.1536669" lon="14.6511498"><ele>38.0</ele><time>2026-04-26T10:24:46.208Z</time></trkpt><trkpt lat="42.1536102" lon="14.6512438"><ele>39.25</ele><time>2026-04-26T10:24:47.212Z</time></trkpt><trkpt lat="42.1535473" lon="14.6513378"><ele>40.5</ele><time>2026-04-26T10:24:48.221Z</time></trkpt><trkpt lat="42.1534468" lon="14.6514549"><ele>41.75</ele><time>2026-04-26T10:24:49.186Z</time></trkpt><trkpt lat="42.1533192" lon="14.6515949"><ele>43.0</ele><time>2026-04-26T10:24:50.173Z</time></trkpt><trkpt lat="42.1531741" lon="14.6517421"><ele>43.0</ele><time>2026-04-26T10:24:51.204Z</time></trkpt><trkpt lat="42.1530118" lon="14.6518879"><ele>43.0</ele><time>2026-04-26T10:24:52.22Z</time></trkpt><trkpt lat="42.1528375" lon="14.6520521"><ele>43.0</ele><time>2026-04-26T10:24:53.217Z</time></trkpt><trkpt lat="42.1526717" lon="14.6522169"><ele>44.599999999999994</ele><time>2026-04-26T10:24:54.164Z</time></trkpt><trkpt lat="42.1525529" lon="14.6523329"><ele>46.199999999999996</ele><time>2026-04-26T10:24:55.219Z</time></trkpt><trkpt lat="42.1524772" lon="14.6524032"><ele>47.8</ele><time>2026-04-26T10:24:56.235Z</time></trkpt><trkpt lat="42.1524056" lon="14.6524375"><ele>49.4</ele><time>2026-04-26T10:24:59.184Z</time></trkpt><trkpt lat="42.1523881" lon="14.6523478"><ele>51.0</ele><time>2026-04-26T10:25:01.179Z</time></trkpt><trkpt lat="42.1521472" lon="14.6519975"><ele>51.0</ele><time>2026-04-26T10:25:06.209Z</time></trkpt><trkpt lat="42.152137" lon="14.6518732"><ele>51.0</ele><time>2026-04-26T10:25:07.189Z</time></trkpt><trkpt lat="42.1520361" lon="14.6519483"><ele>51.0</ele><time>2026-04-26T10:25:10.197Z</time></trkpt><trkpt lat="42.1519441" lon="14.6520044"><ele>51.0</ele><time>2026-04-26T10:25:11.154Z</time></trkpt><trkpt lat="42.1518275" lon="14.6520801"><ele>51.0</ele><time>2026-04-26T10:25:12.187Z</time></trkpt><trkpt lat="42.1517031" lon="14.6521717"><ele>51.0</ele><time>2026-04-26T10:25:13.173Z</time></trkpt><trkpt lat="42.1515572" lon="14.6522944"><ele>51.0</ele><time>2026-04-26T10:25:14.221Z</time></trkpt><trkpt lat="42.1514051" lon="14.652437"><ele>51.0</ele><time>2026-04-26T10:25:15.21Z</time></trkpt><trkpt lat="42.1512371" lon="14.6525681"><ele>50.66666666666667</ele><time>2026-04-26T10:25:16.17Z</time></trkpt><trkpt lat="42.151051" lon="14.6527048"><ele>50.333333333333336</ele><time>2026-04-26T10:25:17.185Z</time></trkpt><trkpt lat="42.1508571" lon="14.6528256"><ele>50.0</ele><time>2026-04-26T10:25:18.201Z</time></trkpt><trkpt lat="42.1506835" lon="14.6529184"><ele>52.333333333333336</ele><time>2026-04-26T10:25:19.201Z</time></trkpt><trkpt lat="42.1505102" lon="14.6530087"><ele>54.66666666666667</ele><time>2026-04-26T10:25:20.212Z</time></trkpt><trkpt lat="42.1503225" lon="14.6531137"><ele>57.0</ele><time>2026-04-26T10:25:21.203Z</time></trkpt><trkpt lat="42.1501638" lon="14.6532062"><ele>57.0</ele><time>2026-04-26T10:25:22.175Z</time></trkpt><trkpt lat="42.1500204" lon="14.6532571"><ele>57.0</ele><time>2026-04-26T10:25:23.194Z</time></trkpt><trkpt lat="42.1498834" lon="14.6532927"><ele>57.0</ele><time>2026-04-26T10:25:24.214Z</time></trkpt><trkpt lat="42.1497464" lon="14.6533284"><ele>57.0</ele><time>2026-04-26T10:25:25.209Z</time></trkpt><trkpt lat="42.1496195" lon="14.6533712"><ele>56.25</ele><time>2026-04-26T10:25:26.21Z</time></trkpt><trkpt lat="42.1494905" lon="14.653412"><ele>55.5</ele><time>2026-04-26T10:25:27.22Z</time></trkpt><trkpt lat="42.1494067" lon="14.6534646"><ele>54.75</ele><time>2026-04-26T10:25:28.208Z</time></trkpt><trkpt lat="42.1493317" lon="14.6535537"><ele>54.0</ele><time>2026-04-26T10:25:29.205Z</time></trkpt><trkpt lat="42.1492393" lon="14.6536776"><ele>57.0</ele><time>2026-04-26T10:25:30.227Z</time></trkpt><trkpt lat="42.1491356" lon="14.6538081"><ele>60.0</ele><time>2026-04-26T10:25:31.209Z</time></trkpt><trkpt lat="42.1490397" lon="14.6539011"><ele>63.0</ele><time>2026-04-26T10:25:32.214Z</time></trkpt><trkpt lat="42.1489387" lon="14.6539776"><ele>66.0</ele><time>2026-04-26T10:25:33.233Z</time></trkpt><trkpt lat="42.1487964" lon="14.6540616"><ele>66.0</ele><time>2026-04-26T10:25:34.164Z</time></trkpt><trkpt lat="42.1486478" lon="14.6541516"><ele>66.0</ele><time>2026-04-26T10:25:35.23Z</time></trkpt><trkpt lat="42.148517" lon="14.654203"><ele>66.0</ele><time>2026-04-26T10:25:36.231Z</time></trkpt><trkpt lat="42.1484092" lon="14.6542332"><ele>66.0</ele><time>2026-04-26T10:25:37.199Z</time></trkpt><trkpt lat="42.1483248" lon="14.654265"><ele>66.0</ele><time>2026-04-26T10:25:38.197Z</time></trkpt><trkpt lat="42.1482268" lon="14.6543241"><ele>66.0</ele><time>2026-04-26T10:25:39.209Z</time></trkpt><trkpt lat="42.1481049" lon="14.6544253"><ele>66.0</ele><time>2026-04-26T10:25:40.219Z</time></trkpt><trkpt lat="42.1479751" lon="14.6545288"><ele>66.0</ele><time>2026-04-26T10:25:41.192Z</time></trkpt><trkpt lat="42.1478352" lon="14.6546172"><ele>68.25</ele><time>2026-04-26T10:25:42.187Z</time></trkpt><trkpt lat="42.1477108" lon="14.6546852"><ele>70.5</ele><time>2026-04-26T10:25:43.238Z</time></trkpt><trkpt lat="42.1475868" lon="14.6547615"><ele>72.75</ele><time>2026-04-26T10:25:44.18Z</time></trkpt><trkpt lat="42.1474621" lon="14.6548333"><ele>75.0</ele><time>2026-04-26T10:25:45.189Z</time></trkpt><trkpt lat="42.1473299" lon="14.6549194"><ele>75.0</ele><time>2026-04-26T10:25:46.223Z</time></trkpt><trkpt lat="42.1471869" lon="14.6550072"><ele>75.0</ele><time>2026-04-26T10:25:47.227Z</time></trkpt><trkpt lat="42.1470582" lon="14.6550871"><ele>75.0</ele><time>2026-04-26T10:25:48.217Z</time></trkpt><trkpt lat="42.146938" lon="14.6551653"><ele>75.0</ele><time>2026-04-26T10:25:49.191Z</time></trkpt><trkpt lat="42.1468123" lon="14.6552451"><ele>77.66666666666667</ele><time>2026-04-26T10:25:50.209Z</time></trkpt><trkpt lat="42.1466772" lon="14.6553244"><ele>80.33333333333334</ele><time>2026-04-26T10:25:51.204Z</time></trkpt><trkpt lat="42.1465146" lon="14.6554176"><ele>83.0</ele><time>2026-04-26T10:25:52.226Z</time></trkpt><trkpt lat="42.1463547" lon="14.6555026"><ele>83.0</ele><time>2026-04-26T10:25:53.158Z</time></trkpt><trkpt lat="42.1462314" lon="14.655565"><ele>83.0</ele><time>2026-04-26T10:25:54.17Z</time></trkpt><trkpt lat="42.1461304" lon="14.6556082"><ele>83.0</ele><time>2026-04-26T10:25:55.229Z</time></trkpt><trkpt lat="42.1460328" lon="14.6556375"><ele>83.0</ele><time>2026-04-26T10:25:56.232Z</time></trkpt><trkpt lat="42.1459119" lon="14.6556616"><ele>83.0</ele><time>2026-04-26T10:25:57.179Z</time></trkpt><trkpt lat="42.1457897" lon="14.655678"><ele>83.0</ele><time>2026-04-26T10:25:58.228Z</time></trkpt><trkpt lat="42.1456781" lon="14.6556823"><ele>83.0</ele><time>2026-04-26T10:25:59.236Z</time></trkpt><trkpt lat="42.1455529" lon="14.6557117"><ele>83.0</ele><time>2026-04-26T10:26:00.217Z</time></trkpt><trkpt lat="42.145465" lon="14.6557384"><ele>82.60000000000001</ele><time>2026-04-26T10:26:01.204Z</time></trkpt><trkpt lat="42.1454" lon="14.655761"><ele>82.2</ele><time>2026-04-26T10:26:02.219Z</time></trkpt><trkpt lat="42.1453241" lon="14.6558011"><ele>81.8</ele><time>2026-04-26T10:26:03.162Z</time></trkpt><trkpt lat="42.1452245" lon="14.6558583"><ele>81.4</ele><time>2026-04-26T10:26:04.216Z</time></trkpt><trkpt lat="42.1451032" lon="14.6559181"><ele>81.0</ele><time>2026-04-26T10:26:05.228Z</time></trkpt><trkpt lat="42.1449735" lon="14.6559584"><ele>81.0</ele><time>2026-04-26T10:26:06.201Z</time></trkpt><trkpt lat="42.1448267" lon="14.6559805"><ele>81.0</ele><time>2026-04-26T10:26:07.199Z</time></trkpt><trkpt lat="42.1447113" lon="14.6559933"><ele>81.0</ele><time>2026-04-26T10:26:08.215Z</time></trkpt><trkpt lat="42.1446469" lon="14.6559845"><ele>81.0</ele><time>2026-04-26T10:26:09.191Z</time></trkpt><trkpt lat="42.1445735" lon="14.655976"><ele>81.0</ele><time>2026-04-26T10:26:10.215Z</time></trkpt><trkpt lat="42.1444845" lon="14.6559599"><ele>81.0</ele><time>2026-04-26T10:26:11.215Z</time></trkpt><trkpt lat="42.1443886" lon="14.6559585"><ele>81.0</ele><time>2026-04-26T10:26:12.182Z</time></trkpt><trkpt lat="42.14429" lon="14.6559673"><ele>81.0</ele><time>2026-04-26T10:26:13.209Z</time></trkpt><trkpt lat="42.1442029" lon="14.6559872"><ele>81.0</ele><time>2026-04-26T10:26:14.228Z</time></trkpt><trkpt lat="42.1441173" lon="14.6560131"><ele>81.0</ele><time>2026-04-26T10:26:15.2Z</time></trkpt><trkpt lat="42.1440215" lon="14.6560593"><ele>84.75</ele><time>2026-04-26T10:26:16.225Z</time></trkpt><trkpt lat="42.1439157" lon="14.6561347"><ele>88.5</ele><time>2026-04-26T10:26:17.199Z</time></trkpt><trkpt lat="42.1438078" lon="14.6562397"><ele>92.25</ele><time>2026-04-26T10:26:18.227Z</time></trkpt><trkpt lat="42.1436903" lon="14.6563547"><ele>96.0</ele><time>2026-04-26T10:26:19.227Z</time></trkpt><trkpt lat="42.1435663" lon="14.6564868"><ele>96.0</ele><time>2026-04-26T10:26:20.213Z</time></trkpt><trkpt lat="42.1434689" lon="14.6565909"><ele>96.0</ele><time>2026-04-26T10:26:21.212Z</time></trkpt><trkpt lat="42.1434096" lon="14.6566419"><ele>96.0</ele><time>2026-04-26T10:26:22.233Z</time></trkpt><trkpt lat="42.143351" lon="14.6566787"><ele>96.0</ele><time>2026-04-26T10:26:25.19Z</time></trkpt><trkpt lat="42.1433984" lon="14.6566225"><ele>96.0</ele><time>2026-04-26T10:26:40.217Z</time></trkpt><trkpt lat="42.1434666" lon="14.6565789"><ele>96.0</ele><time>2026-04-26T10:26:55.211Z</time></trkpt><trkpt lat="42.1435417" lon="14.6565442"><ele>96.0</ele><time>2026-04-26T10:26:58.196Z</time></trkpt><trkpt lat="42.1436103" lon="14.6564951"><ele>96.0</ele><time>2026-04-26T10:27:01.194Z</time></trkpt><trkpt lat="42.1436601" lon="14.656623"><ele>96.0</ele><time>2026-04-26T10:27:04.159Z</time></trkpt><trkpt lat="42.1436825" lon="14.6567352"><ele>96.0</ele><time>2026-04-26T10:27:05.205Z</time></trkpt><trkpt lat="42.1438287" lon="14.6570681"><ele>98.0</ele><time>2026-04-26T10:27:09.22Z</time></trkpt><trkpt lat="42.1439645" lon="14.657125"><ele>100.0</ele><time>2026-04-26T10:27:11.203Z</time></trkpt><trkpt lat="42.1440416" lon="14.657131"><ele>102.0</ele><time>2026-04-26T10:27:12.164Z</time></trkpt><trkpt lat="42.1441165" lon="14.6571328"><ele>104.0</ele><time>2026-04-26T10:27:13.192Z</time></trkpt><trkpt lat="42.1442431" lon="14.6571315"><ele>106.0</ele><time>2026-04-26T10:27:15.201Z</time></trkpt><trkpt lat="42.1443188" lon="14.657143"><ele>106.00000000000001</ele><time>2026-04-26T10:27:16.209Z</time></trkpt><trkpt lat="42.1443948" lon="14.6571659"><ele>106.0</ele><time>2026-04-26T10:27:17.188Z</time></trkpt><trkpt lat="42.1444591" lon="14.6572133"><ele>106.0</ele><time>2026-04-26T10:27:18.191Z</time></trkpt><trkpt lat="42.144522" lon="14.6572871"><ele>106.0</ele><time>2026-04-26T10:27:19.185Z</time></trkpt><trkpt lat="42.1445893" lon="14.6573788"><ele>106.00000000000001</ele><time>2026-04-26T10:27:20.215Z</time></trkpt><trkpt lat="42.144653" lon="14.6574728"><ele>106.0</ele><time>2026-04-26T10:27:21.207Z</time></trkpt><trkpt lat="42.1447205" lon="14.6575559"><ele>106.00000000000001</ele><time>2026-04-26T10:27:22.208Z</time></trkpt><trkpt lat="42.144774" lon="14.6576476"><ele>106.0</ele><time>2026-04-26T10:27:23.216Z</time></trkpt><trkpt lat="42.1448265" lon="14.6577518"><ele>106.0</ele><time>2026-04-26T10:27:24.175Z</time></trkpt><trkpt lat="42.1448723" lon="14.6578291"><ele>106.0</ele><time>2026-04-26T10:27:25.221Z</time></trkpt><trkpt lat="42.144935" lon="14.6578721"><ele>106.00000000000001</ele><time>2026-04-26T10:27:26.193Z</time></trkpt><trkpt lat="42.1450034" lon="14.6579092"><ele>106.0</ele><time>2026-04-26T10:27:27.188Z</time></trkpt><trkpt lat="42.1450859" lon="14.6579399"><ele>108.66666666666667</ele><time>2026-04-26T10:27:28.204Z</time></trkpt><trkpt lat="42.1451781" lon="14.6579891"><ele>111.33333333333334</ele><time>2026-04-26T10:27:29.188Z</time></trkpt><trkpt lat="42.1452599" lon="14.6580217"><ele>114.0</ele><time>2026-04-26T10:27:30.16Z</time></trkpt><trkpt lat="42.1453359" lon="14.6580382"><ele>116.66666666666666</ele><time>2026-04-26T10:27:31.223Z</time></trkpt><trkpt lat="42.1454145" lon="14.6580565"><ele>119.33333333333333</ele><time>2026-04-26T10:27:32.197Z</time></trkpt><trkpt lat="42.1455063" lon="14.6580738"><ele>122.0</ele><time>2026-04-26T10:27:33.192Z</time></trkpt><trkpt lat="42.1456104" lon="14.6581008"><ele>122.25</ele><time>2026-04-26T10:27:34.196Z</time></trkpt><trkpt lat="42.1457125" lon="14.6581063"><ele>122.5</ele><time>2026-04-26T10:27:35.23Z</time></trkpt><trkpt lat="42.1458589" lon="14.6580858"><ele>122.75</ele><time>2026-04-26T10:27:36.205Z</time></trkpt><trkpt lat="42.1460235" lon="14.6580626"><ele>123.0</ele><time>2026-04-26T10:27:37.211Z</time></trkpt><trkpt lat="42.1461674" lon="14.6580517"><ele>123.0</ele><time>2026-04-26T10:27:38.196Z</time></trkpt><trkpt lat="42.146298" lon="14.6580448"><ele>123.0</ele><time>2026-04-26T10:27:39.181Z</time></trkpt><trkpt lat="42.1464156" lon="14.6580528"><ele>123.0</ele><time>2026-04-26T10:27:40.204Z</time></trkpt><trkpt lat="42.1465216" lon="14.6580411"><ele>123.0</ele><time>2026-04-26T10:27:41.186Z</time></trkpt><trkpt lat="42.1466231" lon="14.6580466"><ele>124.16666666666667</ele><time>2026-04-26T10:27:42.202Z</time></trkpt><trkpt lat="42.1466878" lon="14.6580621"><ele>125.33333333333334</ele><time>2026-04-26T10:27:43.192Z</time></trkpt><trkpt lat="42.1467922" lon="14.6581268"><ele>126.5</ele><time>2026-04-26T10:27:45.212Z</time></trkpt><trkpt lat="42.1468261" lon="14.6582095"><ele>127.66666666666667</ele><time>2026-04-26T10:27:46.164Z</time></trkpt><trkpt lat="42.1468319" lon="14.6583153"><ele>128.83333333333334</ele><time>2026-04-26T10:27:47.165Z</time></trkpt><trkpt lat="42.146811" lon="14.6584167"><ele>130.0</ele><time>2026-04-26T10:27:48.217Z</time></trkpt><trkpt lat="42.1467711" lon="14.6585076"><ele>130.00000000000003</ele><time>2026-04-26T10:27:49.216Z</time></trkpt><trkpt lat="42.1467321" lon="14.6585998"><ele>130.0</ele><time>2026-04-26T10:27:50.201Z</time></trkpt><trkpt lat="42.1467046" lon="14.6586847"><ele>130.0</ele><time>2026-04-26T10:27:51.21Z</time></trkpt><trkpt lat="42.1466916" lon="14.6587691"><ele>130.0</ele><time>2026-04-26T10:27:52.187Z</time></trkpt><trkpt lat="42.146675" lon="14.6588628"><ele>130.0</ele><time>2026-04-26T10:27:54.221Z</time></trkpt><trkpt lat="42.1466326" lon="14.6589558"><ele>130.00000000000003</ele><time>2026-04-26T10:28:04.186Z</time></trkpt><trkpt lat="42.1466065" lon="14.659058"><ele>130.0</ele><time>2026-04-26T10:28:05.213Z</time></trkpt><trkpt lat="42.146597" lon="14.659198"><ele>130.33333333333334</ele><time>2026-04-26T10:28:06.221Z</time></trkpt><trkpt lat="42.1465836" lon="14.6593853"><ele>130.66666666666666</ele><time>2026-04-26T10:28:07.191Z</time></trkpt><trkpt lat="42.1465785" lon="14.6596086"><ele>131.0</ele><time>2026-04-26T10:28:08.23Z</time></trkpt><trkpt lat="42.1465747" lon="14.6598637"><ele>131.0</ele><time>2026-04-26T10:28:09.241Z</time></trkpt><trkpt lat="42.1465694" lon="14.6601405"><ele>131.0</ele><time>2026-04-26T10:28:10.215Z</time></trkpt><trkpt lat="42.1465688" lon="14.660399"><ele>131.0</ele><time>2026-04-26T10:28:11.204Z</time></trkpt><trkpt lat="42.1465788" lon="14.6606366"><ele>131.0</ele><time>2026-04-26T10:28:12.206Z</time></trkpt><trkpt lat="42.146573" lon="14.6608479"><ele>131.0</ele><time>2026-04-26T10:28:13.226Z</time></trkpt><trkpt lat="42.1465344" lon="14.6610413"><ele>131.0</ele><time>2026-04-26T10:28:14.219Z</time></trkpt><trkpt lat="42.146479" lon="14.6612488"><ele>130.0</ele><time>2026-04-26T10:28:15.245Z</time></trkpt><trkpt lat="42.1464044" lon="14.6614526"><ele>129.0</ele><time>2026-04-26T10:28:16.229Z</time></trkpt><trkpt lat="42.1463353" lon="14.661671"><ele>128.0</ele><time>2026-04-26T10:28:17.215Z</time></trkpt><trkpt lat="42.1462681" lon="14.6619071"><ele>126.33333333333333</ele><time>2026-04-26T10:28:18.222Z</time></trkpt><trkpt lat="42.1462101" lon="14.6621551"><ele>124.66666666666666</ele><time>2026-04-26T10:28:19.169Z</time></trkpt><trkpt lat="42.1461502" lon="14.6624041"><ele>123.0</ele><time>2026-04-26T10:28:20.222Z</time></trkpt><trkpt lat="42.1460826" lon="14.6626492"><ele>122.66666666666666</ele><time>2026-04-26T10:28:21.22Z</time></trkpt><trkpt lat="42.1460138" lon="14.6628792"><ele>122.33333333333333</ele><time>2026-04-26T10:28:22.194Z</time></trkpt><trkpt lat="42.1459531" lon="14.6631083"><ele>122.0</ele><time>2026-04-26T10:28:23.233Z</time></trkpt><trkpt lat="42.1459033" lon="14.6633178"><ele>122.0</ele><time>2026-04-26T10:28:24.225Z</time></trkpt><trkpt lat="42.1458611" lon="14.6635138"><ele>122.0</ele><time>2026-04-26T10:28:25.184Z</time></trkpt><trkpt lat="42.1458121" lon="14.6637068"><ele>122.0</ele><time>2026-04-26T10:28:26.205Z</time></trkpt><trkpt lat="42.1457657" lon="14.6638993"><ele>124.0</ele><time>2026-04-26T10:28:27.221Z</time></trkpt><trkpt lat="42.1457208" lon="14.6640977"><ele>126.0</ele><time>2026-04-26T10:28:28.233Z</time></trkpt><trkpt lat="42.1456735" lon="14.664301"><ele>128.0</ele><time>2026-04-26T10:28:29.208Z</time></trkpt><trkpt lat="42.1456187" lon="14.6645069"><ele>128.33333333333331</ele><time>2026-04-26T10:28:30.24Z</time></trkpt><trkpt lat="42.1455601" lon="14.6647137"><ele>128.66666666666666</ele><time>2026-04-26T10:28:31.217Z</time></trkpt><trkpt lat="42.1455047" lon="14.6649112"><ele>129.0</ele><time>2026-04-26T10:28:32.177Z</time></trkpt><trkpt lat="42.1454575" lon="14.6650987"><ele>129.0</ele><time>2026-04-26T10:28:33.226Z</time></trkpt><trkpt lat="42.1454308" lon="14.6652758"><ele>129.0</ele><time>2026-04-26T10:28:34.224Z</time></trkpt><trkpt lat="42.1454356" lon="14.6654539"><ele>129.0</ele><time>2026-04-26T10:28:35.224Z</time></trkpt><trkpt lat="42.1454839" lon="14.6656339"><ele>129.0</ele><time>2026-04-26T10:28:36.227Z</time></trkpt><trkpt lat="42.1455476" lon="14.6657965"><ele>128.5</ele><time>2026-04-26T10:28:37.214Z</time></trkpt><trkpt lat="42.1456137" lon="14.665968"><ele>128.0</ele><time>2026-04-26T10:28:38.193Z</time></trkpt><trkpt lat="42.1456764" lon="14.6661401"><ele>127.5</ele><time>2026-04-26T10:28:39.215Z</time></trkpt><trkpt lat="42.1457315" lon="14.6663207"><ele>127.0</ele><time>2026-04-26T10:28:40.197Z</time></trkpt><trkpt lat="42.1457893" lon="14.6664984"><ele>126.25</ele><time>2026-04-26T10:28:41.173Z</time></trkpt><trkpt lat="42.1458491" lon="14.666678"><ele>125.5</ele><time>2026-04-26T10:28:42.185Z</time></trkpt><trkpt lat="42.1459069" lon="14.6668636"><ele>124.75</ele><time>2026-04-26T10:28:43.227Z</time></trkpt><trkpt lat="42.1459651" lon="14.6670521"><ele>124.0</ele><time>2026-04-26T10:28:44.223Z</time></trkpt><trkpt lat="42.1460286" lon="14.6672531"><ele>122.66666666666667</ele><time>2026-04-26T10:28:45.229Z</time></trkpt><trkpt lat="42.1460864" lon="14.6674488"><ele>121.33333333333334</ele><time>2026-04-26T10:28:46.212Z</time></trkpt><trkpt lat="42.1461487" lon="14.6676511"><ele>120.0</ele><time>2026-04-26T10:28:47.215Z</time></trkpt><trkpt lat="42.1462082" lon="14.6678579"><ele>118.66666666666666</ele><time>2026-04-26T10:28:48.173Z</time></trkpt><trkpt lat="42.1462783" lon="14.668057"><ele>117.33333333333333</ele><time>2026-04-26T10:28:49.211Z</time></trkpt><trkpt lat="42.1463601" lon="14.6682512"><ele>116.0</ele><time>2026-04-26T10:28:50.216Z</time></trkpt><trkpt lat="42.1464523" lon="14.6684345"><ele>117.0</ele><time>2026-04-26T10:28:51.208Z</time></trkpt><trkpt lat="42.1465459" lon="14.6686167"><ele>118.0</ele><time>2026-04-26T10:28:52.17Z</time></trkpt><trkpt lat="42.1466401" lon="14.6688007"><ele>119.0</ele><time>2026-04-26T10:28:53.172Z</time></trkpt><trkpt lat="42.1467353" lon="14.6689771"><ele>119.0</ele><time>2026-04-26T10:28:54.217Z</time></trkpt><trkpt lat="42.1468202" lon="14.6691367"><ele>119.0</ele><time>2026-04-26T10:28:55.229Z</time></trkpt><trkpt lat="42.1469093" lon="14.6692923"><ele>119.0</ele><time>2026-04-26T10:28:56.219Z</time></trkpt><trkpt lat="42.1470204" lon="14.6694184"><ele>119.0</ele><time>2026-04-26T10:28:57.215Z</time></trkpt><trkpt lat="42.1471442" lon="14.669495"><ele>119.0</ele><time>2026-04-26T10:28:58.172Z</time></trkpt><trkpt lat="42.147295" lon="14.6695525"><ele>119.0</ele><time>2026-04-26T10:28:59.188Z</time></trkpt><trkpt lat="42.14745" lon="14.669625"><ele>119.0</ele><time>2026-04-26T10:29:00.226Z</time></trkpt><trkpt lat="42.1476176" lon="14.6697076"><ele>118.66666666666666</ele><time>2026-04-26T10:29:01.225Z</time></trkpt><trkpt lat="42.1477958" lon="14.6697672"><ele>118.33333333333334</ele><time>2026-04-26T10:29:02.2Z</time></trkpt><trkpt lat="42.1479865" lon="14.6698232"><ele>118.0</ele><time>2026-04-26T10:29:03.202Z</time></trkpt><trkpt lat="42.1481825" lon="14.669872"><ele>117.0</ele><time>2026-04-26T10:29:04.215Z</time></trkpt><trkpt lat="42.1483693" lon="14.6699124"><ele>116.0</ele><time>2026-04-26T10:29:05.23Z</time></trkpt><trkpt lat="42.1485514" lon="14.6699252"><ele>115.0</ele><time>2026-04-26T10:29:06.22Z</time></trkpt><trkpt lat="42.1487428" lon="14.6699063"><ele>115.0</ele><time>2026-04-26T10:29:07.197Z</time></trkpt><trkpt lat="42.1489209" lon="14.6698644"><ele>115.0</ele><time>2026-04-26T10:29:08.204Z</time></trkpt><trkpt lat="42.1490774" lon="14.6698121"><ele>115.0</ele><time>2026-04-26T10:29:09.163Z</time></trkpt><trkpt lat="42.1492132" lon="14.6697733"><ele>114.50000000000001</ele><time>2026-04-26T10:29:10.224Z</time></trkpt><trkpt lat="42.1493187" lon="14.669746"><ele>114.0</ele><time>2026-04-26T10:29:11.209Z</time></trkpt><trkpt lat="42.1493973" lon="14.6697439"><ele>113.5</ele><time>2026-04-26T10:29:12.203Z</time></trkpt><trkpt lat="42.1494668" lon="14.6697963"><ele>113.0</ele><time>2026-04-26T10:29:13.218Z</time></trkpt><trkpt lat="42.1494987" lon="14.6698862"><ele>112.50000000000001</ele><time>2026-04-26T10:29:14.215Z</time></trkpt><trkpt lat="42.1495124" lon="14.6700021"><ele>112.0</ele><time>2026-04-26T10:29:15.192Z</time></trkpt><trkpt lat="42.1494918" lon="14.6701426"><ele>111.66666666666667</ele><time>2026-04-26T10:29:16.222Z</time></trkpt><trkpt lat="42.1494584" lon="14.670326"><ele>111.33333333333334</ele><time>2026-04-26T10:29:17.255Z</time></trkpt><trkpt lat="42.149418" lon="14.6705295"><ele>111.0</ele><time>2026-04-26T10:29:18.225Z</time></trkpt><trkpt lat="42.1493845" lon="14.6707823"><ele>111.0</ele><time>2026-04-26T10:29:19.236Z</time></trkpt><trkpt lat="42.1493375" lon="14.6710647"><ele>111.0</ele><time>2026-04-26T10:29:20.212Z</time></trkpt><trkpt lat="42.1492918" lon="14.6713673"><ele>111.0</ele><time>2026-04-26T10:29:21.224Z</time></trkpt><trkpt lat="42.1492445" lon="14.6716391"><ele>111.0</ele><time>2026-04-26T10:29:22.184Z</time></trkpt><trkpt lat="42.1492054" lon="14.671879"><ele>111.0</ele><time>2026-04-26T10:29:23.243Z</time></trkpt><trkpt lat="42.1491786" lon="14.6720939"><ele>111.0</ele><time>2026-04-26T10:29:24.211Z</time></trkpt><trkpt lat="42.1491616" lon="14.6722525"><ele>110.6</ele><time>2026-04-26T10:29:25.235Z</time></trkpt><trkpt lat="42.1491431" lon="14.6723729"><ele>110.19999999999999</ele><time>2026-04-26T10:29:26.174Z</time></trkpt><trkpt lat="42.1491245" lon="14.6724941"><ele>109.80000000000001</ele><time>2026-04-26T10:29:27.231Z</time></trkpt><trkpt lat="42.149089" lon="14.6726156"><ele>109.4</ele><time>2026-04-26T10:29:28.186Z</time></trkpt><trkpt lat="42.1490191" lon="14.6727533"><ele>109.0</ele><time>2026-04-26T10:29:29.185Z</time></trkpt><trkpt lat="42.1489481" lon="14.6728795"><ele>108.5</ele><time>2026-04-26T10:29:30.225Z</time></trkpt><trkpt lat="42.1488601" lon="14.6729763"><ele>108.0</ele><time>2026-04-26T10:29:31.191Z</time></trkpt><trkpt lat="42.1487418" lon="14.6730936"><ele>107.5</ele><time>2026-04-26T10:29:32.188Z</time></trkpt><trkpt lat="42.1486055" lon="14.6732553"><ele>107.0</ele><time>2026-04-26T10:29:33.191Z</time></trkpt><trkpt lat="42.1484651" lon="14.6734118"><ele>107.0</ele><time>2026-04-26T10:29:34.177Z</time></trkpt><trkpt lat="42.1483397" lon="14.6735744"><ele>107.0</ele><time>2026-04-26T10:29:35.184Z</time></trkpt><trkpt lat="42.1482126" lon="14.6737805"><ele>107.0</ele><time>2026-04-26T10:29:36.172Z</time></trkpt><trkpt lat="42.1480705" lon="14.673994"><ele>107.0</ele><time>2026-04-26T10:29:37.175Z</time></trkpt><trkpt lat="42.1479264" lon="14.6741718"><ele>107.0</ele><time>2026-04-26T10:29:38.177Z</time></trkpt><trkpt lat="42.1478051" lon="14.6743344"><ele>107.0</ele><time>2026-04-26T10:29:39.187Z</time></trkpt><trkpt lat="42.1477104" lon="14.6744788"><ele>105.75</ele><time>2026-04-26T10:29:40.191Z</time></trkpt><trkpt lat="42.1476117" lon="14.6746266"><ele>104.5</ele><time>2026-04-26T10:29:41.186Z</time></trkpt><trkpt lat="42.1475059" lon="14.6747721"><ele>103.25</ele><time>2026-04-26T10:29:42.178Z</time></trkpt><trkpt lat="42.147405" lon="14.6748913"><ele>102.0</ele><time>2026-04-26T10:29:43.165Z</time></trkpt><trkpt lat="42.1473418" lon="14.6749688"><ele>100.39999999999999</ele><time>2026-04-26T10:29:44.19Z</time></trkpt><trkpt lat="42.1472954" lon="14.6750715"><ele>98.8</ele><time>2026-04-26T10:29:51.18Z</time></trkpt><trkpt lat="42.1472746" lon="14.6751921"><ele>97.2</ele><time>2026-04-26T10:29:53.18Z</time></trkpt><trkpt lat="42.1472013" lon="14.6753257"><ele>95.6</ele><time>2026-04-26T10:29:56.173Z</time></trkpt><trkpt lat="42.1471152" lon="14.675424"><ele>94.0</ele><time>2026-04-26T10:29:58.192Z</time></trkpt><trkpt lat="42.1470268" lon="14.6754863"><ele>90.8</ele><time>2026-04-26T10:30:00.174Z</time></trkpt><trkpt lat="42.1469492" lon="14.6755654"><ele>87.60000000000001</ele><time>2026-04-26T10:30:02.183Z</time></trkpt><trkpt lat="42.1468823" lon="14.6757013"><ele>84.4</ele><time>2026-04-26T10:30:04.211Z</time></trkpt><trkpt lat="42.1468258" lon="14.6757683"><ele>81.2</ele><time>2026-04-26T10:30:05.214Z</time></trkpt><trkpt lat="42.1467584" lon="14.6758407"><ele>78.0</ele><time>2026-04-26T10:30:06.217Z</time></trkpt><trkpt lat="42.1467033" lon="14.6759113"><ele>78.0</ele><time>2026-04-26T10:30:07.228Z</time></trkpt><trkpt lat="42.146649" lon="14.6759791"><ele>78.0</ele><time>2026-04-26T10:30:08.167Z</time></trkpt><trkpt lat="42.1466041" lon="14.6760407"><ele>78.0</ele><time>2026-04-26T10:30:09.23Z</time></trkpt><trkpt lat="42.1465588" lon="14.6761074"><ele>78.0</ele><time>2026-04-26T10:30:10.219Z</time></trkpt><trkpt lat="42.1464866" lon="14.6762012"><ele>78.0</ele><time>2026-04-26T10:30:12.227Z</time></trkpt><trkpt lat="42.1465016" lon="14.6763493"><ele>78.0</ele><time>2026-04-26T10:30:17.212Z</time></trkpt><trkpt lat="42.1465879" lon="14.6765073"><ele>73.33333333333333</ele><time>2026-04-26T10:30:18.225Z</time></trkpt><trkpt lat="42.1466847" lon="14.6766935"><ele>68.66666666666666</ele><time>2026-04-26T10:30:19.215Z</time></trkpt><trkpt lat="42.1468093" lon="14.6769128"><ele>64.0</ele><time>2026-04-26T10:30:20.205Z</time></trkpt><trkpt lat="42.1469478" lon="14.6771605"><ele>61.33333333333333</ele><time>2026-04-26T10:30:21.227Z</time></trkpt><trkpt lat="42.1470761" lon="14.6773904"><ele>58.66666666666667</ele><time>2026-04-26T10:30:22.181Z</time></trkpt><trkpt lat="42.1471636" lon="14.6775556"><ele>56.0</ele><time>2026-04-26T10:30:23.201Z</time></trkpt><trkpt lat="42.1472284" lon="14.677676"><ele>56.00000000000001</ele><time>2026-04-26T10:30:24.236Z</time></trkpt><trkpt lat="42.1472649" lon="14.6777664"><ele>56.0</ele><time>2026-04-26T10:30:25.241Z</time></trkpt><trkpt lat="42.1472072" lon="14.6778722"><ele>56.0</ele><time>2026-04-26T10:30:29.2Z</time></trkpt><trkpt lat="42.1471451" lon="14.6779285"><ele>56.0</ele><time>2026-04-26T10:30:30.19Z</time></trkpt><trkpt lat="42.1470955" lon="14.6779927"><ele>56.00000000000001</ele><time>2026-04-26T10:30:31.212Z</time></trkpt><trkpt lat="42.1470752" lon="14.6780831"><ele>56.0</ele><time>2026-04-26T10:30:32.198Z</time></trkpt><trkpt lat="42.1470476" lon="14.6782148"><ele>55.8</ele><time>2026-04-26T10:30:33.207Z</time></trkpt><trkpt lat="42.1470068" lon="14.6783577"><ele>55.599999999999994</ele><time>2026-04-26T10:30:34.215Z</time></trkpt><trkpt lat="42.1469649" lon="14.6784551"><ele>55.4</ele><time>2026-04-26T10:30:35.223Z</time></trkpt><trkpt lat="42.1469122" lon="14.6785143"><ele>55.2</ele><time>2026-04-26T10:30:36.21Z</time></trkpt><trkpt lat="42.1468392" lon="14.6785834"><ele>55.0</ele><time>2026-04-26T10:30:38.169Z</time></trkpt><trkpt lat="42.1467539" lon="14.6785109"><ele>55.0</ele><time>2026-04-26T10:30:41.213Z</time></trkpt><trkpt lat="42.1466653" lon="14.6784592"><ele>55.0</ele><time>2026-04-26T10:30:43.245Z</time></trkpt><trkpt lat="42.1465588" lon="14.6785852"><ele>55.0</ele><time>2026-04-26T10:30:45.22Z</time></trkpt><trkpt lat="42.1464817" lon="14.6787074"><ele>55.0</ele><time>2026-04-26T10:30:46.209Z</time></trkpt><trkpt lat="42.1463928" lon="14.6788425"><ele>61.33333333333333</ele><time>2026-04-26T10:30:47.209Z</time></trkpt><trkpt lat="42.1462955" lon="14.6789877"><ele>67.66666666666667</ele><time>2026-04-26T10:30:48.21Z</time></trkpt><trkpt lat="42.146187" lon="14.6791459"><ele>74.0</ele><time>2026-04-26T10:30:49.218Z</time></trkpt><trkpt lat="42.1460676" lon="14.6793151"><ele>76.75</ele><time>2026-04-26T10:30:50.193Z</time></trkpt><trkpt lat="42.1459662" lon="14.6794564"><ele>79.5</ele><time>2026-04-26T10:30:51.212Z</time></trkpt><trkpt lat="42.145882" lon="14.6795694"><ele>82.25</ele><time>2026-04-26T10:30:52.201Z</time></trkpt><trkpt lat="42.1458058" lon="14.679668"><ele>85.0</ele><time>2026-04-26T10:30:53.237Z</time></trkpt><trkpt lat="42.1457428" lon="14.6797459"><ele>85.0</ele><time>2026-04-26T10:30:54.21Z</time></trkpt><trkpt lat="42.1457238" lon="14.6799351"><ele>85.0</ele><time>2026-04-26T10:30:56.201Z</time></trkpt><trkpt lat="42.1457322" lon="14.6800581"><ele>85.0</ele><time>2026-04-26T10:30:57.209Z</time></trkpt><trkpt lat="42.145766" lon="14.6801469"><ele>85.0</ele><time>2026-04-26T10:30:58.209Z</time></trkpt><trkpt lat="42.1458193" lon="14.6802557"><ele>85.0</ele><time>2026-04-26T10:30:59.209Z</time></trkpt><trkpt lat="42.1458616" lon="14.6803934"><ele>85.83333333333333</ele><time>2026-04-26T10:31:00.218Z</time></trkpt><trkpt lat="42.1458867" lon="14.6805123"><ele>86.66666666666666</ele><time>2026-04-26T10:31:01.223Z</time></trkpt><trkpt lat="42.1459117" lon="14.6806024"><ele>87.5</ele><time>2026-04-26T10:31:02.193Z</time></trkpt><trkpt lat="42.1459398" lon="14.6806842"><ele>88.33333333333333</ele><time>2026-04-26T10:31:03.213Z</time></trkpt><trkpt lat="42.1459903" lon="14.6807774"><ele>89.16666666666667</ele><time>2026-04-26T10:31:04.218Z</time></trkpt><trkpt lat="42.1460594" lon="14.68088"><ele>90.0</ele><time>2026-04-26T10:31:05.215Z</time></trkpt><trkpt lat="42.1461284" lon="14.6809558"><ele>90.0</ele><time>2026-04-26T10:31:06.206Z</time></trkpt><trkpt lat="42.1462066" lon="14.6810201"><ele>90.0</ele><time>2026-04-26T10:31:08.206Z</time></trkpt><trkpt lat="42.1462275" lon="14.6811684"><ele>90.0</ele><time>2026-04-26T10:31:10.19Z</time></trkpt><trkpt lat="42.1462257" lon="14.6813022"><ele>90.0</ele><time>2026-04-26T10:31:11.198Z</time></trkpt><trkpt lat="42.1462288" lon="14.6814466"><ele>90.0</ele><time>2026-04-26T10:31:12.218Z</time></trkpt><trkpt lat="42.1462246" lon="14.6815497"><ele>90.0</ele><time>2026-04-26T10:31:13.239Z</time></trkpt><trkpt lat="42.146238" lon="14.681695"><ele>90.0</ele><time>2026-04-26T10:31:15.166Z</time></trkpt><trkpt lat="42.1462914" lon="14.6817931"><ele>90.0</ele><time>2026-04-26T10:31:17.239Z</time></trkpt><trkpt lat="42.1462267" lon="14.6819314"><ele>90.0</ele><time>2026-04-26T10:31:19.167Z</time></trkpt><trkpt lat="42.1461843" lon="14.6820547"><ele>90.0</ele><time>2026-04-26T10:31:20.215Z</time></trkpt><trkpt lat="42.146152" lon="14.6821919"><ele>90.0</ele><time>2026-04-26T10:31:21.219Z</time></trkpt><trkpt lat="42.1461309" lon="14.6823619"><ele>90.0</ele><time>2026-04-26T10:31:22.186Z</time></trkpt><trkpt lat="42.1461063" lon="14.6825323"><ele>90.0</ele><time>2026-04-26T10:31:23.212Z</time></trkpt><trkpt lat="42.1460957" lon="14.6827281"><ele>90.0</ele><time>2026-04-26T10:31:24.224Z</time></trkpt><trkpt lat="42.1460927" lon="14.6829858"><ele>90.0</ele><time>2026-04-26T10:31:25.215Z</time></trkpt><trkpt lat="42.1460794" lon="14.6832359"><ele>90.0</ele><time>2026-04-26T10:31:26.173Z</time></trkpt><trkpt lat="42.1460637" lon="14.683454"><ele>90.0</ele><time>2026-04-26T10:31:27.168Z</time></trkpt><trkpt lat="42.1460263" lon="14.6836478"><ele>89.75</ele><time>2026-04-26T10:31:28.175Z</time></trkpt><trkpt lat="42.1459982" lon="14.6838262"><ele>89.5</ele><time>2026-04-26T10:31:29.225Z</time></trkpt><trkpt lat="42.145983" lon="14.6839792"><ele>89.25</ele><time>2026-04-26T10:31:30.223Z</time></trkpt><trkpt lat="42.1459634" lon="14.6841026"><ele>89.0</ele><time>2026-04-26T10:31:31.237Z</time></trkpt><trkpt lat="42.1459157" lon="14.6842417"><ele>89.0</ele><time>2026-04-26T10:31:32.177Z</time></trkpt><trkpt lat="42.1458611" lon="14.6844011"><ele>89.0</ele><time>2026-04-26T10:31:33.204Z</time></trkpt><trkpt lat="42.145827" lon="14.6845608"><ele>89.0</ele><time>2026-04-26T10:31:34.201Z</time></trkpt><trkpt lat="42.1458108" lon="14.6846926"><ele>89.0</ele><time>2026-04-26T10:31:35.204Z</time></trkpt><trkpt lat="42.1458066" lon="14.684817"><ele>89.0</ele><time>2026-04-26T10:31:36.209Z</time></trkpt><trkpt lat="42.1457989" lon="14.6849288"><ele>88.5</ele><time>2026-04-26T10:31:37.2Z</time></trkpt><trkpt lat="42.1457959" lon="14.6850193"><ele>88.0</ele><time>2026-04-26T10:31:38.189Z</time></trkpt><trkpt lat="42.1458054" lon="14.6851566"><ele>87.5</ele><time>2026-04-26T10:31:40.212Z</time></trkpt><trkpt lat="42.1457526" lon="14.6852187"><ele>87.0</ele><time>2026-04-26T10:31:43.198Z</time></trkpt><trkpt lat="42.1456932" lon="14.6851728"><ele>86.5</ele><time>2026-04-26T10:31:45.233Z</time></trkpt><trkpt lat="42.1456486" lon="14.6851011"><ele>86.0</ele><time>2026-04-26T10:31:46.185Z</time></trkpt><trkpt lat="42.1456013" lon="14.6849918"><ele>84.0</ele><time>2026-04-26T10:31:47.204Z</time></trkpt><trkpt lat="42.1455418" lon="14.6848507"><ele>82.0</ele><time>2026-04-26T10:31:48.215Z</time></trkpt><trkpt lat="42.1454418" lon="14.6846869"><ele>80.0</ele><time>2026-04-26T10:31:49.194Z</time></trkpt><trkpt lat="42.1453043" lon="14.6845352"><ele>83.0</ele><time>2026-04-26T10:31:50.165Z</time></trkpt><trkpt lat="42.1451524" lon="14.6843886"><ele>86.0</ele><time>2026-04-26T10:31:51.17Z</time></trkpt><trkpt lat="42.144988" lon="14.6842563"><ele>89.0</ele><time>2026-04-26T10:31:52.236Z</time></trkpt><trkpt lat="42.1448301" lon="14.6841526"><ele>89.0</ele><time>2026-04-26T10:31:53.229Z</time></trkpt><trkpt lat="42.1446852" lon="14.6840833"><ele>89.0</ele><time>2026-04-26T10:31:54.239Z</time></trkpt><trkpt lat="42.1445484" lon="14.6840459"><ele>89.0</ele><time>2026-04-26T10:31:55.227Z</time></trkpt><trkpt lat="42.1444149" lon="14.6840294"><ele>89.0</ele><time>2026-04-26T10:31:56.229Z</time></trkpt><trkpt lat="42.1442852" lon="14.6840082"><ele>89.0</ele><time>2026-04-26T10:31:57.214Z</time></trkpt><trkpt lat="42.1441641" lon="14.6839833"><ele>89.0</ele><time>2026-04-26T10:31:58.196Z</time></trkpt><trkpt lat="42.144051" lon="14.6839715"><ele>89.0</ele><time>2026-04-26T10:31:59.183Z</time></trkpt><trkpt lat="42.1439404" lon="14.6839729"><ele>89.0</ele><time>2026-04-26T10:32:00.223Z</time></trkpt><trkpt lat="42.14384" lon="14.6839765"><ele>89.0</ele><time>2026-04-26T10:32:01.237Z</time></trkpt><trkpt lat="42.1437585" lon="14.6839966"><ele>88.4</ele><time>2026-04-26T10:32:02.184Z</time></trkpt><trkpt lat="42.1437007" lon="14.684032"><ele>87.80000000000001</ele><time>2026-04-26T10:32:03.227Z</time></trkpt><trkpt lat="42.1436443" lon="14.6841"><ele>87.19999999999999</ele><time>2026-04-26T10:32:04.23Z</time></trkpt><trkpt lat="42.1435855" lon="14.6842347"><ele>86.6</ele><time>2026-04-26T10:32:05.211Z</time></trkpt><trkpt lat="42.1435373" lon="14.6843892"><ele>86.0</ele><time>2026-04-26T10:32:06.232Z</time></trkpt><trkpt lat="42.1434895" lon="14.6844795"><ele>85.8</ele><time>2026-04-26T10:32:07.233Z</time></trkpt><trkpt lat="42.1434383" lon="14.684551"><ele>85.6</ele><time>2026-04-26T10:32:09.211Z</time></trkpt><trkpt lat="42.1433737" lon="14.6845477"><ele>85.4</ele><time>2026-04-26T10:32:10.183Z</time></trkpt><trkpt lat="42.1432736" lon="14.6845152"><ele>85.2</ele><time>2026-04-26T10:32:11.206Z</time></trkpt><trkpt lat="42.1431427" lon="14.6844371"><ele>85.0</ele><time>2026-04-26T10:32:12.192Z</time></trkpt><trkpt lat="42.1429846" lon="14.6843583"><ele>87.5</ele><time>2026-04-26T10:32:13.213Z</time></trkpt><trkpt lat="42.1427782" lon="14.6842678"><ele>90.0</ele><time>2026-04-26T10:32:14.216Z</time></trkpt><trkpt lat="42.1425561" lon="14.6841696"><ele>92.33333333333334</ele><time>2026-04-26T10:32:15.212Z</time></trkpt><trkpt lat="42.1423346" lon="14.6840685"><ele>94.66666666666667</ele><time>2026-04-26T10:32:16.23Z</time></trkpt><trkpt lat="42.1421718" lon="14.6839972"><ele>97.0</ele><time>2026-04-26T10:32:17.188Z</time></trkpt><trkpt lat="42.1420687" lon="14.6839705"><ele>97.00000000000001</ele><time>2026-04-26T10:32:18.208Z</time></trkpt><trkpt lat="42.1419952" lon="14.6839658"><ele>97.0</ele><time>2026-04-26T10:32:19.181Z</time></trkpt><trkpt lat="42.1419246" lon="14.68402"><ele>97.0</ele><time>2026-04-26T10:32:20.17Z</time></trkpt><trkpt lat="42.1418614" lon="14.6840858"><ele>97.0</ele><time>2026-04-26T10:32:21.212Z</time></trkpt><trkpt lat="42.1417841" lon="14.6840734"><ele>97.00000000000001</ele><time>2026-04-26T10:32:23.207Z</time></trkpt><trkpt lat="42.1417398" lon="14.6840099"><ele>97.0</ele><time>2026-04-26T10:32:24.192Z</time></trkpt><trkpt lat="42.1416567" lon="14.6839232"><ele>97.00000000000001</ele><time>2026-04-26T10:32:25.169Z</time></trkpt><trkpt lat="42.1415629" lon="14.6838383"><ele>97.0</ele><time>2026-04-26T10:32:26.175Z</time></trkpt><trkpt lat="42.141487" lon="14.6837935"><ele>97.0</ele><time>2026-04-26T10:32:27.173Z</time></trkpt><trkpt lat="42.141424" lon="14.683745"><ele>97.0</ele><time>2026-04-26T10:32:28.199Z</time></trkpt><trkpt lat="42.1413537" lon="14.683681"><ele>97.00000000000001</ele><time>2026-04-26T10:32:29.182Z</time></trkpt><trkpt lat="42.1412774" lon="14.6836222"><ele>97.0</ele><time>2026-04-26T10:32:30.157Z</time></trkpt><trkpt lat="42.1411754" lon="14.6835739"><ele>98.5</ele><time>2026-04-26T10:32:31.163Z</time></trkpt><trkpt lat="42.1410608" lon="14.6835119"><ele>100.0</ele><time>2026-04-26T10:32:32.153Z</time></trkpt><trkpt lat="42.1409295" lon="14.6834886"><ele>101.5</ele><time>2026-04-26T10:32:33.185Z</time></trkpt><trkpt lat="42.140827" lon="14.6834756"><ele>103.0</ele><time>2026-04-26T10:32:34.213Z</time></trkpt><trkpt lat="42.1407038" lon="14.6834699"><ele>104.0</ele><time>2026-04-26T10:32:35.152Z</time></trkpt><trkpt lat="42.1406057" lon="14.6834561"><ele>105.0</ele><time>2026-04-26T10:32:36.19Z</time></trkpt><trkpt lat="42.1405101" lon="14.6834512"><ele>106.00000000000001</ele><time>2026-04-26T10:32:37.185Z</time></trkpt><trkpt lat="42.1404191" lon="14.6834316"><ele>107.0</ele><time>2026-04-26T10:32:38.185Z</time></trkpt><trkpt lat="42.1403099" lon="14.6834206"><ele>108.0</ele><time>2026-04-26T10:32:39.178Z</time></trkpt><trkpt lat="42.140221" lon="14.6834303"><ele>108.0</ele><time>2026-04-26T10:32:40.201Z</time></trkpt><trkpt lat="42.1401347" lon="14.6834352"><ele>108.00000000000001</ele><time>2026-04-26T10:32:41.17Z</time></trkpt><trkpt lat="42.1400691" lon="14.6833619"><ele>108.00000000000001</ele><time>2026-04-26T10:32:43.18Z</time></trkpt><trkpt lat="42.1400679" lon="14.6832485"><ele>108.0</ele><time>2026-04-26T10:32:44.18Z</time></trkpt><trkpt lat="42.1400903" lon="14.6830627"><ele>108.0</ele><time>2026-04-26T10:32:45.178Z</time></trkpt><trkpt lat="42.1401068" lon="14.682839"><ele>108.2</ele><time>2026-04-26T10:32:46.177Z</time></trkpt><trkpt lat="42.1401115" lon="14.6826375"><ele>108.4</ele><time>2026-04-26T10:32:47.175Z</time></trkpt><trkpt lat="42.1401083" lon="14.6825253"><ele>108.60000000000001</ele><time>2026-04-26T10:32:48.166Z</time></trkpt><trkpt lat="42.1400416" lon="14.6824473"><ele>108.80000000000001</ele><time>2026-04-26T10:32:51.17Z</time></trkpt><trkpt lat="42.1399722" lon="14.6824062"><ele>109.0</ele><time>2026-04-26T10:32:53.211Z</time></trkpt><trkpt lat="42.1399306" lon="14.682332"><ele>109.42857142857143</ele><time>2026-04-26T10:32:55.22Z</time></trkpt><trkpt lat="42.1398488" lon="14.6823083"><ele>109.85714285714286</ele><time>2026-04-26T10:32:58.195Z</time></trkpt><trkpt lat="42.1397899" lon="14.6823555"><ele>110.28571428571428</ele><time>2026-04-26T10:33:08.198Z</time></trkpt><trkpt lat="42.1397169" lon="14.6823688"><ele>110.71428571428572</ele><time>2026-04-26T10:33:55.213Z</time></trkpt><trkpt lat="42.1396653" lon="14.6824381"><ele>111.14285714285714</ele><time>2026-04-26T10:36:18.188Z</time></trkpt><trkpt lat="42.13966" lon="14.6825289"><ele>111.57142857142857</ele><time>2026-04-26T10:36:21.16Z</time></trkpt><trkpt lat="42.1396403" lon="14.6826105"><ele>112.0</ele><time>2026-04-26T10:36:24.207Z</time></trkpt><trkpt lat="42.1396582" lon="14.6824691"><ele>112.0</ele><time>2026-04-26T10:37:42.166Z</time></trkpt><trkpt lat="42.1399805" lon="14.6823107"><ele>112.0</ele><time>2026-04-26T10:40:46.763Z</time></trkpt><trkpt lat="42.139788" lon="14.6824286"><ele>112.00000000000001</ele><time>2026-04-26T10:40:50.17Z</time></trkpt><trkpt lat="42.1397633" lon="14.682337"><ele>112.0</ele><time>2026-04-26T10:41:29.16Z</time></trkpt><trkpt lat="42.1397027" lon="14.6823698"><ele>112.0</ele><time>2026-04-26T10:41:37.148Z</time></trkpt><trkpt lat="42.1396486" lon="14.6824252"><ele>112.0</ele><time>2026-04-26T10:50:11.161Z</time></trkpt><trkpt lat="42.1396496" lon="14.6825332"><ele>112.00000000000001</ele><time>2026-04-26T10:50:14.165Z</time></trkpt><trkpt lat="42.1396687" lon="14.6826319"><ele>112.0</ele><time>2026-04-26T10:50:17.15Z</time></trkpt><trkpt lat="42.1396785" lon="14.6824478"><ele>112.0</ele><time>2026-04-26T10:51:57.425Z</time></trkpt><trkpt lat="42.1397031" lon="14.6825305"><ele>112.0</ele><time>2026-04-26T11:27:28.137Z</time></trkpt><trkpt lat="42.1396794" lon="14.6824464"><ele>112.0</ele><time>2026-04-26T11:29:40.128Z</time></trkpt><trkpt lat="42.1396851" lon="14.6825338"><ele>112.0</ele><time>2026-04-26T11:29:45.135Z</time></trkpt><trkpt lat="42.1397129" lon="14.6824575"><ele>112.0</ele><time>2026-04-26T11:31:46.157Z</time></trkpt><trkpt lat="42.1397541" lon="14.6825314"><ele>112.0</ele><time>2026-04-26T11:31:48.171Z</time></trkpt><trkpt lat="42.1397574" lon="14.6826619"><ele>112.0</ele><time>2026-04-26T11:31:50.142Z</time></trkpt><trkpt lat="42.1397374" lon="14.682578"><ele>112.0</ele><time>2026-04-26T11:32:42.26Z</time></trkpt><trkpt lat="42.1397013" lon="14.6824708"><ele>112.0</ele><time>2026-04-26T11:33:15.966Z</time></trkpt><trkpt lat="42.1397118" lon="14.6823733"><ele>112.0</ele><time>2026-04-26T11:43:26.181Z</time></trkpt><trkpt lat="42.139731" lon="14.6824652"><ele>112.0</ele><time>2026-04-26T11:43:40.123Z</time></trkpt><trkpt lat="42.1397932" lon="14.6824789"><ele>112.0</ele><time>2026-04-26T11:43:53.179Z</time></trkpt><trkpt lat="42.1398555" lon="14.6824524"><ele>112.0</ele><time>2026-04-26T11:44:07.155Z</time></trkpt><trkpt lat="42.139863" lon="14.6825425"><ele>112.0</ele><time>2026-04-26T11:46:39.105Z</time></trkpt><trkpt lat="42.1397945" lon="14.6825937"><ele>111.39999999999999</ele><time>2026-04-26T11:47:20.107Z</time></trkpt><trkpt lat="42.1398869" lon="14.6824799"><ele>110.79999999999998</ele><time>2026-04-26T11:47:51.277Z</time></trkpt><trkpt lat="42.1399527" lon="14.6824968"><ele>110.2</ele><time>2026-04-26T11:49:08.12Z</time></trkpt><trkpt lat="42.1400458" lon="14.6826071"><ele>109.6</ele><time>2026-04-26T11:49:10.13Z</time></trkpt><trkpt lat="42.1399675" lon="14.68272"><ele>109.0</ele><time>2026-04-26T11:49:22.122Z</time></trkpt><trkpt lat="42.1399289" lon="14.6826192"><ele>109.00000000000001</ele><time>2026-04-26T11:49:24.111Z</time></trkpt><trkpt lat="42.1398935" lon="14.6824991"><ele>109.0</ele><time>2026-04-26T11:49:29.167Z</time></trkpt><trkpt lat="42.1399167" lon="14.6823565"><ele>109.0</ele><time>2026-04-26T11:50:38.157Z</time></trkpt><trkpt lat="42.1399285" lon="14.6822449"><ele>109.0</ele><time>2026-04-26T11:50:39.114Z</time></trkpt><trkpt lat="42.1399181" lon="14.6821554"><ele>109.00000000000001</ele><time>2026-04-26T11:50:40.133Z</time></trkpt><trkpt lat="42.1398655" lon="14.6820722"><ele>109.0</ele><time>2026-04-26T11:50:41.11Z</time></trkpt><trkpt lat="42.1397995" lon="14.6819816"><ele>112.0</ele><time>2026-04-26T11:50:42.168Z</time></trkpt><trkpt lat="42.1397522" lon="14.6819185"><ele>115.0</ele><time>2026-04-26T11:50:43.169Z</time></trkpt><trkpt lat="42.1397265" lon="14.6818272"><ele>115.0</ele><time>2026-04-26T11:50:45.115Z</time></trkpt><trkpt lat="42.1397603" lon="14.6819615"><ele>112.0</ele><time>2026-04-26T11:50:58.104Z</time></trkpt><trkpt lat="42.1397858" lon="14.6820798"><ele>112.0</ele><time>2026-04-26T11:51:00.109Z</time></trkpt><trkpt lat="42.1397858" lon="14.6820798"><ele>112.0</ele><time>2026-04-26T11:51:00.109Z</time></trkpt><trkpt lat="42.1397858" lon="14.6820798"><ele>112.0</ele><time>2026-04-26T11:51:00.109Z</time></trkpt><trkpt lat="42.1397858" lon="14.6820798"><ele>112.0</ele><time>2026-04-26T11:51:00.109Z</time></trkpt><trkpt lat="42.1397858" lon="14.6820798"><ele>112.0</ele><time>2026-04-26T11:51:00.109Z</time></trkpt></trkseg></trk></gpx>